<?xml version="1.0" encoding="UTF-8"?>
<TrainingCenterDatabase xmlns="http://www.garmin.com/xmlschemas/TrainingCenterDatabase/v2" xmlns:xsi="http://www.w3.org/2001/XMLSchema-instance" xsi:schemaLocation="http://www.garmin.com/xmlschemas/TrainingCenterDatabase/v2 http://www.garmin.com/xmlschemas/TrainingCenterDatabasev2.xsd">
  <Activities>
    <Activity Sport="Other">
      <Id>2020-04-26T16:27:37.000Z</Id>
      <Lap StartTime="2020-04-26T16:27:37.000Z">
        <TotalTimeSeconds>7986</TotalTimeSeconds>
        <DistanceMeters>54290</DistanceMeters>
        <Track>
          <Trackpoint>
            <Time>2020-04-26T16:27:37.000Z</Time>
            <Position>
              <LatitudeDegrees>38.52517702616751194000244140625</LatitudeDegrees>
              <LongitudeDegrees>-28.689078949391841888427734375</LongitudeDegrees>
            </Position>
            <AltitudeMeters>70</AltitudeMeters>
            <DistanceMeters>0</DistanceMeters>
          </Trackpoint>
          <Trackpoint>
            <Time>2020-04-26T16:27:38.000Z</Time>
            <Position>
              <LatitudeDegrees>38.52517702616751194000244140625</LatitudeDegrees>
              <LongitudeDegrees>-28.689078949391841888427734375</LongitudeDegrees>
            </Position>
            <AltitudeMeters>70</AltitudeMeters>
            <DistanceMeters>0</DistanceMeters>
          </Trackpoint>
          <Trackpoint>
            <Time>2020-04-26T16:27:40.000Z</Time>
            <Position>
              <LatitudeDegrees>38.52517300285398960113525390625</LatitudeDegrees>
              <LongitudeDegrees>-28.68908138014376163482666015625</LongitudeDegrees>
            </Position>
            <AltitudeMeters>70</AltitudeMeters>
            <DistanceMeters>0.50283410826108</DistanceMeters>
          </Trackpoint>
          <Trackpoint>
            <Time>2020-04-26T16:27:43.000Z</Time>
            <Position>
              <LatitudeDegrees>38.5251395590603351593017578125</LatitudeDegrees>
              <LongitudeDegrees>-28.68912546895444393157958984375</LongitudeDegrees>
            </Position>
            <AltitudeMeters>69.59999847412109375</AltitudeMeters>
            <DistanceMeters>5.8497231123046</DistanceMeters>
          </Trackpoint>
          <Trackpoint>
            <Time>2020-04-26T16:27:46.000Z</Time>
            <Position>
              <LatitudeDegrees>38.52507996372878551483154296875</LatitudeDegrees>
              <LongitudeDegrees>-28.68920006789267063140869140625</LongitudeDegrees>
            </Position>
            <AltitudeMeters>69.40000152587890625</AltitudeMeters>
            <DistanceMeters>15.133692072699</DistanceMeters>
          </Trackpoint>
          <Trackpoint>
            <Time>2020-04-26T16:27:48.000Z</Time>
            <Position>
              <LatitudeDegrees>38.52501508779823780059814453125</LatitudeDegrees>
              <LongitudeDegrees>-28.6892618425190448760986328125</LongitudeDegrees>
            </Position>
            <AltitudeMeters>69.40000152587890625</AltitudeMeters>
            <DistanceMeters>24.138194079488</DistanceMeters>
          </Trackpoint>
          <Trackpoint>
            <Time>2020-04-26T16:27:50.000Z</Time>
            <Position>
              <LatitudeDegrees>38.5249313525855541229248046875</LatitudeDegrees>
              <LongitudeDegrees>-28.68934021331369876861572265625</LongitudeDegrees>
            </Position>
            <AltitudeMeters>68.59999847412109375</AltitudeMeters>
            <DistanceMeters>35.689315649964</DistanceMeters>
          </Trackpoint>
          <Trackpoint>
            <Time>2020-04-26T16:27:52.000Z</Time>
            <Position>
              <LatitudeDegrees>38.524833954870700836181640625</LatitudeDegrees>
              <LongitudeDegrees>-28.68942855857312679290771484375</LongitudeDegrees>
            </Position>
            <AltitudeMeters>68.1999969482421875</AltitudeMeters>
            <DistanceMeters>48.98219102948</DistanceMeters>
          </Trackpoint>
          <Trackpoint>
            <Time>2020-04-26T16:27:53.000Z</Time>
            <Position>
              <LatitudeDegrees>38.52478005923330783843994140625</LatitudeDegrees>
              <LongitudeDegrees>-28.68947532959282398223876953125</LongitudeDegrees>
            </Position>
            <AltitudeMeters>68.1999969482421875</AltitudeMeters>
            <DistanceMeters>56.232922375814</DistanceMeters>
          </Trackpoint>
          <Trackpoint>
            <Time>2020-04-26T16:27:56.000Z</Time>
            <Position>
              <LatitudeDegrees>38.5246114991605281829833984375</LatitudeDegrees>
              <LongitudeDegrees>-28.6896264553070068359375</LongitudeDegrees>
            </Position>
            <AltitudeMeters>66.8000030517578125</AltitudeMeters>
            <DistanceMeters>79.149142083156</DistanceMeters>
          </Trackpoint>
          <Trackpoint>
            <Time>2020-04-26T16:27:58.000Z</Time>
            <Position>
              <LatitudeDegrees>38.52446422912180423736572265625</LatitudeDegrees>
              <LongitudeDegrees>-28.68974556215107440948486328125</LongitudeDegrees>
            </Position>
            <AltitudeMeters>65.59999847412109375</AltitudeMeters>
            <DistanceMeters>98.54623374954</DistanceMeters>
          </Trackpoint>
          <Trackpoint>
            <Time>2020-04-26T16:27:59.000Z</Time>
            <Position>
              <LatitudeDegrees>38.52437940426170825958251953125</LatitudeDegrees>
              <LongitudeDegrees>-28.6898128688335418701171875</LongitudeDegrees>
            </Position>
            <AltitudeMeters>64</AltitudeMeters>
            <DistanceMeters>109.65867251747</DistanceMeters>
          </Trackpoint>
          <Trackpoint>
            <Time>2020-04-26T16:28:00.000Z</Time>
            <Position>
              <LatitudeDegrees>38.52428636513650417327880859375</LatitudeDegrees>
              <LongitudeDegrees>-28.68988587521016597747802734375</LongitudeDegrees>
            </Position>
            <AltitudeMeters>62.799999237060546875</AltitudeMeters>
            <DistanceMeters>121.80946466691</DistanceMeters>
          </Trackpoint>
          <Trackpoint>
            <Time>2020-04-26T16:28:01.000Z</Time>
            <Position>
              <LatitudeDegrees>38.5241887159645557403564453125</LatitudeDegrees>
              <LongitudeDegrees>-28.6899635754525661468505859375</LongitudeDegrees>
            </Position>
            <AltitudeMeters>61.40000152587890625</AltitudeMeters>
            <DistanceMeters>134.61164758459</DistanceMeters>
          </Trackpoint>
          <Trackpoint>
            <Time>2020-04-26T16:28:02.000Z</Time>
            <Position>
              <LatitudeDegrees>38.52408670820295810699462890625</LatitudeDegrees>
              <LongitudeDegrees>-28.69004948996007442474365234375</LongitudeDegrees>
            </Position>
            <AltitudeMeters>61</AltitudeMeters>
            <DistanceMeters>148.20877173323</DistanceMeters>
          </Trackpoint>
          <Trackpoint>
            <Time>2020-04-26T16:28:03.000Z</Time>
            <Position>
              <LatitudeDegrees>38.52399098686873912811279296875</LatitudeDegrees>
              <LongitudeDegrees>-28.69015761651098728179931640625</LongitudeDegrees>
            </Position>
            <AltitudeMeters>59.59999847412109375</AltitudeMeters>
            <DistanceMeters>162.42725798977</DistanceMeters>
          </Trackpoint>
          <Trackpoint>
            <Time>2020-04-26T16:28:05.000Z</Time>
            <Position>
              <LatitudeDegrees>38.52381505072116851806640625</LatitudeDegrees>
              <LongitudeDegrees>-28.69042499922215938568115234375</LongitudeDegrees>
            </Position>
            <AltitudeMeters>57.200000762939453125</AltitudeMeters>
            <DistanceMeters>192.85020566546</DistanceMeters>
          </Trackpoint>
          <Trackpoint>
            <Time>2020-04-26T16:28:06.000Z</Time>
            <Position>
              <LatitudeDegrees>38.52371715009212493896484375</LatitudeDegrees>
              <LongitudeDegrees>-28.69056229479610919952392578125</LongitudeDegrees>
            </Position>
            <AltitudeMeters>56</AltitudeMeters>
            <DistanceMeters>209.02625354857</DistanceMeters>
          </Trackpoint>
          <Trackpoint>
            <Time>2020-04-26T16:28:07.000Z</Time>
            <Position>
              <LatitudeDegrees>38.52362595498561859130859375</LatitudeDegrees>
              <LongitudeDegrees>-28.6906911246478557586669921875</LongitudeDegrees>
            </Position>
            <AltitudeMeters>54.40000152587890625</AltitudeMeters>
            <DistanceMeters>224.15461391816</DistanceMeters>
          </Trackpoint>
          <Trackpoint>
            <Time>2020-04-26T16:28:08.000Z</Time>
            <Position>
              <LatitudeDegrees>38.523547165095806121826171875</LatitudeDegrees>
              <LongitudeDegrees>-28.690790869295597076416015625</LongitudeDegrees>
            </Position>
            <AltitudeMeters>52.799999237060546875</AltitudeMeters>
            <DistanceMeters>236.49711729509</DistanceMeters>
          </Trackpoint>
          <Trackpoint>
            <Time>2020-04-26T16:28:09.000Z</Time>
            <Position>
              <LatitudeDegrees>38.52347818203270435333251953125</LatitudeDegrees>
              <LongitudeDegrees>-28.69087167084217071533203125</LongitudeDegrees>
            </Position>
            <AltitudeMeters>51.59999847412109375</AltitudeMeters>
            <DistanceMeters>246.91110875331</DistanceMeters>
          </Trackpoint>
          <Trackpoint>
            <Time>2020-04-26T16:28:11.000Z</Time>
            <Position>
              <LatitudeDegrees>38.52337240241467952728271484375</LatitudeDegrees>
              <LongitudeDegrees>-28.6909754388034343719482421875</LongitudeDegrees>
            </Position>
            <AltitudeMeters>50.40000152587890625</AltitudeMeters>
            <DistanceMeters>261.75293090471</DistanceMeters>
          </Trackpoint>
          <Trackpoint>
            <Time>2020-04-26T16:28:12.000Z</Time>
            <Position>
              <LatitudeDegrees>38.52333434857428073883056640625</LatitudeDegrees>
              <LongitudeDegrees>-28.69099899195134639739990234375</LongitudeDegrees>
            </Position>
            <AltitudeMeters>49.799999237060546875</AltitudeMeters>
            <DistanceMeters>266.46035138662</DistanceMeters>
          </Trackpoint>
          <Trackpoint>
            <Time>2020-04-26T16:28:14.000Z</Time>
            <Position>
              <LatitudeDegrees>38.5232814587652683258056640625</LatitudeDegrees>
              <LongitudeDegrees>-28.69096957147121429443359375</LongitudeDegrees>
            </Position>
            <AltitudeMeters>49</AltitudeMeters>
            <DistanceMeters>272.88151397941</DistanceMeters>
          </Trackpoint>
          <Trackpoint>
            <Time>2020-04-26T16:28:17.000Z</Time>
            <Position>
              <LatitudeDegrees>38.52326176129281520843505859375</LatitudeDegrees>
              <LongitudeDegrees>-28.6908476985991001129150390625</LongitudeDegrees>
            </Position>
            <AltitudeMeters>49.40000152587890625</AltitudeMeters>
            <DistanceMeters>283.71789317531</DistanceMeters>
          </Trackpoint>
          <Trackpoint>
            <Time>2020-04-26T16:28:18.000Z</Time>
            <Position>
              <LatitudeDegrees>38.5232667066156864166259765625</LatitudeDegrees>
              <LongitudeDegrees>-28.69080570526421070098876953125</LongitudeDegrees>
            </Position>
            <AltitudeMeters>49.40000152587890625</AltitudeMeters>
            <DistanceMeters>287.41539716261</DistanceMeters>
          </Trackpoint>
          <Trackpoint>
            <Time>2020-04-26T16:28:20.000Z</Time>
            <Position>
              <LatitudeDegrees>38.52328858338296413421630859375</LatitudeDegrees>
              <LongitudeDegrees>-28.6907182820141315460205078125</LongitudeDegrees>
            </Position>
            <AltitudeMeters>49.59999847412109375</AltitudeMeters>
            <DistanceMeters>295.40781611838</DistanceMeters>
          </Trackpoint>
          <Trackpoint>
            <Time>2020-04-26T16:28:21.000Z</Time>
            <Position>
              <LatitudeDegrees>38.5232945345342159271240234375</LatitudeDegrees>
              <LongitudeDegrees>-28.6906720139086246490478515625</LongitudeDegrees>
            </Position>
            <AltitudeMeters>49.799999237060546875</AltitudeMeters>
            <DistanceMeters>299.49175431478</DistanceMeters>
          </Trackpoint>
          <Trackpoint>
            <Time>2020-04-26T16:28:22.000Z</Time>
            <Position>
              <LatitudeDegrees>38.52329780347645282745361328125</LatitudeDegrees>
              <LongitudeDegrees>-28.69062432087957859039306640625</LongitudeDegrees>
            </Position>
            <AltitudeMeters>50.200000762939453125</AltitudeMeters>
            <DistanceMeters>303.66103448702</DistanceMeters>
          </Trackpoint>
          <Trackpoint>
            <Time>2020-04-26T16:28:23.000Z</Time>
            <Position>
              <LatitudeDegrees>38.523297719657421112060546875</LatitudeDegrees>
              <LongitudeDegrees>-28.69057637639343738555908203125</LongitudeDegrees>
            </Position>
            <AltitudeMeters>50.40000152587890625</AltitudeMeters>
            <DistanceMeters>307.83572579738</DistanceMeters>
          </Trackpoint>
          <Trackpoint>
            <Time>2020-04-26T16:28:25.000Z</Time>
            <Position>
              <LatitudeDegrees>38.5233007371425628662109375</LatitudeDegrees>
              <LongitudeDegrees>-28.690486438572406768798828125</LongitudeDegrees>
            </Position>
            <AltitudeMeters>51</AltitudeMeters>
            <DistanceMeters>315.67413380696</DistanceMeters>
          </Trackpoint>
          <Trackpoint>
            <Time>2020-04-26T16:28:26.000Z</Time>
            <Position>
              <LatitudeDegrees>38.5232988931238651275634765625</LatitudeDegrees>
              <LongitudeDegrees>-28.69044385850429534912109375</LongitudeDegrees>
            </Position>
            <AltitudeMeters>51.40000152587890625</AltitudeMeters>
            <DistanceMeters>319.38626212553</DistanceMeters>
          </Trackpoint>
          <Trackpoint>
            <Time>2020-04-26T16:28:29.000Z</Time>
            <Position>
              <LatitudeDegrees>38.5232918523252010345458984375</LatitudeDegrees>
              <LongitudeDegrees>-28.69033196009695529937744140625</LongitudeDegrees>
            </Position>
            <AltitudeMeters>51.799999237060546875</AltitudeMeters>
            <DistanceMeters>329.16155081333</DistanceMeters>
          </Trackpoint>
          <Trackpoint>
            <Time>2020-04-26T16:28:33.000Z</Time>
            <Position>
              <LatitudeDegrees>38.523297719657421112060546875</LatitudeDegrees>
              <LongitudeDegrees>-28.6901939101517200469970703125</LongitudeDegrees>
            </Position>
            <AltitudeMeters>52.59999847412109375</AltitudeMeters>
            <DistanceMeters>341.20035170568</DistanceMeters>
          </Trackpoint>
          <Trackpoint>
            <Time>2020-04-26T16:28:37.000Z</Time>
            <Position>
              <LatitudeDegrees>38.523288331925868988037109375</LatitudeDegrees>
              <LongitudeDegrees>-28.69004379026591777801513671875</LongitudeDegrees>
            </Position>
            <AltitudeMeters>54.200000762939453125</AltitudeMeters>
            <DistanceMeters>354.31403828873</DistanceMeters>
          </Trackpoint>
          <Trackpoint>
            <Time>2020-04-26T16:28:39.000Z</Time>
            <Position>
              <LatitudeDegrees>38.52328397333621978759765625</LatitudeDegrees>
              <LongitudeDegrees>-28.6899659223854541778564453125</LongitudeDegrees>
            </Position>
            <AltitudeMeters>52.799999237060546875</AltitudeMeters>
            <DistanceMeters>361.11093986867</DistanceMeters>
          </Trackpoint>
          <Trackpoint>
            <Time>2020-04-26T16:28:42.000Z</Time>
            <Position>
              <LatitudeDegrees>38.52328003384172916412353515625</LatitudeDegrees>
              <LongitudeDegrees>-28.68984379805624485015869140625</LongitudeDegrees>
            </Position>
            <AltitudeMeters>54.40000152587890625</AltitudeMeters>
            <DistanceMeters>371.75393187811</DistanceMeters>
          </Trackpoint>
          <Trackpoint>
            <Time>2020-04-26T16:28:44.000Z</Time>
            <Position>
              <LatitudeDegrees>38.52327726781368255615234375</LatitudeDegrees>
              <LongitudeDegrees>-28.68976299650967121124267578125</LongitudeDegrees>
            </Position>
            <AltitudeMeters>55.200000762939453125</AltitudeMeters>
            <DistanceMeters>378.7961744066</DistanceMeters>
          </Trackpoint>
          <Trackpoint>
            <Time>2020-04-26T16:28:45.000Z</Time>
            <Position>
              <LatitudeDegrees>38.5232760943472385406494140625</LatitudeDegrees>
              <LongitudeDegrees>-28.68972276337444782257080078125</LongitudeDegrees>
            </Position>
            <AltitudeMeters>55.59999847412109375</AltitudeMeters>
            <DistanceMeters>382.3031623046</DistanceMeters>
          </Trackpoint>
          <Trackpoint>
            <Time>2020-04-26T16:28:46.000Z</Time>
            <Position>
              <LatitudeDegrees>38.5232760943472385406494140625</LatitudeDegrees>
              <LongitudeDegrees>-28.68968169204890727996826171875</LongitudeDegrees>
            </Position>
            <AltitudeMeters>55.799999237060546875</AltitudeMeters>
            <DistanceMeters>385.88025865794</DistanceMeters>
          </Trackpoint>
          <Trackpoint>
            <Time>2020-04-26T16:28:48.000Z</Time>
            <Position>
              <LatitudeDegrees>38.52327567525207996368408203125</LatitudeDegrees>
              <LongitudeDegrees>-28.68959804065525531768798828125</LongitudeDegrees>
            </Position>
            <AltitudeMeters>56.59999847412109375</AltitudeMeters>
            <DistanceMeters>393.16515805746</DistanceMeters>
          </Trackpoint>
          <Trackpoint>
            <Time>2020-04-26T16:28:50.000Z</Time>
            <Position>
              <LatitudeDegrees>38.5232801176607608795166015625</LatitudeDegrees>
              <LongitudeDegrees>-28.6895179934799671173095703125</LongitudeDegrees>
            </Position>
            <AltitudeMeters>56.200000762939453125</AltitudeMeters>
            <DistanceMeters>400.15333760645</DistanceMeters>
          </Trackpoint>
          <Trackpoint>
            <Time>2020-04-26T16:28:51.000Z</Time>
            <Position>
              <LatitudeDegrees>38.523282967507839202880859375</LatitudeDegrees>
              <LongitudeDegrees>-28.68947901763021945953369140625</LongitudeDegrees>
            </Position>
            <AltitudeMeters>55.59999847412109375</AltitudeMeters>
            <DistanceMeters>403.56107561089</DistanceMeters>
          </Trackpoint>
          <Trackpoint>
            <Time>2020-04-26T16:28:52.000Z</Time>
            <Position>
              <LatitudeDegrees>38.52328724227845668792724609375</LatitudeDegrees>
              <LongitudeDegrees>-28.6894388683140277862548828125</LongitudeDegrees>
            </Position>
            <AltitudeMeters>56.59999847412109375</AltitudeMeters>
            <DistanceMeters>407.08860241302</DistanceMeters>
          </Trackpoint>
          <Trackpoint>
            <Time>2020-04-26T16:28:53.000Z</Time>
            <Position>
              <LatitudeDegrees>38.52329093031585216522216796875</LatitudeDegrees>
              <LongitudeDegrees>-28.6893996410071849822998046875</LongitudeDegrees>
            </Position>
            <AltitudeMeters>56.59999847412109375</AltitudeMeters>
            <DistanceMeters>410.52799191431</DistanceMeters>
          </Trackpoint>
          <Trackpoint>
            <Time>2020-04-26T16:29:00.000Z</Time>
            <Position>
              <LatitudeDegrees>38.52330945432186126708984375</LatitudeDegrees>
              <LongitudeDegrees>-28.6891133151948451995849609375</LongitudeDegrees>
            </Position>
            <AltitudeMeters>57.59999847412109375</AltitudeMeters>
            <DistanceMeters>435.54583871383</DistanceMeters>
          </Trackpoint>
          <Trackpoint>
            <Time>2020-04-26T16:29:08.000Z</Time>
            <Position>
              <LatitudeDegrees>38.52337860502302646636962890625</LatitudeDegrees>
              <LongitudeDegrees>-28.68872498162090778350830078125</LongitudeDegrees>
            </Position>
            <AltitudeMeters>56.59999847412109375</AltitudeMeters>
            <DistanceMeters>470.22590289337</DistanceMeters>
          </Trackpoint>
          <Trackpoint>
            <Time>2020-04-26T16:29:11.000Z</Time>
            <Position>
              <LatitudeDegrees>38.523414395749568939208984375</LatitudeDegrees>
              <LongitudeDegrees>-28.6885671503841876983642578125</LongitudeDegrees>
            </Position>
            <AltitudeMeters>56.799999237060546875</AltitudeMeters>
            <DistanceMeters>484.53491939662</DistanceMeters>
          </Trackpoint>
          <Trackpoint>
            <Time>2020-04-26T16:29:15.000Z</Time>
            <Position>
              <LatitudeDegrees>38.52346728555858135223388671875</LatitudeDegrees>
              <LongitudeDegrees>-28.6883133463561534881591796875</LongitudeDegrees>
            </Position>
            <AltitudeMeters>56</AltitudeMeters>
            <DistanceMeters>507.40617358711</DistanceMeters>
          </Trackpoint>
          <Trackpoint>
            <Time>2020-04-26T16:29:17.000Z</Time>
            <Position>
              <LatitudeDegrees>38.5234940238296985626220703125</LatitudeDegrees>
              <LongitudeDegrees>-28.68816104717552661895751953125</LongitudeDegrees>
            </Position>
            <AltitudeMeters>55.40000152587890625</AltitudeMeters>
            <DistanceMeters>520.99798376421</DistanceMeters>
          </Trackpoint>
          <Trackpoint>
            <Time>2020-04-26T16:29:21.000Z</Time>
            <Position>
              <LatitudeDegrees>38.52354356087744235992431640625</LatitudeDegrees>
              <LongitudeDegrees>-28.687829039990901947021484375</LongitudeDegrees>
            </Position>
            <AltitudeMeters>54.200000762939453125</AltitudeMeters>
            <DistanceMeters>550.42927753142</DistanceMeters>
          </Trackpoint>
          <Trackpoint>
            <Time>2020-04-26T16:29:23.000Z</Time>
            <Position>
              <LatitudeDegrees>38.52354875765740871429443359375</LatitudeDegrees>
              <LongitudeDegrees>-28.6876536905765533447265625</LongitudeDegrees>
            </Position>
            <AltitudeMeters>54</AltitudeMeters>
            <DistanceMeters>565.70938409305</DistanceMeters>
          </Trackpoint>
          <Trackpoint>
            <Time>2020-04-26T16:29:25.000Z</Time>
            <Position>
              <LatitudeDegrees>38.5235275514423847198486328125</LatitudeDegrees>
              <LongitudeDegrees>-28.6874667741358280181884765625</LongitudeDegrees>
            </Position>
            <AltitudeMeters>54</AltitudeMeters>
            <DistanceMeters>582.15587033791</DistanceMeters>
          </Trackpoint>
          <Trackpoint>
            <Time>2020-04-26T16:29:27.000Z</Time>
            <Position>
              <LatitudeDegrees>38.5234869830310344696044921875</LatitudeDegrees>
              <LongitudeDegrees>-28.6872783489525318145751953125</LongitudeDegrees>
            </Position>
            <AltitudeMeters>53.200000762939453125</AltitudeMeters>
            <DistanceMeters>599.1733481639</DistanceMeters>
          </Trackpoint>
          <Trackpoint>
            <Time>2020-04-26T16:29:30.000Z</Time>
            <Position>
              <LatitudeDegrees>38.523408360779285430908203125</LatitudeDegrees>
              <LongitudeDegrees>-28.686989843845367431640625</LongitudeDegrees>
            </Position>
            <AltitudeMeters>52.40000152587890625</AltitudeMeters>
            <DistanceMeters>625.77607642749</DistanceMeters>
          </Trackpoint>
          <Trackpoint>
            <Time>2020-04-26T16:29:31.000Z</Time>
            <Position>
              <LatitudeDegrees>38.5233823768794536590576171875</LatitudeDegrees>
              <LongitudeDegrees>-28.68689085356891155242919921875</LongitudeDegrees>
            </Position>
            <AltitudeMeters>52.200000762939453125</AltitudeMeters>
            <DistanceMeters>634.86790351383</DistanceMeters>
          </Trackpoint>
          <Trackpoint>
            <Time>2020-04-26T16:29:33.000Z</Time>
            <Position>
              <LatitudeDegrees>38.5233347676694393157958984375</LatitudeDegrees>
              <LongitudeDegrees>-28.68669320829212665557861328125</LongitudeDegrees>
            </Position>
            <AltitudeMeters>51.799999237060546875</AltitudeMeters>
            <DistanceMeters>652.87590465931</DistanceMeters>
          </Trackpoint>
          <Trackpoint>
            <Time>2020-04-26T16:29:35.000Z</Time>
            <Position>
              <LatitudeDegrees>38.52331322617828845977783203125</LatitudeDegrees>
              <LongitudeDegrees>-28.68648902513086795806884765625</LongitudeDegrees>
            </Position>
            <AltitudeMeters>50.59999847412109375</AltitudeMeters>
            <DistanceMeters>670.8165859387</DistanceMeters>
          </Trackpoint>
          <Trackpoint>
            <Time>2020-04-26T16:29:36.000Z</Time>
            <Position>
              <LatitudeDegrees>38.52331347763538360595703125</LatitudeDegrees>
              <LongitudeDegrees>-28.6863838322460651397705078125</LongitudeDegrees>
            </Position>
            <AltitudeMeters>50.40000152587890625</AltitudeMeters>
            <DistanceMeters>679.97668802968</DistanceMeters>
          </Trackpoint>
          <Trackpoint>
            <Time>2020-04-26T16:29:38.000Z</Time>
            <Position>
              <LatitudeDegrees>38.5233196802437305450439453125</LatitudeDegrees>
              <LongitudeDegrees>-28.68617386557161808013916015625</LongitudeDegrees>
            </Position>
            <AltitudeMeters>48.799999237060546875</AltitudeMeters>
            <DistanceMeters>698.27321758942</DistanceMeters>
          </Trackpoint>
          <Trackpoint>
            <Time>2020-04-26T16:29:39.000Z</Time>
            <Position>
              <LatitudeDegrees>38.52333627641201019287109375</LatitudeDegrees>
              <LongitudeDegrees>-28.68606917560100555419921875</LongitudeDegrees>
            </Position>
            <AltitudeMeters>48.799999237060546875</AltitudeMeters>
            <DistanceMeters>707.57467781938</DistanceMeters>
          </Trackpoint>
          <Trackpoint>
            <Time>2020-04-26T16:29:40.000Z</Time>
            <Position>
              <LatitudeDegrees>38.52336318232119083404541015625</LatitudeDegrees>
              <LongitudeDegrees>-28.6859664134681224822998046875</LongitudeDegrees>
            </Position>
            <AltitudeMeters>48.799999237060546875</AltitudeMeters>
            <DistanceMeters>717.01059609676</DistanceMeters>
          </Trackpoint>
          <Trackpoint>
            <Time>2020-04-26T16:29:41.000Z</Time>
            <Position>
              <LatitudeDegrees>38.52339654229581356048583984375</LatitudeDegrees>
              <LongitudeDegrees>-28.685868345201015472412109375</LongitudeDegrees>
            </Position>
            <AltitudeMeters>49</AltitudeMeters>
            <DistanceMeters>726.32224439418</DistanceMeters>
          </Trackpoint>
          <Trackpoint>
            <Time>2020-04-26T16:29:44.000Z</Time>
            <Position>
              <LatitudeDegrees>38.52350927889347076416015625</LatitudeDegrees>
              <LongitudeDegrees>-28.68557271547615528106689453125</LongitudeDegrees>
            </Position>
            <AltitudeMeters>47.200000762939453125</AltitudeMeters>
            <DistanceMeters>754.96014939427</DistanceMeters>
          </Trackpoint>
          <Trackpoint>
            <Time>2020-04-26T16:29:46.000Z</Time>
            <Position>
              <LatitudeDegrees>38.5235976241528987884521484375</LatitudeDegrees>
              <LongitudeDegrees>-28.68537423200905323028564453125</LongitudeDegrees>
            </Position>
            <AltitudeMeters>45.59999847412109375</AltitudeMeters>
            <DistanceMeters>774.8448157795</DistanceMeters>
          </Trackpoint>
          <Trackpoint>
            <Time>2020-04-26T16:29:48.000Z</Time>
            <Position>
              <LatitudeDegrees>38.52368722669780254364013671875</LatitudeDegrees>
              <LongitudeDegrees>-28.68517340160906314849853515625</LongitudeDegrees>
            </Position>
            <AltitudeMeters>45.799999237060546875</AltitudeMeters>
            <DistanceMeters>794.97635473909</DistanceMeters>
          </Trackpoint>
          <Trackpoint>
            <Time>2020-04-26T16:29:51.000Z</Time>
            <Position>
              <LatitudeDegrees>38.52381429634988307952880859375</LatitudeDegrees>
              <LongitudeDegrees>-28.68487148545682430267333984375</LongitudeDegrees>
            </Position>
            <AltitudeMeters>44.59999847412109375</AltitudeMeters>
            <DistanceMeters>824.82911465056</DistanceMeters>
          </Trackpoint>
          <Trackpoint>
            <Time>2020-04-26T16:29:53.000Z</Time>
            <Position>
              <LatitudeDegrees>38.5239097662270069122314453125</LatitudeDegrees>
              <LongitudeDegrees>-28.68468389846384525299072265625</LongitudeDegrees>
            </Position>
            <AltitudeMeters>43.40000152587890625</AltitudeMeters>
            <DistanceMeters>844.31607964509</DistanceMeters>
          </Trackpoint>
          <Trackpoint>
            <Time>2020-04-26T16:29:54.000Z</Time>
            <Position>
              <LatitudeDegrees>38.52397087030112743377685546875</LatitudeDegrees>
              <LongitudeDegrees>-28.6846038512885570526123046875</LongitudeDegrees>
            </Position>
            <AltitudeMeters>43.40000152587890625</AltitudeMeters>
            <DistanceMeters>854.05434760271</DistanceMeters>
          </Trackpoint>
          <Trackpoint>
            <Time>2020-04-26T16:29:56.000Z</Time>
            <Position>
              <LatitudeDegrees>38.5241099260747432708740234375</LatitudeDegrees>
              <LongitudeDegrees>-28.68446311913430690765380859375</LongitudeDegrees>
            </Position>
            <AltitudeMeters>41.200000762939453125</AltitudeMeters>
            <DistanceMeters>873.79567580444</DistanceMeters>
          </Trackpoint>
          <Trackpoint>
            <Time>2020-04-26T16:29:58.000Z</Time>
            <Position>
              <LatitudeDegrees>38.5242520831525325775146484375</LatitudeDegrees>
              <LongitudeDegrees>-28.68432699702680110931396484375</LongitudeDegrees>
            </Position>
            <AltitudeMeters>41.200000762939453125</AltitudeMeters>
            <DistanceMeters>893.56580045757</DistanceMeters>
          </Trackpoint>
          <Trackpoint>
            <Time>2020-04-26T16:30:04.000Z</Time>
            <Position>
              <LatitudeDegrees>38.52460085414350032806396484375</LatitudeDegrees>
              <LongitudeDegrees>-28.68387940339744091033935546875</LongitudeDegrees>
            </Position>
            <AltitudeMeters>41.799999237060546875</AltitudeMeters>
            <DistanceMeters>948.57436793649</DistanceMeters>
          </Trackpoint>
          <Trackpoint>
            <Time>2020-04-26T16:30:10.000Z</Time>
            <Position>
              <LatitudeDegrees>38.52484040893614292144775390625</LatitudeDegrees>
              <LongitudeDegrees>-28.68343256413936614990234375</LongitudeDegrees>
            </Position>
            <AltitudeMeters>41.799999237060546875</AltitudeMeters>
            <DistanceMeters>995.74237832695</DistanceMeters>
          </Trackpoint>
          <Trackpoint>
            <Time>2020-04-26T16:30:13.000Z</Time>
            <Position>
              <LatitudeDegrees>38.52494099177420139312744140625</LatitudeDegrees>
              <LongitudeDegrees>-28.6832265369594097137451171875</LongitudeDegrees>
            </Position>
            <AltitudeMeters>41.40000152587890625</AltitudeMeters>
            <DistanceMeters>1016.8887582891</DistanceMeters>
          </Trackpoint>
          <Trackpoint>
            <Time>2020-04-26T16:30:16.000Z</Time>
            <Position>
              <LatitudeDegrees>38.52503369562327861785888671875</LatitudeDegrees>
              <LongitudeDegrees>-28.6830233596265316009521484375</LongitudeDegrees>
            </Position>
            <AltitudeMeters>42.200000762939453125</AltitudeMeters>
            <DistanceMeters>1037.3693852546</DistanceMeters>
          </Trackpoint>
          <Trackpoint>
            <Time>2020-04-26T16:30:17.000Z</Time>
            <Position>
              <LatitudeDegrees>38.5250574164092540740966796875</LatitudeDegrees>
              <LongitudeDegrees>-28.68294951505959033966064453125</LongitudeDegrees>
            </Position>
            <AltitudeMeters>42.40000152587890625</AltitudeMeters>
            <DistanceMeters>1044.3199901905</DistanceMeters>
          </Trackpoint>
          <Trackpoint>
            <Time>2020-04-26T16:30:18.000Z</Time>
            <Position>
              <LatitudeDegrees>38.52507577277719974517822265625</LatitudeDegrees>
              <LongitudeDegrees>-28.6828714795410633087158203125</LongitudeDegrees>
            </Position>
            <AltitudeMeters>42.200000762939453125</AltitudeMeters>
            <DistanceMeters>1051.4152474921</DistanceMeters>
          </Trackpoint>
          <Trackpoint>
            <Time>2020-04-26T16:30:21.000Z</Time>
            <Position>
              <LatitudeDegrees>38.5250897705554962158203125</LatitudeDegrees>
              <LongitudeDegrees>-28.682626895606517791748046875</LongitudeDegrees>
            </Position>
            <AltitudeMeters>41.40000152587890625</AltitudeMeters>
            <DistanceMeters>1072.7692112972</DistanceMeters>
          </Trackpoint>
          <Trackpoint>
            <Time>2020-04-26T16:30:22.000Z</Time>
            <Position>
              <LatitudeDegrees>38.52508432231843471527099609375</LatitudeDegrees>
              <LongitudeDegrees>-28.6825440824031829833984375</LongitudeDegrees>
            </Position>
            <AltitudeMeters>41.200000762939453125</AltitudeMeters>
            <DistanceMeters>1080.0049823841</DistanceMeters>
          </Trackpoint>
          <Trackpoint>
            <Time>2020-04-26T16:30:24.000Z</Time>
            <Position>
              <LatitudeDegrees>38.5250657983124256134033203125</LatitudeDegrees>
              <LongitudeDegrees>-28.68237501941621303558349609375</LongitudeDegrees>
            </Position>
            <AltitudeMeters>41</AltitudeMeters>
            <DistanceMeters>1094.8699065542</DistanceMeters>
          </Trackpoint>
          <Trackpoint>
            <Time>2020-04-26T16:30:27.000Z</Time>
            <Position>
              <LatitudeDegrees>38.52502246387302875518798828125</LatitudeDegrees>
              <LongitudeDegrees>-28.6821147613227367401123046875</LongitudeDegrees>
            </Position>
            <AltitudeMeters>40.59999847412109375</AltitudeMeters>
            <DistanceMeters>1118.0396722974</DistanceMeters>
          </Trackpoint>
          <Trackpoint>
            <Time>2020-04-26T16:30:32.000Z</Time>
            <Position>
              <LatitudeDegrees>38.52495172061026096343994140625</LatitudeDegrees>
              <LongitudeDegrees>-28.68166624568402767181396484375</LongitudeDegrees>
            </Position>
            <AltitudeMeters>39.799999237060546875</AltitudeMeters>
            <DistanceMeters>1157.8803518485</DistanceMeters>
          </Trackpoint>
          <Trackpoint>
            <Time>2020-04-26T16:30:34.000Z</Time>
            <Position>
              <LatitudeDegrees>38.52492020465433597564697265625</LatitudeDegrees>
              <LongitudeDegrees>-28.68148125708103179931640625</LongitudeDegrees>
            </Position>
            <AltitudeMeters>39.40000152587890625</AltitudeMeters>
            <DistanceMeters>1174.3657751266</DistanceMeters>
          </Trackpoint>
          <Trackpoint>
            <Time>2020-04-26T16:30:37.000Z</Time>
            <Position>
              <LatitudeDegrees>38.52487695403397083282470703125</LatitudeDegrees>
              <LongitudeDegrees>-28.6811991222202777862548828125</LongitudeDegrees>
            </Position>
            <AltitudeMeters>38.59999847412109375</AltitudeMeters>
            <DistanceMeters>1199.4002199081</DistanceMeters>
          </Trackpoint>
          <Trackpoint>
            <Time>2020-04-26T16:30:43.000Z</Time>
            <Position>
              <LatitudeDegrees>38.52484057657420635223388671875</LatitudeDegrees>
              <LongitudeDegrees>-28.6806107126176357269287109375</LongitudeDegrees>
            </Position>
            <AltitudeMeters>38</AltitudeMeters>
            <DistanceMeters>1250.7962333917</DistanceMeters>
          </Trackpoint>
          <Trackpoint>
            <Time>2020-04-26T16:30:44.000Z</Time>
            <Position>
              <LatitudeDegrees>38.52484342642128467559814453125</LatitudeDegrees>
              <LongitudeDegrees>-28.68050736375153064727783203125</LongitudeDegrees>
            </Position>
            <AltitudeMeters>37.40000152587890625</AltitudeMeters>
            <DistanceMeters>1259.8012368046</DistanceMeters>
          </Trackpoint>
          <Trackpoint>
            <Time>2020-04-26T16:30:48.000Z</Time>
            <Position>
              <LatitudeDegrees>38.5248537361621856689453125</LatitudeDegrees>
              <LongitudeDegrees>-28.6800927110016345977783203125</LongitudeDegrees>
            </Position>
            <AltitudeMeters>35.200000762939453125</AltitudeMeters>
            <DistanceMeters>1295.925889431</DistanceMeters>
          </Trackpoint>
          <Trackpoint>
            <Time>2020-04-26T16:30:51.000Z</Time>
            <Position>
              <LatitudeDegrees>38.5248644649982452392578125</LatitudeDegrees>
              <LongitudeDegrees>-28.67976506240665912628173828125</LongitudeDegrees>
            </Position>
            <AltitudeMeters>34.59999847412109375</AltitudeMeters>
            <DistanceMeters>1324.4813775706</DistanceMeters>
          </Trackpoint>
          <Trackpoint>
            <Time>2020-04-26T16:30:53.000Z</Time>
            <Position>
              <LatitudeDegrees>38.52488256990909576416015625</LatitudeDegrees>
              <LongitudeDegrees>-28.679535649716854095458984375</LongitudeDegrees>
            </Position>
            <AltitudeMeters>33.59999847412109375</AltitudeMeters>
            <DistanceMeters>1344.559242811</DistanceMeters>
          </Trackpoint>
          <Trackpoint>
            <Time>2020-04-26T16:30:56.000Z</Time>
            <Position>
              <LatitudeDegrees>38.5249417461454868316650390625</LatitudeDegrees>
              <LongitudeDegrees>-28.679180257022380828857421875</LongitudeDegrees>
            </Position>
            <AltitudeMeters>32.59999847412109375</AltitudeMeters>
            <DistanceMeters>1376.198429815</DistanceMeters>
          </Trackpoint>
          <Trackpoint>
            <Time>2020-04-26T16:30:58.000Z</Time>
            <Position>
              <LatitudeDegrees>38.52498558349907398223876953125</LatitudeDegrees>
              <LongitudeDegrees>-28.67892318405210971832275390625</LongitudeDegrees>
            </Position>
            <AltitudeMeters>31.3999996185302734375</AltitudeMeters>
            <DistanceMeters>1399.1087380491</DistanceMeters>
          </Trackpoint>
          <Trackpoint>
            <Time>2020-04-26T16:31:00.000Z</Time>
            <Position>
              <LatitudeDegrees>38.52504082024097442626953125</LatitudeDegrees>
              <LongitudeDegrees>-28.67865244857966899871826171875</LongitudeDegrees>
            </Position>
            <AltitudeMeters>30</AltitudeMeters>
            <DistanceMeters>1423.4715565367</DistanceMeters>
          </Trackpoint>
          <Trackpoint>
            <Time>2020-04-26T16:31:01.000Z</Time>
            <Position>
              <LatitudeDegrees>38.5250718332827091217041015625</LatitudeDegrees>
              <LongitudeDegrees>-28.67851733230054378509521484375</LongitudeDegrees>
            </Position>
            <AltitudeMeters>29.6000003814697265625</AltitudeMeters>
            <DistanceMeters>1435.7325806636</DistanceMeters>
          </Trackpoint>
          <Trackpoint>
            <Time>2020-04-26T16:31:03.000Z</Time>
            <Position>
              <LatitudeDegrees>38.525157831609249114990234375</LatitudeDegrees>
              <LongitudeDegrees>-28.6782594211399555206298828125</LongitudeDegrees>
            </Position>
            <AltitudeMeters>28.200000762939453125</AltitudeMeters>
            <DistanceMeters>1460.1450157152</DistanceMeters>
          </Trackpoint>
          <Trackpoint>
            <Time>2020-04-26T16:31:04.000Z</Time>
            <Position>
              <LatitudeDegrees>38.5252049379050731658935546875</LatitudeDegrees>
              <LongitudeDegrees>-28.678133189678192138671875</LongitudeDegrees>
            </Position>
            <AltitudeMeters>26.6000003814697265625</AltitudeMeters>
            <DistanceMeters>1472.3232740273</DistanceMeters>
          </Trackpoint>
          <Trackpoint>
            <Time>2020-04-26T16:31:05.000Z</Time>
            <Position>
              <LatitudeDegrees>38.52524869143962860107421875</LatitudeDegrees>
              <LongitudeDegrees>-28.6780062876641750335693359375</LongitudeDegrees>
            </Position>
            <AltitudeMeters>26</AltitudeMeters>
            <DistanceMeters>1484.3991468526</DistanceMeters>
          </Trackpoint>
          <Trackpoint>
            <Time>2020-04-26T16:31:06.000Z</Time>
            <Position>
              <LatitudeDegrees>38.52529202587902545928955078125</LatitudeDegrees>
              <LongitudeDegrees>-28.6778792180120944976806640625</LongitudeDegrees>
            </Position>
            <AltitudeMeters>25.3999996185302734375</AltitudeMeters>
            <DistanceMeters>1496.4690359685</DistanceMeters>
          </Trackpoint>
          <Trackpoint>
            <Time>2020-04-26T16:31:08.000Z</Time>
            <Position>
              <LatitudeDegrees>38.52536092512309551239013671875</LatitudeDegrees>
              <LongitudeDegrees>-28.6776195466518402099609375</LongitudeDegrees>
            </Position>
            <AltitudeMeters>23.200000762939453125</AltitudeMeters>
            <DistanceMeters>1520.3451480035</DistanceMeters>
          </Trackpoint>
          <Trackpoint>
            <Time>2020-04-26T16:31:10.000Z</Time>
            <Position>
              <LatitudeDegrees>38.525422699749469757080078125</LatitudeDegrees>
              <LongitudeDegrees>-28.677358366549015045166015625</LongitudeDegrees>
            </Position>
            <AltitudeMeters>22</AltitudeMeters>
            <DistanceMeters>1544.1041071277</DistanceMeters>
          </Trackpoint>
          <Trackpoint>
            <Time>2020-04-26T16:31:11.000Z</Time>
            <Position>
              <LatitudeDegrees>38.52545362897217273712158203125</LatitudeDegrees>
              <LongitudeDegrees>-28.67722936905920505523681640625</LongitudeDegrees>
            </Position>
            <AltitudeMeters>21.200000762939453125</AltitudeMeters>
            <DistanceMeters>1555.8521149745</DistanceMeters>
          </Trackpoint>
          <Trackpoint>
            <Time>2020-04-26T16:31:12.000Z</Time>
            <Position>
              <LatitudeDegrees>38.52548095397651195526123046875</LatitudeDegrees>
              <LongitudeDegrees>-28.67710012011229991912841796875</LongitudeDegrees>
            </Position>
            <AltitudeMeters>20.6000003814697265625</AltitudeMeters>
            <DistanceMeters>1567.5106187651</DistanceMeters>
          </Trackpoint>
          <Trackpoint>
            <Time>2020-04-26T16:31:18.000Z</Time>
            <Position>
              <LatitudeDegrees>38.52562495507299900054931640625</LatitudeDegrees>
              <LongitudeDegrees>-28.67635555565357208251953125</LongitudeDegrees>
            </Position>
            <AltitudeMeters>19.3999996185302734375</AltitudeMeters>
            <DistanceMeters>1634.2952692298</DistanceMeters>
          </Trackpoint>
          <Trackpoint>
            <Time>2020-04-26T16:31:24.000Z</Time>
            <Position>
              <LatitudeDegrees>38.52573961950838565826416015625</LatitudeDegrees>
              <LongitudeDegrees>-28.67567653767764568328857421875</LongitudeDegrees>
            </Position>
            <AltitudeMeters>18.799999237060546875</AltitudeMeters>
            <DistanceMeters>1694.782292239</DistanceMeters>
          </Trackpoint>
          <Trackpoint>
            <Time>2020-04-26T16:31:25.000Z</Time>
            <Position>
              <LatitudeDegrees>38.525745905935764312744140625</LatitudeDegrees>
              <LongitudeDegrees>-28.6755649745464324951171875</LongitudeDegrees>
            </Position>
            <AltitudeMeters>18</AltitudeMeters>
            <DistanceMeters>1704.52148743</DistanceMeters>
          </Trackpoint>
          <Trackpoint>
            <Time>2020-04-26T16:31:27.000Z</Time>
            <Position>
              <LatitudeDegrees>38.52572746574878692626953125</LatitudeDegrees>
              <LongitudeDegrees>-28.675354756414890289306640625</LongitudeDegrees>
            </Position>
            <AltitudeMeters>17.200000762939453125</AltitudeMeters>
            <DistanceMeters>1722.9404985869</DistanceMeters>
          </Trackpoint>
          <Trackpoint>
            <Time>2020-04-26T16:31:29.000Z</Time>
            <Position>
              <LatitudeDegrees>38.52568580769002437591552734375</LatitudeDegrees>
              <LongitudeDegrees>-28.67514831013977527618408203125</LongitudeDegrees>
            </Position>
            <AltitudeMeters>17.6000003814697265625</AltitudeMeters>
            <DistanceMeters>1741.5050319115</DistanceMeters>
          </Trackpoint>
          <Trackpoint>
            <Time>2020-04-26T16:31:30.000Z</Time>
            <Position>
              <LatitudeDegrees>38.52565445937216281890869140625</LatitudeDegrees>
              <LongitudeDegrees>-28.675046302378177642822265625</LongitudeDegrees>
            </Position>
            <AltitudeMeters>17</AltitudeMeters>
            <DistanceMeters>1751.0484773593</DistanceMeters>
          </Trackpoint>
          <Trackpoint>
            <Time>2020-04-26T16:31:32.000Z</Time>
            <Position>
              <LatitudeDegrees>38.525586314499378204345703125</LatitudeDegrees>
              <LongitudeDegrees>-28.6748466454446315765380859375</LongitudeDegrees>
            </Position>
            <AltitudeMeters>18.200000762939453125</AltitudeMeters>
            <DistanceMeters>1770.0157714606</DistanceMeters>
          </Trackpoint>
          <Trackpoint>
            <Time>2020-04-26T16:31:34.000Z</Time>
            <Position>
              <LatitudeDegrees>38.5255194269120693206787109375</LatitudeDegrees>
              <LongitudeDegrees>-28.67465025745332241058349609375</LongitudeDegrees>
            </Position>
            <AltitudeMeters>16.3999996185302734375</AltitudeMeters>
            <DistanceMeters>1788.6666857753</DistanceMeters>
          </Trackpoint>
          <Trackpoint>
            <Time>2020-04-26T16:31:36.000Z</Time>
            <Position>
              <LatitudeDegrees>38.52545329369604587554931640625</LatitudeDegrees>
              <LongitudeDegrees>-28.67445043288171291351318359375</LongitudeDegrees>
            </Position>
            <AltitudeMeters>15.19999980926513671875</AltitudeMeters>
            <DistanceMeters>1807.5590864043</DistanceMeters>
          </Trackpoint>
          <Trackpoint>
            <Time>2020-04-26T16:31:40.000Z</Time>
            <Position>
              <LatitudeDegrees>38.5253095440566539764404296875</LatitudeDegrees>
              <LongitudeDegrees>-28.6740453355014324188232421875</LongitudeDegrees>
            </Position>
            <AltitudeMeters>15.80000019073486328125</AltitudeMeters>
            <DistanceMeters>1846.292003158</DistanceMeters>
          </Trackpoint>
          <Trackpoint>
            <Time>2020-04-26T16:31:42.000Z</Time>
            <Position>
              <LatitudeDegrees>38.52523620240390300750732421875</LatitudeDegrees>
              <LongitudeDegrees>-28.67383830249309539794921875</LongitudeDegrees>
            </Position>
            <AltitudeMeters>16</AltitudeMeters>
            <DistanceMeters>1866.0817584716</DistanceMeters>
          </Trackpoint>
          <Trackpoint>
            <Time>2020-04-26T16:31:49.000Z</Time>
            <Position>
              <LatitudeDegrees>38.524974770843982696533203125</LatitudeDegrees>
              <LongitudeDegrees>-28.67310597561299800872802734375</LongitudeDegrees>
            </Position>
            <AltitudeMeters>14.19999980926513671875</AltitudeMeters>
            <DistanceMeters>1936.1746379321</DistanceMeters>
          </Trackpoint>
          <Trackpoint>
            <Time>2020-04-26T16:31:50.000Z</Time>
            <Position>
              <LatitudeDegrees>38.5249368846416473388671875</LatitudeDegrees>
              <LongitudeDegrees>-28.6730007827281951904296875</LongitudeDegrees>
            </Position>
            <AltitudeMeters>14.19999980926513671875</AltitudeMeters>
            <DistanceMeters>1946.2582216581</DistanceMeters>
          </Trackpoint>
          <Trackpoint>
            <Time>2020-04-26T16:31:55.000Z</Time>
            <Position>
              <LatitudeDegrees>38.5247489623725414276123046875</LatitudeDegrees>
              <LongitudeDegrees>-28.67247817106544971466064453125</LongitudeDegrees>
            </Position>
            <AltitudeMeters>13</AltitudeMeters>
            <DistanceMeters>1996.3417176869</DistanceMeters>
          </Trackpoint>
          <Trackpoint>
            <Time>2020-04-26T16:31:58.000Z</Time>
            <Position>
              <LatitudeDegrees>38.5246443562209606170654296875</LatitudeDegrees>
              <LongitudeDegrees>-28.67216334678232669830322265625</LongitudeDegrees>
            </Position>
            <AltitudeMeters>12</AltitudeMeters>
            <DistanceMeters>2026.1252790823</DistanceMeters>
          </Trackpoint>
          <Trackpoint>
            <Time>2020-04-26T16:32:01.000Z</Time>
            <Position>
              <LatitudeDegrees>38.52452977560460567474365234375</LatitudeDegrees>
              <LongitudeDegrees>-28.671851120889186859130859375</LongitudeDegrees>
            </Position>
            <AltitudeMeters>11.6000003814697265625</AltitudeMeters>
            <DistanceMeters>2056.1552243729</DistanceMeters>
          </Trackpoint>
          <Trackpoint>
            <Time>2020-04-26T16:32:08.000Z</Time>
            <Position>
              <LatitudeDegrees>38.52426926605403423309326171875</LatitudeDegrees>
              <LongitudeDegrees>-28.6711311154067516326904296875</LongitudeDegrees>
            </Position>
            <AltitudeMeters>10.6000003814697265625</AltitudeMeters>
            <DistanceMeters>2125.2308875449</DistanceMeters>
          </Trackpoint>
          <Trackpoint>
            <Time>2020-04-26T16:32:11.000Z</Time>
            <Position>
              <LatitudeDegrees>38.52417320944368839263916015625</LatitudeDegrees>
              <LongitudeDegrees>-28.67082157172262668609619140625</LongitudeDegrees>
            </Position>
            <AltitudeMeters>9.6000003814697265625</AltitudeMeters>
            <DistanceMeters>2154.2275852508</DistanceMeters>
          </Trackpoint>
          <Trackpoint>
            <Time>2020-04-26T16:32:14.000Z</Time>
            <Position>
              <LatitudeDegrees>38.524216711521148681640625</LatitudeDegrees>
              <LongitudeDegrees>-28.6705168895423412322998046875</LongitudeDegrees>
            </Position>
            <AltitudeMeters>9.3999996185302734375</AltitudeMeters>
            <DistanceMeters>2181.1964279606</DistanceMeters>
          </Trackpoint>
          <Trackpoint>
            <Time>2020-04-26T16:32:15.000Z</Time>
            <Position>
              <LatitudeDegrees>38.52424562908709049224853515625</LatitudeDegrees>
              <LongitudeDegrees>-28.67042628116905689239501953125</LongitudeDegrees>
            </Position>
            <AltitudeMeters>9.3999996185302734375</AltitudeMeters>
            <DistanceMeters>2189.7181575246</DistanceMeters>
          </Trackpoint>
          <Trackpoint>
            <Time>2020-04-26T16:32:16.000Z</Time>
            <Position>
              <LatitudeDegrees>38.52425686083734035491943359375</LatitudeDegrees>
              <LongitudeDegrees>-28.67033374495804309844970703125</LongitudeDegrees>
            </Position>
            <AltitudeMeters>9.80000019073486328125</AltitudeMeters>
            <DistanceMeters>2197.8722027082</DistanceMeters>
          </Trackpoint>
          <Trackpoint>
            <Time>2020-04-26T16:32:18.000Z</Time>
            <Position>
              <LatitudeDegrees>38.5242426954209804534912109375</LatitudeDegrees>
              <LongitudeDegrees>-28.67015831172466278076171875</LongitudeDegrees>
            </Position>
            <AltitudeMeters>10.6000003814697265625</AltitudeMeters>
            <DistanceMeters>2213.2295311401</DistanceMeters>
          </Trackpoint>
          <Trackpoint>
            <Time>2020-04-26T16:32:19.000Z</Time>
            <Position>
              <LatitudeDegrees>38.52423456497490406036376953125</LatitudeDegrees>
              <LongitudeDegrees>-28.67007742635905742645263671875</LongitudeDegrees>
            </Position>
            <AltitudeMeters>10.6000003814697265625</AltitudeMeters>
            <DistanceMeters>2220.3305132456</DistanceMeters>
          </Trackpoint>
          <Trackpoint>
            <Time>2020-04-26T16:32:20.000Z</Time>
            <Position>
              <LatitudeDegrees>38.524231798946857452392578125</LatitudeDegrees>
              <LongitudeDegrees>-28.66999763064086437225341796875</LongitudeDegrees>
            </Position>
            <AltitudeMeters>11</AltitudeMeters>
            <DistanceMeters>2227.2856638198</DistanceMeters>
          </Trackpoint>
          <Trackpoint>
            <Time>2020-04-26T16:32:23.000Z</Time>
            <Position>
              <LatitudeDegrees>38.5242369957268238067626953125</LatitudeDegrees>
              <LongitudeDegrees>-28.66978657431900501251220703125</LongitudeDegrees>
            </Position>
            <AltitudeMeters>11.80000019073486328125</AltitudeMeters>
            <DistanceMeters>2245.6727805612</DistanceMeters>
          </Trackpoint>
          <Trackpoint>
            <Time>2020-04-26T16:32:29.000Z</Time>
            <Position>
              <LatitudeDegrees>38.52426054887473583221435546875</LatitudeDegrees>
              <LongitudeDegrees>-28.66944157518446445465087890625</LongitudeDegrees>
            </Position>
            <AltitudeMeters>12.80000019073486328125</AltitudeMeters>
            <DistanceMeters>2275.8283072212</DistanceMeters>
          </Trackpoint>
          <Trackpoint>
            <Time>2020-04-26T16:32:30.000Z</Time>
            <Position>
              <LatitudeDegrees>38.52426490746438503265380859375</LatitudeDegrees>
              <LongitudeDegrees>-28.669389523565769195556640625</LongitudeDegrees>
            </Position>
            <AltitudeMeters>13</AltitudeMeters>
            <DistanceMeters>2280.3876093579</DistanceMeters>
          </Trackpoint>
          <Trackpoint>
            <Time>2020-04-26T16:32:33.000Z</Time>
            <Position>
              <LatitudeDegrees>38.5242721997201442718505859375</LatitudeDegrees>
              <LongitudeDegrees>-28.6692394874989986419677734375</LongitudeDegrees>
            </Position>
            <AltitudeMeters>14</AltitudeMeters>
            <DistanceMeters>2293.4778626251</DistanceMeters>
          </Trackpoint>
          <Trackpoint>
            <Time>2020-04-26T16:32:37.000Z</Time>
            <Position>
              <LatitudeDegrees>38.52428334765136241912841796875</LatitudeDegrees>
              <LongitudeDegrees>-28.669051565229892730712890625</LongitudeDegrees>
            </Position>
            <AltitudeMeters>14.80000019073486328125</AltitudeMeters>
            <DistanceMeters>2309.8886212872</DistanceMeters>
          </Trackpoint>
          <Trackpoint>
            <Time>2020-04-26T16:32:38.000Z</Time>
            <Position>
              <LatitudeDegrees>38.5242866165935993194580078125</LatitudeDegrees>
              <LongitudeDegrees>-28.6690054647624492645263671875</LongitudeDegrees>
            </Position>
            <AltitudeMeters>15</AltitudeMeters>
            <DistanceMeters>2313.9202633347</DistanceMeters>
          </Trackpoint>
          <Trackpoint>
            <Time>2020-04-26T16:32:39.000Z</Time>
            <Position>
              <LatitudeDegrees>38.52428913116455078125</LatitudeDegrees>
              <LongitudeDegrees>-28.668958358466625213623046875</LongitudeDegrees>
            </Position>
            <AltitudeMeters>15.19999980926513671875</AltitudeMeters>
            <DistanceMeters>2318.0306493295</DistanceMeters>
          </Trackpoint>
          <Trackpoint>
            <Time>2020-04-26T16:32:44.000Z</Time>
            <Position>
              <LatitudeDegrees>38.5243010334670543670654296875</LatitudeDegrees>
              <LongitudeDegrees>-28.6687439493834972381591796875</LongitudeDegrees>
            </Position>
            <AltitudeMeters>15.80000019073486328125</AltitudeMeters>
            <DistanceMeters>2336.7472939425</DistanceMeters>
          </Trackpoint>
          <Trackpoint>
            <Time>2020-04-26T16:32:46.000Z</Time>
            <Position>
              <LatitudeDegrees>38.52430312894284725189208984375</LatitudeDegrees>
              <LongitudeDegrees>-28.66865920834243297576904296875</LongitudeDegrees>
            </Position>
            <AltitudeMeters>16.200000762939453125</AltitudeMeters>
            <DistanceMeters>2344.1294691869</DistanceMeters>
          </Trackpoint>
          <Trackpoint>
            <Time>2020-04-26T16:32:53.000Z</Time>
            <Position>
              <LatitudeDegrees>38.52432475425302982330322265625</LatitudeDegrees>
              <LongitudeDegrees>-28.668372966349124908447265625</LongitudeDegrees>
            </Position>
            <AltitudeMeters>16.799999237060546875</AltitudeMeters>
            <DistanceMeters>2369.1704058361</DistanceMeters>
          </Trackpoint>
          <Trackpoint>
            <Time>2020-04-26T16:32:55.000Z</Time>
            <Position>
              <LatitudeDegrees>38.52432467043399810791015625</LatitudeDegrees>
              <LongitudeDegrees>-28.668291829526424407958984375</LongitudeDegrees>
            </Position>
            <AltitudeMeters>17.3999996185302734375</AltitudeMeters>
            <DistanceMeters>2376.2356915757</DistanceMeters>
          </Trackpoint>
          <Trackpoint>
            <Time>2020-04-26T16:33:00.000Z</Time>
            <Position>
              <LatitudeDegrees>38.52435224689543247222900390625</LatitudeDegrees>
              <LongitudeDegrees>-28.66808571852743625640869140625</LongitudeDegrees>
            </Position>
            <AltitudeMeters>18</AltitudeMeters>
            <DistanceMeters>2394.4436630872</DistanceMeters>
          </Trackpoint>
          <Trackpoint>
            <Time>2020-04-26T16:33:02.000Z</Time>
            <Position>
              <LatitudeDegrees>38.52436129935085773468017578125</LatitudeDegrees>
              <LongitudeDegrees>-28.66800022311508655548095703125</LongitudeDegrees>
            </Position>
            <AltitudeMeters>18.3999996185302734375</AltitudeMeters>
            <DistanceMeters>2401.9561844865</DistanceMeters>
          </Trackpoint>
          <Trackpoint>
            <Time>2020-04-26T16:33:08.000Z</Time>
            <Position>
              <LatitudeDegrees>38.5243825055658817291259765625</LatitudeDegrees>
              <LongitudeDegrees>-28.66775647737085819244384765625</LongitudeDegrees>
            </Position>
            <AltitudeMeters>19.3999996185302734375</AltitudeMeters>
            <DistanceMeters>2423.3118397282</DistanceMeters>
          </Trackpoint>
          <Trackpoint>
            <Time>2020-04-26T16:33:09.000Z</Time>
            <Position>
              <LatitudeDegrees>38.5243882052600383758544921875</LatitudeDegrees>
              <LongitudeDegrees>-28.66771507076919078826904296875</LongitudeDegrees>
            </Position>
            <AltitudeMeters>19.6000003814697265625</AltitudeMeters>
            <DistanceMeters>2426.9749932324</DistanceMeters>
          </Trackpoint>
          <Trackpoint>
            <Time>2020-04-26T16:33:10.000Z</Time>
            <Position>
              <LatitudeDegrees>38.52439633570611476898193359375</LatitudeDegrees>
              <LongitudeDegrees>-28.667673580348491668701171875</LongitudeDegrees>
            </Position>
            <AltitudeMeters>19.799999237060546875</AltitudeMeters>
            <DistanceMeters>2430.7004767573</DistanceMeters>
          </Trackpoint>
          <Trackpoint>
            <Time>2020-04-26T16:33:16.000Z</Time>
            <Position>
              <LatitudeDegrees>38.524408824741840362548828125</LatitudeDegrees>
              <LongitudeDegrees>-28.66741030476987361907958984375</LongitudeDegrees>
            </Position>
            <AltitudeMeters>20.6000003814697265625</AltitudeMeters>
            <DistanceMeters>2453.6678654977</DistanceMeters>
          </Trackpoint>
          <Trackpoint>
            <Time>2020-04-26T16:33:18.000Z</Time>
            <Position>
              <LatitudeDegrees>38.52440438233315944671630859375</LatitudeDegrees>
              <LongitudeDegrees>-28.66732313297688961029052734375</LongitudeDegrees>
            </Position>
            <AltitudeMeters>21</AltitudeMeters>
            <DistanceMeters>2461.2747524991</DistanceMeters>
          </Trackpoint>
          <Trackpoint>
            <Time>2020-04-26T16:33:23.000Z</Time>
            <Position>
              <LatitudeDegrees>38.5244079865515232086181640625</LatitudeDegrees>
              <LongitudeDegrees>-28.6671007610857486724853515625</LongitudeDegrees>
            </Position>
            <AltitudeMeters>21.6000003814697265625</AltitudeMeters>
            <DistanceMeters>2480.6420268383</DistanceMeters>
          </Trackpoint>
          <Trackpoint>
            <Time>2020-04-26T16:33:27.000Z</Time>
            <Position>
              <LatitudeDegrees>38.524418212473392486572265625</LatitudeDegrees>
              <LongitudeDegrees>-28.666929267346858978271484375</LongitudeDegrees>
            </Position>
            <AltitudeMeters>22.3999996185302734375</AltitudeMeters>
            <DistanceMeters>2495.6183093782</DistanceMeters>
          </Trackpoint>
          <Trackpoint>
            <Time>2020-04-26T16:33:28.000Z</Time>
            <Position>
              <LatitudeDegrees>38.52442097850143909454345703125</LatitudeDegrees>
              <LongitudeDegrees>-28.66688878275454044342041015625</LongitudeDegrees>
            </Position>
            <AltitudeMeters>22.6000003814697265625</AltitudeMeters>
            <DistanceMeters>2499.1586124873</DistanceMeters>
          </Trackpoint>
          <Trackpoint>
            <Time>2020-04-26T16:33:33.000Z</Time>
            <Position>
              <LatitudeDegrees>38.52443824522197246551513671875</LatitudeDegrees>
              <LongitudeDegrees>-28.666677139699459075927734375</LongitudeDegrees>
            </Position>
            <AltitudeMeters>23.6000003814697265625</AltitudeMeters>
            <DistanceMeters>2517.6876034582</DistanceMeters>
          </Trackpoint>
          <Trackpoint>
            <Time>2020-04-26T16:33:36.000Z</Time>
            <Position>
              <LatitudeDegrees>38.52444478310644626617431640625</LatitudeDegrees>
              <LongitudeDegrees>-28.66654696874320507049560546875</LongitudeDegrees>
            </Position>
            <AltitudeMeters>24.200000762939453125</AltitudeMeters>
            <DistanceMeters>2529.0455818029</DistanceMeters>
          </Trackpoint>
          <Trackpoint>
            <Time>2020-04-26T16:33:39.000Z</Time>
            <Position>
              <LatitudeDegrees>38.5244532488286495208740234375</LatitudeDegrees>
              <LongitudeDegrees>-28.66642626933753490447998046875</LongitudeDegrees>
            </Position>
            <AltitudeMeters>24.799999237060546875</AltitudeMeters>
            <DistanceMeters>2539.5982545784</DistanceMeters>
          </Trackpoint>
          <Trackpoint>
            <Time>2020-04-26T16:33:44.000Z</Time>
            <Position>
              <LatitudeDegrees>38.52446724660694599151611328125</LatitudeDegrees>
              <LongitudeDegrees>-28.66621973924338817596435546875</LongitudeDegrees>
            </Position>
            <AltitudeMeters>25.3999996185302734375</AltitudeMeters>
            <DistanceMeters>2557.6493287404</DistanceMeters>
          </Trackpoint>
          <Trackpoint>
            <Time>2020-04-26T16:33:46.000Z</Time>
            <Position>
              <LatitudeDegrees>38.5244767181575298309326171875</LatitudeDegrees>
              <LongitudeDegrees>-28.6661375127732753753662109375</LongitudeDegrees>
            </Position>
            <AltitudeMeters>25.799999237060546875</AltitudeMeters>
            <DistanceMeters>2564.885723789</DistanceMeters>
          </Trackpoint>
          <Trackpoint>
            <Time>2020-04-26T16:33:51.000Z</Time>
            <Position>
              <LatitudeDegrees>38.524489961564540863037109375</LatitudeDegrees>
              <LongitudeDegrees>-28.6659343354403972625732421875</LongitudeDegrees>
            </Position>
            <AltitudeMeters>26.3999996185302734375</AltitudeMeters>
            <DistanceMeters>2582.6386877119</DistanceMeters>
          </Trackpoint>
          <Trackpoint>
            <Time>2020-04-26T16:33:56.000Z</Time>
            <Position>
              <LatitudeDegrees>38.52449658326804637908935546875</LatitudeDegrees>
              <LongitudeDegrees>-28.6657264642417430877685546875</LongitudeDegrees>
            </Position>
            <AltitudeMeters>27.200000762939453125</AltitudeMeters>
            <DistanceMeters>2600.754179373</DistanceMeters>
          </Trackpoint>
          <Trackpoint>
            <Time>2020-04-26T16:33:59.000Z</Time>
            <Position>
              <LatitudeDegrees>38.5245038755238056182861328125</LatitudeDegrees>
              <LongitudeDegrees>-28.66559998132288455963134765625</LongitudeDegrees>
            </Position>
            <AltitudeMeters>27.799999237060546875</AltitudeMeters>
            <DistanceMeters>2611.7977391457</DistanceMeters>
          </Trackpoint>
          <Trackpoint>
            <Time>2020-04-26T16:34:03.000Z</Time>
            <Position>
              <LatitudeDegrees>38.524519465863704681396484375</LatitudeDegrees>
              <LongitudeDegrees>-28.665435276925563812255859375</LongitudeDegrees>
            </Position>
            <AltitudeMeters>28.200000762939453125</AltitudeMeters>
            <DistanceMeters>2626.2436751354</DistanceMeters>
          </Trackpoint>
          <Trackpoint>
            <Time>2020-04-26T16:34:07.000Z</Time>
            <Position>
              <LatitudeDegrees>38.52453052997589111328125</LatitudeDegrees>
              <LongitudeDegrees>-28.6652711592614650726318359375</LongitudeDegrees>
            </Position>
            <AltitudeMeters>28.799999237060546875</AltitudeMeters>
            <DistanceMeters>2640.587358822</DistanceMeters>
          </Trackpoint>
          <Trackpoint>
            <Time>2020-04-26T16:34:09.000Z</Time>
            <Position>
              <LatitudeDegrees>38.52453052997589111328125</LatitudeDegrees>
              <LongitudeDegrees>-28.66518809460103511810302734375</LongitudeDegrees>
            </Position>
            <AltitudeMeters>29.3999996185302734375</AltitudeMeters>
            <DistanceMeters>2647.8206335241</DistanceMeters>
          </Trackpoint>
          <Trackpoint>
            <Time>2020-04-26T16:34:16.000Z</Time>
            <Position>
              <LatitudeDegrees>38.5245506465435028076171875</LatitudeDegrees>
              <LongitudeDegrees>-28.664899170398712158203125</LongitudeDegrees>
            </Position>
            <AltitudeMeters>30.3999996185302734375</AltitudeMeters>
            <DistanceMeters>2673.078441042</DistanceMeters>
          </Trackpoint>
          <Trackpoint>
            <Time>2020-04-26T16:34:18.000Z</Time>
            <Position>
              <LatitudeDegrees>38.5245568491518497467041015625</LatitudeDegrees>
              <LongitudeDegrees>-28.66481392644345760345458984375</LongitudeDegrees>
            </Position>
            <AltitudeMeters>30.799999237060546875</AltitudeMeters>
            <DistanceMeters>2680.5330430056</DistanceMeters>
          </Trackpoint>
          <Trackpoint>
            <Time>2020-04-26T16:34:23.000Z</Time>
            <Position>
              <LatitudeDegrees>38.5245742835104465484619140625</LatitudeDegrees>
              <LongitudeDegrees>-28.6646083183586597442626953125</LongitudeDegrees>
            </Position>
            <AltitudeMeters>31.6000003814697265625</AltitudeMeters>
            <DistanceMeters>2698.5412948734</DistanceMeters>
          </Trackpoint>
          <Trackpoint>
            <Time>2020-04-26T16:34:29.000Z</Time>
            <Position>
              <LatitudeDegrees>38.52461694739758968353271484375</LatitudeDegrees>
              <LongitudeDegrees>-28.66436599753797054290771484375</LongitudeDegrees>
            </Position>
            <AltitudeMeters>32.40000152587890625</AltitudeMeters>
            <DistanceMeters>2720.1694251659</DistanceMeters>
          </Trackpoint>
          <Trackpoint>
            <Time>2020-04-26T16:34:32.000Z</Time>
            <Position>
              <LatitudeDegrees>38.5246472060680389404296875</LatitudeDegrees>
              <LongitudeDegrees>-28.6642375029623508453369140625</LongitudeDegrees>
            </Position>
            <AltitudeMeters>32.799999237060546875</AltitudeMeters>
            <DistanceMeters>2731.8542339291</DistanceMeters>
          </Trackpoint>
          <Trackpoint>
            <Time>2020-04-26T16:34:38.000Z</Time>
            <Position>
              <LatitudeDegrees>38.52471451275050640106201171875</LatitudeDegrees>
              <LongitudeDegrees>-28.66398680023849010467529296875</LongitudeDegrees>
            </Position>
            <AltitudeMeters>32.799999237060546875</AltitudeMeters>
            <DistanceMeters>2754.934186473</DistanceMeters>
          </Trackpoint>
          <Trackpoint>
            <Time>2020-04-26T16:34:41.000Z</Time>
            <Position>
              <LatitudeDegrees>38.524761199951171875</LatitudeDegrees>
              <LongitudeDegrees>-28.66385838948190212249755859375</LongitudeDegrees>
            </Position>
            <AltitudeMeters>33</AltitudeMeters>
            <DistanceMeters>2767.2642459624</DistanceMeters>
          </Trackpoint>
          <Trackpoint>
            <Time>2020-04-26T16:34:45.000Z</Time>
            <Position>
              <LatitudeDegrees>38.52483772672712802886962890625</LatitudeDegrees>
              <LongitudeDegrees>-28.663693182170391082763671875</LongitudeDegrees>
            </Position>
            <AltitudeMeters>33.200000762939453125</AltitudeMeters>
            <DistanceMeters>2783.9824673418</DistanceMeters>
          </Trackpoint>
          <Trackpoint>
            <Time>2020-04-26T16:34:50.000Z</Time>
            <Position>
              <LatitudeDegrees>38.5249368846416473388671875</LatitudeDegrees>
              <LongitudeDegrees>-28.66348120383918285369873046875</LongitudeDegrees>
            </Position>
            <AltitudeMeters>33.40000152587890625</AltitudeMeters>
            <DistanceMeters>2805.4883375941</DistanceMeters>
          </Trackpoint>
          <Trackpoint>
            <Time>2020-04-26T16:34:54.000Z</Time>
            <Position>
              <LatitudeDegrees>38.52502204477787017822265625</LatitudeDegrees>
              <LongitudeDegrees>-28.66331197321414947509765625</LongitudeDegrees>
            </Position>
            <AltitudeMeters>33.59999847412109375</AltitudeMeters>
            <DistanceMeters>2823.0093672096</DistanceMeters>
          </Trackpoint>
          <Trackpoint>
            <Time>2020-04-26T16:34:55.000Z</Time>
            <Position>
              <LatitudeDegrees>38.52504693903028964996337890625</LatitudeDegrees>
              <LongitudeDegrees>-28.66327400319278240203857421875</LongitudeDegrees>
            </Position>
            <AltitudeMeters>33.799999237060546875</AltitudeMeters>
            <DistanceMeters>2827.3244590543</DistanceMeters>
          </Trackpoint>
          <Trackpoint>
            <Time>2020-04-26T16:35:02.000Z</Time>
            <Position>
              <LatitudeDegrees>38.5252371244132518768310546875</LatitudeDegrees>
              <LongitudeDegrees>-28.66301290690898895263671875</LongitudeDegrees>
            </Position>
            <AltitudeMeters>34</AltitudeMeters>
            <DistanceMeters>2858.3884579751</DistanceMeters>
          </Trackpoint>
          <Trackpoint>
            <Time>2020-04-26T16:35:09.000Z</Time>
            <Position>
              <LatitudeDegrees>38.52545094676315784454345703125</LatitudeDegrees>
              <LongitudeDegrees>-28.662786595523357391357421875</LongitudeDegrees>
            </Position>
            <AltitudeMeters>34.40000152587890625</AltitudeMeters>
            <DistanceMeters>2889.2869023068</DistanceMeters>
          </Trackpoint>
          <Trackpoint>
            <Time>2020-04-26T16:35:11.000Z</Time>
            <Position>
              <LatitudeDegrees>38.52551414631307125091552734375</LatitudeDegrees>
              <LongitudeDegrees>-28.66272054612636566162109375</LongitudeDegrees>
            </Position>
            <AltitudeMeters>34.40000152587890625</AltitudeMeters>
            <DistanceMeters>2898.3727681901</DistanceMeters>
          </Trackpoint>
          <Trackpoint>
            <Time>2020-04-26T16:35:16.000Z</Time>
            <Position>
              <LatitudeDegrees>38.52568857371807098388671875</LatitudeDegrees>
              <LongitudeDegrees>-28.662541843950748443603515625</LongitudeDegrees>
            </Position>
            <AltitudeMeters>34.200000762939453125</AltitudeMeters>
            <DistanceMeters>2923.2530776815</DistanceMeters>
          </Trackpoint>
          <Trackpoint>
            <Time>2020-04-26T16:35:20.000Z</Time>
            <Position>
              <LatitudeDegrees>38.5258322395384311676025390625</LatitudeDegrees>
              <LongitudeDegrees>-28.6623918078839778900146484375</LongitudeDegrees>
            </Position>
            <AltitudeMeters>34.59999847412109375</AltitudeMeters>
            <DistanceMeters>2943.9016633323</DistanceMeters>
          </Trackpoint>
          <Trackpoint>
            <Time>2020-04-26T16:35:25.000Z</Time>
            <Position>
              <LatitudeDegrees>38.5260223411023616790771484375</LatitudeDegrees>
              <LongitudeDegrees>-28.6622067354619503021240234375</LongitudeDegrees>
            </Position>
            <AltitudeMeters>34.59999847412109375</AltitudeMeters>
            <DistanceMeters>2970.4986204603</DistanceMeters>
          </Trackpoint>
          <Trackpoint>
            <Time>2020-04-26T16:35:27.000Z</Time>
            <Position>
              <LatitudeDegrees>38.5260974429547786712646484375</LatitudeDegrees>
              <LongitudeDegrees>-28.66213180124759674072265625</LongitudeDegrees>
            </Position>
            <AltitudeMeters>34.799999237060546875</AltitudeMeters>
            <DistanceMeters>2981.1025118158</DistanceMeters>
          </Trackpoint>
          <Trackpoint>
            <Time>2020-04-26T16:35:28.000Z</Time>
            <Position>
              <LatitudeDegrees>38.52613206021487712860107421875</LatitudeDegrees>
              <LongitudeDegrees>-28.66209332831203937530517578125</LongitudeDegrees>
            </Position>
            <AltitudeMeters>35</AltitudeMeters>
            <DistanceMeters>2986.2083742007</DistanceMeters>
          </Trackpoint>
          <Trackpoint>
            <Time>2020-04-26T16:35:36.000Z</Time>
            <Position>
              <LatitudeDegrees>38.52641805075109004974365234375</LatitudeDegrees>
              <LongitudeDegrees>-28.66180432029068470001220703125</LongitudeDegrees>
            </Position>
            <AltitudeMeters>36.200000762939453125</AltitudeMeters>
            <DistanceMeters>3026.785671407</DistanceMeters>
          </Trackpoint>
          <Trackpoint>
            <Time>2020-04-26T16:35:42.000Z</Time>
            <Position>
              <LatitudeDegrees>38.5266171209514141082763671875</LatitudeDegrees>
              <LongitudeDegrees>-28.66158865392208099365234375</LongitudeDegrees>
            </Position>
            <AltitudeMeters>37</AltitudeMeters>
            <DistanceMeters>3055.8299768944</DistanceMeters>
          </Trackpoint>
          <Trackpoint>
            <Time>2020-04-26T16:35:44.000Z</Time>
            <Position>
              <LatitudeDegrees>38.52667872793972492218017578125</LatitudeDegrees>
              <LongitudeDegrees>-28.66152025759220123291015625</LongitudeDegrees>
            </Position>
            <AltitudeMeters>37.200000762939453125</AltitudeMeters>
            <DistanceMeters>3064.9118664686</DistanceMeters>
          </Trackpoint>
          <Trackpoint>
            <Time>2020-04-26T16:35:46.000Z</Time>
            <Position>
              <LatitudeDegrees>38.52673597633838653564453125</LatitudeDegrees>
              <LongitudeDegrees>-28.661439120769500732421875</LongitudeDegrees>
            </Position>
            <AltitudeMeters>37.59999847412109375</AltitudeMeters>
            <DistanceMeters>3074.4254597014</DistanceMeters>
          </Trackpoint>
          <Trackpoint>
            <Time>2020-04-26T16:35:51.000Z</Time>
            <Position>
              <LatitudeDegrees>38.526872433722019195556640625</LatitudeDegrees>
              <LongitudeDegrees>-28.66125379689037799835205078125</LongitudeDegrees>
            </Position>
            <AltitudeMeters>38.40000152587890625</AltitudeMeters>
            <DistanceMeters>3096.5856405936</DistanceMeters>
          </Trackpoint>
          <Trackpoint>
            <Time>2020-04-26T16:35:54.000Z</Time>
            <Position>
              <LatitudeDegrees>38.52694476954638957977294921875</LatitudeDegrees>
              <LongitudeDegrees>-28.66113879717886447906494140625</LongitudeDegrees>
            </Position>
            <AltitudeMeters>38.799999237060546875</AltitudeMeters>
            <DistanceMeters>3109.4342925676</DistanceMeters>
          </Trackpoint>
          <Trackpoint>
            <Time>2020-04-26T16:35:57.000Z</Time>
            <Position>
              <LatitudeDegrees>38.52701224386692047119140625</LatitudeDegrees>
              <LongitudeDegrees>-28.66102245636284351348876953125</LongitudeDegrees>
            </Position>
            <AltitudeMeters>39.40000152587890625</AltitudeMeters>
            <DistanceMeters>3122.0449498167</DistanceMeters>
          </Trackpoint>
          <Trackpoint>
            <Time>2020-04-26T16:36:02.000Z</Time>
            <Position>
              <LatitudeDegrees>38.5271049477159976959228515625</LatitudeDegrees>
              <LongitudeDegrees>-28.66081190295517444610595703125</LongitudeDegrees>
            </Position>
            <AltitudeMeters>40.59999847412109375</AltitudeMeters>
            <DistanceMeters>3143.0825852986</DistanceMeters>
          </Trackpoint>
          <Trackpoint>
            <Time>2020-04-26T16:36:06.000Z</Time>
            <Position>
              <LatitudeDegrees>38.52717451751232147216796875</LatitudeDegrees>
              <LongitudeDegrees>-28.660638816654682159423828125</LongitudeDegrees>
            </Position>
            <AltitudeMeters>41.40000152587890625</AltitudeMeters>
            <DistanceMeters>3160.0266772029</DistanceMeters>
          </Trackpoint>
          <Trackpoint>
            <Time>2020-04-26T16:36:07.000Z</Time>
            <Position>
              <LatitudeDegrees>38.5271917842328548431396484375</LatitudeDegrees>
              <LongitudeDegrees>-28.66059632040560245513916015625</LongitudeDegrees>
            </Position>
            <AltitudeMeters>41.799999237060546875</AltitudeMeters>
            <DistanceMeters>3164.1970401644</DistanceMeters>
          </Trackpoint>
          <Trackpoint>
            <Time>2020-04-26T16:36:12.000Z</Time>
            <Position>
              <LatitudeDegrees>38.527258671820163726806640625</LatitudeDegrees>
              <LongitudeDegrees>-28.66038107313215732574462890625</LongitudeDegrees>
            </Position>
            <AltitudeMeters>42.40000152587890625</AltitudeMeters>
            <DistanceMeters>3184.3637598501</DistanceMeters>
          </Trackpoint>
          <Trackpoint>
            <Time>2020-04-26T16:36:18.000Z</Time>
            <Position>
              <LatitudeDegrees>38.52732338011264801025390625</LatitudeDegrees>
              <LongitudeDegrees>-28.66010648198425769805908203125</LongitudeDegrees>
            </Position>
            <AltitudeMeters>43</AltitudeMeters>
            <DistanceMeters>3209.3342780357</DistanceMeters>
          </Trackpoint>
          <Trackpoint>
            <Time>2020-04-26T16:36:22.000Z</Time>
            <Position>
              <LatitudeDegrees>38.52733570151031017303466796875</LatitudeDegrees>
              <LongitudeDegrees>-28.659921325743198394775390625</LongitudeDegrees>
            </Position>
            <AltitudeMeters>44</AltitudeMeters>
            <DistanceMeters>3225.5145121584</DistanceMeters>
          </Trackpoint>
          <Trackpoint>
            <Time>2020-04-26T16:36:28.000Z</Time>
            <Position>
              <LatitudeDegrees>38.527370989322662353515625</LatitudeDegrees>
              <LongitudeDegrees>-28.65964530967175960540771484375</LongitudeDegrees>
            </Position>
            <AltitudeMeters>45.200000762939453125</AltitudeMeters>
            <DistanceMeters>3249.8669502371</DistanceMeters>
          </Trackpoint>
          <Trackpoint>
            <Time>2020-04-26T16:36:29.000Z</Time>
            <Position>
              <LatitudeDegrees>38.527374006807804107666015625</LatitudeDegrees>
              <LongitudeDegrees>-28.6596004664897918701171875</LongitudeDegrees>
            </Position>
            <AltitudeMeters>45.40000152587890625</AltitudeMeters>
            <DistanceMeters>3253.7873061021</DistanceMeters>
          </Trackpoint>
          <Trackpoint>
            <Time>2020-04-26T16:36:36.000Z</Time>
            <Position>
              <LatitudeDegrees>38.5273750126361846923828125</LatitudeDegrees>
              <LongitudeDegrees>-28.6592905037105083465576171875</LongitudeDegrees>
            </Position>
            <AltitudeMeters>46.200000762939453125</AltitudeMeters>
            <DistanceMeters>3280.7769005151</DistanceMeters>
          </Trackpoint>
          <Trackpoint>
            <Time>2020-04-26T16:36:40.000Z</Time>
            <Position>
              <LatitudeDegrees>38.5273899324238300323486328125</LatitudeDegrees>
              <LongitudeDegrees>-28.659111298620700836181640625</LongitudeDegrees>
            </Position>
            <AltitudeMeters>47</AltitudeMeters>
            <DistanceMeters>3296.4686857696</DistanceMeters>
          </Trackpoint>
          <Trackpoint>
            <Time>2020-04-26T16:36:42.000Z</Time>
            <Position>
              <LatitudeDegrees>38.5273892618715763092041015625</LatitudeDegrees>
              <LongitudeDegrees>-28.65901909768581390380859375</LongitudeDegrees>
            </Position>
            <AltitudeMeters>46.799999237060546875</AltitudeMeters>
            <DistanceMeters>3304.4966154891</DistanceMeters>
          </Trackpoint>
          <Trackpoint>
            <Time>2020-04-26T16:36:46.000Z</Time>
            <Position>
              <LatitudeDegrees>38.527403175830841064453125</LatitudeDegrees>
              <LongitudeDegrees>-28.6588405631482601165771484375</LongitudeDegrees>
            </Position>
            <AltitudeMeters>47.200000762939453125</AltitudeMeters>
            <DistanceMeters>3320.1189032873</DistanceMeters>
          </Trackpoint>
          <Trackpoint>
            <Time>2020-04-26T16:36:50.000Z</Time>
            <Position>
              <LatitudeDegrees>38.5274157486855983734130859375</LatitudeDegrees>
              <LongitudeDegrees>-28.65865808911621570587158203125</LongitudeDegrees>
            </Position>
            <AltitudeMeters>48</AltitudeMeters>
            <DistanceMeters>3336.0686780061</DistanceMeters>
          </Trackpoint>
          <Trackpoint>
            <Time>2020-04-26T16:36:54.000Z</Time>
            <Position>
              <LatitudeDegrees>38.5274261422455310821533203125</LatitudeDegrees>
              <LongitudeDegrees>-28.658474944531917572021484375</LongitudeDegrees>
            </Position>
            <AltitudeMeters>48.200000762939453125</AltitudeMeters>
            <DistanceMeters>3352.0574698344</DistanceMeters>
          </Trackpoint>
          <Trackpoint>
            <Time>2020-04-26T16:36:56.000Z</Time>
            <Position>
              <LatitudeDegrees>38.52742991410195827484130859375</LatitudeDegrees>
              <LongitudeDegrees>-28.6583835817873477935791015625</LongitudeDegrees>
            </Position>
            <AltitudeMeters>48.40000152587890625</AltitudeMeters>
            <DistanceMeters>3360.0238603124</DistanceMeters>
          </Trackpoint>
          <Trackpoint>
            <Time>2020-04-26T16:36:59.000Z</Time>
            <Position>
              <LatitudeDegrees>38.5274419002234935760498046875</LatitudeDegrees>
              <LongitudeDegrees>-28.658238910138607025146484375</LongitudeDegrees>
            </Position>
            <AltitudeMeters>48.799999237060546875</AltitudeMeters>
            <DistanceMeters>3372.6913169793</DistanceMeters>
          </Trackpoint>
          <Trackpoint>
            <Time>2020-04-26T16:37:04.000Z</Time>
            <Position>
              <LatitudeDegrees>38.527450449764728546142578125</LatitudeDegrees>
              <LongitudeDegrees>-28.658004216849803924560546875</LongitudeDegrees>
            </Position>
            <AltitudeMeters>49.40000152587890625</AltitudeMeters>
            <DistanceMeters>3393.1487831683</DistanceMeters>
          </Trackpoint>
          <Trackpoint>
            <Time>2020-04-26T16:37:09.000Z</Time>
            <Position>
              <LatitudeDegrees>38.52746687829494476318359375</LatitudeDegrees>
              <LongitudeDegrees>-28.65777187049388885498046875</LongitudeDegrees>
            </Position>
            <AltitudeMeters>50.40000152587890625</AltitudeMeters>
            <DistanceMeters>3413.4622854065</DistanceMeters>
          </Trackpoint>
          <Trackpoint>
            <Time>2020-04-26T16:37:12.000Z</Time>
            <Position>
              <LatitudeDegrees>38.5274710692465305328369140625</LatitudeDegrees>
              <LongitudeDegrees>-28.65762971341609954833984375</LongitudeDegrees>
            </Position>
            <AltitudeMeters>50.40000152587890625</AltitudeMeters>
            <DistanceMeters>3425.8493374746</DistanceMeters>
          </Trackpoint>
          <Trackpoint>
            <Time>2020-04-26T16:37:16.000Z</Time>
            <Position>
              <LatitudeDegrees>38.52749210782349109649658203125</LatitudeDegrees>
              <LongitudeDegrees>-28.6574407853186130523681640625</LongitudeDegrees>
            </Position>
            <AltitudeMeters>51</AltitudeMeters>
            <DistanceMeters>3442.4657034235</DistanceMeters>
          </Trackpoint>
          <Trackpoint>
            <Time>2020-04-26T16:37:19.000Z</Time>
            <Position>
              <LatitudeDegrees>38.5275052674114704132080078125</LatitudeDegrees>
              <LongitudeDegrees>-28.6573003046214580535888671875</LongitudeDegrees>
            </Position>
            <AltitudeMeters>51.59999847412109375</AltitudeMeters>
            <DistanceMeters>3454.7855055676</DistanceMeters>
          </Trackpoint>
          <Trackpoint>
            <Time>2020-04-26T16:37:26.000Z</Time>
            <Position>
              <LatitudeDegrees>38.5275451652705669403076171875</LatitudeDegrees>
              <LongitudeDegrees>-28.65696745924651622772216796875</LongitudeDegrees>
            </Position>
            <AltitudeMeters>52</AltitudeMeters>
            <DistanceMeters>3484.1053665392</DistanceMeters>
          </Trackpoint>
          <Trackpoint>
            <Time>2020-04-26T16:37:32.000Z</Time>
            <Position>
              <LatitudeDegrees>38.5275877453386783599853515625</LatitudeDegrees>
              <LongitudeDegrees>-28.6566837318241596221923828125</LongitudeDegrees>
            </Position>
            <AltitudeMeters>52.59999847412109375</AltitudeMeters>
            <DistanceMeters>3509.2607166041</DistanceMeters>
          </Trackpoint>
          <Trackpoint>
            <Time>2020-04-26T16:37:34.000Z</Time>
            <Position>
              <LatitudeDegrees>38.52760232985019683837890625</LatitudeDegrees>
              <LongitudeDegrees>-28.65658633410930633544921875</LongitudeDegrees>
            </Position>
            <AltitudeMeters>53</AltitudeMeters>
            <DistanceMeters>3517.895084625</DistanceMeters>
          </Trackpoint>
          <Trackpoint>
            <Time>2020-04-26T16:37:37.000Z</Time>
            <Position>
              <LatitudeDegrees>38.5276273079216480255126953125</LatitudeDegrees>
              <LongitudeDegrees>-28.65644074045121669769287109375</LongitudeDegrees>
            </Position>
            <AltitudeMeters>53.40000152587890625</AltitudeMeters>
            <DistanceMeters>3530.8734518532</DistanceMeters>
          </Trackpoint>
          <Trackpoint>
            <Time>2020-04-26T16:37:44.000Z</Time>
            <Position>
              <LatitudeDegrees>38.52769754827022552490234375</LatitudeDegrees>
              <LongitudeDegrees>-28.65607847459614276885986328125</LongitudeDegrees>
            </Position>
            <AltitudeMeters>53.59999847412109375</AltitudeMeters>
            <DistanceMeters>3563.3711988586</DistanceMeters>
          </Trackpoint>
          <Trackpoint>
            <Time>2020-04-26T16:37:51.000Z</Time>
            <Position>
              <LatitudeDegrees>38.52779150940477848052978515625</LatitudeDegrees>
              <LongitudeDegrees>-28.6556450463831424713134765625</LongitudeDegrees>
            </Position>
            <AltitudeMeters>54.40000152587890625</AltitudeMeters>
            <DistanceMeters>3602.5330441049</DistanceMeters>
          </Trackpoint>
          <Trackpoint>
            <Time>2020-04-26T16:38:00.000Z</Time>
            <Position>
              <LatitudeDegrees>38.52794255129992961883544921875</LatitudeDegrees>
              <LongitudeDegrees>-28.65504900924861431121826171875</LongitudeDegrees>
            </Position>
            <AltitudeMeters>54.200000762939453125</AltitudeMeters>
            <DistanceMeters>3657.0861585316</DistanceMeters>
          </Trackpoint>
          <Trackpoint>
            <Time>2020-04-26T16:38:08.000Z</Time>
            <Position>
              <LatitudeDegrees>38.52810658514499664306640625</LatitudeDegrees>
              <LongitudeDegrees>-28.65447543561458587646484375</LongitudeDegrees>
            </Position>
            <AltitudeMeters>53.59999847412109375</AltitudeMeters>
            <DistanceMeters>3710.2608867077</DistanceMeters>
          </Trackpoint>
          <Trackpoint>
            <Time>2020-04-26T16:38:13.000Z</Time>
            <Position>
              <LatitudeDegrees>38.52821345441043376922607421875</LatitudeDegrees>
              <LongitudeDegrees>-28.65411275066435337066650390625</LongitudeDegrees>
            </Position>
            <AltitudeMeters>53.59999847412109375</AltitudeMeters>
            <DistanceMeters>3744.0062096436</DistanceMeters>
          </Trackpoint>
          <Trackpoint>
            <Time>2020-04-26T16:38:17.000Z</Time>
            <Position>
              <LatitudeDegrees>38.528304733335971832275390625</LatitudeDegrees>
              <LongitudeDegrees>-28.6537921428680419921875</LongitudeDegrees>
            </Position>
            <AltitudeMeters>53.40000152587890625</AltitudeMeters>
            <DistanceMeters>3773.7132689203</DistanceMeters>
          </Trackpoint>
          <Trackpoint>
            <Time>2020-04-26T16:38:21.000Z</Time>
            <Position>
              <LatitudeDegrees>38.528399281203746795654296875</LatitudeDegrees>
              <LongitudeDegrees>-28.653451837599277496337890625</LongitudeDegrees>
            </Position>
            <AltitudeMeters>52.40000152587890625</AltitudeMeters>
            <DistanceMeters>3805.1573488095</DistanceMeters>
          </Trackpoint>
          <Trackpoint>
            <Time>2020-04-26T16:38:26.000Z</Time>
            <Position>
              <LatitudeDegrees>38.52853129617869853973388671875</LatitudeDegrees>
              <LongitudeDegrees>-28.65302410908043384552001953125</LongitudeDegrees>
            </Position>
            <AltitudeMeters>51.59999847412109375</AltitudeMeters>
            <DistanceMeters>3845.19394294</DistanceMeters>
          </Trackpoint>
          <Trackpoint>
            <Time>2020-04-26T16:38:28.000Z</Time>
            <Position>
              <LatitudeDegrees>38.52858041413128376007080078125</LatitudeDegrees>
              <LongitudeDegrees>-28.6528431437909603118896484375</LongitudeDegrees>
            </Position>
            <AltitudeMeters>50.799999237060546875</AltitudeMeters>
            <DistanceMeters>3861.8724172364</DistanceMeters>
          </Trackpoint>
          <Trackpoint>
            <Time>2020-04-26T16:38:34.000Z</Time>
            <Position>
              <LatitudeDegrees>38.52873832918703556060791015625</LatitudeDegrees>
              <LongitudeDegrees>-28.65229890681803226470947265625</LongitudeDegrees>
            </Position>
            <AltitudeMeters>49.59999847412109375</AltitudeMeters>
            <DistanceMeters>3912.4143922177</DistanceMeters>
          </Trackpoint>
          <Trackpoint>
            <Time>2020-04-26T16:38:35.000Z</Time>
            <Position>
              <LatitudeDegrees>38.5287672467529773712158203125</LatitudeDegrees>
              <LongitudeDegrees>-28.65220570005476474761962890625</LongitudeDegrees>
            </Position>
            <AltitudeMeters>49.40000152587890625</AltitudeMeters>
            <DistanceMeters>3921.14496352</DistanceMeters>
          </Trackpoint>
          <Trackpoint>
            <Time>2020-04-26T16:38:41.000Z</Time>
            <Position>
              <LatitudeDegrees>38.52893698029220104217529296875</LatitudeDegrees>
              <LongitudeDegrees>-28.65163497626781463623046875</LongitudeDegrees>
            </Position>
            <AltitudeMeters>48.200000762939453125</AltitudeMeters>
            <DistanceMeters>3974.308312609</DistanceMeters>
          </Trackpoint>
          <Trackpoint>
            <Time>2020-04-26T16:38:45.000Z</Time>
            <Position>
              <LatitudeDegrees>38.529039658606052398681640625</LatitudeDegrees>
              <LongitudeDegrees>-28.6512733809649944305419921875</LongitudeDegrees>
            </Position>
            <AltitudeMeters>47.799999237060546875</AltitudeMeters>
            <DistanceMeters>4007.8027694227</DistanceMeters>
          </Trackpoint>
          <Trackpoint>
            <Time>2020-04-26T16:38:52.000Z</Time>
            <Position>
              <LatitudeDegrees>38.52920629084110260009765625</LatitudeDegrees>
              <LongitudeDegrees>-28.65069829858839511871337890625</LongitudeDegrees>
            </Position>
            <AltitudeMeters>48.200000762939453125</AltitudeMeters>
            <DistanceMeters>4061.2000043451</DistanceMeters>
          </Trackpoint>
          <Trackpoint>
            <Time>2020-04-26T16:38:55.000Z</Time>
            <Position>
              <LatitudeDegrees>38.5292644612491130828857421875</LatitudeDegrees>
              <LongitudeDegrees>-28.6504797823727130889892578125</LongitudeDegrees>
            </Position>
            <AltitudeMeters>49.200000762939453125</AltitudeMeters>
            <DistanceMeters>4081.2976489667</DistanceMeters>
          </Trackpoint>
          <Trackpoint>
            <Time>2020-04-26T16:38:58.000Z</Time>
            <Position>
              <LatitudeDegrees>38.52932053618133068084716796875</LatitudeDegrees>
              <LongitudeDegrees>-28.65029110573232173919677734375</LongitudeDegrees>
            </Position>
            <AltitudeMeters>49.59999847412109375</AltitudeMeters>
            <DistanceMeters>4098.8711692283</DistanceMeters>
          </Trackpoint>
          <Trackpoint>
            <Time>2020-04-26T16:39:02.000Z</Time>
            <Position>
              <LatitudeDegrees>38.52938256226480007171630859375</LatitudeDegrees>
              <LongitudeDegrees>-28.6500653810799121856689453125</LongitudeDegrees>
            </Position>
            <AltitudeMeters>50.200000762939453125</AltitudeMeters>
            <DistanceMeters>4119.7024035535</DistanceMeters>
          </Trackpoint>
          <Trackpoint>
            <Time>2020-04-26T16:39:05.000Z</Time>
            <Position>
              <LatitudeDegrees>38.5294215381145477294921875</LatitudeDegrees>
              <LongitudeDegrees>-28.64991341717541217803955078125</LongitudeDegrees>
            </Position>
            <AltitudeMeters>51</AltitudeMeters>
            <DistanceMeters>4133.6269790015</DistanceMeters>
          </Trackpoint>
          <Trackpoint>
            <Time>2020-04-26T16:39:06.000Z</Time>
            <Position>
              <LatitudeDegrees>38.52943402715027332305908203125</LatitudeDegrees>
              <LongitudeDegrees>-28.64986396394670009613037109375</LongitudeDegrees>
            </Position>
            <AltitudeMeters>51.40000152587890625</AltitudeMeters>
            <DistanceMeters>4138.1514881791</DistanceMeters>
          </Trackpoint>
          <Trackpoint>
            <Time>2020-04-26T16:39:10.000Z</Time>
            <Position>
              <LatitudeDegrees>38.52948331274092197418212890625</LatitudeDegrees>
              <LongitudeDegrees>-28.649682663381099700927734375</LongitudeDegrees>
            </Position>
            <AltitudeMeters>52.200000762939453125</AltitudeMeters>
            <DistanceMeters>4154.863226696</DistanceMeters>
          </Trackpoint>
          <Trackpoint>
            <Time>2020-04-26T16:39:11.000Z</Time>
            <Position>
              <LatitudeDegrees>38.52949823252856731414794921875</LatitudeDegrees>
              <LongitudeDegrees>-28.64963849075138568878173828125</LongitudeDegrees>
            </Position>
            <AltitudeMeters>52.40000152587890625</AltitudeMeters>
            <DistanceMeters>4159.0530320145</DistanceMeters>
          </Trackpoint>
          <Trackpoint>
            <Time>2020-04-26T16:39:13.000Z</Time>
            <Position>
              <LatitudeDegrees>38.5295249707996845245361328125</LatitudeDegrees>
              <LongitudeDegrees>-28.64954830147325992584228515625</LongitudeDegrees>
            </Position>
            <AltitudeMeters>53</AltitudeMeters>
            <DistanceMeters>4167.450942292</DistanceMeters>
          </Trackpoint>
          <Trackpoint>
            <Time>2020-04-26T16:39:14.000Z</Time>
            <Position>
              <LatitudeDegrees>38.52953662164509296417236328125</LatitudeDegrees>
              <LongitudeDegrees>-28.64950471557676792144775390625</LongitudeDegrees>
            </Position>
            <AltitudeMeters>53.40000152587890625</AltitudeMeters>
            <DistanceMeters>4171.4612497797</DistanceMeters>
          </Trackpoint>
          <Trackpoint>
            <Time>2020-04-26T16:39:18.000Z</Time>
            <Position>
              <LatitudeDegrees>38.52958339266479015350341796875</LatitudeDegrees>
              <LongitudeDegrees>-28.64933221600949764251708984375</LongitudeDegrees>
            </Position>
            <AltitudeMeters>54.40000152587890625</AltitudeMeters>
            <DistanceMeters>4187.3574326276</DistanceMeters>
          </Trackpoint>
          <Trackpoint>
            <Time>2020-04-26T16:39:22.000Z</Time>
            <Position>
              <LatitudeDegrees>38.5296332649886608123779296875</LatitudeDegrees>
              <LongitudeDegrees>-28.6491720378398895263671875</LongitudeDegrees>
            </Position>
            <AltitudeMeters>55.59999847412109375</AltitudeMeters>
            <DistanceMeters>4202.3680444549</DistanceMeters>
          </Trackpoint>
          <Trackpoint>
            <Time>2020-04-26T16:39:23.000Z</Time>
            <Position>
              <LatitudeDegrees>38.5296439938247203826904296875</LatitudeDegrees>
              <LongitudeDegrees>-28.6491302959620952606201171875</LongitudeDegrees>
            </Position>
            <AltitudeMeters>55.799999237060546875</AltitudeMeters>
            <DistanceMeters>4206.192795929</DistanceMeters>
          </Trackpoint>
          <Trackpoint>
            <Time>2020-04-26T16:39:25.000Z</Time>
            <Position>
              <LatitudeDegrees>38.5296681337058544158935546875</LatitudeDegrees>
              <LongitudeDegrees>-28.6490545235574245452880859375</LongitudeDegrees>
            </Position>
            <AltitudeMeters>56.200000762939453125</AltitudeMeters>
            <DistanceMeters>4213.3153635463</DistanceMeters>
          </Trackpoint>
          <Trackpoint>
            <Time>2020-04-26T16:39:28.000Z</Time>
            <Position>
              <LatitudeDegrees>38.5297043435275554656982421875</LatitudeDegrees>
              <LongitudeDegrees>-28.6489442177116870880126953125</LongitudeDegrees>
            </Position>
            <AltitudeMeters>56.59999847412109375</AltitudeMeters>
            <DistanceMeters>4223.7310890802</DistanceMeters>
          </Trackpoint>
          <Trackpoint>
            <Time>2020-04-26T16:39:31.000Z</Time>
            <Position>
              <LatitudeDegrees>38.52973577566444873809814453125</LatitudeDegrees>
              <LongitudeDegrees>-28.64883567206561565399169921875</LongitudeDegrees>
            </Position>
            <AltitudeMeters>57</AltitudeMeters>
            <DistanceMeters>4233.8088502286</DistanceMeters>
          </Trackpoint>
          <Trackpoint>
            <Time>2020-04-26T16:39:33.000Z</Time>
            <Position>
              <LatitudeDegrees>38.5297563113272190093994140625</LatitudeDegrees>
              <LongitudeDegrees>-28.64876098930835723876953125</LongitudeDegrees>
            </Position>
            <AltitudeMeters>58</AltitudeMeters>
            <DistanceMeters>4240.7013992616</DistanceMeters>
          </Trackpoint>
          <Trackpoint>
            <Time>2020-04-26T16:39:39.000Z</Time>
            <Position>
              <LatitudeDegrees>38.52982345037162303924560546875</LatitudeDegrees>
              <LongitudeDegrees>-28.64853576757013797760009765625</LongitudeDegrees>
            </Position>
            <AltitudeMeters>59.200000762939453125</AltitudeMeters>
            <DistanceMeters>4261.6870331136</DistanceMeters>
          </Trackpoint>
          <Trackpoint>
            <Time>2020-04-26T16:39:40.000Z</Time>
            <Position>
              <LatitudeDegrees>38.5298344306647777557373046875</LatitudeDegrees>
              <LongitudeDegrees>-28.64849871955811977386474609375</LongitudeDegrees>
            </Position>
            <AltitudeMeters>59.200000762939453125</AltitudeMeters>
            <DistanceMeters>4265.1369085828</DistanceMeters>
          </Trackpoint>
          <Trackpoint>
            <Time>2020-04-26T16:39:46.000Z</Time>
            <Position>
              <LatitudeDegrees>38.5299004800617694854736328125</LatitudeDegrees>
              <LongitudeDegrees>-28.64828221499919891357421875</LongitudeDegrees>
            </Position>
            <AltitudeMeters>60.200000762939453125</AltitudeMeters>
            <DistanceMeters>4285.3706824725</DistanceMeters>
          </Trackpoint>
          <Trackpoint>
            <Time>2020-04-26T16:39:48.000Z</Time>
            <Position>
              <LatitudeDegrees>38.529922105371952056884765625</LatitudeDegrees>
              <LongitudeDegrees>-28.6482062749564647674560546875</LongitudeDegrees>
            </Position>
            <AltitudeMeters>60.40000152587890625</AltitudeMeters>
            <DistanceMeters>4292.4065107155</DistanceMeters>
          </Trackpoint>
          <Trackpoint>
            <Time>2020-04-26T16:39:52.000Z</Time>
            <Position>
              <LatitudeDegrees>38.52996074594557285308837890625</LatitudeDegrees>
              <LongitudeDegrees>-28.64805196411907672882080078125</LongitudeDegrees>
            </Position>
            <AltitudeMeters>61.59999847412109375</AltitudeMeters>
            <DistanceMeters>4306.5137377552</DistanceMeters>
          </Trackpoint>
          <Trackpoint>
            <Time>2020-04-26T16:39:57.000Z</Time>
            <Position>
              <LatitudeDegrees>38.53001070208847522735595703125</LatitudeDegrees>
              <LongitudeDegrees>-28.64786923862993717193603515625</LongitudeDegrees>
            </Position>
            <AltitudeMeters>62.799999237060546875</AltitudeMeters>
            <DistanceMeters>4323.366987426</DistanceMeters>
          </Trackpoint>
          <Trackpoint>
            <Time>2020-04-26T16:40:02.000Z</Time>
            <Position>
              <LatitudeDegrees>38.530068285763263702392578125</LatitudeDegrees>
              <LongitudeDegrees>-28.64767947234213352203369140625</LongitudeDegrees>
            </Position>
            <AltitudeMeters>63.799999237060546875</AltitudeMeters>
            <DistanceMeters>4341.0894059651</DistanceMeters>
          </Trackpoint>
          <Trackpoint>
            <Time>2020-04-26T16:40:05.000Z</Time>
            <Position>
              <LatitudeDegrees>38.530099131166934967041015625</LatitudeDegrees>
              <LongitudeDegrees>-28.64756413735449314117431640625</LongitudeDegrees>
            </Position>
            <AltitudeMeters>64.40000152587890625</AltitudeMeters>
            <DistanceMeters>4351.7026605819</DistanceMeters>
          </Trackpoint>
          <Trackpoint>
            <Time>2020-04-26T16:40:08.000Z</Time>
            <Position>
              <LatitudeDegrees>38.53013693355023860931396484375</LatitudeDegrees>
              <LongitudeDegrees>-28.64745383150875568389892578125</LongitudeDegrees>
            </Position>
            <AltitudeMeters>65</AltitudeMeters>
            <DistanceMeters>4362.1883751871</DistanceMeters>
          </Trackpoint>
          <Trackpoint>
            <Time>2020-04-26T16:40:14.000Z</Time>
            <Position>
              <LatitudeDegrees>38.53020943701267242431640625</LatitudeDegrees>
              <LongitudeDegrees>-28.6472265981137752532958984375</LongitudeDegrees>
            </Position>
            <AltitudeMeters>66</AltitudeMeters>
            <DistanceMeters>4383.5558667358</DistanceMeters>
          </Trackpoint>
          <Trackpoint>
            <Time>2020-04-26T16:40:20.000Z</Time>
            <Position>
              <LatitudeDegrees>38.53027917444705963134765625</LatitudeDegrees>
              <LongitudeDegrees>-28.64700389094650745391845703125</LongitudeDegrees>
            </Position>
            <AltitudeMeters>67</AltitudeMeters>
            <DistanceMeters>4404.4427299077</DistanceMeters>
          </Trackpoint>
          <Trackpoint>
            <Time>2020-04-26T16:40:24.000Z</Time>
            <Position>
              <LatitudeDegrees>38.5303229279816150665283203125</LatitudeDegrees>
              <LongitudeDegrees>-28.6468490771949291229248046875</LongitudeDegrees>
            </Position>
            <AltitudeMeters>67.59999847412109375</AltitudeMeters>
            <DistanceMeters>4418.7747621736</DistanceMeters>
          </Trackpoint>
          <Trackpoint>
            <Time>2020-04-26T16:40:28.000Z</Time>
            <Position>
              <LatitudeDegrees>38.53036358021199703216552734375</LatitudeDegrees>
              <LongitudeDegrees>-28.64669661037623882293701171875</LongitudeDegrees>
            </Position>
            <AltitudeMeters>68.1999969482421875</AltitudeMeters>
            <DistanceMeters>4432.8001386482</DistanceMeters>
          </Trackpoint>
          <Trackpoint>
            <Time>2020-04-26T16:40:36.000Z</Time>
            <Position>
              <LatitudeDegrees>38.53046181611716747283935546875</LatitudeDegrees>
              <LongitudeDegrees>-28.6463733203709125518798828125</LongitudeDegrees>
            </Position>
            <AltitudeMeters>69</AltitudeMeters>
            <DistanceMeters>4462.9977087428</DistanceMeters>
          </Trackpoint>
          <Trackpoint>
            <Time>2020-04-26T16:40:38.000Z</Time>
            <Position>
              <LatitudeDegrees>38.530482351779937744140625</LatitudeDegrees>
              <LongitudeDegrees>-28.6462898366153240203857421875</LongitudeDegrees>
            </Position>
            <AltitudeMeters>69.1999969482421875</AltitudeMeters>
            <DistanceMeters>4470.6176425703</DistanceMeters>
          </Trackpoint>
          <Trackpoint>
            <Time>2020-04-26T16:40:43.000Z</Time>
            <Position>
              <LatitudeDegrees>38.53055167011916637420654296875</LatitudeDegrees>
              <LongitudeDegrees>-28.64607484079897403717041015625</LongitudeDegrees>
            </Position>
            <AltitudeMeters>69.8000030517578125</AltitudeMeters>
            <DistanceMeters>4490.8643546552</DistanceMeters>
          </Trackpoint>
          <Trackpoint>
            <Time>2020-04-26T16:40:45.000Z</Time>
            <Position>
              <LatitudeDegrees>38.5305787436664104461669921875</LatitudeDegrees>
              <LongitudeDegrees>-28.64598624408245086669921875</LongitudeDegrees>
            </Position>
            <AltitudeMeters>70.8000030517578125</AltitudeMeters>
            <DistanceMeters>4499.1458660264</DistanceMeters>
          </Trackpoint>
          <Trackpoint>
            <Time>2020-04-26T16:40:50.000Z</Time>
            <Position>
              <LatitudeDegrees>38.53063523769378662109375</LatitudeDegrees>
              <LongitudeDegrees>-28.64577510394155979156494140625</LongitudeDegrees>
            </Position>
            <AltitudeMeters>71.40000152587890625</AltitudeMeters>
            <DistanceMeters>4518.575053237</DistanceMeters>
          </Trackpoint>
          <Trackpoint>
            <Time>2020-04-26T16:40:52.000Z</Time>
            <Position>
              <LatitudeDegrees>38.5306582041084766387939453125</LatitudeDegrees>
              <LongitudeDegrees>-28.64569363184273242950439453125</LongitudeDegrees>
            </Position>
            <AltitudeMeters>72</AltitudeMeters>
            <DistanceMeters>4526.1145712067</DistanceMeters>
          </Trackpoint>
          <Trackpoint>
            <Time>2020-04-26T16:40:58.000Z</Time>
            <Position>
              <LatitudeDegrees>38.53072886355221271514892578125</LatitudeDegrees>
              <LongitudeDegrees>-28.64545793272554874420166015625</LongitudeDegrees>
            </Position>
            <AltitudeMeters>73</AltitudeMeters>
            <DistanceMeters>4548.0918487641</DistanceMeters>
          </Trackpoint>
          <Trackpoint>
            <Time>2020-04-26T16:41:03.000Z</Time>
            <Position>
              <LatitudeDegrees>38.53078518994152545928955078125</LatitudeDegrees>
              <LongitudeDegrees>-28.64526380784809589385986328125</LongitudeDegrees>
            </Position>
            <AltitudeMeters>74</AltitudeMeters>
            <DistanceMeters>4566.1193957746</DistanceMeters>
          </Trackpoint>
          <Trackpoint>
            <Time>2020-04-26T16:41:06.000Z</Time>
            <Position>
              <LatitudeDegrees>38.53082257322967052459716796875</LatitudeDegrees>
              <LongitudeDegrees>-28.6451458744704723358154296875</LongitudeDegrees>
            </Position>
            <AltitudeMeters>75</AltitudeMeters>
            <DistanceMeters>4577.1988749672</DistanceMeters>
          </Trackpoint>
          <Trackpoint>
            <Time>2020-04-26T16:41:12.000Z</Time>
            <Position>
              <LatitudeDegrees>38.53088610805571079254150390625</LatitudeDegrees>
              <LongitudeDegrees>-28.644904308021068572998046875</LongitudeDegrees>
            </Position>
            <AltitudeMeters>76</AltitudeMeters>
            <DistanceMeters>4599.3887827709</DistanceMeters>
          </Trackpoint>
          <Trackpoint>
            <Time>2020-04-26T16:41:16.000Z</Time>
            <Position>
              <LatitudeDegrees>38.53093321435153484344482421875</LatitudeDegrees>
              <LongitudeDegrees>-28.64474840462207794189453125</LongitudeDegrees>
            </Position>
            <AltitudeMeters>77.1999969482421875</AltitudeMeters>
            <DistanceMeters>4613.9399762772</DistanceMeters>
          </Trackpoint>
          <Trackpoint>
            <Time>2020-04-26T16:41:22.000Z</Time>
            <Position>
              <LatitudeDegrees>38.53099809028208255767822265625</LatitudeDegrees>
              <LongitudeDegrees>-28.64451413042843341827392578125</LongitudeDegrees>
            </Position>
            <AltitudeMeters>78.1999969482421875</AltitudeMeters>
            <DistanceMeters>4635.5785419361</DistanceMeters>
          </Trackpoint>
          <Trackpoint>
            <Time>2020-04-26T16:41:25.000Z</Time>
            <Position>
              <LatitudeDegrees>38.53103262372314929962158203125</LatitudeDegrees>
              <LongitudeDegrees>-28.6443958617746829986572265625</LongitudeDegrees>
            </Position>
            <AltitudeMeters>79</AltitudeMeters>
            <DistanceMeters>4646.5704672824</DistanceMeters>
          </Trackpoint>
          <Trackpoint>
            <Time>2020-04-26T16:41:29.000Z</Time>
            <Position>
              <LatitudeDegrees>38.53107604198157787322998046875</LatitudeDegrees>
              <LongitudeDegrees>-28.6442340910434722900390625</LongitudeDegrees>
            </Position>
            <AltitudeMeters>79.1999969482421875</AltitudeMeters>
            <DistanceMeters>4661.461489986</DistanceMeters>
          </Trackpoint>
          <Trackpoint>
            <Time>2020-04-26T16:41:33.000Z</Time>
            <Position>
              <LatitudeDegrees>38.531115353107452392578125</LatitudeDegrees>
              <LongitudeDegrees>-28.64405329339206218719482421875</LongitudeDegrees>
            </Position>
            <AltitudeMeters>79.40000152587890625</AltitudeMeters>
            <DistanceMeters>4677.8000064375</DistanceMeters>
          </Trackpoint>
          <Trackpoint>
            <Time>2020-04-26T16:41:38.000Z</Time>
            <Position>
              <LatitudeDegrees>38.531145863234996795654296875</LatitudeDegrees>
              <LongitudeDegrees>-28.6437702365219593048095703125</LongitudeDegrees>
            </Position>
            <AltitudeMeters>79.1999969482421875</AltitudeMeters>
            <DistanceMeters>4702.6781381895</DistanceMeters>
          </Trackpoint>
          <Trackpoint>
            <Time>2020-04-26T16:41:39.000Z</Time>
            <Position>
              <LatitudeDegrees>38.531147874891757965087890625</LatitudeDegrees>
              <LongitudeDegrees>-28.64370762370526790618896484375</LongitudeDegrees>
            </Position>
            <AltitudeMeters>78.8000030517578125</AltitudeMeters>
            <DistanceMeters>4708.1336979187</DistanceMeters>
          </Trackpoint>
          <Trackpoint>
            <Time>2020-04-26T16:41:41.000Z</Time>
            <Position>
              <LatitudeDegrees>38.53114410303533077239990234375</LatitudeDegrees>
              <LongitudeDegrees>-28.64356982521712779998779296875</LongitudeDegrees>
            </Position>
            <AltitudeMeters>78.59999847412109375</AltitudeMeters>
            <DistanceMeters>4720.1386977124</DistanceMeters>
          </Trackpoint>
          <Trackpoint>
            <Time>2020-04-26T16:41:42.000Z</Time>
            <Position>
              <LatitudeDegrees>38.531132452189922332763671875</LatitudeDegrees>
              <LongitudeDegrees>-28.64350042305886745452880859375</LongitudeDegrees>
            </Position>
            <AltitudeMeters>78.8000030517578125</AltitudeMeters>
            <DistanceMeters>4726.3190879394</DistanceMeters>
          </Trackpoint>
          <Trackpoint>
            <Time>2020-04-26T16:41:44.000Z</Time>
            <Position>
              <LatitudeDegrees>38.53110336698591709136962890625</LatitudeDegrees>
              <LongitudeDegrees>-28.64335239864885807037353515625</LongitudeDegrees>
            </Position>
            <AltitudeMeters>78.59999847412109375</AltitudeMeters>
            <DistanceMeters>4739.6072072489</DistanceMeters>
          </Trackpoint>
          <Trackpoint>
            <Time>2020-04-26T16:41:45.000Z</Time>
            <Position>
              <LatitudeDegrees>38.53110068477690219879150390625</LatitudeDegrees>
              <LongitudeDegrees>-28.64327042363584041595458984375</LongitudeDegrees>
            </Position>
            <AltitudeMeters>78.1999969482421875</AltitudeMeters>
            <DistanceMeters>4746.7506631342</DistanceMeters>
          </Trackpoint>
          <Trackpoint>
            <Time>2020-04-26T16:41:46.000Z</Time>
            <Position>
              <LatitudeDegrees>38.531114347279071807861328125</LatitudeDegrees>
              <LongitudeDegrees>-28.6431892029941082000732421875</LongitudeDegrees>
            </Position>
            <AltitudeMeters>78</AltitudeMeters>
            <DistanceMeters>4753.9839378363</DistanceMeters>
          </Trackpoint>
          <Trackpoint>
            <Time>2020-04-26T16:41:47.000Z</Time>
            <Position>
              <LatitudeDegrees>38.53116438724100589752197265625</LatitudeDegrees>
              <LongitudeDegrees>-28.6431298591196537017822265625</LongitudeDegrees>
            </Position>
            <AltitudeMeters>77.8000030517578125</AltitudeMeters>
            <DistanceMeters>4761.5807278527</DistanceMeters>
          </Trackpoint>
          <Trackpoint>
            <Time>2020-04-26T16:41:49.000Z</Time>
            <Position>
              <LatitudeDegrees>38.5312922112643718719482421875</LatitudeDegrees>
              <LongitudeDegrees>-28.64312776364386081695556640625</LongitudeDegrees>
            </Position>
            <AltitudeMeters>77.59999847412109375</AltitudeMeters>
            <DistanceMeters>4775.8093719861</DistanceMeters>
          </Trackpoint>
          <Trackpoint>
            <Time>2020-04-26T16:41:52.000Z</Time>
            <Position>
              <LatitudeDegrees>38.531405366957187652587890625</LatitudeDegrees>
              <LongitudeDegrees>-28.6432720161974430084228515625</LongitudeDegrees>
            </Position>
            <AltitudeMeters>78.40000152587890625</AltitudeMeters>
            <DistanceMeters>4793.5961290883</DistanceMeters>
          </Trackpoint>
          <Trackpoint>
            <Time>2020-04-26T16:41:55.000Z</Time>
            <Position>
              <LatitudeDegrees>38.5314675606787204742431640625</LatitudeDegrees>
              <LongitudeDegrees>-28.64345281384885311126708984375</LongitudeDegrees>
            </Position>
            <AltitudeMeters>78.8000030517578125</AltitudeMeters>
            <DistanceMeters>4810.7928140439</DistanceMeters>
          </Trackpoint>
          <Trackpoint>
            <Time>2020-04-26T16:41:56.000Z</Time>
            <Position>
              <LatitudeDegrees>38.531488515436649322509765625</LatitudeDegrees>
              <LongitudeDegrees>-28.6435134150087833404541015625</LongitudeDegrees>
            </Position>
            <AltitudeMeters>79</AltitudeMeters>
            <DistanceMeters>4816.5605520425</DistanceMeters>
          </Trackpoint>
          <Trackpoint>
            <Time>2020-04-26T16:41:57.000Z</Time>
            <Position>
              <LatitudeDegrees>38.531507961452007293701171875</LatitudeDegrees>
              <LongitudeDegrees>-28.643571920692920684814453125</LongitudeDegrees>
            </Position>
            <AltitudeMeters>78.8000030517578125</AltitudeMeters>
            <DistanceMeters>4822.0949914267</DistanceMeters>
          </Trackpoint>
          <Trackpoint>
            <Time>2020-04-26T16:42:00.000Z</Time>
            <Position>
              <LatitudeDegrees>38.53156353347003459930419921875</LatitudeDegrees>
              <LongitudeDegrees>-28.643728829920291900634765625</LongitudeDegrees>
            </Position>
            <AltitudeMeters>80</AltitudeMeters>
            <DistanceMeters>4837.0917605425</DistanceMeters>
          </Trackpoint>
          <Trackpoint>
            <Time>2020-04-26T16:42:02.000Z</Time>
            <Position>
              <LatitudeDegrees>38.53158834390342235565185546875</LatitudeDegrees>
              <LongitudeDegrees>-28.6438191868364810943603515625</LongitudeDegrees>
            </Position>
            <AltitudeMeters>81.1999969482421875</AltitudeMeters>
            <DistanceMeters>4845.4297794045</DistanceMeters>
          </Trackpoint>
          <Trackpoint>
            <Time>2020-04-26T16:42:04.000Z</Time>
            <Position>
              <LatitudeDegrees>38.53162757121026515960693359375</LatitudeDegrees>
              <LongitudeDegrees>-28.6438949592411518096923828125</LongitudeDegrees>
            </Position>
            <AltitudeMeters>82.1999969482421875</AltitudeMeters>
            <DistanceMeters>4853.3410030666</DistanceMeters>
          </Trackpoint>
          <Trackpoint>
            <Time>2020-04-26T16:42:06.000Z</Time>
            <Position>
              <LatitudeDegrees>38.53167065419256687164306640625</LatitudeDegrees>
              <LongitudeDegrees>-28.64396964199841022491455078125</LongitudeDegrees>
            </Position>
            <AltitudeMeters>83.40000152587890625</AltitudeMeters>
            <DistanceMeters>4861.4205094014</DistanceMeters>
          </Trackpoint>
          <Trackpoint>
            <Time>2020-04-26T16:42:07.000Z</Time>
            <Position>
              <LatitudeDegrees>38.53169093839824199676513671875</LatitudeDegrees>
              <LongitudeDegrees>-28.64400702528655529022216796875</LongitudeDegrees>
            </Position>
            <AltitudeMeters>83.8000030517578125</AltitudeMeters>
            <DistanceMeters>4865.3821091868</DistanceMeters>
          </Trackpoint>
          <Trackpoint>
            <Time>2020-04-26T16:42:09.000Z</Time>
            <Position>
              <LatitudeDegrees>38.531726561486721038818359375</LatitudeDegrees>
              <LongitudeDegrees>-28.644081540405750274658203125</LongitudeDegrees>
            </Position>
            <AltitudeMeters>84.8000030517578125</AltitudeMeters>
            <DistanceMeters>4872.9854340775</DistanceMeters>
          </Trackpoint>
          <Trackpoint>
            <Time>2020-04-26T16:42:11.000Z</Time>
            <Position>
              <LatitudeDegrees>38.531770147383213043212890625</LatitudeDegrees>
              <LongitudeDegrees>-28.6441527865827083587646484375</LongitudeDegrees>
            </Position>
            <AltitudeMeters>85.8000030517578125</AltitudeMeters>
            <DistanceMeters>4880.8606207431</DistanceMeters>
          </Trackpoint>
          <Trackpoint>
            <Time>2020-04-26T16:42:13.000Z</Time>
            <Position>
              <LatitudeDegrees>38.53181113488972187042236328125</LatitudeDegrees>
              <LongitudeDegrees>-28.64420601166784763336181640625</LongitudeDegrees>
            </Position>
            <AltitudeMeters>86.40000152587890625</AltitudeMeters>
            <DistanceMeters>4887.3642257483</DistanceMeters>
          </Trackpoint>
          <Trackpoint>
            <Time>2020-04-26T16:42:15.000Z</Time>
            <Position>
              <LatitudeDegrees>38.53185220621526241302490234375</LatitudeDegrees>
              <LongitudeDegrees>-28.64426837302744388580322265625</LongitudeDegrees>
            </Position>
            <AltitudeMeters>87</AltitudeMeters>
            <DistanceMeters>4894.4626640665</DistanceMeters>
          </Trackpoint>
          <Trackpoint>
            <Time>2020-04-26T16:42:21.000Z</Time>
            <Position>
              <LatitudeDegrees>38.5319862328469753265380859375</LatitudeDegrees>
              <LongitudeDegrees>-28.6444592289626598358154296875</LongitudeDegrees>
            </Position>
            <AltitudeMeters>87.8000030517578125</AltitudeMeters>
            <DistanceMeters>4916.7935375708</DistanceMeters>
          </Trackpoint>
          <Trackpoint>
            <Time>2020-04-26T16:42:22.000Z</Time>
            <Position>
              <LatitudeDegrees>38.5320103727281093597412109375</LatitudeDegrees>
              <LongitudeDegrees>-28.64448999054729938507080078125</LongitudeDegrees>
            </Position>
            <AltitudeMeters>88.1999969482421875</AltitudeMeters>
            <DistanceMeters>4920.5874724479</DistanceMeters>
          </Trackpoint>
          <Trackpoint>
            <Time>2020-04-26T16:42:27.000Z</Time>
            <Position>
              <LatitudeDegrees>38.53211791254580020904541015625</LatitudeDegrees>
              <LongitudeDegrees>-28.64465318620204925537109375</LongitudeDegrees>
            </Position>
            <AltitudeMeters>89.1999969482421875</AltitudeMeters>
            <DistanceMeters>4939.1661064664</DistanceMeters>
          </Trackpoint>
          <Trackpoint>
            <Time>2020-04-26T16:42:29.000Z</Time>
            <Position>
              <LatitudeDegrees>38.53216082789003849029541015625</LatitudeDegrees>
              <LongitudeDegrees>-28.6447177268564701080322265625</LongitudeDegrees>
            </Position>
            <AltitudeMeters>89.59999847412109375</AltitudeMeters>
            <DistanceMeters>4946.5415508935</DistanceMeters>
          </Trackpoint>
          <Trackpoint>
            <Time>2020-04-26T16:42:33.000Z</Time>
            <Position>
              <LatitudeDegrees>38.532254286110401153564453125</LatitudeDegrees>
              <LongitudeDegrees>-28.644839264452457427978515625</LongitudeDegrees>
            </Position>
            <AltitudeMeters>90.40000152587890625</AltitudeMeters>
            <DistanceMeters>4961.3797220698</DistanceMeters>
          </Trackpoint>
          <Trackpoint>
            <Time>2020-04-26T16:42:38.000Z</Time>
            <Position>
              <LatitudeDegrees>38.53236098773777484893798828125</LatitudeDegrees>
              <LongitudeDegrees>-28.6449966765940189361572265625</LongitudeDegrees>
            </Position>
            <AltitudeMeters>91.40000152587890625</AltitudeMeters>
            <DistanceMeters>4979.5143947719</DistanceMeters>
          </Trackpoint>
          <Trackpoint>
            <Time>2020-04-26T16:42:39.000Z</Time>
            <Position>
              <LatitudeDegrees>38.53238076902925968170166015625</LatitudeDegrees>
              <LongitudeDegrees>-28.6450265161693096160888671875</LongitudeDegrees>
            </Position>
            <AltitudeMeters>91.40000152587890625</AltitudeMeters>
            <DistanceMeters>4982.9194818713</DistanceMeters>
          </Trackpoint>
          <Trackpoint>
            <Time>2020-04-26T16:42:45.000Z</Time>
            <Position>
              <LatitudeDegrees>38.53250582702457904815673828125</LatitudeDegrees>
              <LongitudeDegrees>-28.645211756229400634765625</LongitudeDegrees>
            </Position>
            <AltitudeMeters>93.1999969482421875</AltitudeMeters>
            <DistanceMeters>5004.2236998158</DistanceMeters>
          </Trackpoint>
          <Trackpoint>
            <Time>2020-04-26T16:42:49.000Z</Time>
            <Position>
              <LatitudeDegrees>38.5325642488896846771240234375</LatitudeDegrees>
              <LongitudeDegrees>-28.64532717503607273101806640625</LongitudeDegrees>
            </Position>
            <AltitudeMeters>94.40000152587890625</AltitudeMeters>
            <DistanceMeters>5016.193294331</DistanceMeters>
          </Trackpoint>
          <Trackpoint>
            <Time>2020-04-26T16:42:52.000Z</Time>
            <Position>
              <LatitudeDegrees>38.53258897550404071807861328125</LatitudeDegrees>
              <LongitudeDegrees>-28.64541887305676937103271484375</LongitudeDegrees>
            </Position>
            <AltitudeMeters>95.8000030517578125</AltitudeMeters>
            <DistanceMeters>5024.6383842509</DistanceMeters>
          </Trackpoint>
          <Trackpoint>
            <Time>2020-04-26T16:42:53.000Z</Time>
            <Position>
              <LatitudeDegrees>38.532596267759799957275390625</LatitudeDegrees>
              <LongitudeDegrees>-28.6454523168504238128662109375</LongitudeDegrees>
            </Position>
            <AltitudeMeters>95.8000030517578125</AltitudeMeters>
            <DistanceMeters>5027.6613690939</DistanceMeters>
          </Trackpoint>
          <Trackpoint>
            <Time>2020-04-26T16:42:59.000Z</Time>
            <Position>
              <LatitudeDegrees>38.53267547674477100372314453125</LatitudeDegrees>
              <LongitudeDegrees>-28.64566697739064693450927734375</LongitudeDegrees>
            </Position>
            <AltitudeMeters>95.8000030517578125</AltitudeMeters>
            <DistanceMeters>5048.3263478046</DistanceMeters>
          </Trackpoint>
          <Trackpoint>
            <Time>2020-04-26T16:43:03.000Z</Time>
            <Position>
              <LatitudeDegrees>38.532747142016887664794921875</LatitudeDegrees>
              <LongitudeDegrees>-28.64581097848713397979736328125</LongitudeDegrees>
            </Position>
            <AltitudeMeters>97.1999969482421875</AltitudeMeters>
            <DistanceMeters>5063.1864113765</DistanceMeters>
          </Trackpoint>
          <Trackpoint>
            <Time>2020-04-26T16:43:05.000Z</Time>
            <Position>
              <LatitudeDegrees>38.53278276510536670684814453125</LatitudeDegrees>
              <LongitudeDegrees>-28.64588591270148754119873046875</LongitudeDegrees>
            </Position>
            <AltitudeMeters>97</AltitudeMeters>
            <DistanceMeters>5070.8211440794</DistanceMeters>
          </Trackpoint>
          <Trackpoint>
            <Time>2020-04-26T16:43:08.000Z</Time>
            <Position>
              <LatitudeDegrees>38.5328522510826587677001953125</LatitudeDegrees>
              <LongitudeDegrees>-28.64598498679697513580322265625</LongitudeDegrees>
            </Position>
            <AltitudeMeters>96.8000030517578125</AltitudeMeters>
            <DistanceMeters>5082.4066115393</DistanceMeters>
          </Trackpoint>
          <Trackpoint>
            <Time>2020-04-26T16:43:12.000Z</Time>
            <Position>
              <LatitudeDegrees>38.5329524986445903778076171875</LatitudeDegrees>
              <LongitudeDegrees>-28.64611205644905567169189453125</LongitudeDegrees>
            </Position>
            <AltitudeMeters>97.59999847412109375</AltitudeMeters>
            <DistanceMeters>5098.1196745803</DistanceMeters>
          </Trackpoint>
          <Trackpoint>
            <Time>2020-04-26T16:43:16.000Z</Time>
            <Position>
              <LatitudeDegrees>38.53306489996612071990966796875</LatitudeDegrees>
              <LongitudeDegrees>-28.64623141475021839141845703125</LongitudeDegrees>
            </Position>
            <AltitudeMeters>98</AltitudeMeters>
            <DistanceMeters>5114.3834072145</DistanceMeters>
          </Trackpoint>
          <Trackpoint>
            <Time>2020-04-26T16:43:20.000Z</Time>
            <Position>
              <LatitudeDegrees>38.53317864239215850830078125</LatitudeDegrees>
              <LongitudeDegrees>-28.64635429345071315765380859375</LongitudeDegrees>
            </Position>
            <AltitudeMeters>98.1999969482421875</AltitudeMeters>
            <DistanceMeters>5130.9584199062</DistanceMeters>
          </Trackpoint>
          <Trackpoint>
            <Time>2020-04-26T16:43:21.000Z</Time>
            <Position>
              <LatitudeDegrees>38.53320638649165630340576171875</LatitudeDegrees>
              <LongitudeDegrees>-28.6463843844830989837646484375</LongitudeDegrees>
            </Position>
            <AltitudeMeters>98.40000152587890625</AltitudeMeters>
            <DistanceMeters>5135.0079407201</DistanceMeters>
          </Trackpoint>
          <Trackpoint>
            <Time>2020-04-26T16:43:23.000Z</Time>
            <Position>
              <LatitudeDegrees>38.5332646407186985015869140625</LatitudeDegrees>
              <LongitudeDegrees>-28.6464437283575534820556640625</LongitudeDegrees>
            </Position>
            <AltitudeMeters>98.40000152587890625</AltitudeMeters>
            <DistanceMeters>5143.298715225</DistanceMeters>
          </Trackpoint>
          <Trackpoint>
            <Time>2020-04-26T16:43:25.000Z</Time>
            <Position>
              <LatitudeDegrees>38.53333312086760997772216796875</LatitudeDegrees>
              <LongitudeDegrees>-28.64650793373584747314453125</LongitudeDegrees>
            </Position>
            <AltitudeMeters>98.40000152587890625</AltitudeMeters>
            <DistanceMeters>5152.7508883263</DistanceMeters>
          </Trackpoint>
          <Trackpoint>
            <Time>2020-04-26T16:43:28.000Z</Time>
            <Position>
              <LatitudeDegrees>38.53344577364623546600341796875</LatitudeDegrees>
              <LongitudeDegrees>-28.64658261649310588836669921875</LongitudeDegrees>
            </Position>
            <AltitudeMeters>98.59999847412109375</AltitudeMeters>
            <DistanceMeters>5166.875067906</DistanceMeters>
          </Trackpoint>
          <Trackpoint>
            <Time>2020-04-26T16:43:33.000Z</Time>
            <Position>
              <LatitudeDegrees>38.5336433351039886474609375</LatitudeDegrees>
              <LongitudeDegrees>-28.64667733199894428253173828125</LongitudeDegrees>
            </Position>
            <AltitudeMeters>99.40000152587890625</AltitudeMeters>
            <DistanceMeters>5190.3595510575</DistanceMeters>
          </Trackpoint>
          <Trackpoint>
            <Time>2020-04-26T16:43:36.000Z</Time>
            <Position>
              <LatitudeDegrees>38.5337745957076549530029296875</LatitudeDegrees>
              <LongitudeDegrees>-28.6467203311622142791748046875</LongitudeDegrees>
            </Position>
            <AltitudeMeters>100</AltitudeMeters>
            <DistanceMeters>5205.4409822054</DistanceMeters>
          </Trackpoint>
          <Trackpoint>
            <Time>2020-04-26T16:43:38.000Z</Time>
            <Position>
              <LatitudeDegrees>38.5338621027767658233642578125</LatitudeDegrees>
              <LongitudeDegrees>-28.64674120210111141204833984375</LongitudeDegrees>
            </Position>
            <AltitudeMeters>100.59999847412109375</AltitudeMeters>
            <DistanceMeters>5215.3484001811</DistanceMeters>
          </Trackpoint>
          <Trackpoint>
            <Time>2020-04-26T16:43:42.000Z</Time>
            <Position>
              <LatitudeDegrees>38.53403384797275066375732421875</LatitudeDegrees>
              <LongitudeDegrees>-28.6467944271862506866455078125</LongitudeDegrees>
            </Position>
            <AltitudeMeters>101.1999969482421875</AltitudeMeters>
            <DistanceMeters>5235.0175528088</DistanceMeters>
          </Trackpoint>
          <Trackpoint>
            <Time>2020-04-26T16:43:45.000Z</Time>
            <Position>
              <LatitudeDegrees>38.5341581515967845916748046875</LatitudeDegrees>
              <LongitudeDegrees>-28.646830134093761444091796875</LongitudeDegrees>
            </Position>
            <AltitudeMeters>101.59999847412109375</AltitudeMeters>
            <DistanceMeters>5249.1978822215</DistanceMeters>
          </Trackpoint>
          <Trackpoint>
            <Time>2020-04-26T16:43:46.000Z</Time>
            <Position>
              <LatitudeDegrees>38.53419922292232513427734375</LatitudeDegrees>
              <LongitudeDegrees>-28.6468430422246456146240234375</LongitudeDegrees>
            </Position>
            <AltitudeMeters>101.8000030517578125</AltitudeMeters>
            <DistanceMeters>5253.9053027034</DistanceMeters>
          </Trackpoint>
          <Trackpoint>
            <Time>2020-04-26T16:43:51.000Z</Time>
            <Position>
              <LatitudeDegrees>38.5344163142144680023193359375</LatitudeDegrees>
              <LongitudeDegrees>-28.64689945243299007415771484375</LongitudeDegrees>
            </Position>
            <AltitudeMeters>103</AltitudeMeters>
            <DistanceMeters>5278.5621258294</DistanceMeters>
          </Trackpoint>
          <Trackpoint>
            <Time>2020-04-26T16:43:54.000Z</Time>
            <Position>
              <LatitudeDegrees>38.53453894145786762237548828125</LatitudeDegrees>
              <LongitudeDegrees>-28.64693264476954936981201171875</LongitudeDegrees>
            </Position>
            <AltitudeMeters>103.1999969482421875</AltitudeMeters>
            <DistanceMeters>5292.5132644092</DistanceMeters>
          </Trackpoint>
          <Trackpoint>
            <Time>2020-04-26T16:43:57.000Z</Time>
            <Position>
              <LatitudeDegrees>38.53466182015836238861083984375</LatitudeDegrees>
              <LongitudeDegrees>-28.6469592154026031494140625</LongitudeDegrees>
            </Position>
            <AltitudeMeters>104</AltitudeMeters>
            <DistanceMeters>5306.3842354924</DistanceMeters>
          </Trackpoint>
          <Trackpoint>
            <Time>2020-04-26T16:44:02.000Z</Time>
            <Position>
              <LatitudeDegrees>38.53487354703247547149658203125</LatitudeDegrees>
              <LongitudeDegrees>-28.646980337798595428466796875</LongitudeDegrees>
            </Position>
            <AltitudeMeters>105</AltitudeMeters>
            <DistanceMeters>5330.0212591998</DistanceMeters>
          </Trackpoint>
          <Trackpoint>
            <Time>2020-04-26T16:44:03.000Z</Time>
            <Position>
              <LatitudeDegrees>38.53491579182446002960205078125</LatitudeDegrees>
              <LongitudeDegrees>-28.64698670804500579833984375</LongitudeDegrees>
            </Position>
            <AltitudeMeters>105</AltitudeMeters>
            <DistanceMeters>5334.7564128203</DistanceMeters>
          </Trackpoint>
          <Trackpoint>
            <Time>2020-04-26T16:44:04.000Z</Time>
            <Position>
              <LatitudeDegrees>38.53495753370225429534912109375</LatitudeDegrees>
              <LongitudeDegrees>-28.6470049805939197540283203125</LongitudeDegrees>
            </Position>
            <AltitudeMeters>105.1999969482421875</AltitudeMeters>
            <DistanceMeters>5339.6666372659</DistanceMeters>
          </Trackpoint>
          <Trackpoint>
            <Time>2020-04-26T16:44:06.000Z</Time>
            <Position>
              <LatitudeDegrees>38.53503833524882793426513671875</LatitudeDegrees>
              <LongitudeDegrees>-28.6470445431768894195556640625</LongitudeDegrees>
            </Position>
            <AltitudeMeters>105.59999847412109375</AltitudeMeters>
            <DistanceMeters>5349.2976779797</DistanceMeters>
          </Trackpoint>
          <Trackpoint>
            <Time>2020-04-26T16:44:08.000Z</Time>
            <Position>
              <LatitudeDegrees>38.53512282483279705047607421875</LatitudeDegrees>
              <LongitudeDegrees>-28.64707714878022670745849609375</LongitudeDegrees>
            </Position>
            <AltitudeMeters>105.8000030517578125</AltitudeMeters>
            <DistanceMeters>5359.119965734</DistanceMeters>
          </Trackpoint>
          <Trackpoint>
            <Time>2020-04-26T16:44:12.000Z</Time>
            <Position>
              <LatitudeDegrees>38.53528811596333980560302734375</LatitudeDegrees>
              <LongitudeDegrees>-28.64713481627404689788818359375</LongitudeDegrees>
            </Position>
            <AltitudeMeters>106.1999969482421875</AltitudeMeters>
            <DistanceMeters>5378.1900540565</DistanceMeters>
          </Trackpoint>
          <Trackpoint>
            <Time>2020-04-26T16:44:17.000Z</Time>
            <Position>
              <LatitudeDegrees>38.5354898683726787567138671875</LatitudeDegrees>
              <LongitudeDegrees>-28.6472145281732082366943359375</LongitudeDegrees>
            </Position>
            <AltitudeMeters>107.40000152587890625</AltitudeMeters>
            <DistanceMeters>5401.6937549679</DistanceMeters>
          </Trackpoint>
          <Trackpoint>
            <Time>2020-04-26T16:44:23.000Z</Time>
            <Position>
              <LatitudeDegrees>38.53572481311857700347900390625</LatitudeDegrees>
              <LongitudeDegrees>-28.6473194696009159088134765625</LongitudeDegrees>
            </Position>
            <AltitudeMeters>108.59999847412109375</AltitudeMeters>
            <DistanceMeters>5429.3936754632</DistanceMeters>
          </Trackpoint>
          <Trackpoint>
            <Time>2020-04-26T16:44:25.000Z</Time>
            <Position>
              <LatitudeDegrees>38.53579840622842311859130859375</LatitudeDegrees>
              <LongitudeDegrees>-28.6473690904676914215087890625</LongitudeDegrees>
            </Position>
            <AltitudeMeters>109.1999969482421875</AltitudeMeters>
            <DistanceMeters>5438.6537837731</DistanceMeters>
          </Trackpoint>
          <Trackpoint>
            <Time>2020-04-26T16:44:27.000Z</Time>
            <Position>
              <LatitudeDegrees>38.53587015531957149505615234375</LatitudeDegrees>
              <LongitudeDegrees>-28.64743103273212909698486328125</LongitudeDegrees>
            </Position>
            <AltitudeMeters>109.1999969482421875</AltitudeMeters>
            <DistanceMeters>5448.2899799144</DistanceMeters>
          </Trackpoint>
          <Trackpoint>
            <Time>2020-04-26T16:44:29.000Z</Time>
            <Position>
              <LatitudeDegrees>38.53593855164945125579833984375</LatitudeDegrees>
              <LongitudeDegrees>-28.6474928073585033416748046875</LongitudeDegrees>
            </Position>
            <AltitudeMeters>109.1999969482421875</AltitudeMeters>
            <DistanceMeters>5457.6103519773</DistanceMeters>
          </Trackpoint>
          <Trackpoint>
            <Time>2020-04-26T16:44:34.000Z</Time>
            <Position>
              <LatitudeDegrees>38.536092527210712432861328125</LatitudeDegrees>
              <LongitudeDegrees>-28.64768215455114841461181640625</LongitudeDegrees>
            </Position>
            <AltitudeMeters>109.1999969482421875</AltitudeMeters>
            <DistanceMeters>5481.3898260447</DistanceMeters>
          </Trackpoint>
          <Trackpoint>
            <Time>2020-04-26T16:44:39.000Z</Time>
            <Position>
              <LatitudeDegrees>38.53625136427581310272216796875</LatitudeDegrees>
              <LongitudeDegrees>-28.64790000021457672119140625</LongitudeDegrees>
            </Position>
            <AltitudeMeters>109.40000152587890625</AltitudeMeters>
            <DistanceMeters>5507.3176695907</DistanceMeters>
          </Trackpoint>
          <Trackpoint>
            <Time>2020-04-26T16:44:43.000Z</Time>
            <Position>
              <LatitudeDegrees>38.53638430126011371612548828125</LatitudeDegrees>
              <LongitudeDegrees>-28.64807023666799068450927734375</LongitudeDegrees>
            </Position>
            <AltitudeMeters>109.59999847412109375</AltitudeMeters>
            <DistanceMeters>5528.2602294362</DistanceMeters>
          </Trackpoint>
          <Trackpoint>
            <Time>2020-04-26T16:44:44.000Z</Time>
            <Position>
              <LatitudeDegrees>38.53641782887279987335205078125</LatitudeDegrees>
              <LongitudeDegrees>-28.6481157504022121429443359375</LongitudeDegrees>
            </Position>
            <AltitudeMeters>109.59999847412109375</AltitudeMeters>
            <DistanceMeters>5533.7033609626</DistanceMeters>
          </Trackpoint>
          <Trackpoint>
            <Time>2020-04-26T16:44:51.000Z</Time>
            <Position>
              <LatitudeDegrees>38.53668923489749431610107421875</LatitudeDegrees>
              <LongitudeDegrees>-28.6484463326632976531982421875</LongitudeDegrees>
            </Position>
            <AltitudeMeters>110</AltitudeMeters>
            <DistanceMeters>5575.4271229853</DistanceMeters>
          </Trackpoint>
          <Trackpoint>
            <Time>2020-04-26T16:44:52.000Z</Time>
            <Position>
              <LatitudeDegrees>38.53673852048814296722412109375</LatitudeDegrees>
              <LongitudeDegrees>-28.64848128519952297210693359375</LongitudeDegrees>
            </Position>
            <AltitudeMeters>110</AltitudeMeters>
            <DistanceMeters>5581.7003257672</DistanceMeters>
          </Trackpoint>
          <Trackpoint>
            <Time>2020-04-26T16:44:56.000Z</Time>
            <Position>
              <LatitudeDegrees>38.53692644275724887847900390625</LatitudeDegrees>
              <LongitudeDegrees>-28.6486183293163776397705078125</LongitudeDegrees>
            </Position>
            <AltitudeMeters>110.8000030517578125</AltitudeMeters>
            <DistanceMeters>5605.7799901864</DistanceMeters>
          </Trackpoint>
          <Trackpoint>
            <Time>2020-04-26T16:44:57.000Z</Time>
            <Position>
              <LatitudeDegrees>38.53697396814823150634765625</LatitudeDegrees>
              <LongitudeDegrees>-28.64865261130034923553466796875</LongitudeDegrees>
            </Position>
            <AltitudeMeters>111</AltitudeMeters>
            <DistanceMeters>5611.8527846171</DistanceMeters>
          </Trackpoint>
          <Trackpoint>
            <Time>2020-04-26T16:45:06.000Z</Time>
            <Position>
              <LatitudeDegrees>38.537412844598293304443359375</LatitudeDegrees>
              <LongitudeDegrees>-28.648931980133056640625</LongitudeDegrees>
            </Position>
            <AltitudeMeters>112.1999969482421875</AltitudeMeters>
            <DistanceMeters>5666.420960027</DistanceMeters>
          </Trackpoint>
          <Trackpoint>
            <Time>2020-04-26T16:45:07.000Z</Time>
            <Position>
              <LatitudeDegrees>38.5374639742076396942138671875</LatitudeDegrees>
              <LongitudeDegrees>-28.64895067177712917327880859375</LongitudeDegrees>
            </Position>
            <AltitudeMeters>112.40000152587890625</AltitudeMeters>
            <DistanceMeters>5672.3401404266</DistanceMeters>
          </Trackpoint>
          <Trackpoint>
            <Time>2020-04-26T16:45:09.000Z</Time>
            <Position>
              <LatitudeDegrees>38.53756430558860301971435546875</LatitudeDegrees>
              <LongitudeDegrees>-28.648985959589481353759765625</LongitudeDegrees>
            </Position>
            <AltitudeMeters>113.40000152587890625</AltitudeMeters>
            <DistanceMeters>5683.9220999143</DistanceMeters>
          </Trackpoint>
          <Trackpoint>
            <Time>2020-04-26T16:45:13.000Z</Time>
            <Position>
              <LatitudeDegrees>38.53776345960795879364013671875</LatitudeDegrees>
              <LongitudeDegrees>-28.64899995736777782440185546875</LongitudeDegrees>
            </Position>
            <AltitudeMeters>114</AltitudeMeters>
            <DistanceMeters>5706.1221790168</DistanceMeters>
          </Trackpoint>
          <Trackpoint>
            <Time>2020-04-26T16:45:15.000Z</Time>
            <Position>
              <LatitudeDegrees>38.5378570854663848876953125</LatitudeDegrees>
              <LongitudeDegrees>-28.648996017873287200927734375</LongitudeDegrees>
            </Position>
            <AltitudeMeters>114.8000030517578125</AltitudeMeters>
            <DistanceMeters>5716.5487359897</DistanceMeters>
          </Trackpoint>
          <Trackpoint>
            <Time>2020-04-26T16:45:20.000Z</Time>
            <Position>
              <LatitudeDegrees>38.53806654922664165496826171875</LatitudeDegrees>
              <LongitudeDegrees>-28.648993670940399169921875</LongitudeDegrees>
            </Position>
            <AltitudeMeters>115.59999847412109375</AltitudeMeters>
            <DistanceMeters>5739.8634198096</DistanceMeters>
          </Trackpoint>
          <Trackpoint>
            <Time>2020-04-26T16:45:22.000Z</Time>
            <Position>
              <LatitudeDegrees>38.53814701549708843231201171875</LatitudeDegrees>
              <LongitudeDegrees>-28.64899568259716033935546875</LongitudeDegrees>
            </Position>
            <AltitudeMeters>116</AltitudeMeters>
            <DistanceMeters>5748.8216723935</DistanceMeters>
          </Trackpoint>
          <Trackpoint>
            <Time>2020-04-26T16:45:26.000Z</Time>
            <Position>
              <LatitudeDegrees>38.53831012733280658721923828125</LatitudeDegrees>
              <LongitudeDegrees>-28.649002052843570709228515625</LongitudeDegrees>
            </Position>
            <AltitudeMeters>117.1999969482421875</AltitudeMeters>
            <DistanceMeters>5766.9849543878</DistanceMeters>
          </Trackpoint>
          <Trackpoint>
            <Time>2020-04-26T16:45:29.000Z</Time>
            <Position>
              <LatitudeDegrees>38.5384295694530010223388671875</LatitudeDegrees>
              <LongitudeDegrees>-28.64899761043488979339599609375</LongitudeDegrees>
            </Position>
            <AltitudeMeters>118</AltitudeMeters>
            <DistanceMeters>5780.2846212025</DistanceMeters>
          </Trackpoint>
          <Trackpoint>
            <Time>2020-04-26T16:45:30.000Z</Time>
            <Position>
              <LatitudeDegrees>38.53846938349306583404541015625</LatitudeDegrees>
              <LongitudeDegrees>-28.64899727515876293182373046875</LongitudeDegrees>
            </Position>
            <AltitudeMeters>118.1999969482421875</AltitudeMeters>
            <DistanceMeters>5784.7153532176</DistanceMeters>
          </Trackpoint>
          <Trackpoint>
            <Time>2020-04-26T16:45:35.000Z</Time>
            <Position>
              <LatitudeDegrees>38.53865495882928371429443359375</LatitudeDegrees>
              <LongitudeDegrees>-28.6489911563694477081298828125</LongitudeDegrees>
            </Position>
            <AltitudeMeters>119.1999969482421875</AltitudeMeters>
            <DistanceMeters>5805.3770543568</DistanceMeters>
          </Trackpoint>
          <Trackpoint>
            <Time>2020-04-26T16:45:38.000Z</Time>
            <Position>
              <LatitudeDegrees>38.538766689598560333251953125</LatitudeDegrees>
              <LongitudeDegrees>-28.64899576641619205474853515625</LongitudeDegrees>
            </Position>
            <AltitudeMeters>120.1999969482421875</AltitudeMeters>
            <DistanceMeters>5817.819386556</DistanceMeters>
          </Trackpoint>
          <Trackpoint>
            <Time>2020-04-26T16:45:39.000Z</Time>
            <Position>
              <LatitudeDegrees>38.53880197741091251373291015625</LatitudeDegrees>
              <LongitudeDegrees>-28.64899660460650920867919921875</LongitudeDegrees>
            </Position>
            <AltitudeMeters>120.40000152587890625</AltitudeMeters>
            <DistanceMeters>5821.746646487</DistanceMeters>
          </Trackpoint>
          <Trackpoint>
            <Time>2020-04-26T16:45:45.000Z</Time>
            <Position>
              <LatitudeDegrees>38.53901244699954986572265625</LatitudeDegrees>
              <LongitudeDegrees>-28.6490545235574245452880859375</LongitudeDegrees>
            </Position>
            <AltitudeMeters>121.40000152587890625</AltitudeMeters>
            <DistanceMeters>5845.7088342162</DistanceMeters>
          </Trackpoint>
          <Trackpoint>
            <Time>2020-04-26T16:45:47.000Z</Time>
            <Position>
              <LatitudeDegrees>38.539083190262317657470703125</LatitudeDegrees>
              <LongitudeDegrees>-28.6490890569984912872314453125</LongitudeDegrees>
            </Position>
            <AltitudeMeters>121.8000030517578125</AltitudeMeters>
            <DistanceMeters>5854.1378698349</DistanceMeters>
          </Trackpoint>
          <Trackpoint>
            <Time>2020-04-26T16:45:50.000Z</Time>
            <Position>
              <LatitudeDegrees>38.53919106535613536834716796875</LatitudeDegrees>
              <LongitudeDegrees>-28.64913322962820529937744140625</LongitudeDegrees>
            </Position>
            <AltitudeMeters>122.59999847412109375</AltitudeMeters>
            <DistanceMeters>5866.7453043703</DistanceMeters>
          </Trackpoint>
          <Trackpoint>
            <Time>2020-04-26T16:45:55.000Z</Time>
            <Position>
              <LatitudeDegrees>38.53935568593442440032958984375</LatitudeDegrees>
              <LongitudeDegrees>-28.64920279942452907562255859375</LongitudeDegrees>
            </Position>
            <AltitudeMeters>123.59999847412109375</AltitudeMeters>
            <DistanceMeters>5886.0427477884</DistanceMeters>
          </Trackpoint>
          <Trackpoint>
            <Time>2020-04-26T16:45:56.000Z</Time>
            <Position>
              <LatitudeDegrees>38.53938602842390537261962890625</LatitudeDegrees>
              <LongitudeDegrees>-28.6492114327847957611083984375</LongitudeDegrees>
            </Position>
            <AltitudeMeters>123.8000030517578125</AltitudeMeters>
            <DistanceMeters>5889.5004668649</DistanceMeters>
          </Trackpoint>
          <Trackpoint>
            <Time>2020-04-26T16:45:58.000Z</Time>
            <Position>
              <LatitudeDegrees>38.5394489765167236328125</LatitudeDegrees>
              <LongitudeDegrees>-28.6492248438298702239990234375</LongitudeDegrees>
            </Position>
            <AltitudeMeters>124.59999847412109375</AltitudeMeters>
            <DistanceMeters>5896.603356213</DistanceMeters>
          </Trackpoint>
          <Trackpoint>
            <Time>2020-04-26T16:46:02.000Z</Time>
            <Position>
              <LatitudeDegrees>38.53956699371337890625</LatitudeDegrees>
              <LongitudeDegrees>-28.649254851043224334716796875</LongitudeDegrees>
            </Position>
            <AltitudeMeters>125.8000030517578125</AltitudeMeters>
            <DistanceMeters>5909.9963931533</DistanceMeters>
          </Trackpoint>
          <Trackpoint>
            <Time>2020-04-26T16:46:06.000Z</Time>
            <Position>
              <LatitudeDegrees>38.5396630503237247467041015625</LatitudeDegrees>
              <LongitudeDegrees>-28.64927723072469234466552734375</LongitudeDegrees>
            </Position>
            <AltitudeMeters>127.1999969482421875</AltitudeMeters>
            <DistanceMeters>5920.8635611254</DistanceMeters>
          </Trackpoint>
          <Trackpoint>
            <Time>2020-04-26T16:46:08.000Z</Time>
            <Position>
              <LatitudeDegrees>38.5397059656679630279541015625</LatitudeDegrees>
              <LongitudeDegrees>-28.649286366999149322509765625</LongitudeDegrees>
            </Position>
            <AltitudeMeters>127.8000030517578125</AltitudeMeters>
            <DistanceMeters>5925.7052631452</DistanceMeters>
          </Trackpoint>
          <Trackpoint>
            <Time>2020-04-26T16:46:10.000Z</Time>
            <Position>
              <LatitudeDegrees>38.53975768201053142547607421875</LatitudeDegrees>
              <LongitudeDegrees>-28.64929432980716228485107421875</LongitudeDegrees>
            </Position>
            <AltitudeMeters>128.1999969482421875</AltitudeMeters>
            <DistanceMeters>5931.5026715769</DistanceMeters>
          </Trackpoint>
          <Trackpoint>
            <Time>2020-04-26T16:46:14.000Z</Time>
            <Position>
              <LatitudeDegrees>38.539887182414531707763671875</LatitudeDegrees>
              <LongitudeDegrees>-28.6493311263620853424072265625</LongitudeDegrees>
            </Position>
            <AltitudeMeters>129</AltitudeMeters>
            <DistanceMeters>5946.2679394575</DistanceMeters>
          </Trackpoint>
          <Trackpoint>
            <Time>2020-04-26T16:46:15.000Z</Time>
            <Position>
              <LatitudeDegrees>38.53991978801786899566650390625</LatitudeDegrees>
              <LongitudeDegrees>-28.64933925680816173553466796875</LongitudeDegrees>
            </Position>
            <AltitudeMeters>129.399993896484375</AltitudeMeters>
            <DistanceMeters>5949.9654434448</DistanceMeters>
          </Trackpoint>
          <Trackpoint>
            <Time>2020-04-26T16:46:21.000Z</Time>
            <Position>
              <LatitudeDegrees>38.54011609219014644622802734375</LatitudeDegrees>
              <LongitudeDegrees>-28.64937345497310161590576171875</LongitudeDegrees>
            </Position>
            <AltitudeMeters>130.399993896484375</AltitudeMeters>
            <DistanceMeters>5972.0161462954</DistanceMeters>
          </Trackpoint>
          <Trackpoint>
            <Time>2020-04-26T16:46:23.000Z</Time>
            <Position>
              <LatitudeDegrees>38.54018297977745532989501953125</LatitudeDegrees>
              <LongitudeDegrees>-28.6493797414004802703857421875</LongitudeDegrees>
            </Position>
            <AltitudeMeters>130.8000030517578125</AltitudeMeters>
            <DistanceMeters>5979.4804327086</DistanceMeters>
          </Trackpoint>
          <Trackpoint>
            <Time>2020-04-26T16:46:28.000Z</Time>
            <Position>
              <LatitudeDegrees>38.5403433255851268768310546875</LatitudeDegrees>
              <LongitudeDegrees>-28.64937345497310161590576171875</LongitudeDegrees>
            </Position>
            <AltitudeMeters>131.399993896484375</AltitudeMeters>
            <DistanceMeters>5997.3355957954</DistanceMeters>
          </Trackpoint>
          <Trackpoint>
            <Time>2020-04-26T16:46:31.000Z</Time>
            <Position>
              <LatitudeDegrees>38.54044332168996334075927734375</LatitudeDegrees>
              <LongitudeDegrees>-28.64933808334171772003173828125</LongitudeDegrees>
            </Position>
            <AltitudeMeters>131.600006103515625</AltitudeMeters>
            <DistanceMeters>6008.8835899469</DistanceMeters>
          </Trackpoint>
          <Trackpoint>
            <Time>2020-04-26T16:46:36.000Z</Time>
            <Position>
              <LatitudeDegrees>38.5405934415757656097412109375</LatitudeDegrees>
              <LongitudeDegrees>-28.64923842251300811767578125</LongitudeDegrees>
            </Position>
            <AltitudeMeters>132</AltitudeMeters>
            <DistanceMeters>6027.7103942583</DistanceMeters>
          </Trackpoint>
          <Trackpoint>
            <Time>2020-04-26T16:46:39.000Z</Time>
            <Position>
              <LatitudeDegrees>38.540678434073925018310546875</LatitudeDegrees>
              <LongitudeDegrees>-28.649160303175449371337890625</LongitudeDegrees>
            </Position>
            <AltitudeMeters>132.399993896484375</AltitudeMeters>
            <DistanceMeters>6039.3611499894</DistanceMeters>
          </Trackpoint>
          <Trackpoint>
            <Time>2020-04-26T16:46:40.000Z</Time>
            <Position>
              <LatitudeDegrees>38.5407054238021373748779296875</LatitudeDegrees>
              <LongitudeDegrees>-28.649130128324031829833984375</LongitudeDegrees>
            </Position>
            <AltitudeMeters>132.600006103515625</AltitudeMeters>
            <DistanceMeters>6043.3511405621</DistanceMeters>
          </Trackpoint>
          <Trackpoint>
            <Time>2020-04-26T16:46:45.000Z</Time>
            <Position>
              <LatitudeDegrees>38.5408397018909454345703125</LatitudeDegrees>
              <LongitudeDegrees>-28.64899836480617523193359375</LongitudeDegrees>
            </Position>
            <AltitudeMeters>133.399993896484375</AltitudeMeters>
            <DistanceMeters>6062.1911303387</DistanceMeters>
          </Trackpoint>
          <Trackpoint>
            <Time>2020-04-26T16:46:46.000Z</Time>
            <Position>
              <LatitudeDegrees>38.5408660210669040679931640625</LatitudeDegrees>
              <LongitudeDegrees>-28.64897263236343860626220703125</LongitudeDegrees>
            </Position>
            <AltitudeMeters>133.8000030517578125</AltitudeMeters>
            <DistanceMeters>6065.8788525523</DistanceMeters>
          </Trackpoint>
          <Trackpoint>
            <Time>2020-04-26T16:46:48.000Z</Time>
            <Position>
              <LatitudeDegrees>38.5409183241426944732666015625</LatitudeDegrees>
              <LongitudeDegrees>-28.64891697652637958526611328125</LongitudeDegrees>
            </Position>
            <AltitudeMeters>134.1999969482421875</AltitudeMeters>
            <DistanceMeters>6073.4524280337</DistanceMeters>
          </Trackpoint>
          <Trackpoint>
            <Time>2020-04-26T16:46:52.000Z</Time>
            <Position>
              <LatitudeDegrees>38.5410262830555438995361328125</LatitudeDegrees>
              <LongitudeDegrees>-28.6488010548055171966552734375</LongitudeDegrees>
            </Position>
            <AltitudeMeters>134.399993896484375</AltitudeMeters>
            <DistanceMeters>6089.1442132882</DistanceMeters>
          </Trackpoint>
          <Trackpoint>
            <Time>2020-04-26T16:46:54.000Z</Time>
            <Position>
              <LatitudeDegrees>38.54108017869293689727783203125</LatitudeDegrees>
              <LongitudeDegrees>-28.64874891936779022216796875</LongitudeDegrees>
            </Position>
            <AltitudeMeters>134.8000030517578125</AltitudeMeters>
            <DistanceMeters>6096.6663445685</DistanceMeters>
          </Trackpoint>
          <Trackpoint>
            <Time>2020-04-26T16:46:57.000Z</Time>
            <Position>
              <LatitudeDegrees>38.54115561582148075103759765625</LatitudeDegrees>
              <LongitudeDegrees>-28.6486662738025188446044921875</LongitudeDegrees>
            </Position>
            <AltitudeMeters>135.1999969482421875</AltitudeMeters>
            <DistanceMeters>6107.7233877978</DistanceMeters>
          </Trackpoint>
          <Trackpoint>
            <Time>2020-04-26T16:47:02.000Z</Time>
            <Position>
              <LatitudeDegrees>38.54128838516771793365478515625</LatitudeDegrees>
              <LongitudeDegrees>-28.64852554164826869964599609375</LongitudeDegrees>
            </Position>
            <AltitudeMeters>135.8000030517578125</AltitudeMeters>
            <DistanceMeters>6126.9192545241</DistanceMeters>
          </Trackpoint>
          <Trackpoint>
            <Time>2020-04-26T16:47:05.000Z</Time>
            <Position>
              <LatitudeDegrees>38.54136784560978412628173828125</LatitudeDegrees>
              <LongitudeDegrees>-28.648438788950443267822265625</LongitudeDegrees>
            </Position>
            <AltitudeMeters>136.399993896484375</AltitudeMeters>
            <DistanceMeters>6138.5498411443</DistanceMeters>
          </Trackpoint>
          <Trackpoint>
            <Time>2020-04-26T16:47:09.000Z</Time>
            <Position>
              <LatitudeDegrees>38.5414765588939189910888671875</LatitudeDegrees>
              <LongitudeDegrees>-28.64832420833408832550048828125</LongitudeDegrees>
            </Position>
            <AltitudeMeters>137</AltitudeMeters>
            <DistanceMeters>6154.231264604</DistanceMeters>
          </Trackpoint>
          <Trackpoint>
            <Time>2020-04-26T16:47:15.000Z</Time>
            <Position>
              <LatitudeDegrees>38.54164076037704944610595703125</LatitudeDegrees>
              <LongitudeDegrees>-28.64815942011773586273193359375</LongitudeDegrees>
            </Position>
            <AltitudeMeters>138</AltitudeMeters>
            <DistanceMeters>6177.4650533553</DistanceMeters>
          </Trackpoint>
          <Trackpoint>
            <Time>2020-04-26T16:47:16.000Z</Time>
            <Position>
              <LatitudeDegrees>38.5416683368384838104248046875</LatitudeDegrees>
              <LongitudeDegrees>-28.6481321789324283599853515625</LongitudeDegrees>
            </Position>
            <AltitudeMeters>138.1999969482421875</AltitudeMeters>
            <DistanceMeters>6181.3437267569</DistanceMeters>
          </Trackpoint>
          <Trackpoint>
            <Time>2020-04-26T16:47:24.000Z</Time>
            <Position>
              <LatitudeDegrees>38.5419013537466526031494140625</LatitudeDegrees>
              <LongitudeDegrees>-28.64792237989604473114013671875</LongitudeDegrees>
            </Position>
            <AltitudeMeters>139.1999969482421875</AltitudeMeters>
            <DistanceMeters>6213.0645777555</DistanceMeters>
          </Trackpoint>
          <Trackpoint>
            <Time>2020-04-26T16:47:29.000Z</Time>
            <Position>
              <LatitudeDegrees>38.54206086136400699615478515625</LatitudeDegrees>
              <LongitudeDegrees>-28.64779581315815448760986328125</LongitudeDegrees>
            </Position>
            <AltitudeMeters>140.399993896484375</AltitudeMeters>
            <DistanceMeters>6233.9592214689</DistanceMeters>
          </Trackpoint>
          <Trackpoint>
            <Time>2020-04-26T16:47:33.000Z</Time>
            <Position>
              <LatitudeDegrees>38.54220419190824031829833984375</LatitudeDegrees>
              <LongitudeDegrees>-28.6477023549377918243408203125</LongitudeDegrees>
            </Position>
            <AltitudeMeters>141.399993896484375</AltitudeMeters>
            <DistanceMeters>6251.8671564373</DistanceMeters>
          </Trackpoint>
          <Trackpoint>
            <Time>2020-04-26T16:47:38.000Z</Time>
            <Position>
              <LatitudeDegrees>38.542403094470500946044921875</LatitudeDegrees>
              <LongitudeDegrees>-28.64766237325966358184814453125</LongitudeDegrees>
            </Position>
            <AltitudeMeters>142</AltitudeMeters>
            <DistanceMeters>6274.2773490181</DistanceMeters>
          </Trackpoint>
          <Trackpoint>
            <Time>2020-04-26T16:47:39.000Z</Time>
            <Position>
              <LatitudeDegrees>38.54244492016732692718505859375</LatitudeDegrees>
              <LongitudeDegrees>-28.64766153506934642791748046875</LongitudeDegrees>
            </Position>
            <AltitudeMeters>142</AltitudeMeters>
            <DistanceMeters>6278.9326882609</DistanceMeters>
          </Trackpoint>
          <Trackpoint>
            <Time>2020-04-26T16:47:42.000Z</Time>
            <Position>
              <LatitudeDegrees>38.5425682179629802703857421875</LatitudeDegrees>
              <LongitudeDegrees>-28.64767645485699176788330078125</LongitudeDegrees>
            </Position>
            <AltitudeMeters>142.8000030517578125</AltitudeMeters>
            <DistanceMeters>6292.7171312505</DistanceMeters>
          </Trackpoint>
          <Trackpoint>
            <Time>2020-04-26T16:47:43.000Z</Time>
            <Position>
              <LatitudeDegrees>38.5426084510982036590576171875</LatitudeDegrees>
              <LongitudeDegrees>-28.6476949788630008697509765625</LongitudeDegrees>
            </Position>
            <AltitudeMeters>143</AltitudeMeters>
            <DistanceMeters>6297.4760630341</DistanceMeters>
          </Trackpoint>
          <Trackpoint>
            <Time>2020-04-26T16:47:45.000Z</Time>
            <Position>
              <LatitudeDegrees>38.54267961345613002777099609375</LatitudeDegrees>
              <LongitudeDegrees>-28.64774032495915889739990234375</LongitudeDegrees>
            </Position>
            <AltitudeMeters>143.600006103515625</AltitudeMeters>
            <DistanceMeters>6306.3258004878</DistanceMeters>
          </Trackpoint>
          <Trackpoint>
            <Time>2020-04-26T16:47:46.000Z</Time>
            <Position>
              <LatitudeDegrees>38.54271397925913333892822265625</LatitudeDegrees>
              <LongitudeDegrees>-28.64776530303061008453369140625</LongitudeDegrees>
            </Position>
            <AltitudeMeters>144</AltitudeMeters>
            <DistanceMeters>6310.7258554756</DistanceMeters>
          </Trackpoint>
          <Trackpoint>
            <Time>2020-04-26T16:47:50.000Z</Time>
            <Position>
              <LatitudeDegrees>38.542836271226406097412109375</LatitudeDegrees>
              <LongitudeDegrees>-28.64785683341324329376220703125</LongitudeDegrees>
            </Position>
            <AltitudeMeters>145</AltitudeMeters>
            <DistanceMeters>6326.4980000944</DistanceMeters>
          </Trackpoint>
          <Trackpoint>
            <Time>2020-04-26T16:47:53.000Z</Time>
            <Position>
              <LatitudeDegrees>38.54291439056396484375</LatitudeDegrees>
              <LongitudeDegrees>-28.6479206196963787078857421875</LongitudeDegrees>
            </Position>
            <AltitudeMeters>145.600006103515625</AltitudeMeters>
            <DistanceMeters>6336.8148557707</DistanceMeters>
          </Trackpoint>
          <Trackpoint>
            <Time>2020-04-26T16:47:55.000Z</Time>
            <Position>
              <LatitudeDegrees>38.54296736419200897216796875</LatitudeDegrees>
              <LongitudeDegrees>-28.6479501239955425262451171875</LongitudeDegrees>
            </Position>
            <AltitudeMeters>146.1999969482421875</AltitudeMeters>
            <DistanceMeters>6343.2458549243</DistanceMeters>
          </Trackpoint>
          <Trackpoint>
            <Time>2020-04-26T16:47:59.000Z</Time>
            <Position>
              <LatitudeDegrees>38.54307205416262149810791015625</LatitudeDegrees>
              <LongitudeDegrees>-28.64803352393209934234619140625</LongitudeDegrees>
            </Position>
            <AltitudeMeters>147.600006103515625</AltitudeMeters>
            <DistanceMeters>6356.9745021824</DistanceMeters>
          </Trackpoint>
          <Trackpoint>
            <Time>2020-04-26T16:48:04.000Z</Time>
            <Position>
              <LatitudeDegrees>38.54322209022939205169677734375</LatitudeDegrees>
              <LongitudeDegrees>-28.64813310094177722930908203125</LongitudeDegrees>
            </Position>
            <AltitudeMeters>148.1999969482421875</AltitudeMeters>
            <DistanceMeters>6375.7897916277</DistanceMeters>
          </Trackpoint>
          <Trackpoint>
            <Time>2020-04-26T16:48:10.000Z</Time>
            <Position>
              <LatitudeDegrees>38.543463237583637237548828125</LatitudeDegrees>
              <LongitudeDegrees>-28.6482917703688144683837890625</LongitudeDegrees>
            </Position>
            <AltitudeMeters>147.8000030517578125</AltitudeMeters>
            <DistanceMeters>6405.9756971741</DistanceMeters>
          </Trackpoint>
          <Trackpoint>
            <Time>2020-04-26T16:48:16.000Z</Time>
            <Position>
              <LatitudeDegrees>38.54380899108946323394775390625</LatitudeDegrees>
              <LongitudeDegrees>-28.64847390912473201751708984375</LongitudeDegrees>
            </Position>
            <AltitudeMeters>146.399993896484375</AltitudeMeters>
            <DistanceMeters>6447.5972895901</DistanceMeters>
          </Trackpoint>
          <Trackpoint>
            <Time>2020-04-26T16:48:21.000Z</Time>
            <Position>
              <LatitudeDegrees>38.5441463626921176910400390625</LatitudeDegrees>
              <LongitudeDegrees>-28.64862821996212005615234375</LongitudeDegrees>
            </Position>
            <AltitudeMeters>145.399993896484375</AltitudeMeters>
            <DistanceMeters>6487.4778404138</DistanceMeters>
          </Trackpoint>
          <Trackpoint>
            <Time>2020-04-26T16:48:23.000Z</Time>
            <Position>
              <LatitudeDegrees>38.54428793303668498992919921875</LatitudeDegrees>
              <LongitudeDegrees>-28.6486994661390781402587890625</LongitudeDegrees>
            </Position>
            <AltitudeMeters>144.8000030517578125</AltitudeMeters>
            <DistanceMeters>6504.4118035516</DistanceMeters>
          </Trackpoint>
          <Trackpoint>
            <Time>2020-04-26T16:48:25.000Z</Time>
            <Position>
              <LatitudeDegrees>38.5444333590567111968994140625</LatitudeDegrees>
              <LongitudeDegrees>-28.648768365383148193359375</LongitudeDegrees>
            </Position>
            <AltitudeMeters>144.1999969482421875</AltitudeMeters>
            <DistanceMeters>6521.6737403635</DistanceMeters>
          </Trackpoint>
          <Trackpoint>
            <Time>2020-04-26T16:48:28.000Z</Time>
            <Position>
              <LatitudeDegrees>38.5446657054126262664794921875</LatitudeDegrees>
              <LongitudeDegrees>-28.64882913418114185333251953125</LongitudeDegrees>
            </Position>
            <AltitudeMeters>144.1999969482421875</AltitudeMeters>
            <DistanceMeters>6548.0696233429</DistanceMeters>
          </Trackpoint>
          <Trackpoint>
            <Time>2020-04-26T16:48:29.000Z</Time>
            <Position>
              <LatitudeDegrees>38.54474541731178760528564453125</LatitudeDegrees>
              <LongitudeDegrees>-28.64884816110134124755859375</LongitudeDegrees>
            </Position>
            <AltitudeMeters>144.1999969482421875</AltitudeMeters>
            <DistanceMeters>6557.0946601586</DistanceMeters>
          </Trackpoint>
          <Trackpoint>
            <Time>2020-04-26T16:48:32.000Z</Time>
            <Position>
              <LatitudeDegrees>38.54500106535851955413818359375</LatitudeDegrees>
              <LongitudeDegrees>-28.64896877668797969818115234375</LongitudeDegrees>
            </Position>
            <AltitudeMeters>142.8000030517578125</AltitudeMeters>
            <DistanceMeters>6587.4244126691</DistanceMeters>
          </Trackpoint>
          <Trackpoint>
            <Time>2020-04-26T16:48:33.000Z</Time>
            <Position>
              <LatitudeDegrees>38.545085303485393524169921875</LatitudeDegrees>
              <LongitudeDegrees>-28.64903667010366916656494140625</LongitudeDegrees>
            </Position>
            <AltitudeMeters>142</AltitudeMeters>
            <DistanceMeters>6598.5075588771</DistanceMeters>
          </Trackpoint>
          <Trackpoint>
            <Time>2020-04-26T16:48:34.000Z</Time>
            <Position>
              <LatitudeDegrees>38.54517959989607334136962890625</LatitudeDegrees>
              <LongitudeDegrees>-28.649101294577121734619140625</LongitudeDegrees>
            </Position>
            <AltitudeMeters>141</AltitudeMeters>
            <DistanceMeters>6610.4151304315</DistanceMeters>
          </Trackpoint>
          <Trackpoint>
            <Time>2020-04-26T16:48:36.000Z</Time>
            <Position>
              <LatitudeDegrees>38.5453845374286174774169921875</LatitudeDegrees>
              <LongitudeDegrees>-28.649225346744060516357421875</LongitudeDegrees>
            </Position>
            <AltitudeMeters>138.8000030517578125</AltitudeMeters>
            <DistanceMeters>6635.6521934885</DistanceMeters>
          </Trackpoint>
          <Trackpoint>
            <Time>2020-04-26T16:48:37.000Z</Time>
            <Position>
              <LatitudeDegrees>38.54549668729305267333984375</LatitudeDegrees>
              <LongitudeDegrees>-28.64928913302719593048095703125</LongitudeDegrees>
            </Position>
            <AltitudeMeters>137</AltitudeMeters>
            <DistanceMeters>6649.3142460465</DistanceMeters>
          </Trackpoint>
          <Trackpoint>
            <Time>2020-04-26T16:48:38.000Z</Time>
            <Position>
              <LatitudeDegrees>38.54561160318553447723388671875</LatitudeDegrees>
              <LongitudeDegrees>-28.64934864453971385955810546875</LongitudeDegrees>
            </Position>
            <AltitudeMeters>135.1999969482421875</AltitudeMeters>
            <DistanceMeters>6663.1137479234</DistanceMeters>
          </Trackpoint>
          <Trackpoint>
            <Time>2020-04-26T16:48:39.000Z</Time>
            <Position>
              <LatitudeDegrees>38.5457318834960460662841796875</LatitudeDegrees>
              <LongitudeDegrees>-28.64940471947193145751953125</LongitudeDegrees>
            </Position>
            <AltitudeMeters>134</AltitudeMeters>
            <DistanceMeters>6677.3633198088</DistanceMeters>
          </Trackpoint>
          <Trackpoint>
            <Time>2020-04-26T16:48:42.000Z</Time>
            <Position>
              <LatitudeDegrees>38.546076714992523193359375</LatitudeDegrees>
              <LongitudeDegrees>-28.64952810108661651611328125</LongitudeDegrees>
            </Position>
            <AltitudeMeters>133.8000030517578125</AltitudeMeters>
            <DistanceMeters>6717.2181627599</DistanceMeters>
          </Trackpoint>
          <Trackpoint>
            <Time>2020-04-26T16:48:44.000Z</Time>
            <Position>
              <LatitudeDegrees>38.54628969915211200714111328125</LatitudeDegrees>
              <LongitudeDegrees>-28.64959993399679660797119140625</LongitudeDegrees>
            </Position>
            <AltitudeMeters>132.8000030517578125</AltitudeMeters>
            <DistanceMeters>6741.734686744</DistanceMeters>
          </Trackpoint>
          <Trackpoint>
            <Time>2020-04-26T16:48:45.000Z</Time>
            <Position>
              <LatitudeDegrees>38.5463953949511051177978515625</LatitudeDegrees>
              <LongitudeDegrees>-28.64963161759078502655029296875</LongitudeDegrees>
            </Position>
            <AltitudeMeters>130.1999969482421875</AltitudeMeters>
            <DistanceMeters>6753.8176613755</DistanceMeters>
          </Trackpoint>
          <Trackpoint>
            <Time>2020-04-26T16:48:47.000Z</Time>
            <Position>
              <LatitudeDegrees>38.54660988785326480865478515625</LatitudeDegrees>
              <LongitudeDegrees>-28.64969842135906219482421875</LongitudeDegrees>
            </Position>
            <AltitudeMeters>130</AltitudeMeters>
            <DistanceMeters>6778.3890046648</DistanceMeters>
          </Trackpoint>
          <Trackpoint>
            <Time>2020-04-26T16:48:48.000Z</Time>
            <Position>
              <LatitudeDegrees>38.54671516455709934234619140625</LatitudeDegrees>
              <LongitudeDegrees>-28.6497304402291774749755859375</LongitudeDegrees>
            </Position>
            <AltitudeMeters>129.399993896484375</AltitudeMeters>
            <DistanceMeters>6790.4330549801</DistanceMeters>
          </Trackpoint>
          <Trackpoint>
            <Time>2020-04-26T16:48:49.000Z</Time>
            <Position>
              <LatitudeDegrees>38.54682027362287044525146484375</LatitudeDegrees>
              <LongitudeDegrees>-28.649753071367740631103515625</LongitudeDegrees>
            </Position>
            <AltitudeMeters>128.8000030517578125</AltitudeMeters>
            <DistanceMeters>6802.296560847</DistanceMeters>
          </Trackpoint>
          <Trackpoint>
            <Time>2020-04-26T16:48:51.000Z</Time>
            <Position>
              <LatitudeDegrees>38.5470297373831272125244140625</LatitudeDegrees>
              <LongitudeDegrees>-28.649803698062896728515625</LongitudeDegrees>
            </Position>
            <AltitudeMeters>128.399993896484375</AltitudeMeters>
            <DistanceMeters>6826.0231919958</DistanceMeters>
          </Trackpoint>
          <Trackpoint>
            <Time>2020-04-26T16:48:53.000Z</Time>
            <Position>
              <LatitudeDegrees>38.54724406264722347259521484375</LatitudeDegrees>
              <LongitudeDegrees>-28.64983328618109226226806640625</LongitudeDegrees>
            </Position>
            <AltitudeMeters>128.1999969482421875</AltitudeMeters>
            <DistanceMeters>6850.0168258084</DistanceMeters>
          </Trackpoint>
          <Trackpoint>
            <Time>2020-04-26T16:48:54.000Z</Time>
            <Position>
              <LatitudeDegrees>38.5473465733230113983154296875</LatitudeDegrees>
              <LongitudeDegrees>-28.6498430930078029632568359375</LongitudeDegrees>
            </Position>
            <AltitudeMeters>128.600006103515625</AltitudeMeters>
            <DistanceMeters>6861.4587683132</DistanceMeters>
          </Trackpoint>
          <Trackpoint>
            <Time>2020-04-26T16:48:56.000Z</Time>
            <Position>
              <LatitudeDegrees>38.5475425422191619873046875</LatitudeDegrees>
              <LongitudeDegrees>-28.6498694121837615966796875</LongitudeDegrees>
            </Position>
            <AltitudeMeters>131</AltitudeMeters>
            <DistanceMeters>6883.3903905028</DistanceMeters>
          </Trackpoint>
          <Trackpoint>
            <Time>2020-04-26T16:48:58.000Z</Time>
            <Position>
              <LatitudeDegrees>38.547737337648868560791015625</LatitudeDegrees>
              <LongitudeDegrees>-28.6498799733817577362060546875</LongitudeDegrees>
            </Position>
            <AltitudeMeters>130.600006103515625</AltitudeMeters>
            <DistanceMeters>6905.091046865</DistanceMeters>
          </Trackpoint>
          <Trackpoint>
            <Time>2020-04-26T16:48:59.000Z</Time>
            <Position>
              <LatitudeDegrees>38.54783146642148494720458984375</LatitudeDegrees>
              <LongitudeDegrees>-28.64988081157207489013671875</LongitudeDegrees>
            </Position>
            <AltitudeMeters>129.600006103515625</AltitudeMeters>
            <DistanceMeters>6915.5685770763</DistanceMeters>
          </Trackpoint>
          <Trackpoint>
            <Time>2020-04-26T16:49:02.000Z</Time>
            <Position>
              <LatitudeDegrees>38.54810555465519428253173828125</LatitudeDegrees>
              <LongitudeDegrees>-28.64988273940980434417724609375</LongitudeDegrees>
            </Position>
            <AltitudeMeters>130.1999969482421875</AltitudeMeters>
            <DistanceMeters>6946.075556583</DistanceMeters>
          </Trackpoint>
          <Trackpoint>
            <Time>2020-04-26T16:49:05.000Z</Time>
            <Position>
              <LatitudeDegrees>38.54837059043347835540771484375</LatitudeDegrees>
              <LongitudeDegrees>-28.6498855054378509521484375</LongitudeDegrees>
            </Position>
            <AltitudeMeters>129.1999969482421875</AltitudeMeters>
            <DistanceMeters>6975.5754977196</DistanceMeters>
          </Trackpoint>
          <Trackpoint>
            <Time>2020-04-26T16:49:12.000Z</Time>
            <Position>
              <LatitudeDegrees>38.5489481873810291290283203125</LatitudeDegrees>
              <LongitudeDegrees>-28.64988324232399463653564453125</LongitudeDegrees>
            </Position>
            <AltitudeMeters>129.1999969482421875</AltitudeMeters>
            <DistanceMeters>7039.8634403477</DistanceMeters>
          </Trackpoint>
          <Trackpoint>
            <Time>2020-04-26T16:49:20.000Z</Time>
            <Position>
              <LatitudeDegrees>38.5495617426931858062744140625</LatitudeDegrees>
              <LongitudeDegrees>-28.649929426610469818115234375</LongitudeDegrees>
            </Position>
            <AltitudeMeters>128.8000030517578125</AltitudeMeters>
            <DistanceMeters>7108.2715873461</DistanceMeters>
          </Trackpoint>
          <Trackpoint>
            <Time>2020-04-26T16:49:25.000Z</Time>
            <Position>
              <LatitudeDegrees>38.54993532411754131317138671875</LatitudeDegrees>
              <LongitudeDegrees>-28.64994920790195465087890625</LongitudeDegrees>
            </Position>
            <AltitudeMeters>128.399993896484375</AltitudeMeters>
            <DistanceMeters>7149.8875385099</DistanceMeters>
          </Trackpoint>
          <Trackpoint>
            <Time>2020-04-26T16:49:28.000Z</Time>
            <Position>
              <LatitudeDegrees>38.550147973001003265380859375</LatitudeDegrees>
              <LongitudeDegrees>-28.64995130337774753570556640625</LongitudeDegrees>
            </Position>
            <AltitudeMeters>128.600006103515625</AltitudeMeters>
            <DistanceMeters>7173.5566310692</DistanceMeters>
          </Trackpoint>
          <Trackpoint>
            <Time>2020-04-26T16:49:34.000Z</Time>
            <Position>
              <LatitudeDegrees>38.55058559216558933258056640625</LatitudeDegrees>
              <LongitudeDegrees>-28.64998281933367252349853515625</LongitudeDegrees>
            </Position>
            <AltitudeMeters>128.399993896484375</AltitudeMeters>
            <DistanceMeters>7222.3417210838</DistanceMeters>
          </Trackpoint>
          <Trackpoint>
            <Time>2020-04-26T16:49:40.000Z</Time>
            <Position>
              <LatitudeDegrees>38.5510339401662349700927734375</LatitudeDegrees>
              <LongitudeDegrees>-28.649950884282588958740234375</LongitudeDegrees>
            </Position>
            <AltitudeMeters>127.59999847412109375</AltitudeMeters>
            <DistanceMeters>7272.3212561597</DistanceMeters>
          </Trackpoint>
          <Trackpoint>
            <Time>2020-04-26T16:49:43.000Z</Time>
            <Position>
              <LatitudeDegrees>38.55125916190445423126220703125</LatitudeDegrees>
              <LongitudeDegrees>-28.6499245651066303253173828125</LongitudeDegrees>
            </Position>
            <AltitudeMeters>127.40000152587890625</AltitudeMeters>
            <DistanceMeters>7297.4934722734</DistanceMeters>
          </Trackpoint>
          <Trackpoint>
            <Time>2020-04-26T16:49:48.000Z</Time>
            <Position>
              <LatitudeDegrees>38.55165545828640460968017578125</LatitudeDegrees>
              <LongitudeDegrees>-28.64992263726890087127685546875</LongitudeDegrees>
            </Position>
            <AltitudeMeters>127.40000152587890625</AltitudeMeters>
            <DistanceMeters>7341.6023509759</DistanceMeters>
          </Trackpoint>
          <Trackpoint>
            <Time>2020-04-26T16:49:54.000Z</Time>
            <Position>
              <LatitudeDegrees>38.55214144103229045867919921875</LatitudeDegrees>
              <LongitudeDegrees>-28.6500144191086292266845703125</LongitudeDegrees>
            </Position>
            <AltitudeMeters>126.8000030517578125</AltitudeMeters>
            <DistanceMeters>7396.279966037</DistanceMeters>
          </Trackpoint>
          <Trackpoint>
            <Time>2020-04-26T16:50:00.000Z</Time>
            <Position>
              <LatitudeDegrees>38.55264049954712390899658203125</LatitudeDegrees>
              <LongitudeDegrees>-28.65019722841680049896240234375</LongitudeDegrees>
            </Position>
            <AltitudeMeters>125.8000030517578125</AltitudeMeters>
            <DistanceMeters>7454.0603500151</DistanceMeters>
          </Trackpoint>
          <Trackpoint>
            <Time>2020-04-26T16:50:01.000Z</Time>
            <Position>
              <LatitudeDegrees>38.55272733606398105621337890625</LatitudeDegrees>
              <LongitudeDegrees>-28.65022220648825168609619140625</LongitudeDegrees>
            </Position>
            <AltitudeMeters>125.1999969482421875</AltitudeMeters>
            <DistanceMeters>7463.9668565029</DistanceMeters>
          </Trackpoint>
          <Trackpoint>
            <Time>2020-04-26T16:50:02.000Z</Time>
            <Position>
              <LatitudeDegrees>38.5528273321688175201416015625</LatitudeDegrees>
              <LongitudeDegrees>-28.65023343823850154876708984375</LongitudeDegrees>
            </Position>
            <AltitudeMeters>124.40000152587890625</AltitudeMeters>
            <DistanceMeters>7475.1396706856</DistanceMeters>
          </Trackpoint>
          <Trackpoint>
            <Time>2020-04-26T16:50:04.000Z</Time>
            <Position>
              <LatitudeDegrees>38.5530345328152179718017578125</LatitudeDegrees>
              <LongitudeDegrees>-28.6502658762037754058837890625</LongitudeDegrees>
            </Position>
            <AltitudeMeters>123.1999969482421875</AltitudeMeters>
            <DistanceMeters>7498.3736537669</DistanceMeters>
          </Trackpoint>
          <Trackpoint>
            <Time>2020-04-26T16:50:05.000Z</Time>
            <Position>
              <LatitudeDegrees>38.55313318781554698944091796875</LatitudeDegrees>
              <LongitudeDegrees>-28.650271408259868621826171875</LongitudeDegrees>
            </Position>
            <AltitudeMeters>123.40000152587890625</AltitudeMeters>
            <DistanceMeters>7509.3647575635</DistanceMeters>
          </Trackpoint>
          <Trackpoint>
            <Time>2020-04-26T16:50:07.000Z</Time>
            <Position>
              <LatitudeDegrees>38.55332630686461925506591796875</LatitudeDegrees>
              <LongitudeDegrees>-28.65026931278407573699951171875</LongitudeDegrees>
            </Position>
            <AltitudeMeters>124.8000030517578125</AltitudeMeters>
            <DistanceMeters>7530.8601280298</DistanceMeters>
          </Trackpoint>
          <Trackpoint>
            <Time>2020-04-26T16:50:10.000Z</Time>
            <Position>
              <LatitudeDegrees>38.55359402485191822052001953125</LatitudeDegrees>
              <LongitudeDegrees>-28.65028104744851589202880859375</LongitudeDegrees>
            </Position>
            <AltitudeMeters>124.40000152587890625</AltitudeMeters>
            <DistanceMeters>7560.6752045062</DistanceMeters>
          </Trackpoint>
          <Trackpoint>
            <Time>2020-04-26T16:50:12.000Z</Time>
            <Position>
              <LatitudeDegrees>38.5537545382976531982421875</LatitudeDegrees>
              <LongitudeDegrees>-28.65023897029459476470947265625</LongitudeDegrees>
            </Position>
            <AltitudeMeters>124.1999969482421875</AltitudeMeters>
            <DistanceMeters>7578.9121654786</DistanceMeters>
          </Trackpoint>
          <Trackpoint>
            <Time>2020-04-26T16:50:13.000Z</Time>
            <Position>
              <LatitudeDegrees>38.55381480418145656585693359375</LatitudeDegrees>
              <LongitudeDegrees>-28.6501542292535305023193359375</LongitudeDegrees>
            </Position>
            <AltitudeMeters>124</AltitudeMeters>
            <DistanceMeters>7588.8813691249</DistanceMeters>
          </Trackpoint>
          <Trackpoint>
            <Time>2020-04-26T16:50:15.000Z</Time>
            <Position>
              <LatitudeDegrees>38.5538740642368793487548828125</LatitudeDegrees>
              <LongitudeDegrees>-28.64994778297841548919677734375</LongitudeDegrees>
            </Position>
            <AltitudeMeters>124.1999969482421875</AltitudeMeters>
            <DistanceMeters>7608.0228254884</DistanceMeters>
          </Trackpoint>
          <Trackpoint>
            <Time>2020-04-26T16:50:17.000Z</Time>
            <Position>
              <LatitudeDegrees>38.5538993775844573974609375</LatitudeDegrees>
              <LongitudeDegrees>-28.649728596210479736328125</LongitudeDegrees>
            </Position>
            <AltitudeMeters>124</AltitudeMeters>
            <DistanceMeters>7627.3078644674</DistanceMeters>
          </Trackpoint>
          <Trackpoint>
            <Time>2020-04-26T16:50:18.000Z</Time>
            <Position>
              <LatitudeDegrees>38.5539186559617519378662109375</LatitudeDegrees>
              <LongitudeDegrees>-28.64961703307926654815673828125</LongitudeDegrees>
            </Position>
            <AltitudeMeters>123.59999847412109375</AltitudeMeters>
            <DistanceMeters>7637.2525815179</DistanceMeters>
          </Trackpoint>
          <Trackpoint>
            <Time>2020-04-26T16:50:19.000Z</Time>
            <Position>
              <LatitudeDegrees>38.553940616548061370849609375</LatitudeDegrees>
              <LongitudeDegrees>-28.64950706250965595245361328125</LongitudeDegrees>
            </Position>
            <AltitudeMeters>123.59999847412109375</AltitudeMeters>
            <DistanceMeters>7647.1317042626</DistanceMeters>
          </Trackpoint>
          <Trackpoint>
            <Time>2020-04-26T16:50:23.000Z</Time>
            <Position>
              <LatitudeDegrees>38.55407212860882282257080078125</LatitudeDegrees>
              <LongitudeDegrees>-28.64906852133572101593017578125</LongitudeDegrees>
            </Position>
            <AltitudeMeters>122.59999847412109375</AltitudeMeters>
            <DistanceMeters>7688.0128550304</DistanceMeters>
          </Trackpoint>
          <Trackpoint>
            <Time>2020-04-26T16:50:24.000Z</Time>
            <Position>
              <LatitudeDegrees>38.5541060753166675567626953125</LatitudeDegrees>
              <LongitudeDegrees>-28.6489579640328884124755859375</LongitudeDegrees>
            </Position>
            <AltitudeMeters>122.59999847412109375</AltitudeMeters>
            <DistanceMeters>7698.3506959421</DistanceMeters>
          </Trackpoint>
          <Trackpoint>
            <Time>2020-04-26T16:50:28.000Z</Time>
            <Position>
              <LatitudeDegrees>38.55421923100948333740234375</LatitudeDegrees>
              <LongitudeDegrees>-28.648492433130741119384765625</LongitudeDegrees>
            </Position>
            <AltitudeMeters>121.40000152587890625</AltitudeMeters>
            <DistanceMeters>7740.7827575457</DistanceMeters>
          </Trackpoint>
          <Trackpoint>
            <Time>2020-04-26T16:50:30.000Z</Time>
            <Position>
              <LatitudeDegrees>38.55424311943352222442626953125</LatitudeDegrees>
              <LongitudeDegrees>-28.64825279451906681060791015625</LongitudeDegrees>
            </Position>
            <AltitudeMeters>121</AltitudeMeters>
            <DistanceMeters>7761.80965943</DistanceMeters>
          </Trackpoint>
          <Trackpoint>
            <Time>2020-04-26T16:50:34.000Z</Time>
            <Position>
              <LatitudeDegrees>38.55424194596707820892333984375</LatitudeDegrees>
              <LongitudeDegrees>-28.64776178263127803802490234375</LongitudeDegrees>
            </Position>
            <AltitudeMeters>120.40000152587890625</AltitudeMeters>
            <DistanceMeters>7804.5478119711</DistanceMeters>
          </Trackpoint>
          <Trackpoint>
            <Time>2020-04-26T16:50:35.000Z</Time>
            <Position>
              <LatitudeDegrees>38.55423524044454097747802734375</LatitudeDegrees>
              <LongitudeDegrees>-28.64763622172176837921142578125</LongitudeDegrees>
            </Position>
            <AltitudeMeters>120.1999969482421875</AltitudeMeters>
            <DistanceMeters>7815.5027065822</DistanceMeters>
          </Trackpoint>
          <Trackpoint>
            <Time>2020-04-26T16:50:40.000Z</Time>
            <Position>
              <LatitudeDegrees>38.55417438782751560211181640625</LatitudeDegrees>
              <LongitudeDegrees>-28.64711151458323001861572265625</LongitudeDegrees>
            </Position>
            <AltitudeMeters>121.40000152587890625</AltitudeMeters>
            <DistanceMeters>7861.6727831002</DistanceMeters>
          </Trackpoint>
          <Trackpoint>
            <Time>2020-04-26T16:50:46.000Z</Time>
            <Position>
              <LatitudeDegrees>38.55406190268695354461669921875</LatitudeDegrees>
              <LongitudeDegrees>-28.64656434394419193267822265625</LongitudeDegrees>
            </Position>
            <AltitudeMeters>121.40000152587890625</AltitudeMeters>
            <DistanceMeters>7910.9167964275</DistanceMeters>
          </Trackpoint>
          <Trackpoint>
            <Time>2020-04-26T16:50:52.000Z</Time>
            <Position>
              <LatitudeDegrees>38.55400155298411846160888671875</LatitudeDegrees>
              <LongitudeDegrees>-28.646008707582950592041015625</LongitudeDegrees>
            </Position>
            <AltitudeMeters>121.1999969482421875</AltitudeMeters>
            <DistanceMeters>7959.7438858599</DistanceMeters>
          </Trackpoint>
          <Trackpoint>
            <Time>2020-04-26T16:50:58.000Z</Time>
            <Position>
              <LatitudeDegrees>38.55395344085991382598876953125</LatitudeDegrees>
              <LongitudeDegrees>-28.64541736431419849395751953125</LongitudeDegrees>
            </Position>
            <AltitudeMeters>120</AltitudeMeters>
            <DistanceMeters>8011.4925413973</DistanceMeters>
          </Trackpoint>
          <Trackpoint>
            <Time>2020-04-26T16:51:01.000Z</Time>
            <Position>
              <LatitudeDegrees>38.55392209254205226898193359375</LatitudeDegrees>
              <LongitudeDegrees>-28.64510421641170978546142578125</LongitudeDegrees>
            </Position>
            <AltitudeMeters>119.8000030517578125</AltitudeMeters>
            <DistanceMeters>8038.9715332318</DistanceMeters>
          </Trackpoint>
          <Trackpoint>
            <Time>2020-04-26T16:51:04.000Z</Time>
            <Position>
              <LatitudeDegrees>38.553878925740718841552734375</LatitudeDegrees>
              <LongitudeDegrees>-28.644790314137935638427734375</LongitudeDegrees>
            </Position>
            <AltitudeMeters>118.8000030517578125</AltitudeMeters>
            <DistanceMeters>8066.7131498937</DistanceMeters>
          </Trackpoint>
          <Trackpoint>
            <Time>2020-04-26T16:51:09.000Z</Time>
            <Position>
              <LatitudeDegrees>38.553821258246898651123046875</LatitudeDegrees>
              <LongitudeDegrees>-28.6442563869059085845947265625</LongitudeDegrees>
            </Position>
            <AltitudeMeters>117.8000030517578125</AltitudeMeters>
            <DistanceMeters>8113.6276761335</DistanceMeters>
          </Trackpoint>
          <Trackpoint>
            <Time>2020-04-26T16:51:10.000Z</Time>
            <Position>
              <LatitudeDegrees>38.55380273424088954925537109375</LatitudeDegrees>
              <LongitudeDegrees>-28.6441507749259471893310546875</LongitudeDegrees>
            </Position>
            <AltitudeMeters>117.40000152587890625</AltitudeMeters>
            <DistanceMeters>8123.0482701324</DistanceMeters>
          </Trackpoint>
          <Trackpoint>
            <Time>2020-04-26T16:51:13.000Z</Time>
            <Position>
              <LatitudeDegrees>38.553742133080959320068359375</LatitudeDegrees>
              <LongitudeDegrees>-28.6438357830047607421875</LongitudeDegrees>
            </Position>
            <AltitudeMeters>116.40000152587890625</AltitudeMeters>
            <DistanceMeters>8151.2828802523</DistanceMeters>
          </Trackpoint>
          <Trackpoint>
            <Time>2020-04-26T16:51:16.000Z</Time>
            <Position>
              <LatitudeDegrees>38.55369511060416698455810546875</LatitudeDegrees>
              <LongitudeDegrees>-28.64349656738340854644775390625</LongitudeDegrees>
            </Position>
            <AltitudeMeters>116</AltitudeMeters>
            <DistanceMeters>8181.2688908545</DistanceMeters>
          </Trackpoint>
          <Trackpoint>
            <Time>2020-04-26T16:51:19.000Z</Time>
            <Position>
              <LatitudeDegrees>38.55369427241384983062744140625</LatitudeDegrees>
              <LongitudeDegrees>-28.64313195459544658660888671875</LongitudeDegrees>
            </Position>
            <AltitudeMeters>115.1999969482421875</AltitudeMeters>
            <DistanceMeters>8213.0052527507</DistanceMeters>
          </Trackpoint>
          <Trackpoint>
            <Time>2020-04-26T16:51:21.000Z</Time>
            <Position>
              <LatitudeDegrees>38.55370952747762203216552734375</LatitudeDegrees>
              <LongitudeDegrees>-28.6428787373006343841552734375</LongitudeDegrees>
            </Position>
            <AltitudeMeters>115.1999969482421875</AltitudeMeters>
            <DistanceMeters>8235.1109666447</DistanceMeters>
          </Trackpoint>
          <Trackpoint>
            <Time>2020-04-26T16:51:27.000Z</Time>
            <Position>
              <LatitudeDegrees>38.5537557117640972137451171875</LatitudeDegrees>
              <LongitudeDegrees>-28.6421096138656139373779296875</LongitudeDegrees>
            </Position>
            <AltitudeMeters>114.1999969482421875</AltitudeMeters>
            <DistanceMeters>8302.2531069368</DistanceMeters>
          </Trackpoint>
          <Trackpoint>
            <Time>2020-04-26T16:51:28.000Z</Time>
            <Position>
              <LatitudeDegrees>38.55376434512436389923095703125</LatitudeDegrees>
              <LongitudeDegrees>-28.64198162220418453216552734375</LongitudeDegrees>
            </Position>
            <AltitudeMeters>114.1999969482421875</AltitudeMeters>
            <DistanceMeters>8313.43480799</DistanceMeters>
          </Trackpoint>
          <Trackpoint>
            <Time>2020-04-26T16:51:34.000Z</Time>
            <Position>
              <LatitudeDegrees>38.55379787273705005645751953125</LatitudeDegrees>
              <LongitudeDegrees>-28.64121115766465663909912109375</LongitudeDegrees>
            </Position>
            <AltitudeMeters>113.59999847412109375</AltitudeMeters>
            <DistanceMeters>8380.6003458023</DistanceMeters>
          </Trackpoint>
          <Trackpoint>
            <Time>2020-04-26T16:51:35.000Z</Time>
            <Position>
              <LatitudeDegrees>38.553795777261257171630859375</LatitudeDegrees>
              <LongitudeDegrees>-28.64108584821224212646484375</LongitudeDegrees>
            </Position>
            <AltitudeMeters>113.59999847412109375</AltitudeMeters>
            <DistanceMeters>8391.5098099289</DistanceMeters>
          </Trackpoint>
          <Trackpoint>
            <Time>2020-04-26T16:51:41.000Z</Time>
            <Position>
              <LatitudeDegrees>38.553770966827869415283203125</LatitudeDegrees>
              <LongitudeDegrees>-28.6403349973261356353759765625</LongitudeDegrees>
            </Position>
            <AltitudeMeters>113.59999847412109375</AltitudeMeters>
            <DistanceMeters>8456.922710358</DistanceMeters>
          </Trackpoint>
          <Trackpoint>
            <Time>2020-04-26T16:51:43.000Z</Time>
            <Position>
              <LatitudeDegrees>38.5537580586969852447509765625</LatitudeDegrees>
              <LongitudeDegrees>-28.640091083943843841552734375</LongitudeDegrees>
            </Position>
            <AltitudeMeters>113.59999847412109375</AltitudeMeters>
            <DistanceMeters>8478.2014813059</DistanceMeters>
          </Trackpoint>
          <Trackpoint>
            <Time>2020-04-26T16:51:49.000Z</Time>
            <Position>
              <LatitudeDegrees>38.5537161491811275482177734375</LatitudeDegrees>
              <LongitudeDegrees>-28.6393995769321918487548828125</LongitudeDegrees>
            </Position>
            <AltitudeMeters>114</AltitudeMeters>
            <DistanceMeters>8538.5713479006</DistanceMeters>
          </Trackpoint>
          <Trackpoint>
            <Time>2020-04-26T16:51:52.000Z</Time>
            <Position>
              <LatitudeDegrees>38.55369930155575275421142578125</LatitudeDegrees>
              <LongitudeDegrees>-28.6390676535665988922119140625</LongitudeDegrees>
            </Position>
            <AltitudeMeters>113.59999847412109375</AltitudeMeters>
            <DistanceMeters>8567.5231667698</DistanceMeters>
          </Trackpoint>
          <Trackpoint>
            <Time>2020-04-26T16:51:59.000Z</Time>
            <Position>
              <LatitudeDegrees>38.55362738482654094696044921875</LatitudeDegrees>
              <LongitudeDegrees>-28.6383038945496082305908203125</LongitudeDegrees>
            </Position>
            <AltitudeMeters>114.1999969482421875</AltitudeMeters>
            <DistanceMeters>8634.4817436261</DistanceMeters>
          </Trackpoint>
          <Trackpoint>
            <Time>2020-04-26T16:52:04.000Z</Time>
            <Position>
              <LatitudeDegrees>38.55351523496210575103759765625</LatitudeDegrees>
              <LongitudeDegrees>-28.6377429775893688201904296875</LongitudeDegrees>
            </Position>
            <AltitudeMeters>113</AltitudeMeters>
            <DistanceMeters>8684.8751189649</DistanceMeters>
          </Trackpoint>
          <Trackpoint>
            <Time>2020-04-26T16:52:05.000Z</Time>
            <Position>
              <LatitudeDegrees>38.553479947149753570556640625</LatitudeDegrees>
              <LongitudeDegrees>-28.63763225264847278594970703125</LongitudeDegrees>
            </Position>
            <AltitudeMeters>112.8000030517578125</AltitudeMeters>
            <DistanceMeters>8695.282605066</DistanceMeters>
          </Trackpoint>
          <Trackpoint>
            <Time>2020-04-26T16:52:11.000Z</Time>
            <Position>
              <LatitudeDegrees>38.5532947070896625518798828125</LatitudeDegrees>
              <LongitudeDegrees>-28.63694594241678714752197265625</LongitudeDegrees>
            </Position>
            <AltitudeMeters>112.1999969482421875</AltitudeMeters>
            <DistanceMeters>8758.4778707758</DistanceMeters>
          </Trackpoint>
          <Trackpoint>
            <Time>2020-04-26T16:52:12.000Z</Time>
            <Position>
              <LatitudeDegrees>38.553262688219547271728515625</LatitudeDegrees>
              <LongitudeDegrees>-28.63683362491428852081298828125</LongitudeDegrees>
            </Position>
            <AltitudeMeters>111.8000030517578125</AltitudeMeters>
            <DistanceMeters>8768.8831875208</DistanceMeters>
          </Trackpoint>
          <Trackpoint>
            <Time>2020-04-26T16:52:17.000Z</Time>
            <Position>
              <LatitudeDegrees>38.55302698910236358642578125</LatitudeDegrees>
              <LongitudeDegrees>-28.63630506210029125213623046875</LongitudeDegrees>
            </Position>
            <AltitudeMeters>111.1999969482421875</AltitudeMeters>
            <DistanceMeters>8821.8439378398</DistanceMeters>
          </Trackpoint>
          <Trackpoint>
            <Time>2020-04-26T16:52:22.000Z</Time>
            <Position>
              <LatitudeDegrees>38.552743010222911834716796875</LatitudeDegrees>
              <LongitudeDegrees>-28.6358325742185115814208984375</LongitudeDegrees>
            </Position>
            <AltitudeMeters>110.59999847412109375</AltitudeMeters>
            <DistanceMeters>8873.7129448237</DistanceMeters>
          </Trackpoint>
          <Trackpoint>
            <Time>2020-04-26T16:52:23.000Z</Time>
            <Position>
              <LatitudeDegrees>38.5526834987103939056396484375</LatitudeDegrees>
              <LongitudeDegrees>-28.6357366852462291717529296875</LongitudeDegrees>
            </Position>
            <AltitudeMeters>110.1999969482421875</AltitudeMeters>
            <DistanceMeters>8884.3678085513</DistanceMeters>
          </Trackpoint>
          <Trackpoint>
            <Time>2020-04-26T16:52:26.000Z</Time>
            <Position>
              <LatitudeDegrees>38.552549891173839569091796875</LatitudeDegrees>
              <LongitudeDegrees>-28.6354042589664459228515625</LongitudeDegrees>
            </Position>
            <AltitudeMeters>110.59999847412109375</AltitudeMeters>
            <DistanceMeters>8916.9005480562</DistanceMeters>
          </Trackpoint>
          <Trackpoint>
            <Time>2020-04-26T16:52:27.000Z</Time>
            <Position>
              <LatitudeDegrees>38.55250932276248931884765625</LatitudeDegrees>
              <LongitudeDegrees>-28.6352944560348987579345703125</LongitudeDegrees>
            </Position>
            <AltitudeMeters>111</AltitudeMeters>
            <DistanceMeters>8927.4716026863</DistanceMeters>
          </Trackpoint>
          <Trackpoint>
            <Time>2020-04-26T16:52:33.000Z</Time>
            <Position>
              <LatitudeDegrees>38.55228896252810955047607421875</LatitudeDegrees>
              <LongitudeDegrees>-28.6345923878252506256103515625</LongitudeDegrees>
            </Position>
            <AltitudeMeters>110.1999969482421875</AltitudeMeters>
            <DistanceMeters>8993.3195620016</DistanceMeters>
          </Trackpoint>
          <Trackpoint>
            <Time>2020-04-26T16:52:39.000Z</Time>
            <Position>
              <LatitudeDegrees>38.5520779900252819061279296875</LatitudeDegrees>
              <LongitudeDegrees>-28.63390750251710414886474609375</LongitudeDegrees>
            </Position>
            <AltitudeMeters>110.40000152587890625</AltitudeMeters>
            <DistanceMeters>9057.3918130388</DistanceMeters>
          </Trackpoint>
          <Trackpoint>
            <Time>2020-04-26T16:52:41.000Z</Time>
            <Position>
              <LatitudeDegrees>38.55200984515249729156494140625</LatitudeDegrees>
              <LongitudeDegrees>-28.6336871422827243804931640625</LongitudeDegrees>
            </Position>
            <AltitudeMeters>110.40000152587890625</AltitudeMeters>
            <DistanceMeters>9078.0178643212</DistanceMeters>
          </Trackpoint>
          <Trackpoint>
            <Time>2020-04-26T16:52:45.000Z</Time>
            <Position>
              <LatitudeDegrees>38.55182561092078685760498046875</LatitudeDegrees>
              <LongitudeDegrees>-28.6333226971328258514404296875</LongitudeDegrees>
            </Position>
            <AltitudeMeters>110.8000030517578125</AltitudeMeters>
            <DistanceMeters>9115.7907143389</DistanceMeters>
          </Trackpoint>
          <Trackpoint>
            <Time>2020-04-26T16:52:49.000Z</Time>
            <Position>
              <LatitudeDegrees>38.55157482437789440155029296875</LatitudeDegrees>
              <LongitudeDegrees>-28.6330779455602169036865234375</LongitudeDegrees>
            </Position>
            <AltitudeMeters>110.59999847412109375</AltitudeMeters>
            <DistanceMeters>9150.9048533425</DistanceMeters>
          </Trackpoint>
          <Trackpoint>
            <Time>2020-04-26T16:52:52.000Z</Time>
            <Position>
              <LatitudeDegrees>38.55138120241463184356689453125</LatitudeDegrees>
              <LongitudeDegrees>-28.63292128778994083404541015625</LongitudeDegrees>
            </Position>
            <AltitudeMeters>111.59999847412109375</AltitudeMeters>
            <DistanceMeters>9176.4070917864</DistanceMeters>
          </Trackpoint>
          <Trackpoint>
            <Time>2020-04-26T16:52:57.000Z</Time>
            <Position>
              <LatitudeDegrees>38.5510691441595554351806640625</LatitudeDegrees>
              <LongitudeDegrees>-28.6326648853719234466552734375</LongitudeDegrees>
            </Position>
            <AltitudeMeters>111.40000152587890625</AltitudeMeters>
            <DistanceMeters>9217.6923443493</DistanceMeters>
          </Trackpoint>
          <Trackpoint>
            <Time>2020-04-26T16:53:00.000Z</Time>
            <Position>
              <LatitudeDegrees>38.55088063515722751617431640625</LatitudeDegrees>
              <LongitudeDegrees>-28.632508814334869384765625</LongitudeDegrees>
            </Position>
            <AltitudeMeters>112.8000030517578125</AltitudeMeters>
            <DistanceMeters>9242.6878025168</DistanceMeters>
          </Trackpoint>
          <Trackpoint>
            <Time>2020-04-26T16:53:04.000Z</Time>
            <Position>
              <LatitudeDegrees>38.550629429519176483154296875</LatitudeDegrees>
              <LongitudeDegrees>-28.63228107802569866180419921875</LongitudeDegrees>
            </Position>
            <AltitudeMeters>112.59999847412109375</AltitudeMeters>
            <DistanceMeters>9276.9617661692</DistanceMeters>
          </Trackpoint>
          <Trackpoint>
            <Time>2020-04-26T16:53:09.000Z</Time>
            <Position>
              <LatitudeDegrees>38.55035626329481601715087890625</LatitudeDegrees>
              <LongitudeDegrees>-28.6318766511976718902587890625</LongitudeDegrees>
            </Position>
            <AltitudeMeters>112.59999847412109375</AltitudeMeters>
            <DistanceMeters>9323.4771244565</DistanceMeters>
          </Trackpoint>
          <Trackpoint>
            <Time>2020-04-26T16:53:11.000Z</Time>
            <Position>
              <LatitudeDegrees>38.55025836266577243804931640625</LatitudeDegrees>
              <LongitudeDegrees>-28.63168294541537761688232421875</LongitudeDegrees>
            </Position>
            <AltitudeMeters>111.40000152587890625</AltitudeMeters>
            <DistanceMeters>9343.5527408068</DistanceMeters>
          </Trackpoint>
          <Trackpoint>
            <Time>2020-04-26T16:53:14.000Z</Time>
            <Position>
              <LatitudeDegrees>38.55011813342571258544921875</LatitudeDegrees>
              <LongitudeDegrees>-28.63135152496397495269775390625</LongitudeDegrees>
            </Position>
            <AltitudeMeters>110.40000152587890625</AltitudeMeters>
            <DistanceMeters>9376.3527912265</DistanceMeters>
          </Trackpoint>
          <Trackpoint>
            <Time>2020-04-26T16:53:15.000Z</Time>
            <Position>
              <LatitudeDegrees>38.55007119476795196533203125</LatitudeDegrees>
              <LongitudeDegrees>-28.6312387883663177490234375</LongitudeDegrees>
            </Position>
            <AltitudeMeters>110.1999969482421875</AltitudeMeters>
            <DistanceMeters>9387.4696984499</DistanceMeters>
          </Trackpoint>
          <Trackpoint>
            <Time>2020-04-26T16:53:20.000Z</Time>
            <Position>
              <LatitudeDegrees>38.5498447157442569732666015625</LatitudeDegrees>
              <LongitudeDegrees>-28.63064400851726531982421875</LongitudeDegrees>
            </Position>
            <AltitudeMeters>109.40000152587890625</AltitudeMeters>
            <DistanceMeters>9445.0532215306</DistanceMeters>
          </Trackpoint>
          <Trackpoint>
            <Time>2020-04-26T16:53:21.000Z</Time>
            <Position>
              <LatitudeDegrees>38.5498028062283992767333984375</LatitudeDegrees>
              <LongitudeDegrees>-28.6305258236825466156005859375</LongitudeDegrees>
            </Position>
            <AltitudeMeters>108.8000030517578125</AltitudeMeters>
            <DistanceMeters>9456.3490163302</DistanceMeters>
          </Trackpoint>
          <Trackpoint>
            <Time>2020-04-26T16:53:22.000Z</Time>
            <Position>
              <LatitudeDegrees>38.5497634112834930419921875</LatitudeDegrees>
              <LongitudeDegrees>-28.63040529191493988037109375</LongitudeDegrees>
            </Position>
            <AltitudeMeters>108</AltitudeMeters>
            <DistanceMeters>9467.7197082407</DistanceMeters>
          </Trackpoint>
          <Trackpoint>
            <Time>2020-04-26T16:53:23.000Z</Time>
            <Position>
              <LatitudeDegrees>38.5497266985476016998291015625</LatitudeDegrees>
              <LongitudeDegrees>-28.6302839219570159912109375</LongitudeDegrees>
            </Position>
            <AltitudeMeters>107.40000152587890625</AltitudeMeters>
            <DistanceMeters>9479.0474346794</DistanceMeters>
          </Trackpoint>
          <Trackpoint>
            <Time>2020-04-26T16:53:25.000Z</Time>
            <Position>
              <LatitudeDegrees>38.54967691004276275634765625</LatitudeDegrees>
              <LongitudeDegrees>-28.63004830665886402130126953125</LongitudeDegrees>
            </Position>
            <AltitudeMeters>106.59999847412109375</AltitudeMeters>
            <DistanceMeters>9500.2922288846</DistanceMeters>
          </Trackpoint>
          <Trackpoint>
            <Time>2020-04-26T16:53:26.000Z</Time>
            <Position>
              <LatitudeDegrees>38.5496623255312442779541015625</LatitudeDegrees>
              <LongitudeDegrees>-28.6299307085573673248291015625</LongitudeDegrees>
            </Position>
            <AltitudeMeters>106</AltitudeMeters>
            <DistanceMeters>9510.6566772238</DistanceMeters>
          </Trackpoint>
          <Trackpoint>
            <Time>2020-04-26T16:53:28.000Z</Time>
            <Position>
              <LatitudeDegrees>38.5496495850384235382080078125</LatitudeDegrees>
              <LongitudeDegrees>-28.62970179878175258636474609375</LongitudeDegrees>
            </Position>
            <AltitudeMeters>106</AltitudeMeters>
            <DistanceMeters>9530.6330917723</DistanceMeters>
          </Trackpoint>
          <Trackpoint>
            <Time>2020-04-26T16:53:30.000Z</Time>
            <Position>
              <LatitudeDegrees>38.54962033219635486602783203125</LatitudeDegrees>
              <LongitudeDegrees>-28.62948261201381683349609375</LongitudeDegrees>
            </Position>
            <AltitudeMeters>106.59999847412109375</AltitudeMeters>
            <DistanceMeters>9549.9882397013</DistanceMeters>
          </Trackpoint>
          <Trackpoint>
            <Time>2020-04-26T16:53:33.000Z</Time>
            <Position>
              <LatitudeDegrees>38.5494638420641422271728515625</LatitudeDegrees>
              <LongitudeDegrees>-28.629203327000141143798828125</LongitudeDegrees>
            </Position>
            <AltitudeMeters>106.59999847412109375</AltitudeMeters>
            <DistanceMeters>9579.8943409403</DistanceMeters>
          </Trackpoint>
          <Trackpoint>
            <Time>2020-04-26T16:53:35.000Z</Time>
            <Position>
              <LatitudeDegrees>38.54934431612491607666015625</LatitudeDegrees>
              <LongitudeDegrees>-28.62903200089931488037109375</LongitudeDegrees>
            </Position>
            <AltitudeMeters>107</AltitudeMeters>
            <DistanceMeters>9599.8788904965</DistanceMeters>
          </Trackpoint>
          <Trackpoint>
            <Time>2020-04-26T16:53:39.000Z</Time>
            <Position>
              <LatitudeDegrees>38.549114651978015899658203125</LatitudeDegrees>
              <LongitudeDegrees>-28.62869345583021640777587890625</LongitudeDegrees>
            </Position>
            <AltitudeMeters>107.1999969482421875</AltitudeMeters>
            <DistanceMeters>9638.8896426439</DistanceMeters>
          </Trackpoint>
          <Trackpoint>
            <Time>2020-04-26T16:53:42.000Z</Time>
            <Position>
              <LatitudeDegrees>38.54900292120873928070068359375</LatitudeDegrees>
              <LongitudeDegrees>-28.62850720994174480438232421875</LongitudeDegrees>
            </Position>
            <AltitudeMeters>107.1999969482421875</AltitudeMeters>
            <DistanceMeters>9659.3219331214</DistanceMeters>
          </Trackpoint>
          <Trackpoint>
            <Time>2020-04-26T16:53:43.000Z</Time>
            <Position>
              <LatitudeDegrees>38.5489914380013942718505859375</LatitudeDegrees>
              <LongitudeDegrees>-28.62846630625426769256591796875</LongitudeDegrees>
            </Position>
            <AltitudeMeters>107.1999969482421875</AltitudeMeters>
            <DistanceMeters>9663.1051422305</DistanceMeters>
          </Trackpoint>
          <Trackpoint>
            <Time>2020-04-26T16:53:47.000Z</Time>
            <Position>
              <LatitudeDegrees>38.5489200241863727569580078125</LatitudeDegrees>
              <LongitudeDegrees>-28.628262542188167572021484375</LongitudeDegrees>
            </Position>
            <AltitudeMeters>107.59999847412109375</AltitudeMeters>
            <DistanceMeters>9682.5415320196</DistanceMeters>
          </Trackpoint>
          <Trackpoint>
            <Time>2020-04-26T16:53:50.000Z</Time>
            <Position>
              <LatitudeDegrees>38.54889613576233386993408203125</LatitudeDegrees>
              <LongitudeDegrees>-28.62804670818150043487548828125</LongitudeDegrees>
            </Position>
            <AltitudeMeters>108</AltitudeMeters>
            <DistanceMeters>9701.5164419792</DistanceMeters>
          </Trackpoint>
          <Trackpoint>
            <Time>2020-04-26T16:53:51.000Z</Time>
            <Position>
              <LatitudeDegrees>38.54888255707919597625732421875</LatitudeDegrees>
              <LongitudeDegrees>-28.6279716901481151580810546875</LongitudeDegrees>
            </Position>
            <AltitudeMeters>108.1999969482421875</AltitudeMeters>
            <DistanceMeters>9708.219699425</DistanceMeters>
          </Trackpoint>
          <Trackpoint>
            <Time>2020-04-26T16:53:52.000Z</Time>
            <Position>
              <LatitudeDegrees>38.54885355569422245025634765625</LatitudeDegrees>
              <LongitudeDegrees>-28.62790019251406192779541015625</LongitudeDegrees>
            </Position>
            <AltitudeMeters>108.59999847412109375</AltitudeMeters>
            <DistanceMeters>9715.2298118355</DistanceMeters>
          </Trackpoint>
          <Trackpoint>
            <Time>2020-04-26T16:53:54.000Z</Time>
            <Position>
              <LatitudeDegrees>38.54879982769489288330078125</LatitudeDegrees>
              <LongitudeDegrees>-28.62775526940822601318359375</LongitudeDegrees>
            </Position>
            <AltitudeMeters>109.59999847412109375</AltitudeMeters>
            <DistanceMeters>9729.1906560065</DistanceMeters>
          </Trackpoint>
          <Trackpoint>
            <Time>2020-04-26T16:53:55.000Z</Time>
            <Position>
              <LatitudeDegrees>38.54877677746117115020751953125</LatitudeDegrees>
              <LongitudeDegrees>-28.62767958082258701324462890625</LongitudeDegrees>
            </Position>
            <AltitudeMeters>110</AltitudeMeters>
            <DistanceMeters>9736.2610522609</DistanceMeters>
          </Trackpoint>
          <Trackpoint>
            <Time>2020-04-26T16:53:57.000Z</Time>
            <Position>
              <LatitudeDegrees>38.5487181879580020904541015625</LatitudeDegrees>
              <LongitudeDegrees>-28.6275328136980533599853515625</LongitudeDegrees>
            </Position>
            <AltitudeMeters>110.8000030517578125</AltitudeMeters>
            <DistanceMeters>9750.6047359474</DistanceMeters>
          </Trackpoint>
          <Trackpoint>
            <Time>2020-04-26T16:53:59.000Z</Time>
            <Position>
              <LatitudeDegrees>38.548664040863513946533203125</LatitudeDegrees>
              <LongitudeDegrees>-28.62739291973412036895751953125</LongitudeDegrees>
            </Position>
            <AltitudeMeters>111.40000152587890625</AltitudeMeters>
            <DistanceMeters>9764.1918946946</DistanceMeters>
          </Trackpoint>
          <Trackpoint>
            <Time>2020-04-26T16:54:00.000Z</Time>
            <Position>
              <LatitudeDegrees>38.5486367158591747283935546875</LatitudeDegrees>
              <LongitudeDegrees>-28.6273256130516529083251953125</LongitudeDegrees>
            </Position>
            <AltitudeMeters>112</AltitudeMeters>
            <DistanceMeters>9770.7933452108</DistanceMeters>
          </Trackpoint>
          <Trackpoint>
            <Time>2020-04-26T16:54:03.000Z</Time>
            <Position>
              <LatitudeDegrees>38.54856287129223346710205078125</LatitudeDegrees>
              <LongitudeDegrees>-28.62713408656418323516845703125</LongitudeDegrees>
            </Position>
            <AltitudeMeters>113.1999969482421875</AltitudeMeters>
            <DistanceMeters>9789.3812118151</DistanceMeters>
          </Trackpoint>
          <Trackpoint>
            <Time>2020-04-26T16:54:07.000Z</Time>
            <Position>
              <LatitudeDegrees>38.548464216291904449462890625</LatitudeDegrees>
              <LongitudeDegrees>-28.626883216202259063720703125</LongitudeDegrees>
            </Position>
            <AltitudeMeters>114.40000152587890625</AltitudeMeters>
            <DistanceMeters>9813.8239595675</DistanceMeters>
          </Trackpoint>
          <Trackpoint>
            <Time>2020-04-26T16:54:08.000Z</Time>
            <Position>
              <LatitudeDegrees>38.5484397411346435546875</LatitudeDegrees>
              <LongitudeDegrees>-28.62682295031845569610595703125</LongitudeDegrees>
            </Position>
            <AltitudeMeters>114.8000030517578125</AltitudeMeters>
            <DistanceMeters>9819.7355072361</DistanceMeters>
          </Trackpoint>
          <Trackpoint>
            <Time>2020-04-26T16:54:13.000Z</Time>
            <Position>
              <LatitudeDegrees>38.5483218915760517120361328125</LatitudeDegrees>
              <LongitudeDegrees>-28.6265236325562000274658203125</LongitudeDegrees>
            </Position>
            <AltitudeMeters>115.40000152587890625</AltitudeMeters>
            <DistanceMeters>9848.9057678334</DistanceMeters>
          </Trackpoint>
          <Trackpoint>
            <Time>2020-04-26T16:54:16.000Z</Time>
            <Position>
              <LatitudeDegrees>38.54825693182647228240966796875</LatitudeDegrees>
              <LongitudeDegrees>-28.6263489536941051483154296875</LongitudeDegrees>
            </Position>
            <AltitudeMeters>116.59999847412109375</AltitudeMeters>
            <DistanceMeters>9865.7426674828</DistanceMeters>
          </Trackpoint>
          <Trackpoint>
            <Time>2020-04-26T16:54:18.000Z</Time>
            <Position>
              <LatitudeDegrees>38.54822826571762561798095703125</LatitudeDegrees>
              <LongitudeDegrees>-28.62623973749577999114990234375</LongitudeDegrees>
            </Position>
            <AltitudeMeters>117</AltitudeMeters>
            <DistanceMeters>9875.7710253422</DistanceMeters>
          </Trackpoint>
          <Trackpoint>
            <Time>2020-04-26T16:54:20.000Z</Time>
            <Position>
              <LatitudeDegrees>38.54821032844483852386474609375</LatitudeDegrees>
              <LongitudeDegrees>-28.62613395787775516510009765625</LongitudeDegrees>
            </Position>
            <AltitudeMeters>117.40000152587890625</AltitudeMeters>
            <DistanceMeters>9885.193057051</DistanceMeters>
          </Trackpoint>
          <Trackpoint>
            <Time>2020-04-26T16:54:21.000Z</Time>
            <Position>
              <LatitudeDegrees>38.54820814915001392364501953125</LatitudeDegrees>
              <LongitudeDegrees>-28.626079224050045013427734375</LongitudeDegrees>
            </Position>
            <AltitudeMeters>117.59999847412109375</AltitudeMeters>
            <DistanceMeters>9889.9643066478</DistanceMeters>
          </Trackpoint>
          <Trackpoint>
            <Time>2020-04-26T16:54:24.000Z</Time>
            <Position>
              <LatitudeDegrees>38.54822239838540554046630859375</LatitudeDegrees>
              <LongitudeDegrees>-28.6259268410503864288330078125</LongitudeDegrees>
            </Position>
            <AltitudeMeters>118.59999847412109375</AltitudeMeters>
            <DistanceMeters>9903.3235892198</DistanceMeters>
          </Trackpoint>
          <Trackpoint>
            <Time>2020-04-26T16:54:26.000Z</Time>
            <Position>
              <LatitudeDegrees>38.5482488013803958892822265625</LatitudeDegrees>
              <LongitudeDegrees>-28.62582399509847164154052734375</LongitudeDegrees>
            </Position>
            <AltitudeMeters>119.40000152587890625</AltitudeMeters>
            <DistanceMeters>9912.7465792799</DistanceMeters>
          </Trackpoint>
          <Trackpoint>
            <Time>2020-04-26T16:54:27.000Z</Time>
            <Position>
              <LatitudeDegrees>38.54825777001678943634033203125</LatitudeDegrees>
              <LongitudeDegrees>-28.62577621825039386749267578125</LongitudeDegrees>
            </Position>
            <AltitudeMeters>119.8000030517578125</AltitudeMeters>
            <DistanceMeters>9917.0238371486</DistanceMeters>
          </Trackpoint>
          <Trackpoint>
            <Time>2020-04-26T16:54:28.000Z</Time>
            <Position>
              <LatitudeDegrees>38.54827336035668849945068359375</LatitudeDegrees>
              <LongitudeDegrees>-28.6257303692400455474853515625</LongitudeDegrees>
            </Position>
            <AltitudeMeters>120</AltitudeMeters>
            <DistanceMeters>9921.3764341182</DistanceMeters>
          </Trackpoint>
          <Trackpoint>
            <Time>2020-04-26T16:54:30.000Z</Time>
            <Position>
              <LatitudeDegrees>38.5483182035386562347412109375</LatitudeDegrees>
              <LongitudeDegrees>-28.6256418563425540924072265625</LongitudeDegrees>
            </Position>
            <AltitudeMeters>120.59999847412109375</AltitudeMeters>
            <DistanceMeters>9930.5562311407</DistanceMeters>
          </Trackpoint>
          <Trackpoint>
            <Time>2020-04-26T16:54:31.000Z</Time>
            <Position>
              <LatitudeDegrees>38.54834343306720256805419921875</LatitudeDegrees>
              <LongitudeDegrees>-28.6255972646176815032958984375</LongitudeDegrees>
            </Position>
            <AltitudeMeters>120.8000030517578125</AltitudeMeters>
            <DistanceMeters>9935.3473118456</DistanceMeters>
          </Trackpoint>
          <Trackpoint>
            <Time>2020-04-26T16:54:34.000Z</Time>
            <Position>
              <LatitudeDegrees>38.548431694507598876953125</LatitudeDegrees>
              <LongitudeDegrees>-28.62547807395458221435546875</LongitudeDegrees>
            </Position>
            <AltitudeMeters>122.1999969482421875</AltitudeMeters>
            <DistanceMeters>9949.6348556545</DistanceMeters>
          </Trackpoint>
          <Trackpoint>
            <Time>2020-04-26T16:54:36.000Z</Time>
            <Position>
              <LatitudeDegrees>38.548505790531635284423828125</LatitudeDegrees>
              <LongitudeDegrees>-28.62541914917528629302978515625</LongitudeDegrees>
            </Position>
            <AltitudeMeters>123</AltitudeMeters>
            <DistanceMeters>9959.3461953345</DistanceMeters>
          </Trackpoint>
          <Trackpoint>
            <Time>2020-04-26T16:54:37.000Z</Time>
            <Position>
              <LatitudeDegrees>38.5485404916107654571533203125</LatitudeDegrees>
              <LongitudeDegrees>-28.62538763321936130523681640625</LongitudeDegrees>
            </Position>
            <AltitudeMeters>123.1999969482421875</AltitudeMeters>
            <DistanceMeters>9964.0842086355</DistanceMeters>
          </Trackpoint>
          <Trackpoint>
            <Time>2020-04-26T16:54:38.000Z</Time>
            <Position>
              <LatitudeDegrees>38.54858231730759143829345703125</LatitudeDegrees>
              <LongitudeDegrees>-28.6253706179559230804443359375</LongitudeDegrees>
            </Position>
            <AltitudeMeters>123.1999969482421875</AltitudeMeters>
            <DistanceMeters>9968.9704671343</DistanceMeters>
          </Trackpoint>
          <Trackpoint>
            <Time>2020-04-26T16:54:42.000Z</Time>
            <Position>
              <LatitudeDegrees>38.54874626733362674713134765625</LatitudeDegrees>
              <LongitudeDegrees>-28.625292666256427764892578125</LongitudeDegrees>
            </Position>
            <AltitudeMeters>123.40000152587890625</AltitudeMeters>
            <DistanceMeters>9988.4393515075</DistanceMeters>
          </Trackpoint>
          <Trackpoint>
            <Time>2020-04-26T16:54:46.000Z</Time>
            <Position>
              <LatitudeDegrees>38.54890770278871059417724609375</LatitudeDegrees>
              <LongitudeDegrees>-28.62520356662571430206298828125</LongitudeDegrees>
            </Position>
            <AltitudeMeters>124.59999847412109375</AltitudeMeters>
            <DistanceMeters>10008.009549059</DistanceMeters>
          </Trackpoint>
          <Trackpoint>
            <Time>2020-04-26T16:54:50.000Z</Time>
            <Position>
              <LatitudeDegrees>38.54903812520205974578857421875</LatitudeDegrees>
              <LongitudeDegrees>-28.62507616169750690460205078125</LongitudeDegrees>
            </Position>
            <AltitudeMeters>125.59999847412109375</AltitudeMeters>
            <DistanceMeters>10026.27718369</DistanceMeters>
          </Trackpoint>
          <Trackpoint>
            <Time>2020-04-26T16:54:53.000Z</Time>
            <Position>
              <LatitudeDegrees>38.54911188594996929168701171875</LatitudeDegrees>
              <LongitudeDegrees>-28.62494875676929950714111328125</LongitudeDegrees>
            </Position>
            <AltitudeMeters>126.40000152587890625</AltitudeMeters>
            <DistanceMeters>10040.07537675</DistanceMeters>
          </Trackpoint>
          <Trackpoint>
            <Time>2020-04-26T16:54:55.000Z</Time>
            <Position>
              <LatitudeDegrees>38.549150861799716949462890625</LatitudeDegrees>
              <LongitudeDegrees>-28.6248551309108734130859375</LongitudeDegrees>
            </Position>
            <AltitudeMeters>126.59999847412109375</AltitudeMeters>
            <DistanceMeters>10049.308140239</DistanceMeters>
          </Trackpoint>
          <Trackpoint>
            <Time>2020-04-26T16:54:58.000Z</Time>
            <Position>
              <LatitudeDegrees>38.54918866418302059173583984375</LatitudeDegrees>
              <LongitudeDegrees>-28.62470618449151515960693359375</LongitudeDegrees>
            </Position>
            <AltitudeMeters>127.1999969482421875</AltitudeMeters>
            <DistanceMeters>10062.938761018</DistanceMeters>
          </Trackpoint>
          <Trackpoint>
            <Time>2020-04-26T16:55:01.000Z</Time>
            <Position>
              <LatitudeDegrees>38.54918204247951507568359375</LatitudeDegrees>
              <LongitudeDegrees>-28.62455111928284168243408203125</LongitudeDegrees>
            </Position>
            <AltitudeMeters>127.8000030517578125</AltitudeMeters>
            <DistanceMeters>10076.456624271</DistanceMeters>
          </Trackpoint>
          <Trackpoint>
            <Time>2020-04-26T16:55:05.000Z</Time>
            <Position>
              <LatitudeDegrees>38.549150861799716949462890625</LatitudeDegrees>
              <LongitudeDegrees>-28.62433620728552341461181640625</LongitudeDegrees>
            </Position>
            <AltitudeMeters>128.8000030517578125</AltitudeMeters>
            <DistanceMeters>10095.483098841</DistanceMeters>
          </Trackpoint>
          <Trackpoint>
            <Time>2020-04-26T16:55:07.000Z</Time>
            <Position>
              <LatitudeDegrees>38.5491245426237583160400390625</LatitudeDegrees>
              <LongitudeDegrees>-28.62422774545848369598388671875</LongitudeDegrees>
            </Position>
            <AltitudeMeters>129.399993896484375</AltitudeMeters>
            <DistanceMeters>10105.368617911</DistanceMeters>
          </Trackpoint>
          <Trackpoint>
            <Time>2020-04-26T16:55:09.000Z</Time>
            <Position>
              <LatitudeDegrees>38.54909646324813365936279296875</LatitudeDegrees>
              <LongitudeDegrees>-28.62412196584045886993408203125</LongitudeDegrees>
            </Position>
            <AltitudeMeters>129.8000030517578125</AltitudeMeters>
            <DistanceMeters>10115.092966759</DistanceMeters>
          </Trackpoint>
          <Trackpoint>
            <Time>2020-04-26T16:55:11.000Z</Time>
            <Position>
              <LatitudeDegrees>38.54905019514262676239013671875</LatitudeDegrees>
              <LongitudeDegrees>-28.6240275017917156219482421875</LongitudeDegrees>
            </Position>
            <AltitudeMeters>130.1999969482421875</AltitudeMeters>
            <DistanceMeters>10124.795468855</DistanceMeters>
          </Trackpoint>
          <Trackpoint>
            <Time>2020-04-26T16:55:12.000Z</Time>
            <Position>
              <LatitudeDegrees>38.54903049767017364501953125</LatitudeDegrees>
              <LongitudeDegrees>-28.6239753663539886474609375</LongitudeDegrees>
            </Position>
            <AltitudeMeters>130.600006103515625</AltitudeMeters>
            <DistanceMeters>10129.836365116</DistanceMeters>
          </Trackpoint>
          <Trackpoint>
            <Time>2020-04-26T16:55:14.000Z</Time>
            <Position>
              <LatitudeDegrees>38.54899604804813861846923828125</LatitudeDegrees>
              <LongitudeDegrees>-28.62387738190591335296630859375</LongitudeDegrees>
            </Position>
            <AltitudeMeters>131</AltitudeMeters>
            <DistanceMeters>10139.187689102</DistanceMeters>
          </Trackpoint>
          <Trackpoint>
            <Time>2020-04-26T16:55:21.000Z</Time>
            <Position>
              <LatitudeDegrees>38.5488754324615001678466796875</LatitudeDegrees>
              <LongitudeDegrees>-28.62352467142045497894287109375</LongitudeDegrees>
            </Position>
            <AltitudeMeters>132.1999969482421875</AltitudeMeters>
            <DistanceMeters>10172.696701106</DistanceMeters>
          </Trackpoint>
          <Trackpoint>
            <Time>2020-04-26T16:55:26.000Z</Time>
            <Position>
              <LatitudeDegrees>38.54878733865916728973388671875</LatitudeDegrees>
              <LongitudeDegrees>-28.62327723763883113861083984375</LongitudeDegrees>
            </Position>
            <AltitudeMeters>133.399993896484375</AltitudeMeters>
            <DistanceMeters>10196.361978224</DistanceMeters>
          </Trackpoint>
          <Trackpoint>
            <Time>2020-04-26T16:55:31.000Z</Time>
            <Position>
              <LatitudeDegrees>38.54869664646685123443603515625</LatitudeDegrees>
              <LongitudeDegrees>-28.62301957793533802032470703125</LongitudeDegrees>
            </Position>
            <AltitudeMeters>134.600006103515625</AltitudeMeters>
            <DistanceMeters>10220.957564843</DistanceMeters>
          </Trackpoint>
          <Trackpoint>
            <Time>2020-04-26T16:55:32.000Z</Time>
            <Position>
              <LatitudeDegrees>38.548680134117603302001953125</LatitudeDegrees>
              <LongitudeDegrees>-28.622969202697277069091796875</LongitudeDegrees>
            </Position>
            <AltitudeMeters>134.8000030517578125</AltitudeMeters>
            <DistanceMeters>10225.710800715</DistanceMeters>
          </Trackpoint>
          <Trackpoint>
            <Time>2020-04-26T16:55:35.000Z</Time>
            <Position>
              <LatitudeDegrees>38.54862707667052745819091796875</LatitudeDegrees>
              <LongitudeDegrees>-28.6228195019066333770751953125</LongitudeDegrees>
            </Position>
            <AltitudeMeters>136</AltitudeMeters>
            <DistanceMeters>10240.017292692</DistanceMeters>
          </Trackpoint>
          <Trackpoint>
            <Time>2020-04-26T16:55:41.000Z</Time>
            <Position>
              <LatitudeDegrees>38.54852330870926380157470703125</LatitudeDegrees>
              <LongitudeDegrees>-28.62251599319279193878173828125</LongitudeDegrees>
            </Position>
            <AltitudeMeters>137</AltitudeMeters>
            <DistanceMeters>10268.851128859</DistanceMeters>
          </Trackpoint>
          <Trackpoint>
            <Time>2020-04-26T16:55:42.000Z</Time>
            <Position>
              <LatitudeDegrees>38.54850637726485729217529296875</LatitudeDegrees>
              <LongitudeDegrees>-28.6224677972495555877685546875</LongitudeDegrees>
            </Position>
            <AltitudeMeters>137.1999969482421875</AltitudeMeters>
            <DistanceMeters>10273.450853754</DistanceMeters>
          </Trackpoint>
          <Trackpoint>
            <Time>2020-04-26T16:55:45.000Z</Time>
            <Position>
              <LatitudeDegrees>38.548468239605426788330078125</LatitudeDegrees>
              <LongitudeDegrees>-28.6223196052014827728271484375</LongitudeDegrees>
            </Position>
            <AltitudeMeters>138</AltitudeMeters>
            <DistanceMeters>10287.031364838</DistanceMeters>
          </Trackpoint>
          <Trackpoint>
            <Time>2020-04-26T16:55:46.000Z</Time>
            <Position>
              <LatitudeDegrees>38.54846052825450897216796875</LatitudeDegrees>
              <LongitudeDegrees>-28.62226688303053379058837890625</LongitudeDegrees>
            </Position>
            <AltitudeMeters>138.1999969482421875</AltitudeMeters>
            <DistanceMeters>10291.700262409</DistanceMeters>
          </Trackpoint>
          <Trackpoint>
            <Time>2020-04-26T16:55:50.000Z</Time>
            <Position>
              <LatitudeDegrees>38.54844368062913417816162109375</LatitudeDegrees>
              <LongitudeDegrees>-28.6220483668148517608642578125</LongitudeDegrees>
            </Position>
            <AltitudeMeters>139.1999969482421875</AltitudeMeters>
            <DistanceMeters>10310.813864966</DistanceMeters>
          </Trackpoint>
          <Trackpoint>
            <Time>2020-04-26T16:55:56.000Z</Time>
            <Position>
              <LatitudeDegrees>38.54845591820776462554931640625</LatitudeDegrees>
              <LongitudeDegrees>-28.6217187903821468353271484375</LongitudeDegrees>
            </Position>
            <AltitudeMeters>140.1999969482421875</AltitudeMeters>
            <DistanceMeters>10339.534893554</DistanceMeters>
          </Trackpoint>
          <Trackpoint>
            <Time>2020-04-26T16:55:59.000Z</Time>
            <Position>
              <LatitudeDegrees>38.5484714247286319732666015625</LatitudeDegrees>
              <LongitudeDegrees>-28.62154771573841571807861328125</LongitudeDegrees>
            </Position>
            <AltitudeMeters>141</AltitudeMeters>
            <DistanceMeters>10354.526242477</DistanceMeters>
          </Trackpoint>
          <Trackpoint>
            <Time>2020-04-26T16:56:01.000Z</Time>
            <Position>
              <LatitudeDegrees>38.5484771244227886199951171875</LatitudeDegrees>
              <LongitudeDegrees>-28.6214321292936801910400390625</LongitudeDegrees>
            </Position>
            <AltitudeMeters>141.600006103515625</AltitudeMeters>
            <DistanceMeters>10364.608034999</DistanceMeters>
          </Trackpoint>
          <Trackpoint>
            <Time>2020-04-26T16:56:05.000Z</Time>
            <Position>
              <LatitudeDegrees>38.54849212802946567535400390625</LatitudeDegrees>
              <LongitudeDegrees>-28.62120925448834896087646484375</LongitudeDegrees>
            </Position>
            <AltitudeMeters>142.600006103515625</AltitudeMeters>
            <DistanceMeters>10384.080397719</DistanceMeters>
          </Trackpoint>
          <Trackpoint>
            <Time>2020-04-26T16:56:09.000Z</Time>
            <Position>
              <LatitudeDegrees>38.548512496054172515869140625</LatitudeDegrees>
              <LongitudeDegrees>-28.6209875531494617462158203125</LongitudeDegrees>
            </Position>
            <AltitudeMeters>143</AltitudeMeters>
            <DistanceMeters>10403.511676276</DistanceMeters>
          </Trackpoint>
          <Trackpoint>
            <Time>2020-04-26T16:56:13.000Z</Time>
            <Position>
              <LatitudeDegrees>38.54854233562946319580078125</LatitudeDegrees>
              <LongitudeDegrees>-28.62077138386666774749755859375</LongitudeDegrees>
            </Position>
            <AltitudeMeters>143.8000030517578125</AltitudeMeters>
            <DistanceMeters>10422.61937239</DistanceMeters>
          </Trackpoint>
          <Trackpoint>
            <Time>2020-04-26T16:56:16.000Z</Time>
            <Position>
              <LatitudeDegrees>38.5485793836414813995361328125</LatitudeDegrees>
              <LongitudeDegrees>-28.6206180788576602935791015625</LongitudeDegrees>
            </Position>
            <AltitudeMeters>144.8000030517578125</AltitudeMeters>
            <DistanceMeters>10436.586683208</DistanceMeters>
          </Trackpoint>
          <Trackpoint>
            <Time>2020-04-26T16:56:17.000Z</Time>
            <Position>
              <LatitudeDegrees>38.5485931299626827239990234375</LatitudeDegrees>
              <LongitudeDegrees>-28.62057021819055080413818359375</LongitudeDegrees>
            </Position>
            <AltitudeMeters>145</AltitudeMeters>
            <DistanceMeters>10441.024542683</DistanceMeters>
          </Trackpoint>
          <Trackpoint>
            <Time>2020-04-26T16:56:20.000Z</Time>
            <Position>
              <LatitudeDegrees>38.5486342012882232666015625</LatitudeDegrees>
              <LongitudeDegrees>-28.62041917629539966583251953125</LongitudeDegrees>
            </Position>
            <AltitudeMeters>145.8000030517578125</AltitudeMeters>
            <DistanceMeters>10454.944577896</DistanceMeters>
          </Trackpoint>
          <Trackpoint>
            <Time>2020-04-26T16:56:22.000Z</Time>
            <Position>
              <LatitudeDegrees>38.54865523986518383026123046875</LatitudeDegrees>
              <LongitudeDegrees>-28.62031758762896060943603515625</LongitudeDegrees>
            </Position>
            <AltitudeMeters>147.600006103515625</AltitudeMeters>
            <DistanceMeters>10464.091855542</DistanceMeters>
          </Trackpoint>
          <Trackpoint>
            <Time>2020-04-26T16:56:24.000Z</Time>
            <Position>
              <LatitudeDegrees>38.5486690700054168701171875</LatitudeDegrees>
              <LongitudeDegrees>-28.62020761705935001373291015625</LongitudeDegrees>
            </Position>
            <AltitudeMeters>148.399993896484375</AltitudeMeters>
            <DistanceMeters>10473.787374909</DistanceMeters>
          </Trackpoint>
          <Trackpoint>
            <Time>2020-04-26T16:56:25.000Z</Time>
            <Position>
              <LatitudeDegrees>38.5486796312034130096435546875</LatitudeDegrees>
              <LongitudeDegrees>-28.6201550625264644622802734375</LongitudeDegrees>
            </Position>
            <AltitudeMeters>148.600006103515625</AltitudeMeters>
            <DistanceMeters>10478.511072495</DistanceMeters>
          </Trackpoint>
          <Trackpoint>
            <Time>2020-04-26T16:56:26.000Z</Time>
            <Position>
              <LatitudeDegrees>38.5486953891813755035400390625</LatitudeDegrees>
              <LongitudeDegrees>-28.62010552547872066497802734375</LongitudeDegrees>
            </Position>
            <AltitudeMeters>148.8000030517578125</AltitudeMeters>
            <DistanceMeters>10483.166411738</DistanceMeters>
          </Trackpoint>
          <Trackpoint>
            <Time>2020-04-26T16:56:28.000Z</Time>
            <Position>
              <LatitudeDegrees>38.54874911718070507049560546875</LatitudeDegrees>
              <LongitudeDegrees>-28.6200244724750518798828125</LongitudeDegrees>
            </Position>
            <AltitudeMeters>149.399993896484375</AltitudeMeters>
            <DistanceMeters>10492.414810739</DistanceMeters>
          </Trackpoint>
          <Trackpoint>
            <Time>2020-04-26T16:56:29.000Z</Time>
            <Position>
              <LatitudeDegrees>38.54879236780107021331787109375</LatitudeDegrees>
              <LongitudeDegrees>-28.6200244724750518798828125</LongitudeDegrees>
            </Position>
            <AltitudeMeters>149.399993896484375</AltitudeMeters>
            <DistanceMeters>10497.228455528</DistanceMeters>
          </Trackpoint>
          <Trackpoint>
            <Time>2020-04-26T16:56:33.000Z</Time>
            <Position>
              <LatitudeDegrees>38.549013398587703704833984375</LatitudeDegrees>
              <LongitudeDegrees>-28.6200011707842350006103515625</LongitudeDegrees>
            </Position>
            <AltitudeMeters>148.1999969482421875</AltitudeMeters>
            <DistanceMeters>10521.913279375</DistanceMeters>
          </Trackpoint>
          <Trackpoint>
            <Time>2020-04-26T16:56:40.000Z</Time>
            <Position>
              <LatitudeDegrees>38.54944447986781597137451171875</LatitudeDegrees>
              <LongitudeDegrees>-28.61988508142530918121337890625</LongitudeDegrees>
            </Position>
            <AltitudeMeters>148.1999969482421875</AltitudeMeters>
            <DistanceMeters>10570.945959016</DistanceMeters>
          </Trackpoint>
          <Trackpoint>
            <Time>2020-04-26T16:56:47.000Z</Time>
            <Position>
              <LatitudeDegrees>38.5499312169849872589111328125</LatitudeDegrees>
              <LongitudeDegrees>-28.61976320855319499969482421875</LongitudeDegrees>
            </Position>
            <AltitudeMeters>147.600006103515625</AltitudeMeters>
            <DistanceMeters>10626.149692025</DistanceMeters>
          </Trackpoint>
          <Trackpoint>
            <Time>2020-04-26T16:56:49.000Z</Time>
            <Position>
              <LatitudeDegrees>38.55008854530751705169677734375</LatitudeDegrees>
              <LongitudeDegrees>-28.61977410502731800079345703125</LongitudeDegrees>
            </Position>
            <AltitudeMeters>147.600006103515625</AltitudeMeters>
            <DistanceMeters>10643.686176376</DistanceMeters>
          </Trackpoint>
          <Trackpoint>
            <Time>2020-04-26T16:56:51.000Z</Time>
            <Position>
              <LatitudeDegrees>38.55024796910583972930908203125</LatitudeDegrees>
              <LongitudeDegrees>-28.61981601454317569732666015625</LongitudeDegrees>
            </Position>
            <AltitudeMeters>146.8000030517578125</AltitudeMeters>
            <DistanceMeters>10661.801668037</DistanceMeters>
          </Trackpoint>
          <Trackpoint>
            <Time>2020-04-26T16:56:52.000Z</Time>
            <Position>
              <LatitudeDegrees>38.5503288544714450836181640625</LatitudeDegrees>
              <LongitudeDegrees>-28.61985540948808193206787109375</LongitudeDegrees>
            </Position>
            <AltitudeMeters>146.1999969482421875</AltitudeMeters>
            <DistanceMeters>10671.435521144</DistanceMeters>
          </Trackpoint>
          <Trackpoint>
            <Time>2020-04-26T16:56:55.000Z</Time>
            <Position>
              <LatitudeDegrees>38.5505561716854572296142578125</LatitudeDegrees>
              <LongitudeDegrees>-28.62003142945468425750732421875</LongitudeDegrees>
            </Position>
            <AltitudeMeters>146.399993896484375</AltitudeMeters>
            <DistanceMeters>10701.014026623</DistanceMeters>
          </Trackpoint>
          <Trackpoint>
            <Time>2020-04-26T16:56:57.000Z</Time>
            <Position>
              <LatitudeDegrees>38.5506906174123287200927734375</LatitudeDegrees>
              <LongitudeDegrees>-28.62019755877554416656494140625</LongitudeDegrees>
            </Position>
            <AltitudeMeters>145</AltitudeMeters>
            <DistanceMeters>10721.823358323</DistanceMeters>
          </Trackpoint>
          <Trackpoint>
            <Time>2020-04-26T16:56:59.000Z</Time>
            <Position>
              <LatitudeDegrees>38.550813831388950347900390625</LatitudeDegrees>
              <LongitudeDegrees>-28.62038548104465007781982421875</LongitudeDegrees>
            </Position>
            <AltitudeMeters>143.600006103515625</AltitudeMeters>
            <DistanceMeters>10743.169074455</DistanceMeters>
          </Trackpoint>
          <Trackpoint>
            <Time>2020-04-26T16:57:00.000Z</Time>
            <Position>
              <LatitudeDegrees>38.55087158270180225372314453125</LatitudeDegrees>
              <LongitudeDegrees>-28.62048706971108913421630859375</LongitudeDegrees>
            </Position>
            <AltitudeMeters>143.1999969482421875</AltitudeMeters>
            <DistanceMeters>10754.100864412</DistanceMeters>
          </Trackpoint>
          <Trackpoint>
            <Time>2020-04-26T16:57:01.000Z</Time>
            <Position>
              <LatitudeDegrees>38.550929166376590728759765625</LatitudeDegrees>
              <LongitudeDegrees>-28.62059108912944793701171875</LongitudeDegrees>
            </Position>
            <AltitudeMeters>142.1999969482421875</AltitudeMeters>
            <DistanceMeters>10765.194190414</DistanceMeters>
          </Trackpoint>
          <Trackpoint>
            <Time>2020-04-26T16:57:06.000Z</Time>
            <Position>
              <LatitudeDegrees>38.55122144334018230438232421875</LatitudeDegrees>
              <LongitudeDegrees>-28.6211283691227436065673828125</LongitudeDegrees>
            </Position>
            <AltitudeMeters>141.1999969482421875</AltitudeMeters>
            <DistanceMeters>10822.162844375</DistanceMeters>
          </Trackpoint>
          <Trackpoint>
            <Time>2020-04-26T16:57:09.000Z</Time>
            <Position>
              <LatitudeDegrees>38.55140148662030696868896484375</LatitudeDegrees>
              <LongitudeDegrees>-28.6214609630405902862548828125</LongitudeDegrees>
            </Position>
            <AltitudeMeters>139.8000030517578125</AltitudeMeters>
            <DistanceMeters>10857.372005321</DistanceMeters>
          </Trackpoint>
          <Trackpoint>
            <Time>2020-04-26T16:57:10.000Z</Time>
            <Position>
              <LatitudeDegrees>38.551462255418300628662109375</LatitudeDegrees>
              <LongitudeDegrees>-28.62156967632472515106201171875</LongitudeDegrees>
            </Position>
            <AltitudeMeters>138.600006103515625</AltitudeMeters>
            <DistanceMeters>10869.003368323</DistanceMeters>
          </Trackpoint>
          <Trackpoint>
            <Time>2020-04-26T16:57:13.000Z</Time>
            <Position>
              <LatitudeDegrees>38.551642633974552154541015625</LatitudeDegrees>
              <LongitudeDegrees>-28.6219065450131893157958984375</LongitudeDegrees>
            </Position>
            <AltitudeMeters>137.399993896484375</AltitudeMeters>
            <DistanceMeters>10904.540056276</DistanceMeters>
          </Trackpoint>
          <Trackpoint>
            <Time>2020-04-26T16:57:16.000Z</Time>
            <Position>
              <LatitudeDegrees>38.55179543606936931610107421875</LatitudeDegrees>
              <LongitudeDegrees>-28.62226218916475772857666015625</LongitudeDegrees>
            </Position>
            <AltitudeMeters>136.1999969482421875</AltitudeMeters>
            <DistanceMeters>10939.860733097</DistanceMeters>
          </Trackpoint>
          <Trackpoint>
            <Time>2020-04-26T16:57:17.000Z</Time>
            <Position>
              <LatitudeDegrees>38.55183541774749755859375</LatitudeDegrees>
              <LongitudeDegrees>-28.62239043228328227996826171875</LongitudeDegrees>
            </Position>
            <AltitudeMeters>136.1999969482421875</AltitudeMeters>
            <DistanceMeters>10951.877761952</DistanceMeters>
          </Trackpoint>
          <Trackpoint>
            <Time>2020-04-26T16:57:22.000Z</Time>
            <Position>
              <LatitudeDegrees>38.5520347394049167633056640625</LatitudeDegrees>
              <LongitudeDegrees>-28.6230582185089588165283203125</LongitudeDegrees>
            </Position>
            <AltitudeMeters>134.600006103515625</AltitudeMeters>
            <DistanceMeters>11014.093632181</DistanceMeters>
          </Trackpoint>
          <Trackpoint>
            <Time>2020-04-26T16:57:24.000Z</Time>
            <Position>
              <LatitudeDegrees>38.55211579240858554840087890625</LatitudeDegrees>
              <LongitudeDegrees>-28.62332585267722606658935546875</LongitudeDegrees>
            </Position>
            <AltitudeMeters>134.1999969482421875</AltitudeMeters>
            <DistanceMeters>11039.074996896</DistanceMeters>
          </Trackpoint>
          <Trackpoint>
            <Time>2020-04-26T16:57:28.000Z</Time>
            <Position>
              <LatitudeDegrees>38.55232751928269863128662109375</LatitudeDegrees>
              <LongitudeDegrees>-28.623829185962677001953125</LongitudeDegrees>
            </Position>
            <AltitudeMeters>133.399993896484375</AltitudeMeters>
            <DistanceMeters>11088.822185262</DistanceMeters>
          </Trackpoint>
          <Trackpoint>
            <Time>2020-04-26T16:57:31.000Z</Time>
            <Position>
              <LatitudeDegrees>38.5525041259825229644775390625</LatitudeDegrees>
              <LongitudeDegrees>-28.6241994984447956085205078125</LongitudeDegrees>
            </Position>
            <AltitudeMeters>132.399993896484375</AltitudeMeters>
            <DistanceMeters>11126.575905426</DistanceMeters>
          </Trackpoint>
          <Trackpoint>
            <Time>2020-04-26T16:57:35.000Z</Time>
            <Position>
              <LatitudeDegrees>38.5527398250997066497802734375</LatitudeDegrees>
              <LongitudeDegrees>-28.62469193525612354278564453125</LongitudeDegrees>
            </Position>
            <AltitudeMeters>131.1999969482421875</AltitudeMeters>
            <DistanceMeters>11176.82949653</DistanceMeters>
          </Trackpoint>
          <Trackpoint>
            <Time>2020-04-26T16:57:36.000Z</Time>
            <Position>
              <LatitudeDegrees>38.5527961514890193939208984375</LatitudeDegrees>
              <LongitudeDegrees>-28.62481581978499889373779296875</LongitudeDegrees>
            </Position>
            <AltitudeMeters>130.8000030517578125</AltitudeMeters>
            <DistanceMeters>11189.302997127</DistanceMeters>
          </Trackpoint>
          <Trackpoint>
            <Time>2020-04-26T16:57:37.000Z</Time>
            <Position>
              <LatitudeDegrees>38.55285189114511013031005859375</LatitudeDegrees>
              <LongitudeDegrees>-28.62493769265711307525634765625</LongitudeDegrees>
            </Position>
            <AltitudeMeters>130.8000030517578125</AltitudeMeters>
            <DistanceMeters>11201.591975866</DistanceMeters>
          </Trackpoint>
          <Trackpoint>
            <Time>2020-04-26T16:57:40.000Z</Time>
            <Position>
              <LatitudeDegrees>38.5530238039791584014892578125</LatitudeDegrees>
              <LongitudeDegrees>-28.62529191188514232635498046875</LongitudeDegrees>
            </Position>
            <AltitudeMeters>129.8000030517578125</AltitudeMeters>
            <DistanceMeters>11237.878745173</DistanceMeters>
          </Trackpoint>
          <Trackpoint>
            <Time>2020-04-26T16:57:42.000Z</Time>
            <Position>
              <LatitudeDegrees>38.5531488619744777679443359375</LatitudeDegrees>
              <LongitudeDegrees>-28.6255271919071674346923828125</LongitudeDegrees>
            </Position>
            <AltitudeMeters>128.399993896484375</AltitudeMeters>
            <DistanceMeters>11262.640453324</DistanceMeters>
          </Trackpoint>
          <Trackpoint>
            <Time>2020-04-26T16:57:43.000Z</Time>
            <Position>
              <LatitudeDegrees>38.55321985669434070587158203125</LatitudeDegrees>
              <LongitudeDegrees>-28.625641353428363800048828125</LongitudeDegrees>
            </Position>
            <AltitudeMeters>128.1999969482421875</AltitudeMeters>
            <DistanceMeters>11275.335680946</DistanceMeters>
          </Trackpoint>
          <Trackpoint>
            <Time>2020-04-26T16:57:46.000Z</Time>
            <Position>
              <LatitudeDegrees>38.55344315059483051300048828125</LatitudeDegrees>
              <LongitudeDegrees>-28.6259647272527217864990234375</LongitudeDegrees>
            </Position>
            <AltitudeMeters>127.59999847412109375</AltitudeMeters>
            <DistanceMeters>11312.884582603</DistanceMeters>
          </Trackpoint>
          <Trackpoint>
            <Time>2020-04-26T16:57:47.000Z</Time>
            <Position>
              <LatitudeDegrees>38.5535200126469135284423828125</LatitudeDegrees>
              <LongitudeDegrees>-28.62607209943234920501708984375</LongitudeDegrees>
            </Position>
            <AltitudeMeters>127.1999969482421875</AltitudeMeters>
            <DistanceMeters>11325.554890374</DistanceMeters>
          </Trackpoint>
          <Trackpoint>
            <Time>2020-04-26T16:57:50.000Z</Time>
            <Position>
              <LatitudeDegrees>38.553758561611175537109375</LatitudeDegrees>
              <LongitudeDegrees>-28.62639497034251689910888671875</LongitudeDegrees>
            </Position>
            <AltitudeMeters>126.40000152587890625</AltitudeMeters>
            <DistanceMeters>11364.21663495</DistanceMeters>
          </Trackpoint>
          <Trackpoint>
            <Time>2020-04-26T16:57:51.000Z</Time>
            <Position>
              <LatitudeDegrees>38.55384045280516147613525390625</LatitudeDegrees>
              <LongitudeDegrees>-28.62650678493082523345947265625</LongitudeDegrees>
            </Position>
            <AltitudeMeters>125.8000030517578125</AltitudeMeters>
            <DistanceMeters>11377.550884279</DistanceMeters>
          </Trackpoint>
          <Trackpoint>
            <Time>2020-04-26T16:57:52.000Z</Time>
            <Position>
              <LatitudeDegrees>38.553921841084957122802734375</LatitudeDegrees>
              <LongitudeDegrees>-28.62661826424300670623779296875</LongitudeDegrees>
            </Position>
            <AltitudeMeters>124.40000152587890625</AltitudeMeters>
            <DistanceMeters>11390.824725154</DistanceMeters>
          </Trackpoint>
          <Trackpoint>
            <Time>2020-04-26T16:57:55.000Z</Time>
            <Position>
              <LatitudeDegrees>38.5541711188852787017822265625</LatitudeDegrees>
              <LongitudeDegrees>-28.62694297917187213897705078125</LongitudeDegrees>
            </Position>
            <AltitudeMeters>126</AltitudeMeters>
            <DistanceMeters>11430.430350374</DistanceMeters>
          </Trackpoint>
          <Trackpoint>
            <Time>2020-04-26T16:57:57.000Z</Time>
            <Position>
              <LatitudeDegrees>38.55433448217809200286865234375</LatitudeDegrees>
              <LongitudeDegrees>-28.627160154283046722412109375</LongitudeDegrees>
            </Position>
            <AltitudeMeters>124.8000030517578125</AltitudeMeters>
            <DistanceMeters>11456.658928561</DistanceMeters>
          </Trackpoint>
          <Trackpoint>
            <Time>2020-04-26T16:57:58.000Z</Time>
            <Position>
              <LatitudeDegrees>38.55441771447658538818359375</LatitudeDegrees>
              <LongitudeDegrees>-28.627266772091388702392578125</LongitudeDegrees>
            </Position>
            <AltitudeMeters>124</AltitudeMeters>
            <DistanceMeters>11469.771582204</DistanceMeters>
          </Trackpoint>
          <Trackpoint>
            <Time>2020-04-26T16:57:59.000Z</Time>
            <Position>
              <LatitudeDegrees>38.5545003600418567657470703125</LatitudeDegrees>
              <LongitudeDegrees>-28.62737162970006465911865234375</LongitudeDegrees>
            </Position>
            <AltitudeMeters>123.59999847412109375</AltitudeMeters>
            <DistanceMeters>11482.730104556</DistanceMeters>
          </Trackpoint>
          <Trackpoint>
            <Time>2020-04-26T16:58:02.000Z</Time>
            <Position>
              <LatitudeDegrees>38.55475408025085926055908203125</LatitudeDegrees>
              <LongitudeDegrees>-28.62769131548702716827392578125</LongitudeDegrees>
            </Position>
            <AltitudeMeters>122.59999847412109375</AltitudeMeters>
            <DistanceMeters>11522.37504024</DistanceMeters>
          </Trackpoint>
          <Trackpoint>
            <Time>2020-04-26T16:58:06.000Z</Time>
            <Position>
              <LatitudeDegrees>38.5550679825246334075927734375</LatitudeDegrees>
              <LongitudeDegrees>-28.62811007536947727203369140625</LongitudeDegrees>
            </Position>
            <AltitudeMeters>123.1999969482421875</AltitudeMeters>
            <DistanceMeters>11572.864192143</DistanceMeters>
          </Trackpoint>
          <Trackpoint>
            <Time>2020-04-26T16:58:11.000Z</Time>
            <Position>
              <LatitudeDegrees>38.55544776655733585357666015625</LatitudeDegrees>
              <LongitudeDegrees>-28.62860695458948612213134765625</LongitudeDegrees>
            </Position>
            <AltitudeMeters>122</AltitudeMeters>
            <DistanceMeters>11633.338972175</DistanceMeters>
          </Trackpoint>
          <Trackpoint>
            <Time>2020-04-26T16:58:12.000Z</Time>
            <Position>
              <LatitudeDegrees>38.55552689172327518463134765625</LatitudeDegrees>
              <LongitudeDegrees>-28.628704436123371124267578125</LongitudeDegrees>
            </Position>
            <AltitudeMeters>121</AltitudeMeters>
            <DistanceMeters>11645.568286386</DistanceMeters>
          </Trackpoint>
          <Trackpoint>
            <Time>2020-04-26T16:58:13.000Z</Time>
            <Position>
              <LatitudeDegrees>38.55560216121375560760498046875</LatitudeDegrees>
              <LongitudeDegrees>-28.62880091182887554168701171875</LongitudeDegrees>
            </Position>
            <AltitudeMeters>121.1999969482421875</AltitudeMeters>
            <DistanceMeters>11657.430269827</DistanceMeters>
          </Trackpoint>
          <Trackpoint>
            <Time>2020-04-26T16:58:19.000Z</Time>
            <Position>
              <LatitudeDegrees>38.55603768490254878997802734375</LatitudeDegrees>
              <LongitudeDegrees>-28.62935814075171947479248046875</LongitudeDegrees>
            </Position>
            <AltitudeMeters>120.59999847412109375</AltitudeMeters>
            <DistanceMeters>11726.001970954</DistanceMeters>
          </Trackpoint>
          <Trackpoint>
            <Time>2020-04-26T16:58:20.000Z</Time>
            <Position>
              <LatitudeDegrees>38.55611060746014118194580078125</LatitudeDegrees>
              <LongitudeDegrees>-28.62944615073502063751220703125</LongitudeDegrees>
            </Position>
            <AltitudeMeters>119.8000030517578125</AltitudeMeters>
            <DistanceMeters>11737.162655273</DistanceMeters>
          </Trackpoint>
          <Trackpoint>
            <Time>2020-04-26T16:58:23.000Z</Time>
            <Position>
              <LatitudeDegrees>38.55631864629685878753662109375</LatitudeDegrees>
              <LongitudeDegrees>-28.6297214962542057037353515625</LongitudeDegrees>
            </Position>
            <AltitudeMeters>118.59999847412109375</AltitudeMeters>
            <DistanceMeters>11770.486967284</DistanceMeters>
          </Trackpoint>
          <Trackpoint>
            <Time>2020-04-26T16:58:27.000Z</Time>
            <Position>
              <LatitudeDegrees>38.556600026786327362060546875</LatitudeDegrees>
              <LongitudeDegrees>-28.63007806241512298583984375</LongitudeDegrees>
            </Position>
            <AltitudeMeters>118</AltitudeMeters>
            <DistanceMeters>11814.577519522</DistanceMeters>
          </Trackpoint>
          <Trackpoint>
            <Time>2020-04-26T16:58:28.000Z</Time>
            <Position>
              <LatitudeDegrees>38.5566692613065242767333984375</LatitudeDegrees>
              <LongitudeDegrees>-28.63016766496002674102783203125</LongitudeDegrees>
            </Position>
            <AltitudeMeters>117.40000152587890625</AltitudeMeters>
            <DistanceMeters>11825.540653995</DistanceMeters>
          </Trackpoint>
          <Trackpoint>
            <Time>2020-04-26T16:58:32.000Z</Time>
            <Position>
              <LatitudeDegrees>38.55696874670684337615966796875</LatitudeDegrees>
              <LongitudeDegrees>-28.63049254752695560455322265625</LongitudeDegrees>
            </Position>
            <AltitudeMeters>116</AltitudeMeters>
            <DistanceMeters>11869.252116278</DistanceMeters>
          </Trackpoint>
          <Trackpoint>
            <Time>2020-04-26T16:58:33.000Z</Time>
            <Position>
              <LatitudeDegrees>38.5570504702627658843994140625</LatitudeDegrees>
              <LongitudeDegrees>-28.6305519752204418182373046875</LongitudeDegrees>
            </Position>
            <AltitudeMeters>116</AltitudeMeters>
            <DistanceMeters>11879.716279262</DistanceMeters>
          </Trackpoint>
          <Trackpoint>
            <Time>2020-04-26T16:58:36.000Z</Time>
            <Position>
              <LatitudeDegrees>38.557311482727527618408203125</LatitudeDegrees>
              <LongitudeDegrees>-28.63065431825816631317138671875</LongitudeDegrees>
            </Position>
            <AltitudeMeters>116</AltitudeMeters>
            <DistanceMeters>11910.102399224</DistanceMeters>
          </Trackpoint>
          <Trackpoint>
            <Time>2020-04-26T16:58:37.000Z</Time>
            <Position>
              <LatitudeDegrees>38.557402007281780242919921875</LatitudeDegrees>
              <LongitudeDegrees>-28.63066437654197216033935546875</LongitudeDegrees>
            </Position>
            <AltitudeMeters>115.59999847412109375</AltitudeMeters>
            <DistanceMeters>11920.215492015</DistanceMeters>
          </Trackpoint>
          <Trackpoint>
            <Time>2020-04-26T16:58:40.000Z</Time>
            <Position>
              <LatitudeDegrees>38.5576603375375270843505859375</LatitudeDegrees>
              <LongitudeDegrees>-28.63062196411192417144775390625</LongitudeDegrees>
            </Position>
            <AltitudeMeters>115.8000030517578125</AltitudeMeters>
            <DistanceMeters>11949.204091738</DistanceMeters>
          </Trackpoint>
          <Trackpoint>
            <Time>2020-04-26T16:58:44.000Z</Time>
            <Position>
              <LatitudeDegrees>38.5579396225512027740478515625</LatitudeDegrees>
              <LongitudeDegrees>-28.63046295940876007080078125</LongitudeDegrees>
            </Position>
            <AltitudeMeters>115.59999847412109375</AltitudeMeters>
            <DistanceMeters>11983.230556164</DistanceMeters>
          </Trackpoint>
          <Trackpoint>
            <Time>2020-04-26T16:58:45.000Z</Time>
            <Position>
              <LatitudeDegrees>38.55799184180796146392822265625</LatitudeDegrees>
              <LongitudeDegrees>-28.63041543401777744293212890625</LongitudeDegrees>
            </Position>
            <AltitudeMeters>115.59999847412109375</AltitudeMeters>
            <DistanceMeters>11990.364524964</DistanceMeters>
          </Trackpoint>
          <Trackpoint>
            <Time>2020-04-26T16:58:47.000Z</Time>
            <Position>
              <LatitudeDegrees>38.55807348154485225677490234375</LatitudeDegrees>
              <LongitudeDegrees>-28.63034703768789768218994140625</LongitudeDegrees>
            </Position>
            <AltitudeMeters>115.59999847412109375</AltitudeMeters>
            <DistanceMeters>12001.22753739</DistanceMeters>
          </Trackpoint>
          <Trackpoint>
            <Time>2020-04-26T16:58:49.000Z</Time>
            <Position>
              <LatitudeDegrees>38.5581171512603759765625</LatitudeDegrees>
              <LongitudeDegrees>-28.63039749674499034881591796875</LongitudeDegrees>
            </Position>
            <AltitudeMeters>115.59999847412109375</AltitudeMeters>
            <DistanceMeters>12007.778180355</DistanceMeters>
          </Trackpoint>
          <Trackpoint>
            <Time>2020-04-26T16:58:51.000Z</Time>
            <Position>
              <LatitudeDegrees>38.55806744657456874847412109375</LatitudeDegrees>
              <LongitudeDegrees>-28.6304510571062564849853515625</LongitudeDegrees>
            </Position>
            <AltitudeMeters>115.40000152587890625</AltitudeMeters>
            <DistanceMeters>12015.012703358</DistanceMeters>
          </Trackpoint>
          <Trackpoint>
            <Time>2020-04-26T16:58:54.000Z</Time>
            <Position>
              <LatitudeDegrees>38.55795881710946559906005859375</LatitudeDegrees>
              <LongitudeDegrees>-28.630525656044483184814453125</LongitudeDegrees>
            </Position>
            <AltitudeMeters>115.59999847412109375</AltitudeMeters>
            <DistanceMeters>12028.736087573</DistanceMeters>
          </Trackpoint>
          <Trackpoint>
            <Time>2020-04-26T16:58:56.000Z</Time>
            <Position>
              <LatitudeDegrees>38.55787985958158969879150390625</LatitudeDegrees>
              <LongitudeDegrees>-28.630586005747318267822265625</LongitudeDegrees>
            </Position>
            <AltitudeMeters>115.59999847412109375</AltitudeMeters>
            <DistanceMeters>12038.974306527</DistanceMeters>
          </Trackpoint>
          <Trackpoint>
            <Time>2020-04-26T16:58:59.000Z</Time>
            <Position>
              <LatitudeDegrees>38.5577431507408618927001953125</LatitudeDegrees>
              <LongitudeDegrees>-28.6306589283049106597900390625</LongitudeDegrees>
            </Position>
            <AltitudeMeters>115.8000030517578125</AltitudeMeters>
            <DistanceMeters>12055.461373007</DistanceMeters>
          </Trackpoint>
          <Trackpoint>
            <Time>2020-04-26T16:59:02.000Z</Time>
            <Position>
              <LatitudeDegrees>38.557589091360569000244140625</LatitudeDegrees>
              <LongitudeDegrees>-28.63071240484714508056640625</LongitudeDegrees>
            </Position>
            <AltitudeMeters>115.8000030517578125</AltitudeMeters>
            <DistanceMeters>12073.229081708</DistanceMeters>
          </Trackpoint>
          <Trackpoint>
            <Time>2020-04-26T16:59:05.000Z</Time>
            <Position>
              <LatitudeDegrees>38.55742354877293109893798828125</LatitudeDegrees>
              <LongitudeDegrees>-28.6307333596050739288330078125</LongitudeDegrees>
            </Position>
            <AltitudeMeters>115.59999847412109375</AltitudeMeters>
            <DistanceMeters>12091.743934178</DistanceMeters>
          </Trackpoint>
          <Trackpoint>
            <Time>2020-04-26T16:59:08.000Z</Time>
            <Position>
              <LatitudeDegrees>38.55725993402302265167236328125</LatitudeDegrees>
              <LongitudeDegrees>-28.63071802072227001190185546875</LongitudeDegrees>
            </Position>
            <AltitudeMeters>115.8000030517578125</AltitudeMeters>
            <DistanceMeters>12110.003410689</DistanceMeters>
          </Trackpoint>
          <Trackpoint>
            <Time>2020-04-26T16:59:11.000Z</Time>
            <Position>
              <LatitudeDegrees>38.55709983967244625091552734375</LatitudeDegrees>
              <LongitudeDegrees>-28.630658090114593505859375</LongitudeDegrees>
            </Position>
            <AltitudeMeters>116</AltitudeMeters>
            <DistanceMeters>12128.569889573</DistanceMeters>
          </Trackpoint>
          <Trackpoint>
            <Time>2020-04-26T16:59:13.000Z</Time>
            <Position>
              <LatitudeDegrees>38.55700177140533924102783203125</LatitudeDegrees>
              <LongitudeDegrees>-28.63059681840240955352783203125</LongitudeDegrees>
            </Position>
            <AltitudeMeters>116.1999969482421875</AltitudeMeters>
            <DistanceMeters>12140.717708688</DistanceMeters>
          </Trackpoint>
          <Trackpoint>
            <Time>2020-04-26T16:59:17.000Z</Time>
            <Position>
              <LatitudeDegrees>38.55680831708014011383056640625</LatitudeDegrees>
              <LongitudeDegrees>-28.63043638877570629119873046875</LongitudeDegrees>
            </Position>
            <AltitudeMeters>116.1999969482421875</AltitudeMeters>
            <DistanceMeters>12166.380904034</DistanceMeters>
          </Trackpoint>
          <Trackpoint>
            <Time>2020-04-26T16:59:19.000Z</Time>
            <Position>
              <LatitudeDegrees>38.5567235760390758514404296875</LatitudeDegrees>
              <LongitudeDegrees>-28.63033195026218891143798828125</LongitudeDegrees>
            </Position>
            <AltitudeMeters>116.40000152587890625</AltitudeMeters>
            <DistanceMeters>12179.480122049</DistanceMeters>
          </Trackpoint>
          <Trackpoint>
            <Time>2020-04-26T16:59:25.000Z</Time>
            <Position>
              <LatitudeDegrees>38.55649642646312713623046875</LatitudeDegrees>
              <LongitudeDegrees>-28.63001813180744647979736328125</LongitudeDegrees>
            </Position>
            <AltitudeMeters>116.59999847412109375</AltitudeMeters>
            <DistanceMeters>12216.698824157</DistanceMeters>
          </Trackpoint>
          <Trackpoint>
            <Time>2020-04-26T16:59:27.000Z</Time>
            <Position>
              <LatitudeDegrees>38.55641503818333148956298828125</LatitudeDegrees>
              <LongitudeDegrees>-28.62991738133132457733154296875</LongitudeDegrees>
            </Position>
            <AltitudeMeters>117.1999969482421875</AltitudeMeters>
            <DistanceMeters>12229.306616813</DistanceMeters>
          </Trackpoint>
          <Trackpoint>
            <Time>2020-04-26T16:59:31.000Z</Time>
            <Position>
              <LatitudeDegrees>38.5562548600137233734130859375</LatitudeDegrees>
              <LongitudeDegrees>-28.62970934249460697174072265625</LongitudeDegrees>
            </Position>
            <AltitudeMeters>117.40000152587890625</AltitudeMeters>
            <DistanceMeters>12254.717691295</DistanceMeters>
          </Trackpoint>
          <Trackpoint>
            <Time>2020-04-26T16:59:34.000Z</Time>
            <Position>
              <LatitudeDegrees>38.55613843537867069244384765625</LatitudeDegrees>
              <LongitudeDegrees>-28.62955410964787006378173828125</LongitudeDegrees>
            </Position>
            <AltitudeMeters>118</AltitudeMeters>
            <DistanceMeters>12273.438436389</DistanceMeters>
          </Trackpoint>
          <Trackpoint>
            <Time>2020-04-26T16:59:35.000Z</Time>
            <Position>
              <LatitudeDegrees>38.5561009682714939117431640625</LatitudeDegrees>
              <LongitudeDegrees>-28.62949929200112819671630859375</LongitudeDegrees>
            </Position>
            <AltitudeMeters>118.1999969482421875</AltitudeMeters>
            <DistanceMeters>12279.774659228</DistanceMeters>
          </Trackpoint>
          <Trackpoint>
            <Time>2020-04-26T16:59:38.000Z</Time>
            <Position>
              <LatitudeDegrees>38.55598680675029754638671875</LatitudeDegrees>
              <LongitudeDegrees>-28.629338778555393218994140625</LongitudeDegrees>
            </Position>
            <AltitudeMeters>118.40000152587890625</AltitudeMeters>
            <DistanceMeters>12298.659410725</DistanceMeters>
          </Trackpoint>
          <Trackpoint>
            <Time>2020-04-26T16:59:43.000Z</Time>
            <Position>
              <LatitudeDegrees>38.5557787679135799407958984375</LatitudeDegrees>
              <LongitudeDegrees>-28.62907617352902889251708984375</LongitudeDegrees>
            </Position>
            <AltitudeMeters>119.40000152587890625</AltitudeMeters>
            <DistanceMeters>12331.195203344</DistanceMeters>
          </Trackpoint>
          <Trackpoint>
            <Time>2020-04-26T16:59:46.000Z</Time>
            <Position>
              <LatitudeDegrees>38.5556577332317829132080078125</LatitudeDegrees>
              <LongitudeDegrees>-28.6289154924452304840087890625</LongitudeDegrees>
            </Position>
            <AltitudeMeters>119.40000152587890625</AltitudeMeters>
            <DistanceMeters>12350.613697934</DistanceMeters>
          </Trackpoint>
          <Trackpoint>
            <Time>2020-04-26T16:59:54.000Z</Time>
            <Position>
              <LatitudeDegrees>38.55532153509557247161865234375</LatitudeDegrees>
              <LongitudeDegrees>-28.62848374061286449432373046875</LongitudeDegrees>
            </Position>
            <AltitudeMeters>120.40000152587890625</AltitudeMeters>
            <DistanceMeters>12403.645926895</DistanceMeters>
          </Trackpoint>
          <Trackpoint>
            <Time>2020-04-26T16:59:59.000Z</Time>
            <Position>
              <LatitudeDegrees>38.55510930530726909637451171875</LatitudeDegrees>
              <LongitudeDegrees>-28.62821719609200954437255859375</LongitudeDegrees>
            </Position>
            <AltitudeMeters>121.40000152587890625</AltitudeMeters>
            <DistanceMeters>12436.755067022</DistanceMeters>
          </Trackpoint>
          <Trackpoint>
            <Time>2020-04-26T17:00:00.000Z</Time>
            <Position>
              <LatitudeDegrees>38.55506471358239650726318359375</LatitudeDegrees>
              <LongitudeDegrees>-28.62816405482590198516845703125</LongitudeDegrees>
            </Position>
            <AltitudeMeters>121.8000030517578125</AltitudeMeters>
            <DistanceMeters>12443.539335563</DistanceMeters>
          </Trackpoint>
          <Trackpoint>
            <Time>2020-04-26T17:00:04.000Z</Time>
            <Position>
              <LatitudeDegrees>38.55489506386220455169677734375</LatitudeDegrees>
              <LongitudeDegrees>-28.6279431916773319244384765625</LongitudeDegrees>
            </Position>
            <AltitudeMeters>121.59999847412109375</AltitudeMeters>
            <DistanceMeters>12470.485399964</DistanceMeters>
          </Trackpoint>
          <Trackpoint>
            <Time>2020-04-26T17:00:13.000Z</Time>
            <Position>
              <LatitudeDegrees>38.554510585963726043701171875</LatitudeDegrees>
              <LongitudeDegrees>-28.62744874320924282073974609375</LongitudeDegrees>
            </Position>
            <AltitudeMeters>122.40000152587890625</AltitudeMeters>
            <DistanceMeters>12531.176456157</DistanceMeters>
          </Trackpoint>
          <Trackpoint>
            <Time>2020-04-26T17:00:14.000Z</Time>
            <Position>
              <LatitudeDegrees>38.55446867644786834716796875</LatitudeDegrees>
              <LongitudeDegrees>-28.62739317119121551513671875</LongitudeDegrees>
            </Position>
            <AltitudeMeters>122.40000152587890625</AltitudeMeters>
            <DistanceMeters>12537.89585957</DistanceMeters>
          </Trackpoint>
          <Trackpoint>
            <Time>2020-04-26T17:00:16.000Z</Time>
            <Position>
              <LatitudeDegrees>38.5543856956064701080322265625</LatitudeDegrees>
              <LongitudeDegrees>-28.62728320062160491943359375</LongitudeDegrees>
            </Position>
            <AltitudeMeters>122.8000030517578125</AltitudeMeters>
            <DistanceMeters>12551.197223701</DistanceMeters>
          </Trackpoint>
          <Trackpoint>
            <Time>2020-04-26T17:00:23.000Z</Time>
            <Position>
              <LatitudeDegrees>38.554103560745716094970703125</LatitudeDegrees>
              <LongitudeDegrees>-28.62692135386168956756591796875</LongitudeDegrees>
            </Position>
            <AltitudeMeters>124.1999969482421875</AltitudeMeters>
            <DistanceMeters>12595.672467097</DistanceMeters>
          </Trackpoint>
          <Trackpoint>
            <Time>2020-04-26T17:00:24.000Z</Time>
            <Position>
              <LatitudeDegrees>38.55406366288661956787109375</LatitudeDegrees>
              <LongitudeDegrees>-28.62686879932880401611328125</LongitudeDegrees>
            </Position>
            <AltitudeMeters>124.1999969482421875</AltitudeMeters>
            <DistanceMeters>12602.047761136</DistanceMeters>
          </Trackpoint>
          <Trackpoint>
            <Time>2020-04-26T17:00:28.000Z</Time>
            <Position>
              <LatitudeDegrees>38.553908765316009521484375</LatitudeDegrees>
              <LongitudeDegrees>-28.62665866501629352569580078125</LongitudeDegrees>
            </Position>
            <AltitudeMeters>125.40000152587890625</AltitudeMeters>
            <DistanceMeters>12627.182641445</DistanceMeters>
          </Trackpoint>
          <Trackpoint>
            <Time>2020-04-26T17:00:34.000Z</Time>
            <Position>
              <LatitudeDegrees>38.5536775924265384674072265625</LatitudeDegrees>
              <LongitudeDegrees>-28.62635389901697635650634765625</LongitudeDegrees>
            </Position>
            <AltitudeMeters>125.8000030517578125</AltitudeMeters>
            <DistanceMeters>12664.138382833</DistanceMeters>
          </Trackpoint>
          <Trackpoint>
            <Time>2020-04-26T17:00:41.000Z</Time>
            <Position>
              <LatitudeDegrees>38.55340249836444854736328125</LatitudeDegrees>
              <LongitudeDegrees>-28.6260019429028034210205078125</LongitudeDegrees>
            </Position>
            <AltitudeMeters>126.40000152587890625</AltitudeMeters>
            <DistanceMeters>12707.450762829</DistanceMeters>
          </Trackpoint>
          <Trackpoint>
            <Time>2020-04-26T17:00:43.000Z</Time>
            <Position>
              <LatitudeDegrees>38.55332731269299983978271484375</LatitudeDegrees>
              <LongitudeDegrees>-28.625900857150554656982421875</LongitudeDegrees>
            </Position>
            <AltitudeMeters>127.1999969482421875</AltitudeMeters>
            <DistanceMeters>12719.593005542</DistanceMeters>
          </Trackpoint>
          <Trackpoint>
            <Time>2020-04-26T17:00:47.000Z</Time>
            <Position>
              <LatitudeDegrees>38.55318934656679630279541015625</LatitudeDegrees>
              <LongitudeDegrees>-28.62568602897226810455322265625</LongitudeDegrees>
            </Position>
            <AltitudeMeters>127.59999847412109375</AltitudeMeters>
            <DistanceMeters>12743.789203098</DistanceMeters>
          </Trackpoint>
          <Trackpoint>
            <Time>2020-04-26T17:00:51.000Z</Time>
            <Position>
              <LatitudeDegrees>38.55306294746696949005126953125</LatitudeDegrees>
              <LongitudeDegrees>-28.6254624836146831512451171875</LongitudeDegrees>
            </Position>
            <AltitudeMeters>128</AltitudeMeters>
            <DistanceMeters>12767.800330949</DistanceMeters>
          </Trackpoint>
          <Trackpoint>
            <Time>2020-04-26T17:00:55.000Z</Time>
            <Position>
              <LatitudeDegrees>38.55294543318450450897216796875</LatitudeDegrees>
              <LongitudeDegrees>-28.6252247728407382965087890625</LongitudeDegrees>
            </Position>
            <AltitudeMeters>128.600006103515625</AltitudeMeters>
            <DistanceMeters>12792.278519043</DistanceMeters>
          </Trackpoint>
          <Trackpoint>
            <Time>2020-04-26T17:00:58.000Z</Time>
            <Position>
              <LatitudeDegrees>38.5528568364679813385009765625</LatitudeDegrees>
              <LongitudeDegrees>-28.62505034543573856353759765625</LongitudeDegrees>
            </Position>
            <AltitudeMeters>128.8000030517578125</AltitudeMeters>
            <DistanceMeters>12810.382292808</DistanceMeters>
          </Trackpoint>
          <Trackpoint>
            <Time>2020-04-26T17:01:03.000Z</Time>
            <Position>
              <LatitudeDegrees>38.552719540894031524658203125</LatitudeDegrees>
              <LongitudeDegrees>-28.624754212796688079833984375</LongitudeDegrees>
            </Position>
            <AltitudeMeters>129.8000030517578125</AltitudeMeters>
            <DistanceMeters>12840.34751734</DistanceMeters>
          </Trackpoint>
          <Trackpoint>
            <Time>2020-04-26T17:01:09.000Z</Time>
            <Position>
              <LatitudeDegrees>38.55256120674312114715576171875</LatitudeDegrees>
              <LongitudeDegrees>-28.6244103871285915374755859375</LongitudeDegrees>
            </Position>
            <AltitudeMeters>130.600006103515625</AltitudeMeters>
            <DistanceMeters>12875.078188961</DistanceMeters>
          </Trackpoint>
          <Trackpoint>
            <Time>2020-04-26T17:01:12.000Z</Time>
            <Position>
              <LatitudeDegrees>38.5524845123291015625</LatitudeDegrees>
              <LongitudeDegrees>-28.6242474429309368133544921875</LongitudeDegrees>
            </Position>
            <AltitudeMeters>131</AltitudeMeters>
            <DistanceMeters>12891.631668042</DistanceMeters>
          </Trackpoint>
          <Trackpoint>
            <Time>2020-04-26T17:01:17.000Z</Time>
            <Position>
              <LatitudeDegrees>38.55235367082059383392333984375</LatitudeDegrees>
              <LongitudeDegrees>-28.62397796474397182464599609375</LongitudeDegrees>
            </Position>
            <AltitudeMeters>131.8000030517578125</AltitudeMeters>
            <DistanceMeters>12919.240649241</DistanceMeters>
          </Trackpoint>
          <Trackpoint>
            <Time>2020-04-26T17:01:20.000Z</Time>
            <Position>
              <LatitudeDegrees>38.552283346652984619140625</LatitudeDegrees>
              <LongitudeDegrees>-28.62381468527019023895263671875</LongitudeDegrees>
            </Position>
            <AltitudeMeters>132</AltitudeMeters>
            <DistanceMeters>12935.465469379</DistanceMeters>
          </Trackpoint>
          <Trackpoint>
            <Time>2020-04-26T17:01:28.000Z</Time>
            <Position>
              <LatitudeDegrees>38.5520940832793712615966796875</LatitudeDegrees>
              <LongitudeDegrees>-28.62336960621178150177001953125</LongitudeDegrees>
            </Position>
            <AltitudeMeters>133.1999969482421875</AltitudeMeters>
            <DistanceMeters>12979.563189298</DistanceMeters>
          </Trackpoint>
          <Trackpoint>
            <Time>2020-04-26T17:01:29.000Z</Time>
            <Position>
              <LatitudeDegrees>38.5520743019878864288330078125</LatitudeDegrees>
              <LongitudeDegrees>-28.62331445328891277313232421875</LongitudeDegrees>
            </Position>
            <AltitudeMeters>133.600006103515625</AltitudeMeters>
            <DistanceMeters>12984.844657478</DistanceMeters>
          </Trackpoint>
          <Trackpoint>
            <Time>2020-04-26T17:01:38.000Z</Time>
            <Position>
              <LatitudeDegrees>38.55192619375884532928466796875</LatitudeDegrees>
              <LongitudeDegrees>-28.62278941087424755096435546875</LongitudeDegrees>
            </Position>
            <AltitudeMeters>134.399993896484375</AltitudeMeters>
            <DistanceMeters>13033.428035206</DistanceMeters>
          </Trackpoint>
          <Trackpoint>
            <Time>2020-04-26T17:01:39.000Z</Time>
            <Position>
              <LatitudeDegrees>38.5519090108573436737060546875</LatitudeDegrees>
              <LongitudeDegrees>-28.62273207865655422210693359375</LongitudeDegrees>
            </Position>
            <AltitudeMeters>134.399993896484375</AltitudeMeters>
            <DistanceMeters>13038.773235096</DistanceMeters>
          </Trackpoint>
          <Trackpoint>
            <Time>2020-04-26T17:01:46.000Z</Time>
            <Position>
              <LatitudeDegrees>38.5517950169742107391357421875</LatitudeDegrees>
              <LongitudeDegrees>-28.6223299987614154815673828125</LongitudeDegrees>
            </Position>
            <AltitudeMeters>135.600006103515625</AltitudeMeters>
            <DistanceMeters>13076.000428007</DistanceMeters>
          </Trackpoint>
          <Trackpoint>
            <Time>2020-04-26T17:01:47.000Z</Time>
            <Position>
              <LatitudeDegrees>38.55177397839725017547607421875</LatitudeDegrees>
              <LongitudeDegrees>-28.62227492965757846832275390625</LongitudeDegrees>
            </Position>
            <AltitudeMeters>135.8000030517578125</AltitudeMeters>
            <DistanceMeters>13081.335481985</DistanceMeters>
          </Trackpoint>
          <Trackpoint>
            <Time>2020-04-26T17:01:56.000Z</Time>
            <Position>
              <LatitudeDegrees>38.55155043303966522216796875</LatitudeDegrees>
              <LongitudeDegrees>-28.6217942275106906890869140625</LongitudeDegrees>
            </Position>
            <AltitudeMeters>136</AltitudeMeters>
            <DistanceMeters>13130.016249663</DistanceMeters>
          </Trackpoint>
          <Trackpoint>
            <Time>2020-04-26T17:02:01.000Z</Time>
            <Position>
              <LatitudeDegrees>38.55140601284801959991455078125</LatitudeDegrees>
              <LongitudeDegrees>-28.62154318951070308685302734375</LongitudeDegrees>
            </Position>
            <AltitudeMeters>136.8000030517578125</AltitudeMeters>
            <DistanceMeters>13157.143006369</DistanceMeters>
          </Trackpoint>
          <Trackpoint>
            <Time>2020-04-26T17:02:06.000Z</Time>
            <Position>
              <LatitudeDegrees>38.551268465816974639892578125</LatitudeDegrees>
              <LongitudeDegrees>-28.62128972075879573822021484375</LongitudeDegrees>
            </Position>
            <AltitudeMeters>137.8000030517578125</AltitudeMeters>
            <DistanceMeters>13183.997091809</DistanceMeters>
          </Trackpoint>
          <Trackpoint>
            <Time>2020-04-26T17:02:07.000Z</Time>
            <Position>
              <LatitudeDegrees>38.55124088935554027557373046875</LatitudeDegrees>
              <LongitudeDegrees>-28.62123875878751277923583984375</LongitudeDegrees>
            </Position>
            <AltitudeMeters>138.1999969482421875</AltitudeMeters>
            <DistanceMeters>13189.391061248</DistanceMeters>
          </Trackpoint>
          <Trackpoint>
            <Time>2020-04-26T17:02:13.000Z</Time>
            <Position>
              <LatitudeDegrees>38.55107224546372890472412109375</LatitudeDegrees>
              <LongitudeDegrees>-28.620941452682018280029296875</LongitudeDegrees>
            </Position>
            <AltitudeMeters>139.1999969482421875</AltitudeMeters>
            <DistanceMeters>13221.360172151</DistanceMeters>
          </Trackpoint>
          <Trackpoint>
            <Time>2020-04-26T17:02:14.000Z</Time>
            <Position>
              <LatitudeDegrees>38.55104508809745311737060546875</LatitudeDegrees>
              <LongitudeDegrees>-28.62089208327233791351318359375</LongitudeDegrees>
            </Position>
            <AltitudeMeters>139.600006103515625</AltitudeMeters>
            <DistanceMeters>13226.613353436</DistanceMeters>
          </Trackpoint>
          <Trackpoint>
            <Time>2020-04-26T17:02:18.000Z</Time>
            <Position>
              <LatitudeDegrees>38.550935871899127960205078125</LatitudeDegrees>
              <LongitudeDegrees>-28.6206904985010623931884765625</LongitudeDegrees>
            </Position>
            <AltitudeMeters>140.399993896484375</AltitudeMeters>
            <DistanceMeters>13247.959492603</DistanceMeters>
          </Trackpoint>
          <Trackpoint>
            <Time>2020-04-26T17:02:23.000Z</Time>
            <Position>
              <LatitudeDegrees>38.55080067180097103118896484375</LatitudeDegrees>
              <LongitudeDegrees>-28.620433509349822998046875</LongitudeDegrees>
            </Position>
            <AltitudeMeters>141.399993896484375</AltitudeMeters>
            <DistanceMeters>13274.919293288</DistanceMeters>
          </Trackpoint>
          <Trackpoint>
            <Time>2020-04-26T17:02:24.000Z</Time>
            <Position>
              <LatitudeDegrees>38.55077435262501239776611328125</LatitudeDegrees>
              <LongitudeDegrees>-28.62038397230207920074462890625</LongitudeDegrees>
            </Position>
            <AltitudeMeters>141.8000030517578125</AltitudeMeters>
            <DistanceMeters>13280.13105594</DistanceMeters>
          </Trackpoint>
          <Trackpoint>
            <Time>2020-04-26T17:02:27.000Z</Time>
            <Position>
              <LatitudeDegrees>38.55069489218294620513916015625</LatitudeDegrees>
              <LongitudeDegrees>-28.62023569643497467041015625</LongitudeDegrees>
            </Position>
            <AltitudeMeters>142.600006103515625</AltitudeMeters>
            <DistanceMeters>13295.777024824</DistanceMeters>
          </Trackpoint>
          <Trackpoint>
            <Time>2020-04-26T17:02:31.000Z</Time>
            <Position>
              <LatitudeDegrees>38.55055877007544040679931640625</LatitudeDegrees>
              <LongitudeDegrees>-28.6200601793825626373291015625</LongitudeDegrees>
            </Position>
            <AltitudeMeters>143.399993896484375</AltitudeMeters>
            <DistanceMeters>13317.293389739</DistanceMeters>
          </Trackpoint>
          <Trackpoint>
            <Time>2020-04-26T17:02:32.000Z</Time>
            <Position>
              <LatitudeDegrees>38.55052180588245391845703125</LatitudeDegrees>
              <LongitudeDegrees>-28.6200232990086078643798828125</LongitudeDegrees>
            </Position>
            <AltitudeMeters>143.8000030517578125</AltitudeMeters>
            <DistanceMeters>13322.512078325</DistanceMeters>
          </Trackpoint>
          <Trackpoint>
            <Time>2020-04-26T17:02:34.000Z</Time>
            <Position>
              <LatitudeDegrees>38.55044695548713207244873046875</LatitudeDegrees>
              <LongitudeDegrees>-28.61996202729642391204833984375</LongitudeDegrees>
            </Position>
            <AltitudeMeters>144.1999969482421875</AltitudeMeters>
            <DistanceMeters>13332.404902416</DistanceMeters>
          </Trackpoint>
          <Trackpoint>
            <Time>2020-04-26T17:02:36.000Z</Time>
            <Position>
              <LatitudeDegrees>38.55036699213087558746337890625</LatitudeDegrees>
              <LongitudeDegrees>-28.6199113167822360992431640625</LongitudeDegrees>
            </Position>
            <AltitudeMeters>144.8000030517578125</AltitudeMeters>
            <DistanceMeters>13342.339626143</DistanceMeters>
          </Trackpoint>
          <Trackpoint>
            <Time>2020-04-26T17:02:37.000Z</Time>
            <Position>
              <LatitudeDegrees>38.5503261722624301910400390625</LatitudeDegrees>
              <LongitudeDegrees>-28.61989145167171955108642578125</LongitudeDegrees>
            </Position>
            <AltitudeMeters>145</AltitudeMeters>
            <DistanceMeters>13347.200871873</DistanceMeters>
          </Trackpoint>
          <Trackpoint>
            <Time>2020-04-26T17:02:41.000Z</Time>
            <Position>
              <LatitudeDegrees>38.55015031993389129638671875</LatitudeDegrees>
              <LongitudeDegrees>-28.61982691101729869842529296875</LongitudeDegrees>
            </Position>
            <AltitudeMeters>146.1999969482421875</AltitudeMeters>
            <DistanceMeters>13367.563879516</DistanceMeters>
          </Trackpoint>
          <Trackpoint>
            <Time>2020-04-26T17:02:42.000Z</Time>
            <Position>
              <LatitudeDegrees>38.55010597966611385345458984375</LatitudeDegrees>
              <LongitudeDegrees>-28.61981634981930255889892578125</LongitudeDegrees>
            </Position>
            <AltitudeMeters>146.1999969482421875</AltitudeMeters>
            <DistanceMeters>13372.583233386</DistanceMeters>
          </Trackpoint>
          <Trackpoint>
            <Time>2020-04-26T17:02:44.000Z</Time>
            <Position>
              <LatitudeDegrees>38.55001713149249553680419921875</LatitudeDegrees>
              <LongitudeDegrees>-28.619803525507450103759765625</LongitudeDegrees>
            </Position>
            <AltitudeMeters>146.399993896484375</AltitudeMeters>
            <DistanceMeters>13382.534304599</DistanceMeters>
          </Trackpoint>
          <Trackpoint>
            <Time>2020-04-26T17:02:48.000Z</Time>
            <Position>
              <LatitudeDegrees>38.54983977042138576507568359375</LatitudeDegrees>
              <LongitudeDegrees>-28.6198053695261478424072265625</LongitudeDegrees>
            </Position>
            <AltitudeMeters>147.1999969482421875</AltitudeMeters>
            <DistanceMeters>13402.27540409</DistanceMeters>
          </Trackpoint>
          <Trackpoint>
            <Time>2020-04-26T17:02:51.000Z</Time>
            <Position>
              <LatitudeDegrees>38.54970448650419712066650390625</LatitudeDegrees>
              <LongitudeDegrees>-28.619844429194927215576171875</LongitudeDegrees>
            </Position>
            <AltitudeMeters>147.8000030517578125</AltitudeMeters>
            <DistanceMeters>13417.711908137</DistanceMeters>
          </Trackpoint>
          <Trackpoint>
            <Time>2020-04-26T17:02:56.000Z</Time>
            <Position>
              <LatitudeDegrees>38.5494682006537914276123046875</LatitudeDegrees>
              <LongitudeDegrees>-28.619907796382904052734375</LongitudeDegrees>
            </Position>
            <AltitudeMeters>148.1999969482421875</AltitudeMeters>
            <DistanceMeters>13444.583137595</DistanceMeters>
          </Trackpoint>
          <Trackpoint>
            <Time>2020-04-26T17:02:59.000Z</Time>
            <Position>
              <LatitudeDegrees>38.54932487010955810546875</LatitudeDegrees>
              <LongitudeDegrees>-28.6199488677084445953369140625</LongitudeDegrees>
            </Position>
            <AltitudeMeters>148.1999969482421875</AltitudeMeters>
            <DistanceMeters>13460.931875549</DistanceMeters>
          </Trackpoint>
          <Trackpoint>
            <Time>2020-04-26T17:03:04.000Z</Time>
            <Position>
              <LatitudeDegrees>38.54908590205013751983642578125</LatitudeDegrees>
              <LongitudeDegrees>-28.6199976503849029541015625</LongitudeDegrees>
            </Position>
            <AltitudeMeters>148.1999969482421875</AltitudeMeters>
            <DistanceMeters>13487.866375942</DistanceMeters>
          </Trackpoint>
          <Trackpoint>
            <Time>2020-04-26T17:03:06.000Z</Time>
            <Position>
              <LatitudeDegrees>38.5490021668374538421630859375</LatitudeDegrees>
              <LongitudeDegrees>-28.6200330220162868499755859375</LongitudeDegrees>
            </Position>
            <AltitudeMeters>148.1999969482421875</AltitudeMeters>
            <DistanceMeters>13497.681766183</DistanceMeters>
          </Trackpoint>
          <Trackpoint>
            <Time>2020-04-26T17:03:07.000Z</Time>
            <Position>
              <LatitudeDegrees>38.5489976406097412109375</LatitudeDegrees>
              <LongitudeDegrees>-28.620074428617954254150390625</LongitudeDegrees>
            </Position>
            <AltitudeMeters>148.399993896484375</AltitudeMeters>
            <DistanceMeters>13501.321425802</DistanceMeters>
          </Trackpoint>
          <Trackpoint>
            <Time>2020-04-26T17:03:09.000Z</Time>
            <Position>
              <LatitudeDegrees>38.54906293563544750213623046875</LatitudeDegrees>
              <LongitudeDegrees>-28.62010284326970577239990234375</LongitudeDegrees>
            </Position>
            <AltitudeMeters>148.399993896484375</AltitudeMeters>
            <DistanceMeters>13508.998619882</DistanceMeters>
          </Trackpoint>
          <Trackpoint>
            <Time>2020-04-26T17:03:11.000Z</Time>
            <Position>
              <LatitudeDegrees>38.54914608411490917205810546875</LatitudeDegrees>
              <LongitudeDegrees>-28.6200722493231296539306640625</LongitudeDegrees>
            </Position>
            <AltitudeMeters>148.8000030517578125</AltitudeMeters>
            <DistanceMeters>13518.627785211</DistanceMeters>
          </Trackpoint>
          <Trackpoint>
            <Time>2020-04-26T17:03:13.000Z</Time>
            <Position>
              <LatitudeDegrees>38.54923459701240062713623046875</LatitudeDegrees>
              <LongitudeDegrees>-28.620044924318790435791015625</LongitudeDegrees>
            </Position>
            <AltitudeMeters>148.600006103515625</AltitudeMeters>
            <DistanceMeters>13528.762285173</DistanceMeters>
          </Trackpoint>
          <Trackpoint>
            <Time>2020-04-26T17:03:14.000Z</Time>
            <Position>
              <LatitudeDegrees>38.549281619489192962646484375</LatitudeDegrees>
              <LongitudeDegrees>-28.62003863789141178131103515625</LongitudeDegrees>
            </Position>
            <AltitudeMeters>148.600006103515625</AltitudeMeters>
            <DistanceMeters>13534.024912316</DistanceMeters>
          </Trackpoint>
          <Trackpoint>
            <Time>2020-04-26T17:03:18.000Z</Time>
            <Position>
              <LatitudeDegrees>38.54947180487215518951416015625</LatitudeDegrees>
              <LongitudeDegrees>-28.6200189404189586639404296875</LongitudeDegrees>
            </Position>
            <AltitudeMeters>149.399993896484375</AltitudeMeters>
            <DistanceMeters>13555.262054263</DistanceMeters>
          </Trackpoint>
          <Trackpoint>
            <Time>2020-04-26T17:03:21.000Z</Time>
            <Position>
              <LatitudeDegrees>38.5496080107986927032470703125</LatitudeDegrees>
              <LongitudeDegrees>-28.620022125542163848876953125</LongitudeDegrees>
            </Position>
            <AltitudeMeters>150.399993896484375</AltitudeMeters>
            <DistanceMeters>13570.424697379</DistanceMeters>
          </Trackpoint>
          <Trackpoint>
            <Time>2020-04-26T17:03:22.000Z</Time>
            <Position>
              <LatitudeDegrees>38.54964950121939182281494140625</LatitudeDegrees>
              <LongitudeDegrees>-28.62003360874950885772705078125</LongitudeDegrees>
            </Position>
            <AltitudeMeters>150.600006103515625</AltitudeMeters>
            <DistanceMeters>13575.149350697</DistanceMeters>
          </Trackpoint>
          <Trackpoint>
            <Time>2020-04-26T17:03:25.000Z</Time>
            <Position>
              <LatitudeDegrees>38.54976869188249111175537109375</LatitudeDegrees>
              <LongitudeDegrees>-28.62006495706737041473388671875</LongitudeDegrees>
            </Position>
            <AltitudeMeters>151.1999969482421875</AltitudeMeters>
            <DistanceMeters>13588.693241308</DistanceMeters>
          </Trackpoint>
          <Trackpoint>
            <Time>2020-04-26T17:03:27.000Z</Time>
            <Position>
              <LatitudeDegrees>38.54984379373490810394287109375</LatitudeDegrees>
              <LongitudeDegrees>-28.620103262364864349365234375</LongitudeDegrees>
            </Position>
            <AltitudeMeters>151.8000030517578125</AltitudeMeters>
            <DistanceMeters>13597.692226003</DistanceMeters>
          </Trackpoint>
          <Trackpoint>
            <Time>2020-04-26T17:03:28.000Z</Time>
            <Position>
              <LatitudeDegrees>38.54987815953791141510009765625</LatitudeDegrees>
              <LongitudeDegrees>-28.62013050355017185211181640625</LongitudeDegrees>
            </Position>
            <AltitudeMeters>152</AltitudeMeters>
            <DistanceMeters>13602.191718351</DistanceMeters>
          </Trackpoint>
          <Trackpoint>
            <Time>2020-04-26T17:03:29.000Z</Time>
            <Position>
              <LatitudeDegrees>38.5499127767980098724365234375</LatitudeDegrees>
              <LongitudeDegrees>-28.6201594211161136627197265625</LongitudeDegrees>
            </Position>
            <AltitudeMeters>152.1999969482421875</AltitudeMeters>
            <DistanceMeters>13606.793406004</DistanceMeters>
          </Trackpoint>
          <Trackpoint>
            <Time>2020-04-26T17:03:35.000Z</Time>
            <Position>
              <LatitudeDegrees>38.5501012019813060760498046875</LatitudeDegrees>
              <LongitudeDegrees>-28.6203568987548351287841796875</LongitudeDegrees>
            </Position>
            <AltitudeMeters>153.1999969482421875</AltitudeMeters>
            <DistanceMeters>13633.909841328</DistanceMeters>
          </Trackpoint>
          <Trackpoint>
            <Time>2020-04-26T17:03:37.000Z</Time>
            <Position>
              <LatitudeDegrees>38.55015392415225505828857421875</LatitudeDegrees>
              <LongitudeDegrees>-28.62042487598955631256103515625</LongitudeDegrees>
            </Position>
            <AltitudeMeters>153.8000030517578125</AltitudeMeters>
            <DistanceMeters>13642.242985264</DistanceMeters>
          </Trackpoint>
          <Trackpoint>
            <Time>2020-04-26T17:03:38.000Z</Time>
            <Position>
              <LatitudeDegrees>38.5501769743859767913818359375</LatitudeDegrees>
              <LongitudeDegrees>-28.6204568110406398773193359375</LongitudeDegrees>
            </Position>
            <AltitudeMeters>154.399993896484375</AltitudeMeters>
            <DistanceMeters>13646.027387627</DistanceMeters>
          </Trackpoint>
          <Trackpoint>
            <Time>2020-04-26T17:03:40.000Z</Time>
            <Position>
              <LatitudeDegrees>38.55022517032921314239501953125</LatitudeDegrees>
              <LongitudeDegrees>-28.6205327510833740234375</LongitudeDegrees>
            </Position>
            <AltitudeMeters>154.600006103515625</AltitudeMeters>
            <DistanceMeters>13654.540635746</DistanceMeters>
          </Trackpoint>
          <Trackpoint>
            <Time>2020-04-26T17:03:43.000Z</Time>
            <Position>
              <LatitudeDegrees>38.55030932463705539703369140625</LatitudeDegrees>
              <LongitudeDegrees>-28.62064012326300144195556640625</LongitudeDegrees>
            </Position>
            <AltitudeMeters>155.399993896484375</AltitudeMeters>
            <DistanceMeters>13667.772231345</DistanceMeters>
          </Trackpoint>
          <Trackpoint>
            <Time>2020-04-26T17:03:45.000Z</Time>
            <Position>
              <LatitudeDegrees>38.55036632157862186431884765625</LatitudeDegrees>
              <LongitudeDegrees>-28.620713464915752410888671875</LongitudeDegrees>
            </Position>
            <AltitudeMeters>156</AltitudeMeters>
            <DistanceMeters>13676.772219439</DistanceMeters>
          </Trackpoint>
          <Trackpoint>
            <Time>2020-04-26T17:03:46.000Z</Time>
            <Position>
              <LatitudeDegrees>38.5503938980400562286376953125</LatitudeDegrees>
              <LongitudeDegrees>-28.62074942328035831451416015625</LongitudeDegrees>
            </Position>
            <AltitudeMeters>156.399993896484375</AltitudeMeters>
            <DistanceMeters>13681.155825566</DistanceMeters>
          </Trackpoint>
          <Trackpoint>
            <Time>2020-04-26T17:03:48.000Z</Time>
            <Position>
              <LatitudeDegrees>38.55044544674456119537353515625</LatitudeDegrees>
              <LongitudeDegrees>-28.62082779407501220703125</LongitudeDegrees>
            </Position>
            <AltitudeMeters>157.1999969482421875</AltitudeMeters>
            <DistanceMeters>13690.069615031</DistanceMeters>
          </Trackpoint>
          <Trackpoint>
            <Time>2020-04-26T17:03:49.000Z</Time>
            <Position>
              <LatitudeDegrees>38.5504703409969806671142578125</LatitudeDegrees>
              <LongitudeDegrees>-28.62086693756282329559326171875</LongitudeDegrees>
            </Position>
            <AltitudeMeters>157.600006103515625</AltitudeMeters>
            <DistanceMeters>13694.461453289</DistanceMeters>
          </Trackpoint>
          <Trackpoint>
            <Time>2020-04-26T17:03:51.000Z</Time>
            <Position>
              <LatitudeDegrees>38.55051753111183643341064453125</LatitudeDegrees>
              <LongitudeDegrees>-28.6209456436336040496826171875</LongitudeDegrees>
            </Position>
            <AltitudeMeters>158.8000030517578125</AltitudeMeters>
            <DistanceMeters>13703.094775417</DistanceMeters>
          </Trackpoint>
          <Trackpoint>
            <Time>2020-04-26T17:03:53.000Z</Time>
            <Position>
              <LatitudeDegrees>38.5505615361034870147705078125</LatitudeDegrees>
              <LongitudeDegrees>-28.6210254393517971038818359375</LongitudeDegrees>
            </Position>
            <AltitudeMeters>159.399993896484375</AltitudeMeters>
            <DistanceMeters>13711.593691905</DistanceMeters>
          </Trackpoint>
          <Trackpoint>
            <Time>2020-04-26T17:03:55.000Z</Time>
            <Position>
              <LatitudeDegrees>38.550617694854736328125</LatitudeDegrees>
              <LongitudeDegrees>-28.621102385222911834716796875</LongitudeDegrees>
            </Position>
            <AltitudeMeters>159.8000030517578125</AltitudeMeters>
            <DistanceMeters>13720.755272585</DistanceMeters>
          </Trackpoint>
          <Trackpoint>
            <Time>2020-04-26T17:03:57.000Z</Time>
            <Position>
              <LatitudeDegrees>38.550658263266086578369140625</LatitudeDegrees>
              <LongitudeDegrees>-28.62118519842624664306640625</LongitudeDegrees>
            </Position>
            <AltitudeMeters>161</AltitudeMeters>
            <DistanceMeters>13729.261092502</DistanceMeters>
          </Trackpoint>
          <Trackpoint>
            <Time>2020-04-26T17:03:59.000Z</Time>
            <Position>
              <LatitudeDegrees>38.55069036595523357391357421875</LatitudeDegrees>
              <LongitudeDegrees>-28.6212668381631374359130859375</LongitudeDegrees>
            </Position>
            <AltitudeMeters>162.600006103515625</AltitudeMeters>
            <DistanceMeters>13737.216139688</DistanceMeters>
          </Trackpoint>
          <Trackpoint>
            <Time>2020-04-26T17:04:03.000Z</Time>
            <Position>
              <LatitudeDegrees>38.55075038038194179534912109375</LatitudeDegrees>
              <LongitudeDegrees>-28.62145819701254367828369140625</LongitudeDegrees>
            </Position>
            <AltitudeMeters>163.600006103515625</AltitudeMeters>
            <DistanceMeters>13755.162356739</DistanceMeters>
          </Trackpoint>
          <Trackpoint>
            <Time>2020-04-26T17:04:05.000Z</Time>
            <Position>
              <LatitudeDegrees>38.5507737658917903900146484375</LatitudeDegrees>
              <LongitudeDegrees>-28.62155425362288951873779296875</LongitudeDegrees>
            </Position>
            <AltitudeMeters>163.8000030517578125</AltitudeMeters>
            <DistanceMeters>13763.918747496</DistanceMeters>
          </Trackpoint>
          <Trackpoint>
            <Time>2020-04-26T17:04:08.000Z</Time>
            <Position>
              <LatitudeDegrees>38.5508096404373645782470703125</LatitudeDegrees>
              <LongitudeDegrees>-28.62169423140585422515869140625</LongitudeDegrees>
            </Position>
            <AltitudeMeters>164.8000030517578125</AltitudeMeters>
            <DistanceMeters>13776.739960839</DistanceMeters>
          </Trackpoint>
          <Trackpoint>
            <Time>2020-04-26T17:04:14.000Z</Time>
            <Position>
              <LatitudeDegrees>38.5508726723492145538330078125</LatitudeDegrees>
              <LongitudeDegrees>-28.62197871319949626922607421875</LongitudeDegrees>
            </Position>
            <AltitudeMeters>165.8000030517578125</AltitudeMeters>
            <DistanceMeters>13802.476942547</DistanceMeters>
          </Trackpoint>
          <Trackpoint>
            <Time>2020-04-26T17:04:21.000Z</Time>
            <Position>
              <LatitudeDegrees>38.550962693989276885986328125</LatitudeDegrees>
              <LongitudeDegrees>-28.62230879254639148712158203125</LongitudeDegrees>
            </Position>
            <AltitudeMeters>167</AltitudeMeters>
            <DistanceMeters>13832.905380859</DistanceMeters>
          </Trackpoint>
          <Trackpoint>
            <Time>2020-04-26T17:04:22.000Z</Time>
            <Position>
              <LatitudeDegrees>38.55097350664436817169189453125</LatitudeDegrees>
              <LongitudeDegrees>-28.62235690467059612274169921875</LongitudeDegrees>
            </Position>
            <AltitudeMeters>167.399993896484375</AltitudeMeters>
            <DistanceMeters>13837.262125135</DistanceMeters>
          </Trackpoint>
          <Trackpoint>
            <Time>2020-04-26T17:04:23.000Z</Time>
            <Position>
              <LatitudeDegrees>38.55098507367074489593505859375</LatitudeDegrees>
              <LongitudeDegrees>-28.62240451388061046600341796875</LongitudeDegrees>
            </Position>
            <AltitudeMeters>168.1999969482421875</AltitudeMeters>
            <DistanceMeters>13841.602256408</DistanceMeters>
          </Trackpoint>
          <Trackpoint>
            <Time>2020-04-26T17:04:31.000Z</Time>
            <Position>
              <LatitudeDegrees>38.55108716525137424468994140625</LatitudeDegrees>
              <LongitudeDegrees>-28.62279075197875499725341796875</LongitudeDegrees>
            </Position>
            <AltitudeMeters>169.1999969482421875</AltitudeMeters>
            <DistanceMeters>13877.090376976</DistanceMeters>
          </Trackpoint>
          <Trackpoint>
            <Time>2020-04-26T17:04:33.000Z</Time>
            <Position>
              <LatitudeDegrees>38.5511134006083011627197265625</LatitudeDegrees>
              <LongitudeDegrees>-28.62289099954068660736083984375</LongitudeDegrees>
            </Position>
            <AltitudeMeters>169.399993896484375</AltitudeMeters>
            <DistanceMeters>13886.291789734</DistanceMeters>
          </Trackpoint>
          <Trackpoint>
            <Time>2020-04-26T17:04:37.000Z</Time>
            <Position>
              <LatitudeDegrees>38.55116419494152069091796875</LatitudeDegrees>
              <LongitudeDegrees>-28.6230904050171375274658203125</LongitudeDegrees>
            </Position>
            <AltitudeMeters>170.600006103515625</AltitudeMeters>
            <DistanceMeters>13904.545825474</DistanceMeters>
          </Trackpoint>
          <Trackpoint>
            <Time>2020-04-26T17:04:40.000Z</Time>
            <Position>
              <LatitudeDegrees>38.5512042604386806488037109375</LatitudeDegrees>
              <LongitudeDegrees>-28.62323834560811519622802734375</LongitudeDegrees>
            </Position>
            <AltitudeMeters>171</AltitudeMeters>
            <DistanceMeters>13918.173133427</DistanceMeters>
          </Trackpoint>
          <Trackpoint>
            <Time>2020-04-26T17:04:42.000Z</Time>
            <Position>
              <LatitudeDegrees>38.5512297414243221282958984375</LatitudeDegrees>
              <LongitudeDegrees>-28.62333222292363643646240234375</LongitudeDegrees>
            </Position>
            <AltitudeMeters>171.600006103515625</AltitudeMeters>
            <DistanceMeters>13926.822652682</DistanceMeters>
          </Trackpoint>
          <Trackpoint>
            <Time>2020-04-26T17:04:46.000Z</Time>
            <Position>
              <LatitudeDegrees>38.55127684772014617919921875</LatitudeDegrees>
              <LongitudeDegrees>-28.62352316267788410186767578125</LongitudeDegrees>
            </Position>
            <AltitudeMeters>172.8000030517578125</AltitudeMeters>
            <DistanceMeters>13944.250147944</DistanceMeters>
          </Trackpoint>
          <Trackpoint>
            <Time>2020-04-26T17:04:49.000Z</Time>
            <Position>
              <LatitudeDegrees>38.55131314136087894439697265625</LatitudeDegrees>
              <LongitudeDegrees>-28.62367202527821063995361328125</LongitudeDegrees>
            </Position>
            <AltitudeMeters>173.600006103515625</AltitudeMeters>
            <DistanceMeters>13957.82234487</DistanceMeters>
          </Trackpoint>
          <Trackpoint>
            <Time>2020-04-26T17:04:50.000Z</Time>
            <Position>
              <LatitudeDegrees>38.5513279773294925689697265625</LatitudeDegrees>
              <LongitudeDegrees>-28.62372214905917644500732421875</LongitudeDegrees>
            </Position>
            <AltitudeMeters>173.8000030517578125</AltitudeMeters>
            <DistanceMeters>13962.486404706</DistanceMeters>
          </Trackpoint>
          <Trackpoint>
            <Time>2020-04-26T17:04:54.000Z</Time>
            <Position>
              <LatitudeDegrees>38.5513903386890888214111328125</LatitudeDegrees>
              <LongitudeDegrees>-28.62391426227986812591552734375</LongitudeDegrees>
            </Position>
            <AltitudeMeters>174.8000030517578125</AltitudeMeters>
            <DistanceMeters>13980.59192417</DistanceMeters>
          </Trackpoint>
          <Trackpoint>
            <Time>2020-04-26T17:04:57.000Z</Time>
            <Position>
              <LatitudeDegrees>38.55143367312848567962646484375</LatitudeDegrees>
              <LongitudeDegrees>-28.62405055202543735504150390625</LongitudeDegrees>
            </Position>
            <AltitudeMeters>175.399993896484375</AltitudeMeters>
            <DistanceMeters>13993.398338515</DistanceMeters>
          </Trackpoint>
          <Trackpoint>
            <Time>2020-04-26T17:04:59.000Z</Time>
            <Position>
              <LatitudeDegrees>38.55146854184567928314208984375</LatitudeDegrees>
              <LongitudeDegrees>-28.624141998589038848876953125</LongitudeDegrees>
            </Position>
            <AltitudeMeters>176</AltitudeMeters>
            <DistanceMeters>14002.253686269</DistanceMeters>
          </Trackpoint>
          <Trackpoint>
            <Time>2020-04-26T17:05:04.000Z</Time>
            <Position>
              <LatitudeDegrees>38.55155956931412220001220703125</LatitudeDegrees>
              <LongitudeDegrees>-28.62436487339437007904052734375</LongitudeDegrees>
            </Position>
            <AltitudeMeters>177</AltitudeMeters>
            <DistanceMeters>14024.13955785</DistanceMeters>
          </Trackpoint>
          <Trackpoint>
            <Time>2020-04-26T17:05:05.000Z</Time>
            <Position>
              <LatitudeDegrees>38.5515797697007656097412109375</LatitudeDegrees>
              <LongitudeDegrees>-28.62440653145313262939453125</LongitudeDegrees>
            </Position>
            <AltitudeMeters>177.1999969482421875</AltitudeMeters>
            <DistanceMeters>14028.407304819</DistanceMeters>
          </Trackpoint>
          <Trackpoint>
            <Time>2020-04-26T17:05:10.000Z</Time>
            <Position>
              <LatitudeDegrees>38.5516592301428318023681640625</LatitudeDegrees>
              <LongitudeDegrees>-28.62463091500103473663330078125</LongitudeDegrees>
            </Position>
            <AltitudeMeters>178.399993896484375</AltitudeMeters>
            <DistanceMeters>14049.847572342</DistanceMeters>
          </Trackpoint>
          <Trackpoint>
            <Time>2020-04-26T17:05:13.000Z</Time>
            <Position>
              <LatitudeDegrees>38.55172184295952320098876953125</LatitudeDegrees>
              <LongitudeDegrees>-28.62476100213825702667236328125</LongitudeDegrees>
            </Position>
            <AltitudeMeters>179.600006103515625</AltitudeMeters>
            <DistanceMeters>14063.143843873</DistanceMeters>
          </Trackpoint>
          <Trackpoint>
            <Time>2020-04-26T17:05:17.000Z</Time>
            <Position>
              <LatitudeDegrees>38.55179107747972011566162109375</LatitudeDegrees>
              <LongitudeDegrees>-28.62493266351521015167236328125</LongitudeDegrees>
            </Position>
            <AltitudeMeters>180</AltitudeMeters>
            <DistanceMeters>14079.955785839</DistanceMeters>
          </Trackpoint>
          <Trackpoint>
            <Time>2020-04-26T17:05:21.000Z</Time>
            <Position>
              <LatitudeDegrees>38.5518406145274639129638671875</LatitudeDegrees>
              <LongitudeDegrees>-28.6251018941402435302734375</LongitudeDegrees>
            </Position>
            <AltitudeMeters>180.600006103515625</AltitudeMeters>
            <DistanceMeters>14095.683783618</DistanceMeters>
          </Trackpoint>
          <Trackpoint>
            <Time>2020-04-26T17:05:23.000Z</Time>
            <Position>
              <LatitudeDegrees>38.55187774635851383209228515625</LatitudeDegrees>
              <LongitudeDegrees>-28.625184036791324615478515625</LongitudeDegrees>
            </Position>
            <AltitudeMeters>181.399993896484375</AltitudeMeters>
            <DistanceMeters>14103.942911747</DistanceMeters>
          </Trackpoint>
          <Trackpoint>
            <Time>2020-04-26T17:05:25.000Z</Time>
            <Position>
              <LatitudeDegrees>38.55191647075116634368896484375</LatitudeDegrees>
              <LongitudeDegrees>-28.62526416778564453125</LongitudeDegrees>
            </Position>
            <AltitudeMeters>182</AltitudeMeters>
            <DistanceMeters>14112.141685378</DistanceMeters>
          </Trackpoint>
          <Trackpoint>
            <Time>2020-04-26T17:05:30.000Z</Time>
            <Position>
              <LatitudeDegrees>38.55200246907770633697509765625</LatitudeDegrees>
              <LongitudeDegrees>-28.6254628188908100128173828125</LongitudeDegrees>
            </Position>
            <AltitudeMeters>183</AltitudeMeters>
            <DistanceMeters>14131.905414445</DistanceMeters>
          </Trackpoint>
          <Trackpoint>
            <Time>2020-04-26T17:05:31.000Z</Time>
            <Position>
              <LatitudeDegrees>38.552018143236637115478515625</LatitudeDegrees>
              <LongitudeDegrees>-28.62550489604473114013671875</LongitudeDegrees>
            </Position>
            <AltitudeMeters>183.1999969482421875</AltitudeMeters>
            <DistanceMeters>14135.963845107</DistanceMeters>
          </Trackpoint>
          <Trackpoint>
            <Time>2020-04-26T17:05:35.000Z</Time>
            <Position>
              <LatitudeDegrees>38.55208477936685085296630859375</LatitudeDegrees>
              <LongitudeDegrees>-28.62567655742168426513671875</LongitudeDegrees>
            </Position>
            <AltitudeMeters>184.600006103515625</AltitudeMeters>
            <DistanceMeters>14152.645296953</DistanceMeters>
          </Trackpoint>
          <Trackpoint>
            <Time>2020-04-26T17:05:38.000Z</Time>
            <Position>
              <LatitudeDegrees>38.55213783681392669677734375</LatitudeDegrees>
              <LongitudeDegrees>-28.6258048005402088165283203125</LongitudeDegrees>
            </Position>
            <AltitudeMeters>185.1999969482421875</AltitudeMeters>
            <DistanceMeters>14165.273843191</DistanceMeters>
          </Trackpoint>
          <Trackpoint>
            <Time>2020-04-26T17:05:40.000Z</Time>
            <Position>
              <LatitudeDegrees>38.55217161588370800018310546875</LatitudeDegrees>
              <LongitudeDegrees>-28.62589289434254169464111328125</LongitudeDegrees>
            </Position>
            <AltitudeMeters>185.600006103515625</AltitudeMeters>
            <DistanceMeters>14173.81409655</DistanceMeters>
          </Trackpoint>
          <Trackpoint>
            <Time>2020-04-26T17:05:47.000Z</Time>
            <Position>
              <LatitudeDegrees>38.55230555869638919830322265625</LatitudeDegrees>
              <LongitudeDegrees>-28.626260273158550262451171875</LongitudeDegrees>
            </Position>
            <AltitudeMeters>185.8000030517578125</AltitudeMeters>
            <DistanceMeters>14209.096019654</DistanceMeters>
          </Trackpoint>
          <Trackpoint>
            <Time>2020-04-26T17:05:52.000Z</Time>
            <Position>
              <LatitudeDegrees>38.5524501465260982513427734375</LatitudeDegrees>
              <LongitudeDegrees>-28.6266282387077808380126953125</LongitudeDegrees>
            </Position>
            <AltitudeMeters>185.1999969482421875</AltitudeMeters>
            <DistanceMeters>14244.940368394</DistanceMeters>
          </Trackpoint>
          <Trackpoint>
            <Time>2020-04-26T17:05:54.000Z</Time>
            <Position>
              <LatitudeDegrees>38.55254352092742919921875</LatitudeDegrees>
              <LongitudeDegrees>-28.62678875215351581573486328125</LongitudeDegrees>
            </Position>
            <AltitudeMeters>184.600006103515625</AltitudeMeters>
            <DistanceMeters>14262.353349381</DistanceMeters>
          </Trackpoint>
          <Trackpoint>
            <Time>2020-04-26T17:05:56.000Z</Time>
            <Position>
              <LatitudeDegrees>38.55266765691339969635009765625</LatitudeDegrees>
              <LongitudeDegrees>-28.6269162409007549285888671875</LongitudeDegrees>
            </Position>
            <AltitudeMeters>184.8000030517578125</AltitudeMeters>
            <DistanceMeters>14280.074748834</DistanceMeters>
          </Trackpoint>
          <Trackpoint>
            <Time>2020-04-26T17:05:58.000Z</Time>
            <Position>
              <LatitudeDegrees>38.55280059389770030975341796875</LatitudeDegrees>
              <LongitudeDegrees>-28.6270288936793804168701171875</LongitudeDegrees>
            </Position>
            <AltitudeMeters>184.600006103515625</AltitudeMeters>
            <DistanceMeters>14297.825169316</DistanceMeters>
          </Trackpoint>
          <Trackpoint>
            <Time>2020-04-26T17:06:01.000Z</Time>
            <Position>
              <LatitudeDegrees>38.55297409929335117340087890625</LatitudeDegrees>
              <LongitudeDegrees>-28.62722821533679962158203125</LongitudeDegrees>
            </Position>
            <AltitudeMeters>183.1999969482421875</AltitudeMeters>
            <DistanceMeters>14323.785382434</DistanceMeters>
          </Trackpoint>
          <Trackpoint>
            <Time>2020-04-26T17:06:03.000Z</Time>
            <Position>
              <LatitudeDegrees>38.5530023463070392608642578125</LatitudeDegrees>
              <LongitudeDegrees>-28.62742711789906024932861328125</LongitudeDegrees>
            </Position>
            <AltitudeMeters>182.600006103515625</AltitudeMeters>
            <DistanceMeters>14341.381497378</DistanceMeters>
          </Trackpoint>
          <Trackpoint>
            <Time>2020-04-26T17:06:07.000Z</Time>
            <Position>
              <LatitudeDegrees>38.5529849119484424591064453125</LatitudeDegrees>
              <LongitudeDegrees>-28.627772033214569091796875</LongitudeDegrees>
            </Position>
            <AltitudeMeters>184.8000030517578125</AltitudeMeters>
            <DistanceMeters>14371.466120726</DistanceMeters>
          </Trackpoint>
          <Trackpoint>
            <Time>2020-04-26T17:06:10.000Z</Time>
            <Position>
              <LatitudeDegrees>38.55305456556379795074462890625</LatitudeDegrees>
              <LongitudeDegrees>-28.62796423025429248809814453125</LongitudeDegrees>
            </Position>
            <AltitudeMeters>186.1999969482421875</AltitudeMeters>
            <DistanceMeters>14389.90424205</DistanceMeters>
          </Trackpoint>
          <Trackpoint>
            <Time>2020-04-26T17:06:13.000Z</Time>
            <Position>
              <LatitudeDegrees>38.5531733371317386627197265625</LatitudeDegrees>
              <LongitudeDegrees>-28.62807621248066425323486328125</LongitudeDegrees>
            </Position>
            <AltitudeMeters>187.399993896484375</AltitudeMeters>
            <DistanceMeters>14406.328751287</DistanceMeters>
          </Trackpoint>
          <Trackpoint>
            <Time>2020-04-26T17:06:14.000Z</Time>
            <Position>
              <LatitudeDegrees>38.55321231298148632049560546875</LatitudeDegrees>
              <LongitudeDegrees>-28.62811393104493618011474609375</LongitudeDegrees>
            </Position>
            <AltitudeMeters>187.600006103515625</AltitudeMeters>
            <DistanceMeters>14411.769393766</DistanceMeters>
          </Trackpoint>
          <Trackpoint>
            <Time>2020-04-26T17:06:16.000Z</Time>
            <Position>
              <LatitudeDegrees>38.5532906837761402130126953125</LatitudeDegrees>
              <LongitudeDegrees>-28.62819246947765350341796875</LongitudeDegrees>
            </Position>
            <AltitudeMeters>188.600006103515625</AltitudeMeters>
            <DistanceMeters>14422.851725187</DistanceMeters>
          </Trackpoint>
          <Trackpoint>
            <Time>2020-04-26T17:06:19.000Z</Time>
            <Position>
              <LatitudeDegrees>38.553408868610858917236328125</LatitudeDegrees>
              <LongitudeDegrees>-28.6283076368272304534912109375</LongitudeDegrees>
            </Position>
            <AltitudeMeters>189.8000030517578125</AltitudeMeters>
            <DistanceMeters>14439.390195959</DistanceMeters>
          </Trackpoint>
          <Trackpoint>
            <Time>2020-04-26T17:06:23.000Z</Time>
            <Position>
              <LatitudeDegrees>38.55357206426560878753662109375</LatitudeDegrees>
              <LongitudeDegrees>-28.62846873700618743896484375</LongitudeDegrees>
            </Position>
            <AltitudeMeters>191</AltitudeMeters>
            <DistanceMeters>14462.336934017</DistanceMeters>
          </Trackpoint>
          <Trackpoint>
            <Time>2020-04-26T17:06:26.000Z</Time>
            <Position>
              <LatitudeDegrees>38.5537062585353851318359375</LatitudeDegrees>
              <LongitudeDegrees>-28.6285929568111896514892578125</LongitudeDegrees>
            </Position>
            <AltitudeMeters>190.8000030517578125</AltitudeMeters>
            <DistanceMeters>14480.775545085</DistanceMeters>
          </Trackpoint>
          <Trackpoint>
            <Time>2020-04-26T17:06:34.000Z</Time>
            <Position>
              <LatitudeDegrees>38.55409241281449794769287109375</LatitudeDegrees>
              <LongitudeDegrees>-28.628935106098651885986328125</LongitudeDegrees>
            </Position>
            <AltitudeMeters>191</AltitudeMeters>
            <DistanceMeters>14533.064593708</DistanceMeters>
          </Trackpoint>
          <Trackpoint>
            <Time>2020-04-26T17:06:43.000Z</Time>
            <Position>
              <LatitudeDegrees>38.55454637669026851654052734375</LatitudeDegrees>
              <LongitudeDegrees>-28.6293446458876132965087890625</LongitudeDegrees>
            </Position>
            <AltitudeMeters>191.1999969482421875</AltitudeMeters>
            <DistanceMeters>14594.900339431</DistanceMeters>
          </Trackpoint>
          <Trackpoint>
            <Time>2020-04-26T17:06:46.000Z</Time>
            <Position>
              <LatitudeDegrees>38.5546986758708953857421875</LatitudeDegrees>
              <LongitudeDegrees>-28.62948236055672168731689453125</LongitudeDegrees>
            </Position>
            <AltitudeMeters>191.1999969482421875</AltitudeMeters>
            <DistanceMeters>14615.661447514</DistanceMeters>
          </Trackpoint>
          <Trackpoint>
            <Time>2020-04-26T17:06:52.000Z</Time>
            <Position>
              <LatitudeDegrees>38.5550012625753879547119140625</LatitudeDegrees>
              <LongitudeDegrees>-28.6297949217259883880615234375</LongitudeDegrees>
            </Position>
            <AltitudeMeters>191.8000030517578125</AltitudeMeters>
            <DistanceMeters>14658.955268174</DistanceMeters>
          </Trackpoint>
          <Trackpoint>
            <Time>2020-04-26T17:06:54.000Z</Time>
            <Position>
              <LatitudeDegrees>38.5550820641219615936279296875</LatitudeDegrees>
              <LongitudeDegrees>-28.62992157228291034698486328125</LongitudeDegrees>
            </Position>
            <AltitudeMeters>192</AltitudeMeters>
            <DistanceMeters>14673.182008258</DistanceMeters>
          </Trackpoint>
          <Trackpoint>
            <Time>2020-04-26T17:07:01.000Z</Time>
            <Position>
              <LatitudeDegrees>38.555354140698909759521484375</LatitudeDegrees>
              <LongitudeDegrees>-28.630368411540985107421875</LongitudeDegrees>
            </Position>
            <AltitudeMeters>192.1999969482421875</AltitudeMeters>
            <DistanceMeters>14722.473675792</DistanceMeters>
          </Trackpoint>
          <Trackpoint>
            <Time>2020-04-26T17:07:04.000Z</Time>
            <Position>
              <LatitudeDegrees>38.55546771548688411712646484375</LatitudeDegrees>
              <LongitudeDegrees>-28.6305593512952327728271484375</LongitudeDegrees>
            </Position>
            <AltitudeMeters>193</AltitudeMeters>
            <DistanceMeters>14743.354052965</DistanceMeters>
          </Trackpoint>
          <Trackpoint>
            <Time>2020-04-26T17:07:07.000Z</Time>
            <Position>
              <LatitudeDegrees>38.55557668022811412811279296875</LatitudeDegrees>
              <LongitudeDegrees>-28.630743920803070068359375</LongitudeDegrees>
            </Position>
            <AltitudeMeters>193.399993896484375</AltitudeMeters>
            <DistanceMeters>14763.482676114</DistanceMeters>
          </Trackpoint>
          <Trackpoint>
            <Time>2020-04-26T17:07:11.000Z</Time>
            <Position>
              <LatitudeDegrees>38.5557009838521480560302734375</LatitudeDegrees>
              <LongitudeDegrees>-28.63100669346749782562255859375</LongitudeDegrees>
            </Position>
            <AltitudeMeters>194.1999969482421875</AltitudeMeters>
            <DistanceMeters>14790.213067595</DistanceMeters>
          </Trackpoint>
          <Trackpoint>
            <Time>2020-04-26T17:07:12.000Z</Time>
            <Position>
              <LatitudeDegrees>38.5557214356958866119384765625</LatitudeDegrees>
              <LongitudeDegrees>-28.63107576034963130950927734375</LongitudeDegrees>
            </Position>
            <AltitudeMeters>194.399993896484375</AltitudeMeters>
            <DistanceMeters>14796.640555419</DistanceMeters>
          </Trackpoint>
          <Trackpoint>
            <Time>2020-04-26T17:07:17.000Z</Time>
            <Position>
              <LatitudeDegrees>38.55578069575130939483642578125</LatitudeDegrees>
              <LongitudeDegrees>-28.63144724629819393157958984375</LongitudeDegrees>
            </Position>
            <AltitudeMeters>195.399993896484375</AltitudeMeters>
            <DistanceMeters>14829.639873268</DistanceMeters>
          </Trackpoint>
          <Trackpoint>
            <Time>2020-04-26T17:07:18.000Z</Time>
            <Position>
              <LatitudeDegrees>38.5557884909212589263916015625</LatitudeDegrees>
              <LongitudeDegrees>-28.63152435980737209320068359375</LongitudeDegrees>
            </Position>
            <AltitudeMeters>195.600006103515625</AltitudeMeters>
            <DistanceMeters>14836.407483461</DistanceMeters>
          </Trackpoint>
          <Trackpoint>
            <Time>2020-04-26T17:07:21.000Z</Time>
            <Position>
              <LatitudeDegrees>38.55581648647785186767578125</LatitudeDegrees>
              <LongitudeDegrees>-28.6317529343068599700927734375</LongitudeDegrees>
            </Position>
            <AltitudeMeters>196.399993896484375</AltitudeMeters>
            <DistanceMeters>14856.544628562</DistanceMeters>
          </Trackpoint>
          <Trackpoint>
            <Time>2020-04-26T17:07:26.000Z</Time>
            <Position>
              <LatitudeDegrees>38.55586099438369274139404296875</LatitudeDegrees>
              <LongitudeDegrees>-28.63212467171251773834228515625</LongitudeDegrees>
            </Position>
            <AltitudeMeters>197.600006103515625</AltitudeMeters>
            <DistanceMeters>14889.277159324</DistanceMeters>
          </Trackpoint>
          <Trackpoint>
            <Time>2020-04-26T17:07:27.000Z</Time>
            <Position>
              <LatitudeDegrees>38.55587147176265716552734375</LatitudeDegrees>
              <LongitudeDegrees>-28.6321981810033321380615234375</LongitudeDegrees>
            </Position>
            <AltitudeMeters>197.8000030517578125</AltitudeMeters>
            <DistanceMeters>14895.780764329</DistanceMeters>
          </Trackpoint>
          <Trackpoint>
            <Time>2020-04-26T17:07:32.000Z</Time>
            <Position>
              <LatitudeDegrees>38.555922098457813262939453125</LatitudeDegrees>
              <LongitudeDegrees>-28.6325611174106597900390625</LongitudeDegrees>
            </Position>
            <AltitudeMeters>198.600006103515625</AltitudeMeters>
            <DistanceMeters>14927.868853029</DistanceMeters>
          </Trackpoint>
          <Trackpoint>
            <Time>2020-04-26T17:07:36.000Z</Time>
            <Position>
              <LatitudeDegrees>38.555979095399379730224609375</LatitudeDegrees>
              <LongitudeDegrees>-28.63283394835889339447021484375</LongitudeDegrees>
            </Position>
            <AltitudeMeters>199.8000030517578125</AltitudeMeters>
            <DistanceMeters>14952.448647466</DistanceMeters>
          </Trackpoint>
          <Trackpoint>
            <Time>2020-04-26T17:07:40.000Z</Time>
            <Position>
              <LatitudeDegrees>38.55608898214995861053466796875</LatitudeDegrees>
              <LongitudeDegrees>-28.63305456005036830902099609375</LongitudeDegrees>
            </Position>
            <AltitudeMeters>200.8000030517578125</AltitudeMeters>
            <DistanceMeters>14975.214636739</DistanceMeters>
          </Trackpoint>
          <Trackpoint>
            <Time>2020-04-26T17:07:41.000Z</Time>
            <Position>
              <LatitudeDegrees>38.55611664243042469024658203125</LatitudeDegrees>
              <LongitudeDegrees>-28.6331044323742389678955078125</LongitudeDegrees>
            </Position>
            <AltitudeMeters>201</AltitudeMeters>
            <DistanceMeters>14980.536981129</DistanceMeters>
          </Trackpoint>
          <Trackpoint>
            <Time>2020-04-26T17:07:44.000Z</Time>
            <Position>
              <LatitudeDegrees>38.55618520639836788177490234375</LatitudeDegrees>
              <LongitudeDegrees>-28.6332719027996063232421875</LongitudeDegrees>
            </Position>
            <AltitudeMeters>201.8000030517578125</AltitudeMeters>
            <DistanceMeters>14996.990054752</DistanceMeters>
          </Trackpoint>
          <Trackpoint>
            <Time>2020-04-26T17:07:46.000Z</Time>
            <Position>
              <LatitudeDegrees>38.556217141449451446533203125</LatitudeDegrees>
              <LongitudeDegrees>-28.63339972682297229766845703125</LongitudeDegrees>
            </Position>
            <AltitudeMeters>202.399993896484375</AltitudeMeters>
            <DistanceMeters>15008.669452629</DistanceMeters>
          </Trackpoint>
          <Trackpoint>
            <Time>2020-04-26T17:07:49.000Z</Time>
            <Position>
              <LatitudeDegrees>38.5562474839389324188232421875</LatitudeDegrees>
              <LongitudeDegrees>-28.63359821029007434844970703125</LongitudeDegrees>
            </Position>
            <AltitudeMeters>203</AltitudeMeters>
            <DistanceMeters>15026.272237723</DistanceMeters>
          </Trackpoint>
          <Trackpoint>
            <Time>2020-04-26T17:07:53.000Z</Time>
            <Position>
              <LatitudeDegrees>38.5562833584845066070556640625</LatitudeDegrees>
              <LongitudeDegrees>-28.633844889700412750244140625</LongitudeDegrees>
            </Position>
            <AltitudeMeters>204</AltitudeMeters>
            <DistanceMeters>15048.11102243</DistanceMeters>
          </Trackpoint>
          <Trackpoint>
            <Time>2020-04-26T17:07:57.000Z</Time>
            <Position>
              <LatitudeDegrees>38.556348569691181182861328125</LatitudeDegrees>
              <LongitudeDegrees>-28.6340562812983989715576171875</LongitudeDegrees>
            </Position>
            <AltitudeMeters>205.399993896484375</AltitudeMeters>
            <DistanceMeters>15067.889823499</DistanceMeters>
          </Trackpoint>
          <Trackpoint>
            <Time>2020-04-26T17:07:59.000Z</Time>
            <Position>
              <LatitudeDegrees>38.5563755594193935394287109375</LatitudeDegrees>
              <LongitudeDegrees>-28.63416717387735843658447265625</LongitudeDegrees>
            </Position>
            <AltitudeMeters>206.600006103515625</AltitudeMeters>
            <DistanceMeters>15077.998004095</DistanceMeters>
          </Trackpoint>
          <Trackpoint>
            <Time>2020-04-26T17:08:00.000Z</Time>
            <Position>
              <LatitudeDegrees>38.5563869588077068328857421875</LatitudeDegrees>
              <LongitudeDegrees>-28.634225092828273773193359375</LongitudeDegrees>
            </Position>
            <AltitudeMeters>206.8000030517578125</AltitudeMeters>
            <DistanceMeters>15083.195887195</DistanceMeters>
          </Trackpoint>
          <Trackpoint>
            <Time>2020-04-26T17:08:01.000Z</Time>
            <Position>
              <LatitudeDegrees>38.5563919879496097564697265625</LatitudeDegrees>
              <LongitudeDegrees>-28.6342856101691722869873046875</LongitudeDegrees>
            </Position>
            <AltitudeMeters>207.1999969482421875</AltitudeMeters>
            <DistanceMeters>15088.491868448</DistanceMeters>
          </Trackpoint>
          <Trackpoint>
            <Time>2020-04-26T17:08:03.000Z</Time>
            <Position>
              <LatitudeDegrees>38.5563805885612964630126953125</LatitudeDegrees>
              <LongitudeDegrees>-28.634405471384525299072265625</LongitudeDegrees>
            </Position>
            <AltitudeMeters>207.600006103515625</AltitudeMeters>
            <DistanceMeters>15099.000809161</DistanceMeters>
          </Trackpoint>
          <Trackpoint>
            <Time>2020-04-26T17:08:04.000Z</Time>
            <Position>
              <LatitudeDegrees>38.55636642314493656158447265625</LatitudeDegrees>
              <LongitudeDegrees>-28.63446322269737720489501953125</LongitudeDegrees>
            </Position>
            <AltitudeMeters>207.8000030517578125</AltitudeMeters>
            <DistanceMeters>15104.268581452</DistanceMeters>
          </Trackpoint>
          <Trackpoint>
            <Time>2020-04-26T17:08:07.000Z</Time>
            <Position>
              <LatitudeDegrees>38.55631026439368724822998046875</LatitudeDegrees>
              <LongitudeDegrees>-28.63462985493242740631103515625</LongitudeDegrees>
            </Position>
            <AltitudeMeters>208</AltitudeMeters>
            <DistanceMeters>15120.061895592</DistanceMeters>
          </Trackpoint>
          <Trackpoint>
            <Time>2020-04-26T17:08:10.000Z</Time>
            <Position>
              <LatitudeDegrees>38.55625636875629425048828125</LatitudeDegrees>
              <LongitudeDegrees>-28.63479833118617534637451171875</LongitudeDegrees>
            </Position>
            <AltitudeMeters>208.600006103515625</AltitudeMeters>
            <DistanceMeters>15135.905445226</DistanceMeters>
          </Trackpoint>
          <Trackpoint>
            <Time>2020-04-26T17:08:11.000Z</Time>
            <Position>
              <LatitudeDegrees>38.5562491603195667266845703125</LatitudeDegrees>
              <LongitudeDegrees>-28.63485784269869327545166015625</LongitudeDegrees>
            </Position>
            <AltitudeMeters>208.600006103515625</AltitudeMeters>
            <DistanceMeters>15141.146579888</DistanceMeters>
          </Trackpoint>
          <Trackpoint>
            <Time>2020-04-26T17:08:15.000Z</Time>
            <Position>
              <LatitudeDegrees>38.55628478340804576873779296875</LatitudeDegrees>
              <LongitudeDegrees>-28.6350785382091999053955078125</LongitudeDegrees>
            </Position>
            <AltitudeMeters>210</AltitudeMeters>
            <DistanceMeters>15160.760333141</DistanceMeters>
          </Trackpoint>
          <Trackpoint>
            <Time>2020-04-26T17:08:21.000Z</Time>
            <Position>
              <LatitudeDegrees>38.5563876293599605560302734375</LatitudeDegrees>
              <LongitudeDegrees>-28.6353745870292186737060546875</LongitudeDegrees>
            </Position>
            <AltitudeMeters>211.1999969482421875</AltitudeMeters>
            <DistanceMeters>15188.956057995</DistanceMeters>
          </Trackpoint>
          <Trackpoint>
            <Time>2020-04-26T17:08:24.000Z</Time>
            <Position>
              <LatitudeDegrees>38.55644152499735355377197265625</LatitudeDegrees>
              <LongitudeDegrees>-28.6355190910398960113525390625</LongitudeDegrees>
            </Position>
            <AltitudeMeters>212.1999969482421875</AltitudeMeters>
            <DistanceMeters>15202.890681555</DistanceMeters>
          </Trackpoint>
          <Trackpoint>
            <Time>2020-04-26T17:08:25.000Z</Time>
            <Position>
              <LatitudeDegrees>38.55646164156496524810791015625</LatitudeDegrees>
              <LongitudeDegrees>-28.63556426949799060821533203125</LongitudeDegrees>
            </Position>
            <AltitudeMeters>212.1999969482421875</AltitudeMeters>
            <DistanceMeters>15207.415190733</DistanceMeters>
          </Trackpoint>
          <Trackpoint>
            <Time>2020-04-26T17:08:30.000Z</Time>
            <Position>
              <LatitudeDegrees>38.55656750500202178955078125</LatitudeDegrees>
              <LongitudeDegrees>-28.63578035496175289154052734375</LongitudeDegrees>
            </Position>
            <AltitudeMeters>213.600006103515625</AltitudeMeters>
            <DistanceMeters>15229.608964179</DistanceMeters>
          </Trackpoint>
          <Trackpoint>
            <Time>2020-04-26T17:08:33.000Z</Time>
            <Position>
              <LatitudeDegrees>38.55664252303540706634521484375</LatitudeDegrees>
              <LongitudeDegrees>-28.6359039880335330963134765625</LongitudeDegrees>
            </Position>
            <AltitudeMeters>214</AltitudeMeters>
            <DistanceMeters>15243.229312577</DistanceMeters>
          </Trackpoint>
          <Trackpoint>
            <Time>2020-04-26T17:08:36.000Z</Time>
            <Position>
              <LatitudeDegrees>38.55670907534658908843994140625</LatitudeDegrees>
              <LongitudeDegrees>-28.63603684119880199432373046875</LongitudeDegrees>
            </Position>
            <AltitudeMeters>214.600006103515625</AltitudeMeters>
            <DistanceMeters>15256.961905793</DistanceMeters>
          </Trackpoint>
          <Trackpoint>
            <Time>2020-04-26T17:08:40.000Z</Time>
            <Position>
              <LatitudeDegrees>38.5567956604063510894775390625</LatitudeDegrees>
              <LongitudeDegrees>-28.63620397634804248809814453125</LongitudeDegrees>
            </Position>
            <AltitudeMeters>215.600006103515625</AltitudeMeters>
            <DistanceMeters>15274.411149832</DistanceMeters>
          </Trackpoint>
          <Trackpoint>
            <Time>2020-04-26T17:08:41.000Z</Time>
            <Position>
              <LatitudeDegrees>38.55681804008781909942626953125</LatitudeDegrees>
              <LongitudeDegrees>-28.63624311983585357666015625</LongitudeDegrees>
            </Position>
            <AltitudeMeters>215.600006103515625</AltitudeMeters>
            <DistanceMeters>15278.631020772</DistanceMeters>
          </Trackpoint>
          <Trackpoint>
            <Time>2020-04-26T17:08:47.000Z</Time>
            <Position>
              <LatitudeDegrees>38.5569512285292148590087890625</LatitudeDegrees>
              <LongitudeDegrees>-28.63649046979844570159912109375</LongitudeDegrees>
            </Position>
            <AltitudeMeters>216.8000030517578125</AltitudeMeters>
            <DistanceMeters>15304.769759148</DistanceMeters>
          </Trackpoint>
          <Trackpoint>
            <Time>2020-04-26T17:08:52.000Z</Time>
            <Position>
              <LatitudeDegrees>38.55705206282436847686767578125</LatitudeDegrees>
              <LongitudeDegrees>-28.63669515587389469146728515625</LongitudeDegrees>
            </Position>
            <AltitudeMeters>217.8000030517578125</AltitudeMeters>
            <DistanceMeters>15325.825414757</DistanceMeters>
          </Trackpoint>
          <Trackpoint>
            <Time>2020-04-26T17:08:55.000Z</Time>
            <Position>
              <LatitudeDegrees>38.55712297372519969940185546875</LatitudeDegrees>
              <LongitudeDegrees>-28.63682406954467296600341796875</LongitudeDegrees>
            </Position>
            <AltitudeMeters>218.399993896484375</AltitudeMeters>
            <DistanceMeters>15339.54353391</DistanceMeters>
          </Trackpoint>
          <Trackpoint>
            <Time>2020-04-26T17:08:58.000Z</Time>
            <Position>
              <LatitudeDegrees>38.55718843638896942138671875</LatitudeDegrees>
              <LongitudeDegrees>-28.63695784471929073333740234375</LongitudeDegrees>
            </Position>
            <AltitudeMeters>219</AltitudeMeters>
            <DistanceMeters>15353.278757135</DistanceMeters>
          </Trackpoint>
          <Trackpoint>
            <Time>2020-04-26T17:09:03.000Z</Time>
            <Position>
              <LatitudeDegrees>38.5572821460664272308349609375</LatitudeDegrees>
              <LongitudeDegrees>-28.63718382082879543304443359375</LongitudeDegrees>
            </Position>
            <AltitudeMeters>220</AltitudeMeters>
            <DistanceMeters>15375.541388959</DistanceMeters>
          </Trackpoint>
          <Trackpoint>
            <Time>2020-04-26T17:09:05.000Z</Time>
            <Position>
              <LatitudeDegrees>38.55732128955423831939697265625</LatitudeDegrees>
              <LongitudeDegrees>-28.63727384246885776519775390625</LongitudeDegrees>
            </Position>
            <AltitudeMeters>220.399993896484375</AltitudeMeters>
            <DistanceMeters>15384.506694889</DistanceMeters>
          </Trackpoint>
          <Trackpoint>
            <Time>2020-04-26T17:09:08.000Z</Time>
            <Position>
              <LatitudeDegrees>38.5573755204677581787109375</LatitudeDegrees>
              <LongitudeDegrees>-28.6374134011566638946533203125</LongitudeDegrees>
            </Position>
            <AltitudeMeters>221.1999969482421875</AltitudeMeters>
            <DistanceMeters>15398.070239684</DistanceMeters>
          </Trackpoint>
          <Trackpoint>
            <Time>2020-04-26T17:09:13.000Z</Time>
            <Position>
              <LatitudeDegrees>38.5574645362794399261474609375</LatitudeDegrees>
              <LongitudeDegrees>-28.6376407183706760406494140625</LongitudeDegrees>
            </Position>
            <AltitudeMeters>222.1999969482421875</AltitudeMeters>
            <DistanceMeters>15420.197389179</DistanceMeters>
          </Trackpoint>
          <Trackpoint>
            <Time>2020-04-26T17:09:14.000Z</Time>
            <Position>
              <LatitudeDegrees>38.55748188681900501251220703125</LatitudeDegrees>
              <LongitudeDegrees>-28.63768774084746837615966796875</LongitudeDegrees>
            </Position>
            <AltitudeMeters>222.1999969482421875</AltitudeMeters>
            <DistanceMeters>15424.722896154</DistanceMeters>
          </Trackpoint>
          <Trackpoint>
            <Time>2020-04-26T17:09:19.000Z</Time>
            <Position>
              <LatitudeDegrees>38.5575838945806026458740234375</LatitudeDegrees>
              <LongitudeDegrees>-28.63793835975229740142822265625</LongitudeDegrees>
            </Position>
            <AltitudeMeters>223.399993896484375</AltitudeMeters>
            <DistanceMeters>15449.313709462</DistanceMeters>
          </Trackpoint>
          <Trackpoint>
            <Time>2020-04-26T17:09:22.000Z</Time>
            <Position>
              <LatitudeDegrees>38.55762957595288753509521484375</LatitudeDegrees>
              <LongitudeDegrees>-28.63809694536030292510986328125</LongitudeDegrees>
            </Position>
            <AltitudeMeters>224.1999969482421875</AltitudeMeters>
            <DistanceMeters>15464.023525631</DistanceMeters>
          </Trackpoint>
          <Trackpoint>
            <Time>2020-04-26T17:09:25.000Z</Time>
            <Position>
              <LatitudeDegrees>38.5576737485826015472412109375</LatitudeDegrees>
              <LongitudeDegrees>-28.638257794082164764404296875</LongitudeDegrees>
            </Position>
            <AltitudeMeters>224.600006103515625</AltitudeMeters>
            <DistanceMeters>15478.861392519</DistanceMeters>
          </Trackpoint>
          <Trackpoint>
            <Time>2020-04-26T17:09:27.000Z</Time>
            <Position>
              <LatitudeDegrees>38.55769671499729156494140625</LatitudeDegrees>
              <LongitudeDegrees>-28.63837036304175853729248046875</LongitudeDegrees>
            </Position>
            <AltitudeMeters>224.8000030517578125</AltitudeMeters>
            <DistanceMeters>15488.986978327</DistanceMeters>
          </Trackpoint>
          <Trackpoint>
            <Time>2020-04-26T17:09:29.000Z</Time>
            <Position>
              <LatitudeDegrees>38.55772764421999454498291015625</LatitudeDegrees>
              <LongitudeDegrees>-28.63847664557397365570068359375</LongitudeDegrees>
            </Position>
            <AltitudeMeters>225.8000030517578125</AltitudeMeters>
            <DistanceMeters>15498.856956274</DistanceMeters>
          </Trackpoint>
          <Trackpoint>
            <Time>2020-04-26T17:09:35.000Z</Time>
            <Position>
              <LatitudeDegrees>38.55781163088977336883544921875</LatitudeDegrees>
              <LongitudeDegrees>-28.63880538381636142730712890625</LongitudeDegrees>
            </Position>
            <AltitudeMeters>227</AltitudeMeters>
            <DistanceMeters>15528.957483679</DistanceMeters>
          </Trackpoint>
          <Trackpoint>
            <Time>2020-04-26T17:09:38.000Z</Time>
            <Position>
              <LatitudeDegrees>38.5578578151762485504150390625</LatitudeDegrees>
              <LongitudeDegrees>-28.63896816037595272064208984375</LongitudeDegrees>
            </Position>
            <AltitudeMeters>227.8000030517578125</AltitudeMeters>
            <DistanceMeters>15544.028732562</DistanceMeters>
          </Trackpoint>
          <Trackpoint>
            <Time>2020-04-26T17:09:39.000Z</Time>
            <Position>
              <LatitudeDegrees>38.55787499807775020599365234375</LatitudeDegrees>
              <LongitudeDegrees>-28.6390225589275360107421875</LongitudeDegrees>
            </Position>
            <AltitudeMeters>228</AltitudeMeters>
            <DistanceMeters>15549.135479155</DistanceMeters>
          </Trackpoint>
          <Trackpoint>
            <Time>2020-04-26T17:09:45.000Z</Time>
            <Position>
              <LatitudeDegrees>38.5579956136643886566162109375</LatitudeDegrees>
              <LongitudeDegrees>-28.63933009095489978790283203125</LongitudeDegrees>
            </Position>
            <AltitudeMeters>229.399993896484375</AltitudeMeters>
            <DistanceMeters>15579.079601626</DistanceMeters>
          </Trackpoint>
          <Trackpoint>
            <Time>2020-04-26T17:09:47.000Z</Time>
            <Position>
              <LatitudeDegrees>38.55803911574184894561767578125</LatitudeDegrees>
              <LongitudeDegrees>-28.63942556083202362060546875</LongitudeDegrees>
            </Position>
            <AltitudeMeters>230</AltitudeMeters>
            <DistanceMeters>15588.696568037</DistanceMeters>
          </Trackpoint>
          <Trackpoint>
            <Time>2020-04-26T17:09:48.000Z</Time>
            <Position>
              <LatitudeDegrees>38.55806157924234867095947265625</LatitudeDegrees>
              <LongitudeDegrees>-28.639472164213657379150390625</LongitudeDegrees>
            </Position>
            <AltitudeMeters>230.399993896484375</AltitudeMeters>
            <DistanceMeters>15593.461188922</DistanceMeters>
          </Trackpoint>
          <Trackpoint>
            <Time>2020-04-26T17:09:54.000Z</Time>
            <Position>
              <LatitudeDegrees>38.5581962764263153076171875</LatitudeDegrees>
              <LongitudeDegrees>-28.6397516168653964996337890625</LongitudeDegrees>
            </Position>
            <AltitudeMeters>231.600006103515625</AltitudeMeters>
            <DistanceMeters>15622.032800194</DistanceMeters>
          </Trackpoint>
          <Trackpoint>
            <Time>2020-04-26T17:09:55.000Z</Time>
            <Position>
              <LatitudeDegrees>38.5582175664603710174560546875</LatitudeDegrees>
              <LongitudeDegrees>-28.63979838788509368896484375</LongitudeDegrees>
            </Position>
            <AltitudeMeters>231.8000030517578125</AltitudeMeters>
            <DistanceMeters>15626.74213855</DistanceMeters>
          </Trackpoint>
          <Trackpoint>
            <Time>2020-04-26T17:10:01.000Z</Time>
            <Position>
              <LatitudeDegrees>38.5583878867328166961669921875</LatitudeDegrees>
              <LongitudeDegrees>-28.64002997986972332000732421875</LongitudeDegrees>
            </Position>
            <AltitudeMeters>232.600006103515625</AltitudeMeters>
            <DistanceMeters>15654.412703807</DistanceMeters>
          </Trackpoint>
          <Trackpoint>
            <Time>2020-04-26T17:10:02.000Z</Time>
            <Position>
              <LatitudeDegrees>38.55842518620193004608154296875</LatitudeDegrees>
              <LongitudeDegrees>-28.6400610767304897308349609375</LongitudeDegrees>
            </Position>
            <AltitudeMeters>232.8000030517578125</AltitudeMeters>
            <DistanceMeters>15659.368690886</DistanceMeters>
          </Trackpoint>
          <Trackpoint>
            <Time>2020-04-26T17:10:07.000Z</Time>
            <Position>
              <LatitudeDegrees>38.5586027987301349639892578125</LatitudeDegrees>
              <LongitudeDegrees>-28.6402015574276447296142578125</LongitudeDegrees>
            </Position>
            <AltitudeMeters>234</AltitudeMeters>
            <DistanceMeters>15682.612776883</DistanceMeters>
          </Trackpoint>
          <Trackpoint>
            <Time>2020-04-26T17:10:09.000Z</Time>
            <Position>
              <LatitudeDegrees>38.55865937657654285430908203125</LatitudeDegrees>
              <LongitudeDegrees>-28.640273474156856536865234375</LongitudeDegrees>
            </Position>
            <AltitudeMeters>234.600006103515625</AltitudeMeters>
            <DistanceMeters>15691.491038947</DistanceMeters>
          </Trackpoint>
          <Trackpoint>
            <Time>2020-04-26T17:10:11.000Z</Time>
            <Position>
              <LatitudeDegrees>38.5587134398519992828369140625</LatitudeDegrees>
              <LongitudeDegrees>-28.640357293188571929931640625</LongitudeDegrees>
            </Position>
            <AltitudeMeters>235</AltitudeMeters>
            <DistanceMeters>15700.947032652</DistanceMeters>
          </Trackpoint>
          <Trackpoint>
            <Time>2020-04-26T17:10:14.000Z</Time>
            <Position>
              <LatitudeDegrees>38.558788709342479705810546875</LatitudeDegrees>
              <LongitudeDegrees>-28.64048846997320652008056640625</LongitudeDegrees>
            </Position>
            <AltitudeMeters>236</AltitudeMeters>
            <DistanceMeters>15715.107607411</DistanceMeters>
          </Trackpoint>
          <Trackpoint>
            <Time>2020-04-26T17:10:15.000Z</Time>
            <Position>
              <LatitudeDegrees>38.55880857445299625396728515625</LatitudeDegrees>
              <LongitudeDegrees>-28.64053490571677684783935546875</LongitudeDegrees>
            </Position>
            <AltitudeMeters>236.1999969482421875</AltitudeMeters>
            <DistanceMeters>15719.714198303</DistanceMeters>
          </Trackpoint>
          <Trackpoint>
            <Time>2020-04-26T17:10:16.000Z</Time>
            <Position>
              <LatitudeDegrees>38.5588247515261173248291015625</LatitudeDegrees>
              <LongitudeDegrees>-28.64058352075517177581787109375</LongitudeDegrees>
            </Position>
            <AltitudeMeters>236.399993896484375</AltitudeMeters>
            <DistanceMeters>15724.312941504</DistanceMeters>
          </Trackpoint>
          <Trackpoint>
            <Time>2020-04-26T17:10:18.000Z</Time>
            <Position>
              <LatitudeDegrees>38.55884830467402935028076171875</LatitudeDegrees>
              <LongitudeDegrees>-28.64068427123129367828369140625</LongitudeDegrees>
            </Position>
            <AltitudeMeters>236.8000030517578125</AltitudeMeters>
            <DistanceMeters>15733.465153755</DistanceMeters>
          </Trackpoint>
          <Trackpoint>
            <Time>2020-04-26T17:10:19.000Z</Time>
            <Position>
              <LatitudeDegrees>38.55885517783463001251220703125</LatitudeDegrees>
              <LongitudeDegrees>-28.6407349817454814910888671875</LongitudeDegrees>
            </Position>
            <AltitudeMeters>237.1999969482421875</AltitudeMeters>
            <DistanceMeters>15737.944532045</DistanceMeters>
          </Trackpoint>
          <Trackpoint>
            <Time>2020-04-26T17:10:22.000Z</Time>
            <Position>
              <LatitudeDegrees>38.5588606260716915130615234375</LatitudeDegrees>
              <LongitudeDegrees>-28.64089398644864559173583984375</LongitudeDegrees>
            </Position>
            <AltitudeMeters>238.1999969482421875</AltitudeMeters>
            <DistanceMeters>15751.79693705</DistanceMeters>
          </Trackpoint>
          <Trackpoint>
            <Time>2020-04-26T17:10:23.000Z</Time>
            <Position>
              <LatitudeDegrees>38.55886389501392841339111328125</LatitudeDegrees>
              <LongitudeDegrees>-28.64094863645732402801513671875</LongitudeDegrees>
            </Position>
            <AltitudeMeters>238.600006103515625</AltitudeMeters>
            <DistanceMeters>15756.567240252</DistanceMeters>
          </Trackpoint>
          <Trackpoint>
            <Time>2020-04-26T17:10:28.000Z</Time>
            <Position>
              <LatitudeDegrees>38.55887554585933685302734375</LatitudeDegrees>
              <LongitudeDegrees>-28.64121459424495697021484375</LongitudeDegrees>
            </Position>
            <AltitudeMeters>239.600006103515625</AltitudeMeters>
            <DistanceMeters>15779.751032222</DistanceMeters>
          </Trackpoint>
          <Trackpoint>
            <Time>2020-04-26T17:10:29.000Z</Time>
            <Position>
              <LatitudeDegrees>38.55888099409639835357666015625</LatitudeDegrees>
              <LongitudeDegrees>-28.64126714877784252166748046875</LongitudeDegrees>
            </Position>
            <AltitudeMeters>239.600006103515625</AltitudeMeters>
            <DistanceMeters>15784.365457457</DistanceMeters>
          </Trackpoint>
          <Trackpoint>
            <Time>2020-04-26T17:10:34.000Z</Time>
            <Position>
              <LatitudeDegrees>38.5589159466326236724853515625</LatitudeDegrees>
              <LongitudeDegrees>-28.641530089080333709716796875</LongitudeDegrees>
            </Position>
            <AltitudeMeters>240.8000030517578125</AltitudeMeters>
            <DistanceMeters>15807.578832518</DistanceMeters>
          </Trackpoint>
          <Trackpoint>
            <Time>2020-04-26T17:10:37.000Z</Time>
            <Position>
              <LatitudeDegrees>38.55895089916884899139404296875</LatitudeDegrees>
              <LongitudeDegrees>-28.64168104715645313262939453125</LongitudeDegrees>
            </Position>
            <AltitudeMeters>241.399993896484375</AltitudeMeters>
            <DistanceMeters>15821.281144346</DistanceMeters>
          </Trackpoint>
          <Trackpoint>
            <Time>2020-04-26T17:10:41.000Z</Time>
            <Position>
              <LatitudeDegrees>38.55900169350206851959228515625</LatitudeDegrees>
              <LongitudeDegrees>-28.64185757003724575042724609375</LongitudeDegrees>
            </Position>
            <AltitudeMeters>241.8000030517578125</AltitudeMeters>
            <DistanceMeters>15837.651685226</DistanceMeters>
          </Trackpoint>
          <Trackpoint>
            <Time>2020-04-26T17:10:44.000Z</Time>
            <Position>
              <LatitudeDegrees>38.55904561467468738555908203125</LatitudeDegrees>
              <LongitudeDegrees>-28.64199721254408359527587890625</LongitudeDegrees>
            </Position>
            <AltitudeMeters>242.600006103515625</AltitudeMeters>
            <DistanceMeters>15850.751937239</DistanceMeters>
          </Trackpoint>
          <Trackpoint>
            <Time>2020-04-26T17:10:45.000Z</Time>
            <Position>
              <LatitudeDegrees>38.5590611211955547332763671875</LatitudeDegrees>
              <LongitudeDegrees>-28.6420485936105251312255859375</LongitudeDegrees>
            </Position>
            <AltitudeMeters>243</AltitudeMeters>
            <DistanceMeters>15855.544902342</DistanceMeters>
          </Trackpoint>
          <Trackpoint>
            <Time>2020-04-26T17:10:49.000Z</Time>
            <Position>
              <LatitudeDegrees>38.55913043953478336334228515625</LatitudeDegrees>
              <LongitudeDegrees>-28.64225889556109905242919921875</LongitudeDegrees>
            </Position>
            <AltitudeMeters>244.1999969482421875</AltitudeMeters>
            <DistanceMeters>15875.407986191</DistanceMeters>
          </Trackpoint>
          <Trackpoint>
            <Time>2020-04-26T17:10:53.000Z</Time>
            <Position>
              <LatitudeDegrees>38.55921274982392787933349609375</LatitudeDegrees>
              <LongitudeDegrees>-28.6424539424479007720947265625</LongitudeDegrees>
            </Position>
            <AltitudeMeters>245.399993896484375</AltitudeMeters>
            <DistanceMeters>15894.698175151</DistanceMeters>
          </Trackpoint>
          <Trackpoint>
            <Time>2020-04-26T17:10:58.000Z</Time>
            <Position>
              <LatitudeDegrees>38.55931702069938182830810546875</LatitudeDegrees>
              <LongitudeDegrees>-28.64270858466625213623046875</LongitudeDegrees>
            </Position>
            <AltitudeMeters>246.399993896484375</AltitudeMeters>
            <DistanceMeters>15919.715661002</DistanceMeters>
          </Trackpoint>
          <Trackpoint>
            <Time>2020-04-26T17:11:01.000Z</Time>
            <Position>
              <LatitudeDegrees>38.55937485583126544952392578125</LatitudeDegrees>
              <LongitudeDegrees>-28.6428713612258434295654296875</LongitudeDegrees>
            </Position>
            <AltitudeMeters>247.1999969482421875</AltitudeMeters>
            <DistanceMeters>15935.276557501</DistanceMeters>
          </Trackpoint>
          <Trackpoint>
            <Time>2020-04-26T17:11:02.000Z</Time>
            <Position>
              <LatitudeDegrees>38.55939245782792568206787109375</LatitudeDegrees>
              <LongitudeDegrees>-28.64292609505355358123779296875</LongitudeDegrees>
            </Position>
            <AltitudeMeters>247.600006103515625</AltitudeMeters>
            <DistanceMeters>15940.427320997</DistanceMeters>
          </Trackpoint>
          <Trackpoint>
            <Time>2020-04-26T17:11:04.000Z</Time>
            <Position>
              <LatitudeDegrees>38.55943612754344940185546875</LatitudeDegrees>
              <LongitudeDegrees>-28.64302835427224636077880859375</LongitudeDegrees>
            </Position>
            <AltitudeMeters>248.1999969482421875</AltitudeMeters>
            <DistanceMeters>15950.568056204</DistanceMeters>
          </Trackpoint>
          <Trackpoint>
            <Time>2020-04-26T17:11:06.000Z</Time>
            <Position>
              <LatitudeDegrees>38.5594922862946987152099609375</LatitudeDegrees>
              <LongitudeDegrees>-28.64312432706356048583984375</LongitudeDegrees>
            </Position>
            <AltitudeMeters>248.600006103515625</AltitudeMeters>
            <DistanceMeters>15961.000673871</DistanceMeters>
          </Trackpoint>
          <Trackpoint>
            <Time>2020-04-26T17:11:07.000Z</Time>
            <Position>
              <LatitudeDegrees>38.55951935984194278717041015625</LatitudeDegrees>
              <LongitudeDegrees>-28.64317436702549457550048828125</LongitudeDegrees>
            </Position>
            <AltitudeMeters>248.8000030517578125</AltitudeMeters>
            <DistanceMeters>15966.296655124</DistanceMeters>
          </Trackpoint>
          <Trackpoint>
            <Time>2020-04-26T17:11:11.000Z</Time>
            <Position>
              <LatitudeDegrees>38.5596129857003688812255859375</LatitudeDegrees>
              <LongitudeDegrees>-28.64337653852999210357666015625</LongitudeDegrees>
            </Position>
            <AltitudeMeters>249.600006103515625</AltitudeMeters>
            <DistanceMeters>15986.746616011</DistanceMeters>
          </Trackpoint>
          <Trackpoint>
            <Time>2020-04-26T17:11:15.000Z</Time>
            <Position>
              <LatitudeDegrees>38.55969370342791080474853515625</LatitudeDegrees>
              <LongitudeDegrees>-28.64357133395969867706298828125</LongitudeDegrees>
            </Position>
            <AltitudeMeters>250.8000030517578125</AltitudeMeters>
            <DistanceMeters>16005.933778035</DistanceMeters>
          </Trackpoint>
          <Trackpoint>
            <Time>2020-04-26T17:11:17.000Z</Time>
            <Position>
              <LatitudeDegrees>38.5597256384789943695068359375</LatitudeDegrees>
              <LongitudeDegrees>-28.64367459900677204132080078125</LongitudeDegrees>
            </Position>
            <AltitudeMeters>251.1999969482421875</AltitudeMeters>
            <DistanceMeters>16015.598513455</DistanceMeters>
          </Trackpoint>
          <Trackpoint>
            <Time>2020-04-26T17:11:19.000Z</Time>
            <Position>
              <LatitudeDegrees>38.55974592268466949462890625</LatitudeDegrees>
              <LongitudeDegrees>-28.64378389902412891387939453125</LongitudeDegrees>
            </Position>
            <AltitudeMeters>252</AltitudeMeters>
            <DistanceMeters>16025.3756495</DistanceMeters>
          </Trackpoint>
          <Trackpoint>
            <Time>2020-04-26T17:11:21.000Z</Time>
            <Position>
              <LatitudeDegrees>38.5597504489123821258544921875</LatitudeDegrees>
              <LongitudeDegrees>-28.64388967864215373992919921875</LongitudeDegrees>
            </Position>
            <AltitudeMeters>253</AltitudeMeters>
            <DistanceMeters>16034.596179296</DistanceMeters>
          </Trackpoint>
          <Trackpoint>
            <Time>2020-04-26T17:11:24.000Z</Time>
            <Position>
              <LatitudeDegrees>38.55973896570503711700439453125</LatitudeDegrees>
              <LongitudeDegrees>-28.64404424093663692474365234375</LongitudeDegrees>
            </Position>
            <AltitudeMeters>253.399993896484375</AltitudeMeters>
            <DistanceMeters>16048.108697407</DistanceMeters>
          </Trackpoint>
          <Trackpoint>
            <Time>2020-04-26T17:11:26.000Z</Time>
            <Position>
              <LatitudeDegrees>38.55971348471939563751220703125</LatitudeDegrees>
              <LongitudeDegrees>-28.6441407166421413421630859375</LongitudeDegrees>
            </Position>
            <AltitudeMeters>254</AltitudeMeters>
            <DistanceMeters>16056.971689846</DistanceMeters>
          </Trackpoint>
          <Trackpoint>
            <Time>2020-04-26T17:11:27.000Z</Time>
            <Position>
              <LatitudeDegrees>38.5597001574933528900146484375</LatitudeDegrees>
              <LongitudeDegrees>-28.64418757148087024688720703125</LongitudeDegrees>
            </Position>
            <AltitudeMeters>254.399993896484375</AltitudeMeters>
            <DistanceMeters>16061.311821119</DistanceMeters>
          </Trackpoint>
          <Trackpoint>
            <Time>2020-04-26T17:11:32.000Z</Time>
            <Position>
              <LatitudeDegrees>38.55958591215312480926513671875</LatitudeDegrees>
              <LongitudeDegrees>-28.64438940770924091339111328125</LongitudeDegrees>
            </Position>
            <AltitudeMeters>254.600006103515625</AltitudeMeters>
            <DistanceMeters>16082.997491988</DistanceMeters>
          </Trackpoint>
          <Trackpoint>
            <Time>2020-04-26T17:11:36.000Z</Time>
            <Position>
              <LatitudeDegrees>38.5594627819955348968505859375</LatitudeDegrees>
              <LongitudeDegrees>-28.64451664499938488006591796875</LongitudeDegrees>
            </Position>
            <AltitudeMeters>255.1999969482421875</AltitudeMeters>
            <DistanceMeters>16100.617197665</DistanceMeters>
          </Trackpoint>
          <Trackpoint>
            <Time>2020-04-26T17:11:38.000Z</Time>
            <Position>
              <LatitudeDegrees>38.55940352194011211395263671875</LatitudeDegrees>
              <LongitudeDegrees>-28.6445836164057254791259765625</LongitudeDegrees>
            </Position>
            <AltitudeMeters>255.8000030517578125</AltitudeMeters>
            <DistanceMeters>16109.419359666</DistanceMeters>
          </Trackpoint>
          <Trackpoint>
            <Time>2020-04-26T17:11:41.000Z</Time>
            <Position>
              <LatitudeDegrees>38.559320457279682159423828125</LatitudeDegrees>
              <LongitudeDegrees>-28.64469517953693866729736328125</LongitudeDegrees>
            </Position>
            <AltitudeMeters>256.20001220703125</AltitudeMeters>
            <DistanceMeters>16122.826548099</DistanceMeters>
          </Trackpoint>
          <Trackpoint>
            <Time>2020-04-26T17:11:44.000Z</Time>
            <Position>
              <LatitudeDegrees>38.5592565871775150299072265625</LatitudeDegrees>
              <LongitudeDegrees>-28.64483146928250789642333984375</LongitudeDegrees>
            </Position>
            <AltitudeMeters>256.79998779296875</AltitudeMeters>
            <DistanceMeters>16136.655139092</DistanceMeters>
          </Trackpoint>
          <Trackpoint>
            <Time>2020-04-26T17:11:46.000Z</Time>
            <Position>
              <LatitudeDegrees>38.5592260770499706268310546875</LatitudeDegrees>
              <LongitudeDegrees>-28.64492249675095081329345703125</LongitudeDegrees>
            </Position>
            <AltitudeMeters>257.399993896484375</AltitudeMeters>
            <DistanceMeters>16145.274329246</DistanceMeters>
          </Trackpoint>
          <Trackpoint>
            <Time>2020-04-26T17:11:49.000Z</Time>
            <Position>
              <LatitudeDegrees>38.5591660626232624053955078125</LatitudeDegrees>
              <LongitudeDegrees>-28.64504755474627017974853515625</LongitudeDegrees>
            </Position>
            <AltitudeMeters>258.20001220703125</AltitudeMeters>
            <DistanceMeters>16158.044731768</DistanceMeters>
          </Trackpoint>
          <Trackpoint>
            <Time>2020-04-26T17:11:50.000Z</Time>
            <Position>
              <LatitudeDegrees>38.55915927328169345855712890625</LatitudeDegrees>
              <LongitudeDegrees>-28.6450999416410923004150390625</LongitudeDegrees>
            </Position>
            <AltitudeMeters>258.399993896484375</AltitudeMeters>
            <DistanceMeters>16162.665024044</DistanceMeters>
          </Trackpoint>
          <Trackpoint>
            <Time>2020-04-26T17:11:53.000Z</Time>
            <Position>
              <LatitudeDegrees>38.55910219252109527587890625</LatitudeDegrees>
              <LongitudeDegrees>-28.6452343873679637908935546875</LongitudeDegrees>
            </Position>
            <AltitudeMeters>259</AltitudeMeters>
            <DistanceMeters>16175.979619823</DistanceMeters>
          </Trackpoint>
          <Trackpoint>
            <Time>2020-04-26T17:11:55.000Z</Time>
            <Position>
              <LatitudeDegrees>38.55905684642493724822998046875</LatitudeDegrees>
              <LongitudeDegrees>-28.645316027104854583740234375</LongitudeDegrees>
            </Position>
            <AltitudeMeters>259.399993896484375</AltitudeMeters>
            <DistanceMeters>16184.695180794</DistanceMeters>
          </Trackpoint>
          <Trackpoint>
            <Time>2020-04-26T17:11:56.000Z</Time>
            <Position>
              <LatitudeDegrees>38.5590331256389617919921875</LatitudeDegrees>
              <LongitudeDegrees>-28.6453564278781414031982421875</LongitudeDegrees>
            </Position>
            <AltitudeMeters>259.600006103515625</AltitudeMeters>
            <DistanceMeters>16189.091129337</DistanceMeters>
          </Trackpoint>
          <Trackpoint>
            <Time>2020-04-26T17:12:00.000Z</Time>
            <Position>
              <LatitudeDegrees>38.5589410923421382904052734375</LatitudeDegrees>
              <LongitudeDegrees>-28.64553152583539485931396484375</LongitudeDegrees>
            </Position>
            <AltitudeMeters>260.399993896484375</AltitudeMeters>
            <DistanceMeters>16207.453428331</DistanceMeters>
          </Trackpoint>
          <Trackpoint>
            <Time>2020-04-26T17:12:01.000Z</Time>
            <Position>
              <LatitudeDegrees>38.55892357416450977325439453125</LatitudeDegrees>
              <LongitudeDegrees>-28.6455803923308849334716796875</LongitudeDegrees>
            </Position>
            <AltitudeMeters>260.600006103515625</AltitudeMeters>
            <DistanceMeters>16212.131986367</DistanceMeters>
          </Trackpoint>
          <Trackpoint>
            <Time>2020-04-26T17:12:05.000Z</Time>
            <Position>
              <LatitudeDegrees>38.558884598314762115478515625</LatitudeDegrees>
              <LongitudeDegrees>-28.6457951366901397705078125</LongitudeDegrees>
            </Position>
            <AltitudeMeters>261.20001220703125</AltitudeMeters>
            <DistanceMeters>16231.318913074</DistanceMeters>
          </Trackpoint>
          <Trackpoint>
            <Time>2020-04-26T17:12:10.000Z</Time>
            <Position>
              <LatitudeDegrees>38.55888627469539642333984375</LatitudeDegrees>
              <LongitudeDegrees>-28.64606662653386592864990234375</LongitudeDegrees>
            </Position>
            <AltitudeMeters>261.600006103515625</AltitudeMeters>
            <DistanceMeters>16254.948677077</DistanceMeters>
          </Trackpoint>
          <Trackpoint>
            <Time>2020-04-26T17:12:11.000Z</Time>
            <Position>
              <LatitudeDegrees>38.5588963329792022705078125</LatitudeDegrees>
              <LongitudeDegrees>-28.64611507393419742584228515625</LongitudeDegrees>
            </Position>
            <AltitudeMeters>261.600006103515625</AltitudeMeters>
            <DistanceMeters>16259.311634921</DistanceMeters>
          </Trackpoint>
          <Trackpoint>
            <Time>2020-04-26T17:12:14.000Z</Time>
            <Position>
              <LatitudeDegrees>38.558919467031955718994140625</LatitudeDegrees>
              <LongitudeDegrees>-28.64626586437225341796875</LongitudeDegrees>
            </Position>
            <AltitudeMeters>262</AltitudeMeters>
            <DistanceMeters>16272.68577991</DistanceMeters>
          </Trackpoint>
          <Trackpoint>
            <Time>2020-04-26T17:12:16.000Z</Time>
            <Position>
              <LatitudeDegrees>38.55893815867602825164794921875</LatitudeDegrees>
              <LongitudeDegrees>-28.64637323655188083648681640625</LongitudeDegrees>
            </Position>
            <AltitudeMeters>262.600006103515625</AltitudeMeters>
            <DistanceMeters>16282.259456106</DistanceMeters>
          </Trackpoint>
          <Trackpoint>
            <Time>2020-04-26T17:12:17.000Z</Time>
            <Position>
              <LatitudeDegrees>38.558946289122104644775390625</LatitudeDegrees>
              <LongitudeDegrees>-28.64642478525638580322265625</LongitudeDegrees>
            </Position>
            <AltitudeMeters>262.79998779296875</AltitudeMeters>
            <DistanceMeters>16286.836548781</DistanceMeters>
          </Trackpoint>
          <Trackpoint>
            <Time>2020-04-26T17:12:20.000Z</Time>
            <Position>
              <LatitudeDegrees>38.55896514840424060821533203125</LatitudeDegrees>
              <LongitudeDegrees>-28.64657456986606121063232421875</LongitudeDegrees>
            </Position>
            <AltitudeMeters>263.600006103515625</AltitudeMeters>
            <DistanceMeters>16300.041501493</DistanceMeters>
          </Trackpoint>
          <Trackpoint>
            <Time>2020-04-26T17:12:23.000Z</Time>
            <Position>
              <LatitudeDegrees>38.55898912064731121063232421875</LatitudeDegrees>
              <LongitudeDegrees>-28.64673189818859100341796875</LongitudeDegrees>
            </Position>
            <AltitudeMeters>264.79998779296875</AltitudeMeters>
            <DistanceMeters>16313.991992793</DistanceMeters>
          </Trackpoint>
          <Trackpoint>
            <Time>2020-04-26T17:12:25.000Z</Time>
            <Position>
              <LatitudeDegrees>38.55900856666266918182373046875</LatitudeDegrees>
              <LongitudeDegrees>-28.64683893509209156036376953125</LongitudeDegrees>
            </Position>
            <AltitudeMeters>265.20001220703125</AltitudeMeters>
            <DistanceMeters>16323.556232145</DistanceMeters>
          </Trackpoint>
          <Trackpoint>
            <Time>2020-04-26T17:12:27.000Z</Time>
            <Position>
              <LatitudeDegrees>38.559026420116424560546875</LatitudeDegrees>
              <LongitudeDegrees>-28.6469526775181293487548828125</LongitudeDegrees>
            </Position>
            <AltitudeMeters>265.79998779296875</AltitudeMeters>
            <DistanceMeters>16333.653239774</DistanceMeters>
          </Trackpoint>
          <Trackpoint>
            <Time>2020-04-26T17:12:32.000Z</Time>
            <Position>
              <LatitudeDegrees>38.55906221084296703338623046875</LatitudeDegrees>
              <LongitudeDegrees>-28.6472333036363124847412109375</LongitudeDegrees>
            </Position>
            <AltitudeMeters>267</AltitudeMeters>
            <DistanceMeters>16358.400356463</DistanceMeters>
          </Trackpoint>
          <Trackpoint>
            <Time>2020-04-26T17:12:33.000Z</Time>
            <Position>
              <LatitudeDegrees>38.55906707234680652618408203125</LatitudeDegrees>
              <LongitudeDegrees>-28.64728451706469058990478515625</LongitudeDegrees>
            </Position>
            <AltitudeMeters>267.399993896484375</AltitudeMeters>
            <DistanceMeters>16362.890808634</DistanceMeters>
          </Trackpoint>
          <Trackpoint>
            <Time>2020-04-26T17:12:36.000Z</Time>
            <Position>
              <LatitudeDegrees>38.5590812377631664276123046875</LatitudeDegrees>
              <LongitudeDegrees>-28.6474337987601757049560546875</LongitudeDegrees>
            </Position>
            <AltitudeMeters>268.20001220703125</AltitudeMeters>
            <DistanceMeters>16375.978647266</DistanceMeters>
          </Trackpoint>
          <Trackpoint>
            <Time>2020-04-26T17:12:37.000Z</Time>
            <Position>
              <LatitudeDegrees>38.55908400379121303558349609375</LatitudeDegrees>
              <LongitudeDegrees>-28.64748283289372920989990234375</LongitudeDegrees>
            </Position>
            <AltitudeMeters>268.600006103515625</AltitudeMeters>
            <DistanceMeters>16380.258015798</DistanceMeters>
          </Trackpoint>
          <Trackpoint>
            <Time>2020-04-26T17:12:40.000Z</Time>
            <Position>
              <LatitudeDegrees>38.559078387916088104248046875</LatitudeDegrees>
              <LongitudeDegrees>-28.6476446874439716339111328125</LongitudeDegrees>
            </Position>
            <AltitudeMeters>269.20001220703125</AltitudeMeters>
            <DistanceMeters>16394.359160549</DistanceMeters>
          </Trackpoint>
          <Trackpoint>
            <Time>2020-04-26T17:12:41.000Z</Time>
            <Position>
              <LatitudeDegrees>38.5590752027928829193115234375</LatitudeDegrees>
              <LongitudeDegrees>-28.64770461805164813995361328125</LongitudeDegrees>
            </Position>
            <AltitudeMeters>269.399993896484375</AltitudeMeters>
            <DistanceMeters>16399.588220835</DistanceMeters>
          </Trackpoint>
          <Trackpoint>
            <Time>2020-04-26T17:12:43.000Z</Time>
            <Position>
              <LatitudeDegrees>38.55905902571976184844970703125</LatitudeDegrees>
              <LongitudeDegrees>-28.6478309333324432373046875</LongitudeDegrees>
            </Position>
            <AltitudeMeters>269.600006103515625</AltitudeMeters>
            <DistanceMeters>16410.728659365</DistanceMeters>
          </Trackpoint>
          <Trackpoint>
            <Time>2020-04-26T17:12:46.000Z</Time>
            <Position>
              <LatitudeDegrees>38.55901057831943035125732421875</LatitudeDegrees>
              <LongitudeDegrees>-28.64801692776381969451904296875</LongitudeDegrees>
            </Position>
            <AltitudeMeters>270.20001220703125</AltitudeMeters>
            <DistanceMeters>16427.791446201</DistanceMeters>
          </Trackpoint>
          <Trackpoint>
            <Time>2020-04-26T17:12:47.000Z</Time>
            <Position>
              <LatitudeDegrees>38.558987863361835479736328125</LatitudeDegrees>
              <LongitudeDegrees>-28.64807912148535251617431640625</LongitudeDegrees>
            </Position>
            <AltitudeMeters>270.600006103515625</AltitudeMeters>
            <DistanceMeters>16433.765294384</DistanceMeters>
          </Trackpoint>
          <Trackpoint>
            <Time>2020-04-26T17:12:50.000Z</Time>
            <Position>
              <LatitudeDegrees>38.558927513659000396728515625</LatitudeDegrees>
              <LongitudeDegrees>-28.64825497381389141082763671875</LongitudeDegrees>
            </Position>
            <AltitudeMeters>271.600006103515625</AltitudeMeters>
            <DistanceMeters>16450.479464269</DistanceMeters>
          </Trackpoint>
          <Trackpoint>
            <Time>2020-04-26T17:12:51.000Z</Time>
            <Position>
              <LatitudeDegrees>38.55890563689172267913818359375</LatitudeDegrees>
              <LongitudeDegrees>-28.6483097076416015625</LongitudeDegrees>
            </Position>
            <AltitudeMeters>271.79998779296875</AltitudeMeters>
            <DistanceMeters>16455.828885943</DistanceMeters>
          </Trackpoint>
          <Trackpoint>
            <Time>2020-04-26T17:12:54.000Z</Time>
            <Position>
              <LatitudeDegrees>38.5588395036756992340087890625</LatitudeDegrees>
              <LongitudeDegrees>-28.6484862305223941802978515625</LongitudeDegrees>
            </Position>
            <AltitudeMeters>272.79998779296875</AltitudeMeters>
            <DistanceMeters>16472.864925885</DistanceMeters>
          </Trackpoint>
          <Trackpoint>
            <Time>2020-04-26T17:12:57.000Z</Time>
            <Position>
              <LatitudeDegrees>38.558792732656002044677734375</LatitudeDegrees>
              <LongitudeDegrees>-28.64866937510669231414794921875</LongitudeDegrees>
            </Position>
            <AltitudeMeters>273.600006103515625</AltitudeMeters>
            <DistanceMeters>16489.633304469</DistanceMeters>
          </Trackpoint>
          <Trackpoint>
            <Time>2020-04-26T17:12:58.000Z</Time>
            <Position>
              <LatitudeDegrees>38.55878678150475025177001953125</LatitudeDegrees>
              <LongitudeDegrees>-28.6487350054085254669189453125</LongitudeDegrees>
            </Position>
            <AltitudeMeters>273.79998779296875</AltitudeMeters>
            <DistanceMeters>16495.383794877</DistanceMeters>
          </Trackpoint>
          <Trackpoint>
            <Time>2020-04-26T17:13:01.000Z</Time>
            <Position>
              <LatitudeDegrees>38.55881125666201114654541015625</LatitudeDegrees>
              <LongitudeDegrees>-28.64892116747796535491943359375</LongitudeDegrees>
            </Position>
            <AltitudeMeters>275</AltitudeMeters>
            <DistanceMeters>16511.813801122</DistanceMeters>
          </Trackpoint>
          <Trackpoint>
            <Time>2020-04-26T17:13:02.000Z</Time>
            <Position>
              <LatitudeDegrees>38.55883053503930568695068359375</LatitudeDegrees>
              <LongitudeDegrees>-28.6489727161824703216552734375</LongitudeDegrees>
            </Position>
            <AltitudeMeters>275.399993896484375</AltitudeMeters>
            <DistanceMeters>16516.787067592</DistanceMeters>
          </Trackpoint>
          <Trackpoint>
            <Time>2020-04-26T17:13:05.000Z</Time>
            <Position>
              <LatitudeDegrees>38.5589169524610042572021484375</LatitudeDegrees>
              <LongitudeDegrees>-28.64909953437745571136474609375</LongitudeDegrees>
            </Position>
            <AltitudeMeters>276.20001220703125</AltitudeMeters>
            <DistanceMeters>16531.427350871</DistanceMeters>
          </Trackpoint>
          <Trackpoint>
            <Time>2020-04-26T17:13:06.000Z</Time>
            <Position>
              <LatitudeDegrees>38.5589504800736904144287109375</LatitudeDegrees>
              <LongitudeDegrees>-28.649132139980792999267578125</LongitudeDegrees>
            </Position>
            <AltitudeMeters>276.600006103515625</AltitudeMeters>
            <DistanceMeters>16536.115549465</DistanceMeters>
          </Trackpoint>
          <Trackpoint>
            <Time>2020-04-26T17:13:08.000Z</Time>
            <Position>
              <LatitudeDegrees>38.55902616865932941436767578125</LatitudeDegrees>
              <LongitudeDegrees>-28.64918787963688373565673828125</LongitudeDegrees>
            </Position>
            <AltitudeMeters>277.399993896484375</AltitudeMeters>
            <DistanceMeters>16545.836183185</DistanceMeters>
          </Trackpoint>
          <Trackpoint>
            <Time>2020-04-26T17:13:09.000Z</Time>
            <Position>
              <LatitudeDegrees>38.5590644739568233489990234375</LatitudeDegrees>
              <LongitudeDegrees>-28.6492178030312061309814453125</LongitudeDegrees>
            </Position>
            <AltitudeMeters>277.600006103515625</AltitudeMeters>
            <DistanceMeters>16550.832094642</DistanceMeters>
          </Trackpoint>
          <Trackpoint>
            <Time>2020-04-26T17:13:12.000Z</Time>
            <Position>
              <LatitudeDegrees>38.55917997658252716064453125</LatitudeDegrees>
              <LongitudeDegrees>-28.64931561984121799468994140625</LongitudeDegrees>
            </Position>
            <AltitudeMeters>278.399993896484375</AltitudeMeters>
            <DistanceMeters>16566.251039244</DistanceMeters>
          </Trackpoint>
          <Trackpoint>
            <Time>2020-04-26T17:13:17.000Z</Time>
            <Position>
              <LatitudeDegrees>38.55937334708869457244873046875</LatitudeDegrees>
              <LongitudeDegrees>-28.64948543719947338104248046875</LongitudeDegrees>
            </Position>
            <AltitudeMeters>279.600006103515625</AltitudeMeters>
            <DistanceMeters>16592.360050538</DistanceMeters>
          </Trackpoint>
          <Trackpoint>
            <Time>2020-04-26T17:13:21.000Z</Time>
            <Position>
              <LatitudeDegrees>38.55953545309603214263916015625</LatitudeDegrees>
              <LongitudeDegrees>-28.64961015991866588592529296875</LongitudeDegrees>
            </Position>
            <AltitudeMeters>280.600006103515625</AltitudeMeters>
            <DistanceMeters>16613.416563863</DistanceMeters>
          </Trackpoint>
          <Trackpoint>
            <Time>2020-04-26T17:13:22.000Z</Time>
            <Position>
              <LatitudeDegrees>38.55957618914544582366943359375</LatitudeDegrees>
              <LongitudeDegrees>-28.6496441066265106201171875</LongitudeDegrees>
            </Position>
            <AltitudeMeters>280.79998779296875</AltitudeMeters>
            <DistanceMeters>16618.828917139</DistanceMeters>
          </Trackpoint>
          <Trackpoint>
            <Time>2020-04-26T17:13:26.000Z</Time>
            <Position>
              <LatitudeDegrees>38.55973594821989536285400390625</LatitudeDegrees>
              <LongitudeDegrees>-28.649787604808807373046875</LongitudeDegrees>
            </Position>
            <AltitudeMeters>282</AltitudeMeters>
            <DistanceMeters>16640.558266809</DistanceMeters>
          </Trackpoint>
          <Trackpoint>
            <Time>2020-04-26T17:13:30.000Z</Time>
            <Position>
              <LatitudeDegrees>38.55988497845828533172607421875</LatitudeDegrees>
              <LongitudeDegrees>-28.649937473237514495849609375</LongitudeDegrees>
            </Position>
            <AltitudeMeters>282.600006103515625</AltitudeMeters>
            <DistanceMeters>16661.659761293</DistanceMeters>
          </Trackpoint>
          <Trackpoint>
            <Time>2020-04-26T17:13:32.000Z</Time>
            <Position>
              <LatitudeDegrees>38.55994784273207187652587890625</LatitudeDegrees>
              <LongitudeDegrees>-28.65003780461847782135009765625</LongitudeDegrees>
            </Position>
            <AltitudeMeters>283</AltitudeMeters>
            <DistanceMeters>16672.849535195</DistanceMeters>
          </Trackpoint>
          <Trackpoint>
            <Time>2020-04-26T17:13:34.000Z</Time>
            <Position>
              <LatitudeDegrees>38.55999645777046680450439453125</LatitudeDegrees>
              <LongitudeDegrees>-28.65015037357807159423828125</LongitudeDegrees>
            </Position>
            <AltitudeMeters>283.399993896484375</AltitudeMeters>
            <DistanceMeters>16684.041729816</DistanceMeters>
          </Trackpoint>
          <Trackpoint>
            <Time>2020-04-26T17:13:35.000Z</Time>
            <Position>
              <LatitudeDegrees>38.56001255102455615997314453125</LatitudeDegrees>
              <LongitudeDegrees>-28.65021131001412868499755859375</LongitudeDegrees>
            </Position>
            <AltitudeMeters>284</AltitudeMeters>
            <DistanceMeters>16689.639440532</DistanceMeters>
          </Trackpoint>
          <Trackpoint>
            <Time>2020-04-26T17:13:37.000Z</Time>
            <Position>
              <LatitudeDegrees>38.56004557572305202484130859375</LatitudeDegrees>
              <LongitudeDegrees>-28.6503272317349910736083984375</LongitudeDegrees>
            </Position>
            <AltitudeMeters>284</AltitudeMeters>
            <DistanceMeters>16700.377038775</DistanceMeters>
          </Trackpoint>
          <Trackpoint>
            <Time>2020-04-26T17:13:38.000Z</Time>
            <Position>
              <LatitudeDegrees>38.5600602440536022186279296875</LatitudeDegrees>
              <LongitudeDegrees>-28.6503848992288112640380859375</LongitudeDegrees>
            </Position>
            <AltitudeMeters>284.20001220703125</AltitudeMeters>
            <DistanceMeters>16705.654230808</DistanceMeters>
          </Trackpoint>
          <Trackpoint>
            <Time>2020-04-26T17:13:42.000Z</Time>
            <Position>
              <LatitudeDegrees>38.56011665426194667816162109375</LatitudeDegrees>
              <LongitudeDegrees>-28.6505733244121074676513671875</LongitudeDegrees>
            </Position>
            <AltitudeMeters>284.600006103515625</AltitudeMeters>
            <DistanceMeters>16723.214386001</DistanceMeters>
          </Trackpoint>
          <Trackpoint>
            <Time>2020-04-26T17:13:45.000Z</Time>
            <Position>
              <LatitudeDegrees>38.56012101285159587860107421875</LatitudeDegrees>
              <LongitudeDegrees>-28.6506638489663600921630859375</LongitudeDegrees>
            </Position>
            <AltitudeMeters>285</AltitudeMeters>
            <DistanceMeters>16731.107897733</DistanceMeters>
          </Trackpoint>
          <Trackpoint>
            <Time>2020-04-26T17:13:46.000Z</Time>
            <Position>
              <LatitudeDegrees>38.56010592542588710784912109375</LatitudeDegrees>
              <LongitudeDegrees>-28.65065940655767917633056640625</LongitudeDegrees>
            </Position>
            <AltitudeMeters>285.20001220703125</AltitudeMeters>
            <DistanceMeters>16732.834143726</DistanceMeters>
          </Trackpoint>
          <Trackpoint>
            <Time>2020-04-26T17:13:49.000Z</Time>
            <Position>
              <LatitudeDegrees>38.56007373891770839691162109375</LatitudeDegrees>
              <LongitudeDegrees>-28.6505495198071002960205078125</LongitudeDegrees>
            </Position>
            <AltitudeMeters>285</AltitudeMeters>
            <DistanceMeters>16743.046752742</DistanceMeters>
          </Trackpoint>
          <Trackpoint>
            <Time>2020-04-26T17:13:53.000Z</Time>
            <Position>
              <LatitudeDegrees>38.5600174963474273681640625</LatitudeDegrees>
              <LongitudeDegrees>-28.65033435635268688201904296875</LongitudeDegrees>
            </Position>
            <AltitudeMeters>284.399993896484375</AltitudeMeters>
            <DistanceMeters>16762.791511295</DistanceMeters>
          </Trackpoint>
          <Trackpoint>
            <Time>2020-04-26T17:13:54.000Z</Time>
            <Position>
              <LatitudeDegrees>38.55999947525560855865478515625</LatitudeDegrees>
              <LongitudeDegrees>-28.650275431573390960693359375</LongitudeDegrees>
            </Position>
            <AltitudeMeters>284.399993896484375</AltitudeMeters>
            <DistanceMeters>16768.29814336</DistanceMeters>
          </Trackpoint>
          <Trackpoint>
            <Time>2020-04-26T17:13:57.000Z</Time>
            <Position>
              <LatitudeDegrees>38.5599331744015216827392578125</LatitudeDegrees>
              <LongitudeDegrees>-28.6500740982592105865478515625</LongitudeDegrees>
            </Position>
            <AltitudeMeters>283.79998779296875</AltitudeMeters>
            <DistanceMeters>16787.311086852</DistanceMeters>
          </Trackpoint>
          <Trackpoint>
            <Time>2020-04-26T17:13:58.000Z</Time>
            <Position>
              <LatitudeDegrees>38.5598949529230594635009765625</LatitudeDegrees>
              <LongitudeDegrees>-28.65001064725220203399658203125</LongitudeDegrees>
            </Position>
            <AltitudeMeters>283.600006103515625</AltitudeMeters>
            <DistanceMeters>16794.281799967</DistanceMeters>
          </Trackpoint>
          <Trackpoint>
            <Time>2020-04-26T17:14:00.000Z</Time>
            <Position>
              <LatitudeDegrees>38.5597921907901763916015625</LatitudeDegrees>
              <LongitudeDegrees>-28.6499044485390186309814453125</LongitudeDegrees>
            </Position>
            <AltitudeMeters>283</AltitudeMeters>
            <DistanceMeters>16808.987318343</DistanceMeters>
          </Trackpoint>
          <Trackpoint>
            <Time>2020-04-26T17:14:01.000Z</Time>
            <Position>
              <LatitudeDegrees>38.55973628349602222442626953125</LatitudeDegrees>
              <LongitudeDegrees>-28.6498534865677356719970703125</LongitudeDegrees>
            </Position>
            <AltitudeMeters>282.79998779296875</AltitudeMeters>
            <DistanceMeters>16816.629735136</DistanceMeters>
          </Trackpoint>
          <Trackpoint>
            <Time>2020-04-26T17:14:02.000Z</Time>
            <Position>
              <LatitudeDegrees>38.55967610143125057220458984375</LatitudeDegrees>
              <LongitudeDegrees>-28.64980445243418216705322265625</LongitudeDegrees>
            </Position>
            <AltitudeMeters>282.399993896484375</AltitudeMeters>
            <DistanceMeters>16824.572285988</DistanceMeters>
          </Trackpoint>
          <Trackpoint>
            <Time>2020-04-26T17:14:04.000Z</Time>
            <Position>
              <LatitudeDegrees>38.55954718776047229766845703125</LatitudeDegrees>
              <LongitudeDegrees>-28.64970169030129909515380859375</LongitudeDegrees>
            </Position>
            <AltitudeMeters>281.79998779296875</AltitudeMeters>
            <DistanceMeters>16841.479832527</DistanceMeters>
          </Trackpoint>
          <Trackpoint>
            <Time>2020-04-26T17:14:07.000Z</Time>
            <Position>
              <LatitudeDegrees>38.559331856667995452880859375</LatitudeDegrees>
              <LongitudeDegrees>-28.64953354932367801666259765625</LongitudeDegrees>
            </Position>
            <AltitudeMeters>280.79998779296875</AltitudeMeters>
            <DistanceMeters>16869.561151149</DistanceMeters>
          </Trackpoint>
          <Trackpoint>
            <Time>2020-04-26T17:14:08.000Z</Time>
            <Position>
              <LatitudeDegrees>38.5592562519013881683349609375</LatitudeDegrees>
              <LongitudeDegrees>-28.64947286434471607208251953125</LongitudeDegrees>
            </Position>
            <AltitudeMeters>280.20001220703125</AltitudeMeters>
            <DistanceMeters>16879.495874876</DistanceMeters>
          </Trackpoint>
          <Trackpoint>
            <Time>2020-04-26T17:14:11.000Z</Time>
            <Position>
              <LatitudeDegrees>38.55902600102126598358154296875</LatitudeDegrees>
              <LongitudeDegrees>-28.649283349514007568359375</LongitudeDegrees>
            </Position>
            <AltitudeMeters>278.79998779296875</AltitudeMeters>
            <DistanceMeters>16909.972351098</DistanceMeters>
          </Trackpoint>
          <Trackpoint>
            <Time>2020-04-26T17:14:13.000Z</Time>
            <Position>
              <LatitudeDegrees>38.5588733665645122528076171875</LatitudeDegrees>
              <LongitudeDegrees>-28.6491473950445652008056640625</LongitudeDegrees>
            </Position>
            <AltitudeMeters>277.79998779296875</AltitudeMeters>
            <DistanceMeters>16930.675529803</DistanceMeters>
          </Trackpoint>
          <Trackpoint>
            <Time>2020-04-26T17:14:14.000Z</Time>
            <Position>
              <LatitudeDegrees>38.55880974791944026947021484375</LatitudeDegrees>
              <LongitudeDegrees>-28.64905846305191516876220703125</LongitudeDegrees>
            </Position>
            <AltitudeMeters>277.399993896484375</AltitudeMeters>
            <DistanceMeters>16941.166410209</DistanceMeters>
          </Trackpoint>
          <Trackpoint>
            <Time>2020-04-26T17:14:15.000Z</Time>
            <Position>
              <LatitudeDegrees>38.5587633959949016571044921875</LatitudeDegrees>
              <LongitudeDegrees>-28.6489539407193660736083984375</LongitudeDegrees>
            </Position>
            <AltitudeMeters>276.79998779296875</AltitudeMeters>
            <DistanceMeters>16951.624962497</DistanceMeters>
          </Trackpoint>
          <Trackpoint>
            <Time>2020-04-26T17:14:16.000Z</Time>
            <Position>
              <LatitudeDegrees>38.55874269269406795501708984375</LatitudeDegrees>
              <LongitudeDegrees>-28.64883340895175933837890625</LongitudeDegrees>
            </Position>
            <AltitudeMeters>276.399993896484375</AltitudeMeters>
            <DistanceMeters>16962.365924123</DistanceMeters>
          </Trackpoint>
          <Trackpoint>
            <Time>2020-04-26T17:14:17.000Z</Time>
            <Position>
              <LatitudeDegrees>38.558746464550495147705078125</LatitudeDegrees>
              <LongitudeDegrees>-28.64870726130902767181396484375</LongitudeDegrees>
            </Position>
            <AltitudeMeters>275.79998779296875</AltitudeMeters>
            <DistanceMeters>16973.352919249</DistanceMeters>
          </Trackpoint>
          <Trackpoint>
            <Time>2020-04-26T17:14:18.000Z</Time>
            <Position>
              <LatitudeDegrees>38.55877052061259746551513671875</LatitudeDegrees>
              <LongitudeDegrees>-28.6485834605991840362548828125</LongitudeDegrees>
            </Position>
            <AltitudeMeters>275.399993896484375</AltitudeMeters>
            <DistanceMeters>16984.455602417</DistanceMeters>
          </Trackpoint>
          <Trackpoint>
            <Time>2020-04-26T17:14:19.000Z</Time>
            <Position>
              <LatitudeDegrees>38.55881377123296260833740234375</LatitudeDegrees>
              <LongitudeDegrees>-28.64846116863191127777099609375</LongitudeDegrees>
            </Position>
            <AltitudeMeters>274.399993896484375</AltitudeMeters>
            <DistanceMeters>16996.137319552</DistanceMeters>
          </Trackpoint>
          <Trackpoint>
            <Time>2020-04-26T17:14:20.000Z</Time>
            <Position>
              <LatitudeDegrees>38.5588612966239452362060546875</LatitudeDegrees>
              <LongitudeDegrees>-28.64833544008433818817138671875</LongitudeDegrees>
            </Position>
            <AltitudeMeters>274.20001220703125</AltitudeMeters>
            <DistanceMeters>17008.291084009</DistanceMeters>
          </Trackpoint>
          <Trackpoint>
            <Time>2020-04-26T17:14:21.000Z</Time>
            <Position>
              <LatitudeDegrees>38.5589028708636760711669921875</LatitudeDegrees>
              <LongitudeDegrees>-28.648212142288684844970703125</LongitudeDegrees>
            </Position>
            <AltitudeMeters>273.399993896484375</AltitudeMeters>
            <DistanceMeters>17019.97743828</DistanceMeters>
          </Trackpoint>
          <Trackpoint>
            <Time>2020-04-26T17:14:23.000Z</Time>
            <Position>
              <LatitudeDegrees>38.55898744426667690277099609375</LatitudeDegrees>
              <LongitudeDegrees>-28.6479591764509677886962890625</LongitudeDegrees>
            </Position>
            <AltitudeMeters>272</AltitudeMeters>
            <DistanceMeters>17043.922284776</DistanceMeters>
          </Trackpoint>
          <Trackpoint>
            <Time>2020-04-26T17:14:25.000Z</Time>
            <Position>
              <LatitudeDegrees>38.55905215255916118621826171875</LatitudeDegrees>
              <LongitudeDegrees>-28.64768944680690765380859375</LongitudeDegrees>
            </Position>
            <AltitudeMeters>272</AltitudeMeters>
            <DistanceMeters>17068.477820292</DistanceMeters>
          </Trackpoint>
          <Trackpoint>
            <Time>2020-04-26T17:14:26.000Z</Time>
            <Position>
              <LatitudeDegrees>38.55905936099588871002197265625</LatitudeDegrees>
              <LongitudeDegrees>-28.6475474573671817779541015625</LongitudeDegrees>
            </Position>
            <AltitudeMeters>271.399993896484375</AltitudeMeters>
            <DistanceMeters>17080.861226858</DistanceMeters>
          </Trackpoint>
          <Trackpoint>
            <Time>2020-04-26T17:14:27.000Z</Time>
            <Position>
              <LatitudeDegrees>38.5590527392923831939697265625</LatitudeDegrees>
              <LongitudeDegrees>-28.64740270189940929412841796875</LongitudeDegrees>
            </Position>
            <AltitudeMeters>270</AltitudeMeters>
            <DistanceMeters>17093.48154731</DistanceMeters>
          </Trackpoint>
          <Trackpoint>
            <Time>2020-04-26T17:14:29.000Z</Time>
            <Position>
              <LatitudeDegrees>38.55901393108069896697998046875</LatitudeDegrees>
              <LongitudeDegrees>-28.647109754383563995361328125</LongitudeDegrees>
            </Position>
            <AltitudeMeters>268.600006103515625</AltitudeMeters>
            <DistanceMeters>17119.341387625</DistanceMeters>
          </Trackpoint>
          <Trackpoint>
            <Time>2020-04-26T17:14:30.000Z</Time>
            <Position>
              <LatitudeDegrees>38.55898710899055004119873046875</LatitudeDegrees>
              <LongitudeDegrees>-28.646959550678730010986328125</LongitudeDegrees>
            </Position>
            <AltitudeMeters>267.600006103515625</AltitudeMeters>
            <DistanceMeters>17132.750933189</DistanceMeters>
          </Trackpoint>
          <Trackpoint>
            <Time>2020-04-26T17:14:31.000Z</Time>
            <Position>
              <LatitudeDegrees>38.55896095745265483856201171875</LatitudeDegrees>
              <LongitudeDegrees>-28.6468034796416759490966796875</LongitudeDegrees>
            </Position>
            <AltitudeMeters>266.79998779296875</AltitudeMeters>
            <DistanceMeters>17146.643045835</DistanceMeters>
          </Trackpoint>
          <Trackpoint>
            <Time>2020-04-26T17:14:33.000Z</Time>
            <Position>
              <LatitudeDegrees>38.55890798382461071014404296875</LatitudeDegrees>
              <LongitudeDegrees>-28.6464925110340118408203125</LongitudeDegrees>
            </Position>
            <AltitudeMeters>265.399993896484375</AltitudeMeters>
            <DistanceMeters>17174.342640332</DistanceMeters>
          </Trackpoint>
          <Trackpoint>
            <Time>2020-04-26T17:14:35.000Z</Time>
            <Position>
              <LatitudeDegrees>38.5588542558252811431884765625</LatitudeDegrees>
              <LongitudeDegrees>-28.64617240615189075469970703125</LongitudeDegrees>
            </Position>
            <AltitudeMeters>264</AltitudeMeters>
            <DistanceMeters>17202.837347797</DistanceMeters>
          </Trackpoint>
          <Trackpoint>
            <Time>2020-04-26T17:14:37.000Z</Time>
            <Position>
              <LatitudeDegrees>38.5588314570486545562744140625</LatitudeDegrees>
              <LongitudeDegrees>-28.64585154689848423004150390625</LongitudeDegrees>
            </Position>
            <AltitudeMeters>263</AltitudeMeters>
            <DistanceMeters>17230.878280491</DistanceMeters>
          </Trackpoint>
          <Trackpoint>
            <Time>2020-04-26T17:14:38.000Z</Time>
            <Position>
              <LatitudeDegrees>38.558849059045314788818359375</LatitudeDegrees>
              <LongitudeDegrees>-28.6456963978707790374755859375</LongitudeDegrees>
            </Position>
            <AltitudeMeters>262.399993896484375</AltitudeMeters>
            <DistanceMeters>17244.523137256</DistanceMeters>
          </Trackpoint>
          <Trackpoint>
            <Time>2020-04-26T17:14:41.000Z</Time>
            <Position>
              <LatitudeDegrees>38.5590063035488128662109375</LatitudeDegrees>
              <LongitudeDegrees>-28.6452789790928363800048828125</LongitudeDegrees>
            </Position>
            <AltitudeMeters>262</AltitudeMeters>
            <DistanceMeters>17284.84873987</DistanceMeters>
          </Trackpoint>
          <Trackpoint>
            <Time>2020-04-26T17:14:42.000Z</Time>
            <Position>
              <LatitudeDegrees>38.55907268822193145751953125</LatitudeDegrees>
              <LongitudeDegrees>-28.645145036280155181884765625</LongitudeDegrees>
            </Position>
            <AltitudeMeters>261.600006103515625</AltitudeMeters>
            <DistanceMeters>17298.650859006</DistanceMeters>
          </Trackpoint>
          <Trackpoint>
            <Time>2020-04-26T17:14:43.000Z</Time>
            <Position>
              <LatitudeDegrees>38.55913915671408176422119140625</LatitudeDegrees>
              <LongitudeDegrees>-28.6450065672397613525390625</LongitudeDegrees>
            </Position>
            <AltitudeMeters>261</AltitudeMeters>
            <DistanceMeters>17312.791970803</DistanceMeters>
          </Trackpoint>
          <Trackpoint>
            <Time>2020-04-26T17:14:45.000Z</Time>
            <Position>
              <LatitudeDegrees>38.55926714837551116943359375</LatitudeDegrees>
              <LongitudeDegrees>-28.6447264440357685089111328125</LongitudeDegrees>
            </Position>
            <AltitudeMeters>259.399993896484375</AltitudeMeters>
            <DistanceMeters>17341.029299287</DistanceMeters>
          </Trackpoint>
          <Trackpoint>
            <Time>2020-04-26T17:14:46.000Z</Time>
            <Position>
              <LatitudeDegrees>38.55934518389403820037841796875</LatitudeDegrees>
              <LongitudeDegrees>-28.64460063166916370391845703125</LongitudeDegrees>
            </Position>
            <AltitudeMeters>258.600006103515625</AltitudeMeters>
            <DistanceMeters>17355.005658385</DistanceMeters>
          </Trackpoint>
          <Trackpoint>
            <Time>2020-04-26T17:14:47.000Z</Time>
            <Position>
              <LatitudeDegrees>38.55943101458251476287841796875</LatitudeDegrees>
              <LongitudeDegrees>-28.64448613487184047698974609375</LongitudeDegrees>
            </Position>
            <AltitudeMeters>257.20001220703125</AltitudeMeters>
            <DistanceMeters>17368.809740141</DistanceMeters>
          </Trackpoint>
          <Trackpoint>
            <Time>2020-04-26T17:14:48.000Z</Time>
            <Position>
              <LatitudeDegrees>38.55952170677483081817626953125</LatitudeDegrees>
              <LongitudeDegrees>-28.6443777568638324737548828125</LongitudeDegrees>
            </Position>
            <AltitudeMeters>256</AltitudeMeters>
            <DistanceMeters>17382.624938139</DistanceMeters>
          </Trackpoint>
          <Trackpoint>
            <Time>2020-04-26T17:14:49.000Z</Time>
            <Position>
              <LatitudeDegrees>38.5596039332449436187744140625</LatitudeDegrees>
              <LongitudeDegrees>-28.64426082931458950042724609375</LongitudeDegrees>
            </Position>
            <AltitudeMeters>255.1999969482421875</AltitudeMeters>
            <DistanceMeters>17396.311754271</DistanceMeters>
          </Trackpoint>
          <Trackpoint>
            <Time>2020-04-26T17:14:50.000Z</Time>
            <Position>
              <LatitudeDegrees>38.55966587550938129425048828125</LatitudeDegrees>
              <LongitudeDegrees>-28.64412873052060604095458984375</LongitudeDegrees>
            </Position>
            <AltitudeMeters>254</AltitudeMeters>
            <DistanceMeters>17409.717595587</DistanceMeters>
          </Trackpoint>
          <Trackpoint>
            <Time>2020-04-26T17:14:52.000Z</Time>
            <Position>
              <LatitudeDegrees>38.55970644392073154449462890625</LatitudeDegrees>
              <LongitudeDegrees>-28.64382815547287464141845703125</LongitudeDegrees>
            </Position>
            <AltitudeMeters>253</AltitudeMeters>
            <DistanceMeters>17436.264597037</DistanceMeters>
          </Trackpoint>
          <Trackpoint>
            <Time>2020-04-26T17:14:54.000Z</Time>
            <Position>
              <LatitudeDegrees>38.55964399874210357666015625</LatitudeDegrees>
              <LongitudeDegrees>-28.64353378303349018096923828125</LongitudeDegrees>
            </Position>
            <AltitudeMeters>251.600006103515625</AltitudeMeters>
            <DistanceMeters>17462.810578005</DistanceMeters>
          </Trackpoint>
          <Trackpoint>
            <Time>2020-04-26T17:14:56.000Z</Time>
            <Position>
              <LatitudeDegrees>38.5595281608402729034423828125</LatitudeDegrees>
              <LongitudeDegrees>-28.643283583223819732666015625</LongitudeDegrees>
            </Position>
            <AltitudeMeters>250.399993896484375</AltitudeMeters>
            <DistanceMeters>17488.116961022</DistanceMeters>
          </Trackpoint>
          <Trackpoint>
            <Time>2020-04-26T17:14:57.000Z</Time>
            <Position>
              <LatitudeDegrees>38.5594768635928630828857421875</LatitudeDegrees>
              <LongitudeDegrees>-28.64315156824886798858642578125</LongitudeDegrees>
            </Position>
            <AltitudeMeters>250</AltitudeMeters>
            <DistanceMeters>17500.947327095</DistanceMeters>
          </Trackpoint>
          <Trackpoint>
            <Time>2020-04-26T17:14:58.000Z</Time>
            <Position>
              <LatitudeDegrees>38.55942514725029468536376953125</LatitudeDegrees>
              <LongitudeDegrees>-28.64301703870296478271484375</LongitudeDegrees>
            </Position>
            <AltitudeMeters>249.399993896484375</AltitudeMeters>
            <DistanceMeters>17513.994394622</DistanceMeters>
          </Trackpoint>
          <Trackpoint>
            <Time>2020-04-26T17:15:00.000Z</Time>
            <Position>
              <LatitudeDegrees>38.55931132100522518157958984375</LatitudeDegrees>
              <LongitudeDegrees>-28.6427516676485538482666015625</LongitudeDegrees>
            </Position>
            <AltitudeMeters>248</AltitudeMeters>
            <DistanceMeters>17540.337369864</DistanceMeters>
          </Trackpoint>
          <Trackpoint>
            <Time>2020-04-26T17:15:02.000Z</Time>
            <Position>
              <LatitudeDegrees>38.559201098978519439697265625</LatitudeDegrees>
              <LongitudeDegrees>-28.642482943832874298095703125</LongitudeDegrees>
            </Position>
            <AltitudeMeters>247</AltitudeMeters>
            <DistanceMeters>17566.747788164</DistanceMeters>
          </Trackpoint>
          <Trackpoint>
            <Time>2020-04-26T17:15:04.000Z</Time>
            <Position>
              <LatitudeDegrees>38.5590819083154201507568359375</LatitudeDegrees>
              <LongitudeDegrees>-28.64221564494073390960693359375</LongitudeDegrees>
            </Position>
            <AltitudeMeters>245.600006103515625</AltitudeMeters>
            <DistanceMeters>17593.528636201</DistanceMeters>
          </Trackpoint>
          <Trackpoint>
            <Time>2020-04-26T17:15:07.000Z</Time>
            <Position>
              <LatitudeDegrees>38.55894654057919979095458984375</LatitudeDegrees>
              <LongitudeDegrees>-28.64177559502422809600830078125</LongitudeDegrees>
            </Position>
            <AltitudeMeters>244.1999969482421875</AltitudeMeters>
            <DistanceMeters>17634.685187798</DistanceMeters>
          </Trackpoint>
          <Trackpoint>
            <Time>2020-04-26T17:15:09.000Z</Time>
            <Position>
              <LatitudeDegrees>38.55887965299189090728759765625</LatitudeDegrees>
              <LongitudeDegrees>-28.64147501997649669647216796875</LongitudeDegrees>
            </Position>
            <AltitudeMeters>242.600006103515625</AltitudeMeters>
            <DistanceMeters>17661.884250515</DistanceMeters>
          </Trackpoint>
          <Trackpoint>
            <Time>2020-04-26T17:15:11.000Z</Time>
            <Position>
              <LatitudeDegrees>38.558836989104747772216796875</LatitudeDegrees>
              <LongitudeDegrees>-28.64116539247334003448486328125</LongitudeDegrees>
            </Position>
            <AltitudeMeters>240.600006103515625</AltitudeMeters>
            <DistanceMeters>17689.247654517</DistanceMeters>
          </Trackpoint>
          <Trackpoint>
            <Time>2020-04-26T17:15:12.000Z</Time>
            <Position>
              <LatitudeDegrees>38.5588291101157665252685546875</LatitudeDegrees>
              <LongitudeDegrees>-28.64100747741758823394775390625</LongitudeDegrees>
            </Position>
            <AltitudeMeters>240.1999969482421875</AltitudeMeters>
            <DistanceMeters>17703.019645136</DistanceMeters>
          </Trackpoint>
          <Trackpoint>
            <Time>2020-04-26T17:15:13.000Z</Time>
            <Position>
              <LatitudeDegrees>38.5588244162499904632568359375</LatitudeDegrees>
              <LongitudeDegrees>-28.64084889180958271026611328125</LongitudeDegrees>
            </Position>
            <AltitudeMeters>239.600006103515625</AltitudeMeters>
            <DistanceMeters>17716.832228353</DistanceMeters>
          </Trackpoint>
          <Trackpoint>
            <Time>2020-04-26T17:15:14.000Z</Time>
            <Position>
              <LatitudeDegrees>38.55880639515817165374755859375</LatitudeDegrees>
              <LongitudeDegrees>-28.640688546001911163330078125</LongitudeDegrees>
            </Position>
            <AltitudeMeters>238.8000030517578125</AltitudeMeters>
            <DistanceMeters>17730.931131599</DistanceMeters>
          </Trackpoint>
          <Trackpoint>
            <Time>2020-04-26T17:15:15.000Z</Time>
            <Position>
              <LatitudeDegrees>38.5587670840322971343994140625</LatitudeDegrees>
              <LongitudeDegrees>-28.64053389988839626312255859375</LongitudeDegrees>
            </Position>
            <AltitudeMeters>237.8000030517578125</AltitudeMeters>
            <DistanceMeters>17745.083732972</DistanceMeters>
          </Trackpoint>
          <Trackpoint>
            <Time>2020-04-26T17:15:16.000Z</Time>
            <Position>
              <LatitudeDegrees>38.55870380066335201263427734375</LatitudeDegrees>
              <LongitudeDegrees>-28.6403923295438289642333984375</LongitudeDegrees>
            </Position>
            <AltitudeMeters>237.1999969482421875</AltitudeMeters>
            <DistanceMeters>17759.276156484</DistanceMeters>
          </Trackpoint>
          <Trackpoint>
            <Time>2020-04-26T17:15:17.000Z</Time>
            <Position>
              <LatitudeDegrees>38.558616377413272857666015625</LatitudeDegrees>
              <LongitudeDegrees>-28.64027045667171478271484375</LongitudeDegrees>
            </Position>
            <AltitudeMeters>236.8000030517578125</AltitudeMeters>
            <DistanceMeters>17773.669802438</DistanceMeters>
          </Trackpoint>
          <Trackpoint>
            <Time>2020-04-26T17:15:18.000Z</Time>
            <Position>
              <LatitudeDegrees>38.55851621367037296295166015625</LatitudeDegrees>
              <LongitudeDegrees>-28.64016928710043430328369140625</LongitudeDegrees>
            </Position>
            <AltitudeMeters>236</AltitudeMeters>
            <DistanceMeters>17787.876216783</DistanceMeters>
          </Trackpoint>
          <Trackpoint>
            <Time>2020-04-26T17:15:19.000Z</Time>
            <Position>
              <LatitudeDegrees>38.5584110207855701446533203125</LatitudeDegrees>
              <LongitudeDegrees>-28.64008077420294284820556640625</LongitudeDegrees>
            </Position>
            <AltitudeMeters>235.1999969482421875</AltitudeMeters>
            <DistanceMeters>17801.890965897</DistanceMeters>
          </Trackpoint>
          <Trackpoint>
            <Time>2020-04-26T17:15:21.000Z</Time>
            <Position>
              <LatitudeDegrees>38.5582252778112888336181640625</LatitudeDegrees>
              <LongitudeDegrees>-28.63986602984368801116943359375</LongitudeDegrees>
            </Position>
            <AltitudeMeters>233.8000030517578125</AltitudeMeters>
            <DistanceMeters>17829.760699037</DistanceMeters>
          </Trackpoint>
          <Trackpoint>
            <Time>2020-04-26T17:15:23.000Z</Time>
            <Position>
              <LatitudeDegrees>38.55808856897056102752685546875</LatitudeDegrees>
              <LongitudeDegrees>-28.63959864713251590728759765625</LongitudeDegrees>
            </Position>
            <AltitudeMeters>232.8000030517578125</AltitudeMeters>
            <DistanceMeters>17857.56539225</DistanceMeters>
          </Trackpoint>
          <Trackpoint>
            <Time>2020-04-26T17:15:24.000Z</Time>
            <Position>
              <LatitudeDegrees>38.55802520178258419036865234375</LatitudeDegrees>
              <LongitudeDegrees>-28.63946336321532726287841796875</LongitudeDegrees>
            </Position>
            <AltitudeMeters>232.1999969482421875</AltitudeMeters>
            <DistanceMeters>17871.290421383</DistanceMeters>
          </Trackpoint>
          <Trackpoint>
            <Time>2020-04-26T17:15:25.000Z</Time>
            <Position>
              <LatitudeDegrees>38.5579627566039562225341796875</LatitudeDegrees>
              <LongitudeDegrees>-28.63932472653687000274658203125</LongitudeDegrees>
            </Position>
            <AltitudeMeters>231.399993896484375</AltitudeMeters>
            <DistanceMeters>17885.214996831</DistanceMeters>
          </Trackpoint>
          <Trackpoint>
            <Time>2020-04-26T17:15:27.000Z</Time>
            <Position>
              <LatitudeDegrees>38.55785354040563106536865234375</LatitudeDegrees>
              <LongitudeDegrees>-28.63903689198195934295654296875</LongitudeDegrees>
            </Position>
            <AltitudeMeters>230.399993896484375</AltitudeMeters>
            <DistanceMeters>17913.06025646</DistanceMeters>
          </Trackpoint>
          <Trackpoint>
            <Time>2020-04-26T17:15:29.000Z</Time>
            <Position>
              <LatitudeDegrees>38.55776519514620304107666015625</LatitudeDegrees>
              <LongitudeDegrees>-28.638737909495830535888671875</LongitudeDegrees>
            </Position>
            <AltitudeMeters>229</AltitudeMeters>
            <DistanceMeters>17940.878261977</DistanceMeters>
          </Trackpoint>
          <Trackpoint>
            <Time>2020-04-26T17:15:31.000Z</Time>
            <Position>
              <LatitudeDegrees>38.557686991989612579345703125</LatitudeDegrees>
              <LongitudeDegrees>-28.63843808881938457489013671875</LongitudeDegrees>
            </Position>
            <AltitudeMeters>228</AltitudeMeters>
            <DistanceMeters>17968.386813484</DistanceMeters>
          </Trackpoint>
          <Trackpoint>
            <Time>2020-04-26T17:15:33.000Z</Time>
            <Position>
              <LatitudeDegrees>38.55761063285171985626220703125</LatitudeDegrees>
              <LongitudeDegrees>-28.63813675940036773681640625</LongitudeDegrees>
            </Position>
            <AltitudeMeters>226.399993896484375</AltitudeMeters>
            <DistanceMeters>17995.956027007</DistanceMeters>
          </Trackpoint>
          <Trackpoint>
            <Time>2020-04-26T17:15:35.000Z</Time>
            <Position>
              <LatitudeDegrees>38.5575211979448795318603515625</LatitudeDegrees>
              <LongitudeDegrees>-28.6378499306738376617431640625</LongitudeDegrees>
            </Position>
            <AltitudeMeters>225.399993896484375</AltitudeMeters>
            <DistanceMeters>18022.831960754</DistanceMeters>
          </Trackpoint>
          <Trackpoint>
            <Time>2020-04-26T17:15:36.000Z</Time>
            <Position>
              <LatitudeDegrees>38.55746864341199398040771484375</LatitudeDegrees>
              <LongitudeDegrees>-28.6377077735960483551025390625</LongitudeDegrees>
            </Position>
            <AltitudeMeters>224.1999969482421875</AltitudeMeters>
            <DistanceMeters>18036.517787203</DistanceMeters>
          </Trackpoint>
          <Trackpoint>
            <Time>2020-04-26T17:15:38.000Z</Time>
            <Position>
              <LatitudeDegrees>38.5573502071201801300048828125</LatitudeDegrees>
              <LongitudeDegrees>-28.6374237947165966033935546875</LongitudeDegrees>
            </Position>
            <AltitudeMeters>222.8000030517578125</AltitudeMeters>
            <DistanceMeters>18064.529883209</DistanceMeters>
          </Trackpoint>
          <Trackpoint>
            <Time>2020-04-26T17:15:41.000Z</Time>
            <Position>
              <LatitudeDegrees>38.55717812664806842803955078125</LatitudeDegrees>
              <LongitudeDegrees>-28.63700360991060733795166015625</LongitudeDegrees>
            </Position>
            <AltitudeMeters>221.1999969482421875</AltitudeMeters>
            <DistanceMeters>18105.813057842</DistanceMeters>
          </Trackpoint>
          <Trackpoint>
            <Time>2020-04-26T17:15:42.000Z</Time>
            <Position>
              <LatitudeDegrees>38.55711861513555049896240234375</LatitudeDegrees>
              <LongitudeDegrees>-28.63686765544116497039794921875</LongitudeDegrees>
            </Position>
            <AltitudeMeters>220.399993896484375</AltitudeMeters>
            <DistanceMeters>18119.373939332</DistanceMeters>
          </Trackpoint>
          <Trackpoint>
            <Time>2020-04-26T17:15:43.000Z</Time>
            <Position>
              <LatitudeDegrees>38.5570536553859710693359375</LatitudeDegrees>
              <LongitudeDegrees>-28.63673404790461063385009765625</LongitudeDegrees>
            </Position>
            <AltitudeMeters>219.399993896484375</AltitudeMeters>
            <DistanceMeters>18133.06735152</DistanceMeters>
          </Trackpoint>
          <Trackpoint>
            <Time>2020-04-26T17:15:45.000Z</Time>
            <Position>
              <LatitudeDegrees>38.5569168627262115478515625</LatitudeDegrees>
              <LongitudeDegrees>-28.636473119258880615234375</LongitudeDegrees>
            </Position>
            <AltitudeMeters>218.399993896484375</AltitudeMeters>
            <DistanceMeters>18160.409296744</DistanceMeters>
          </Trackpoint>
          <Trackpoint>
            <Time>2020-04-26T17:15:47.000Z</Time>
            <Position>
              <LatitudeDegrees>38.55677931569516658782958984375</LatitudeDegrees>
              <LongitudeDegrees>-28.6362077482044696807861328125</LongitudeDegrees>
            </Position>
            <AltitudeMeters>217.1999969482421875</AltitudeMeters>
            <DistanceMeters>18188.119647163</DistanceMeters>
          </Trackpoint>
          <Trackpoint>
            <Time>2020-04-26T17:15:48.000Z</Time>
            <Position>
              <LatitudeDegrees>38.556714691221714019775390625</LatitudeDegrees>
              <LongitudeDegrees>-28.63607355393469333648681640625</LongitudeDegrees>
            </Position>
            <AltitudeMeters>216.8000030517578125</AltitudeMeters>
            <DistanceMeters>18201.836778892</DistanceMeters>
          </Trackpoint>
          <Trackpoint>
            <Time>2020-04-26T17:15:49.000Z</Time>
            <Position>
              <LatitudeDegrees>38.55664730072021484375</LatitudeDegrees>
              <LongitudeDegrees>-28.63593860529363155364990234375</LongitudeDegrees>
            </Position>
            <AltitudeMeters>216</AltitudeMeters>
            <DistanceMeters>18215.773022437</DistanceMeters>
          </Trackpoint>
          <Trackpoint>
            <Time>2020-04-26T17:15:51.000Z</Time>
            <Position>
              <LatitudeDegrees>38.5565039701759815216064453125</LatitudeDegrees>
              <LongitudeDegrees>-28.635679520666599273681640625</LongitudeDegrees>
            </Position>
            <AltitudeMeters>214.8000030517578125</AltitudeMeters>
            <DistanceMeters>18243.395573717</DistanceMeters>
          </Trackpoint>
          <Trackpoint>
            <Time>2020-04-26T17:15:53.000Z</Time>
            <Position>
              <LatitudeDegrees>38.55636843480169773101806640625</LatitudeDegrees>
              <LongitudeDegrees>-28.63540819846093654632568359375</LongitudeDegrees>
            </Position>
            <AltitudeMeters>213.8000030517578125</AltitudeMeters>
            <DistanceMeters>18271.417661209</DistanceMeters>
          </Trackpoint>
          <Trackpoint>
            <Time>2020-04-26T17:15:54.000Z</Time>
            <Position>
              <LatitudeDegrees>38.5563148744404315948486328125</LatitudeDegrees>
              <LongitudeDegrees>-28.63526369445025920867919921875</LongitudeDegrees>
            </Position>
            <AltitudeMeters>213</AltitudeMeters>
            <DistanceMeters>18285.336074551</DistanceMeters>
          </Trackpoint>
          <Trackpoint>
            <Time>2020-04-26T17:15:55.000Z</Time>
            <Position>
              <LatitudeDegrees>38.55626835487782955169677734375</LatitudeDegrees>
              <LongitudeDegrees>-28.6351261474192142486572265625</LongitudeDegrees>
            </Position>
            <AltitudeMeters>212</AltitudeMeters>
            <DistanceMeters>18298.379334887</DistanceMeters>
          </Trackpoint>
          <Trackpoint>
            <Time>2020-04-26T17:15:56.000Z</Time>
            <Position>
              <LatitudeDegrees>38.55623147450387477874755859375</LatitudeDegrees>
              <LongitudeDegrees>-28.63499027676880359649658203125</LongitudeDegrees>
            </Position>
            <AltitudeMeters>211.1999969482421875</AltitudeMeters>
            <DistanceMeters>18310.897639349</DistanceMeters>
          </Trackpoint>
          <Trackpoint>
            <Time>2020-04-26T17:15:57.000Z</Time>
            <Position>
              <LatitudeDegrees>38.55622326023876667022705078125</LatitudeDegrees>
              <LongitudeDegrees>-28.63484778441488742828369140625</LongitudeDegrees>
            </Position>
            <AltitudeMeters>210.600006103515625</AltitudeMeters>
            <DistanceMeters>18323.333801107</DistanceMeters>
          </Trackpoint>
          <Trackpoint>
            <Time>2020-04-26T17:15:59.000Z</Time>
            <Position>
              <LatitudeDegrees>38.55629098601639270782470703125</LatitudeDegrees>
              <LongitudeDegrees>-28.63456405699253082275390625</LongitudeDegrees>
            </Position>
            <AltitudeMeters>209.1999969482421875</AltitudeMeters>
            <DistanceMeters>18349.153802728</DistanceMeters>
          </Trackpoint>
          <Trackpoint>
            <Time>2020-04-26T17:16:02.000Z</Time>
            <Position>
              <LatitudeDegrees>38.55633574537932872772216796875</LatitudeDegrees>
              <LongitudeDegrees>-28.63411872647702693939208984375</LongitudeDegrees>
            </Position>
            <AltitudeMeters>207.8000030517578125</AltitudeMeters>
            <DistanceMeters>18388.233242955</DistanceMeters>
          </Trackpoint>
          <Trackpoint>
            <Time>2020-04-26T17:16:04.000Z</Time>
            <Position>
              <LatitudeDegrees>38.556272797286510467529296875</LatitudeDegrees>
              <LongitudeDegrees>-28.63381840288639068603515625</LongitudeDegrees>
            </Position>
            <AltitudeMeters>207.1999969482421875</AltitudeMeters>
            <DistanceMeters>18415.295509857</DistanceMeters>
          </Trackpoint>
          <Trackpoint>
            <Time>2020-04-26T17:16:05.000Z</Time>
            <Position>
              <LatitudeDegrees>38.5562437959015369415283203125</LatitudeDegrees>
              <LongitudeDegrees>-28.633663170039653778076171875</LongitudeDegrees>
            </Position>
            <AltitudeMeters>206.399993896484375</AltitudeMeters>
            <DistanceMeters>18429.186972473</DistanceMeters>
          </Trackpoint>
          <Trackpoint>
            <Time>2020-04-26T17:16:07.000Z</Time>
            <Position>
              <LatitudeDegrees>38.55618554167449474334716796875</LatitudeDegrees>
              <LongitudeDegrees>-28.63335228525102138519287109375</LongitudeDegrees>
            </Position>
            <AltitudeMeters>205</AltitudeMeters>
            <DistanceMeters>18457.01179402</DistanceMeters>
          </Trackpoint>
          <Trackpoint>
            <Time>2020-04-26T17:16:08.000Z</Time>
            <Position>
              <LatitudeDegrees>38.55613910593092441558837890625</LatitudeDegrees>
              <LongitudeDegrees>-28.63320392556488513946533203125</LongitudeDegrees>
            </Position>
            <AltitudeMeters>204.1999969482421875</AltitudeMeters>
            <DistanceMeters>18470.920796779</DistanceMeters>
          </Trackpoint>
          <Trackpoint>
            <Time>2020-04-26T17:16:09.000Z</Time>
            <Position>
              <LatitudeDegrees>38.55607992969453334808349609375</LatitudeDegrees>
              <LongitudeDegrees>-28.633063696324825286865234375</LongitudeDegrees>
            </Position>
            <AltitudeMeters>203.399993896484375</AltitudeMeters>
            <DistanceMeters>18484.789489156</DistanceMeters>
          </Trackpoint>
          <Trackpoint>
            <Time>2020-04-26T17:16:11.000Z</Time>
            <Position>
              <LatitudeDegrees>38.55595604516565799713134765625</LatitudeDegrees>
              <LongitudeDegrees>-28.6327943019568920135498046875</LongitudeDegrees>
            </Position>
            <AltitudeMeters>202.1999969482421875</AltitudeMeters>
            <DistanceMeters>18511.990709784</DistanceMeters>
          </Trackpoint>
          <Trackpoint>
            <Time>2020-04-26T17:16:12.000Z</Time>
            <Position>
              <LatitudeDegrees>38.55591866187751293182373046875</LatitudeDegrees>
              <LongitudeDegrees>-28.63264602608978748321533203125</LongitudeDegrees>
            </Position>
            <AltitudeMeters>201.600006103515625</AltitudeMeters>
            <DistanceMeters>18525.5505924</DistanceMeters>
          </Trackpoint>
          <Trackpoint>
            <Time>2020-04-26T17:16:13.000Z</Time>
            <Position>
              <LatitudeDegrees>38.5558944381773471832275390625</LatitudeDegrees>
              <LongitudeDegrees>-28.6324940621852874755859375</LongitudeDegrees>
            </Position>
            <AltitudeMeters>201</AltitudeMeters>
            <DistanceMeters>18539.049738397</DistanceMeters>
          </Trackpoint>
          <Trackpoint>
            <Time>2020-04-26T17:16:14.000Z</Time>
            <Position>
              <LatitudeDegrees>38.5558739863336086273193359375</LatitudeDegrees>
              <LongitudeDegrees>-28.6323423497378826141357421875</LongitudeDegrees>
            </Position>
            <AltitudeMeters>200.399993896484375</AltitudeMeters>
            <DistanceMeters>18552.449516007</DistanceMeters>
          </Trackpoint>
          <Trackpoint>
            <Time>2020-04-26T17:16:15.000Z</Time>
            <Position>
              <LatitudeDegrees>38.5558558814227581024169921875</LatitudeDegrees>
              <LongitudeDegrees>-28.63219139166176319122314453125</LongitudeDegrees>
            </Position>
            <AltitudeMeters>199.8000030517578125</AltitudeMeters>
            <DistanceMeters>18565.742391387</DistanceMeters>
          </Trackpoint>
          <Trackpoint>
            <Time>2020-04-26T17:16:16.000Z</Time>
            <Position>
              <LatitudeDegrees>38.5558347590267658233642578125</LatitudeDegrees>
              <LongitudeDegrees>-28.6320409364998340606689453125</LongitudeDegrees>
            </Position>
            <AltitudeMeters>199.600006103515625</AltitudeMeters>
            <DistanceMeters>18579.046810143</DistanceMeters>
          </Trackpoint>
          <Trackpoint>
            <Time>2020-04-26T17:16:18.000Z</Time>
            <Position>
              <LatitudeDegrees>38.555792011320590972900390625</LatitudeDegrees>
              <LongitudeDegrees>-28.63174631260335445404052734375</LongitudeDegrees>
            </Position>
            <AltitudeMeters>198.399993896484375</AltitudeMeters>
            <DistanceMeters>18605.128137919</DistanceMeters>
          </Trackpoint>
          <Trackpoint>
            <Time>2020-04-26T17:16:21.000Z</Time>
            <Position>
              <LatitudeDegrees>38.5557378642261028289794921875</LatitudeDegrees>
              <LongitudeDegrees>-28.63130911253392696380615234375</LongitudeDegrees>
            </Position>
            <AltitudeMeters>197.1999969482421875</AltitudeMeters>
            <DistanceMeters>18643.655699429</DistanceMeters>
          </Trackpoint>
          <Trackpoint>
            <Time>2020-04-26T17:16:23.000Z</Time>
            <Position>
              <LatitudeDegrees>38.55568262748420238494873046875</LatitudeDegrees>
              <LongitudeDegrees>-28.63102354109287261962890625</LongitudeDegrees>
            </Position>
            <AltitudeMeters>196</AltitudeMeters>
            <DistanceMeters>18669.260417939</DistanceMeters>
          </Trackpoint>
          <Trackpoint>
            <Time>2020-04-26T17:16:25.000Z</Time>
            <Position>
              <LatitudeDegrees>38.5555769316852092742919921875</LatitudeDegrees>
              <LongitudeDegrees>-28.63077015615999698638916015625</LongitudeDegrees>
            </Position>
            <AltitudeMeters>194.8000030517578125</AltitudeMeters>
            <DistanceMeters>18694.256237373</DistanceMeters>
          </Trackpoint>
          <Trackpoint>
            <Time>2020-04-26T17:16:26.000Z</Time>
            <Position>
              <LatitudeDegrees>38.5555115528404712677001953125</LatitudeDegrees>
              <LongitudeDegrees>-28.63065146841108798980712890625</LongitudeDegrees>
            </Position>
            <AltitudeMeters>194.600006103515625</AltitudeMeters>
            <DistanceMeters>18706.892646742</DistanceMeters>
          </Trackpoint>
          <Trackpoint>
            <Time>2020-04-26T17:16:27.000Z</Time>
            <Position>
              <LatitudeDegrees>38.555443994700908660888671875</LatitudeDegrees>
              <LongitudeDegrees>-28.63053630106151103973388671875</LongitudeDegrees>
            </Position>
            <AltitudeMeters>194.399993896484375</AltitudeMeters>
            <DistanceMeters>18719.423208151</DistanceMeters>
          </Trackpoint>
          <Trackpoint>
            <Time>2020-04-26T17:16:29.000Z</Time>
            <Position>
              <LatitudeDegrees>38.55530150234699249267578125</LatitudeDegrees>
              <LongitudeDegrees>-28.6303115822374820709228515625</LongitudeDegrees>
            </Position>
            <AltitudeMeters>193.8000030517578125</AltitudeMeters>
            <DistanceMeters>18744.604390964</DistanceMeters>
          </Trackpoint>
          <Trackpoint>
            <Time>2020-04-26T17:16:31.000Z</Time>
            <Position>
              <LatitudeDegrees>38.55516043491661548614501953125</LatitudeDegrees>
              <LongitudeDegrees>-28.630086444318294525146484375</LongitudeDegrees>
            </Position>
            <AltitudeMeters>192.600006103515625</AltitudeMeters>
            <DistanceMeters>18769.71446977</DistanceMeters>
          </Trackpoint>
          <Trackpoint>
            <Time>2020-04-26T17:16:32.000Z</Time>
            <Position>
              <LatitudeDegrees>38.55509472079575061798095703125</LatitudeDegrees>
              <LongitudeDegrees>-28.62997169606387615203857421875</LongitudeDegrees>
            </Position>
            <AltitudeMeters>191.8000030517578125</AltitudeMeters>
            <DistanceMeters>18782.09422976</DistanceMeters>
          </Trackpoint>
          <Trackpoint>
            <Time>2020-04-26T17:16:36.000Z</Time>
            <Position>
              <LatitudeDegrees>38.5547970794141292572021484375</LatitudeDegrees>
              <LongitudeDegrees>-28.629568777978420257568359375</LongitudeDegrees>
            </Position>
            <AltitudeMeters>191.8000030517578125</AltitudeMeters>
            <DistanceMeters>18830.33692581</DistanceMeters>
          </Trackpoint>
          <Trackpoint>
            <Time>2020-04-26T17:16:37.000Z</Time>
            <Position>
              <LatitudeDegrees>38.55470647104084491729736328125</LatitudeDegrees>
              <LongitudeDegrees>-28.62949510104954242706298828125</LongitudeDegrees>
            </Position>
            <AltitudeMeters>191.600006103515625</AltitudeMeters>
            <DistanceMeters>18842.287644995</DistanceMeters>
          </Trackpoint>
          <Trackpoint>
            <Time>2020-04-26T17:16:38.000Z</Time>
            <Position>
              <LatitudeDegrees>38.55461485683917999267578125</LatitudeDegrees>
              <LongitudeDegrees>-28.6294247768819332122802734375</LongitudeDegrees>
            </Position>
            <AltitudeMeters>191.399993896484375</AltitudeMeters>
            <DistanceMeters>18854.180039929</DistanceMeters>
          </Trackpoint>
          <Trackpoint>
            <Time>2020-04-26T17:16:43.000Z</Time>
            <Position>
              <LatitudeDegrees>38.5541852004826068878173828125</LatitudeDegrees>
              <LongitudeDegrees>-28.62904650159180164337158203125</LongitudeDegrees>
            </Position>
            <AltitudeMeters>191</AltitudeMeters>
            <DistanceMeters>18912.240040419</DistanceMeters>
          </Trackpoint>
          <Trackpoint>
            <Time>2020-04-26T17:16:49.000Z</Time>
            <Position>
              <LatitudeDegrees>38.5536796040832996368408203125</LatitudeDegrees>
              <LongitudeDegrees>-28.62858809530735015869140625</LongitudeDegrees>
            </Position>
            <AltitudeMeters>191.399993896484375</AltitudeMeters>
            <DistanceMeters>18981.223806518</DistanceMeters>
          </Trackpoint>
          <Trackpoint>
            <Time>2020-04-26T17:16:52.000Z</Time>
            <Position>
              <LatitudeDegrees>38.5534291528165340423583984375</LatitudeDegrees>
              <LongitudeDegrees>-28.6283750273287296295166015625</LongitudeDegrees>
            </Position>
            <AltitudeMeters>191.1999969482421875</AltitudeMeters>
            <DistanceMeters>19014.705050368</DistanceMeters>
          </Trackpoint>
          <Trackpoint>
            <Time>2020-04-26T17:16:56.000Z</Time>
            <Position>
              <LatitudeDegrees>38.5531206987798213958740234375</LatitudeDegrees>
              <LongitudeDegrees>-28.62808308564126491546630859375</LongitudeDegrees>
            </Position>
            <AltitudeMeters>190</AltitudeMeters>
            <DistanceMeters>19057.417735068</DistanceMeters>
          </Trackpoint>
          <Trackpoint>
            <Time>2020-04-26T17:16:57.000Z</Time>
            <Position>
              <LatitudeDegrees>38.55306328274309635162353515625</LatitudeDegrees>
              <LongitudeDegrees>-28.62803279422223567962646484375</LongitudeDegrees>
            </Position>
            <AltitudeMeters>189.1999969482421875</AltitudeMeters>
            <DistanceMeters>19065.163432447</DistanceMeters>
          </Trackpoint>
          <Trackpoint>
            <Time>2020-04-26T17:16:58.000Z</Time>
            <Position>
              <LatitudeDegrees>38.553018271923065185546875</LatitudeDegrees>
              <LongitudeDegrees>-28.6279965005815029144287109375</LongitudeDegrees>
            </Position>
            <AltitudeMeters>188.399993896484375</AltitudeMeters>
            <DistanceMeters>19071.085663185</DistanceMeters>
          </Trackpoint>
          <Trackpoint>
            <Time>2020-04-26T17:17:00.000Z</Time>
            <Position>
              <LatitudeDegrees>38.55298273265361785888671875</LatitudeDegrees>
              <LongitudeDegrees>-28.62795174121856689453125</LongitudeDegrees>
            </Position>
            <AltitudeMeters>187.1999969482421875</AltitudeMeters>
            <DistanceMeters>19076.63802133</DistanceMeters>
          </Trackpoint>
          <Trackpoint>
            <Time>2020-04-26T17:17:03.000Z</Time>
            <Position>
              <LatitudeDegrees>38.55303905904293060302734375</LatitudeDegrees>
              <LongitudeDegrees>-28.62795735709369182586669921875</LongitudeDegrees>
            </Position>
            <AltitudeMeters>186.600006103515625</AltitudeMeters>
            <DistanceMeters>19082.925602318</DistanceMeters>
          </Trackpoint>
          <Trackpoint>
            <Time>2020-04-26T17:17:06.000Z</Time>
            <Position>
              <LatitudeDegrees>38.553088009357452392578125</LatitudeDegrees>
              <LongitudeDegrees>-28.62804955802857875823974609375</LongitudeDegrees>
            </Position>
            <AltitudeMeters>187.1999969482421875</AltitudeMeters>
            <DistanceMeters>19092.625311925</DistanceMeters>
          </Trackpoint>
          <Trackpoint>
            <Time>2020-04-26T17:17:09.000Z</Time>
            <Position>
              <LatitudeDegrees>38.55318113230168819427490234375</LatitudeDegrees>
              <LongitudeDegrees>-28.62812901847064495086669921875</LongitudeDegrees>
            </Position>
            <AltitudeMeters>187.8000030517578125</AltitudeMeters>
            <DistanceMeters>19105.086137117</DistanceMeters>
          </Trackpoint>
          <Trackpoint>
            <Time>2020-04-26T17:17:10.000Z</Time>
            <Position>
              <LatitudeDegrees>38.55321315117180347442626953125</LatitudeDegrees>
              <LongitudeDegrees>-28.6281594447791576385498046875</LongitudeDegrees>
            </Position>
            <AltitudeMeters>188.399993896484375</AltitudeMeters>
            <DistanceMeters>19109.527047716</DistanceMeters>
          </Trackpoint>
          <Trackpoint>
            <Time>2020-04-26T17:17:12.000Z</Time>
            <Position>
              <LatitudeDegrees>38.55328003875911235809326171875</LatitudeDegrees>
              <LongitudeDegrees>-28.628220297396183013916015625</LongitudeDegrees>
            </Position>
            <AltitudeMeters>189.1999969482421875</AltitudeMeters>
            <DistanceMeters>19118.663459848</DistanceMeters>
          </Trackpoint>
          <Trackpoint>
            <Time>2020-04-26T17:17:13.000Z</Time>
            <Position>
              <LatitudeDegrees>38.55331624858081340789794921875</LatitudeDegrees>
              <LongitudeDegrees>-28.62825147807598114013671875</LongitudeDegrees>
            </Position>
            <AltitudeMeters>189.600006103515625</AltitudeMeters>
            <DistanceMeters>19123.52284766</DistanceMeters>
          </Trackpoint>
          <Trackpoint>
            <Time>2020-04-26T17:17:16.000Z</Time>
            <Position>
              <LatitudeDegrees>38.5534117184579372406005859375</LatitudeDegrees>
              <LongitudeDegrees>-28.6283433437347412109375</LongitudeDegrees>
            </Position>
            <AltitudeMeters>190.1999969482421875</AltitudeMeters>
            <DistanceMeters>19136.821835487</DistanceMeters>
          </Trackpoint>
          <Trackpoint>
            <Time>2020-04-26T17:17:17.000Z</Time>
            <Position>
              <LatitudeDegrees>38.55344583280384540557861328125</LatitudeDegrees>
              <LongitudeDegrees>-28.6283750273287296295166015625</LongitudeDegrees>
            </Position>
            <AltitudeMeters>190.1999969482421875</AltitudeMeters>
            <DistanceMeters>19141.515808913</DistanceMeters>
          </Trackpoint>
          <Trackpoint>
            <Time>2020-04-26T17:17:24.000Z</Time>
            <Position>
              <LatitudeDegrees>38.55371690355241298675537109375</LatitudeDegrees>
              <LongitudeDegrees>-28.628619946539402008056640625</LongitudeDegrees>
            </Position>
            <AltitudeMeters>190.1999969482421875</AltitudeMeters>
            <DistanceMeters>19178.458108694</DistanceMeters>
          </Trackpoint>
          <Trackpoint>
            <Time>2020-04-26T17:17:32.000Z</Time>
            <Position>
              <LatitudeDegrees>38.55402954854071140289306640625</LatitudeDegrees>
              <LongitudeDegrees>-28.62891532480716705322265625</LongitudeDegrees>
            </Position>
            <AltitudeMeters>190.399993896484375</AltitudeMeters>
            <DistanceMeters>19221.723553642</DistanceMeters>
          </Trackpoint>
          <Trackpoint>
            <Time>2020-04-26T17:17:36.000Z</Time>
            <Position>
              <LatitudeDegrees>38.5541997849941253662109375</LatitudeDegrees>
              <LongitudeDegrees>-28.62906695343554019927978515625</LongitudeDegrees>
            </Position>
            <AltitudeMeters>190.600006103515625</AltitudeMeters>
            <DistanceMeters>19244.814458642</DistanceMeters>
          </Trackpoint>
          <Trackpoint>
            <Time>2020-04-26T17:17:39.000Z</Time>
            <Position>
              <LatitudeDegrees>38.5543365776538848876953125</LatitudeDegrees>
              <LongitudeDegrees>-28.6291679553687572479248046875</LongitudeDegrees>
            </Position>
            <AltitudeMeters>190.399993896484375</AltitudeMeters>
            <DistanceMeters>19262.395684898</DistanceMeters>
          </Trackpoint>
          <Trackpoint>
            <Time>2020-04-26T17:17:47.000Z</Time>
            <Position>
              <LatitudeDegrees>38.55470999144017696380615234375</LatitudeDegrees>
              <LongitudeDegrees>-28.629503063857555389404296875</LongitudeDegrees>
            </Position>
            <AltitudeMeters>191.1999969482421875</AltitudeMeters>
            <DistanceMeters>19313.171082536</DistanceMeters>
          </Trackpoint>
          <Trackpoint>
            <Time>2020-04-26T17:17:55.000Z</Time>
            <Position>
              <LatitudeDegrees>38.55504660867154598236083984375</LatitudeDegrees>
              <LongitudeDegrees>-28.62988653592765331268310546875</LongitudeDegrees>
            </Position>
            <AltitudeMeters>191.1999969482421875</AltitudeMeters>
            <DistanceMeters>19363.348247202</DistanceMeters>
          </Trackpoint>
          <Trackpoint>
            <Time>2020-04-26T17:18:01.000Z</Time>
            <Position>
              <LatitudeDegrees>38.5552507080137729644775390625</LatitudeDegrees>
              <LongitudeDegrees>-28.63022021949291229248046875</LongitudeDegrees>
            </Position>
            <AltitudeMeters>191.8000030517578125</AltitudeMeters>
            <DistanceMeters>19400.220571639</DistanceMeters>
          </Trackpoint>
          <Trackpoint>
            <Time>2020-04-26T17:18:03.000Z</Time>
            <Position>
              <LatitudeDegrees>38.55531265027821063995361328125</LatitudeDegrees>
              <LongitudeDegrees>-28.630330860614776611328125</LongitudeDegrees>
            </Position>
            <AltitudeMeters>192.1999969482421875</AltitudeMeters>
            <DistanceMeters>19412.064270702</DistanceMeters>
          </Trackpoint>
          <Trackpoint>
            <Time>2020-04-26T17:18:05.000Z</Time>
            <Position>
              <LatitudeDegrees>38.5553791187703609466552734375</LatitudeDegrees>
              <LongitudeDegrees>-28.630435466766357421875</LongitudeDegrees>
            </Position>
            <AltitudeMeters>192.8000030517578125</AltitudeMeters>
            <DistanceMeters>19423.795356116</DistanceMeters>
          </Trackpoint>
          <Trackpoint>
            <Time>2020-04-26T17:18:10.000Z</Time>
            <Position>
              <LatitudeDegrees>38.5555410571396350860595703125</LatitudeDegrees>
              <LongitudeDegrees>-28.63068734295666217803955078125</LongitudeDegrees>
            </Position>
            <AltitudeMeters>193.1999969482421875</AltitudeMeters>
            <DistanceMeters>19452.176385322</DistanceMeters>
          </Trackpoint>
          <Trackpoint>
            <Time>2020-04-26T17:18:13.000Z</Time>
            <Position>
              <LatitudeDegrees>38.55563216842710971832275390625</LatitudeDegrees>
              <LongitudeDegrees>-28.63085296936333179473876953125</LongitudeDegrees>
            </Position>
            <AltitudeMeters>194</AltitudeMeters>
            <DistanceMeters>19469.801727584</DistanceMeters>
          </Trackpoint>
          <Trackpoint>
            <Time>2020-04-26T17:18:15.000Z</Time>
            <Position>
              <LatitudeDegrees>38.555682040750980377197265625</LatitudeDegrees>
              <LongitudeDegrees>-28.63096855580806732177734375</LongitudeDegrees>
            </Position>
            <AltitudeMeters>194.1999969482421875</AltitudeMeters>
            <DistanceMeters>19481.291710944</DistanceMeters>
          </Trackpoint>
          <Trackpoint>
            <Time>2020-04-26T17:18:17.000Z</Time>
            <Position>
              <LatitudeDegrees>38.5557184182107448577880859375</LatitudeDegrees>
              <LongitudeDegrees>-28.631091602146625518798828125</LongitudeDegrees>
            </Position>
            <AltitudeMeters>194.600006103515625</AltitudeMeters>
            <DistanceMeters>19492.74075412</DistanceMeters>
          </Trackpoint>
          <Trackpoint>
            <Time>2020-04-26T17:18:19.000Z</Time>
            <Position>
              <LatitudeDegrees>38.555743396282196044921875</LatitudeDegrees>
              <LongitudeDegrees>-28.63122009672224521636962890625</LongitudeDegrees>
            </Position>
            <AltitudeMeters>194.8000030517578125</AltitudeMeters>
            <DistanceMeters>19504.265265578</DistanceMeters>
          </Trackpoint>
          <Trackpoint>
            <Time>2020-04-26T17:18:20.000Z</Time>
            <Position>
              <LatitudeDegrees>38.5557502694427967071533203125</LatitudeDegrees>
              <LongitudeDegrees>-28.631286732852458953857421875</LongitudeDegrees>
            </Position>
            <AltitudeMeters>194.8000030517578125</AltitudeMeters>
            <DistanceMeters>19510.115392903</DistanceMeters>
          </Trackpoint>
          <Trackpoint>
            <Time>2020-04-26T17:18:21.000Z</Time>
            <Position>
              <LatitudeDegrees>38.555757813155651092529296875</LatitudeDegrees>
              <LongitudeDegrees>-28.6313552968204021453857421875</LongitudeDegrees>
            </Position>
            <AltitudeMeters>195</AltitudeMeters>
            <DistanceMeters>19516.141914907</DistanceMeters>
          </Trackpoint>
          <Trackpoint>
            <Time>2020-04-26T17:18:23.000Z</Time>
            <Position>
              <LatitudeDegrees>38.5557782649993896484375</LatitudeDegrees>
              <LongitudeDegrees>-28.631489910185337066650390625</LongitudeDegrees>
            </Position>
            <AltitudeMeters>195.399993896484375</AltitudeMeters>
            <DistanceMeters>19528.077512335</DistanceMeters>
          </Trackpoint>
          <Trackpoint>
            <Time>2020-04-26T17:18:27.000Z</Time>
            <Position>
              <LatitudeDegrees>38.55581942014396190643310546875</LatitudeDegrees>
              <LongitudeDegrees>-28.63175972364842891693115234375</LongitudeDegrees>
            </Position>
            <AltitudeMeters>196.399993896484375</AltitudeMeters>
            <DistanceMeters>19552.004250232</DistanceMeters>
          </Trackpoint>
          <Trackpoint>
            <Time>2020-04-26T17:18:31.000Z</Time>
            <Position>
              <LatitudeDegrees>38.555853366851806640625</LatitudeDegrees>
              <LongitudeDegrees>-28.632008247077465057373046875</LongitudeDegrees>
            </Position>
            <AltitudeMeters>197.1999969482421875</AltitudeMeters>
            <DistanceMeters>19573.963030298</DistanceMeters>
          </Trackpoint>
          <Trackpoint>
            <Time>2020-04-26T17:18:32.000Z</Time>
            <Position>
              <LatitudeDegrees>38.5558602400124073028564453125</LatitudeDegrees>
              <LongitudeDegrees>-28.63206666894257068634033203125</LongitudeDegrees>
            </Position>
            <AltitudeMeters>197.8000030517578125</AltitudeMeters>
            <DistanceMeters>19579.105020557</DistanceMeters>
          </Trackpoint>
          <Trackpoint>
            <Time>2020-04-26T17:18:37.000Z</Time>
            <Position>
              <LatitudeDegrees>38.55589720420539379119873046875</LatitudeDegrees>
              <LongitudeDegrees>-28.63237830810248851776123046875</LongitudeDegrees>
            </Position>
            <AltitudeMeters>198.1999969482421875</AltitudeMeters>
            <DistanceMeters>19606.539942313</DistanceMeters>
          </Trackpoint>
          <Trackpoint>
            <Time>2020-04-26T17:18:38.000Z</Time>
            <Position>
              <LatitudeDegrees>38.55590525083243846893310546875</LatitudeDegrees>
              <LongitudeDegrees>-28.63243949599564075469970703125</LongitudeDegrees>
            </Position>
            <AltitudeMeters>198.8000030517578125</AltitudeMeters>
            <DistanceMeters>19611.940604024</DistanceMeters>
          </Trackpoint>
          <Trackpoint>
            <Time>2020-04-26T17:18:39.000Z</Time>
            <Position>
              <LatitudeDegrees>38.5559142194688320159912109375</LatitudeDegrees>
              <LongitudeDegrees>-28.63250101916491985321044921875</LongitudeDegrees>
            </Position>
            <AltitudeMeters>199.1999969482421875</AltitudeMeters>
            <DistanceMeters>19617.387881435</DistanceMeters>
          </Trackpoint>
          <Trackpoint>
            <Time>2020-04-26T17:18:44.000Z</Time>
            <Position>
              <LatitudeDegrees>38.5559899918735027313232421875</LatitudeDegrees>
              <LongitudeDegrees>-28.6328409053385257720947265625</LongitudeDegrees>
            </Position>
            <AltitudeMeters>199.8000030517578125</AltitudeMeters>
            <DistanceMeters>19648.149835711</DistanceMeters>
          </Trackpoint>
          <Trackpoint>
            <Time>2020-04-26T17:18:45.000Z</Time>
            <Position>
              <LatitudeDegrees>38.55602108873426914215087890625</LatitudeDegrees>
              <LongitudeDegrees>-28.632910810410976409912109375</LongitudeDegrees>
            </Position>
            <AltitudeMeters>200.1999969482421875</AltitudeMeters>
            <DistanceMeters>19655.15028033</DistanceMeters>
          </Trackpoint>
          <Trackpoint>
            <Time>2020-04-26T17:18:47.000Z</Time>
            <Position>
              <LatitudeDegrees>38.55609199963510036468505859375</LatitudeDegrees>
              <LongitudeDegrees>-28.63304282538592815399169921875</LongitudeDegrees>
            </Position>
            <AltitudeMeters>200.600006103515625</AltitudeMeters>
            <DistanceMeters>19669.090411071</DistanceMeters>
          </Trackpoint>
          <Trackpoint>
            <Time>2020-04-26T17:18:48.000Z</Time>
            <Position>
              <LatitudeDegrees>38.55612225830554962158203125</LatitudeDegrees>
              <LongitudeDegrees>-28.633111976087093353271484375</LongitudeDegrees>
            </Position>
            <AltitudeMeters>201.399993896484375</AltitudeMeters>
            <DistanceMeters>19675.987544004</DistanceMeters>
          </Trackpoint>
          <Trackpoint>
            <Time>2020-04-26T17:18:50.000Z</Time>
            <Position>
              <LatitudeDegrees>38.55617984198033809661865234375</LatitudeDegrees>
              <LongitudeDegrees>-28.63326209597289562225341796875</LongitudeDegrees>
            </Position>
            <AltitudeMeters>202.1999969482421875</AltitudeMeters>
            <DistanceMeters>19690.540909354</DistanceMeters>
          </Trackpoint>
          <Trackpoint>
            <Time>2020-04-26T17:18:52.000Z</Time>
            <Position>
              <LatitudeDegrees>38.5562189854681491851806640625</LatitudeDegrees>
              <LongitudeDegrees>-28.6334065161645412445068359375</LongitudeDegrees>
            </Position>
            <AltitudeMeters>202.8000030517578125</AltitudeMeters>
            <DistanceMeters>19703.84430998</DistanceMeters>
          </Trackpoint>
          <Trackpoint>
            <Time>2020-04-26T17:18:56.000Z</Time>
            <Position>
              <LatitudeDegrees>38.55626483447849750518798828125</LatitudeDegrees>
              <LongitudeDegrees>-28.63369611091911792755126953125</LongitudeDegrees>
            </Position>
            <AltitudeMeters>203.8000030517578125</AltitudeMeters>
            <DistanceMeters>19729.561284895</DistanceMeters>
          </Trackpoint>
          <Trackpoint>
            <Time>2020-04-26T17:18:57.000Z</Time>
            <Position>
              <LatitudeDegrees>38.55627371929585933685302734375</LatitudeDegrees>
              <LongitudeDegrees>-28.633762411773204803466796875</LongitudeDegrees>
            </Position>
            <AltitudeMeters>204</AltitudeMeters>
            <DistanceMeters>19735.414498544</DistanceMeters>
          </Trackpoint>
          <Trackpoint>
            <Time>2020-04-26T17:18:59.000Z</Time>
            <Position>
              <LatitudeDegrees>38.55629970319569110870361328125</LatitudeDegrees>
              <LongitudeDegrees>-28.633891828358173370361328125</LongitudeDegrees>
            </Position>
            <AltitudeMeters>204.399993896484375</AltitudeMeters>
            <DistanceMeters>19747.043532246</DistanceMeters>
          </Trackpoint>
          <Trackpoint>
            <Time>2020-04-26T17:19:01.000Z</Time>
            <Position>
              <LatitudeDegrees>38.5563339851796627044677734375</LatitudeDegrees>
              <LongitudeDegrees>-28.63401076756417751312255859375</LongitudeDegrees>
            </Position>
            <AltitudeMeters>205</AltitudeMeters>
            <DistanceMeters>19758.076866308</DistanceMeters>
          </Trackpoint>
          <Trackpoint>
            <Time>2020-04-26T17:19:02.000Z</Time>
            <Position>
              <LatitudeDegrees>38.55635150335729122161865234375</LatitudeDegrees>
              <LongitudeDegrees>-28.63406407646834850311279296875</LongitudeDegrees>
            </Position>
            <AltitudeMeters>205.399993896484375</AltitudeMeters>
            <DistanceMeters>19763.110592016</DistanceMeters>
          </Trackpoint>
          <Trackpoint>
            <Time>2020-04-26T17:19:04.000Z</Time>
            <Position>
              <LatitudeDegrees>38.55637849308550357818603515625</LatitudeDegrees>
              <LongitudeDegrees>-28.63417245447635650634765625</LongitudeDegrees>
            </Position>
            <AltitudeMeters>206.1999969482421875</AltitudeMeters>
            <DistanceMeters>19773.009803579</DistanceMeters>
          </Trackpoint>
          <Trackpoint>
            <Time>2020-04-26T17:19:06.000Z</Time>
            <Position>
              <LatitudeDegrees>38.55638905428349971771240234375</LatitudeDegrees>
              <LongitudeDegrees>-28.634280748665332794189453125</LongitudeDegrees>
            </Position>
            <AltitudeMeters>206.600006103515625</AltitudeMeters>
            <DistanceMeters>19782.508673187</DistanceMeters>
          </Trackpoint>
          <Trackpoint>
            <Time>2020-04-26T17:19:07.000Z</Time>
            <Position>
              <LatitudeDegrees>38.55638603679835796356201171875</LatitudeDegrees>
              <LongitudeDegrees>-28.63433606922626495361328125</LongitudeDegrees>
            </Position>
            <AltitudeMeters>207</AltitudeMeters>
            <DistanceMeters>19787.335431647</DistanceMeters>
          </Trackpoint>
          <Trackpoint>
            <Time>2020-04-26T17:19:08.000Z</Time>
            <Position>
              <LatitudeDegrees>38.556377403438091278076171875</LatitudeDegrees>
              <LongitudeDegrees>-28.63439239561557769775390625</LongitudeDegrees>
            </Position>
            <AltitudeMeters>207.399993896484375</AltitudeMeters>
            <DistanceMeters>19792.331343104</DistanceMeters>
          </Trackpoint>
          <Trackpoint>
            <Time>2020-04-26T17:19:11.000Z</Time>
            <Position>
              <LatitudeDegrees>38.55633683502674102783203125</LatitudeDegrees>
              <LongitudeDegrees>-28.63455894403159618377685546875</LongitudeDegrees>
            </Position>
            <AltitudeMeters>208</AltitudeMeters>
            <DistanceMeters>19807.514518712</DistanceMeters>
          </Trackpoint>
          <Trackpoint>
            <Time>2020-04-26T17:19:12.000Z</Time>
            <Position>
              <LatitudeDegrees>38.55631797574460506439208984375</LatitudeDegrees>
              <LongitudeDegrees>-28.6346135102212429046630859375</LongitudeDegrees>
            </Position>
            <AltitudeMeters>208.399993896484375</AltitudeMeters>
            <DistanceMeters>19812.707187415</DistanceMeters>
          </Trackpoint>
          <Trackpoint>
            <Time>2020-04-26T17:19:17.000Z</Time>
            <Position>
              <LatitudeDegrees>38.556244634091854095458984375</LatitudeDegrees>
              <LongitudeDegrees>-28.634882234036922454833984375</LongitudeDegrees>
            </Position>
            <AltitudeMeters>209.1999969482421875</AltitudeMeters>
            <DistanceMeters>19837.479833522</DistanceMeters>
          </Trackpoint>
          <Trackpoint>
            <Time>2020-04-26T17:19:19.000Z</Time>
            <Position>
              <LatitudeDegrees>38.55625812895596027374267578125</LatitudeDegrees>
              <LongitudeDegrees>-28.63499094732105731964111328125</LongitudeDegrees>
            </Position>
            <AltitudeMeters>209.399993896484375</AltitudeMeters>
            <DistanceMeters>19847.060109978</DistanceMeters>
          </Trackpoint>
          <Trackpoint>
            <Time>2020-04-26T17:19:21.000Z</Time>
            <Position>
              <LatitudeDegrees>38.55629299767315387725830078125</LatitudeDegrees>
              <LongitudeDegrees>-28.635090105235576629638671875</LongitudeDegrees>
            </Position>
            <AltitudeMeters>209.600006103515625</AltitudeMeters>
            <DistanceMeters>19856.523740263</DistanceMeters>
          </Trackpoint>
          <Trackpoint>
            <Time>2020-04-26T17:19:24.000Z</Time>
            <Position>
              <LatitudeDegrees>38.5563423670828342437744140625</LatitudeDegrees>
              <LongitudeDegrees>-28.63523988984525203704833984375</LongitudeDegrees>
            </Position>
            <AltitudeMeters>210.600006103515625</AltitudeMeters>
            <DistanceMeters>19870.671555446</DistanceMeters>
          </Trackpoint>
          <Trackpoint>
            <Time>2020-04-26T17:19:29.000Z</Time>
            <Position>
              <LatitudeDegrees>38.55642207898199558258056640625</LatitudeDegrees>
              <LongitudeDegrees>-28.63547827117145061492919921875</LongitudeDegrees>
            </Position>
            <AltitudeMeters>211.8000030517578125</AltitudeMeters>
            <DistanceMeters>19893.237148961</DistanceMeters>
          </Trackpoint>
          <Trackpoint>
            <Time>2020-04-26T17:19:33.000Z</Time>
            <Position>
              <LatitudeDegrees>38.55649651028215885162353515625</LatitudeDegrees>
              <LongitudeDegrees>-28.635653369128704071044921875</LongitudeDegrees>
            </Position>
            <AltitudeMeters>212.1999969482421875</AltitudeMeters>
            <DistanceMeters>19910.583364029</DistanceMeters>
          </Trackpoint>
          <Trackpoint>
            <Time>2020-04-26T17:19:36.000Z</Time>
            <Position>
              <LatitudeDegrees>38.55656239204108715057373046875</LatitudeDegrees>
              <LongitudeDegrees>-28.63577800802886486053466796875</LongitudeDegrees>
            </Position>
            <AltitudeMeters>213.399993896484375</AltitudeMeters>
            <DistanceMeters>19923.677755635</DistanceMeters>
          </Trackpoint>
          <Trackpoint>
            <Time>2020-04-26T17:19:39.000Z</Time>
            <Position>
              <LatitudeDegrees>38.55663045309484004974365234375</LatitudeDegrees>
              <LongitudeDegrees>-28.63590289838612079620361328125</LongitudeDegrees>
            </Position>
            <AltitudeMeters>214.399993896484375</AltitudeMeters>
            <DistanceMeters>19936.926742615</DistanceMeters>
          </Trackpoint>
          <Trackpoint>
            <Time>2020-04-26T17:19:41.000Z</Time>
            <Position>
              <LatitudeDegrees>38.5566769726574420928955078125</LatitudeDegrees>
              <LongitudeDegrees>-28.6359874717891216278076171875</LongitudeDegrees>
            </Position>
            <AltitudeMeters>214.8000030517578125</AltitudeMeters>
            <DistanceMeters>19945.926730709</DistanceMeters>
          </Trackpoint>
          <Trackpoint>
            <Time>2020-04-26T17:19:47.000Z</Time>
            <Position>
              <LatitudeDegrees>38.55680814944207668304443359375</LatitudeDegrees>
              <LongitudeDegrees>-28.63624236546456813812255859375</LongitudeDegrees>
            </Position>
            <AltitudeMeters>215.600006103515625</AltitudeMeters>
            <DistanceMeters>19972.484954879</DistanceMeters>
          </Trackpoint>
          <Trackpoint>
            <Time>2020-04-26T17:19:49.000Z</Time>
            <Position>
              <LatitudeDegrees>38.5568506456911563873291015625</LatitudeDegrees>
              <LongitudeDegrees>-28.63632685504853725433349609375</LongitudeDegrees>
            </Position>
            <AltitudeMeters>216</AltitudeMeters>
            <DistanceMeters>19981.228445439</DistanceMeters>
          </Trackpoint>
          <Trackpoint>
            <Time>2020-04-26T17:19:53.000Z</Time>
            <Position>
              <LatitudeDegrees>38.55694091878831386566162109375</LatitudeDegrees>
              <LongitudeDegrees>-28.6364940740168094635009765625</LongitudeDegrees>
            </Position>
            <AltitudeMeters>216.8000030517578125</AltitudeMeters>
            <DistanceMeters>19998.91413988</DistanceMeters>
          </Trackpoint>
          <Trackpoint>
            <Time>2020-04-26T17:19:59.000Z</Time>
            <Position>
              <LatitudeDegrees>38.55706865899264812469482421875</LatitudeDegrees>
              <LongitudeDegrees>-28.63674628548324108123779296875</LongitudeDegrees>
            </Position>
            <AltitudeMeters>217.8000030517578125</AltitudeMeters>
            <DistanceMeters>20025.068074395</DistanceMeters>
          </Trackpoint>
          <Trackpoint>
            <Time>2020-04-26T17:20:04.000Z</Time>
            <Position>
              <LatitudeDegrees>38.55717862956225872039794921875</LatitudeDegrees>
              <LongitudeDegrees>-28.636962287127971649169921875</LongitudeDegrees>
            </Position>
            <AltitudeMeters>219</AltitudeMeters>
            <DistanceMeters>20047.501625616</DistanceMeters>
          </Trackpoint>
          <Trackpoint>
            <Time>2020-04-26T17:20:08.000Z</Time>
            <Position>
              <LatitudeDegrees>38.55726378969848155975341796875</LatitudeDegrees>
              <LongitudeDegrees>-28.63714643754065036773681640625</LongitudeDegrees>
            </Position>
            <AltitudeMeters>219.8000030517578125</AltitudeMeters>
            <DistanceMeters>20066.12249765</DistanceMeters>
          </Trackpoint>
          <Trackpoint>
            <Time>2020-04-26T17:20:10.000Z</Time>
            <Position>
              <LatitudeDegrees>38.55730201117694377899169921875</LatitudeDegrees>
              <LongitudeDegrees>-28.6372403986752033233642578125</LongitudeDegrees>
            </Position>
            <AltitudeMeters>220.1999969482421875</AltitudeMeters>
            <DistanceMeters>20075.341558312</DistanceMeters>
          </Trackpoint>
          <Trackpoint>
            <Time>2020-04-26T17:20:16.000Z</Time>
            <Position>
              <LatitudeDegrees>38.5574219562113285064697265625</LatitudeDegrees>
              <LongitudeDegrees>-28.6375257186591625213623046875</LongitudeDegrees>
            </Position>
            <AltitudeMeters>221.1999969482421875</AltitudeMeters>
            <DistanceMeters>20103.535841941</DistanceMeters>
          </Trackpoint>
          <Trackpoint>
            <Time>2020-04-26T17:20:18.000Z</Time>
            <Position>
              <LatitudeDegrees>38.55746193788945674896240234375</LatitudeDegrees>
              <LongitudeDegrees>-28.63762252964079380035400390625</LongitudeDegrees>
            </Position>
            <AltitudeMeters>221.8000030517578125</AltitudeMeters>
            <DistanceMeters>20113.065083711</DistanceMeters>
          </Trackpoint>
          <Trackpoint>
            <Time>2020-04-26T17:20:21.000Z</Time>
            <Position>
              <LatitudeDegrees>38.5575195215642452239990234375</LatitudeDegrees>
              <LongitudeDegrees>-28.63776938058435916900634765625</LongitudeDegrees>
            </Position>
            <AltitudeMeters>222.600006103515625</AltitudeMeters>
            <DistanceMeters>20127.363367898</DistanceMeters>
          </Trackpoint>
          <Trackpoint>
            <Time>2020-04-26T17:20:25.000Z</Time>
            <Position>
              <LatitudeDegrees>38.557593785226345062255859375</LatitudeDegrees>
              <LongitudeDegrees>-28.63796736113727092742919921875</LongitudeDegrees>
            </Position>
            <AltitudeMeters>223.600006103515625</AltitudeMeters>
            <DistanceMeters>20146.474844346</DistanceMeters>
          </Trackpoint>
          <Trackpoint>
            <Time>2020-04-26T17:20:28.000Z</Time>
            <Position>
              <LatitudeDegrees>38.557642400264739990234375</LatitudeDegrees>
              <LongitudeDegrees>-28.6381305567920207977294921875</LongitudeDegrees>
            </Position>
            <AltitudeMeters>224.1999969482421875</AltitudeMeters>
            <DistanceMeters>20161.674960658</DistanceMeters>
          </Trackpoint>
          <Trackpoint>
            <Time>2020-04-26T17:20:30.000Z</Time>
            <Position>
              <LatitudeDegrees>38.55767098255455493927001953125</LatitudeDegrees>
              <LongitudeDegrees>-28.6382418684661388397216796875</LongitudeDegrees>
            </Position>
            <AltitudeMeters>224.600006103515625</AltitudeMeters>
            <DistanceMeters>20171.871641499</DistanceMeters>
          </Trackpoint>
          <Trackpoint>
            <Time>2020-04-26T17:20:31.000Z</Time>
            <Position>
              <LatitudeDegrees>38.5576841421425342559814453125</LatitudeDegrees>
              <LongitudeDegrees>-28.63829760812222957611083984375</LongitudeDegrees>
            </Position>
            <AltitudeMeters>225.8000030517578125</AltitudeMeters>
            <DistanceMeters>20176.937554768</DistanceMeters>
          </Trackpoint>
          <Trackpoint>
            <Time>2020-04-26T17:20:39.000Z</Time>
            <Position>
              <LatitudeDegrees>38.557787574827671051025390625</LatitudeDegrees>
              <LongitudeDegrees>-28.63872659392654895782470703125</LongitudeDegrees>
            </Position>
            <AltitudeMeters>226.8000030517578125</AltitudeMeters>
            <DistanceMeters>20216.009137835</DistanceMeters>
          </Trackpoint>
          <Trackpoint>
            <Time>2020-04-26T17:20:44.000Z</Time>
            <Position>
              <LatitudeDegrees>38.55786359868943691253662109375</LatitudeDegrees>
              <LongitudeDegrees>-28.6389935575425624847412109375</LongitudeDegrees>
            </Position>
            <AltitudeMeters>228</AltitudeMeters>
            <DistanceMeters>20240.737272752</DistanceMeters>
          </Trackpoint>
          <Trackpoint>
            <Time>2020-04-26T17:20:47.000Z</Time>
            <Position>
              <LatitudeDegrees>38.55791338719427585601806640625</LatitudeDegrees>
              <LongitudeDegrees>-28.63914686255156993865966796875</LongitudeDegrees>
            </Position>
            <AltitudeMeters>228.8000030517578125</AltitudeMeters>
            <DistanceMeters>20255.185083904</DistanceMeters>
          </Trackpoint>
          <Trackpoint>
            <Time>2020-04-26T17:20:49.000Z</Time>
            <Position>
              <LatitudeDegrees>38.55795160867273807525634765625</LatitudeDegrees>
              <LongitudeDegrees>-28.63924509845674037933349609375</LongitudeDegrees>
            </Position>
            <AltitudeMeters>229</AltitudeMeters>
            <DistanceMeters>20264.735150505</DistanceMeters>
          </Trackpoint>
          <Trackpoint>
            <Time>2020-04-26T17:20:54.000Z</Time>
            <Position>
              <LatitudeDegrees>38.55806359089910984039306640625</LatitudeDegrees>
              <LongitudeDegrees>-28.63948322832584381103515625</LongitudeDegrees>
            </Position>
            <AltitudeMeters>230.1999969482421875</AltitudeMeters>
            <DistanceMeters>20288.919776022</DistanceMeters>
          </Trackpoint>
          <Trackpoint>
            <Time>2020-04-26T17:20:56.000Z</Time>
            <Position>
              <LatitudeDegrees>38.5581079311668872833251953125</LatitudeDegrees>
              <LongitudeDegrees>-28.63957685418426990509033203125</LongitudeDegrees>
            </Position>
            <AltitudeMeters>230.8000030517578125</AltitudeMeters>
            <DistanceMeters>20298.446648454</DistanceMeters>
          </Trackpoint>
          <Trackpoint>
            <Time>2020-04-26T17:20:59.000Z</Time>
            <Position>
              <LatitudeDegrees>38.5581743158400058746337890625</LatitudeDegrees>
              <LongitudeDegrees>-28.63971733488142490386962890625</LongitudeDegrees>
            </Position>
            <AltitudeMeters>231.399993896484375</AltitudeMeters>
            <DistanceMeters>20312.732296064</DistanceMeters>
          </Trackpoint>
          <Trackpoint>
            <Time>2020-04-26T17:21:03.000Z</Time>
            <Position>
              <LatitudeDegrees>38.55827464722096920013427734375</LatitudeDegrees>
              <LongitudeDegrees>-28.6399071849882602691650390625</LongitudeDegrees>
            </Position>
            <AltitudeMeters>232.600006103515625</AltitudeMeters>
            <DistanceMeters>20332.675458225</DistanceMeters>
          </Trackpoint>
          <Trackpoint>
            <Time>2020-04-26T17:21:04.000Z</Time>
            <Position>
              <LatitudeDegrees>38.5583090968430042266845703125</LatitudeDegrees>
              <LongitudeDegrees>-28.6399504356086254119873046875</LongitudeDegrees>
            </Position>
            <AltitudeMeters>233</AltitudeMeters>
            <DistanceMeters>20338.049300842</DistanceMeters>
          </Trackpoint>
          <Trackpoint>
            <Time>2020-04-26T17:21:08.000Z</Time>
            <Position>
              <LatitudeDegrees>38.55845217593014240264892578125</LatitudeDegrees>
              <LongitudeDegrees>-28.6400912515819072723388671875</LongitudeDegrees>
            </Position>
            <AltitudeMeters>233.600006103515625</AltitudeMeters>
            <DistanceMeters>20358.144474105</DistanceMeters>
          </Trackpoint>
          <Trackpoint>
            <Time>2020-04-26T17:21:11.000Z</Time>
            <Position>
              <LatitudeDegrees>38.55857002548873424530029296875</LatitudeDegrees>
              <LongitudeDegrees>-28.6401817761361598968505859375</LongitudeDegrees>
            </Position>
            <AltitudeMeters>234</AltitudeMeters>
            <DistanceMeters>20373.445250618</DistanceMeters>
          </Trackpoint>
          <Trackpoint>
            <Time>2020-04-26T17:21:13.000Z</Time>
            <Position>
              <LatitudeDegrees>38.55864060111343860626220703125</LatitudeDegrees>
              <LongitudeDegrees>-28.64025310613214969635009765625</LongitudeDegrees>
            </Position>
            <AltitudeMeters>234.8000030517578125</AltitudeMeters>
            <DistanceMeters>20383.457387183</DistanceMeters>
          </Trackpoint>
          <Trackpoint>
            <Time>2020-04-26T17:21:16.000Z</Time>
            <Position>
              <LatitudeDegrees>38.5587291978299617767333984375</LatitudeDegrees>
              <LongitudeDegrees>-28.64038134925067424774169921875</LongitudeDegrees>
            </Position>
            <AltitudeMeters>235.8000030517578125</AltitudeMeters>
            <DistanceMeters>20398.351441632</DistanceMeters>
          </Trackpoint>
          <Trackpoint>
            <Time>2020-04-26T17:21:17.000Z</Time>
            <Position>
              <LatitudeDegrees>38.558751828968524932861328125</LatitudeDegrees>
              <LongitudeDegrees>-28.6404278688132762908935546875</LongitudeDegrees>
            </Position>
            <AltitudeMeters>236</AltitudeMeters>
            <DistanceMeters>20403.119851481</DistanceMeters>
          </Trackpoint>
          <Trackpoint>
            <Time>2020-04-26T17:21:21.000Z</Time>
            <Position>
              <LatitudeDegrees>38.5588224045932292938232421875</LatitudeDegrees>
              <LongitudeDegrees>-28.6406253464519977569580078125</LongitudeDegrees>
            </Position>
            <AltitudeMeters>237</AltitudeMeters>
            <DistanceMeters>20422.01727017</DistanceMeters>
          </Trackpoint>
          <Trackpoint>
            <Time>2020-04-26T17:21:24.000Z</Time>
            <Position>
              <LatitudeDegrees>38.55885014869272708892822265625</LatitudeDegrees>
              <LongitudeDegrees>-28.640787117183208465576171875</LongitudeDegrees>
            </Position>
            <AltitudeMeters>237.8000030517578125</AltitudeMeters>
            <DistanceMeters>20436.431291081</DistanceMeters>
          </Trackpoint>
          <Trackpoint>
            <Time>2020-04-26T17:21:26.000Z</Time>
            <Position>
              <LatitudeDegrees>38.55885752476751804351806640625</LatitudeDegrees>
              <LongitudeDegrees>-28.6409019492566585540771484375</LongitudeDegrees>
            </Position>
            <AltitudeMeters>238</AltitudeMeters>
            <DistanceMeters>20446.459198704</DistanceMeters>
          </Trackpoint>
          <Trackpoint>
            <Time>2020-04-26T17:21:32.000Z</Time>
            <Position>
              <LatitudeDegrees>38.5588740371167659759521484375</LatitudeDegrees>
              <LongitudeDegrees>-28.641236387193202972412109375</LongitudeDegrees>
            </Position>
            <AltitudeMeters>239</AltitudeMeters>
            <DistanceMeters>20475.624815464</DistanceMeters>
          </Trackpoint>
          <Trackpoint>
            <Time>2020-04-26T17:21:33.000Z</Time>
            <Position>
              <LatitudeDegrees>38.55888049118220806121826171875</LatitudeDegrees>
              <LongitudeDegrees>-28.64129095338284969329833984375</LongitudeDegrees>
            </Position>
            <AltitudeMeters>239.1999969482421875</AltitudeMeters>
            <DistanceMeters>20480.429071431</DistanceMeters>
          </Trackpoint>
          <Trackpoint>
            <Time>2020-04-26T17:21:36.000Z</Time>
            <Position>
              <LatitudeDegrees>38.5588988475501537322998046875</LatitudeDegrees>
              <LongitudeDegrees>-28.641456663608551025390625</LongitudeDegrees>
            </Position>
            <AltitudeMeters>240.399993896484375</AltitudeMeters>
            <DistanceMeters>20494.995770998</DistanceMeters>
          </Trackpoint>
          <Trackpoint>
            <Time>2020-04-26T17:21:40.000Z</Time>
            <Position>
              <LatitudeDegrees>38.55894201435148715972900390625</LatitudeDegrees>
              <LongitudeDegrees>-28.64166260696947574615478515625</LongitudeDegrees>
            </Position>
            <AltitudeMeters>241.399993896484375</AltitudeMeters>
            <DistanceMeters>20513.553006656</DistanceMeters>
          </Trackpoint>
          <Trackpoint>
            <Time>2020-04-26T17:21:41.000Z</Time>
            <Position>
              <LatitudeDegrees>38.55895676650106906890869140625</LatitudeDegrees>
              <LongitudeDegrees>-28.64170904271304607391357421875</LongitudeDegrees>
            </Position>
            <AltitudeMeters>241.600006103515625</AltitudeMeters>
            <DistanceMeters>20517.915964499</DistanceMeters>
          </Trackpoint>
          <Trackpoint>
            <Time>2020-04-26T17:21:46.000Z</Time>
            <Position>
              <LatitudeDegrees>38.55903245508670806884765625</LatitudeDegrees>
              <LongitudeDegrees>-28.641941808164119720458984375</LongitudeDegrees>
            </Position>
            <AltitudeMeters>242.600006103515625</AltitudeMeters>
            <DistanceMeters>20539.856643049</DistanceMeters>
          </Trackpoint>
          <Trackpoint>
            <Time>2020-04-26T17:21:49.000Z</Time>
            <Position>
              <LatitudeDegrees>38.55908031575381755828857421875</LatitudeDegrees>
              <LongitudeDegrees>-28.6420936882495880126953125</LongitudeDegrees>
            </Position>
            <AltitudeMeters>243</AltitudeMeters>
            <DistanceMeters>20554.108432742</DistanceMeters>
          </Trackpoint>
          <Trackpoint>
            <Time>2020-04-26T17:21:51.000Z</Time>
            <Position>
              <LatitudeDegrees>38.559112586081027984619140625</LatitudeDegrees>
              <LongitudeDegrees>-28.642195947468280792236328125</LongitudeDegrees>
            </Position>
            <AltitudeMeters>243.8000030517578125</AltitudeMeters>
            <DistanceMeters>20563.705660453</DistanceMeters>
          </Trackpoint>
          <Trackpoint>
            <Time>2020-04-26T17:21:55.000Z</Time>
            <Position>
              <LatitudeDegrees>38.55918399989604949951171875</LatitudeDegrees>
              <LongitudeDegrees>-28.6423862166702747344970703125</LongitudeDegrees>
            </Position>
            <AltitudeMeters>244.8000030517578125</AltitudeMeters>
            <DistanceMeters>20582.074597178</DistanceMeters>
          </Trackpoint>
          <Trackpoint>
            <Time>2020-04-26T17:21:58.000Z</Time>
            <Position>
              <LatitudeDegrees>38.55924434959888458251953125</LatitudeDegrees>
              <LongitudeDegrees>-28.6425263620913028717041015625</LongitudeDegrees>
            </Position>
            <AltitudeMeters>245.600006103515625</AltitudeMeters>
            <DistanceMeters>20595.999496871</DistanceMeters>
          </Trackpoint>
          <Trackpoint>
            <Time>2020-04-26T17:21:59.000Z</Time>
            <Position>
              <LatitudeDegrees>38.5592622868716716766357421875</LatitudeDegrees>
              <LongitudeDegrees>-28.642572127282619476318359375</LongitudeDegrees>
            </Position>
            <AltitudeMeters>245.8000030517578125</AltitudeMeters>
            <DistanceMeters>20600.454618421</DistanceMeters>
          </Trackpoint>
          <Trackpoint>
            <Time>2020-04-26T17:22:03.000Z</Time>
            <Position>
              <LatitudeDegrees>38.55933194048702716827392578125</LatitudeDegrees>
              <LongitudeDegrees>-28.64275728352367877960205078125</LongitudeDegrees>
            </Position>
            <AltitudeMeters>246.8000030517578125</AltitudeMeters>
            <DistanceMeters>20618.337575595</DistanceMeters>
          </Trackpoint>
          <Trackpoint>
            <Time>2020-04-26T17:22:04.000Z</Time>
            <Position>
              <LatitudeDegrees>38.55934686027467250823974609375</LatitudeDegrees>
              <LongitudeDegrees>-28.64280539564788341522216796875</LongitudeDegrees>
            </Position>
            <AltitudeMeters>246.8000030517578125</AltitudeMeters>
            <DistanceMeters>20622.84308465</DistanceMeters>
          </Trackpoint>
          <Trackpoint>
            <Time>2020-04-26T17:22:06.000Z</Time>
            <Position>
              <LatitudeDegrees>38.55937938205897808074951171875</LatitudeDegrees>
              <LongitudeDegrees>-28.64290262572467327117919921875</LongitudeDegrees>
            </Position>
            <AltitudeMeters>247.1999969482421875</AltitudeMeters>
            <DistanceMeters>20632.047441075</DistanceMeters>
          </Trackpoint>
          <Trackpoint>
            <Time>2020-04-26T17:22:07.000Z</Time>
            <Position>
              <LatitudeDegrees>38.55939899571239948272705078125</LatitudeDegrees>
              <LongitudeDegrees>-28.64294587634503841400146484375</LongitudeDegrees>
            </Position>
            <AltitudeMeters>247.399993896484375</AltitudeMeters>
            <DistanceMeters>20636.400038044</DistanceMeters>
          </Trackpoint>
          <Trackpoint>
            <Time>2020-04-26T17:22:11.000Z</Time>
            <Position>
              <LatitudeDegrees>38.5595063678920269012451171875</LatitudeDegrees>
              <LongitudeDegrees>-28.64312072284519672393798828125</LongitudeDegrees>
            </Position>
            <AltitudeMeters>248</AltitudeMeters>
            <DistanceMeters>20655.749353263</DistanceMeters>
          </Trackpoint>
          <Trackpoint>
            <Time>2020-04-26T17:22:16.000Z</Time>
            <Position>
              <LatitudeDegrees>38.559617511928081512451171875</LatitudeDegrees>
              <LongitudeDegrees>-28.64335977472364902496337890625</LongitudeDegrees>
            </Position>
            <AltitudeMeters>249.399993896484375</AltitudeMeters>
            <DistanceMeters>20679.954879078</DistanceMeters>
          </Trackpoint>
          <Trackpoint>
            <Time>2020-04-26T17:22:20.000Z</Time>
            <Position>
              <LatitudeDegrees>38.55969705618917942047119140625</LatitudeDegrees>
              <LongitudeDegrees>-28.6435543186962604522705078125</LongitudeDegrees>
            </Position>
            <AltitudeMeters>250.1999969482421875</AltitudeMeters>
            <DistanceMeters>20699.061629992</DistanceMeters>
          </Trackpoint>
          <Trackpoint>
            <Time>2020-04-26T17:22:21.000Z</Time>
            <Position>
              <LatitudeDegrees>38.5597132332623004913330078125</LatitudeDegrees>
              <LongitudeDegrees>-28.6436042748391628265380859375</LongitudeDegrees>
            </Position>
            <AltitudeMeters>250.600006103515625</AltitudeMeters>
            <DistanceMeters>20703.769050474</DistanceMeters>
          </Trackpoint>
          <Trackpoint>
            <Time>2020-04-26T17:22:24.000Z</Time>
            <Position>
              <LatitudeDegrees>38.559748269617557525634765625</LatitudeDegrees>
              <LongitudeDegrees>-28.6437558196485042572021484375</LongitudeDegrees>
            </Position>
            <AltitudeMeters>251.600006103515625</AltitudeMeters>
            <DistanceMeters>20717.522997959</DistanceMeters>
          </Trackpoint>
          <Trackpoint>
            <Time>2020-04-26T17:22:26.000Z</Time>
            <Position>
              <LatitudeDegrees>38.5597601719200611114501953125</LatitudeDegrees>
              <LongitudeDegrees>-28.64386319182813167572021484375</LongitudeDegrees>
            </Position>
            <AltitudeMeters>252.399993896484375</AltitudeMeters>
            <DistanceMeters>20726.961308407</DistanceMeters>
          </Trackpoint>
          <Trackpoint>
            <Time>2020-04-26T17:22:27.000Z</Time>
            <Position>
              <LatitudeDegrees>38.55976042337715625762939453125</LatitudeDegrees>
              <LongitudeDegrees>-28.64391130395233631134033203125</LongitudeDegrees>
            </Position>
            <AltitudeMeters>252.600006103515625</AltitudeMeters>
            <DistanceMeters>20731.148957922</DistanceMeters>
          </Trackpoint>
          <Trackpoint>
            <Time>2020-04-26T17:22:28.000Z</Time>
            <Position>
              <LatitudeDegrees>38.55975799262523651123046875</LatitudeDegrees>
              <LongitudeDegrees>-28.64396645687520503997802734375</LongitudeDegrees>
            </Position>
            <AltitudeMeters>252.8000030517578125</AltitudeMeters>
            <DistanceMeters>20735.956971617</DistanceMeters>
          </Trackpoint>
          <Trackpoint>
            <Time>2020-04-26T17:22:30.000Z</Time>
            <Position>
              <LatitudeDegrees>38.55974189937114715576171875</LatitudeDegrees>
              <LongitudeDegrees>-28.64407206885516643524169921875</LongitudeDegrees>
            </Position>
            <AltitudeMeters>253.399993896484375</AltitudeMeters>
            <DistanceMeters>20745.321322761</DistanceMeters>
          </Trackpoint>
          <Trackpoint>
            <Time>2020-04-26T17:22:32.000Z</Time>
            <Position>
              <LatitudeDegrees>38.5597144067287445068359375</LatitudeDegrees>
              <LongitudeDegrees>-28.64417734555900096893310546875</LongitudeDegrees>
            </Position>
            <AltitudeMeters>253.600006103515625</AltitudeMeters>
            <DistanceMeters>20754.981385389</DistanceMeters>
          </Trackpoint>
          <Trackpoint>
            <Time>2020-04-26T17:22:33.000Z</Time>
            <Position>
              <LatitudeDegrees>38.55969806201756000518798828125</LatitudeDegrees>
              <LongitudeDegrees>-28.64422763697803020477294921875</LongitudeDegrees>
            </Position>
            <AltitudeMeters>254</AltitudeMeters>
            <DistanceMeters>20759.722256645</DistanceMeters>
          </Trackpoint>
          <Trackpoint>
            <Time>2020-04-26T17:22:36.000Z</Time>
            <Position>
              <LatitudeDegrees>38.55962430126965045928955078125</LatitudeDegrees>
              <LongitudeDegrees>-28.6443619988858699798583984375</LongitudeDegrees>
            </Position>
            <AltitudeMeters>254.600006103515625</AltitudeMeters>
            <DistanceMeters>20774.010432465</DistanceMeters>
          </Trackpoint>
          <Trackpoint>
            <Time>2020-04-26T17:22:37.000Z</Time>
            <Position>
              <LatitudeDegrees>38.559595048427581787109375</LatitudeDegrees>
              <LongitudeDegrees>-28.644400052726268768310546875</LongitudeDegrees>
            </Position>
            <AltitudeMeters>255</AltitudeMeters>
            <DistanceMeters>20778.65606296</DistanceMeters>
          </Trackpoint>
          <Trackpoint>
            <Time>2020-04-26T17:22:44.000Z</Time>
            <Position>
              <LatitudeDegrees>38.55939044617116451263427734375</LatitudeDegrees>
              <LongitudeDegrees>-28.64465176127851009368896484375</LongitudeDegrees>
            </Position>
            <AltitudeMeters>256</AltitudeMeters>
            <DistanceMeters>20810.255267584</DistanceMeters>
          </Trackpoint>
          <Trackpoint>
            <Time>2020-04-26T17:22:45.000Z</Time>
            <Position>
              <LatitudeDegrees>38.55936630629003047943115234375</LatitudeDegrees>
              <LongitudeDegrees>-28.64468981511890888214111328125</LongitudeDegrees>
            </Position>
            <AltitudeMeters>256</AltitudeMeters>
            <DistanceMeters>20814.519839539</DistanceMeters>
          </Trackpoint>
          <Trackpoint>
            <Time>2020-04-26T17:22:49.000Z</Time>
            <Position>
              <LatitudeDegrees>38.5592879354953765869140625</LatitudeDegrees>
              <LongitudeDegrees>-28.644864074885845184326171875</LongitudeDegrees>
            </Position>
            <AltitudeMeters>257.20001220703125</AltitudeMeters>
            <DistanceMeters>20832.015855125</DistanceMeters>
          </Trackpoint>
          <Trackpoint>
            <Time>2020-04-26T17:22:50.000Z</Time>
            <Position>
              <LatitudeDegrees>38.55927209369838237762451171875</LatitudeDegrees>
              <LongitudeDegrees>-28.64491109736263751983642578125</LongitudeDegrees>
            </Position>
            <AltitudeMeters>257.600006103515625</AltitudeMeters>
            <DistanceMeters>20836.471990008</DistanceMeters>
          </Trackpoint>
          <Trackpoint>
            <Time>2020-04-26T17:22:54.000Z</Time>
            <Position>
              <LatitudeDegrees>38.55920000933110713958740234375</LatitudeDegrees>
              <LongitudeDegrees>-28.6450959183275699615478515625</LongitudeDegrees>
            </Position>
            <AltitudeMeters>258.20001220703125</AltitudeMeters>
            <DistanceMeters>20854.447869833</DistanceMeters>
          </Trackpoint>
          <Trackpoint>
            <Time>2020-04-26T17:22:58.000Z</Time>
            <Position>
              <LatitudeDegrees>38.55911426246166229248046875</LatitudeDegrees>
              <LongitudeDegrees>-28.64526833407580852508544921875</LongitudeDegrees>
            </Position>
            <AltitudeMeters>259.20001220703125</AltitudeMeters>
            <DistanceMeters>20872.231834446</DistanceMeters>
          </Trackpoint>
          <Trackpoint>
            <Time>2020-04-26T17:23:03.000Z</Time>
            <Position>
              <LatitudeDegrees>38.55898995883762836456298828125</LatitudeDegrees>
              <LongitudeDegrees>-28.64546631462872028350830078125</LongitudeDegrees>
            </Position>
            <AltitudeMeters>260.399993896484375</AltitudeMeters>
            <DistanceMeters>20894.329989888</DistanceMeters>
          </Trackpoint>
          <Trackpoint>
            <Time>2020-04-26T17:23:05.000Z</Time>
            <Position>
              <LatitudeDegrees>38.55894100852310657501220703125</LatitudeDegrees>
              <LongitudeDegrees>-28.6455510556697845458984375</LongitudeDegrees>
            </Position>
            <AltitudeMeters>260.600006103515625</AltitudeMeters>
            <DistanceMeters>20903.499944733</DistanceMeters>
          </Trackpoint>
          <Trackpoint>
            <Time>2020-04-26T17:23:06.000Z</Time>
            <Position>
              <LatitudeDegrees>38.55892382562160491943359375</LatitudeDegrees>
              <LongitudeDegrees>-28.64560143090784549713134765625</LongitudeDegrees>
            </Position>
            <AltitudeMeters>260.79998779296875</AltitudeMeters>
            <DistanceMeters>20908.283480424</DistanceMeters>
          </Trackpoint>
          <Trackpoint>
            <Time>2020-04-26T17:23:10.000Z</Time>
            <Position>
              <LatitudeDegrees>38.5588918067514896392822265625</LatitudeDegrees>
              <LongitudeDegrees>-28.6458241380751132965087890625</LongitudeDegrees>
            </Position>
            <AltitudeMeters>261.399993896484375</AltitudeMeters>
            <DistanceMeters>20927.991388684</DistanceMeters>
          </Trackpoint>
          <Trackpoint>
            <Time>2020-04-26T17:23:11.000Z</Time>
            <Position>
              <LatitudeDegrees>38.5588882863521575927734375</LatitudeDegrees>
              <LongitudeDegrees>-28.64588423632085323333740234375</LongitudeDegrees>
            </Position>
            <AltitudeMeters>261.399993896484375</AltitudeMeters>
            <DistanceMeters>20933.235968062</DistanceMeters>
          </Trackpoint>
          <Trackpoint>
            <Time>2020-04-26T17:23:12.000Z</Time>
            <Position>
              <LatitudeDegrees>38.55889038182795047760009765625</LatitudeDegrees>
              <LongitudeDegrees>-28.64594190381467342376708984375</LongitudeDegrees>
            </Position>
            <AltitudeMeters>261.79998779296875</AltitudeMeters>
            <DistanceMeters>20938.260716189</DistanceMeters>
          </Trackpoint>
          <Trackpoint>
            <Time>2020-04-26T17:23:14.000Z</Time>
            <Position>
              <LatitudeDegrees>38.55890228413045406341552734375</LatitudeDegrees>
              <LongitudeDegrees>-28.64605237729847431182861328125</LongitudeDegrees>
            </Position>
            <AltitudeMeters>261.79998779296875</AltitudeMeters>
            <DistanceMeters>20947.966475173</DistanceMeters>
          </Trackpoint>
          <Trackpoint>
            <Time>2020-04-26T17:23:16.000Z</Time>
            <Position>
              <LatitudeDegrees>38.5589166171848773956298828125</LatitudeDegrees>
              <LongitudeDegrees>-28.6461587436497211456298828125</LongitudeDegrees>
            </Position>
            <AltitudeMeters>262.20001220703125</AltitudeMeters>
            <DistanceMeters>20957.360191531</DistanceMeters>
          </Trackpoint>
          <Trackpoint>
            <Time>2020-04-26T17:23:18.000Z</Time>
            <Position>
              <LatitudeDegrees>38.55893044732511043548583984375</LatitudeDegrees>
              <LongitudeDegrees>-28.64627365954220294952392578125</LongitudeDegrees>
            </Position>
            <AltitudeMeters>262.399993896484375</AltitudeMeters>
            <DistanceMeters>20967.479532758</DistanceMeters>
          </Trackpoint>
          <Trackpoint>
            <Time>2020-04-26T17:23:23.000Z</Time>
            <Position>
              <LatitudeDegrees>38.5589736141264438629150390625</LatitudeDegrees>
              <LongitudeDegrees>-28.64654405973851680755615234375</LongitudeDegrees>
            </Position>
            <AltitudeMeters>263.79998779296875</AltitudeMeters>
            <DistanceMeters>20991.498932917</DistanceMeters>
          </Trackpoint>
          <Trackpoint>
            <Time>2020-04-26T17:23:24.000Z</Time>
            <Position>
              <LatitudeDegrees>38.55898057110607624053955078125</LatitudeDegrees>
              <LongitudeDegrees>-28.64659669809043407440185546875</LongitudeDegrees>
            </Position>
            <AltitudeMeters>264</AltitudeMeters>
            <DistanceMeters>20996.144563413</DistanceMeters>
          </Trackpoint>
          <Trackpoint>
            <Time>2020-04-26T17:23:28.000Z</Time>
            <Position>
              <LatitudeDegrees>38.5590165294706821441650390625</LatitudeDegrees>
              <LongitudeDegrees>-28.6467997916042804718017578125</LongitudeDegrees>
            </Position>
            <AltitudeMeters>264.79998779296875</AltitudeMeters>
            <DistanceMeters>21014.268028881</DistanceMeters>
          </Trackpoint>
          <Trackpoint>
            <Time>2020-04-26T17:23:30.000Z</Time>
            <Position>
              <LatitudeDegrees>38.55903103016316890716552734375</LatitudeDegrees>
              <LongitudeDegrees>-28.64690079353749752044677734375</LongitudeDegrees>
            </Position>
            <AltitudeMeters>265.20001220703125</AltitudeMeters>
            <DistanceMeters>21023.205593215</DistanceMeters>
          </Trackpoint>
          <Trackpoint>
            <Time>2020-04-26T17:23:31.000Z</Time>
            <Position>
              <LatitudeDegrees>38.5590393282473087310791015625</LatitudeDegrees>
              <LongitudeDegrees>-28.64695183932781219482421875</LongitudeDegrees>
            </Position>
            <AltitudeMeters>265.600006103515625</AltitudeMeters>
            <DistanceMeters>21027.743056635</DistanceMeters>
          </Trackpoint>
          <Trackpoint>
            <Time>2020-04-26T17:23:32.000Z</Time>
            <Position>
              <LatitudeDegrees>38.5590500570833683013916015625</LatitudeDegrees>
              <LongitudeDegrees>-28.64700456149876117706298828125</LongitudeDegrees>
            </Position>
            <AltitudeMeters>265.79998779296875</AltitudeMeters>
            <DistanceMeters>21032.484880161</DistanceMeters>
          </Trackpoint>
          <Trackpoint>
            <Time>2020-04-26T17:23:37.000Z</Time>
            <Position>
              <LatitudeDegrees>38.559083081781864166259765625</LatitudeDegrees>
              <LongitudeDegrees>-28.647273369133472442626953125</LongitudeDegrees>
            </Position>
            <AltitudeMeters>267.399993896484375</AltitudeMeters>
            <DistanceMeters>21056.167512574</DistanceMeters>
          </Trackpoint>
          <Trackpoint>
            <Time>2020-04-26T17:23:38.000Z</Time>
            <Position>
              <LatitudeDegrees>38.55908903293311595916748046875</LatitudeDegrees>
              <LongitudeDegrees>-28.647325001657009124755859375</LongitudeDegrees>
            </Position>
            <AltitudeMeters>267.600006103515625</AltitudeMeters>
            <DistanceMeters>21060.709948558</DistanceMeters>
          </Trackpoint>
          <Trackpoint>
            <Time>2020-04-26T17:23:41.000Z</Time>
            <Position>
              <LatitudeDegrees>38.5590976662933826446533203125</LatitudeDegrees>
              <LongitudeDegrees>-28.647479228675365447998046875</LongitudeDegrees>
            </Position>
            <AltitudeMeters>268.600006103515625</AltitudeMeters>
            <DistanceMeters>21074.166885543</DistanceMeters>
          </Trackpoint>
          <Trackpoint>
            <Time>2020-04-26T17:23:46.000Z</Time>
            <Position>
              <LatitudeDegrees>38.55908802710473537445068359375</LatitudeDegrees>
              <LongitudeDegrees>-28.6477410793304443359375</LongitudeDegrees>
            </Position>
            <AltitudeMeters>269.600006103515625</AltitudeMeters>
            <DistanceMeters>21096.982006111</DistanceMeters>
          </Trackpoint>
          <Trackpoint>
            <Time>2020-04-26T17:23:47.000Z</Time>
            <Position>
              <LatitudeDegrees>38.55907562188804149627685546875</LatitudeDegrees>
              <LongitudeDegrees>-28.64779531024396419525146484375</LongitudeDegrees>
            </Position>
            <AltitudeMeters>270</AltitudeMeters>
            <DistanceMeters>21101.899581196</DistanceMeters>
          </Trackpoint>
          <Trackpoint>
            <Time>2020-04-26T17:23:51.000Z</Time>
            <Position>
              <LatitudeDegrees>38.55901896022260189056396484375</LatitudeDegrees>
              <LongitudeDegrees>-28.6479985713958740234375</LongitudeDegrees>
            </Position>
            <AltitudeMeters>270.79998779296875</AltitudeMeters>
            <DistanceMeters>21120.681004894</DistanceMeters>
          </Trackpoint>
          <Trackpoint>
            <Time>2020-04-26T17:23:54.000Z</Time>
            <Position>
              <LatitudeDegrees>38.55896833352744579315185546875</LatitudeDegrees>
              <LongitudeDegrees>-28.64814936183393001556396484375</LongitudeDegrees>
            </Position>
            <AltitudeMeters>271.20001220703125</AltitudeMeters>
            <DistanceMeters>21134.963491613</DistanceMeters>
          </Trackpoint>
          <Trackpoint>
            <Time>2020-04-26T17:23:57.000Z</Time>
            <Position>
              <LatitudeDegrees>38.55891712009906768798828125</LatitudeDegrees>
              <LongitudeDegrees>-28.64829436875879764556884765625</LongitudeDegrees>
            </Position>
            <AltitudeMeters>271.79998779296875</AltitudeMeters>
            <DistanceMeters>21148.811658764</DistanceMeters>
          </Trackpoint>
          <Trackpoint>
            <Time>2020-04-26T17:23:59.000Z</Time>
            <Position>
              <LatitudeDegrees>38.5588780604302883148193359375</LatitudeDegrees>
              <LongitudeDegrees>-28.6483906768262386322021484375</LongitudeDegrees>
            </Position>
            <AltitudeMeters>272</AltitudeMeters>
            <DistanceMeters>21158.253317233</DistanceMeters>
          </Trackpoint>
          <Trackpoint>
            <Time>2020-04-26T17:24:02.000Z</Time>
            <Position>
              <LatitudeDegrees>38.55883128941059112548828125</LatitudeDegrees>
              <LongitudeDegrees>-28.6485264636576175689697265625</LongitudeDegrees>
            </Position>
            <AltitudeMeters>272.79998779296875</AltitudeMeters>
            <DistanceMeters>21171.167164521</DistanceMeters>
          </Trackpoint>
          <Trackpoint>
            <Time>2020-04-26T17:24:05.000Z</Time>
            <Position>
              <LatitudeDegrees>38.55878661386668682098388671875</LatitudeDegrees>
              <LongitudeDegrees>-28.6486759968101978302001953125</LongitudeDegrees>
            </Position>
            <AltitudeMeters>273.399993896484375</AltitudeMeters>
            <DistanceMeters>21185.099195714</DistanceMeters>
          </Trackpoint>
          <Trackpoint>
            <Time>2020-04-26T17:24:07.000Z</Time>
            <Position>
              <LatitudeDegrees>38.5587758012115955352783203125</LatitudeDegrees>
              <LongitudeDegrees>-28.64878714084625244140625</LongitudeDegrees>
            </Position>
            <AltitudeMeters>274</AltitudeMeters>
            <DistanceMeters>21194.847658387</DistanceMeters>
          </Trackpoint>
          <Trackpoint>
            <Time>2020-04-26T17:24:08.000Z</Time>
            <Position>
              <LatitudeDegrees>38.55877705849707126617431640625</LatitudeDegrees>
              <LongitudeDegrees>-28.64884279668331146240234375</LongitudeDegrees>
            </Position>
            <AltitudeMeters>274.399993896484375</AltitudeMeters>
            <DistanceMeters>21199.693089096</DistanceMeters>
          </Trackpoint>
          <Trackpoint>
            <Time>2020-04-26T17:24:10.000Z</Time>
            <Position>
              <LatitudeDegrees>38.55880321003496646881103515625</LatitudeDegrees>
              <LongitudeDegrees>-28.64894899539649486541748046875</LongitudeDegrees>
            </Position>
            <AltitudeMeters>275</AltitudeMeters>
            <DistanceMeters>21209.383950514</DistanceMeters>
          </Trackpoint>
          <Trackpoint>
            <Time>2020-04-26T17:24:12.000Z</Time>
            <Position>
              <LatitudeDegrees>38.55884579010307788848876953125</LatitudeDegrees>
              <LongitudeDegrees>-28.6490397714078426361083984375</LongitudeDegrees>
            </Position>
            <AltitudeMeters>275.399993896484375</AltitudeMeters>
            <DistanceMeters>21218.597132297</DistanceMeters>
          </Trackpoint>
          <Trackpoint>
            <Time>2020-04-26T17:24:14.000Z</Time>
            <Position>
              <LatitudeDegrees>38.55890714563429355621337890625</LatitudeDegrees>
              <LongitudeDegrees>-28.64911193959414958953857421875</LongitudeDegrees>
            </Position>
            <AltitudeMeters>276</AltitudeMeters>
            <DistanceMeters>21227.875263507</DistanceMeters>
          </Trackpoint>
          <Trackpoint>
            <Time>2020-04-26T17:24:16.000Z</Time>
            <Position>
              <LatitudeDegrees>38.5589628852903842926025390625</LatitudeDegrees>
              <LongitudeDegrees>-28.64915921352803707122802734375</LongitudeDegrees>
            </Position>
            <AltitudeMeters>276.399993896484375</AltitudeMeters>
            <DistanceMeters>21235.319561938</DistanceMeters>
          </Trackpoint>
          <Trackpoint>
            <Time>2020-04-26T17:24:19.000Z</Time>
            <Position>
              <LatitudeDegrees>38.55905198492109775543212890625</LatitudeDegrees>
              <LongitudeDegrees>-28.6492362432181835174560546875</LongitudeDegrees>
            </Position>
            <AltitudeMeters>277.20001220703125</AltitudeMeters>
            <DistanceMeters>21247.289910848</DistanceMeters>
          </Trackpoint>
          <Trackpoint>
            <Time>2020-04-26T17:24:22.000Z</Time>
            <Position>
              <LatitudeDegrees>38.55914636515080928802490234375</LatitudeDegrees>
              <LongitudeDegrees>-28.6493234150111675262451171875</LongitudeDegrees>
            </Position>
            <AltitudeMeters>277.600006103515625</AltitudeMeters>
            <DistanceMeters>21260.247736336</DistanceMeters>
          </Trackpoint>
          <Trackpoint>
            <Time>2020-04-26T17:24:25.000Z</Time>
            <Position>
              <LatitudeDegrees>38.55924627743661403656005859375</LatitudeDegrees>
              <LongitudeDegrees>-28.64940329454839229583740234375</LongitudeDegrees>
            </Position>
            <AltitudeMeters>278.600006103515625</AltitudeMeters>
            <DistanceMeters>21273.362111501</DistanceMeters>
          </Trackpoint>
          <Trackpoint>
            <Time>2020-04-26T17:24:28.000Z</Time>
            <Position>
              <LatitudeDegrees>38.55934853665530681610107421875</LatitudeDegrees>
              <LongitudeDegrees>-28.64947604946792125701904296875</LongitudeDegrees>
            </Position>
            <AltitudeMeters>279.399993896484375</AltitudeMeters>
            <DistanceMeters>21286.386319193</DistanceMeters>
          </Trackpoint>
          <Trackpoint>
            <Time>2020-04-26T17:24:30.000Z</Time>
            <Position>
              <LatitudeDegrees>38.559414334595203399658203125</LatitudeDegrees>
              <LongitudeDegrees>-28.64953556098043918609619140625</LongitudeDegrees>
            </Position>
            <AltitudeMeters>279.79998779296875</AltitudeMeters>
            <DistanceMeters>21295.356156489</DistanceMeters>
          </Trackpoint>
          <Trackpoint>
            <Time>2020-04-26T17:24:36.000Z</Time>
            <Position>
              <LatitudeDegrees>38.55961927212774753570556640625</LatitudeDegrees>
              <LongitudeDegrees>-28.649701774120330810546875</LongitudeDegrees>
            </Position>
            <AltitudeMeters>281</AltitudeMeters>
            <DistanceMeters>21322.366486662</DistanceMeters>
          </Trackpoint>
          <Trackpoint>
            <Time>2020-04-26T17:24:41.000Z</Time>
            <Position>
              <LatitudeDegrees>38.5597983933985233306884765625</LatitudeDegrees>
              <LongitudeDegrees>-28.6498508043587207794189453125</LongitudeDegrees>
            </Position>
            <AltitudeMeters>282</AltitudeMeters>
            <DistanceMeters>21346.150896869</DistanceMeters>
          </Trackpoint>
          <Trackpoint>
            <Time>2020-04-26T17:24:43.000Z</Time>
            <Position>
              <LatitudeDegrees>38.559863269329071044921875</LatitudeDegrees>
              <LongitudeDegrees>-28.6499198712408542633056640625</LongitudeDegrees>
            </Position>
            <AltitudeMeters>282.399993896484375</AltitudeMeters>
            <DistanceMeters>21355.546535608</DistanceMeters>
          </Trackpoint>
          <Trackpoint>
            <Time>2020-04-26T17:24:45.000Z</Time>
            <Position>
              <LatitudeDegrees>38.55991892516613006591796875</LatitudeDegrees>
              <LongitudeDegrees>-28.65000109188258647918701171875</LongitudeDegrees>
            </Position>
            <AltitudeMeters>283</AltitudeMeters>
            <DistanceMeters>21364.94601793</DistanceMeters>
          </Trackpoint>
          <Trackpoint>
            <Time>2020-04-26T17:24:48.000Z</Time>
            <Position>
              <LatitudeDegrees>38.5599879920482635498046875</LatitudeDegrees>
              <LongitudeDegrees>-28.6501424945890903472900390625</LongitudeDegrees>
            </Position>
            <AltitudeMeters>283.600006103515625</AltitudeMeters>
            <DistanceMeters>21379.456195819</DistanceMeters>
          </Trackpoint>
          <Trackpoint>
            <Time>2020-04-26T17:24:49.000Z</Time>
            <Position>
              <LatitudeDegrees>38.5600039176642894744873046875</LatitudeDegrees>
              <LongitudeDegrees>-28.650190271437168121337890625</LongitudeDegrees>
            </Position>
            <AltitudeMeters>283.79998779296875</AltitudeMeters>
            <DistanceMeters>21383.975712709</DistanceMeters>
          </Trackpoint>
          <Trackpoint>
            <Time>2020-04-26T17:24:51.000Z</Time>
            <Position>
              <LatitudeDegrees>38.56003065593540668487548828125</LatitudeDegrees>
              <LongitudeDegrees>-28.6502890102565288543701171875</LongitudeDegrees>
            </Position>
            <AltitudeMeters>284</AltitudeMeters>
            <DistanceMeters>21393.069525995</DistanceMeters>
          </Trackpoint>
          <Trackpoint>
            <Time>2020-04-26T17:24:54.000Z</Time>
            <Position>
              <LatitudeDegrees>38.560076840221881866455078125</LatitudeDegrees>
              <LongitudeDegrees>-28.65044248290359973907470703125</LongitudeDegrees>
            </Position>
            <AltitudeMeters>284.399993896484375</AltitudeMeters>
            <DistanceMeters>21407.38169753</DistanceMeters>
          </Trackpoint>
          <Trackpoint>
            <Time>2020-04-26T17:25:01.000Z</Time>
            <Position>
              <LatitudeDegrees>38.56017633341252803802490234375</LatitudeDegrees>
              <LongitudeDegrees>-28.65081413649022579193115234375</LongitudeDegrees>
            </Position>
            <AltitudeMeters>285.20001220703125</AltitudeMeters>
            <DistanceMeters>21441.570719382</DistanceMeters>
          </Trackpoint>
          <Trackpoint>
            <Time>2020-04-26T17:25:02.000Z</Time>
            <Position>
              <LatitudeDegrees>38.56018890626728534698486328125</LatitudeDegrees>
              <LongitudeDegrees>-28.65086727775633335113525390625</LongitudeDegrees>
            </Position>
            <AltitudeMeters>285.399993896484375</AltitudeMeters>
            <DistanceMeters>21446.403087092</DistanceMeters>
          </Trackpoint>
          <Trackpoint>
            <Time>2020-04-26T17:25:05.000Z</Time>
            <Position>
              <LatitudeDegrees>38.56021891348063945770263671875</LatitudeDegrees>
              <LongitudeDegrees>-28.6510299704968929290771484375</LongitudeDegrees>
            </Position>
            <AltitudeMeters>286.20001220703125</AltitudeMeters>
            <DistanceMeters>21460.951177403</DistanceMeters>
          </Trackpoint>
          <Trackpoint>
            <Time>2020-04-26T17:25:06.000Z</Time>
            <Position>
              <LatitudeDegrees>38.5602238588035106658935546875</LatitudeDegrees>
              <LongitudeDegrees>-28.6510873027145862579345703125</LongitudeDegrees>
            </Position>
            <AltitudeMeters>286.20001220703125</AltitudeMeters>
            <DistanceMeters>21465.970531274</DistanceMeters>
          </Trackpoint>
          <Trackpoint>
            <Time>2020-04-26T17:25:10.000Z</Time>
            <Position>
              <LatitudeDegrees>38.56025696732103824615478515625</LatitudeDegrees>
              <LongitudeDegrees>-28.651313446462154388427734375</LongitudeDegrees>
            </Position>
            <AltitudeMeters>287.20001220703125</AltitudeMeters>
            <DistanceMeters>21485.994353443</DistanceMeters>
          </Trackpoint>
          <Trackpoint>
            <Time>2020-04-26T17:25:11.000Z</Time>
            <Position>
              <LatitudeDegrees>38.5602671094238758087158203125</LatitudeDegrees>
              <LongitudeDegrees>-28.65137035958468914031982421875</LongitudeDegrees>
            </Position>
            <AltitudeMeters>287.399993896484375</AltitudeMeters>
            <DistanceMeters>21491.074506834</DistanceMeters>
          </Trackpoint>
          <Trackpoint>
            <Time>2020-04-26T17:25:15.000Z</Time>
            <Position>
              <LatitudeDegrees>38.56031723320484161376953125</LatitudeDegrees>
              <LongitudeDegrees>-28.65160119719803333282470703125</LongitudeDegrees>
            </Position>
            <AltitudeMeters>288.399993896484375</AltitudeMeters>
            <DistanceMeters>21511.925022423</DistanceMeters>
          </Trackpoint>
          <Trackpoint>
            <Time>2020-04-26T17:25:16.000Z</Time>
            <Position>
              <LatitudeDegrees>38.5603324882686138153076171875</LatitudeDegrees>
              <LongitudeDegrees>-28.6516592837870121002197265625</LongitudeDegrees>
            </Position>
            <AltitudeMeters>288.399993896484375</AltitudeMeters>
            <DistanceMeters>21517.25669014</DistanceMeters>
          </Trackpoint>
          <Trackpoint>
            <Time>2020-04-26T17:25:18.000Z</Time>
            <Position>
              <LatitudeDegrees>38.5603593103587627410888671875</LatitudeDegrees>
              <LongitudeDegrees>-28.6517749540507793426513671875</LongitudeDegrees>
            </Position>
            <AltitudeMeters>288.79998779296875</AltitudeMeters>
            <DistanceMeters>21527.756604583</DistanceMeters>
          </Trackpoint>
          <Trackpoint>
            <Time>2020-04-26T17:25:21.000Z</Time>
            <Position>
              <LatitudeDegrees>38.56038973666727542877197265625</LatitudeDegrees>
              <LongitudeDegrees>-28.6519466154277324676513671875</LongitudeDegrees>
            </Position>
            <AltitudeMeters>289.600006103515625</AltitudeMeters>
            <DistanceMeters>21543.075665475</DistanceMeters>
          </Trackpoint>
          <Trackpoint>
            <Time>2020-04-26T17:25:25.000Z</Time>
            <Position>
              <LatitudeDegrees>38.5604072548449039459228515625</LatitudeDegrees>
              <LongitudeDegrees>-28.6521816439926624298095703125</LongitudeDegrees>
            </Position>
            <AltitudeMeters>290.600006103515625</AltitudeMeters>
            <DistanceMeters>21563.623860392</DistanceMeters>
          </Trackpoint>
          <Trackpoint>
            <Time>2020-04-26T17:25:30.000Z</Time>
            <Position>
              <LatitudeDegrees>38.56043248437345027923583984375</LatitudeDegrees>
              <LongitudeDegrees>-28.65247626788914203643798828125</LongitudeDegrees>
            </Position>
            <AltitudeMeters>291.79998779296875</AltitudeMeters>
            <DistanceMeters>21589.419019102</DistanceMeters>
          </Trackpoint>
          <Trackpoint>
            <Time>2020-04-26T17:25:34.000Z</Time>
            <Position>
              <LatitudeDegrees>38.56046081520617008209228515625</LatitudeDegrees>
              <LongitudeDegrees>-28.6527019925415515899658203125</LongitudeDegrees>
            </Position>
            <AltitudeMeters>292.399993896484375</AltitudeMeters>
            <DistanceMeters>21609.315943019</DistanceMeters>
          </Trackpoint>
          <Trackpoint>
            <Time>2020-04-26T17:25:36.000Z</Time>
            <Position>
              <LatitudeDegrees>38.5604860447347164154052734375</LatitudeDegrees>
              <LongitudeDegrees>-28.652816824615001678466796875</LongitudeDegrees>
            </Position>
            <AltitudeMeters>293</AltitudeMeters>
            <DistanceMeters>21619.696932003</DistanceMeters>
          </Trackpoint>
          <Trackpoint>
            <Time>2020-04-26T17:25:40.000Z</Time>
            <Position>
              <LatitudeDegrees>38.56054932810366153717041015625</LatitudeDegrees>
              <LongitudeDegrees>-28.65303969942033290863037109375</LongitudeDegrees>
            </Position>
            <AltitudeMeters>294</AltitudeMeters>
            <DistanceMeters>21640.333487801</DistanceMeters>
          </Trackpoint>
          <Trackpoint>
            <Time>2020-04-26T17:25:42.000Z</Time>
            <Position>
              <LatitudeDegrees>38.56057983823120594024658203125</LatitudeDegrees>
              <LongitudeDegrees>-28.65315168164670467376708984375</LongitudeDegrees>
            </Position>
            <AltitudeMeters>294.600006103515625</AltitudeMeters>
            <DistanceMeters>21650.654281459</DistanceMeters>
          </Trackpoint>
          <Trackpoint>
            <Time>2020-04-26T17:25:44.000Z</Time>
            <Position>
              <LatitudeDegrees>38.560616970062255859375</LatitudeDegrees>
              <LongitudeDegrees>-28.65325561724603176116943359375</LongitudeDegrees>
            </Position>
            <AltitudeMeters>295</AltitudeMeters>
            <DistanceMeters>21660.599906495</DistanceMeters>
          </Trackpoint>
          <Trackpoint>
            <Time>2020-04-26T17:25:48.000Z</Time>
            <Position>
              <LatitudeDegrees>38.560696430504322052001953125</LatitudeDegrees>
              <LongitudeDegrees>-28.6534560285508632659912109375</LongitudeDegrees>
            </Position>
            <AltitudeMeters>296</AltitudeMeters>
            <DistanceMeters>21680.156256554</DistanceMeters>
          </Trackpoint>
          <Trackpoint>
            <Time>2020-04-26T17:25:49.000Z</Time>
            <Position>
              <LatitudeDegrees>38.56071151793003082275390625</LatitudeDegrees>
              <LongitudeDegrees>-28.65350715816020965576171875</LongitudeDegrees>
            </Position>
            <AltitudeMeters>296.399993896484375</AltitudeMeters>
            <DistanceMeters>21684.913290459</DistanceMeters>
          </Trackpoint>
          <Trackpoint>
            <Time>2020-04-26T17:25:52.000Z</Time>
            <Position>
              <LatitudeDegrees>38.560768179595470428466796875</LatitudeDegrees>
              <LongitudeDegrees>-28.65364856086671352386474609375</LongitudeDegrees>
            </Position>
            <AltitudeMeters>297</AltitudeMeters>
            <DistanceMeters>21698.741554948</DistanceMeters>
          </Trackpoint>
          <Trackpoint>
            <Time>2020-04-26T17:25:53.000Z</Time>
            <Position>
              <LatitudeDegrees>38.56078787706792354583740234375</LatitudeDegrees>
              <LongitudeDegrees>-28.65368979983031749725341796875</LongitudeDegrees>
            </Position>
            <AltitudeMeters>297.20001220703125</AltitudeMeters>
            <DistanceMeters>21702.946419949</DistanceMeters>
          </Trackpoint>
          <Trackpoint>
            <Time>2020-04-26T17:25:55.000Z</Time>
            <Position>
              <LatitudeDegrees>38.5608310438692569732666015625</LatitudeDegrees>
              <LongitudeDegrees>-28.6537698470056056976318359375</LongitudeDegrees>
            </Position>
            <AltitudeMeters>297.79998779296875</AltitudeMeters>
            <DistanceMeters>21711.409134423</DistanceMeters>
          </Trackpoint>
          <Trackpoint>
            <Time>2020-04-26T17:25:57.000Z</Time>
            <Position>
              <LatitudeDegrees>38.560877479612827301025390625</LatitudeDegrees>
              <LongitudeDegrees>-28.65384779870510101318359375</LongitudeDegrees>
            </Position>
            <AltitudeMeters>298.600006103515625</AltitudeMeters>
            <DistanceMeters>21719.937219535</DistanceMeters>
          </Trackpoint>
          <Trackpoint>
            <Time>2020-04-26T17:26:01.000Z</Time>
            <Position>
              <LatitudeDegrees>38.56098066084086894989013671875</LatitudeDegrees>
              <LongitudeDegrees>-28.65399590693414211273193359375</LongitudeDegrees>
            </Position>
            <AltitudeMeters>299.79998779296875</AltitudeMeters>
            <DistanceMeters>21737.20151023</DistanceMeters>
          </Trackpoint>
          <Trackpoint>
            <Time>2020-04-26T17:26:03.000Z</Time>
            <Position>
              <LatitudeDegrees>38.5610348917543888092041015625</LatitudeDegrees>
              <LongitudeDegrees>-28.6540689133107662200927734375</LongitudeDegrees>
            </Position>
            <AltitudeMeters>300.20001220703125</AltitudeMeters>
            <DistanceMeters>21745.96563199</DistanceMeters>
          </Trackpoint>
          <Trackpoint>
            <Time>2020-04-26T17:26:06.000Z</Time>
            <Position>
              <LatitudeDegrees>38.5611244104802608489990234375</LatitudeDegrees>
              <LongitudeDegrees>-28.65416320972144603729248046875</LongitudeDegrees>
            </Position>
            <AltitudeMeters>301</AltitudeMeters>
            <DistanceMeters>21758.873884023</DistanceMeters>
          </Trackpoint>
          <Trackpoint>
            <Time>2020-04-26T17:26:10.000Z</Time>
            <Position>
              <LatitudeDegrees>38.561244942247867584228515625</LatitudeDegrees>
              <LongitudeDegrees>-28.65428223274648189544677734375</LongitudeDegrees>
            </Position>
            <AltitudeMeters>302.20001220703125</AltitudeMeters>
            <DistanceMeters>21775.823304426</DistanceMeters>
          </Trackpoint>
          <Trackpoint>
            <Time>2020-04-26T17:26:14.000Z</Time>
            <Position>
              <LatitudeDegrees>38.56136656366288661956787109375</LatitudeDegrees>
              <LongitudeDegrees>-28.65438734181225299835205078125</LongitudeDegrees>
            </Position>
            <AltitudeMeters>303.20001220703125</AltitudeMeters>
            <DistanceMeters>21792.161268182</DistanceMeters>
          </Trackpoint>
          <Trackpoint>
            <Time>2020-04-26T17:26:17.000Z</Time>
            <Position>
              <LatitudeDegrees>38.56145851314067840576171875</LatitudeDegrees>
              <LongitudeDegrees>-28.65446981973946094512939453125</LongitudeDegrees>
            </Position>
            <AltitudeMeters>304.20001220703125</AltitudeMeters>
            <DistanceMeters>21804.661525891</DistanceMeters>
          </Trackpoint>
          <Trackpoint>
            <Time>2020-04-26T17:26:19.000Z</Time>
            <Position>
              <LatitudeDegrees>38.56150637380778789520263671875</LatitudeDegrees>
              <LongitudeDegrees>-28.6545393057167530059814453125</LongitudeDegrees>
            </Position>
            <AltitudeMeters>304.600006103515625</AltitudeMeters>
            <DistanceMeters>21812.720329138</DistanceMeters>
          </Trackpoint>
          <Trackpoint>
            <Time>2020-04-26T17:26:22.000Z</Time>
            <Position>
              <LatitudeDegrees>38.5615572519600391387939453125</LatitudeDegrees>
              <LongitudeDegrees>-28.654654137790203094482421875</LongitudeDegrees>
            </Position>
            <AltitudeMeters>305.600006103515625</AltitudeMeters>
            <DistanceMeters>21824.207168434</DistanceMeters>
          </Trackpoint>
          <Trackpoint>
            <Time>2020-04-26T17:26:23.000Z</Time>
            <Position>
              <LatitudeDegrees>38.5615716688334941864013671875</LatitudeDegrees>
              <LongitudeDegrees>-28.65469512529671192169189453125</LongitudeDegrees>
            </Position>
            <AltitudeMeters>305.600006103515625</AltitudeMeters>
            <DistanceMeters>21828.118299919</DistanceMeters>
          </Trackpoint>
          <Trackpoint>
            <Time>2020-04-26T17:26:28.000Z</Time>
            <Position>
              <LatitudeDegrees>38.56163092888891696929931640625</LatitudeDegrees>
              <LongitudeDegrees>-28.65491665899753570556640625</LongitudeDegrees>
            </Position>
            <AltitudeMeters>306.79998779296875</AltitudeMeters>
            <DistanceMeters>21848.49571475</DistanceMeters>
          </Trackpoint>
          <Trackpoint>
            <Time>2020-04-26T17:26:34.000Z</Time>
            <Position>
              <LatitudeDegrees>38.56164894998073577880859375</LatitudeDegrees>
              <LongitudeDegrees>-28.655194602906703948974609375</LongitudeDegrees>
            </Position>
            <AltitudeMeters>308</AltitudeMeters>
            <DistanceMeters>21872.768670229</DistanceMeters>
          </Trackpoint>
          <Trackpoint>
            <Time>2020-04-26T17:26:40.000Z</Time>
            <Position>
              <LatitudeDegrees>38.5615857504308223724365234375</LatitudeDegrees>
              <LongitudeDegrees>-28.6554485745728015899658203125</LongitudeDegrees>
            </Position>
            <AltitudeMeters>309.20001220703125</AltitudeMeters>
            <DistanceMeters>21895.964338892</DistanceMeters>
          </Trackpoint>
          <Trackpoint>
            <Time>2020-04-26T17:26:45.000Z</Time>
            <Position>
              <LatitudeDegrees>38.56153219006955623626708984375</LatitudeDegrees>
              <LongitudeDegrees>-28.65568670444190502166748046875</LongitudeDegrees>
            </Position>
            <AltitudeMeters>310.20001220703125</AltitudeMeters>
            <DistanceMeters>21917.52954158</DistanceMeters>
          </Trackpoint>
          <Trackpoint>
            <Time>2020-04-26T17:26:46.000Z</Time>
            <Position>
              <LatitudeDegrees>38.561517857015132904052734375</LatitudeDegrees>
              <LongitudeDegrees>-28.65573246963322162628173828125</LongitudeDegrees>
            </Position>
            <AltitudeMeters>310.20001220703125</AltitudeMeters>
            <DistanceMeters>21921.820500199</DistanceMeters>
          </Trackpoint>
          <Trackpoint>
            <Time>2020-04-26T17:26:51.000Z</Time>
            <Position>
              <LatitudeDegrees>38.56147318147122859954833984375</LatitudeDegrees>
              <LongitudeDegrees>-28.6559419333934783935546875</LongitudeDegrees>
            </Position>
            <AltitudeMeters>311</AltitudeMeters>
            <DistanceMeters>21940.716724233</DistanceMeters>
          </Trackpoint>
          <Trackpoint>
            <Time>2020-04-26T17:26:54.000Z</Time>
            <Position>
              <LatitudeDegrees>38.561430014669895172119140625</LatitudeDegrees>
              <LongitudeDegrees>-28.65607738494873046875</LongitudeDegrees>
            </Position>
            <AltitudeMeters>311.399993896484375</AltitudeMeters>
            <DistanceMeters>21953.446757692</DistanceMeters>
          </Trackpoint>
          <Trackpoint>
            <Time>2020-04-26T17:26:58.000Z</Time>
            <Position>
              <LatitudeDegrees>38.561373017728328704833984375</LatitudeDegrees>
              <LongitudeDegrees>-28.65625784732401371002197265625</LongitudeDegrees>
            </Position>
            <AltitudeMeters>312.20001220703125</AltitudeMeters>
            <DistanceMeters>21970.385519421</DistanceMeters>
          </Trackpoint>
          <Trackpoint>
            <Time>2020-04-26T17:27:02.000Z</Time>
            <Position>
              <LatitudeDegrees>38.5613440163433551788330078125</LatitudeDegrees>
              <LongitudeDegrees>-28.65645649842917919158935546875</LongitudeDegrees>
            </Position>
            <AltitudeMeters>312.399993896484375</AltitudeMeters>
            <DistanceMeters>21987.973164761</DistanceMeters>
          </Trackpoint>
          <Trackpoint>
            <Time>2020-04-26T17:27:04.000Z</Time>
            <Position>
              <LatitudeDegrees>38.56134041212499141693115234375</LatitudeDegrees>
              <LongitudeDegrees>-28.65655238740146160125732421875</LongitudeDegrees>
            </Position>
            <AltitudeMeters>312.79998779296875</AltitudeMeters>
            <DistanceMeters>21996.327953263</DistanceMeters>
          </Trackpoint>
          <Trackpoint>
            <Time>2020-04-26T17:27:07.000Z</Time>
            <Position>
              <LatitudeDegrees>38.56136522255837917327880859375</LatitudeDegrees>
              <LongitudeDegrees>-28.65669555030763149261474609375</LongitudeDegrees>
            </Position>
            <AltitudeMeters>313.600006103515625</AltitudeMeters>
            <DistanceMeters>22009.089867646</DistanceMeters>
          </Trackpoint>
          <Trackpoint>
            <Time>2020-04-26T17:27:09.000Z</Time>
            <Position>
              <LatitudeDegrees>38.561386428773403167724609375</LatitudeDegrees>
              <LongitudeDegrees>-28.6567930318415164947509765625</LongitudeDegrees>
            </Position>
            <AltitudeMeters>313.600006103515625</AltitudeMeters>
            <DistanceMeters>22017.896132263</DistanceMeters>
          </Trackpoint>
          <Trackpoint>
            <Time>2020-04-26T17:27:14.000Z</Time>
            <Position>
              <LatitudeDegrees>38.56144166551530361175537109375</LatitudeDegrees>
              <LongitudeDegrees>-28.6570424772799015045166015625</LongitudeDegrees>
            </Position>
            <AltitudeMeters>314.79998779296875</AltitudeMeters>
            <DistanceMeters>22040.459724839</DistanceMeters>
          </Trackpoint>
          <Trackpoint>
            <Time>2020-04-26T17:27:17.000Z</Time>
            <Position>
              <LatitudeDegrees>38.5614751093089580535888671875</LatitudeDegrees>
              <LongitudeDegrees>-28.65720768459141254425048828125</LongitudeDegrees>
            </Position>
            <AltitudeMeters>315.20001220703125</AltitudeMeters>
            <DistanceMeters>22055.311886546</DistanceMeters>
          </Trackpoint>
          <Trackpoint>
            <Time>2020-04-26T17:27:20.000Z</Time>
            <Position>
              <LatitudeDegrees>38.5615163482725620269775390625</LatitudeDegrees>
              <LongitudeDegrees>-28.6573914997279644012451171875</LongitudeDegrees>
            </Position>
            <AltitudeMeters>315.600006103515625</AltitudeMeters>
            <DistanceMeters>22071.954859983</DistanceMeters>
          </Trackpoint>
          <Trackpoint>
            <Time>2020-04-26T17:27:21.000Z</Time>
            <Position>
              <LatitudeDegrees>38.56153001077473163604736328125</LatitudeDegrees>
              <LongitudeDegrees>-28.65745696239173412322998046875</LongitudeDegrees>
            </Position>
            <AltitudeMeters>316</AltitudeMeters>
            <DistanceMeters>22077.851112548</DistanceMeters>
          </Trackpoint>
          <Trackpoint>
            <Time>2020-04-26T17:27:22.000Z</Time>
            <Position>
              <LatitudeDegrees>38.56154476292431354522705078125</LatitudeDegrees>
              <LongitudeDegrees>-28.6575155518949031829833984375</LongitudeDegrees>
            </Position>
            <AltitudeMeters>316.399993896484375</AltitudeMeters>
            <DistanceMeters>22083.208125049</DistanceMeters>
          </Trackpoint>
          <Trackpoint>
            <Time>2020-04-26T17:27:23.000Z</Time>
            <Position>
              <LatitudeDegrees>38.5615602694451808929443359375</LatitudeDegrees>
              <LongitudeDegrees>-28.657571375370025634765625</LongitudeDegrees>
            </Position>
            <AltitudeMeters>317</AltitudeMeters>
            <DistanceMeters>22088.364145322</DistanceMeters>
          </Trackpoint>
          <Trackpoint>
            <Time>2020-04-26T17:27:27.000Z</Time>
            <Position>
              <LatitudeDegrees>38.56160896830260753631591796875</LatitudeDegrees>
              <LongitudeDegrees>-28.6578028835356235504150390625</LongitudeDegrees>
            </Position>
            <AltitudeMeters>318</AltitudeMeters>
            <DistanceMeters>22109.228731474</DistanceMeters>
          </Trackpoint>
          <Trackpoint>
            <Time>2020-04-26T17:27:30.000Z</Time>
            <Position>
              <LatitudeDegrees>38.5616467706859111785888671875</LatitudeDegrees>
              <LongitudeDegrees>-28.65797094069421291351318359375</LongitudeDegrees>
            </Position>
            <AltitudeMeters>318.600006103515625</AltitudeMeters>
            <DistanceMeters>22124.447846454</DistanceMeters>
          </Trackpoint>
          <Trackpoint>
            <Time>2020-04-26T17:27:31.000Z</Time>
            <Position>
              <LatitudeDegrees>38.56165624223649501800537109375</LatitudeDegrees>
              <LongitudeDegrees>-28.658025003969669342041015625</LongitudeDegrees>
            </Position>
            <AltitudeMeters>319.20001220703125</AltitudeMeters>
            <DistanceMeters>22129.270861789</DistanceMeters>
          </Trackpoint>
          <Trackpoint>
            <Time>2020-04-26T17:27:34.000Z</Time>
            <Position>
              <LatitudeDegrees>38.56168306432664394378662109375</LatitudeDegrees>
              <LongitudeDegrees>-28.65817151963710784912109375</LongitudeDegrees>
            </Position>
            <AltitudeMeters>320.399993896484375</AltitudeMeters>
            <DistanceMeters>22142.367666821</DistanceMeters>
          </Trackpoint>
          <Trackpoint>
            <Time>2020-04-26T17:27:36.000Z</Time>
            <Position>
              <LatitudeDegrees>38.56170284561812877655029296875</LatitudeDegrees>
              <LongitudeDegrees>-28.6582528240978717803955078125</LongitudeDegrees>
            </Position>
            <AltitudeMeters>321</AltitudeMeters>
            <DistanceMeters>22149.778532151</DistanceMeters>
          </Trackpoint>
          <Trackpoint>
            <Time>2020-04-26T17:27:37.000Z</Time>
            <Position>
              <LatitudeDegrees>38.561710305511951446533203125</LatitudeDegrees>
              <LongitudeDegrees>-28.658297248184680938720703125</LongitudeDegrees>
            </Position>
            <AltitudeMeters>321.399993896484375</AltitudeMeters>
            <DistanceMeters>22153.73328782</DistanceMeters>
          </Trackpoint>
          <Trackpoint>
            <Time>2020-04-26T17:27:40.000Z</Time>
            <Position>
              <LatitudeDegrees>38.56173704378306865692138671875</LatitudeDegrees>
              <LongitudeDegrees>-28.6584471166133880615234375</LongitudeDegrees>
            </Position>
            <AltitudeMeters>321.600006103515625</AltitudeMeters>
            <DistanceMeters>22167.11148333</DistanceMeters>
          </Trackpoint>
          <Trackpoint>
            <Time>2020-04-26T17:27:41.000Z</Time>
            <Position>
              <LatitudeDegrees>38.5617537237703800201416015625</LatitudeDegrees>
              <LongitudeDegrees>-28.65850134752690792083740234375</LongitudeDegrees>
            </Position>
            <AltitudeMeters>321.79998779296875</AltitudeMeters>
            <DistanceMeters>22172.182741331</DistanceMeters>
          </Trackpoint>
          <Trackpoint>
            <Time>2020-04-26T17:27:43.000Z</Time>
            <Position>
              <LatitudeDegrees>38.56178230606019496917724609375</LatitudeDegrees>
              <LongitudeDegrees>-28.6586279980838298797607421875</LongitudeDegrees>
            </Position>
            <AltitudeMeters>322</AltitudeMeters>
            <DistanceMeters>22183.65502812</DistanceMeters>
          </Trackpoint>
          <Trackpoint>
            <Time>2020-04-26T17:27:45.000Z</Time>
            <Position>
              <LatitudeDegrees>38.56180946342647075653076171875</LatitudeDegrees>
              <LongitudeDegrees>-28.65877040661871433258056640625</LongitudeDegrees>
            </Position>
            <AltitudeMeters>322.79998779296875</AltitudeMeters>
            <DistanceMeters>22196.412696317</DistanceMeters>
          </Trackpoint>
          <Trackpoint>
            <Time>2020-04-26T17:27:46.000Z</Time>
            <Position>
              <LatitudeDegrees>38.56181784532964229583740234375</LatitudeDegrees>
              <LongitudeDegrees>-28.6588442511856555938720703125</LongitudeDegrees>
            </Position>
            <AltitudeMeters>323.20001220703125</AltitudeMeters>
            <DistanceMeters>22202.906574742</DistanceMeters>
          </Trackpoint>
          <Trackpoint>
            <Time>2020-04-26T17:27:49.000Z</Time>
            <Position>
              <LatitudeDegrees>38.5618489421904087066650390625</LatitudeDegrees>
              <LongitudeDegrees>-28.6590725742280483245849609375</LongitudeDegrees>
            </Position>
            <AltitudeMeters>324</AltitudeMeters>
            <DistanceMeters>22223.076876279</DistanceMeters>
          </Trackpoint>
          <Trackpoint>
            <Time>2020-04-26T17:27:51.000Z</Time>
            <Position>
              <LatitudeDegrees>38.56186361052095890045166015625</LatitudeDegrees>
              <LongitudeDegrees>-28.659230656921863555908203125</LongitudeDegrees>
            </Position>
            <AltitudeMeters>324.79998779296875</AltitudeMeters>
            <DistanceMeters>22236.931562669</DistanceMeters>
          </Trackpoint>
          <Trackpoint>
            <Time>2020-04-26T17:27:52.000Z</Time>
            <Position>
              <LatitudeDegrees>38.56187383644282817840576171875</LatitudeDegrees>
              <LongitudeDegrees>-28.65930877625942230224609375</LongitudeDegrees>
            </Position>
            <AltitudeMeters>325</AltitudeMeters>
            <DistanceMeters>22243.826076605</DistanceMeters>
          </Trackpoint>
          <Trackpoint>
            <Time>2020-04-26T17:27:53.000Z</Time>
            <Position>
              <LatitudeDegrees>38.56187920086085796356201171875</LatitudeDegrees>
              <LongitudeDegrees>-28.65939192473888397216796875</LongitudeDegrees>
            </Position>
            <AltitudeMeters>325.20001220703125</AltitudeMeters>
            <DistanceMeters>22251.086764332</DistanceMeters>
          </Trackpoint>
          <Trackpoint>
            <Time>2020-04-26T17:27:59.000Z</Time>
            <Position>
              <LatitudeDegrees>38.56186076067388057708740234375</LatitudeDegrees>
              <LongitudeDegrees>-28.659871034324169158935546875</LongitudeDegrees>
            </Position>
            <AltitudeMeters>325.79998779296875</AltitudeMeters>
            <DistanceMeters>22292.834542648</DistanceMeters>
          </Trackpoint>
          <Trackpoint>
            <Time>2020-04-26T17:28:00.000Z</Time>
            <Position>
              <LatitudeDegrees>38.5618382133543491363525390625</LatitudeDegrees>
              <LongitudeDegrees>-28.6599446274340152740478515625</LongitudeDegrees>
            </Position>
            <AltitudeMeters>326</AltitudeMeters>
            <DistanceMeters>22299.713321651</DistanceMeters>
          </Trackpoint>
          <Trackpoint>
            <Time>2020-04-26T17:28:02.000Z</Time>
            <Position>
              <LatitudeDegrees>38.56176453642547130584716796875</LatitudeDegrees>
              <LongitudeDegrees>-28.66008351556956768035888671875</LongitudeDegrees>
            </Position>
            <AltitudeMeters>326.399993896484375</AltitudeMeters>
            <DistanceMeters>22314.320259941</DistanceMeters>
          </Trackpoint>
          <Trackpoint>
            <Time>2020-04-26T17:28:05.000Z</Time>
            <Position>
              <LatitudeDegrees>38.5616695694625377655029296875</LatitudeDegrees>
              <LongitudeDegrees>-28.6603265069425106048583984375</LongitudeDegrees>
            </Position>
            <AltitudeMeters>326.399993896484375</AltitudeMeters>
            <DistanceMeters>22337.962631478</DistanceMeters>
          </Trackpoint>
          <Trackpoint>
            <Time>2020-04-26T17:28:07.000Z</Time>
            <Position>
              <LatitudeDegrees>38.56163361109793186187744140625</LatitudeDegrees>
              <LongitudeDegrees>-28.6604981683194637298583984375</LongitudeDegrees>
            </Position>
            <AltitudeMeters>326.600006103515625</AltitudeMeters>
            <DistanceMeters>22353.429524674</DistanceMeters>
          </Trackpoint>
          <Trackpoint>
            <Time>2020-04-26T17:28:09.000Z</Time>
            <Position>
              <LatitudeDegrees>38.5615994967520236968994140625</LatitudeDegrees>
              <LongitudeDegrees>-28.66066421382129192352294921875</LongitudeDegrees>
            </Position>
            <AltitudeMeters>327</AltitudeMeters>
            <DistanceMeters>22368.371399055</DistanceMeters>
          </Trackpoint>
          <Trackpoint>
            <Time>2020-04-26T17:28:13.000Z</Time>
            <Position>
              <LatitudeDegrees>38.56154845096170902252197265625</LatitudeDegrees>
              <LongitudeDegrees>-28.66099747829139232635498046875</LongitudeDegrees>
            </Position>
            <AltitudeMeters>328.20001220703125</AltitudeMeters>
            <DistanceMeters>22397.92715154</DistanceMeters>
          </Trackpoint>
          <Trackpoint>
            <Time>2020-04-26T17:28:15.000Z</Time>
            <Position>
              <LatitudeDegrees>38.561523891985416412353515625</LatitudeDegrees>
              <LongitudeDegrees>-28.661163859069347381591796875</LongitudeDegrees>
            </Position>
            <AltitudeMeters>329</AltitudeMeters>
            <DistanceMeters>22412.66334095</DistanceMeters>
          </Trackpoint>
          <Trackpoint>
            <Time>2020-04-26T17:28:17.000Z</Time>
            <Position>
              <LatitudeDegrees>38.561499081552028656005859375</LatitudeDegrees>
              <LongitudeDegrees>-28.66132571361958980560302734375</LongitudeDegrees>
            </Position>
            <AltitudeMeters>329.20001220703125</AltitudeMeters>
            <DistanceMeters>22427.018037546</DistanceMeters>
          </Trackpoint>
          <Trackpoint>
            <Time>2020-04-26T17:28:18.000Z</Time>
            <Position>
              <LatitudeDegrees>38.561494052410125732421875</LatitudeDegrees>
              <LongitudeDegrees>-28.66140215657651424407958984375</LongitudeDegrees>
            </Position>
            <AltitudeMeters>329.399993896484375</AltitudeMeters>
            <DistanceMeters>22433.695650703</DistanceMeters>
          </Trackpoint>
          <Trackpoint>
            <Time>2020-04-26T17:28:20.000Z</Time>
            <Position>
              <LatitudeDegrees>38.56151961721479892730712890625</LatitudeDegrees>
              <LongitudeDegrees>-28.661548085510730743408203125</LongitudeDegrees>
            </Position>
            <AltitudeMeters>330.20001220703125</AltitudeMeters>
            <DistanceMeters>22446.711188882</DistanceMeters>
          </Trackpoint>
          <Trackpoint>
            <Time>2020-04-26T17:28:21.000Z</Time>
            <Position>
              <LatitudeDegrees>38.561546690762042999267578125</LatitudeDegrees>
              <LongitudeDegrees>-28.66160608828067779541015625</LongitudeDegrees>
            </Position>
            <AltitudeMeters>330.399993896484375</AltitudeMeters>
            <DistanceMeters>22452.590570876</DistanceMeters>
          </Trackpoint>
          <Trackpoint>
            <Time>2020-04-26T17:28:23.000Z</Time>
            <Position>
              <LatitudeDegrees>38.56162304989993572235107421875</LatitudeDegrees>
              <LongitudeDegrees>-28.6616957746446132659912109375</LongitudeDegrees>
            </Position>
            <AltitudeMeters>330.79998779296875</AltitudeMeters>
            <DistanceMeters>22464.129960255</DistanceMeters>
          </Trackpoint>
          <Trackpoint>
            <Time>2020-04-26T17:28:25.000Z</Time>
            <Position>
              <LatitudeDegrees>38.561714999377727508544921875</LatitudeDegrees>
              <LongitudeDegrees>-28.66170139051973819732666015625</LongitudeDegrees>
            </Position>
            <AltitudeMeters>332</AltitudeMeters>
            <DistanceMeters>22474.37567344</DistanceMeters>
          </Trackpoint>
          <Trackpoint>
            <Time>2020-04-26T17:28:26.000Z</Time>
            <Position>
              <LatitudeDegrees>38.56175598688423633575439453125</LatitudeDegrees>
              <LongitudeDegrees>-28.66168865002691745758056640625</LongitudeDegrees>
            </Position>
            <AltitudeMeters>332.399993896484375</AltitudeMeters>
            <DistanceMeters>22479.069646866</DistanceMeters>
          </Trackpoint>
          <Trackpoint>
            <Time>2020-04-26T17:28:29.000Z</Time>
            <Position>
              <LatitudeDegrees>38.56186193414032459259033203125</LatitudeDegrees>
              <LongitudeDegrees>-28.66162125952541828155517578125</LongitudeDegrees>
            </Position>
            <AltitudeMeters>333</AltitudeMeters>
            <DistanceMeters>22492.239677554</DistanceMeters>
          </Trackpoint>
          <Trackpoint>
            <Time>2020-04-26T17:28:30.000Z</Time>
            <Position>
              <LatitudeDegrees>38.56189697049558162689208984375</LatitudeDegrees>
              <LongitudeDegrees>-28.66158194839954376220703125</LongitudeDegrees>
            </Position>
            <AltitudeMeters>333.20001220703125</AltitudeMeters>
            <DistanceMeters>22497.427126619</DistanceMeters>
          </Trackpoint>
          <Trackpoint>
            <Time>2020-04-26T17:28:34.000Z</Time>
            <Position>
              <LatitudeDegrees>38.561979867517948150634765625</LatitudeDegrees>
              <LongitudeDegrees>-28.66134717129170894622802734375</LongitudeDegrees>
            </Position>
            <AltitudeMeters>334</AltitudeMeters>
            <DistanceMeters>22519.846585021</DistanceMeters>
          </Trackpoint>
          <Trackpoint>
            <Time>2020-04-26T17:28:36.000Z</Time>
            <Position>
              <LatitudeDegrees>38.56200979091227054595947265625</LatitudeDegrees>
              <LongitudeDegrees>-28.661205768585205078125</LongitudeDegrees>
            </Position>
            <AltitudeMeters>334.20001220703125</AltitudeMeters>
            <DistanceMeters>22532.595756602</DistanceMeters>
          </Trackpoint>
          <Trackpoint>
            <Time>2020-04-26T17:28:37.000Z</Time>
            <Position>
              <LatitudeDegrees>38.56202437542378902435302734375</LatitudeDegrees>
              <LongitudeDegrees>-28.66114818491041660308837890625</LongitudeDegrees>
            </Position>
            <AltitudeMeters>334.600006103515625</AltitudeMeters>
            <DistanceMeters>22537.864385929</DistanceMeters>
          </Trackpoint>
          <Trackpoint>
            <Time>2020-04-26T17:28:39.000Z</Time>
            <Position>
              <LatitudeDegrees>38.562053628265857696533203125</LatitudeDegrees>
              <LongitudeDegrees>-28.66104357875883579254150390625</LongitudeDegrees>
            </Position>
            <AltitudeMeters>335.20001220703125</AltitudeMeters>
            <DistanceMeters>22547.533791883</DistanceMeters>
          </Trackpoint>
          <Trackpoint>
            <Time>2020-04-26T17:28:40.000Z</Time>
            <Position>
              <LatitudeDegrees>38.56206603348255157470703125</LatitudeDegrees>
              <LongitudeDegrees>-28.66099848411977291107177734375</LongitudeDegrees>
            </Position>
            <AltitudeMeters>335.399993896484375</AltitudeMeters>
            <DistanceMeters>22551.693314267</DistanceMeters>
          </Trackpoint>
          <Trackpoint>
            <Time>2020-04-26T17:28:41.000Z</Time>
            <Position>
              <LatitudeDegrees>38.56208556331694126129150390625</LatitudeDegrees>
              <LongitudeDegrees>-28.66098121739923954010009765625</LongitudeDegrees>
            </Position>
            <AltitudeMeters>335.399993896484375</AltitudeMeters>
            <DistanceMeters>22554.333620881</DistanceMeters>
          </Trackpoint>
          <Trackpoint>
            <Time>2020-04-26T17:28:42.000Z</Time>
            <Position>
              <LatitudeDegrees>38.562093190848827362060546875</LatitudeDegrees>
              <LongitudeDegrees>-28.6610007472336292266845703125</LongitudeDegrees>
            </Position>
            <AltitudeMeters>335.600006103515625</AltitudeMeters>
            <DistanceMeters>22556.234155168</DistanceMeters>
          </Trackpoint>
          <Trackpoint>
            <Time>2020-04-26T17:28:45.000Z</Time>
            <Position>
              <LatitudeDegrees>38.562089502811431884765625</LatitudeDegrees>
              <LongitudeDegrees>-28.66105631925165653228759765625</LongitudeDegrees>
            </Position>
            <AltitudeMeters>335.600006103515625</AltitudeMeters>
            <DistanceMeters>22561.088895071</DistanceMeters>
          </Trackpoint>
          <Trackpoint>
            <Time>2020-04-26T17:28:46.000Z</Time>
            <Position>
              <LatitudeDegrees>38.56208388693630695343017578125</LatitudeDegrees>
              <LongitudeDegrees>-28.661084733903408050537109375</LongitudeDegrees>
            </Position>
            <AltitudeMeters>335.600006103515625</AltitudeMeters>
            <DistanceMeters>22563.638729387</DistanceMeters>
          </Trackpoint>
          <Trackpoint>
            <Time>2020-04-26T17:28:49.000Z</Time>
            <Position>
              <LatitudeDegrees>38.56206377036869525909423828125</LatitudeDegrees>
              <LongitudeDegrees>-28.661249689757823944091796875</LongitudeDegrees>
            </Position>
            <AltitudeMeters>334.79998779296875</AltitudeMeters>
            <DistanceMeters>22578.168497354</DistanceMeters>
          </Trackpoint>
          <Trackpoint>
            <Time>2020-04-26T17:28:53.000Z</Time>
            <Position>
              <LatitudeDegrees>38.56193670071661472320556640625</LatitudeDegrees>
              <LongitudeDegrees>-28.6615397036075592041015625</LongitudeDegrees>
            </Position>
            <AltitudeMeters>334.20001220703125</AltitudeMeters>
            <DistanceMeters>22607.100971952</DistanceMeters>
          </Trackpoint>
          <Trackpoint>
            <Time>2020-04-26T17:28:54.000Z</Time>
            <Position>
              <LatitudeDegrees>38.56189043261110782623291015625</LatitudeDegrees>
              <LongitudeDegrees>-28.66160835139453411102294921875</LongitudeDegrees>
            </Position>
            <AltitudeMeters>334</AltitudeMeters>
            <DistanceMeters>22614.988761674</DistanceMeters>
          </Trackpoint>
          <Trackpoint>
            <Time>2020-04-26T17:28:57.000Z</Time>
            <Position>
              <LatitudeDegrees>38.5617195256054401397705078125</LatitudeDegrees>
              <LongitudeDegrees>-28.661779426038265228271484375</LongitudeDegrees>
            </Position>
            <AltitudeMeters>333.20001220703125</AltitudeMeters>
            <DistanceMeters>22639.145180487</DistanceMeters>
          </Trackpoint>
          <Trackpoint>
            <Time>2020-04-26T17:29:00.000Z</Time>
            <Position>
              <LatitudeDegrees>38.56155901215970516204833984375</LatitudeDegrees>
              <LongitudeDegrees>-28.6617514304816722869873046875</LongitudeDegrees>
            </Position>
            <AltitudeMeters>332.399993896484375</AltitudeMeters>
            <DistanceMeters>22657.175732673</DistanceMeters>
          </Trackpoint>
          <Trackpoint>
            <Time>2020-04-26T17:29:02.000Z</Time>
            <Position>
              <LatitudeDegrees>38.56149606406688690185546875</LatitudeDegrees>
              <LongitudeDegrees>-28.6616174876689910888671875</LongitudeDegrees>
            </Position>
            <AltitudeMeters>332</AltitudeMeters>
            <DistanceMeters>22670.776177</DistanceMeters>
          </Trackpoint>
          <Trackpoint>
            <Time>2020-04-26T17:29:03.000Z</Time>
            <Position>
              <LatitudeDegrees>38.56148667633533477783203125</LatitudeDegrees>
              <LongitudeDegrees>-28.661529310047626495361328125</LongitudeDegrees>
            </Position>
            <AltitudeMeters>331.79998779296875</AltitudeMeters>
            <DistanceMeters>22678.521874379</DistanceMeters>
          </Trackpoint>
          <Trackpoint>
            <Time>2020-04-26T17:29:06.000Z</Time>
            <Position>
              <LatitudeDegrees>38.5615160129964351654052734375</LatitudeDegrees>
              <LongitudeDegrees>-28.66124625317752361297607421875</LongitudeDegrees>
            </Position>
            <AltitudeMeters>330.79998779296875</AltitudeMeters>
            <DistanceMeters>22703.372404914</DistanceMeters>
          </Trackpoint>
          <Trackpoint>
            <Time>2020-04-26T17:29:07.000Z</Time>
            <Position>
              <LatitudeDegrees>38.56153788976371288299560546875</LatitudeDegrees>
              <LongitudeDegrees>-28.66115036420524120330810546875</LongitudeDegrees>
            </Position>
            <AltitudeMeters>330</AltitudeMeters>
            <DistanceMeters>22712.066180839</DistanceMeters>
          </Trackpoint>
          <Trackpoint>
            <Time>2020-04-26T17:29:08.000Z</Time>
            <Position>
              <LatitudeDegrees>38.56155716814100742340087890625</LatitudeDegrees>
              <LongitudeDegrees>-28.66105816327035427093505859375</LongitudeDegrees>
            </Position>
            <AltitudeMeters>329.600006103515625</AltitudeMeters>
            <DistanceMeters>22720.37218975</DistanceMeters>
          </Trackpoint>
          <Trackpoint>
            <Time>2020-04-26T17:29:09.000Z</Time>
            <Position>
              <LatitudeDegrees>38.56157259084284305572509765625</LatitudeDegrees>
              <LongitudeDegrees>-28.66096177138388156890869140625</LongitudeDegrees>
            </Position>
            <AltitudeMeters>329.399993896484375</AltitudeMeters>
            <DistanceMeters>22728.935146058</DistanceMeters>
          </Trackpoint>
          <Trackpoint>
            <Time>2020-04-26T17:29:11.000Z</Time>
            <Position>
              <LatitudeDegrees>38.56160695664584636688232421875</LatitudeDegrees>
              <LongitudeDegrees>-28.66076831705868244171142578125</LongitudeDegrees>
            </Position>
            <AltitudeMeters>328.79998779296875</AltitudeMeters>
            <DistanceMeters>22746.200744326</DistanceMeters>
          </Trackpoint>
          <Trackpoint>
            <Time>2020-04-26T17:29:12.000Z</Time>
            <Position>
              <LatitudeDegrees>38.56162623502314090728759765625</LatitudeDegrees>
              <LongitudeDegrees>-28.66067041642963886260986328125</LongitudeDegrees>
            </Position>
            <AltitudeMeters>328.399993896484375</AltitudeMeters>
            <DistanceMeters>22754.988018288</DistanceMeters>
          </Trackpoint>
          <Trackpoint>
            <Time>2020-04-26T17:29:14.000Z</Time>
            <Position>
              <LatitudeDegrees>38.56165833771228790283203125</LatitudeDegrees>
              <LongitudeDegrees>-28.66046606563031673431396484375</LongitudeDegrees>
            </Position>
            <AltitudeMeters>327.399993896484375</AltitudeMeters>
            <DistanceMeters>22773.128416458</DistanceMeters>
          </Trackpoint>
          <Trackpoint>
            <Time>2020-04-26T17:29:16.000Z</Time>
            <Position>
              <LatitudeDegrees>38.56169077567756175994873046875</LatitudeDegrees>
              <LongitudeDegrees>-28.66025132127106189727783203125</LongitudeDegrees>
            </Position>
            <AltitudeMeters>327</AltitudeMeters>
            <DistanceMeters>22792.163194818</DistanceMeters>
          </Trackpoint>
          <Trackpoint>
            <Time>2020-04-26T17:29:19.000Z</Time>
            <Position>
              <LatitudeDegrees>38.56181080453097820281982421875</LatitudeDegrees>
              <LongitudeDegrees>-28.659974299371242523193359375</LongitudeDegrees>
            </Position>
            <AltitudeMeters>326.79998779296875</AltitudeMeters>
            <DistanceMeters>22819.72667576</DistanceMeters>
          </Trackpoint>
          <Trackpoint>
            <Time>2020-04-26T17:29:20.000Z</Time>
            <Position>
              <LatitudeDegrees>38.56184014119207859039306640625</LatitudeDegrees>
              <LongitudeDegrees>-28.659869022667407989501953125</LongitudeDegrees>
            </Position>
            <AltitudeMeters>326.79998779296875</AltitudeMeters>
            <DistanceMeters>22829.453345843</DistanceMeters>
          </Trackpoint>
          <Trackpoint>
            <Time>2020-04-26T17:29:23.000Z</Time>
            <Position>
              <LatitudeDegrees>38.56187693774700164794921875</LatitudeDegrees>
              <LongitudeDegrees>-28.65954791195690631866455078125</LongitudeDegrees>
            </Position>
            <AltitudeMeters>326.20001220703125</AltitudeMeters>
            <DistanceMeters>22857.698348296</DistanceMeters>
          </Trackpoint>
          <Trackpoint>
            <Time>2020-04-26T17:29:25.000Z</Time>
            <Position>
              <LatitudeDegrees>38.56186511926352977752685546875</LatitudeDegrees>
              <LongitudeDegrees>-28.659319840371608734130859375</LongitudeDegrees>
            </Position>
            <AltitudeMeters>325.600006103515625</AltitudeMeters>
            <DistanceMeters>22877.59096024</DistanceMeters>
          </Trackpoint>
          <Trackpoint>
            <Time>2020-04-26T17:29:27.000Z</Time>
            <Position>
              <LatitudeDegrees>38.5618479363620281219482421875</LatitudeDegrees>
              <LongitudeDegrees>-28.65908472798764705657958984375</LongitudeDegrees>
            </Position>
            <AltitudeMeters>325.399993896484375</AltitudeMeters>
            <DistanceMeters>22898.142231135</DistanceMeters>
          </Trackpoint>
          <Trackpoint>
            <Time>2020-04-26T17:29:29.000Z</Time>
            <Position>
              <LatitudeDegrees>38.56181482784450054168701171875</LatitudeDegrees>
              <LongitudeDegrees>-28.6588486097753047943115234375</LongitudeDegrees>
            </Position>
            <AltitudeMeters>324.79998779296875</AltitudeMeters>
            <DistanceMeters>22919.019364553</DistanceMeters>
          </Trackpoint>
          <Trackpoint>
            <Time>2020-04-26T17:29:32.000Z</Time>
            <Position>
              <LatitudeDegrees>38.56174810789525508880615234375</LatitudeDegrees>
              <LongitudeDegrees>-28.6584861762821674346923828125</LongitudeDegrees>
            </Position>
            <AltitudeMeters>323.600006103515625</AltitudeMeters>
            <DistanceMeters>22951.424728147</DistanceMeters>
          </Trackpoint>
          <Trackpoint>
            <Time>2020-04-26T17:29:33.000Z</Time>
            <Position>
              <LatitudeDegrees>38.56171600520610809326171875</LatitudeDegrees>
              <LongitudeDegrees>-28.65836061537265777587890625</LongitudeDegrees>
            </Position>
            <AltitudeMeters>323.20001220703125</AltitudeMeters>
            <DistanceMeters>22962.921782508</DistanceMeters>
          </Trackpoint>
          <Trackpoint>
            <Time>2020-04-26T17:29:35.000Z</Time>
            <Position>
              <LatitudeDegrees>38.56164987199008464813232421875</LatitudeDegrees>
              <LongitudeDegrees>-28.65810371004045009613037109375</LongitudeDegrees>
            </Position>
            <AltitudeMeters>322</AltitudeMeters>
            <DistanceMeters>22986.461186722</DistanceMeters>
          </Trackpoint>
          <Trackpoint>
            <Time>2020-04-26T17:29:37.000Z</Time>
            <Position>
              <LatitudeDegrees>38.5615901090204715728759765625</LatitudeDegrees>
              <LongitudeDegrees>-28.65782593376934528350830078125</LongitudeDegrees>
            </Position>
            <AltitudeMeters>320.399993896484375</AltitudeMeters>
            <DistanceMeters>23011.534557497</DistanceMeters>
          </Trackpoint>
          <Trackpoint>
            <Time>2020-04-26T17:29:38.000Z</Time>
            <Position>
              <LatitudeDegrees>38.56155901215970516204833984375</LatitudeDegrees>
              <LongitudeDegrees>-28.65768260322511196136474609375</LongitudeDegrees>
            </Position>
            <AltitudeMeters>319.79998779296875</AltitudeMeters>
            <DistanceMeters>23024.479833031</DistanceMeters>
          </Trackpoint>
          <Trackpoint>
            <Time>2020-04-26T17:29:39.000Z</Time>
            <Position>
              <LatitudeDegrees>38.56152716092765331268310546875</LatitudeDegrees>
              <LongitudeDegrees>-28.65753650665283203125</LongitudeDegrees>
            </Position>
            <AltitudeMeters>319.20001220703125</AltitudeMeters>
            <DistanceMeters>23037.679655946</DistanceMeters>
          </Trackpoint>
          <Trackpoint>
            <Time>2020-04-26T17:29:41.000Z</Time>
            <Position>
              <LatitudeDegrees>38.561461530625820159912109375</LatitudeDegrees>
              <LongitudeDegrees>-28.657238446176052093505859375</LongitudeDegrees>
            </Position>
            <AltitudeMeters>318.20001220703125</AltitudeMeters>
            <DistanceMeters>23064.628903768</DistanceMeters>
          </Trackpoint>
          <Trackpoint>
            <Time>2020-04-26T17:29:43.000Z</Time>
            <Position>
              <LatitudeDegrees>38.561392128467559814453125</LatitudeDegrees>
              <LongitudeDegrees>-28.65693963132798671722412109375</LongitudeDegrees>
            </Position>
            <AltitudeMeters>316.79998779296875</AltitudeMeters>
            <DistanceMeters>23091.757990566</DistanceMeters>
          </Trackpoint>
          <Trackpoint>
            <Time>2020-04-26T17:29:45.000Z</Time>
            <Position>
              <LatitudeDegrees>38.56132180429995059967041015625</LatitudeDegrees>
              <LongitudeDegrees>-28.65664509125053882598876953125</LongitudeDegrees>
            </Position>
            <AltitudeMeters>315</AltitudeMeters>
            <DistanceMeters>23118.560578154</DistanceMeters>
          </Trackpoint>
          <Trackpoint>
            <Time>2020-04-26T17:29:46.000Z</Time>
            <Position>
              <LatitudeDegrees>38.5613074712455272674560546875</LatitudeDegrees>
              <LongitudeDegrees>-28.656494133174419403076171875</LongitudeDegrees>
            </Position>
            <AltitudeMeters>314.20001220703125</AltitudeMeters>
            <DistanceMeters>23131.795585629</DistanceMeters>
          </Trackpoint>
          <Trackpoint>
            <Time>2020-04-26T17:29:47.000Z</Time>
            <Position>
              <LatitudeDegrees>38.56131711043417453765869140625</LatitudeDegrees>
              <LongitudeDegrees>-28.65633881650865077972412109375</LongitudeDegrees>
            </Position>
            <AltitudeMeters>313.20001220703125</AltitudeMeters>
            <DistanceMeters>23145.356134169</DistanceMeters>
          </Trackpoint>
          <Trackpoint>
            <Time>2020-04-26T17:29:48.000Z</Time>
            <Position>
              <LatitudeDegrees>38.56134678237140178680419921875</LatitudeDegrees>
              <LongitudeDegrees>-28.656183667480945587158203125</LongitudeDegrees>
            </Position>
            <AltitudeMeters>313.20001220703125</AltitudeMeters>
            <DistanceMeters>23159.257019242</DistanceMeters>
          </Trackpoint>
          <Trackpoint>
            <Time>2020-04-26T17:29:50.000Z</Time>
            <Position>
              <LatitudeDegrees>38.5614291764795780181884765625</LatitudeDegrees>
              <LongitudeDegrees>-28.65587462671101093292236328125</LongitudeDegrees>
            </Position>
            <AltitudeMeters>313</AltitudeMeters>
            <DistanceMeters>23187.673820364</DistanceMeters>
          </Trackpoint>
          <Trackpoint>
            <Time>2020-04-26T17:29:52.000Z</Time>
            <Position>
              <LatitudeDegrees>38.56150670908391475677490234375</LatitudeDegrees>
              <LongitudeDegrees>-28.65556265227496623992919921875</LongitudeDegrees>
            </Position>
            <AltitudeMeters>311.600006103515625</AltitudeMeters>
            <DistanceMeters>23216.163773878</DistanceMeters>
          </Trackpoint>
          <Trackpoint>
            <Time>2020-04-26T17:29:55.000Z</Time>
            <Position>
              <LatitudeDegrees>38.56160880066454410552978515625</LatitudeDegrees>
              <LongitudeDegrees>-28.65509142167866230010986328125</LongitudeDegrees>
            </Position>
            <AltitudeMeters>310.399993896484375</AltitudeMeters>
            <DistanceMeters>23258.720679214</DistanceMeters>
          </Trackpoint>
          <Trackpoint>
            <Time>2020-04-26T17:29:56.000Z</Time>
            <Position>
              <LatitudeDegrees>38.56159555725753307342529296875</LatitudeDegrees>
              <LongitudeDegrees>-28.654928393661975860595703125</LongitudeDegrees>
            </Position>
            <AltitudeMeters>309.600006103515625</AltitudeMeters>
            <DistanceMeters>23272.986085018</DistanceMeters>
          </Trackpoint>
          <Trackpoint>
            <Time>2020-04-26T17:29:57.000Z</Time>
            <Position>
              <LatitudeDegrees>38.561562113463878631591796875</LatitudeDegrees>
              <LongitudeDegrees>-28.65476301871240139007568359375</LongitudeDegrees>
            </Position>
            <AltitudeMeters>308.79998779296875</AltitudeMeters>
            <DistanceMeters>23287.852224089</DistanceMeters>
          </Trackpoint>
          <Trackpoint>
            <Time>2020-04-26T17:29:59.000Z</Time>
            <Position>
              <LatitudeDegrees>38.56142557226121425628662109375</LatitudeDegrees>
              <LongitudeDegrees>-28.6544682271778583526611328125</LongitudeDegrees>
            </Position>
            <AltitudeMeters>307.399993896484375</AltitudeMeters>
            <DistanceMeters>23317.671540437</DistanceMeters>
          </Trackpoint>
          <Trackpoint>
            <Time>2020-04-26T17:30:01.000Z</Time>
            <Position>
              <LatitudeDegrees>38.56120412237942218780517578125</LatitudeDegrees>
              <LongitudeDegrees>-28.65426932461559772491455078125</LongitudeDegrees>
            </Position>
            <AltitudeMeters>305.20001220703125</AltitudeMeters>
            <DistanceMeters>23347.790961741</DistanceMeters>
          </Trackpoint>
          <Trackpoint>
            <Time>2020-04-26T17:30:02.000Z</Time>
            <Position>
              <LatitudeDegrees>38.5610955767333507537841796875</LatitudeDegrees>
              <LongitudeDegrees>-28.65416455082595348358154296875</LongitudeDegrees>
            </Position>
            <AltitudeMeters>304.399993896484375</AltitudeMeters>
            <DistanceMeters>23362.927378079</DistanceMeters>
          </Trackpoint>
          <Trackpoint>
            <Time>2020-04-26T17:30:03.000Z</Time>
            <Position>
              <LatitudeDegrees>38.5609923116862773895263671875</LatitudeDegrees>
              <LongitudeDegrees>-28.6540484614670276641845703125</LongitudeDegrees>
            </Position>
            <AltitudeMeters>303.399993896484375</AltitudeMeters>
            <DistanceMeters>23378.230515093</DistanceMeters>
          </Trackpoint>
          <Trackpoint>
            <Time>2020-04-26T17:30:05.000Z</Time>
            <Position>
              <LatitudeDegrees>38.5608087480068206787109375</LatitudeDegrees>
              <LongitudeDegrees>-28.65380362607538700103759765625</LongitudeDegrees>
            </Position>
            <AltitudeMeters>301.600006103515625</AltitudeMeters>
            <DistanceMeters>23407.751264025</DistanceMeters>
          </Trackpoint>
          <Trackpoint>
            <Time>2020-04-26T17:30:06.000Z</Time>
            <Position>
              <LatitudeDegrees>38.56072685681283473968505859375</LatitudeDegrees>
              <LongitudeDegrees>-28.65367236547172069549560546875</LongitudeDegrees>
            </Position>
            <AltitudeMeters>300.399993896484375</AltitudeMeters>
            <DistanceMeters>23422.365618887</DistanceMeters>
          </Trackpoint>
          <Trackpoint>
            <Time>2020-04-26T17:30:07.000Z</Time>
            <Position>
              <LatitudeDegrees>38.56065276078879833221435546875</LatitudeDegrees>
              <LongitudeDegrees>-28.65352769382297992706298828125</LongitudeDegrees>
            </Position>
            <AltitudeMeters>299.20001220703125</AltitudeMeters>
            <DistanceMeters>23437.417082531</DistanceMeters>
          </Trackpoint>
          <Trackpoint>
            <Time>2020-04-26T17:30:08.000Z</Time>
            <Position>
              <LatitudeDegrees>38.560591824352741241455078125</LatitudeDegrees>
              <LongitudeDegrees>-28.653372041881084442138671875</LongitudeDegrees>
            </Position>
            <AltitudeMeters>298.20001220703125</AltitudeMeters>
            <DistanceMeters>23452.567213985</DistanceMeters>
          </Trackpoint>
          <Trackpoint>
            <Time>2020-04-26T17:30:10.000Z</Time>
            <Position>
              <LatitudeDegrees>38.5604870505630970001220703125</LatitudeDegrees>
              <LongitudeDegrees>-28.6530456505715847015380859375</LongitudeDegrees>
            </Position>
            <AltitudeMeters>296.399993896484375</AltitudeMeters>
            <DistanceMeters>23483.274519995</DistanceMeters>
          </Trackpoint>
          <Trackpoint>
            <Time>2020-04-26T17:30:12.000Z</Time>
            <Position>
              <LatitudeDegrees>38.5603998787701129913330078125</LatitudeDegrees>
              <LongitudeDegrees>-28.6527103744447231292724609375</LongitudeDegrees>
            </Position>
            <AltitudeMeters>294.79998779296875</AltitudeMeters>
            <DistanceMeters>23514.025317466</DistanceMeters>
          </Trackpoint>
          <Trackpoint>
            <Time>2020-04-26T17:30:13.000Z</Time>
            <Position>
              <LatitudeDegrees>38.56037330813705921173095703125</LatitudeDegrees>
              <LongitudeDegrees>-28.6525350250303745269775390625</LongitudeDegrees>
            </Position>
            <AltitudeMeters>294</AltitudeMeters>
            <DistanceMeters>23529.570247367</DistanceMeters>
          </Trackpoint>
          <Trackpoint>
            <Time>2020-04-26T17:30:14.000Z</Time>
            <Position>
              <LatitudeDegrees>38.5603589750826358795166015625</LatitudeDegrees>
              <LongitudeDegrees>-28.6523583345115184783935546875</LongitudeDegrees>
            </Position>
            <AltitudeMeters>293.600006103515625</AltitudeMeters>
            <DistanceMeters>23545.030717071</DistanceMeters>
          </Trackpoint>
          <Trackpoint>
            <Time>2020-04-26T17:30:15.000Z</Time>
            <Position>
              <LatitudeDegrees>38.56034665368497371673583984375</LatitudeDegrees>
              <LongitudeDegrees>-28.65218910388648509979248046875</LongitudeDegrees>
            </Position>
            <AltitudeMeters>293.20001220703125</AltitudeMeters>
            <DistanceMeters>23559.823175027</DistanceMeters>
          </Trackpoint>
          <Trackpoint>
            <Time>2020-04-26T17:30:17.000Z</Time>
            <Position>
              <LatitudeDegrees>38.56031312607228755950927734375</LatitudeDegrees>
              <LongitudeDegrees>-28.6518527381122112274169921875</LongitudeDegrees>
            </Position>
            <AltitudeMeters>291.79998779296875</AltitudeMeters>
            <DistanceMeters>23589.33505184</DistanceMeters>
          </Trackpoint>
          <Trackpoint>
            <Time>2020-04-26T17:30:19.000Z</Time>
            <Position>
              <LatitudeDegrees>38.56024975888431072235107421875</LatitudeDegrees>
              <LongitudeDegrees>-28.65152408368885517120361328125</LongitudeDegrees>
            </Position>
            <AltitudeMeters>290.399993896484375</AltitudeMeters>
            <DistanceMeters>23618.795478981</DistanceMeters>
          </Trackpoint>
          <Trackpoint>
            <Time>2020-04-26T17:30:20.000Z</Time>
            <Position>
              <LatitudeDegrees>38.56021556071937084197998046875</LatitudeDegrees>
              <LongitudeDegrees>-28.65136214531958103179931640625</LongitudeDegrees>
            </Position>
            <AltitudeMeters>290</AltitudeMeters>
            <DistanceMeters>23633.3943784</DistanceMeters>
          </Trackpoint>
          <Trackpoint>
            <Time>2020-04-26T17:30:22.000Z</Time>
            <Position>
              <LatitudeDegrees>38.56017105281352996826171875</LatitudeDegrees>
              <LongitudeDegrees>-28.65103508345782756805419921875</LongitudeDegrees>
            </Position>
            <AltitudeMeters>289</AltitudeMeters>
            <DistanceMeters>23662.287500541</DistanceMeters>
          </Trackpoint>
          <Trackpoint>
            <Time>2020-04-26T17:30:24.000Z</Time>
            <Position>
              <LatitudeDegrees>38.56011514551937580108642578125</LatitudeDegrees>
              <LongitudeDegrees>-28.65071103908121585845947265625</LongitudeDegrees>
            </Position>
            <AltitudeMeters>287.79998779296875</AltitudeMeters>
            <DistanceMeters>23691.168431294</DistanceMeters>
          </Trackpoint>
          <Trackpoint>
            <Time>2020-04-26T17:30:25.000Z</Time>
            <Position>
              <LatitudeDegrees>38.56007340364158153533935546875</LatitudeDegrees>
              <LongitudeDegrees>-28.6505558900535106658935546875</LongitudeDegrees>
            </Position>
            <AltitudeMeters>286.399993896484375</AltitudeMeters>
            <DistanceMeters>23705.448388796</DistanceMeters>
          </Trackpoint>
          <Trackpoint>
            <Time>2020-04-26T17:30:27.000Z</Time>
            <Position>
              <LatitudeDegrees>38.5599851422011852264404296875</LatitudeDegrees>
              <LongitudeDegrees>-28.6502544768154621124267578125</LongitudeDegrees>
            </Position>
            <AltitudeMeters>285.20001220703125</AltitudeMeters>
            <DistanceMeters>23733.460484802</DistanceMeters>
          </Trackpoint>
          <Trackpoint>
            <Time>2020-04-26T17:30:28.000Z</Time>
            <Position>
              <LatitudeDegrees>38.55993568897247314453125</LatitudeDegrees>
              <LongitudeDegrees>-28.65010871551930904388427734375</LongitudeDegrees>
            </Position>
            <AltitudeMeters>284.79998779296875</AltitudeMeters>
            <DistanceMeters>23747.288749291</DistanceMeters>
          </Trackpoint>
          <Trackpoint>
            <Time>2020-04-26T17:30:29.000Z</Time>
            <Position>
              <LatitudeDegrees>38.55986419133841991424560546875</LatitudeDegrees>
              <LongitudeDegrees>-28.649977035820484161376953125</LongitudeDegrees>
            </Position>
            <AltitudeMeters>284.20001220703125</AltitudeMeters>
            <DistanceMeters>23761.24118234</DistanceMeters>
          </Trackpoint>
          <Trackpoint>
            <Time>2020-04-26T17:30:31.000Z</Time>
            <Position>
              <LatitudeDegrees>38.559662438929080963134765625</LatitudeDegrees>
              <LongitudeDegrees>-28.649771846830844879150390625</LongitudeDegrees>
            </Position>
            <AltitudeMeters>283</AltitudeMeters>
            <DistanceMeters>23789.931854664</DistanceMeters>
          </Trackpoint>
          <Trackpoint>
            <Time>2020-04-26T17:30:33.000Z</Time>
            <Position>
              <LatitudeDegrees>38.559439480304718017578125</LatitudeDegrees>
              <LongitudeDegrees>-28.649599514901638031005859375</LongitudeDegrees>
            </Position>
            <AltitudeMeters>282.399993896484375</AltitudeMeters>
            <DistanceMeters>23818.927929529</DistanceMeters>
          </Trackpoint>
          <Trackpoint>
            <Time>2020-04-26T17:30:34.000Z</Time>
            <Position>
              <LatitudeDegrees>38.55932255275547504425048828125</LatitudeDegrees>
              <LongitudeDegrees>-28.649518378078937530517578125</LongitudeDegrees>
            </Position>
            <AltitudeMeters>281.79998779296875</AltitudeMeters>
            <DistanceMeters>23833.73442121</DistanceMeters>
          </Trackpoint>
          <Trackpoint>
            <Time>2020-04-26T17:30:35.000Z</Time>
            <Position>
              <LatitudeDegrees>38.55920688249170780181884765625</LatitudeDegrees>
              <LongitudeDegrees>-28.64942844025790691375732421875</LongitudeDegrees>
            </Position>
            <AltitudeMeters>281.20001220703125</AltitudeMeters>
            <DistanceMeters>23848.801475394</DistanceMeters>
          </Trackpoint>
          <Trackpoint>
            <Time>2020-04-26T17:30:36.000Z</Time>
            <Position>
              <LatitudeDegrees>38.55908811092376708984375</LatitudeDegrees>
              <LongitudeDegrees>-28.6493421904742717742919921875</LongitudeDegrees>
            </Position>
            <AltitudeMeters>280.600006103515625</AltitudeMeters>
            <DistanceMeters>23864.00337384</DistanceMeters>
          </Trackpoint>
          <Trackpoint>
            <Time>2020-04-26T17:30:38.000Z</Time>
            <Position>
              <LatitudeDegrees>38.55887680314481258392333984375</LatitudeDegrees>
              <LongitudeDegrees>-28.64916726015508174896240234375</LongitudeDegrees>
            </Position>
            <AltitudeMeters>279</AltitudeMeters>
            <DistanceMeters>23892.020304881</DistanceMeters>
          </Trackpoint>
          <Trackpoint>
            <Time>2020-04-26T17:30:39.000Z</Time>
            <Position>
              <LatitudeDegrees>38.55878661386668682098388671875</LatitudeDegrees>
              <LongitudeDegrees>-28.6490686051547527313232421875</LongitudeDegrees>
            </Position>
            <AltitudeMeters>278.20001220703125</AltitudeMeters>
            <DistanceMeters>23905.230043607</DistanceMeters>
          </Trackpoint>
          <Trackpoint>
            <Time>2020-04-26T17:30:40.000Z</Time>
            <Position>
              <LatitudeDegrees>38.55873146094381809234619140625</LatitudeDegrees>
              <LongitudeDegrees>-28.64892887882888317108154296875</LongitudeDegrees>
            </Position>
            <AltitudeMeters>277.79998779296875</AltitudeMeters>
            <DistanceMeters>23918.853043683</DistanceMeters>
          </Trackpoint>
          <Trackpoint>
            <Time>2020-04-26T17:30:42.000Z</Time>
            <Position>
              <LatitudeDegrees>38.55873950757086277008056640625</LatitudeDegrees>
              <LongitudeDegrees>-28.6486136354506015777587890625</LongitudeDegrees>
            </Position>
            <AltitudeMeters>276.20001220703125</AltitudeMeters>
            <DistanceMeters>23946.304746719</DistanceMeters>
          </Trackpoint>
          <Trackpoint>
            <Time>2020-04-26T17:30:44.000Z</Time>
            <Position>
              <LatitudeDegrees>38.55883757583796977996826171875</LatitudeDegrees>
              <LongitudeDegrees>-28.64831532351672649383544921875</LongitudeDegrees>
            </Position>
            <AltitudeMeters>274.79998779296875</AltitudeMeters>
            <DistanceMeters>23974.469388829</DistanceMeters>
          </Trackpoint>
          <Trackpoint>
            <Time>2020-04-26T17:30:45.000Z</Time>
            <Position>
              <LatitudeDegrees>38.55889222584664821624755859375</LatitudeDegrees>
              <LongitudeDegrees>-28.64816847257316112518310546875</LongitudeDegrees>
            </Position>
            <AltitudeMeters>274.399993896484375</AltitudeMeters>
            <DistanceMeters>23988.624223203</DistanceMeters>
          </Trackpoint>
          <Trackpoint>
            <Time>2020-04-26T17:30:46.000Z</Time>
            <Position>
              <LatitudeDegrees>38.55894528329372406005859375</LatitudeDegrees>
              <LongitudeDegrees>-28.6480186879634857177734375</LongitudeDegrees>
            </Position>
            <AltitudeMeters>273.79998779296875</AltitudeMeters>
            <DistanceMeters>24002.936394738</DistanceMeters>
          </Trackpoint>
          <Trackpoint>
            <Time>2020-04-26T17:30:48.000Z</Time>
            <Position>
              <LatitudeDegrees>38.55903237126767635345458984375</LatitudeDegrees>
              <LongitudeDegrees>-28.6477063782513141632080078125</LongitudeDegrees>
            </Position>
            <AltitudeMeters>272.399993896484375</AltitudeMeters>
            <DistanceMeters>24031.794491868</DistanceMeters>
          </Trackpoint>
          <Trackpoint>
            <Time>2020-04-26T17:30:49.000Z</Time>
            <Position>
              <LatitudeDegrees>38.55904444120824337005615234375</LatitudeDegrees>
              <LongitudeDegrees>-28.64753924310207366943359375</LongitudeDegrees>
            </Position>
            <AltitudeMeters>270.79998779296875</AltitudeMeters>
            <DistanceMeters>24046.402666515</DistanceMeters>
          </Trackpoint>
          <Trackpoint>
            <Time>2020-04-26T17:30:50.000Z</Time>
            <Position>
              <LatitudeDegrees>38.55904159136116504669189453125</LatitudeDegrees>
              <LongitudeDegrees>-28.64737160503864288330078125</LongitudeDegrees>
            </Position>
            <AltitudeMeters>269.79998779296875</AltitudeMeters>
            <DistanceMeters>24060.996307354</DistanceMeters>
          </Trackpoint>
          <Trackpoint>
            <Time>2020-04-26T17:30:51.000Z</Time>
            <Position>
              <LatitudeDegrees>38.55902298353612422943115234375</LatitudeDegrees>
              <LongitudeDegrees>-28.647206984460353851318359375</LongitudeDegrees>
            </Position>
            <AltitudeMeters>269</AltitudeMeters>
            <DistanceMeters>24075.472840576</DistanceMeters>
          </Trackpoint>
          <Trackpoint>
            <Time>2020-04-26T17:30:53.000Z</Time>
            <Position>
              <LatitudeDegrees>38.55896129272878170013427734375</LatitudeDegrees>
              <LongitudeDegrees>-28.64687933586537837982177734375</LongitudeDegrees>
            </Position>
            <AltitudeMeters>268</AltitudeMeters>
            <DistanceMeters>24104.804556572</DistanceMeters>
          </Trackpoint>
          <Trackpoint>
            <Time>2020-04-26T17:30:54.000Z</Time>
            <Position>
              <LatitudeDegrees>38.558931536972522735595703125</LatitudeDegrees>
              <LongitudeDegrees>-28.64671790041029453277587890625</LongitudeDegrees>
            </Position>
            <AltitudeMeters>267.399993896484375</AltitudeMeters>
            <DistanceMeters>24119.240487583</DistanceMeters>
          </Trackpoint>
          <Trackpoint>
            <Time>2020-04-26T17:30:55.000Z</Time>
            <Position>
              <LatitudeDegrees>38.55890127830207347869873046875</LatitudeDegrees>
              <LongitudeDegrees>-28.6465500108897686004638671875</LongitudeDegrees>
            </Position>
            <AltitudeMeters>266.79998779296875</AltitudeMeters>
            <DistanceMeters>24134.235751287</DistanceMeters>
          </Trackpoint>
          <Trackpoint>
            <Time>2020-04-26T17:30:57.000Z</Time>
            <Position>
              <LatitudeDegrees>38.5588462091982364654541015625</LatitudeDegrees>
              <LongitudeDegrees>-28.64621481858193874359130859375</LongitudeDegrees>
            </Position>
            <AltitudeMeters>265.20001220703125</AltitudeMeters>
            <DistanceMeters>24164.045981458</DistanceMeters>
          </Trackpoint>
          <Trackpoint>
            <Time>2020-04-26T17:30:59.000Z</Time>
            <Position>
              <LatitudeDegrees>38.55881712399423122406005859375</LatitudeDegrees>
              <LongitudeDegrees>-28.64588708616793155670166015625</LongitudeDegrees>
            </Position>
            <AltitudeMeters>264</AltitudeMeters>
            <DistanceMeters>24192.75301555</DistanceMeters>
          </Trackpoint>
          <Trackpoint>
            <Time>2020-04-26T17:31:01.000Z</Time>
            <Position>
              <LatitudeDegrees>38.55885953642427921295166015625</LatitudeDegrees>
              <LongitudeDegrees>-28.64557678811252117156982421875</LongitudeDegrees>
            </Position>
            <AltitudeMeters>262.399993896484375</AltitudeMeters>
            <DistanceMeters>24220.169169602</DistanceMeters>
          </Trackpoint>
          <Trackpoint>
            <Time>2020-04-26T17:31:02.000Z</Time>
            <Position>
              <LatitudeDegrees>38.55891888029873371124267578125</LatitudeDegrees>
              <LongitudeDegrees>-28.64543295465409755706787109375</LongitudeDegrees>
            </Position>
            <AltitudeMeters>261.79998779296875</AltitudeMeters>
            <DistanceMeters>24234.323366011</DistanceMeters>
          </Trackpoint>
          <Trackpoint>
            <Time>2020-04-26T17:31:03.000Z</Time>
            <Position>
              <LatitudeDegrees>38.55898417532444000244140625</LatitudeDegrees>
              <LongitudeDegrees>-28.6453001014888286590576171875</LongitudeDegrees>
            </Position>
            <AltitudeMeters>261.399993896484375</AltitudeMeters>
            <DistanceMeters>24247.980460466</DistanceMeters>
          </Trackpoint>
          <Trackpoint>
            <Time>2020-04-26T17:31:04.000Z</Time>
            <Position>
              <LatitudeDegrees>38.5590492188930511474609375</LatitudeDegrees>
              <LongitudeDegrees>-28.64517085254192352294921875</LongitudeDegrees>
            </Position>
            <AltitudeMeters>261</AltitudeMeters>
            <DistanceMeters>24261.357980975</DistanceMeters>
          </Trackpoint>
          <Trackpoint>
            <Time>2020-04-26T17:31:06.000Z</Time>
            <Position>
              <LatitudeDegrees>38.5591752827167510986328125</LatitudeDegrees>
              <LongitudeDegrees>-28.64488963969051837921142578125</LongitudeDegrees>
            </Position>
            <AltitudeMeters>260</AltitudeMeters>
            <DistanceMeters>24289.569874527</DistanceMeters>
          </Trackpoint>
          <Trackpoint>
            <Time>2020-04-26T17:31:08.000Z</Time>
            <Position>
              <LatitudeDegrees>38.55931350030004978179931640625</LatitudeDegrees>
              <LongitudeDegrees>-28.644621334969997406005859375</LongitudeDegrees>
            </Position>
            <AltitudeMeters>258.600006103515625</AltitudeMeters>
            <DistanceMeters>24317.533412745</DistanceMeters>
          </Trackpoint>
          <Trackpoint>
            <Time>2020-04-26T17:31:09.000Z</Time>
            <Position>
              <LatitudeDegrees>38.5594118200242519378662109375</LatitudeDegrees>
              <LongitudeDegrees>-28.6445184051990509033203125</LongitudeDegrees>
            </Position>
            <AltitudeMeters>258</AltitudeMeters>
            <DistanceMeters>24331.675482363</DistanceMeters>
          </Trackpoint>
          <Trackpoint>
            <Time>2020-04-26T17:31:10.000Z</Time>
            <Position>
              <LatitudeDegrees>38.55951282195746898651123046875</LatitudeDegrees>
              <LongitudeDegrees>-28.6444196663796901702880859375</LongitudeDegrees>
            </Position>
            <AltitudeMeters>257.399993896484375</AltitudeMeters>
            <DistanceMeters>24345.825850382</DistanceMeters>
          </Trackpoint>
          <Trackpoint>
            <Time>2020-04-26T17:31:12.000Z</Time>
            <Position>
              <LatitudeDegrees>38.5596642829477787017822265625</LatitudeDegrees>
              <LongitudeDegrees>-28.64415639080107212066650390625</LongitudeDegrees>
            </Position>
            <AltitudeMeters>255.600006103515625</AltitudeMeters>
            <DistanceMeters>24374.272982585</DistanceMeters>
          </Trackpoint>
          <Trackpoint>
            <Time>2020-04-26T17:31:13.000Z</Time>
            <Position>
              <LatitudeDegrees>38.5596991516649723052978515625</LatitudeDegrees>
              <LongitudeDegrees>-28.643991686403751373291015625</LongitudeDegrees>
            </Position>
            <AltitudeMeters>254.399993896484375</AltitudeMeters>
            <DistanceMeters>24389.124232268</DistanceMeters>
          </Trackpoint>
          <Trackpoint>
            <Time>2020-04-26T17:31:15.000Z</Time>
            <Position>
              <LatitudeDegrees>38.55968448333442211151123046875</LatitudeDegrees>
              <LongitudeDegrees>-28.64365230314433574676513671875</LongitudeDegrees>
            </Position>
            <AltitudeMeters>252.8000030517578125</AltitudeMeters>
            <DistanceMeters>24418.707011524</DistanceMeters>
          </Trackpoint>
          <Trackpoint>
            <Time>2020-04-26T17:31:17.000Z</Time>
            <Position>
              <LatitudeDegrees>38.5595670528709888458251953125</LatitudeDegrees>
              <LongitudeDegrees>-28.64333865232765674591064453125</LongitudeDegrees>
            </Position>
            <AltitudeMeters>251.399993896484375</AltitudeMeters>
            <DistanceMeters>24448.972982756</DistanceMeters>
          </Trackpoint>
          <Trackpoint>
            <Time>2020-04-26T17:31:18.000Z</Time>
            <Position>
              <LatitudeDegrees>38.559501171112060546875</LatitudeDegrees>
              <LongitudeDegrees>-28.643193058669567108154296875</LongitudeDegrees>
            </Position>
            <AltitudeMeters>251</AltitudeMeters>
            <DistanceMeters>24463.613266034</DistanceMeters>
          </Trackpoint>
          <Trackpoint>
            <Time>2020-04-26T17:31:19.000Z</Time>
            <Position>
              <LatitudeDegrees>38.55943805538117885589599609375</LatitudeDegrees>
              <LongitudeDegrees>-28.64304679445922374725341796875</LongitudeDegrees>
            </Position>
            <AltitudeMeters>250.1999969482421875</AltitudeMeters>
            <DistanceMeters>24478.153284938</DistanceMeters>
          </Trackpoint>
          <Trackpoint>
            <Time>2020-04-26T17:31:21.000Z</Time>
            <Position>
              <LatitudeDegrees>38.55931182391941547393798828125</LatitudeDegrees>
              <LongitudeDegrees>-28.64275443367660045623779296875</LongitudeDegrees>
            </Position>
            <AltitudeMeters>248.600006103515625</AltitudeMeters>
            <DistanceMeters>24507.219656436</DistanceMeters>
          </Trackpoint>
          <Trackpoint>
            <Time>2020-04-26T17:31:23.000Z</Time>
            <Position>
              <LatitudeDegrees>38.55918844230473041534423828125</LatitudeDegrees>
              <LongitudeDegrees>-28.64246257580816745758056640625</LongitudeDegrees>
            </Position>
            <AltitudeMeters>246.600006103515625</AltitudeMeters>
            <DistanceMeters>24536.095740464</DistanceMeters>
          </Trackpoint>
          <Trackpoint>
            <Time>2020-04-26T17:31:25.000Z</Time>
            <Position>
              <LatitudeDegrees>38.55905936099588871002197265625</LatitudeDegrees>
              <LongitudeDegrees>-28.642172478139400482177734375</LongitudeDegrees>
            </Position>
            <AltitudeMeters>245.399993896484375</AltitudeMeters>
            <DistanceMeters>24565.145330888</DistanceMeters>
          </Trackpoint>
          <Trackpoint>
            <Time>2020-04-26T17:31:26.000Z</Time>
            <Position>
              <LatitudeDegrees>38.5590138472616672515869140625</LatitudeDegrees>
              <LongitudeDegrees>-28.642011545598506927490234375</LongitudeDegrees>
            </Position>
            <AltitudeMeters>245.1999969482421875</AltitudeMeters>
            <DistanceMeters>24580.039688478</DistanceMeters>
          </Trackpoint>
          <Trackpoint>
            <Time>2020-04-26T17:31:27.000Z</Time>
            <Position>
              <LatitudeDegrees>38.55897000990808010101318359375</LatitudeDegrees>
              <LongitudeDegrees>-28.6418496072292327880859375</LongitudeDegrees>
            </Position>
            <AltitudeMeters>244.399993896484375</AltitudeMeters>
            <DistanceMeters>24594.95434245</DistanceMeters>
          </Trackpoint>
          <Trackpoint>
            <Time>2020-04-26T17:31:29.000Z</Time>
            <Position>
              <LatitudeDegrees>38.5588901303708553314208984375</LatitudeDegrees>
              <LongitudeDegrees>-28.64152346737682819366455078125</LongitudeDegrees>
            </Position>
            <AltitudeMeters>243</AltitudeMeters>
            <DistanceMeters>24624.6993738</DistanceMeters>
          </Trackpoint>
          <Trackpoint>
            <Time>2020-04-26T17:31:31.000Z</Time>
            <Position>
              <LatitudeDegrees>38.55884612537920475006103515625</LatitudeDegrees>
              <LongitudeDegrees>-28.64118047989904880523681640625</LongitudeDegrees>
            </Position>
            <AltitudeMeters>242.1999969482421875</AltitudeMeters>
            <DistanceMeters>24654.950423484</DistanceMeters>
          </Trackpoint>
          <Trackpoint>
            <Time>2020-04-26T17:31:32.000Z</Time>
            <Position>
              <LatitudeDegrees>38.5588354803621768951416015625</LatitudeDegrees>
              <LongitudeDegrees>-28.64100965671241283416748046875</LongitudeDegrees>
            </Position>
            <AltitudeMeters>241.8000030517578125</AltitudeMeters>
            <DistanceMeters>24669.865077456</DistanceMeters>
          </Trackpoint>
          <Trackpoint>
            <Time>2020-04-26T17:31:34.000Z</Time>
            <Position>
              <LatitudeDegrees>38.5588116757571697235107421875</LatitudeDegrees>
              <LongitudeDegrees>-28.64067010581493377685546875</LongitudeDegrees>
            </Position>
            <AltitudeMeters>240.399993896484375</AltitudeMeters>
            <DistanceMeters>24699.536246507</DistanceMeters>
          </Trackpoint>
          <Trackpoint>
            <Time>2020-04-26T17:31:35.000Z</Time>
            <Position>
              <LatitudeDegrees>38.5587694309651851654052734375</LatitudeDegrees>
              <LongitudeDegrees>-28.64050825126469135284423828125</LongitudeDegrees>
            </Position>
            <AltitudeMeters>239.600006103515625</AltitudeMeters>
            <DistanceMeters>24714.387192169</DistanceMeters>
          </Trackpoint>
          <Trackpoint>
            <Time>2020-04-26T17:31:36.000Z</Time>
            <Position>
              <LatitudeDegrees>38.55869810096919536590576171875</LatitudeDegrees>
              <LongitudeDegrees>-28.640362322330474853515625</LongitudeDegrees>
            </Position>
            <AltitudeMeters>238.600006103515625</AltitudeMeters>
            <DistanceMeters>24729.365283475</DistanceMeters>
          </Trackpoint>
          <Trackpoint>
            <Time>2020-04-26T17:31:37.000Z</Time>
            <Position>
              <LatitudeDegrees>38.558602631092071533203125</LatitudeDegrees>
              <LongitudeDegrees>-28.64023701287806034088134765625</LongitudeDegrees>
            </Position>
            <AltitudeMeters>237.1999969482421875</AltitudeMeters>
            <DistanceMeters>24744.59240641</DistanceMeters>
          </Trackpoint>
          <Trackpoint>
            <Time>2020-04-26T17:31:38.000Z</Time>
            <Position>
              <LatitudeDegrees>38.55849073268473148345947265625</LatitudeDegrees>
              <LongitudeDegrees>-28.64013441838324069976806640625</LongitudeDegrees>
            </Position>
            <AltitudeMeters>236.600006103515625</AltitudeMeters>
            <DistanceMeters>24759.917360835</DistanceMeters>
          </Trackpoint>
          <Trackpoint>
            <Time>2020-04-26T17:31:39.000Z</Time>
            <Position>
              <LatitudeDegrees>38.558377325534820556640625</LatitudeDegrees>
              <LongitudeDegrees>-28.64004473201930522918701171875</LongitudeDegrees>
            </Position>
            <AltitudeMeters>236</AltitudeMeters>
            <DistanceMeters>24774.758574553</DistanceMeters>
          </Trackpoint>
          <Trackpoint>
            <Time>2020-04-26T17:31:41.000Z</Time>
            <Position>
              <LatitudeDegrees>38.558189235627651214599609375</LatitudeDegrees>
              <LongitudeDegrees>-28.63980718888342380523681640625</LongitudeDegrees>
            </Position>
            <AltitudeMeters>235</AltitudeMeters>
            <DistanceMeters>24804.181583045</DistanceMeters>
          </Trackpoint>
          <Trackpoint>
            <Time>2020-04-26T17:31:43.000Z</Time>
            <Position>
              <LatitudeDegrees>38.558049760758876800537109375</LatitudeDegrees>
              <LongitudeDegrees>-28.63951885141432285308837890625</LongitudeDegrees>
            </Position>
            <AltitudeMeters>233.399993896484375</AltitudeMeters>
            <DistanceMeters>24833.690705899</DistanceMeters>
          </Trackpoint>
          <Trackpoint>
            <Time>2020-04-26T17:31:44.000Z</Time>
            <Position>
              <LatitudeDegrees>38.55798496864736080169677734375</LatitudeDegrees>
              <LongitudeDegrees>-28.639372251927852630615234375</LongitudeDegrees>
            </Position>
            <AltitudeMeters>232.600006103515625</AltitudeMeters>
            <DistanceMeters>24848.347017115</DistanceMeters>
          </Trackpoint>
          <Trackpoint>
            <Time>2020-04-26T17:31:45.000Z</Time>
            <Position>
              <LatitudeDegrees>38.557922355830669403076171875</LatitudeDegrees>
              <LongitudeDegrees>-28.63922632299363613128662109375</LongitudeDegrees>
            </Position>
            <AltitudeMeters>232.1999969482421875</AltitudeMeters>
            <DistanceMeters>24862.834150603</DistanceMeters>
          </Trackpoint>
          <Trackpoint>
            <Time>2020-04-26T17:31:47.000Z</Time>
            <Position>
              <LatitudeDegrees>38.55782621540129184722900390625</LatitudeDegrees>
              <LongitudeDegrees>-28.63891032524406909942626953125</LongitudeDegrees>
            </Position>
            <AltitudeMeters>231.1999969482421875</AltitudeMeters>
            <DistanceMeters>24892.345415448</DistanceMeters>
          </Trackpoint>
          <Trackpoint>
            <Time>2020-04-26T17:31:48.000Z</Time>
            <Position>
              <LatitudeDegrees>38.55778279714286327362060546875</LatitudeDegrees>
              <LongitudeDegrees>-28.63874922506511211395263671875</LongitudeDegrees>
            </Position>
            <AltitudeMeters>230.1999969482421875</AltitudeMeters>
            <DistanceMeters>24907.176281977</DistanceMeters>
          </Trackpoint>
          <Trackpoint>
            <Time>2020-04-26T17:31:50.000Z</Time>
            <Position>
              <LatitudeDegrees>38.55769294314086437225341796875</LatitudeDegrees>
              <LongitudeDegrees>-28.63842601887881755828857421875</LongitudeDegrees>
            </Position>
            <AltitudeMeters>229</AltitudeMeters>
            <DistanceMeters>24937.031764149</DistanceMeters>
          </Trackpoint>
          <Trackpoint>
            <Time>2020-04-26T17:31:52.000Z</Time>
            <Position>
              <LatitudeDegrees>38.55759956873953342437744140625</LatitudeDegrees>
              <LongitudeDegrees>-28.63810767419636249542236328125</LongitudeDegrees>
            </Position>
            <AltitudeMeters>227.1999969482421875</AltitudeMeters>
            <DistanceMeters>24966.624157146</DistanceMeters>
          </Trackpoint>
          <Trackpoint>
            <Time>2020-04-26T17:31:53.000Z</Time>
            <Position>
              <LatitudeDegrees>38.55754743330180644989013671875</LatitudeDegrees>
              <LongitudeDegrees>-28.637952692806720733642578125</LongitudeDegrees>
            </Position>
            <AltitudeMeters>226.1999969482421875</AltitudeMeters>
            <DistanceMeters>24981.308167679</DistanceMeters>
          </Trackpoint>
          <Trackpoint>
            <Time>2020-04-26T17:31:55.000Z</Time>
            <Position>
              <LatitudeDegrees>38.5574383847415447235107421875</LatitudeDegrees>
              <LongitudeDegrees>-28.63764566369354724884033203125</LongitudeDegrees>
            </Position>
            <AltitudeMeters>224.600006103515625</AltitudeMeters>
            <DistanceMeters>25010.657887988</DistanceMeters>
          </Trackpoint>
          <Trackpoint>
            <Time>2020-04-26T17:31:56.000Z</Time>
            <Position>
              <LatitudeDegrees>38.55738063342869281768798828125</LatitudeDegrees>
              <LongitudeDegrees>-28.6374963819980621337890625</LongitudeDegrees>
            </Position>
            <AltitudeMeters>224.1999969482421875</AltitudeMeters>
            <DistanceMeters>25025.153745288</DistanceMeters>
          </Trackpoint>
          <Trackpoint>
            <Time>2020-04-26T17:31:57.000Z</Time>
            <Position>
              <LatitudeDegrees>38.55731986463069915771484375</LatitudeDegrees>
              <LongitudeDegrees>-28.6373483575880527496337890625</LongitudeDegrees>
            </Position>
            <AltitudeMeters>223.1999969482421875</AltitudeMeters>
            <DistanceMeters>25039.704938794</DistanceMeters>
          </Trackpoint>
          <Trackpoint>
            <Time>2020-04-26T17:31:58.000Z</Time>
            <Position>
              <LatitudeDegrees>38.5572586767375469207763671875</LatitudeDegrees>
              <LongitudeDegrees>-28.63720066845417022705078125</LongitudeDegrees>
            </Position>
            <AltitudeMeters>221.8000030517578125</AltitudeMeters>
            <DistanceMeters>25054.251787642</DistanceMeters>
          </Trackpoint>
          <Trackpoint>
            <Time>2020-04-26T17:32:01.000Z</Time>
            <Position>
              <LatitudeDegrees>38.5570782981812953948974609375</LatitudeDegrees>
              <LongitudeDegrees>-28.63676053471863269805908203125</LongitudeDegrees>
            </Position>
            <AltitudeMeters>220.600006103515625</AltitudeMeters>
            <DistanceMeters>25097.501680649</DistanceMeters>
          </Trackpoint>
          <Trackpoint>
            <Time>2020-04-26T17:32:03.000Z</Time>
            <Position>
              <LatitudeDegrees>38.55692289769649505615234375</LatitudeDegrees>
              <LongitudeDegrees>-28.6364905536174774169921875</LongitudeDegrees>
            </Position>
            <AltitudeMeters>219.1999969482421875</AltitudeMeters>
            <DistanceMeters>25126.679369848</DistanceMeters>
          </Trackpoint>
          <Trackpoint>
            <Time>2020-04-26T17:32:05.000Z</Time>
            <Position>
              <LatitudeDegrees>38.55676439590752124786376953125</LatitudeDegrees>
              <LongitudeDegrees>-28.63621889613568782806396484375</LongitudeDegrees>
            </Position>
            <AltitudeMeters>218</AltitudeMeters>
            <DistanceMeters>25156.179770138</DistanceMeters>
          </Trackpoint>
          <Trackpoint>
            <Time>2020-04-26T17:32:08.000Z</Time>
            <Position>
              <LatitudeDegrees>38.55654294602572917938232421875</LatitudeDegrees>
              <LongitudeDegrees>-28.635794855654239654541015625</LongitudeDegrees>
            </Position>
            <AltitudeMeters>216.8000030517578125</AltitudeMeters>
            <DistanceMeters>25200.560704831</DistanceMeters>
          </Trackpoint>
          <Trackpoint>
            <Time>2020-04-26T17:32:10.000Z</Time>
            <Position>
              <LatitudeDegrees>38.5564053989946842193603515625</LatitudeDegrees>
              <LongitudeDegrees>-28.6355060152709484100341796875</LongitudeDegrees>
            </Position>
            <AltitudeMeters>215.1999969482421875</AltitudeMeters>
            <DistanceMeters>25229.995373412</DistanceMeters>
          </Trackpoint>
          <Trackpoint>
            <Time>2020-04-26T17:32:12.000Z</Time>
            <Position>
              <LatitudeDegrees>38.55629098601639270782470703125</LatitudeDegrees>
              <LongitudeDegrees>-28.6352009139955043792724609375</LongitudeDegrees>
            </Position>
            <AltitudeMeters>213.8000030517578125</AltitudeMeters>
            <DistanceMeters>25259.446297041</DistanceMeters>
          </Trackpoint>
          <Trackpoint>
            <Time>2020-04-26T17:32:13.000Z</Time>
            <Position>
              <LatitudeDegrees>38.55624035932123661041259765625</LatitudeDegrees>
              <LongitudeDegrees>-28.63505448214709758758544921875</LongitudeDegrees>
            </Position>
            <AltitudeMeters>213</AltitudeMeters>
            <DistanceMeters>25273.381244613</DistanceMeters>
          </Trackpoint>
          <Trackpoint>
            <Time>2020-04-26T17:32:14.000Z</Time>
            <Position>
              <LatitudeDegrees>38.5562129504978656768798828125</LatitudeDegrees>
              <LongitudeDegrees>-28.634909056127071380615234375</LongitudeDegrees>
            </Position>
            <AltitudeMeters>212</AltitudeMeters>
            <DistanceMeters>25286.400944879</DistanceMeters>
          </Trackpoint>
          <Trackpoint>
            <Time>2020-04-26T17:32:15.000Z</Time>
            <Position>
              <LatitudeDegrees>38.55621973983943462371826171875</LatitudeDegrees>
              <LongitudeDegrees>-28.63476245664060115814208984375</LongitudeDegrees>
            </Position>
            <AltitudeMeters>211</AltitudeMeters>
            <DistanceMeters>25299.183362615</DistanceMeters>
          </Trackpoint>
          <Trackpoint>
            <Time>2020-04-26T17:32:16.000Z</Time>
            <Position>
              <LatitudeDegrees>38.55626433156430721282958984375</LatitudeDegrees>
              <LongitudeDegrees>-28.63462080247700214385986328125</LongitudeDegrees>
            </Position>
            <AltitudeMeters>210.399993896484375</AltitudeMeters>
            <DistanceMeters>25312.474199887</DistanceMeters>
          </Trackpoint>
          <Trackpoint>
            <Time>2020-04-26T17:32:17.000Z</Time>
            <Position>
              <LatitudeDegrees>38.5563128627836704254150390625</LatitudeDegrees>
              <LongitudeDegrees>-28.6344861052930355072021484375</LongitudeDegrees>
            </Position>
            <AltitudeMeters>209.399993896484375</AltitudeMeters>
            <DistanceMeters>25325.38245192</DistanceMeters>
          </Trackpoint>
          <Trackpoint>
            <Time>2020-04-26T17:32:18.000Z</Time>
            <Position>
              <LatitudeDegrees>38.55634463019669055938720703125</LatitudeDegrees>
              <LongitudeDegrees>-28.63433984108269214630126953125</LongitudeDegrees>
            </Position>
            <AltitudeMeters>209.1999969482421875</AltitudeMeters>
            <DistanceMeters>25338.594583003</DistanceMeters>
          </Trackpoint>
          <Trackpoint>
            <Time>2020-04-26T17:32:20.000Z</Time>
            <Position>
              <LatitudeDegrees>38.55631805956363677978515625</LatitudeDegrees>
              <LongitudeDegrees>-28.6340401880443096160888671875</LongitudeDegrees>
            </Position>
            <AltitudeMeters>208.8000030517578125</AltitudeMeters>
            <DistanceMeters>25364.842950047</DistanceMeters>
          </Trackpoint>
          <Trackpoint>
            <Time>2020-04-26T17:32:21.000Z</Time>
            <Position>
              <LatitudeDegrees>38.5562810115516185760498046875</LatitudeDegrees>
              <LongitudeDegrees>-28.63389710895717144012451171875</LongitudeDegrees>
            </Position>
            <AltitudeMeters>208</AltitudeMeters>
            <DistanceMeters>25377.961111763</DistanceMeters>
          </Trackpoint>
          <Trackpoint>
            <Time>2020-04-26T17:32:22.000Z</Time>
            <Position>
              <LatitudeDegrees>38.55624832212924957275390625</LatitudeDegrees>
              <LongitudeDegrees>-28.6337468214333057403564453125</LongitudeDegrees>
            </Position>
            <AltitudeMeters>207.1999969482421875</AltitudeMeters>
            <DistanceMeters>25391.538297794</DistanceMeters>
          </Trackpoint>
          <Trackpoint>
            <Time>2020-04-26T17:32:23.000Z</Time>
            <Position>
              <LatitudeDegrees>38.5562293790280818939208984375</LatitudeDegrees>
              <LongitudeDegrees>-28.63359066657721996307373046875</LongitudeDegrees>
            </Position>
            <AltitudeMeters>206.600006103515625</AltitudeMeters>
            <DistanceMeters>25405.292245279</DistanceMeters>
          </Trackpoint>
          <Trackpoint>
            <Time>2020-04-26T17:32:25.000Z</Time>
            <Position>
              <LatitudeDegrees>38.5561696998775005340576171875</LatitudeDegrees>
              <LongitudeDegrees>-28.63328271545469760894775390625</LongitudeDegrees>
            </Position>
            <AltitudeMeters>204.8000030517578125</AltitudeMeters>
            <DistanceMeters>25432.90662261</DistanceMeters>
          </Trackpoint>
          <Trackpoint>
            <Time>2020-04-26T17:32:26.000Z</Time>
            <Position>
              <LatitudeDegrees>38.556117899715900421142578125</LatitudeDegrees>
              <LongitudeDegrees>-28.63313653506338596343994140625</LongitudeDegrees>
            </Position>
            <AltitudeMeters>204.399993896484375</AltitudeMeters>
            <DistanceMeters>25446.875226399</DistanceMeters>
          </Trackpoint>
          <Trackpoint>
            <Time>2020-04-26T17:32:27.000Z</Time>
            <Position>
              <LatitudeDegrees>38.556052185595035552978515625</LatitudeDegrees>
              <LongitudeDegrees>-28.6330051906406879425048828125</LongitudeDegrees>
            </Position>
            <AltitudeMeters>203.8000030517578125</AltitudeMeters>
            <DistanceMeters>25460.446757972</DistanceMeters>
          </Trackpoint>
          <Trackpoint>
            <Time>2020-04-26T17:32:29.000Z</Time>
            <Position>
              <LatitudeDegrees>38.5559246130287647247314453125</LatitudeDegrees>
              <LongitudeDegrees>-28.63274191506206989288330078125</LongitudeDegrees>
            </Position>
            <AltitudeMeters>202.399993896484375</AltitudeMeters>
            <DistanceMeters>25487.40438142</DistanceMeters>
          </Trackpoint>
          <Trackpoint>
            <Time>2020-04-26T17:32:30.000Z</Time>
            <Position>
              <LatitudeDegrees>38.55589552782475948333740234375</LatitudeDegrees>
              <LongitudeDegrees>-28.63258869387209415435791015625</LongitudeDegrees>
            </Position>
            <AltitudeMeters>201.600006103515625</AltitudeMeters>
            <DistanceMeters>25501.127107613</DistanceMeters>
          </Trackpoint>
          <Trackpoint>
            <Time>2020-04-26T17:32:31.000Z</Time>
            <Position>
              <LatitudeDegrees>38.555880524218082427978515625</LatitudeDegrees>
              <LongitudeDegrees>-28.6324338801205158233642578125</LongitudeDegrees>
            </Position>
            <AltitudeMeters>201</AltitudeMeters>
            <DistanceMeters>25514.704958719</DistanceMeters>
          </Trackpoint>
          <Trackpoint>
            <Time>2020-04-26T17:32:32.000Z</Time>
            <Position>
              <LatitudeDegrees>38.55586049146950244903564453125</LatitudeDegrees>
              <LongitudeDegrees>-28.63228174857795238494873046875</LongitudeDegrees>
            </Position>
            <AltitudeMeters>200.600006103515625</AltitudeMeters>
            <DistanceMeters>25528.133010195</DistanceMeters>
          </Trackpoint>
          <Trackpoint>
            <Time>2020-04-26T17:32:34.000Z</Time>
            <Position>
              <LatitudeDegrees>38.555822856724262237548828125</LatitudeDegrees>
              <LongitudeDegrees>-28.63197840750217437744140625</LongitudeDegrees>
            </Position>
            <AltitudeMeters>199.8000030517578125</AltitudeMeters>
            <DistanceMeters>25554.865428522</DistanceMeters>
          </Trackpoint>
          <Trackpoint>
            <Time>2020-04-26T17:32:37.000Z</Time>
            <Position>
              <LatitudeDegrees>38.55576795525848865509033203125</LatitudeDegrees>
              <LongitudeDegrees>-28.63153609447181224822998046875</LongitudeDegrees>
            </Position>
            <AltitudeMeters>198.399993896484375</AltitudeMeters>
            <DistanceMeters>25593.845613783</DistanceMeters>
          </Trackpoint>
          <Trackpoint>
            <Time>2020-04-26T17:32:40.000Z</Time>
            <Position>
              <LatitudeDegrees>38.55570525862276554107666015625</LatitudeDegrees>
              <LongitudeDegrees>-28.6311046779155731201171875</LongitudeDegrees>
            </Position>
            <AltitudeMeters>197</AltitudeMeters>
            <DistanceMeters>25632.038315028</DistanceMeters>
          </Trackpoint>
          <Trackpoint>
            <Time>2020-04-26T17:32:41.000Z</Time>
            <Position>
              <LatitudeDegrees>38.55566485784947872161865234375</LatitudeDegrees>
              <LongitudeDegrees>-28.63096880726516246795654296875</LongitudeDegrees>
            </Position>
            <AltitudeMeters>196.600006103515625</AltitudeMeters>
            <DistanceMeters>25644.690792857</DistanceMeters>
          </Trackpoint>
          <Trackpoint>
            <Time>2020-04-26T17:32:44.000Z</Time>
            <Position>
              <LatitudeDegrees>38.555484227836132049560546875</LatitudeDegrees>
              <LongitudeDegrees>-28.63060788251459598541259765625</LongitudeDegrees>
            </Position>
            <AltitudeMeters>195.600006103515625</AltitudeMeters>
            <DistanceMeters>25681.987779545</DistanceMeters>
          </Trackpoint>
          <Trackpoint>
            <Time>2020-04-26T17:32:45.000Z</Time>
            <Position>
              <LatitudeDegrees>38.55541205964982509613037109375</LatitudeDegrees>
              <LongitudeDegrees>-28.63049774430692195892333984375</LongitudeDegrees>
            </Position>
            <AltitudeMeters>195.1999969482421875</AltitudeMeters>
            <DistanceMeters>25694.494537085</DistanceMeters>
          </Trackpoint>
          <Trackpoint>
            <Time>2020-04-26T17:32:46.000Z</Time>
            <Position>
              <LatitudeDegrees>38.5553392209112644195556640625</LatitudeDegrees>
              <LongitudeDegrees>-28.63038718700408935546875</LongitudeDegrees>
            </Position>
            <AltitudeMeters>194.399993896484375</AltitudeMeters>
            <DistanceMeters>25707.076877894</DistanceMeters>
          </Trackpoint>
          <Trackpoint>
            <Time>2020-04-26T17:32:49.000Z</Time>
            <Position>
              <LatitudeDegrees>38.55513847433030605316162109375</LatitudeDegrees>
              <LongitudeDegrees>-28.63006867468357086181640625</LongitudeDegrees>
            </Position>
            <AltitudeMeters>193.399993896484375</AltitudeMeters>
            <DistanceMeters>25742.682869137</DistanceMeters>
          </Trackpoint>
          <Trackpoint>
            <Time>2020-04-26T17:32:51.000Z</Time>
            <Position>
              <LatitudeDegrees>38.5550522245466709136962890625</LatitudeDegrees>
              <LongitudeDegrees>-28.62993858754634857177734375</LongitudeDegrees>
            </Position>
            <AltitudeMeters>192.399993896484375</AltitudeMeters>
            <DistanceMeters>25757.527124773</DistanceMeters>
          </Trackpoint>
          <Trackpoint>
            <Time>2020-04-26T17:32:52.000Z</Time>
            <Position>
              <LatitudeDegrees>38.5550233907997608184814453125</LatitudeDegrees>
              <LongitudeDegrees>-28.6298951692879199981689453125</LongitudeDegrees>
            </Position>
            <AltitudeMeters>192</AltitudeMeters>
            <DistanceMeters>25762.484933571</DistanceMeters>
          </Trackpoint>
          <Trackpoint>
            <Time>2020-04-26T17:32:54.000Z</Time>
            <Position>
              <LatitudeDegrees>38.5549744404852390289306640625</LatitudeDegrees>
              <LongitudeDegrees>-28.629823587834835052490234375</LongitudeDegrees>
            </Position>
            <AltitudeMeters>191.8000030517578125</AltitudeMeters>
            <DistanceMeters>25770.762082234</DistanceMeters>
          </Trackpoint>
          <Trackpoint>
            <Time>2020-04-26T17:32:55.000Z</Time>
            <Position>
              <LatitudeDegrees>38.55497620068490505218505859375</LatitudeDegrees>
              <LongitudeDegrees>-28.62979617901146411895751953125</LongitudeDegrees>
            </Position>
            <AltitudeMeters>191.8000030517578125</AltitudeMeters>
            <DistanceMeters>25773.154793764</DistanceMeters>
          </Trackpoint>
          <Trackpoint>
            <Time>2020-04-26T17:32:56.000Z</Time>
            <Position>
              <LatitudeDegrees>38.55500302277505397796630859375</LatitudeDegrees>
              <LongitudeDegrees>-28.62979701720178127288818359375</LongitudeDegrees>
            </Position>
            <AltitudeMeters>191.600006103515625</AltitudeMeters>
            <DistanceMeters>25776.141717855</DistanceMeters>
          </Trackpoint>
          <Trackpoint>
            <Time>2020-04-26T17:32:59.000Z</Time>
            <Position>
              <LatitudeDegrees>38.555051721632480621337890625</LatitudeDegrees>
              <LongitudeDegrees>-28.62989558838307857513427734375</LongitudeDegrees>
            </Position>
            <AltitudeMeters>191.8000030517578125</AltitudeMeters>
            <DistanceMeters>25786.290464177</DistanceMeters>
          </Trackpoint>
          <Trackpoint>
            <Time>2020-04-26T17:33:00.000Z</Time>
            <Position>
              <LatitudeDegrees>38.555077873170375823974609375</LatitudeDegrees>
              <LongitudeDegrees>-28.62993364222347736358642578125</LongitudeDegrees>
            </Position>
            <AltitudeMeters>192</AltitudeMeters>
            <DistanceMeters>25790.70076855</DistanceMeters>
          </Trackpoint>
          <Trackpoint>
            <Time>2020-04-26T17:33:04.000Z</Time>
            <Position>
              <LatitudeDegrees>38.55518558062613010406494140625</LatitudeDegrees>
              <LongitudeDegrees>-28.63011804409325122833251953125</LongitudeDegrees>
            </Position>
            <AltitudeMeters>192.399993896484375</AltitudeMeters>
            <DistanceMeters>25810.733608022</DistanceMeters>
          </Trackpoint>
          <Trackpoint>
            <Time>2020-04-26T17:33:06.000Z</Time>
            <Position>
              <LatitudeDegrees>38.55524593032896518707275390625</LatitudeDegrees>
              <LongitudeDegrees>-28.63021309487521648406982421875</LongitudeDegrees>
            </Position>
            <AltitudeMeters>192.600006103515625</AltitudeMeters>
            <DistanceMeters>25821.389742935</DistanceMeters>
          </Trackpoint>
          <Trackpoint>
            <Time>2020-04-26T17:33:09.000Z</Time>
            <Position>
              <LatitudeDegrees>38.55534173548221588134765625</LatitudeDegrees>
              <LongitudeDegrees>-28.6303715966641902923583984375</LongitudeDegrees>
            </Position>
            <AltitudeMeters>192.600006103515625</AltitudeMeters>
            <DistanceMeters>25838.826044542</DistanceMeters>
          </Trackpoint>
          <Trackpoint>
            <Time>2020-04-26T17:33:10.000Z</Time>
            <Position>
              <LatitudeDegrees>38.5553761012852191925048828125</LatitudeDegrees>
              <LongitudeDegrees>-28.63042809069156646728515625</LongitudeDegrees>
            </Position>
            <AltitudeMeters>192.600006103515625</AltitudeMeters>
            <DistanceMeters>25845.054463957</DistanceMeters>
          </Trackpoint>
          <Trackpoint>
            <Time>2020-04-26T17:33:12.000Z</Time>
            <Position>
              <LatitudeDegrees>38.55544491671025753021240234375</LatitudeDegrees>
              <LongitudeDegrees>-28.6305509693920612335205078125</LongitudeDegrees>
            </Position>
            <AltitudeMeters>193</AltitudeMeters>
            <DistanceMeters>25858.209058397</DistanceMeters>
          </Trackpoint>
          <Trackpoint>
            <Time>2020-04-26T17:33:13.000Z</Time>
            <Position>
              <LatitudeDegrees>38.5554874129593372344970703125</LatitudeDegrees>
              <LongitudeDegrees>-28.630608804523944854736328125</LongitudeDegrees>
            </Position>
            <AltitudeMeters>193.1999969482421875</AltitudeMeters>
            <DistanceMeters>25865.116657396</DistanceMeters>
          </Trackpoint>
          <Trackpoint>
            <Time>2020-04-26T17:33:15.000Z</Time>
            <Position>
              <LatitudeDegrees>38.55555765330791473388671875</LatitudeDegrees>
              <LongitudeDegrees>-28.63072740845382213592529296875</LongitudeDegrees>
            </Position>
            <AltitudeMeters>194.1999969482421875</AltitudeMeters>
            <DistanceMeters>25878.065768929</DistanceMeters>
          </Trackpoint>
          <Trackpoint>
            <Time>2020-04-26T17:33:16.000Z</Time>
            <Position>
              <LatitudeDegrees>38.55559176765382289886474609375</LatitudeDegrees>
              <LongitudeDegrees>-28.63078339956700801849365234375</LongitudeDegrees>
            </Position>
            <AltitudeMeters>194.399993896484375</AltitudeMeters>
            <DistanceMeters>25884.243236294</DistanceMeters>
          </Trackpoint>
          <Trackpoint>
            <Time>2020-04-26T17:33:19.000Z</Time>
            <Position>
              <LatitudeDegrees>38.555677346885204315185546875</LatitudeDegrees>
              <LongitudeDegrees>-28.63095112144947052001953125</LongitudeDegrees>
            </Position>
            <AltitudeMeters>194.600006103515625</AltitudeMeters>
            <DistanceMeters>25901.674358237</DistanceMeters>
          </Trackpoint>
          <Trackpoint>
            <Time>2020-04-26T17:33:21.000Z</Time>
            <Position>
              <LatitudeDegrees>38.5557152330875396728515625</LatitudeDegrees>
              <LongitudeDegrees>-28.631077520549297332763671875</LongitudeDegrees>
            </Position>
            <AltitudeMeters>195</AltitudeMeters>
            <DistanceMeters>25913.45613803</DistanceMeters>
          </Trackpoint>
          <Trackpoint>
            <Time>2020-04-26T17:33:23.000Z</Time>
            <Position>
              <LatitudeDegrees>38.55573761276900768280029296875</LatitudeDegrees>
              <LongitudeDegrees>-28.63120635040104389190673828125</LongitudeDegrees>
            </Position>
            <AltitudeMeters>195.8000030517578125</AltitudeMeters>
            <DistanceMeters>25924.942977326</DistanceMeters>
          </Trackpoint>
          <Trackpoint>
            <Time>2020-04-26T17:33:27.000Z</Time>
            <Position>
              <LatitudeDegrees>38.555774576961994171142578125</LatitudeDegrees>
              <LongitudeDegrees>-28.6314721405506134033203125</LongitudeDegrees>
            </Position>
            <AltitudeMeters>196</AltitudeMeters>
            <DistanceMeters>25948.439953809</DistanceMeters>
          </Trackpoint>
          <Trackpoint>
            <Time>2020-04-26T17:33:33.000Z</Time>
            <Position>
              <LatitudeDegrees>38.5558293946087360382080078125</LatitudeDegrees>
              <LongitudeDegrees>-28.631861396133899688720703125</LongitudeDegrees>
            </Position>
            <AltitudeMeters>196.8000030517578125</AltitudeMeters>
            <DistanceMeters>25982.865077954</DistanceMeters>
          </Trackpoint>
          <Trackpoint>
            <Time>2020-04-26T17:33:34.000Z</Time>
            <Position>
              <LatitudeDegrees>38.55583618395030498504638671875</LatitudeDegrees>
              <LongitudeDegrees>-28.6319222487509250640869140625</LongitudeDegrees>
            </Position>
            <AltitudeMeters>197</AltitudeMeters>
            <DistanceMeters>25988.215343585</DistanceMeters>
          </Trackpoint>
          <Trackpoint>
            <Time>2020-04-26T17:33:37.000Z</Time>
            <Position>
              <LatitudeDegrees>38.5558485053479671478271484375</LatitudeDegrees>
              <LongitudeDegrees>-28.6320986039936542510986328125</LongitudeDegrees>
            </Position>
            <AltitudeMeters>197.8000030517578125</AltitudeMeters>
            <DistanceMeters>26003.626379908</DistanceMeters>
          </Trackpoint>
          <Trackpoint>
            <Time>2020-04-26T17:33:38.000Z</Time>
            <Position>
              <LatitudeDegrees>38.55585898272693157196044921875</LatitudeDegrees>
              <LongitudeDegrees>-28.63215685822069644927978515625</LongitudeDegrees>
            </Position>
            <AltitudeMeters>198.1999969482421875</AltitudeMeters>
            <DistanceMeters>26008.829472179</DistanceMeters>
          </Trackpoint>
          <Trackpoint>
            <Time>2020-04-26T17:33:41.000Z</Time>
            <Position>
              <LatitudeDegrees>38.5558880679309368133544921875</LatitudeDegrees>
              <LongitudeDegrees>-28.63233623094856739044189453125</LongitudeDegrees>
            </Position>
            <AltitudeMeters>198.399993896484375</AltitudeMeters>
            <DistanceMeters>26024.773867499</DistanceMeters>
          </Trackpoint>
          <Trackpoint>
            <Time>2020-04-26T17:33:46.000Z</Time>
            <Position>
              <LatitudeDegrees>38.55594414286315441131591796875</LatitudeDegrees>
              <LongitudeDegrees>-28.63268516957759857177734375</LongitudeDegrees>
            </Position>
            <AltitudeMeters>199.1999969482421875</AltitudeMeters>
            <DistanceMeters>26055.779382141</DistanceMeters>
          </Trackpoint>
          <Trackpoint>
            <Time>2020-04-26T17:33:47.000Z</Time>
            <Position>
              <LatitudeDegrees>38.55595923028886318206787109375</LatitudeDegrees>
              <LongitudeDegrees>-28.63275415264070034027099609375</LongitudeDegrees>
            </Position>
            <AltitudeMeters>199.399993896484375</AltitudeMeters>
            <DistanceMeters>26062.013598132</DistanceMeters>
          </Trackpoint>
          <Trackpoint>
            <Time>2020-04-26T17:33:49.000Z</Time>
            <Position>
              <LatitudeDegrees>38.55599485337734222412109375</LatitudeDegrees>
              <LongitudeDegrees>-28.6328885145485401153564453125</LongitudeDegrees>
            </Position>
            <AltitudeMeters>200.1999969482421875</AltitudeMeters>
            <DistanceMeters>26074.36231875</DistanceMeters>
          </Trackpoint>
          <Trackpoint>
            <Time>2020-04-26T17:33:51.000Z</Time>
            <Position>
              <LatitudeDegrees>38.5560572147369384765625</LatitudeDegrees>
              <LongitudeDegrees>-28.63299898803234100341796875</LongitudeDegrees>
            </Position>
            <AltitudeMeters>200.8000030517578125</AltitudeMeters>
            <DistanceMeters>26086.221256752</DistanceMeters>
          </Trackpoint>
          <Trackpoint>
            <Time>2020-04-26T17:33:52.000Z</Time>
            <Position>
              <LatitudeDegrees>38.556087054312229156494140625</LatitudeDegrees>
              <LongitudeDegrees>-28.6330561526119709014892578125</LongitudeDegrees>
            </Position>
            <AltitudeMeters>201.1999969482421875</AltitudeMeters>
            <DistanceMeters>26092.202658166</DistanceMeters>
          </Trackpoint>
          <Trackpoint>
            <Time>2020-04-26T17:33:55.000Z</Time>
            <Position>
              <LatitudeDegrees>38.55617229826748371124267578125</LatitudeDegrees>
              <LongitudeDegrees>-28.63324717618525028228759765625</LongitudeDegrees>
            </Position>
            <AltitudeMeters>201.8000030517578125</AltitudeMeters>
            <DistanceMeters>26111.3457656</DistanceMeters>
          </Trackpoint>
          <Trackpoint>
            <Time>2020-04-26T17:33:56.000Z</Time>
            <Position>
              <LatitudeDegrees>38.556188642978668212890625</LatitudeDegrees>
              <LongitudeDegrees>-28.6333109624683856964111328125</LongitudeDegrees>
            </Position>
            <AltitudeMeters>202.1999969482421875</AltitudeMeters>
            <DistanceMeters>26117.188169982</DistanceMeters>
          </Trackpoint>
          <Trackpoint>
            <Time>2020-04-26T17:33:57.000Z</Time>
            <Position>
              <LatitudeDegrees>38.55620406568050384521484375</LatitudeDegrees>
              <LongitudeDegrees>-28.6333726532757282257080078125</LongitudeDegrees>
            </Position>
            <AltitudeMeters>202.399993896484375</AltitudeMeters>
            <DistanceMeters>26122.82526489</DistanceMeters>
          </Trackpoint>
          <Trackpoint>
            <Time>2020-04-26T17:34:00.000Z</Time>
            <Position>
              <LatitudeDegrees>38.55624086223542690277099609375</LatitudeDegrees>
              <LongitudeDegrees>-28.63356166519224643707275390625</LongitudeDegrees>
            </Position>
            <AltitudeMeters>203.1999969482421875</AltitudeMeters>
            <DistanceMeters>26139.778414245</DistanceMeters>
          </Trackpoint>
          <Trackpoint>
            <Time>2020-04-26T17:34:04.000Z</Time>
            <Position>
              <LatitudeDegrees>38.556274473667144775390625</LatitudeDegrees>
              <LongitudeDegrees>-28.63379820249974727630615234375</LongitudeDegrees>
            </Position>
            <AltitudeMeters>204.399993896484375</AltitudeMeters>
            <DistanceMeters>26160.703288119</DistanceMeters>
          </Trackpoint>
          <Trackpoint>
            <Time>2020-04-26T17:34:08.000Z</Time>
            <Position>
              <LatitudeDegrees>38.55633490718901157379150390625</LatitudeDegrees>
              <LongitudeDegrees>-28.63401663489639759063720703125</LongitudeDegrees>
            </Position>
            <AltitudeMeters>205.600006103515625</AltitudeMeters>
            <DistanceMeters>26180.870231689</DistanceMeters>
          </Trackpoint>
          <Trackpoint>
            <Time>2020-04-26T17:34:11.000Z</Time>
            <Position>
              <LatitudeDegrees>38.5563718713819980621337890625</LatitudeDegrees>
              <LongitudeDegrees>-28.634170107543468475341796875</LongitudeDegrees>
            </Position>
            <AltitudeMeters>206.399993896484375</AltitudeMeters>
            <DistanceMeters>26194.847236868</DistanceMeters>
          </Trackpoint>
          <Trackpoint>
            <Time>2020-04-26T17:34:12.000Z</Time>
            <Position>
              <LatitudeDegrees>38.5563804209232330322265625</LatitudeDegrees>
              <LongitudeDegrees>-28.634224422276020050048828125</LongitudeDegrees>
            </Position>
            <AltitudeMeters>206.8000030517578125</AltitudeMeters>
            <DistanceMeters>26199.670252203</DistanceMeters>
          </Trackpoint>
          <Trackpoint>
            <Time>2020-04-26T17:34:14.000Z</Time>
            <Position>
              <LatitudeDegrees>38.55638402514159679412841796875</LatitudeDegrees>
              <LongitudeDegrees>-28.63433900289237499237060546875</LongitudeDegrees>
            </Position>
            <AltitudeMeters>207.399993896484375</AltitudeMeters>
            <DistanceMeters>26209.651224267</DistanceMeters>
          </Trackpoint>
          <Trackpoint>
            <Time>2020-04-26T17:34:17.000Z</Time>
            <Position>
              <LatitudeDegrees>38.5563591308891773223876953125</LatitudeDegrees>
              <LongitudeDegrees>-28.6345011927187442779541015625</LongitudeDegrees>
            </Position>
            <AltitudeMeters>207.600006103515625</AltitudeMeters>
            <DistanceMeters>26224.037026015</DistanceMeters>
          </Trackpoint>
          <Trackpoint>
            <Time>2020-04-26T17:34:18.000Z</Time>
            <Position>
              <LatitudeDegrees>38.55634144507348537445068359375</LatitudeDegrees>
              <LongitudeDegrees>-28.63455332815647125244140625</LongitudeDegrees>
            </Position>
            <AltitudeMeters>208</AltitudeMeters>
            <DistanceMeters>26228.982068685</DistanceMeters>
          </Trackpoint>
          <Trackpoint>
            <Time>2020-04-26T17:34:19.000Z</Time>
            <Position>
              <LatitudeDegrees>38.5563219152390956878662109375</LatitudeDegrees>
              <LongitudeDegrees>-28.63460521213710308074951171875</LongitudeDegrees>
            </Position>
            <AltitudeMeters>208</AltitudeMeters>
            <DistanceMeters>26233.993320284</DistanceMeters>
          </Trackpoint>
          <Trackpoint>
            <Time>2020-04-26T17:34:24.000Z</Time>
            <Position>
              <LatitudeDegrees>38.556241951882839202880859375</LatitudeDegrees>
              <LongitudeDegrees>-28.634874857962131500244140625</LongitudeDegrees>
            </Position>
            <AltitudeMeters>208.8000030517578125</AltitudeMeters>
            <DistanceMeters>26259.093507603</DistanceMeters>
          </Trackpoint>
          <Trackpoint>
            <Time>2020-04-26T17:34:25.000Z</Time>
            <Position>
              <LatitudeDegrees>38.55624496936798095703125</LatitudeDegrees>
              <LongitudeDegrees>-28.6349316872656345367431640625</LongitudeDegrees>
            </Position>
            <AltitudeMeters>209</AltitudeMeters>
            <DistanceMeters>26264.051316401</DistanceMeters>
          </Trackpoint>
          <Trackpoint>
            <Time>2020-04-26T17:34:28.000Z</Time>
            <Position>
              <LatitudeDegrees>38.55628444813191890716552734375</LatitudeDegrees>
              <LongitudeDegrees>-28.6350825615227222442626953125</LongitudeDegrees>
            </Position>
            <AltitudeMeters>210</AltitudeMeters>
            <DistanceMeters>26277.898831459</DistanceMeters>
          </Trackpoint>
          <Trackpoint>
            <Time>2020-04-26T17:34:29.000Z</Time>
            <Position>
              <LatitudeDegrees>38.55629903264343738555908203125</LatitudeDegrees>
              <LongitudeDegrees>-28.63513427786529064178466796875</LongitudeDegrees>
            </Position>
            <AltitudeMeters>210.1999969482421875</AltitudeMeters>
            <DistanceMeters>26282.684254519</DistanceMeters>
          </Trackpoint>
          <Trackpoint>
            <Time>2020-04-26T17:34:32.000Z</Time>
            <Position>
              <LatitudeDegrees>38.55635024607181549072265625</LatitudeDegrees>
              <LongitudeDegrees>-28.6352743394672870635986328125</LongitudeDegrees>
            </Position>
            <AltitudeMeters>211</AltitudeMeters>
            <DistanceMeters>26296.141862522</DistanceMeters>
          </Trackpoint>
          <Trackpoint>
            <Time>2020-04-26T17:34:36.000Z</Time>
            <Position>
              <LatitudeDegrees>38.55641118250787258148193359375</LatitudeDegrees>
              <LongitudeDegrees>-28.63546050153672695159912109375</LongitudeDegrees>
            </Position>
            <AltitudeMeters>212</AltitudeMeters>
            <DistanceMeters>26313.70715933</DistanceMeters>
          </Trackpoint>
          <Trackpoint>
            <Time>2020-04-26T17:34:37.000Z</Time>
            <Position>
              <LatitudeDegrees>38.5564271919429302215576171875</LatitudeDegrees>
              <LongitudeDegrees>-28.6355060152709484100341796875</LongitudeDegrees>
            </Position>
            <AltitudeMeters>212.1999969482421875</AltitudeMeters>
            <DistanceMeters>26318.051449809</DistanceMeters>
          </Trackpoint>
          <Trackpoint>
            <Time>2020-04-26T17:34:44.000Z</Time>
            <Position>
              <LatitudeDegrees>38.55658200569450855255126953125</LatitudeDegrees>
              <LongitudeDegrees>-28.6358067579567432403564453125</LongitudeDegrees>
            </Position>
            <AltitudeMeters>213.1999969482421875</AltitudeMeters>
            <DistanceMeters>26349.38981374</DistanceMeters>
          </Trackpoint>
          <Trackpoint>
            <Time>2020-04-26T17:34:45.000Z</Time>
            <Position>
              <LatitudeDegrees>38.55660631321370601654052734375</LatitudeDegrees>
              <LongitudeDegrees>-28.6358476616442203521728515625</LongitudeDegrees>
            </Position>
            <AltitudeMeters>213.399993896484375</AltitudeMeters>
            <DistanceMeters>26353.861121071</DistanceMeters>
          </Trackpoint>
          <Trackpoint>
            <Time>2020-04-26T17:34:49.000Z</Time>
            <Position>
              <LatitudeDegrees>38.55669314973056316375732421875</LatitudeDegrees>
              <LongitudeDegrees>-28.636027872562408447265625</LongitudeDegrees>
            </Position>
            <AltitudeMeters>214.399993896484375</AltitudeMeters>
            <DistanceMeters>26372.28503416</DistanceMeters>
          </Trackpoint>
          <Trackpoint>
            <Time>2020-04-26T17:34:52.000Z</Time>
            <Position>
              <LatitudeDegrees>38.55676372535526752471923828125</LatitudeDegrees>
              <LongitudeDegrees>-28.636161647737026214599609375</LongitudeDegrees>
            </Position>
            <AltitudeMeters>215.600006103515625</AltitudeMeters>
            <DistanceMeters>26386.330355445</DistanceMeters>
          </Trackpoint>
          <Trackpoint>
            <Time>2020-04-26T17:34:53.000Z</Time>
            <Position>
              <LatitudeDegrees>38.55678652413189411163330078125</LatitudeDegrees>
              <LongitudeDegrees>-28.63620565272867679595947265625</LongitudeDegrees>
            </Position>
            <AltitudeMeters>215.8000030517578125</AltitudeMeters>
            <DistanceMeters>26390.925169775</DistanceMeters>
          </Trackpoint>
          <Trackpoint>
            <Time>2020-04-26T17:34:58.000Z</Time>
            <Position>
              <LatitudeDegrees>38.55690789408981800079345703125</LatitudeDegrees>
              <LongitudeDegrees>-28.63642928190529346466064453125</LongitudeDegrees>
            </Position>
            <AltitudeMeters>217</AltitudeMeters>
            <DistanceMeters>26414.617523223</DistanceMeters>
          </Trackpoint>
          <Trackpoint>
            <Time>2020-04-26T17:35:04.000Z</Time>
            <Position>
              <LatitudeDegrees>38.55704854242503643035888671875</LatitudeDegrees>
              <LongitudeDegrees>-28.63670236431062221527099609375</LongitudeDegrees>
            </Position>
            <AltitudeMeters>218.1999969482421875</AltitudeMeters>
            <DistanceMeters>26443.077825874</DistanceMeters>
          </Trackpoint>
          <Trackpoint>
            <Time>2020-04-26T17:35:11.000Z</Time>
            <Position>
              <LatitudeDegrees>38.5572013445198535919189453125</LatitudeDegrees>
              <LongitudeDegrees>-28.637023977935314178466796875</LongitudeDegrees>
            </Position>
            <AltitudeMeters>219.1999969482421875</AltitudeMeters>
            <DistanceMeters>26475.831316401</DistanceMeters>
          </Trackpoint>
          <Trackpoint>
            <Time>2020-04-26T17:35:14.000Z</Time>
            <Position>
              <LatitudeDegrees>38.55726529844105243682861328125</LatitudeDegrees>
              <LongitudeDegrees>-28.63716043531894683837890625</LongitudeDegrees>
            </Position>
            <AltitudeMeters>220.399993896484375</AltitudeMeters>
            <DistanceMeters>26489.677853262</DistanceMeters>
          </Trackpoint>
          <Trackpoint>
            <Time>2020-04-26T17:35:19.000Z</Time>
            <Position>
              <LatitudeDegrees>38.55736236087977886199951171875</LatitudeDegrees>
              <LongitudeDegrees>-28.637399487197399139404296875</LongitudeDegrees>
            </Position>
            <AltitudeMeters>221.399993896484375</AltitudeMeters>
            <DistanceMeters>26513.121735252</DistanceMeters>
          </Trackpoint>
          <Trackpoint>
            <Time>2020-04-26T17:35:24.000Z</Time>
            <Position>
              <LatitudeDegrees>38.5574626922607421875</LatitudeDegrees>
              <LongitudeDegrees>-28.63763786852359771728515625</LongitudeDegrees>
            </Position>
            <AltitudeMeters>222.399993896484375</AltitudeMeters>
            <DistanceMeters>26536.683953523</DistanceMeters>
          </Trackpoint>
          <Trackpoint>
            <Time>2020-04-26T17:35:30.000Z</Time>
            <Position>
              <LatitudeDegrees>38.55758012272417545318603515625</LatitudeDegrees>
              <LongitudeDegrees>-28.63792276941239833831787109375</LongitudeDegrees>
            </Position>
            <AltitudeMeters>223.8000030517578125</AltitudeMeters>
            <DistanceMeters>26564.714418225</DistanceMeters>
          </Trackpoint>
          <Trackpoint>
            <Time>2020-04-26T17:35:32.000Z</Time>
            <Position>
              <LatitudeDegrees>38.55760761536657810211181640625</LatitudeDegrees>
              <LongitudeDegrees>-28.638029135763645172119140625</LongitudeDegrees>
            </Position>
            <AltitudeMeters>224.399993896484375</AltitudeMeters>
            <DistanceMeters>26574.464733338</DistanceMeters>
          </Trackpoint>
          <Trackpoint>
            <Time>2020-04-26T17:35:35.000Z</Time>
            <Position>
              <LatitudeDegrees>38.557650111615657806396484375</LatitudeDegrees>
              <LongitudeDegrees>-28.63818797282874584197998046875</LongitudeDegrees>
            </Position>
            <AltitudeMeters>224.8000030517578125</AltitudeMeters>
            <DistanceMeters>26589.075689405</DistanceMeters>
          </Trackpoint>
          <Trackpoint>
            <Time>2020-04-26T17:35:38.000Z</Time>
            <Position>
              <LatitudeDegrees>38.55769076384603977203369140625</LatitudeDegrees>
              <LongitudeDegrees>-28.63834387622773647308349609375</LongitudeDegrees>
            </Position>
            <AltitudeMeters>225.8000030517578125</AltitudeMeters>
            <DistanceMeters>26603.379025097</DistanceMeters>
          </Trackpoint>
          <Trackpoint>
            <Time>2020-04-26T17:35:41.000Z</Time>
            <Position>
              <LatitudeDegrees>38.5577287338674068450927734375</LatitudeDegrees>
              <LongitudeDegrees>-28.638504557311534881591796875</LongitudeDegrees>
            </Position>
            <AltitudeMeters>226.1999969482421875</AltitudeMeters>
            <DistanceMeters>26617.988435997</DistanceMeters>
          </Trackpoint>
          <Trackpoint>
            <Time>2020-04-26T17:35:44.000Z</Time>
            <Position>
              <LatitudeDegrees>38.55776636861264705657958984375</LatitudeDegrees>
              <LongitudeDegrees>-28.63867261447012424468994140625</LongitudeDegrees>
            </Position>
            <AltitudeMeters>227</AltitudeMeters>
            <DistanceMeters>26633.203693793</DistanceMeters>
          </Trackpoint>
          <Trackpoint>
            <Time>2020-04-26T17:35:49.000Z</Time>
            <Position>
              <LatitudeDegrees>38.55784557759761810302734375</LatitudeDegrees>
              <LongitudeDegrees>-28.63894972018897533416748046875</LongitudeDegrees>
            </Position>
            <AltitudeMeters>227.8000030517578125</AltitudeMeters>
            <DistanceMeters>26658.882366696</DistanceMeters>
          </Trackpoint>
          <Trackpoint>
            <Time>2020-04-26T17:35:50.000Z</Time>
            <Position>
              <LatitudeDegrees>38.557861335575580596923828125</LatitudeDegrees>
              <LongitudeDegrees>-28.63900336436927318572998046875</LongitudeDegrees>
            </Position>
            <AltitudeMeters>228</AltitudeMeters>
            <DistanceMeters>26663.869232498</DistanceMeters>
          </Trackpoint>
          <Trackpoint>
            <Time>2020-04-26T17:35:55.000Z</Time>
            <Position>
              <LatitudeDegrees>38.557956553995609283447265625</LatitudeDegrees>
              <LongitudeDegrees>-28.6392746865749359130859375</LongitudeDegrees>
            </Position>
            <AltitudeMeters>229.1999969482421875</AltitudeMeters>
            <DistanceMeters>26689.75315592</DistanceMeters>
          </Trackpoint>
          <Trackpoint>
            <Time>2020-04-26T17:35:57.000Z</Time>
            <Position>
              <LatitudeDegrees>38.55800307355821132659912109375</LatitudeDegrees>
              <LongitudeDegrees>-28.6393791250884532928466796875</LongitudeDegrees>
            </Position>
            <AltitudeMeters>229.600006103515625</AltitudeMeters>
            <DistanceMeters>26700.214298134</DistanceMeters>
          </Trackpoint>
          <Trackpoint>
            <Time>2020-04-26T17:36:00.000Z</Time>
            <Position>
              <LatitudeDegrees>38.5580754093825817108154296875</LatitudeDegrees>
              <LongitudeDegrees>-28.6395269818603992462158203125</LongitudeDegrees>
            </Position>
            <AltitudeMeters>230.1999969482421875</AltitudeMeters>
            <DistanceMeters>26715.393904868</DistanceMeters>
          </Trackpoint>
          <Trackpoint>
            <Time>2020-04-26T17:36:05.000Z</Time>
            <Position>
              <LatitudeDegrees>38.558192588388919830322265625</LatitudeDegrees>
              <LongitudeDegrees>-28.63977517001330852508544921875</LongitudeDegrees>
            </Position>
            <AltitudeMeters>231.399993896484375</AltitudeMeters>
            <DistanceMeters>26740.627031707</DistanceMeters>
          </Trackpoint>
          <Trackpoint>
            <Time>2020-04-26T17:36:09.000Z</Time>
            <Position>
              <LatitudeDegrees>38.558299206197261810302734375</LatitudeDegrees>
              <LongitudeDegrees>-28.63996334373950958251953125</LongitudeDegrees>
            </Position>
            <AltitudeMeters>232.1999969482421875</AltitudeMeters>
            <DistanceMeters>26760.852101122</DistanceMeters>
          </Trackpoint>
          <Trackpoint>
            <Time>2020-04-26T17:36:11.000Z</Time>
            <Position>
              <LatitudeDegrees>38.55836617760360240936279296875</LatitudeDegrees>
              <LongitudeDegrees>-28.64003484137356281280517578125</LongitudeDegrees>
            </Position>
            <AltitudeMeters>232.399993896484375</AltitudeMeters>
            <DistanceMeters>26770.562045929</DistanceMeters>
          </Trackpoint>
          <Trackpoint>
            <Time>2020-04-26T17:36:12.000Z</Time>
            <Position>
              <LatitudeDegrees>38.5584036447107791900634765625</LatitudeDegrees>
              <LongitudeDegrees>-28.64006652496755123138427734375</LongitudeDegrees>
            </Position>
            <AltitudeMeters>232.8000030517578125</AltitudeMeters>
            <DistanceMeters>26775.561571066</DistanceMeters>
          </Trackpoint>
          <Trackpoint>
            <Time>2020-04-26T17:36:15.000Z</Time>
            <Position>
              <LatitudeDegrees>38.5585213266313076019287109375</LatitudeDegrees>
              <LongitudeDegrees>-28.64015386439859867095947265625</LongitudeDegrees>
            </Position>
            <AltitudeMeters>233.8000030517578125</AltitudeMeters>
            <DistanceMeters>26790.705740952</DistanceMeters>
          </Trackpoint>
          <Trackpoint>
            <Time>2020-04-26T17:36:19.000Z</Time>
            <Position>
              <LatitudeDegrees>38.5586530901491641998291015625</LatitudeDegrees>
              <LongitudeDegrees>-28.64028663374483585357666015625</LongitudeDegrees>
            </Position>
            <AltitudeMeters>234.8000030517578125</AltitudeMeters>
            <DistanceMeters>26809.376737206</DistanceMeters>
          </Trackpoint>
          <Trackpoint>
            <Time>2020-04-26T17:36:20.000Z</Time>
            <Position>
              <LatitudeDegrees>38.55868318118155002593994140625</LatitudeDegrees>
              <LongitudeDegrees>-28.6403242684900760650634765625</LongitudeDegrees>
            </Position>
            <AltitudeMeters>235</AltitudeMeters>
            <DistanceMeters>26814.061081958</DistanceMeters>
          </Trackpoint>
          <Trackpoint>
            <Time>2020-04-26T17:36:23.000Z</Time>
            <Position>
              <LatitudeDegrees>38.55876381509006023406982421875</LatitudeDegrees>
              <LongitudeDegrees>-28.64044723100960254669189453125</LongitudeDegrees>
            </Position>
            <AltitudeMeters>235.8000030517578125</AltitudeMeters>
            <DistanceMeters>26828.027746246</DistanceMeters>
          </Trackpoint>
          <Trackpoint>
            <Time>2020-04-26T17:36:25.000Z</Time>
            <Position>
              <LatitudeDegrees>38.558803461492061614990234375</LatitudeDegrees>
              <LongitudeDegrees>-28.64054278470575809478759765625</LongitudeDegrees>
            </Position>
            <AltitudeMeters>236.1999969482421875</AltitudeMeters>
            <DistanceMeters>26837.44258721</DistanceMeters>
          </Trackpoint>
          <Trackpoint>
            <Time>2020-04-26T17:36:26.000Z</Time>
            <Position>
              <LatitudeDegrees>38.5588187165558338165283203125</LatitudeDegrees>
              <LongitudeDegrees>-28.6405931599438190460205078125</LongitudeDegrees>
            </Position>
            <AltitudeMeters>236.600006103515625</AltitudeMeters>
            <DistanceMeters>26842.144249377</DistanceMeters>
          </Trackpoint>
          <Trackpoint>
            <Time>2020-04-26T17:36:28.000Z</Time>
            <Position>
              <LatitudeDegrees>38.55883690528571605682373046875</LatitudeDegrees>
              <LongitudeDegrees>-28.64069852046668529510498046875</LongitudeDegrees>
            </Position>
            <AltitudeMeters>237.1999969482421875</AltitudeMeters>
            <DistanceMeters>26851.535081425</DistanceMeters>
          </Trackpoint>
          <Trackpoint>
            <Time>2020-04-26T17:36:29.000Z</Time>
            <Position>
              <LatitudeDegrees>38.5588467121124267578125</LatitudeDegrees>
              <LongitudeDegrees>-28.640754930675029754638671875</LongitudeDegrees>
            </Position>
            <AltitudeMeters>237.399993896484375</AltitudeMeters>
            <DistanceMeters>26856.564320346</DistanceMeters>
          </Trackpoint>
          <Trackpoint>
            <Time>2020-04-26T17:36:31.000Z</Time>
            <Position>
              <LatitudeDegrees>38.55885702185332775115966796875</LatitudeDegrees>
              <LongitudeDegrees>-28.64087068475782871246337890625</LongitudeDegrees>
            </Position>
            <AltitudeMeters>238</AltitudeMeters>
            <DistanceMeters>26866.704165038</DistanceMeters>
          </Trackpoint>
          <Trackpoint>
            <Time>2020-04-26T17:36:32.000Z</Time>
            <Position>
              <LatitudeDegrees>38.55886238627135753631591796875</LatitudeDegrees>
              <LongitudeDegrees>-28.64092617295682430267333984375</LongitudeDegrees>
            </Position>
            <AltitudeMeters>238.1999969482421875</AltitudeMeters>
            <DistanceMeters>26871.570052464</DistanceMeters>
          </Trackpoint>
          <Trackpoint>
            <Time>2020-04-26T17:36:38.000Z</Time>
            <Position>
              <LatitudeDegrees>38.5588787309825420379638671875</LatitudeDegrees>
              <LongitudeDegrees>-28.6412650533020496368408203125</LongitudeDegrees>
            </Position>
            <AltitudeMeters>239.399993896484375</AltitudeMeters>
            <DistanceMeters>26901.120457745</DistanceMeters>
          </Trackpoint>
          <Trackpoint>
            <Time>2020-04-26T17:36:39.000Z</Time>
            <Position>
              <LatitudeDegrees>38.55888199992477893829345703125</LatitudeDegrees>
              <LongitudeDegrees>-28.64131911657750606536865234375</LongitudeDegrees>
            </Position>
            <AltitudeMeters>239.600006103515625</AltitudeMeters>
            <DistanceMeters>26905.840330475</DistanceMeters>
          </Trackpoint>
          <Trackpoint>
            <Time>2020-04-26T17:36:44.000Z</Time>
            <Position>
              <LatitudeDegrees>38.5589216463267803192138671875</LatitudeDegrees>
              <LongitudeDegrees>-28.64158800803124904632568359375</LongitudeDegrees>
            </Position>
            <AltitudeMeters>240.8000030517578125</AltitudeMeters>
            <DistanceMeters>26929.655852754</DistanceMeters>
          </Trackpoint>
          <Trackpoint>
            <Time>2020-04-26T17:36:47.000Z</Time>
            <Position>
              <LatitudeDegrees>38.55896246619522571563720703125</LatitudeDegrees>
              <LongitudeDegrees>-28.64173762500286102294921875</LongitudeDegrees>
            </Position>
            <AltitudeMeters>241.399993896484375</AltitudeMeters>
            <DistanceMeters>26943.447499872</DistanceMeters>
          </Trackpoint>
          <Trackpoint>
            <Time>2020-04-26T17:36:50.000Z</Time>
            <Position>
              <LatitudeDegrees>38.55900890193879604339599609375</LatitudeDegrees>
              <LongitudeDegrees>-28.641887493431568145751953125</LongitudeDegrees>
            </Position>
            <AltitudeMeters>242.1999969482421875</AltitudeMeters>
            <DistanceMeters>26957.477704304</DistanceMeters>
          </Trackpoint>
          <Trackpoint>
            <Time>2020-04-26T17:36:55.000Z</Time>
            <Position>
              <LatitudeDegrees>38.5590862669050693511962890625</LatitudeDegrees>
              <LongitudeDegrees>-28.64214808680117130279541015625</LongitudeDegrees>
            </Position>
            <AltitudeMeters>243.1999969482421875</AltitudeMeters>
            <DistanceMeters>26981.737821624</DistanceMeters>
          </Trackpoint>
          <Trackpoint>
            <Time>2020-04-26T17:36:56.000Z</Time>
            <Position>
              <LatitudeDegrees>38.55910546146333217620849609375</LatitudeDegrees>
              <LongitudeDegrees>-28.64219653420150279998779296875</LongitudeDegrees>
            </Position>
            <AltitudeMeters>243.399993896484375</AltitudeMeters>
            <DistanceMeters>26986.464385823</DistanceMeters>
          </Trackpoint>
          <Trackpoint>
            <Time>2020-04-26T17:37:01.000Z</Time>
            <Position>
              <LatitudeDegrees>38.5591995902359485626220703125</LatitudeDegrees>
              <LongitudeDegrees>-28.64244547672569751739501953125</LongitudeDegrees>
            </Position>
            <AltitudeMeters>244.600006103515625</AltitudeMeters>
            <DistanceMeters>27010.531108974</DistanceMeters>
          </Trackpoint>
          <Trackpoint>
            <Time>2020-04-26T17:37:04.000Z</Time>
            <Position>
              <LatitudeDegrees>38.55926421470940113067626953125</LatitudeDegrees>
              <LongitudeDegrees>-28.6426024697721004486083984375</LongitudeDegrees>
            </Position>
            <AltitudeMeters>245.1999969482421875</AltitudeMeters>
            <DistanceMeters>27025.972292168</DistanceMeters>
          </Trackpoint>
          <Trackpoint>
            <Time>2020-04-26T17:37:06.000Z</Time>
            <Position>
              <LatitudeDegrees>38.55931165628135204315185546875</LatitudeDegrees>
              <LongitudeDegrees>-28.64270296879112720489501953125</LongitudeDegrees>
            </Position>
            <AltitudeMeters>245.600006103515625</AltitudeMeters>
            <DistanceMeters>27036.189321271</DistanceMeters>
          </Trackpoint>
          <Trackpoint>
            <Time>2020-04-26T17:37:10.000Z</Time>
            <Position>
              <LatitudeDegrees>38.55940100736916065216064453125</LatitudeDegrees>
              <LongitudeDegrees>-28.64291436038911342620849609375</LongitudeDegrees>
            </Position>
            <AltitudeMeters>246.8000030517578125</AltitudeMeters>
            <DistanceMeters>27057.103403675</DistanceMeters>
          </Trackpoint>
          <Trackpoint>
            <Time>2020-04-26T17:37:12.000Z</Time>
            <Position>
              <LatitudeDegrees>38.55944593437016010284423828125</LatitudeDegrees>
              <LongitudeDegrees>-28.6430192179977893829345703125</LongitudeDegrees>
            </Position>
            <AltitudeMeters>247.1999969482421875</AltitudeMeters>
            <DistanceMeters>27067.509154327</DistanceMeters>
          </Trackpoint>
          <Trackpoint>
            <Time>2020-04-26T17:37:14.000Z</Time>
            <Position>
              <LatitudeDegrees>38.55949622578918933868408203125</LatitudeDegrees>
              <LongitudeDegrees>-28.64312591962516307830810546875</LongitudeDegrees>
            </Position>
            <AltitudeMeters>248</AltitudeMeters>
            <DistanceMeters>27078.352197964</DistanceMeters>
          </Trackpoint>
          <Trackpoint>
            <Time>2020-04-26T17:37:19.000Z</Time>
            <Position>
              <LatitudeDegrees>38.559614829719066619873046875</LatitudeDegrees>
              <LongitudeDegrees>-28.6433769576251506805419921875</LongitudeDegrees>
            </Position>
            <AltitudeMeters>249</AltitudeMeters>
            <DistanceMeters>27103.879387516</DistanceMeters>
          </Trackpoint>
          <Trackpoint>
            <Time>2020-04-26T17:37:20.000Z</Time>
            <Position>
              <LatitudeDegrees>38.55963503010571002960205078125</LatitudeDegrees>
              <LongitudeDegrees>-28.64342783577740192413330078125</LongitudeDegrees>
            </Position>
            <AltitudeMeters>249.399993896484375</AltitudeMeters>
            <DistanceMeters>27108.845385781</DistanceMeters>
          </Trackpoint>
          <Trackpoint>
            <Time>2020-04-26T17:37:23.000Z</Time>
            <Position>
              <LatitudeDegrees>38.5597004927694797515869140625</LatitudeDegrees>
              <LongitudeDegrees>-28.64358223043382167816162109375</LongitudeDegrees>
            </Position>
            <AltitudeMeters>250.399993896484375</AltitudeMeters>
            <DistanceMeters>27124.131400895</DistanceMeters>
          </Trackpoint>
          <Trackpoint>
            <Time>2020-04-26T17:37:26.000Z</Time>
            <Position>
              <LatitudeDegrees>38.5597454197704792022705078125</LatitudeDegrees>
              <LongitudeDegrees>-28.64374852739274501800537109375</LongitudeDegrees>
            </Position>
            <AltitudeMeters>250.8000030517578125</AltitudeMeters>
            <DistanceMeters>27139.443976281</DistanceMeters>
          </Trackpoint>
          <Trackpoint>
            <Time>2020-04-26T17:37:27.000Z</Time>
            <Position>
              <LatitudeDegrees>38.55975321494042873382568359375</LatitudeDegrees>
              <LongitudeDegrees>-28.64380435086786746978759765625</LongitudeDegrees>
            </Position>
            <AltitudeMeters>251</AltitudeMeters>
            <DistanceMeters>27144.378965254</DistanceMeters>
          </Trackpoint>
          <Trackpoint>
            <Time>2020-04-26T17:37:28.000Z</Time>
            <Position>
              <LatitudeDegrees>38.55975707061588764190673828125</LatitudeDegrees>
              <LongitudeDegrees>-28.64386235363781452178955078125</LongitudeDegrees>
            </Position>
            <AltitudeMeters>251.399993896484375</AltitudeMeters>
            <DistanceMeters>27149.444878524</DistanceMeters>
          </Trackpoint>
          <Trackpoint>
            <Time>2020-04-26T17:37:30.000Z</Time>
            <Position>
              <LatitudeDegrees>38.5597548075020313262939453125</LatitudeDegrees>
              <LongitudeDegrees>-28.64396989345550537109375</LongitudeDegrees>
            </Position>
            <AltitudeMeters>252.1999969482421875</AltitudeMeters>
            <DistanceMeters>27158.807783101</DistanceMeters>
          </Trackpoint>
          <Trackpoint>
            <Time>2020-04-26T17:37:32.000Z</Time>
            <Position>
              <LatitudeDegrees>38.55973879806697368621826171875</LatitudeDegrees>
              <LongitudeDegrees>-28.64408212713897228240966796875</LongitudeDegrees>
            </Position>
            <AltitudeMeters>252.600006103515625</AltitudeMeters>
            <DistanceMeters>27168.737051685</DistanceMeters>
          </Trackpoint>
          <Trackpoint>
            <Time>2020-04-26T17:37:37.000Z</Time>
            <Position>
              <LatitudeDegrees>38.5596428252756595611572265625</LatitudeDegrees>
              <LongitudeDegrees>-28.64433534443378448486328125</LongitudeDegrees>
            </Position>
            <AltitudeMeters>253.600006103515625</AltitudeMeters>
            <DistanceMeters>27193.227779268</DistanceMeters>
          </Trackpoint>
          <Trackpoint>
            <Time>2020-04-26T17:37:42.000Z</Time>
            <Position>
              <LatitudeDegrees>38.55950041674077510833740234375</LatitudeDegrees>
              <LongitudeDegrees>-28.64451731555163860321044921875</LongitudeDegrees>
            </Position>
            <AltitudeMeters>254.8000030517578125</AltitudeMeters>
            <DistanceMeters>27215.634748056</DistanceMeters>
          </Trackpoint>
          <Trackpoint>
            <Time>2020-04-26T17:37:43.000Z</Time>
            <Position>
              <LatitudeDegrees>38.55946789495646953582763671875</LatitudeDegrees>
              <LongitudeDegrees>-28.64455285482108592987060546875</LongitudeDegrees>
            </Position>
            <AltitudeMeters>255</AltitudeMeters>
            <DistanceMeters>27220.39747333</DistanceMeters>
          </Trackpoint>
          <Trackpoint>
            <Time>2020-04-26T17:37:48.000Z</Time>
            <Position>
              <LatitudeDegrees>38.55933663435280323028564453125</LatitudeDegrees>
              <LongitudeDegrees>-28.64474379457533359527587890625</LongitudeDegrees>
            </Position>
            <AltitudeMeters>255.8000030517578125</AltitudeMeters>
            <DistanceMeters>27242.524418774</DistanceMeters>
          </Trackpoint>
          <Trackpoint>
            <Time>2020-04-26T17:37:49.000Z</Time>
            <Position>
              <LatitudeDegrees>38.55931618250906467437744140625</LatitudeDegrees>
              <LongitudeDegrees>-28.64479090087115764617919921875</LongitudeDegrees>
            </Position>
            <AltitudeMeters>256</AltitudeMeters>
            <DistanceMeters>27247.213580335</DistanceMeters>
          </Trackpoint>
          <Trackpoint>
            <Time>2020-04-26T17:37:50.000Z</Time>
            <Position>
              <LatitudeDegrees>38.5592931322753429412841796875</LatitudeDegrees>
              <LongitudeDegrees>-28.6448337323963642120361328125</LongitudeDegrees>
            </Position>
            <AltitudeMeters>256.20001220703125</AltitudeMeters>
            <DistanceMeters>27251.739087309</DistanceMeters>
          </Trackpoint>
          <Trackpoint>
            <Time>2020-04-26T17:37:53.000Z</Time>
            <Position>
              <LatitudeDegrees>38.55923253111541271209716796875</LatitudeDegrees>
              <LongitudeDegrees>-28.64496574737131595611572265625</LongitudeDegrees>
            </Position>
            <AltitudeMeters>257</AltitudeMeters>
            <DistanceMeters>27265.062496885</DistanceMeters>
          </Trackpoint>
          <Trackpoint>
            <Time>2020-04-26T17:37:59.000Z</Time>
            <Position>
              <LatitudeDegrees>38.55911954306066036224365234375</LatitudeDegrees>
              <LongitudeDegrees>-28.64522977732121944427490234375</LongitudeDegrees>
            </Position>
            <AltitudeMeters>258.20001220703125</AltitudeMeters>
            <DistanceMeters>27291.258175329</DistanceMeters>
          </Trackpoint>
          <Trackpoint>
            <Time>2020-04-26T17:38:03.000Z</Time>
            <Position>
              <LatitudeDegrees>38.55903379619121551513671875</LatitudeDegrees>
              <LongitudeDegrees>-28.64538014866411685943603515625</LongitudeDegrees>
            </Position>
            <AltitudeMeters>259.20001220703125</AltitudeMeters>
            <DistanceMeters>27307.455701097</DistanceMeters>
          </Trackpoint>
          <Trackpoint>
            <Time>2020-04-26T17:38:05.000Z</Time>
            <Position>
              <LatitudeDegrees>38.55897872708737850189208984375</LatitudeDegrees>
              <LongitudeDegrees>-28.645455837249755859375</LongitudeDegrees>
            </Position>
            <AltitudeMeters>259.399993896484375</AltitudeMeters>
            <DistanceMeters>27316.453682282</DistanceMeters>
          </Trackpoint>
          <Trackpoint>
            <Time>2020-04-26T17:38:09.000Z</Time>
            <Position>
              <LatitudeDegrees>38.55889624916017055511474609375</LatitudeDegrees>
              <LongitudeDegrees>-28.6456259898841381072998046875</LongitudeDegrees>
            </Position>
            <AltitudeMeters>260.20001220703125</AltitudeMeters>
            <DistanceMeters>27333.877290977</DistanceMeters>
          </Trackpoint>
          <Trackpoint>
            <Time>2020-04-26T17:38:11.000Z</Time>
            <Position>
              <LatitudeDegrees>38.558881245553493499755859375</LatitudeDegrees>
              <LongitudeDegrees>-28.64572942256927490234375</LongitudeDegrees>
            </Position>
            <AltitudeMeters>260.399993896484375</AltitudeMeters>
            <DistanceMeters>27343.033448998</DistanceMeters>
          </Trackpoint>
          <Trackpoint>
            <Time>2020-04-26T17:38:18.000Z</Time>
            <Position>
              <LatitudeDegrees>38.5588874481618404388427734375</LatitudeDegrees>
              <LongitudeDegrees>-28.64609696902334690093994140625</LongitudeDegrees>
            </Position>
            <AltitudeMeters>261.20001220703125</AltitudeMeters>
            <DistanceMeters>27375.030370365</DistanceMeters>
          </Trackpoint>
          <Trackpoint>
            <Time>2020-04-26T17:38:24.000Z</Time>
            <Position>
              <LatitudeDegrees>38.55894084088504314422607421875</LatitudeDegrees>
              <LongitudeDegrees>-28.646394945681095123291015625</LongitudeDegrees>
            </Position>
            <AltitudeMeters>262.399993896484375</AltitudeMeters>
            <DistanceMeters>27401.637001923</DistanceMeters>
          </Trackpoint>
          <Trackpoint>
            <Time>2020-04-26T17:38:28.000Z</Time>
            <Position>
              <LatitudeDegrees>38.5589752905070781707763671875</LatitudeDegrees>
              <LongitudeDegrees>-28.64660206250846385955810546875</LongitudeDegrees>
            </Position>
            <AltitudeMeters>263.399993896484375</AltitudeMeters>
            <DistanceMeters>27420.066550623</DistanceMeters>
          </Trackpoint>
          <Trackpoint>
            <Time>2020-04-26T17:38:32.000Z</Time>
            <Position>
              <LatitudeDegrees>38.55900621972978115081787109375</LatitudeDegrees>
              <LongitudeDegrees>-28.64681328646838665008544921875</LongitudeDegrees>
            </Position>
            <AltitudeMeters>264.600006103515625</AltitudeMeters>
            <DistanceMeters>27438.769681411</DistanceMeters>
          </Trackpoint>
          <Trackpoint>
            <Time>2020-04-26T17:38:33.000Z</Time>
            <Position>
              <LatitudeDegrees>38.559014685451984405517578125</LatitudeDegrees>
              <LongitudeDegrees>-28.646866343915462493896484375</LongitudeDegrees>
            </Position>
            <AltitudeMeters>264.600006103515625</AltitudeMeters>
            <DistanceMeters>27443.482853172</DistanceMeters>
          </Trackpoint>
          <Trackpoint>
            <Time>2020-04-26T17:38:36.000Z</Time>
            <Position>
              <LatitudeDegrees>38.55904318392276763916015625</LatitudeDegrees>
              <LongitudeDegrees>-28.647014535963535308837890625</LongitudeDegrees>
            </Position>
            <AltitudeMeters>265.20001220703125</AltitudeMeters>
            <DistanceMeters>27456.764855032</DistanceMeters>
          </Trackpoint>
          <Trackpoint>
            <Time>2020-04-26T17:38:38.000Z</Time>
            <Position>
              <LatitudeDegrees>38.5590544156730175018310546875</LatitudeDegrees>
              <LongitudeDegrees>-28.6471193097531795501708984375</LongitudeDegrees>
            </Position>
            <AltitudeMeters>265.79998779296875</AltitudeMeters>
            <DistanceMeters>27465.969211457</DistanceMeters>
          </Trackpoint>
          <Trackpoint>
            <Time>2020-04-26T17:38:39.000Z</Time>
            <Position>
              <LatitudeDegrees>38.559059612452983856201171875</LatitudeDegrees>
              <LongitudeDegrees>-28.64717102609574794769287109375</LongitudeDegrees>
            </Position>
            <AltitudeMeters>266.20001220703125</AltitudeMeters>
            <DistanceMeters>27470.506674878</DistanceMeters>
          </Trackpoint>
          <Trackpoint>
            <Time>2020-04-26T17:38:43.000Z</Time>
            <Position>
              <LatitudeDegrees>38.55908215977251529693603515625</LatitudeDegrees>
              <LongitudeDegrees>-28.647383339703083038330078125</LongitudeDegrees>
            </Position>
            <AltitudeMeters>267</AltitudeMeters>
            <DistanceMeters>27489.15468399</DistanceMeters>
          </Trackpoint>
          <Trackpoint>
            <Time>2020-04-26T17:38:46.000Z</Time>
            <Position>
              <LatitudeDegrees>38.5590894520282745361328125</LatitudeDegrees>
              <LongitudeDegrees>-28.64753714762628078460693359375</LongitudeDegrees>
            </Position>
            <AltitudeMeters>268</AltitudeMeters>
            <DistanceMeters>27502.565912965</DistanceMeters>
          </Trackpoint>
          <Trackpoint>
            <Time>2020-04-26T17:38:48.000Z</Time>
            <Position>
              <LatitudeDegrees>38.5590842552483081817626953125</LatitudeDegrees>
              <LongitudeDegrees>-28.6476430110633373260498046875</LongitudeDegrees>
            </Position>
            <AltitudeMeters>268.600006103515625</AltitudeMeters>
            <DistanceMeters>27511.797698354</DistanceMeters>
          </Trackpoint>
          <Trackpoint>
            <Time>2020-04-26T17:38:51.000Z</Time>
            <Position>
              <LatitudeDegrees>38.55907780118286609649658203125</LatitudeDegrees>
              <LongitudeDegrees>-28.64780209958553314208984375</LongitudeDegrees>
            </Position>
            <AltitudeMeters>269.20001220703125</AltitudeMeters>
            <DistanceMeters>27525.662483507</DistanceMeters>
          </Trackpoint>
          <Trackpoint>
            <Time>2020-04-26T17:38:54.000Z</Time>
            <Position>
              <LatitudeDegrees>38.55902516283094882965087890625</LatitudeDegrees>
              <LongitudeDegrees>-28.64793931134045124053955078125</LongitudeDegrees>
            </Position>
            <AltitudeMeters>269.600006103515625</AltitudeMeters>
            <DistanceMeters>27538.964187077</DistanceMeters>
          </Trackpoint>
          <Trackpoint>
            <Time>2020-04-26T17:38:57.000Z</Time>
            <Position>
              <LatitudeDegrees>38.558982498943805694580078125</LatitudeDegrees>
              <LongitudeDegrees>-28.6480751819908618927001953125</LongitudeDegrees>
            </Position>
            <AltitudeMeters>270.20001220703125</AltitudeMeters>
            <DistanceMeters>27551.707691099</DistanceMeters>
          </Trackpoint>
          <Trackpoint>
            <Time>2020-04-26T17:39:01.000Z</Time>
            <Position>
              <LatitudeDegrees>38.558919467031955718994140625</LatitudeDegrees>
              <LongitudeDegrees>-28.64827022887766361236572265625</LongitudeDegrees>
            </Position>
            <AltitudeMeters>271.20001220703125</AltitudeMeters>
            <DistanceMeters>27570.076136222</DistanceMeters>
          </Trackpoint>
          <Trackpoint>
            <Time>2020-04-26T17:39:06.000Z</Time>
            <Position>
              <LatitudeDegrees>38.558843024075031280517578125</LatitudeDegrees>
              <LongitudeDegrees>-28.64851422607898712158203125</LongitudeDegrees>
            </Position>
            <AltitudeMeters>272.399993896484375</AltitudeMeters>
            <DistanceMeters>27592.953509337</DistanceMeters>
          </Trackpoint>
          <Trackpoint>
            <Time>2020-04-26T17:39:09.000Z</Time>
            <Position>
              <LatitudeDegrees>38.55879868380725383758544921875</LatitudeDegrees>
              <LongitudeDegrees>-28.64866099320352077484130859375</LongitudeDegrees>
            </Position>
            <AltitudeMeters>272.399993896484375</AltitudeMeters>
            <DistanceMeters>27606.64791066</DistanceMeters>
          </Trackpoint>
          <Trackpoint>
            <Time>2020-04-26T17:39:11.000Z</Time>
            <Position>
              <LatitudeDegrees>38.558784686028957366943359375</LatitudeDegrees>
              <LongitudeDegrees>-28.648767359554767608642578125</LongitudeDegrees>
            </Position>
            <AltitudeMeters>273</AltitudeMeters>
            <DistanceMeters>27616.035857511</DistanceMeters>
          </Trackpoint>
          <Trackpoint>
            <Time>2020-04-26T17:39:13.000Z</Time>
            <Position>
              <LatitudeDegrees>38.55878812260925769805908203125</LatitudeDegrees>
              <LongitudeDegrees>-28.64887322299182415008544921875</LongitudeDegrees>
            </Position>
            <AltitudeMeters>273.399993896484375</AltitudeMeters>
            <DistanceMeters>27625.2573666</DistanceMeters>
          </Trackpoint>
          <Trackpoint>
            <Time>2020-04-26T17:39:14.000Z</Time>
            <Position>
              <LatitudeDegrees>38.55879834853112697601318359375</LatitudeDegrees>
              <LongitudeDegrees>-28.64892401732504367828369140625</LongitudeDegrees>
            </Position>
            <AltitudeMeters>273.79998779296875</AltitudeMeters>
            <DistanceMeters>27629.822606619</DistanceMeters>
          </Trackpoint>
          <Trackpoint>
            <Time>2020-04-26T17:39:16.000Z</Time>
            <Position>
              <LatitudeDegrees>38.55883237905800342559814453125</LatitudeDegrees>
              <LongitudeDegrees>-28.64901755936443805694580078125</LongitudeDegrees>
            </Position>
            <AltitudeMeters>274.600006103515625</AltitudeMeters>
            <DistanceMeters>27638.80250543</DistanceMeters>
          </Trackpoint>
          <Trackpoint>
            <Time>2020-04-26T17:39:18.000Z</Time>
            <Position>
              <LatitudeDegrees>38.55888015590608119964599609375</LatitudeDegrees>
              <LongitudeDegrees>-28.64909467287361621856689453125</LongitudeDegrees>
            </Position>
            <AltitudeMeters>275.399993896484375</AltitudeMeters>
            <DistanceMeters>27647.365461737</DistanceMeters>
          </Trackpoint>
          <Trackpoint>
            <Time>2020-04-26T17:39:19.000Z</Time>
            <Position>
              <LatitudeDegrees>38.5589109174907207489013671875</LatitudeDegrees>
              <LongitudeDegrees>-28.64912266843020915985107421875</LongitudeDegrees>
            </Position>
            <AltitudeMeters>275.79998779296875</AltitudeMeters>
            <DistanceMeters>27651.568178659</DistanceMeters>
          </Trackpoint>
          <Trackpoint>
            <Time>2020-04-26T17:39:24.000Z</Time>
            <Position>
              <LatitudeDegrees>38.55905919335782527923583984375</LatitudeDegrees>
              <LongitudeDegrees>-28.64926147274672985076904296875</LongitudeDegrees>
            </Position>
            <AltitudeMeters>277.20001220703125</AltitudeMeters>
            <DistanceMeters>27672.02078879</DistanceMeters>
          </Trackpoint>
          <Trackpoint>
            <Time>2020-04-26T17:39:26.000Z</Time>
            <Position>
              <LatitudeDegrees>38.55912029743194580078125</LatitudeDegrees>
              <LongitudeDegrees>-28.64931377582252025604248046875</LongitudeDegrees>
            </Position>
            <AltitudeMeters>277.79998779296875</AltitudeMeters>
            <DistanceMeters>27680.205231781</DistanceMeters>
          </Trackpoint>
          <Trackpoint>
            <Time>2020-04-26T17:39:28.000Z</Time>
            <Position>
              <LatitudeDegrees>38.55918240733444690704345703125</LatitudeDegrees>
              <LongitudeDegrees>-28.6493670009076595306396484375</LongitudeDegrees>
            </Position>
            <AltitudeMeters>278.20001220703125</AltitudeMeters>
            <DistanceMeters>27688.526447207</DistanceMeters>
          </Trackpoint>
          <Trackpoint>
            <Time>2020-04-26T17:39:32.000Z</Time>
            <Position>
              <LatitudeDegrees>38.559312410652637481689453125</LatitudeDegrees>
              <LongitudeDegrees>-28.64946096204221248626708984375</LongitudeDegrees>
            </Position>
            <AltitudeMeters>279.399993896484375</AltitudeMeters>
            <DistanceMeters>27705.147160145</DistanceMeters>
          </Trackpoint>
          <Trackpoint>
            <Time>2020-04-26T17:39:33.000Z</Time>
            <Position>
              <LatitudeDegrees>38.55934283696115016937255859375</LatitudeDegrees>
              <LongitudeDegrees>-28.64948878996074199676513671875</LongitudeDegrees>
            </Position>
            <AltitudeMeters>279.20001220703125</AltitudeMeters>
            <DistanceMeters>27709.308852904</DistanceMeters>
          </Trackpoint>
          <Trackpoint>
            <Time>2020-04-26T17:39:38.000Z</Time>
            <Position>
              <LatitudeDegrees>38.5595093853771686553955078125</LatitudeDegrees>
              <LongitudeDegrees>-28.6496140994131565093994140625</LongitudeDegrees>
            </Position>
            <AltitudeMeters>280.600006103515625</AltitudeMeters>
            <DistanceMeters>27730.816192717</DistanceMeters>
          </Trackpoint>
          <Trackpoint>
            <Time>2020-04-26T17:39:42.000Z</Time>
            <Position>
              <LatitudeDegrees>38.55964601039886474609375</LatitudeDegrees>
              <LongitudeDegrees>-28.64971962757408618927001953125</LongitudeDegrees>
            </Position>
            <AltitudeMeters>281</AltitudeMeters>
            <DistanceMeters>27748.580851779</DistanceMeters>
          </Trackpoint>
          <Trackpoint>
            <Time>2020-04-26T17:39:46.000Z</Time>
            <Position>
              <LatitudeDegrees>38.55977986939251422882080078125</LatitudeDegrees>
              <LongitudeDegrees>-28.6498360522091388702392578125</LongitudeDegrees>
            </Position>
            <AltitudeMeters>281.600006103515625</AltitudeMeters>
            <DistanceMeters>27766.598879093</DistanceMeters>
          </Trackpoint>
          <Trackpoint>
            <Time>2020-04-26T17:39:50.000Z</Time>
            <Position>
              <LatitudeDegrees>38.55990610085427761077880859375</LatitudeDegrees>
              <LongitudeDegrees>-28.649971000850200653076171875</LongitudeDegrees>
            </Position>
            <AltitudeMeters>282.600006103515625</AltitudeMeters>
            <DistanceMeters>27784.910948576</DistanceMeters>
          </Trackpoint>
          <Trackpoint>
            <Time>2020-04-26T17:39:52.000Z</Time>
            <Position>
              <LatitudeDegrees>38.55995471589267253875732421875</LatitudeDegrees>
              <LongitudeDegrees>-28.65006144158542156219482421875</LongitudeDegrees>
            </Position>
            <AltitudeMeters>283</AltitudeMeters>
            <DistanceMeters>27794.462433399</DistanceMeters>
          </Trackpoint>
          <Trackpoint>
            <Time>2020-04-26T17:39:55.000Z</Time>
            <Position>
              <LatitudeDegrees>38.56000131927430629730224609375</LatitudeDegrees>
              <LongitudeDegrees>-28.6502129025757312774658203125</LongitudeDegrees>
            </Position>
            <AltitudeMeters>283.20001220703125</AltitudeMeters>
            <DistanceMeters>27808.62810877</DistanceMeters>
          </Trackpoint>
          <Trackpoint>
            <Time>2020-04-26T17:39:58.000Z</Time>
            <Position>
              <LatitudeDegrees>38.56004155240952968597412109375</LatitudeDegrees>
              <LongitudeDegrees>-28.650367297232151031494140625</LongitudeDegrees>
            </Position>
            <AltitudeMeters>283.399993896484375</AltitudeMeters>
            <DistanceMeters>27822.792509161</DistanceMeters>
          </Trackpoint>
          <Trackpoint>
            <Time>2020-04-26T17:40:02.000Z</Time>
            <Position>
              <LatitudeDegrees>38.5601041652262210845947265625</LatitudeDegrees>
              <LongitudeDegrees>-28.650570809841156005859375</LongitudeDegrees>
            </Position>
            <AltitudeMeters>283.79998779296875</AltitudeMeters>
            <DistanceMeters>27841.826338701</DistanceMeters>
          </Trackpoint>
          <Trackpoint>
            <Time>2020-04-26T17:40:03.000Z</Time>
            <Position>
              <LatitudeDegrees>38.5601165704429149627685546875</LatitudeDegrees>
              <LongitudeDegrees>-28.6506246216595172882080078125</LongitudeDegrees>
            </Position>
            <AltitudeMeters>284</AltitudeMeters>
            <DistanceMeters>27846.70889969</DistanceMeters>
          </Trackpoint>
          <Trackpoint>
            <Time>2020-04-26T17:40:09.000Z</Time>
            <Position>
              <LatitudeDegrees>38.56020349077880382537841796875</LatitudeDegrees>
              <LongitudeDegrees>-28.65095025859773159027099609375</LongitudeDegrees>
            </Position>
            <AltitudeMeters>285.20001220703125</AltitudeMeters>
            <DistanceMeters>27876.655736116</DistanceMeters>
          </Trackpoint>
          <Trackpoint>
            <Time>2020-04-26T17:40:10.000Z</Time>
            <Position>
              <LatitudeDegrees>38.560210950672626495361328125</LatitudeDegrees>
              <LongitudeDegrees>-28.65100943483412265777587890625</LongitudeDegrees>
            </Position>
            <AltitudeMeters>285.600006103515625</AltitudeMeters>
            <DistanceMeters>27881.871828555</DistanceMeters>
          </Trackpoint>
          <Trackpoint>
            <Time>2020-04-26T17:40:11.000Z</Time>
            <Position>
              <LatitudeDegrees>38.56021908111870288848876953125</LatitudeDegrees>
              <LongitudeDegrees>-28.651063330471515655517578125</LongitudeDegrees>
            </Position>
            <AltitudeMeters>286.20001220703125</AltitudeMeters>
            <DistanceMeters>27886.648752583</DistanceMeters>
          </Trackpoint>
          <Trackpoint>
            <Time>2020-04-26T17:40:15.000Z</Time>
            <Position>
              <LatitudeDegrees>38.560256548225879669189453125</LatitudeDegrees>
              <LongitudeDegrees>-28.65128888748586177825927734375</LongitudeDegrees>
            </Position>
            <AltitudeMeters>286.79998779296875</AltitudeMeters>
            <DistanceMeters>27906.717620751</DistanceMeters>
          </Trackpoint>
          <Trackpoint>
            <Time>2020-04-26T17:40:18.000Z</Time>
            <Position>
              <LatitudeDegrees>38.56028630398213863372802734375</LatitudeDegrees>
              <LongitudeDegrees>-28.65147781558334827423095703125</LongitudeDegrees>
            </Position>
            <AltitudeMeters>287.20001220703125</AltitudeMeters>
            <DistanceMeters>27923.490845298</DistanceMeters>
          </Trackpoint>
          <Trackpoint>
            <Time>2020-04-26T17:40:19.000Z</Time>
            <Position>
              <LatitudeDegrees>38.56030625291168689727783203125</LatitudeDegrees>
              <LongitudeDegrees>-28.651541769504547119140625</LongitudeDegrees>
            </Position>
            <AltitudeMeters>287.20001220703125</AltitudeMeters>
            <DistanceMeters>27929.483558708</DistanceMeters>
          </Trackpoint>
          <Trackpoint>
            <Time>2020-04-26T17:40:23.000Z</Time>
            <Position>
              <LatitudeDegrees>38.560362160205841064453125</LatitudeDegrees>
              <LongitudeDegrees>-28.65179113112390041351318359375</LongitudeDegrees>
            </Position>
            <AltitudeMeters>288.600006103515625</AltitudeMeters>
            <DistanceMeters>27952.060754174</DistanceMeters>
          </Trackpoint>
          <Trackpoint>
            <Time>2020-04-26T17:40:25.000Z</Time>
            <Position>
              <LatitudeDegrees>38.56037557125091552734375</LatitudeDegrees>
              <LongitudeDegrees>-28.6519137583673000335693359375</LongitudeDegrees>
            </Position>
            <AltitudeMeters>289.20001220703125</AltitudeMeters>
            <DistanceMeters>27962.837805868</DistanceMeters>
          </Trackpoint>
          <Trackpoint>
            <Time>2020-04-26T17:40:26.000Z</Time>
            <Position>
              <LatitudeDegrees>38.560377247631549835205078125</LatitudeDegrees>
              <LongitudeDegrees>-28.65197419188916683197021484375</LongitudeDegrees>
            </Position>
            <AltitudeMeters>289.79998779296875</AltitudeMeters>
            <DistanceMeters>27968.100433012</DistanceMeters>
          </Trackpoint>
          <Trackpoint>
            <Time>2020-04-26T17:40:29.000Z</Time>
            <Position>
              <LatitudeDegrees>38.5603982023894786834716796875</LatitudeDegrees>
              <LongitudeDegrees>-28.6521591804921627044677734375</LongitudeDegrees>
            </Position>
            <AltitudeMeters>290.399993896484375</AltitudeMeters>
            <DistanceMeters>27984.368884398</DistanceMeters>
          </Trackpoint>
          <Trackpoint>
            <Time>2020-04-26T17:40:32.000Z</Time>
            <Position>
              <LatitudeDegrees>38.56041706167161464691162109375</LatitudeDegrees>
              <LongitudeDegrees>-28.65234165452420711517333984375</LongitudeDegrees>
            </Position>
            <AltitudeMeters>291</AltitudeMeters>
            <DistanceMeters>28000.388145067</DistanceMeters>
          </Trackpoint>
          <Trackpoint>
            <Time>2020-04-26T17:40:37.000Z</Time>
            <Position>
              <LatitudeDegrees>38.560444973409175872802734375</LatitudeDegrees>
              <LongitudeDegrees>-28.65262873470783233642578125</LongitudeDegrees>
            </Position>
            <AltitudeMeters>291.79998779296875</AltitudeMeters>
            <DistanceMeters>28025.566100237</DistanceMeters>
          </Trackpoint>
          <Trackpoint>
            <Time>2020-04-26T17:40:38.000Z</Time>
            <Position>
              <LatitudeDegrees>38.5604538582265377044677734375</LatitudeDegrees>
              <LongitudeDegrees>-28.6526852287352085113525390625</LongitudeDegrees>
            </Position>
            <AltitudeMeters>292.20001220703125</AltitudeMeters>
            <DistanceMeters>28030.581854714</DistanceMeters>
          </Trackpoint>
          <Trackpoint>
            <Time>2020-04-26T17:40:43.000Z</Time>
            <Position>
              <LatitudeDegrees>38.56052988208830356597900390625</LatitudeDegrees>
              <LongitudeDegrees>-28.65294850431382656097412109375</LongitudeDegrees>
            </Position>
            <AltitudeMeters>293.20001220703125</AltitudeMeters>
            <DistanceMeters>28055.007787259</DistanceMeters>
          </Trackpoint>
          <Trackpoint>
            <Time>2020-04-26T17:40:47.000Z</Time>
            <Position>
              <LatitudeDegrees>38.5605839453637599945068359375</LatitudeDegrees>
              <LongitudeDegrees>-28.65314799360930919647216796875</LongitudeDegrees>
            </Position>
            <AltitudeMeters>294.20001220703125</AltitudeMeters>
            <DistanceMeters>28073.383113607</DistanceMeters>
          </Trackpoint>
          <Trackpoint>
            <Time>2020-04-26T17:40:51.000Z</Time>
            <Position>
              <LatitudeDegrees>38.5606573708355426788330078125</LatitudeDegrees>
              <LongitudeDegrees>-28.65334278903901576995849609375</LongitudeDegrees>
            </Position>
            <AltitudeMeters>295</AltitudeMeters>
            <DistanceMeters>28092.203681574</DistanceMeters>
          </Trackpoint>
          <Trackpoint>
            <Time>2020-04-26T17:40:52.000Z</Time>
            <Position>
              <LatitudeDegrees>38.56067555956542491912841796875</LatitudeDegrees>
              <LongitudeDegrees>-28.653389476239681243896484375</LongitudeDegrees>
            </Position>
            <AltitudeMeters>295.600006103515625</AltitudeMeters>
            <DistanceMeters>28096.743134674</DistanceMeters>
          </Trackpoint>
          <Trackpoint>
            <Time>2020-04-26T17:40:56.000Z</Time>
            <Position>
              <LatitudeDegrees>38.5607475601136684417724609375</LatitudeDegrees>
              <LongitudeDegrees>-28.65356457419693470001220703125</LongitudeDegrees>
            </Position>
            <AltitudeMeters>296.79998779296875</AltitudeMeters>
            <DistanceMeters>28113.961073274</DistanceMeters>
          </Trackpoint>
          <Trackpoint>
            <Time>2020-04-26T17:41:00.000Z</Time>
            <Position>
              <LatitudeDegrees>38.560821153223514556884765625</LatitudeDegrees>
              <LongitudeDegrees>-28.65372844040393829345703125</LongitudeDegrees>
            </Position>
            <AltitudeMeters>297.600006103515625</AltitudeMeters>
            <DistanceMeters>28130.407284988</DistanceMeters>
          </Trackpoint>
          <Trackpoint>
            <Time>2020-04-26T17:41:02.000Z</Time>
            <Position>
              <LatitudeDegrees>38.5608602128922939300537109375</LatitudeDegrees>
              <LongitudeDegrees>-28.6538047157227993011474609375</LongitudeDegrees>
            </Position>
            <AltitudeMeters>298</AltitudeMeters>
            <DistanceMeters>28138.342442393</DistanceMeters>
          </Trackpoint>
          <Trackpoint>
            <Time>2020-04-26T17:41:06.000Z</Time>
            <Position>
              <LatitudeDegrees>38.5609509050846099853515625</LatitudeDegrees>
              <LongitudeDegrees>-28.653939329087734222412109375</LongitudeDegrees>
            </Position>
            <AltitudeMeters>299</AltitudeMeters>
            <DistanceMeters>28153.80670812</DistanceMeters>
          </Trackpoint>
          <Trackpoint>
            <Time>2020-04-26T17:41:08.000Z</Time>
            <Position>
              <LatitudeDegrees>38.56100295670330524444580078125</LatitudeDegrees>
              <LongitudeDegrees>-28.65400143899023532867431640625</LongitudeDegrees>
            </Position>
            <AltitudeMeters>299.600006103515625</AltitudeMeters>
            <DistanceMeters>28161.72990769</DistanceMeters>
          </Trackpoint>
          <Trackpoint>
            <Time>2020-04-26T17:41:09.000Z</Time>
            <Position>
              <LatitudeDegrees>38.561027012765407562255859375</LatitudeDegrees>
              <LongitudeDegrees>-28.6540370620787143707275390625</LongitudeDegrees>
            </Position>
            <AltitudeMeters>300</AltitudeMeters>
            <DistanceMeters>28165.825988993</DistanceMeters>
          </Trackpoint>
          <Trackpoint>
            <Time>2020-04-26T17:41:14.000Z</Time>
            <Position>
              <LatitudeDegrees>38.5611609555780887603759765625</LatitudeDegrees>
              <LongitudeDegrees>-28.6542023532092571258544921875</LongitudeDegrees>
            </Position>
            <AltitudeMeters>301.399993896484375</AltitudeMeters>
            <DistanceMeters>28186.542902452</DistanceMeters>
          </Trackpoint>
          <Trackpoint>
            <Time>2020-04-26T17:41:16.000Z</Time>
            <Position>
              <LatitudeDegrees>38.561219461262226104736328125</LatitudeDegrees>
              <LongitudeDegrees>-28.65425658412277698516845703125</LongitudeDegrees>
            </Position>
            <AltitudeMeters>301.600006103515625</AltitudeMeters>
            <DistanceMeters>28194.584880287</DistanceMeters>
          </Trackpoint>
          <Trackpoint>
            <Time>2020-04-26T17:41:20.000Z</Time>
            <Position>
              <LatitudeDegrees>38.56133923865854740142822265625</LatitudeDegrees>
              <LongitudeDegrees>-28.654365129768848419189453125</LongitudeDegrees>
            </Position>
            <AltitudeMeters>302.600006103515625</AltitudeMeters>
            <DistanceMeters>28210.923949416</DistanceMeters>
          </Trackpoint>
          <Trackpoint>
            <Time>2020-04-26T17:41:24.000Z</Time>
            <Position>
              <LatitudeDegrees>38.561464883387088775634765625</LatitudeDegrees>
              <LongitudeDegrees>-28.65448406897485256195068359375</LongitudeDegrees>
            </Position>
            <AltitudeMeters>303.79998779296875</AltitudeMeters>
            <DistanceMeters>28228.322923026</DistanceMeters>
          </Trackpoint>
          <Trackpoint>
            <Time>2020-04-26T17:41:29.000Z</Time>
            <Position>
              <LatitudeDegrees>38.561564795672893524169921875</LatitudeDegrees>
              <LongitudeDegrees>-28.6546893417835235595703125</LongitudeDegrees>
            </Position>
            <AltitudeMeters>305.20001220703125</AltitudeMeters>
            <DistanceMeters>28249.366566932</DistanceMeters>
          </Trackpoint>
          <Trackpoint>
            <Time>2020-04-26T17:41:34.000Z</Time>
            <Position>
              <LatitudeDegrees>38.5616253130137920379638671875</LatitudeDegrees>
              <LongitudeDegrees>-28.654935769736766815185546875</LongitudeDegrees>
            </Position>
            <AltitudeMeters>306.20001220703125</AltitudeMeters>
            <DistanceMeters>28271.846360924</DistanceMeters>
          </Trackpoint>
          <Trackpoint>
            <Time>2020-04-26T17:41:36.000Z</Time>
            <Position>
              <LatitudeDegrees>38.5616450943052768707275390625</LatitudeDegrees>
              <LongitudeDegrees>-28.65503626875579357147216796875</LongitudeDegrees>
            </Position>
            <AltitudeMeters>306.79998779296875</AltitudeMeters>
            <DistanceMeters>28280.865392392</DistanceMeters>
          </Trackpoint>
          <Trackpoint>
            <Time>2020-04-26T17:41:38.000Z</Time>
            <Position>
              <LatitudeDegrees>38.56165565550327301025390625</LatitudeDegrees>
              <LongitudeDegrees>-28.65512981079518795013427734375</LongitudeDegrees>
            </Position>
            <AltitudeMeters>307.399993896484375</AltitudeMeters>
            <DistanceMeters>28289.091105904</DistanceMeters>
          </Trackpoint>
          <Trackpoint>
            <Time>2020-04-26T17:41:41.000Z</Time>
            <Position>
              <LatitudeDegrees>38.56165221892297267913818359375</LatitudeDegrees>
              <LongitudeDegrees>-28.6552604846656322479248046875</LongitudeDegrees>
            </Position>
            <AltitudeMeters>308.20001220703125</AltitudeMeters>
            <DistanceMeters>28300.46973658</DistanceMeters>
          </Trackpoint>
          <Trackpoint>
            <Time>2020-04-26T17:41:42.000Z</Time>
            <Position>
              <LatitudeDegrees>38.56163998134434223175048828125</LatitudeDegrees>
              <LongitudeDegrees>-28.6553104408085346221923828125</LongitudeDegrees>
            </Position>
            <AltitudeMeters>308.399993896484375</AltitudeMeters>
            <DistanceMeters>28305.027057703</DistanceMeters>
          </Trackpoint>
          <Trackpoint>
            <Time>2020-04-26T17:41:45.000Z</Time>
            <Position>
              <LatitudeDegrees>38.5615924559533596038818359375</LatitudeDegrees>
              <LongitudeDegrees>-28.65544480271637439727783203125</LongitudeDegrees>
            </Position>
            <AltitudeMeters>308.79998779296875</AltitudeMeters>
            <DistanceMeters>28317.860942319</DistanceMeters>
          </Trackpoint>
          <Trackpoint>
            <Time>2020-04-26T17:41:49.000Z</Time>
            <Position>
              <LatitudeDegrees>38.5615458525717258453369140625</LatitudeDegrees>
              <LongitudeDegrees>-28.6556463874876499176025390625</LongitudeDegrees>
            </Position>
            <AltitudeMeters>309.600006103515625</AltitudeMeters>
            <DistanceMeters>28336.155744406</DistanceMeters>
          </Trackpoint>
          <Trackpoint>
            <Time>2020-04-26T17:41:50.000Z</Time>
            <Position>
              <LatitudeDegrees>38.56153084896504878997802734375</LatitudeDegrees>
              <LongitudeDegrees>-28.6556903086602687835693359375</LongitudeDegrees>
            </Position>
            <AltitudeMeters>309.600006103515625</AltitudeMeters>
            <DistanceMeters>28340.327189876</DistanceMeters>
          </Trackpoint>
          <Trackpoint>
            <Time>2020-04-26T17:41:56.000Z</Time>
            <Position>
              <LatitudeDegrees>38.5614710859954357147216796875</LatitudeDegrees>
              <LongitudeDegrees>-28.6559481360018253326416015625</LongitudeDegrees>
            </Position>
            <AltitudeMeters>310.600006103515625</AltitudeMeters>
            <DistanceMeters>28363.73117195</DistanceMeters>
          </Trackpoint>
          <Trackpoint>
            <Time>2020-04-26T17:42:03.000Z</Time>
            <Position>
              <LatitudeDegrees>38.56137041933834552764892578125</LatitudeDegrees>
              <LongitudeDegrees>-28.6562773771584033966064453125</LongitudeDegrees>
            </Position>
            <AltitudeMeters>311.600006103515625</AltitudeMeters>
            <DistanceMeters>28394.498116119</DistanceMeters>
          </Trackpoint>
          <Trackpoint>
            <Time>2020-04-26T17:42:10.000Z</Time>
            <Position>
              <LatitudeDegrees>38.5613477043807506561279296875</LatitudeDegrees>
              <LongitudeDegrees>-28.65663729608058929443359375</LongitudeDegrees>
            </Position>
            <AltitudeMeters>312.399993896484375</AltitudeMeters>
            <DistanceMeters>28425.924385872</DistanceMeters>
          </Trackpoint>
          <Trackpoint>
            <Time>2020-04-26T17:42:13.000Z</Time>
            <Position>
              <LatitudeDegrees>38.5613802261650562286376953125</LatitudeDegrees>
              <LongitudeDegrees>-28.6567735858261585235595703125</LongitudeDegrees>
            </Position>
            <AltitudeMeters>312.79998779296875</AltitudeMeters>
            <DistanceMeters>28438.326009233</DistanceMeters>
          </Trackpoint>
          <Trackpoint>
            <Time>2020-04-26T17:42:16.000Z</Time>
            <Position>
              <LatitudeDegrees>38.5614176094532012939453125</LatitudeDegrees>
              <LongitudeDegrees>-28.656916916370391845703125</LongitudeDegrees>
            </Position>
            <AltitudeMeters>313.79998779296875</AltitudeMeters>
            <DistanceMeters>28451.47614094</DistanceMeters>
          </Trackpoint>
          <Trackpoint>
            <Time>2020-04-26T17:42:17.000Z</Time>
            <Position>
              <LatitudeDegrees>38.56142624281346797943115234375</LatitudeDegrees>
              <LongitudeDegrees>-28.65697349421679973602294921875</LongitudeDegrees>
            </Position>
            <AltitudeMeters>314.20001220703125</AltitudeMeters>
            <DistanceMeters>28456.493695437</DistanceMeters>
          </Trackpoint>
          <Trackpoint>
            <Time>2020-04-26T17:42:22.000Z</Time>
            <Position>
              <LatitudeDegrees>38.561481647193431854248046875</LatitudeDegrees>
              <LongitudeDegrees>-28.6572396196424961090087890625</LongitudeDegrees>
            </Position>
            <AltitudeMeters>314.79998779296875</AltitudeMeters>
            <DistanceMeters>28480.461911958</DistanceMeters>
          </Trackpoint>
          <Trackpoint>
            <Time>2020-04-26T17:42:24.000Z</Time>
            <Position>
              <LatitudeDegrees>38.5615106485784053802490234375</LatitudeDegrees>
              <LongitudeDegrees>-28.65734766237437725067138671875</LongitudeDegrees>
            </Position>
            <AltitudeMeters>315.399993896484375</AltitudeMeters>
            <DistanceMeters>28490.403450404</DistanceMeters>
          </Trackpoint>
          <Trackpoint>
            <Time>2020-04-26T17:42:27.000Z</Time>
            <Position>
              <LatitudeDegrees>38.5615518875420093536376953125</LatitudeDegrees>
              <LongitudeDegrees>-28.65750390104949474334716796875</LongitudeDegrees>
            </Position>
            <AltitudeMeters>316.399993896484375</AltitudeMeters>
            <DistanceMeters>28504.755001317</DistanceMeters>
          </Trackpoint>
          <Trackpoint>
            <Time>2020-04-26T17:42:31.000Z</Time>
            <Position>
              <LatitudeDegrees>38.561592288315296173095703125</LatitudeDegrees>
              <LongitudeDegrees>-28.6577167175710201263427734375</LongitudeDegrees>
            </Position>
            <AltitudeMeters>317.399993896484375</AltitudeMeters>
            <DistanceMeters>28523.814906231</DistanceMeters>
          </Trackpoint>
          <Trackpoint>
            <Time>2020-04-26T17:42:33.000Z</Time>
            <Position>
              <LatitudeDegrees>38.56161676347255706787109375</LatitudeDegrees>
              <LongitudeDegrees>-28.65782878361642360687255859375</LongitudeDegrees>
            </Position>
            <AltitudeMeters>317.79998779296875</AltitudeMeters>
            <DistanceMeters>28533.941383807</DistanceMeters>
          </Trackpoint>
          <Trackpoint>
            <Time>2020-04-26T17:42:36.000Z</Time>
            <Position>
              <LatitudeDegrees>38.56165205128490924835205078125</LatitudeDegrees>
              <LongitudeDegrees>-28.65798049606382846832275390625</LongitudeDegrees>
            </Position>
            <AltitudeMeters>318.399993896484375</AltitudeMeters>
            <DistanceMeters>28547.716652458</DistanceMeters>
          </Trackpoint>
          <Trackpoint>
            <Time>2020-04-26T17:42:37.000Z</Time>
            <Position>
              <LatitudeDegrees>38.56166127137839794158935546875</LatitudeDegrees>
              <LongitudeDegrees>-28.6580308713018894195556640625</LongitudeDegrees>
            </Position>
            <AltitudeMeters>318.79998779296875</AltitudeMeters>
            <DistanceMeters>28552.218151268</DistanceMeters>
          </Trackpoint>
          <Trackpoint>
            <Time>2020-04-26T17:42:39.000Z</Time>
            <Position>
              <LatitudeDegrees>38.56167602352797985076904296875</LatitudeDegrees>
              <LongitudeDegrees>-28.65811443887650966644287109375</LongitudeDegrees>
            </Position>
            <AltitudeMeters>319.399993896484375</AltitudeMeters>
            <DistanceMeters>28559.674570024</DistanceMeters>
          </Trackpoint>
          <Trackpoint>
            <Time>2020-04-26T17:42:41.000Z</Time>
            <Position>
              <LatitudeDegrees>38.56170083396136760711669921875</LatitudeDegrees>
              <LongitudeDegrees>-28.65821334533393383026123046875</LongitudeDegrees>
            </Position>
            <AltitudeMeters>319.79998779296875</AltitudeMeters>
            <DistanceMeters>28568.714602758</DistanceMeters>
          </Trackpoint>
          <Trackpoint>
            <Time>2020-04-26T17:42:44.000Z</Time>
            <Position>
              <LatitudeDegrees>38.56175347231328487396240234375</LatitudeDegrees>
              <LongitudeDegrees>-28.658404536545276641845703125</LongitudeDegrees>
            </Position>
            <AltitudeMeters>320.600006103515625</AltitudeMeters>
            <DistanceMeters>28586.355308367</DistanceMeters>
          </Trackpoint>
          <Trackpoint>
            <Time>2020-04-26T17:42:46.000Z</Time>
            <Position>
              <LatitudeDegrees>38.56178632937371730804443359375</LatitudeDegrees>
              <LongitudeDegrees>-28.6585368029773235321044921875</LongitudeDegrees>
            </Position>
            <AltitudeMeters>321.399993896484375</AltitudeMeters>
            <DistanceMeters>28598.43342432</DistanceMeters>
          </Trackpoint>
          <Trackpoint>
            <Time>2020-04-26T17:42:47.000Z</Time>
            <Position>
              <LatitudeDegrees>38.5617999918758869171142578125</LatitudeDegrees>
              <LongitudeDegrees>-28.65860176272690296173095703125</LongitudeDegrees>
            </Position>
            <AltitudeMeters>321.79998779296875</AltitudeMeters>
            <DistanceMeters>28604.288180521</DistanceMeters>
          </Trackpoint>
          <Trackpoint>
            <Time>2020-04-26T17:42:50.000Z</Time>
            <Position>
              <LatitudeDegrees>38.56183938682079315185546875</LatitudeDegrees>
              <LongitudeDegrees>-28.658823631703853607177734375</LongitudeDegrees>
            </Position>
            <AltitudeMeters>322.79998779296875</AltitudeMeters>
            <DistanceMeters>28624.089340063</DistanceMeters>
          </Trackpoint>
          <Trackpoint>
            <Time>2020-04-26T17:42:51.000Z</Time>
            <Position>
              <LatitudeDegrees>38.56184433214366436004638671875</LatitudeDegrees>
              <LongitudeDegrees>-28.6588978953659534454345703125</LongitudeDegrees>
            </Position>
            <AltitudeMeters>323.79998779296875</AltitudeMeters>
            <DistanceMeters>28630.576262001</DistanceMeters>
          </Trackpoint>
          <Trackpoint>
            <Time>2020-04-26T17:42:52.000Z</Time>
            <Position>
              <LatitudeDegrees>38.5618543066084384918212890625</LatitudeDegrees>
              <LongitudeDegrees>-28.65897643379867076873779296875</LongitudeDegrees>
            </Position>
            <AltitudeMeters>324</AltitudeMeters>
            <DistanceMeters>28637.501486618</DistanceMeters>
          </Trackpoint>
          <Trackpoint>
            <Time>2020-04-26T17:42:58.000Z</Time>
            <Position>
              <LatitudeDegrees>38.56190552003681659698486328125</LatitudeDegrees>
              <LongitudeDegrees>-28.6594447307288646697998046875</LongitudeDegrees>
            </Position>
            <AltitudeMeters>324.79998779296875</AltitudeMeters>
            <DistanceMeters>28678.654527537</DistanceMeters>
          </Trackpoint>
          <Trackpoint>
            <Time>2020-04-26T17:43:00.000Z</Time>
            <Position>
              <LatitudeDegrees>38.56189747340977191925048828125</LatitudeDegrees>
              <LongitudeDegrees>-28.6596049927175045013427734375</LongitudeDegrees>
            </Position>
            <AltitudeMeters>325.399993896484375</AltitudeMeters>
            <DistanceMeters>28692.630886635</DistanceMeters>
          </Trackpoint>
          <Trackpoint>
            <Time>2020-04-26T17:43:03.000Z</Time>
            <Position>
              <LatitudeDegrees>38.5618869960308074951171875</LatitudeDegrees>
              <LongitudeDegrees>-28.65981630049645900726318359375</LongitudeDegrees>
            </Position>
            <AltitudeMeters>325.600006103515625</AltitudeMeters>
            <DistanceMeters>28711.058230302</DistanceMeters>
          </Trackpoint>
          <Trackpoint>
            <Time>2020-04-26T17:43:05.000Z</Time>
            <Position>
              <LatitudeDegrees>38.5618539713323116302490234375</LatitudeDegrees>
              <LongitudeDegrees>-28.65994823165237903594970703125</LongitudeDegrees>
            </Position>
            <AltitudeMeters>325.600006103515625</AltitudeMeters>
            <DistanceMeters>28723.114270715</DistanceMeters>
          </Trackpoint>
          <Trackpoint>
            <Time>2020-04-26T17:43:08.000Z</Time>
            <Position>
              <LatitudeDegrees>38.56171776540577411651611328125</LatitudeDegrees>
              <LongitudeDegrees>-28.6601637303829193115234375</LongitudeDegrees>
            </Position>
            <AltitudeMeters>325.79998779296875</AltitudeMeters>
            <DistanceMeters>28747.230096292</DistanceMeters>
          </Trackpoint>
          <Trackpoint>
            <Time>2020-04-26T17:43:09.000Z</Time>
            <Position>
              <LatitudeDegrees>38.56167845427989959716796875</LatitudeDegrees>
              <LongitudeDegrees>-28.66023925133049488067626953125</LongitudeDegrees>
            </Position>
            <AltitudeMeters>326</AltitudeMeters>
            <DistanceMeters>28755.125895667</DistanceMeters>
          </Trackpoint>
          <Trackpoint>
            <Time>2020-04-26T17:43:10.000Z</Time>
            <Position>
              <LatitudeDegrees>38.56165230274200439453125</LatitudeDegrees>
              <LongitudeDegrees>-28.66031737066805362701416015625</LongitudeDegrees>
            </Position>
            <AltitudeMeters>326</AltitudeMeters>
            <DistanceMeters>28762.521514169</DistanceMeters>
          </Trackpoint>
          <Trackpoint>
            <Time>2020-04-26T17:43:12.000Z</Time>
            <Position>
              <LatitudeDegrees>38.5616222955286502838134765625</LatitudeDegrees>
              <LongitudeDegrees>-28.660481236875057220458984375</LongitudeDegrees>
            </Position>
            <AltitudeMeters>326.20001220703125</AltitudeMeters>
            <DistanceMeters>28777.168580638</DistanceMeters>
          </Trackpoint>
          <Trackpoint>
            <Time>2020-04-26T17:43:14.000Z</Time>
            <Position>
              <LatitudeDegrees>38.5615998320281505584716796875</LatitudeDegrees>
              <LongitudeDegrees>-28.66066672839224338531494140625</LongitudeDegrees>
            </Position>
            <AltitudeMeters>326.600006103515625</AltitudeMeters>
            <DistanceMeters>28793.504886194</DistanceMeters>
          </Trackpoint>
          <Trackpoint>
            <Time>2020-04-26T17:43:15.000Z</Time>
            <Position>
              <LatitudeDegrees>38.56159522198140621185302734375</LatitudeDegrees>
              <LongitudeDegrees>-28.66075557656586170196533203125</LongitudeDegrees>
            </Position>
            <AltitudeMeters>327.20001220703125</AltitudeMeters>
            <DistanceMeters>28801.25408024</DistanceMeters>
          </Trackpoint>
          <Trackpoint>
            <Time>2020-04-26T17:43:17.000Z</Time>
            <Position>
              <LatitudeDegrees>38.561573512852191925048828125</LatitudeDegrees>
              <LongitudeDegrees>-28.6609229631721973419189453125</LongitudeDegrees>
            </Position>
            <AltitudeMeters>327.600006103515625</AltitudeMeters>
            <DistanceMeters>28816.02148848</DistanceMeters>
          </Trackpoint>
          <Trackpoint>
            <Time>2020-04-26T17:43:20.000Z</Time>
            <Position>
              <LatitudeDegrees>38.561539985239505767822265625</LatitudeDegrees>
              <LongitudeDegrees>-28.661165535449981689453125</LongitudeDegrees>
            </Position>
            <AltitudeMeters>328.600006103515625</AltitudeMeters>
            <DistanceMeters>28837.460071242</DistanceMeters>
          </Trackpoint>
          <Trackpoint>
            <Time>2020-04-26T17:43:23.000Z</Time>
            <Position>
              <LatitudeDegrees>38.5615126602351665496826171875</LatitudeDegrees>
              <LongitudeDegrees>-28.6614084430038928985595703125</LongitudeDegrees>
            </Position>
            <AltitudeMeters>329.399993896484375</AltitudeMeters>
            <DistanceMeters>28858.818474782</DistanceMeters>
          </Trackpoint>
          <Trackpoint>
            <Time>2020-04-26T17:43:24.000Z</Time>
            <Position>
              <LatitudeDegrees>38.56152246706187725067138671875</LatitudeDegrees>
              <LongitudeDegrees>-28.66148916073143482208251953125</LongitudeDegrees>
            </Position>
            <AltitudeMeters>329.600006103515625</AltitudeMeters>
            <DistanceMeters>28865.928352976</DistanceMeters>
          </Trackpoint>
          <Trackpoint>
            <Time>2020-04-26T17:43:27.000Z</Time>
            <Position>
              <LatitudeDegrees>38.561546020209789276123046875</LatitudeDegrees>
              <LongitudeDegrees>-28.66171211935579776763916015625</LongitudeDegrees>
            </Position>
            <AltitudeMeters>330.399993896484375</AltitudeMeters>
            <DistanceMeters>28885.509390891</DistanceMeters>
          </Trackpoint>
          <Trackpoint>
            <Time>2020-04-26T17:43:28.000Z</Time>
            <Position>
              <LatitudeDegrees>38.56156622059643268585205078125</LatitudeDegrees>
              <LongitudeDegrees>-28.6617765761911869049072265625</LongitudeDegrees>
            </Position>
            <AltitudeMeters>330.600006103515625</AltitudeMeters>
            <DistanceMeters>28891.552372699</DistanceMeters>
          </Trackpoint>
          <Trackpoint>
            <Time>2020-04-26T17:43:34.000Z</Time>
            <Position>
              <LatitudeDegrees>38.5616695694625377655029296875</LatitudeDegrees>
              <LongitudeDegrees>-28.662167005240917205810546875</LongitudeDegrees>
            </Position>
            <AltitudeMeters>331.79998779296875</AltitudeMeters>
            <DistanceMeters>28927.4259328</DistanceMeters>
          </Trackpoint>
          <Trackpoint>
            <Time>2020-04-26T17:43:35.000Z</Time>
            <Position>
              <LatitudeDegrees>38.56167837046086788177490234375</LatitudeDegrees>
              <LongitudeDegrees>-28.6622362397611141204833984375</LongitudeDegrees>
            </Position>
            <AltitudeMeters>332</AltitudeMeters>
            <DistanceMeters>28933.530613421</DistanceMeters>
          </Trackpoint>
          <Trackpoint>
            <Time>2020-04-26T17:43:37.000Z</Time>
            <Position>
              <LatitudeDegrees>38.56170066632330417633056640625</LatitudeDegrees>
              <LongitudeDegrees>-28.66237646900117397308349609375</LongitudeDegrees>
            </Position>
            <AltitudeMeters>332.20001220703125</AltitudeMeters>
            <DistanceMeters>28945.984552276</DistanceMeters>
          </Trackpoint>
          <Trackpoint>
            <Time>2020-04-26T17:43:39.000Z</Time>
            <Position>
              <LatitudeDegrees>38.561729751527309417724609375</LatitudeDegrees>
              <LongitudeDegrees>-28.66251778788864612579345703125</LongitudeDegrees>
            </Position>
            <AltitudeMeters>331.600006103515625</AltitudeMeters>
            <DistanceMeters>28958.702876039</DistanceMeters>
          </Trackpoint>
          <Trackpoint>
            <Time>2020-04-26T17:43:41.000Z</Time>
            <Position>
              <LatitudeDegrees>38.5617523826658725738525390625</LatitudeDegrees>
              <LongitudeDegrees>-28.66264334879815578460693359375</LongitudeDegrees>
            </Position>
            <AltitudeMeters>332.399993896484375</AltitudeMeters>
            <DistanceMeters>28969.917236237</DistanceMeters>
          </Trackpoint>
          <Trackpoint>
            <Time>2020-04-26T17:43:46.000Z</Time>
            <Position>
              <LatitudeDegrees>38.5617949627339839935302734375</LatitudeDegrees>
              <LongitudeDegrees>-28.662903606891632080078125</LongitudeDegrees>
            </Position>
            <AltitudeMeters>333</AltitudeMeters>
            <DistanceMeters>28993.058143593</DistanceMeters>
          </Trackpoint>
          <Trackpoint>
            <Time>2020-04-26T17:43:48.000Z</Time>
            <Position>
              <LatitudeDegrees>38.56177090667188167572021484375</LatitudeDegrees>
              <LongitudeDegrees>-28.66291844286024570465087890625</LongitudeDegrees>
            </Position>
            <AltitudeMeters>333</AltitudeMeters>
            <DistanceMeters>28996.029913228</DistanceMeters>
          </Trackpoint>
          <Trackpoint>
            <Time>2020-04-26T17:43:51.000Z</Time>
            <Position>
              <LatitudeDegrees>38.561757914721965789794921875</LatitudeDegrees>
              <LongitudeDegrees>-28.66282783448696136474609375</LongitudeDegrees>
            </Position>
            <AltitudeMeters>333.399993896484375</AltitudeMeters>
            <DistanceMeters>29004.047149917</DistanceMeters>
          </Trackpoint>
          <Trackpoint>
            <Time>2020-04-26T17:43:54.000Z</Time>
            <Position>
              <LatitudeDegrees>38.5617258958518505096435546875</LatitudeDegrees>
              <LongitudeDegrees>-28.66268324665725231170654296875</LongitudeDegrees>
            </Position>
            <AltitudeMeters>332.600006103515625</AltitudeMeters>
            <DistanceMeters>29017.125670781</DistanceMeters>
          </Trackpoint>
          <Trackpoint>
            <Time>2020-04-26T17:43:56.000Z</Time>
            <Position>
              <LatitudeDegrees>38.56170955114066600799560546875</LatitudeDegrees>
              <LongitudeDegrees>-28.66256020031869411468505859375</LongitudeDegrees>
            </Position>
            <AltitudeMeters>332.399993896484375</AltitudeMeters>
            <DistanceMeters>29027.987851907</DistanceMeters>
          </Trackpoint>
          <Trackpoint>
            <Time>2020-04-26T17:43:58.000Z</Time>
            <Position>
              <LatitudeDegrees>38.561689518392086029052734375</LatitudeDegrees>
              <LongitudeDegrees>-28.66243883036077022552490234375</LongitudeDegrees>
            </Position>
            <AltitudeMeters>331.79998779296875</AltitudeMeters>
            <DistanceMeters>29038.783321632</DistanceMeters>
          </Trackpoint>
          <Trackpoint>
            <Time>2020-04-26T17:44:01.000Z</Time>
            <Position>
              <LatitudeDegrees>38.56165925972163677215576171875</LatitudeDegrees>
              <LongitudeDegrees>-28.66223548538982868194580078125</LongitudeDegrees>
            </Position>
            <AltitudeMeters>331.79998779296875</AltitudeMeters>
            <DistanceMeters>29056.798341682</DistanceMeters>
          </Trackpoint>
          <Trackpoint>
            <Time>2020-04-26T17:44:02.000Z</Time>
            <Position>
              <LatitudeDegrees>38.56163914315402507781982421875</LatitudeDegrees>
              <LongitudeDegrees>-28.6621665023267269134521484375</LongitudeDegrees>
            </Position>
            <AltitudeMeters>331.79998779296875</AltitudeMeters>
            <DistanceMeters>29063.205425849</DistanceMeters>
          </Trackpoint>
          <Trackpoint>
            <Time>2020-04-26T17:44:04.000Z</Time>
            <Position>
              <LatitudeDegrees>38.5615887679159641265869140625</LatitudeDegrees>
              <LongitudeDegrees>-28.66203012876212596893310546875</LongitudeDegrees>
            </Position>
            <AltitudeMeters>331.600006103515625</AltitudeMeters>
            <DistanceMeters>29076.331845339</DistanceMeters>
          </Trackpoint>
          <Trackpoint>
            <Time>2020-04-26T17:44:06.000Z</Time>
            <Position>
              <LatitudeDegrees>38.56154509820044040679931640625</LatitudeDegrees>
              <LongitudeDegrees>-28.661877997219562530517578125</LongitudeDegrees>
            </Position>
            <AltitudeMeters>331.20001220703125</AltitudeMeters>
            <DistanceMeters>29090.436191621</DistanceMeters>
          </Trackpoint>
          <Trackpoint>
            <Time>2020-04-26T17:44:08.000Z</Time>
            <Position>
              <LatitudeDegrees>38.56150142848491668701171875</LatitudeDegrees>
              <LongitudeDegrees>-28.6617175675928592681884765625</LongitudeDegrees>
            </Position>
            <AltitudeMeters>331.20001220703125</AltitudeMeters>
            <DistanceMeters>29105.22071158</DistanceMeters>
          </Trackpoint>
          <Trackpoint>
            <Time>2020-04-26T17:44:09.000Z</Time>
            <Position>
              <LatitudeDegrees>38.56148709543049335479736328125</LatitudeDegrees>
              <LongitudeDegrees>-28.6616293899714946746826171875</LongitudeDegrees>
            </Position>
            <AltitudeMeters>331</AltitudeMeters>
            <DistanceMeters>29113.058543553</DistanceMeters>
          </Trackpoint>
          <Trackpoint>
            <Time>2020-04-26T17:44:10.000Z</Time>
            <Position>
              <LatitudeDegrees>38.5614777915179729461669921875</LatitudeDegrees>
              <LongitudeDegrees>-28.6615338362753391265869140625</LongitudeDegrees>
            </Position>
            <AltitudeMeters>330.600006103515625</AltitudeMeters>
            <DistanceMeters>29121.438692986</DistanceMeters>
          </Trackpoint>
          <Trackpoint>
            <Time>2020-04-26T17:44:12.000Z</Time>
            <Position>
              <LatitudeDegrees>38.5614995844662189483642578125</LatitudeDegrees>
              <LongitudeDegrees>-28.6613209359347820281982421875</LongitudeDegrees>
            </Position>
            <AltitudeMeters>329.79998779296875</AltitudeMeters>
            <DistanceMeters>29140.125642607</DistanceMeters>
          </Trackpoint>
          <Trackpoint>
            <Time>2020-04-26T17:44:13.000Z</Time>
            <Position>
              <LatitudeDegrees>38.56151408515870571136474609375</LatitudeDegrees>
              <LongitudeDegrees>-28.66121574304997920989990234375</LongitudeDegrees>
            </Position>
            <AltitudeMeters>329.399993896484375</AltitudeMeters>
            <DistanceMeters>29149.421761774</DistanceMeters>
          </Trackpoint>
          <Trackpoint>
            <Time>2020-04-26T17:44:15.000Z</Time>
            <Position>
              <LatitudeDegrees>38.561553396284580230712890625</LatitudeDegrees>
              <LongitudeDegrees>-28.66100317798554897308349609375</LongitudeDegrees>
            </Position>
            <AltitudeMeters>328.399993896484375</AltitudeMeters>
            <DistanceMeters>29168.432092896</DistanceMeters>
          </Trackpoint>
          <Trackpoint>
            <Time>2020-04-26T17:44:18.000Z</Time>
            <Position>
              <LatitudeDegrees>38.561619110405445098876953125</LatitudeDegrees>
              <LongitudeDegrees>-28.66066639311611652374267578125</LongitudeDegrees>
            </Position>
            <AltitudeMeters>328</AltitudeMeters>
            <DistanceMeters>29198.641771408</DistanceMeters>
          </Trackpoint>
          <Trackpoint>
            <Time>2020-04-26T17:44:20.000Z</Time>
            <Position>
              <LatitudeDegrees>38.561668060719966888427734375</LatitudeDegrees>
              <LongitudeDegrees>-28.66043790243566036224365234375</LongitudeDegrees>
            </Position>
            <AltitudeMeters>327.20001220703125</AltitudeMeters>
            <DistanceMeters>29219.260597733</DistanceMeters>
          </Trackpoint>
          <Trackpoint>
            <Time>2020-04-26T17:44:22.000Z</Time>
            <Position>
              <LatitudeDegrees>38.56173369102180004119873046875</LatitudeDegrees>
              <LongitudeDegrees>-28.66021879948675632476806640625</LongitudeDegrees>
            </Position>
            <AltitudeMeters>326.20001220703125</AltitudeMeters>
            <DistanceMeters>29239.680509825</DistanceMeters>
          </Trackpoint>
          <Trackpoint>
            <Time>2020-04-26T17:44:23.000Z</Time>
            <Position>
              <LatitudeDegrees>38.561773002147674560546875</LatitudeDegrees>
              <LongitudeDegrees>-28.6601166240870952606201171875</LongitudeDegrees>
            </Position>
            <AltitudeMeters>325.79998779296875</AltitudeMeters>
            <DistanceMeters>29249.590661762</DistanceMeters>
          </Trackpoint>
          <Trackpoint>
            <Time>2020-04-26T17:44:26.000Z</Time>
            <Position>
              <LatitudeDegrees>38.561878614127635955810546875</LatitudeDegrees>
              <LongitudeDegrees>-28.65979400463402271270751953125</LongitudeDegrees>
            </Position>
            <AltitudeMeters>325.20001220703125</AltitudeMeters>
            <DistanceMeters>29280.030078375</DistanceMeters>
          </Trackpoint>
          <Trackpoint>
            <Time>2020-04-26T17:44:28.000Z</Time>
            <Position>
              <LatitudeDegrees>38.56190384365618228912353515625</LatitudeDegrees>
              <LongitudeDegrees>-28.65956635214388370513916015625</LongitudeDegrees>
            </Position>
            <AltitudeMeters>325.20001220703125</AltitudeMeters>
            <DistanceMeters>29300.041043867</DistanceMeters>
          </Trackpoint>
          <Trackpoint>
            <Time>2020-04-26T17:44:30.000Z</Time>
            <Position>
              <LatitudeDegrees>38.5618854872882366180419921875</LatitudeDegrees>
              <LongitudeDegrees>-28.6593371070921421051025390625</LongitudeDegrees>
            </Position>
            <AltitudeMeters>325</AltitudeMeters>
            <DistanceMeters>29320.096859111</DistanceMeters>
          </Trackpoint>
          <Trackpoint>
            <Time>2020-04-26T17:44:32.000Z</Time>
            <Position>
              <LatitudeDegrees>38.56184542179107666015625</LatitudeDegrees>
              <LongitudeDegrees>-28.65909822285175323486328125</LongitudeDegrees>
            </Position>
            <AltitudeMeters>324.20001220703125</AltitudeMeters>
            <DistanceMeters>29341.359922564</DistanceMeters>
          </Trackpoint>
          <Trackpoint>
            <Time>2020-04-26T17:44:33.000Z</Time>
            <Position>
              <LatitudeDegrees>38.5618311725556850433349609375</LatitudeDegrees>
              <LongitudeDegrees>-28.65898028947412967681884765625</LongitudeDegrees>
            </Position>
            <AltitudeMeters>324</AltitudeMeters>
            <DistanceMeters>29351.74525997</DistanceMeters>
          </Trackpoint>
          <Trackpoint>
            <Time>2020-04-26T17:44:37.000Z</Time>
            <Position>
              <LatitudeDegrees>38.56175011955201625823974609375</LatitudeDegrees>
              <LongitudeDegrees>-28.65850419737398624420166015625</LongitudeDegrees>
            </Position>
            <AltitudeMeters>322.79998779296875</AltitudeMeters>
            <DistanceMeters>29394.150711658</DistanceMeters>
          </Trackpoint>
          <Trackpoint>
            <Time>2020-04-26T17:44:38.000Z</Time>
            <Position>
              <LatitudeDegrees>38.561721034348011016845703125</LatitudeDegrees>
              <LongitudeDegrees>-28.658384419977664947509765625</LongitudeDegrees>
            </Position>
            <AltitudeMeters>322</AltitudeMeters>
            <DistanceMeters>29405.066381985</DistanceMeters>
          </Trackpoint>
          <Trackpoint>
            <Time>2020-04-26T17:44:39.000Z</Time>
            <Position>
              <LatitudeDegrees>38.56168926693499088287353515625</LatitudeDegrees>
              <LongitudeDegrees>-28.65825760178267955780029296875</LongitudeDegrees>
            </Position>
            <AltitudeMeters>321.600006103515625</AltitudeMeters>
            <DistanceMeters>29416.656525089</DistanceMeters>
          </Trackpoint>
          <Trackpoint>
            <Time>2020-04-26T17:44:41.000Z</Time>
            <Position>
              <LatitudeDegrees>38.561622463166713714599609375</LatitudeDegrees>
              <LongitudeDegrees>-28.65798921324312686920166015625</LongitudeDegrees>
            </Position>
            <AltitudeMeters>320.20001220703125</AltitudeMeters>
            <DistanceMeters>29441.169733914</DistanceMeters>
          </Trackpoint>
          <Trackpoint>
            <Time>2020-04-26T17:44:43.000Z</Time>
            <Position>
              <LatitudeDegrees>38.561559431254863739013671875</LatitudeDegrees>
              <LongitudeDegrees>-28.65770347416400909423828125</LongitudeDegrees>
            </Position>
            <AltitudeMeters>319</AltitudeMeters>
            <DistanceMeters>29467.008614152</DistanceMeters>
          </Trackpoint>
          <Trackpoint>
            <Time>2020-04-26T17:44:45.000Z</Time>
            <Position>
              <LatitudeDegrees>38.56149530969560146331787109375</LatitudeDegrees>
              <LongitudeDegrees>-28.65740281529724597930908203125</LongitudeDegrees>
            </Position>
            <AltitudeMeters>317.79998779296875</AltitudeMeters>
            <DistanceMeters>29494.131209483</DistanceMeters>
          </Trackpoint>
          <Trackpoint>
            <Time>2020-04-26T17:44:48.000Z</Time>
            <Position>
              <LatitudeDegrees>38.561397157609462738037109375</LatitudeDegrees>
              <LongitudeDegrees>-28.6569583229720592498779296875</LongitudeDegrees>
            </Position>
            <AltitudeMeters>316.399993896484375</AltitudeMeters>
            <DistanceMeters>29534.329082177</DistanceMeters>
          </Trackpoint>
          <Trackpoint>
            <Time>2020-04-26T17:44:49.000Z</Time>
            <Position>
              <LatitudeDegrees>38.561365306377410888671875</LatitudeDegrees>
              <LongitudeDegrees>-28.65681708790361881256103515625</LongitudeDegrees>
            </Position>
            <AltitudeMeters>316</AltitudeMeters>
            <DistanceMeters>29547.122092201</DistanceMeters>
          </Trackpoint>
          <Trackpoint>
            <Time>2020-04-26T17:44:50.000Z</Time>
            <Position>
              <LatitudeDegrees>38.5613363049924373626708984375</LatitudeDegrees>
              <LongitudeDegrees>-28.65670041181147098541259765625</LongitudeDegrees>
            </Position>
            <AltitudeMeters>315.399993896484375</AltitudeMeters>
            <DistanceMeters>29557.776955929</DistanceMeters>
          </Trackpoint>
          <Trackpoint>
            <Time>2020-04-26T17:44:51.000Z</Time>
            <Position>
              <LatitudeDegrees>38.5613156855106353759765625</LatitudeDegrees>
              <LongitudeDegrees>-28.656616844236850738525390625</LongitudeDegrees>
            </Position>
            <AltitudeMeters>313.399993896484375</AltitudeMeters>
            <DistanceMeters>29565.403404799</DistanceMeters>
          </Trackpoint>
          <Trackpoint>
            <Time>2020-04-26T17:44:53.000Z</Time>
            <Position>
              <LatitudeDegrees>38.56130990199744701385498046875</LatitudeDegrees>
              <LongitudeDegrees>-28.65653042681515216827392578125</LongitudeDegrees>
            </Position>
            <AltitudeMeters>312.399993896484375</AltitudeMeters>
            <DistanceMeters>29572.9507038</DistanceMeters>
          </Trackpoint>
          <Trackpoint>
            <Time>2020-04-26T17:44:54.000Z</Time>
            <Position>
              <LatitudeDegrees>38.56132440268993377685546875</LatitudeDegrees>
              <LongitudeDegrees>-28.65652263164520263671875</LongitudeDegrees>
            </Position>
            <AltitudeMeters>312.399993896484375</AltitudeMeters>
            <DistanceMeters>29574.702909836</DistanceMeters>
          </Trackpoint>
          <Trackpoint>
            <Time>2020-04-26T17:44:55.000Z</Time>
            <Position>
              <LatitudeDegrees>38.5613396577537059783935546875</LatitudeDegrees>
              <LongitudeDegrees>-28.656541742384433746337890625</LongitudeDegrees>
            </Position>
            <AltitudeMeters>312.399993896484375</AltitudeMeters>
            <DistanceMeters>29577.08047747</DistanceMeters>
          </Trackpoint>
          <Trackpoint>
            <Time>2020-04-26T17:44:56.000Z</Time>
            <Position>
              <LatitudeDegrees>38.56135332025587558746337890625</LatitudeDegrees>
              <LongitudeDegrees>-28.6565710790455341339111328125</LongitudeDegrees>
            </Position>
            <AltitudeMeters>312.600006103515625</AltitudeMeters>
            <DistanceMeters>29580.052247104</DistanceMeters>
          </Trackpoint>
          <Trackpoint>
            <Time>2020-04-26T17:44:57.000Z</Time>
            <Position>
              <LatitudeDegrees>38.5613503865897655487060546875</LatitudeDegrees>
              <LongitudeDegrees>-28.65660636685788631439208984375</LongitudeDegrees>
            </Position>
            <AltitudeMeters>312.600006103515625</AltitudeMeters>
            <DistanceMeters>29583.140249812</DistanceMeters>
          </Trackpoint>
          <Trackpoint>
            <Time>2020-04-26T17:44:59.000Z</Time>
            <Position>
              <LatitudeDegrees>38.5613617859780788421630859375</LatitudeDegrees>
              <LongitudeDegrees>-28.6566760204732418060302734375</LongitudeDegrees>
            </Position>
            <AltitudeMeters>312.600006103515625</AltitudeMeters>
            <DistanceMeters>29589.334504797</DistanceMeters>
          </Trackpoint>
          <Trackpoint>
            <Time>2020-04-26T17:45:00.000Z</Time>
            <Position>
              <LatitudeDegrees>38.56137075461447238922119140625</LatitudeDegrees>
              <LongitudeDegrees>-28.656713068485260009765625</LongitudeDegrees>
            </Position>
            <AltitudeMeters>312.600006103515625</AltitudeMeters>
            <DistanceMeters>29592.710294552</DistanceMeters>
          </Trackpoint>
          <Trackpoint>
            <Time>2020-04-26T17:45:01.000Z</Time>
            <Position>
              <LatitudeDegrees>38.56137779541313648223876953125</LatitudeDegrees>
              <LongitudeDegrees>-28.65675355307757854461669921875</LongitudeDegrees>
            </Position>
            <AltitudeMeters>312.79998779296875</AltitudeMeters>
            <DistanceMeters>29596.32005913</DistanceMeters>
          </Trackpoint>
          <Trackpoint>
            <Time>2020-04-26T17:45:04.000Z</Time>
            <Position>
              <LatitudeDegrees>38.561399839818477630615234375</LatitudeDegrees>
              <LongitudeDegrees>-28.65689420141279697418212890625</LongitudeDegrees>
            </Position>
            <AltitudeMeters>313.600006103515625</AltitudeMeters>
            <DistanceMeters>29608.804414116</DistanceMeters>
          </Trackpoint>
          <Trackpoint>
            <Time>2020-04-26T17:45:06.000Z</Time>
            <Position>
              <LatitudeDegrees>38.5614207945764064788818359375</LatitudeDegrees>
              <LongitudeDegrees>-28.6569848097860813140869140625</LongitudeDegrees>
            </Position>
            <AltitudeMeters>313.79998779296875</AltitudeMeters>
            <DistanceMeters>29617.028480785</DistanceMeters>
          </Trackpoint>
          <Trackpoint>
            <Time>2020-04-26T17:45:09.000Z</Time>
            <Position>
              <LatitudeDegrees>38.56145448982715606689453125</LatitudeDegrees>
              <LongitudeDegrees>-28.65714557468891143798828125</LongitudeDegrees>
            </Position>
            <AltitudeMeters>314.600006103515625</AltitudeMeters>
            <DistanceMeters>29631.514055897</DistanceMeters>
          </Trackpoint>
          <Trackpoint>
            <Time>2020-04-26T17:45:11.000Z</Time>
            <Position>
              <LatitudeDegrees>38.5614824853837490081787109375</LatitudeDegrees>
              <LongitudeDegrees>-28.6572490073740482330322265625</LongitudeDegrees>
            </Position>
            <AltitudeMeters>315</AltitudeMeters>
            <DistanceMeters>29641.04045439</DistanceMeters>
          </Trackpoint>
          <Trackpoint>
            <Time>2020-04-26T17:45:14.000Z</Time>
            <Position>
              <LatitudeDegrees>38.56151752173900604248046875</LatitudeDegrees>
              <LongitudeDegrees>-28.6574077606201171875</LongitudeDegrees>
            </Position>
            <AltitudeMeters>315.399993896484375</AltitudeMeters>
            <DistanceMeters>29655.39672357</DistanceMeters>
          </Trackpoint>
          <Trackpoint>
            <Time>2020-04-26T17:45:15.000Z</Time>
            <Position>
              <LatitudeDegrees>38.561528585851192474365234375</LatitudeDegrees>
              <LongitudeDegrees>-28.65746081806719303131103515625</LongitudeDegrees>
            </Position>
            <AltitudeMeters>316</AltitudeMeters>
            <DistanceMeters>29660.176482288</DistanceMeters>
          </Trackpoint>
          <Trackpoint>
            <Time>2020-04-26T17:45:20.000Z</Time>
            <Position>
              <LatitudeDegrees>38.5615860857069492340087890625</LatitudeDegrees>
              <LongitudeDegrees>-28.65770691074430942535400390625</LongitudeDegrees>
            </Position>
            <AltitudeMeters>317.20001220703125</AltitudeMeters>
            <DistanceMeters>29682.529989396</DistanceMeters>
          </Trackpoint>
          <Trackpoint>
            <Time>2020-04-26T17:45:23.000Z</Time>
            <Position>
              <LatitudeDegrees>38.56162271462380886077880859375</LatitudeDegrees>
              <LongitudeDegrees>-28.65784504450857639312744140625</LongitudeDegrees>
            </Position>
            <AltitudeMeters>317.79998779296875</AltitudeMeters>
            <DistanceMeters>29695.224505701</DistanceMeters>
          </Trackpoint>
          <Trackpoint>
            <Time>2020-04-26T17:45:26.000Z</Time>
            <Position>
              <LatitudeDegrees>38.56165607459843158721923828125</LatitudeDegrees>
              <LongitudeDegrees>-28.65797898732125759124755859375</LongitudeDegrees>
            </Position>
            <AltitudeMeters>318.399993896484375</AltitudeMeters>
            <DistanceMeters>29707.458987592</DistanceMeters>
          </Trackpoint>
          <Trackpoint>
            <Time>2020-04-26T17:45:30.000Z</Time>
            <Position>
              <LatitudeDegrees>38.56169320642948150634765625</LatitudeDegrees>
              <LongitudeDegrees>-28.65815584547817707061767578125</LongitudeDegrees>
            </Position>
            <AltitudeMeters>319.20001220703125</AltitudeMeters>
            <DistanceMeters>29723.39630199</DistanceMeters>
          </Trackpoint>
          <Trackpoint>
            <Time>2020-04-26T17:45:31.000Z</Time>
            <Position>
              <LatitudeDegrees>38.5617074556648731231689453125</LatitudeDegrees>
              <LongitudeDegrees>-28.6581998504698276519775390625</LongitudeDegrees>
            </Position>
            <AltitudeMeters>319.79998779296875</AltitudeMeters>
            <DistanceMeters>29727.542778271</DistanceMeters>
          </Trackpoint>
          <Trackpoint>
            <Time>2020-04-26T17:45:35.000Z</Time>
            <Position>
              <LatitudeDegrees>38.5617486946284770965576171875</LatitudeDegrees>
              <LongitudeDegrees>-28.6583785526454448699951171875</LongitudeDegrees>
            </Position>
            <AltitudeMeters>320.600006103515625</AltitudeMeters>
            <DistanceMeters>29743.758691012</DistanceMeters>
          </Trackpoint>
          <Trackpoint>
            <Time>2020-04-26T17:45:36.000Z</Time>
            <Position>
              <LatitudeDegrees>38.5617587529122829437255859375</LatitudeDegrees>
              <LongitudeDegrees>-28.65841970779001712799072265625</LongitudeDegrees>
            </Position>
            <AltitudeMeters>320.79998779296875</AltitudeMeters>
            <DistanceMeters>29747.511945501</DistanceMeters>
          </Trackpoint>
          <Trackpoint>
            <Time>2020-04-26T17:45:37.000Z</Time>
            <Position>
              <LatitudeDegrees>38.56177073903381824493408203125</LatitudeDegrees>
              <LongitudeDegrees>-28.65846044383943080902099609375</LongitudeDegrees>
            </Position>
            <AltitudeMeters>321</AltitudeMeters>
            <DistanceMeters>29751.301117118</DistanceMeters>
          </Trackpoint>
          <Trackpoint>
            <Time>2020-04-26T17:45:42.000Z</Time>
            <Position>
              <LatitudeDegrees>38.561820946633815765380859375</LatitudeDegrees>
              <LongitudeDegrees>-28.658695556223392486572265625</LongitudeDegrees>
            </Position>
            <AltitudeMeters>322</AltitudeMeters>
            <DistanceMeters>29772.512518741</DistanceMeters>
          </Trackpoint>
          <Trackpoint>
            <Time>2020-04-26T17:45:43.000Z</Time>
            <Position>
              <LatitudeDegrees>38.56183025054633617401123046875</LatitudeDegrees>
              <LongitudeDegrees>-28.658746182918548583984375</LongitudeDegrees>
            </Position>
            <AltitudeMeters>322.20001220703125</AltitudeMeters>
            <DistanceMeters>29777.039023292</DistanceMeters>
          </Trackpoint>
          <Trackpoint>
            <Time>2020-04-26T17:45:48.000Z</Time>
            <Position>
              <LatitudeDegrees>38.56185941956937313079833984375</LatitudeDegrees>
              <LongitudeDegrees>-28.65900593809783458709716796875</LongitudeDegrees>
            </Position>
            <AltitudeMeters>323.20001220703125</AltitudeMeters>
            <DistanceMeters>29799.877681432</DistanceMeters>
          </Trackpoint>
          <Trackpoint>
            <Time>2020-04-26T17:45:51.000Z</Time>
            <Position>
              <LatitudeDegrees>38.56187769211828708648681640625</LatitudeDegrees>
              <LongitudeDegrees>-28.65915027447044849395751953125</LongitudeDegrees>
            </Position>
            <AltitudeMeters>323.79998779296875</AltitudeMeters>
            <DistanceMeters>29812.602748457</DistanceMeters>
          </Trackpoint>
          <Trackpoint>
            <Time>2020-04-26T17:45:57.000Z</Time>
            <Position>
              <LatitudeDegrees>38.56191943399608135223388671875</LatitudeDegrees>
              <LongitudeDegrees>-28.65942955948412418365478515625</LongitudeDegrees>
            </Position>
            <AltitudeMeters>324.20001220703125</AltitudeMeters>
            <DistanceMeters>29837.349135348</DistanceMeters>
          </Trackpoint>
          <Trackpoint>
            <Time>2020-04-26T17:45:58.000Z</Time>
            <Position>
              <LatitudeDegrees>38.561907112598419189453125</LatitudeDegrees>
              <LongitudeDegrees>-28.659448586404323577880859375</LongitudeDegrees>
            </Position>
            <AltitudeMeters>324.20001220703125</AltitudeMeters>
            <DistanceMeters>29839.49934444</DistanceMeters>
          </Trackpoint>
          <Trackpoint>
            <Time>2020-04-26T17:45:59.000Z</Time>
            <Position>
              <LatitudeDegrees>38.56189177371561527252197265625</LatitudeDegrees>
              <LongitudeDegrees>-28.65943995304405689239501953125</LongitudeDegrees>
            </Position>
            <AltitudeMeters>324.20001220703125</AltitudeMeters>
            <DistanceMeters>29841.363903216</DistanceMeters>
          </Trackpoint>
          <Trackpoint>
            <Time>2020-04-26T17:46:02.000Z</Time>
            <Position>
              <LatitudeDegrees>38.561866544187068939208984375</LatitudeDegrees>
              <LongitudeDegrees>-28.659309111535549163818359375</LongitudeDegrees>
            </Position>
            <AltitudeMeters>324.20001220703125</AltitudeMeters>
            <DistanceMeters>29853.092679135</DistanceMeters>
          </Trackpoint>
          <Trackpoint>
            <Time>2020-04-26T17:46:07.000Z</Time>
            <Position>
              <LatitudeDegrees>38.56182237155735492706298828125</LatitudeDegrees>
              <LongitudeDegrees>-28.658971153199672698974609375</LongitudeDegrees>
            </Position>
            <AltitudeMeters>323.79998779296875</AltitudeMeters>
            <DistanceMeters>29882.913509576</DistanceMeters>
          </Trackpoint>
          <Trackpoint>
            <Time>2020-04-26T17:46:08.000Z</Time>
            <Position>
              <LatitudeDegrees>38.56181214563548564910888671875</LatitudeDegrees>
              <LongitudeDegrees>-28.65889194421470165252685546875</LongitudeDegrees>
            </Position>
            <AltitudeMeters>323.600006103515625</AltitudeMeters>
            <DistanceMeters>29889.900396812</DistanceMeters>
          </Trackpoint>
          <Trackpoint>
            <Time>2020-04-26T17:46:10.000Z</Time>
            <Position>
              <LatitudeDegrees>38.5617879219353199005126953125</LatitudeDegrees>
              <LongitudeDegrees>-28.65872665308415889739990234375</LongitudeDegrees>
            </Position>
            <AltitudeMeters>323</AltitudeMeters>
            <DistanceMeters>29904.536361878</DistanceMeters>
          </Trackpoint>
          <Trackpoint>
            <Time>2020-04-26T17:46:13.000Z</Time>
            <Position>
              <LatitudeDegrees>38.5617339424788951873779296875</LatitudeDegrees>
              <LongitudeDegrees>-28.6584566719830036163330078125</LongitudeDegrees>
            </Position>
            <AltitudeMeters>321.600006103515625</AltitudeMeters>
            <DistanceMeters>29928.789219842</DistanceMeters>
          </Trackpoint>
          <Trackpoint>
            <Time>2020-04-26T17:46:14.000Z</Time>
            <Position>
              <LatitudeDegrees>38.56170929968357086181640625</LatitudeDegrees>
              <LongitudeDegrees>-28.65835726261138916015625</LongitudeDegrees>
            </Position>
            <AltitudeMeters>321.20001220703125</AltitudeMeters>
            <DistanceMeters>29937.865141686</DistanceMeters>
          </Trackpoint>
          <Trackpoint>
            <Time>2020-04-26T17:46:16.000Z</Time>
            <Position>
              <LatitudeDegrees>38.5616615228354930877685546875</LatitudeDegrees>
              <LongitudeDegrees>-28.65813908167183399200439453125</LongitudeDegrees>
            </Position>
            <AltitudeMeters>320.600006103515625</AltitudeMeters>
            <DistanceMeters>29957.584043574</DistanceMeters>
          </Trackpoint>
          <Trackpoint>
            <Time>2020-04-26T17:46:18.000Z</Time>
            <Position>
              <LatitudeDegrees>38.56161139905452728271484375</LatitudeDegrees>
              <LongitudeDegrees>-28.6578981019556522369384765625</LongitudeDegrees>
            </Position>
            <AltitudeMeters>319.600006103515625</AltitudeMeters>
            <DistanceMeters>29979.28594826</DistanceMeters>
          </Trackpoint>
          <Trackpoint>
            <Time>2020-04-26T17:46:21.000Z</Time>
            <Position>
              <LatitudeDegrees>38.56152481399476528167724609375</LatitudeDegrees>
              <LongitudeDegrees>-28.6575105227530002593994140625</LongitudeDegrees>
            </Position>
            <AltitudeMeters>318</AltitudeMeters>
            <DistanceMeters>30014.367154887</DistanceMeters>
          </Trackpoint>
          <Trackpoint>
            <Time>2020-04-26T17:46:23.000Z</Time>
            <Position>
              <LatitudeDegrees>38.5614637099206447601318359375</LatitudeDegrees>
              <LongitudeDegrees>-28.65723945200443267822265625</LongitudeDegrees>
            </Position>
            <AltitudeMeters>316.79998779296875</AltitudeMeters>
            <DistanceMeters>30038.919748299</DistanceMeters>
          </Trackpoint>
          <Trackpoint>
            <Time>2020-04-26T17:46:24.000Z</Time>
            <Position>
              <LatitudeDegrees>38.56143143959343433380126953125</LatitudeDegrees>
              <LongitudeDegrees>-28.65710089914500713348388671875</LongitudeDegrees>
            </Position>
            <AltitudeMeters>316.399993896484375</AltitudeMeters>
            <DistanceMeters>30051.501730263</DistanceMeters>
          </Trackpoint>
          <Trackpoint>
            <Time>2020-04-26T17:46:26.000Z</Time>
            <Position>
              <LatitudeDegrees>38.56137041933834552764892578125</LatitudeDegrees>
              <LongitudeDegrees>-28.656825385987758636474609375</LongitudeDegrees>
            </Position>
            <AltitudeMeters>315.600006103515625</AltitudeMeters>
            <DistanceMeters>30076.423380646</DistanceMeters>
          </Trackpoint>
          <Trackpoint>
            <Time>2020-04-26T17:46:27.000Z</Time>
            <Position>
              <LatitudeDegrees>38.561340831220149993896484375</LatitudeDegrees>
              <LongitudeDegrees>-28.656685911118984222412109375</LongitudeDegrees>
            </Position>
            <AltitudeMeters>314.20001220703125</AltitudeMeters>
            <DistanceMeters>30089.000337713</DistanceMeters>
          </Trackpoint>
          <Trackpoint>
            <Time>2020-04-26T17:46:28.000Z</Time>
            <Position>
              <LatitudeDegrees>38.56132440268993377685546875</LatitudeDegrees>
              <LongitudeDegrees>-28.65654207766056060791015625</LongitudeDegrees>
            </Position>
            <AltitudeMeters>313.399993896484375</AltitudeMeters>
            <DistanceMeters>30101.651388061</DistanceMeters>
          </Trackpoint>
          <Trackpoint>
            <Time>2020-04-26T17:46:29.000Z</Time>
            <Position>
              <LatitudeDegrees>38.56132850982248783111572265625</LatitudeDegrees>
              <LongitudeDegrees>-28.6563960649073123931884765625</LongitudeDegrees>
            </Position>
            <AltitudeMeters>312.79998779296875</AltitudeMeters>
            <DistanceMeters>30114.367226562</DistanceMeters>
          </Trackpoint>
          <Trackpoint>
            <Time>2020-04-26T17:46:32.000Z</Time>
            <Position>
              <LatitudeDegrees>38.56142289005219936370849609375</LatitudeDegrees>
              <LongitudeDegrees>-28.65595794282853603363037109375</LongitudeDegrees>
            </Position>
            <AltitudeMeters>312</AltitudeMeters>
            <DistanceMeters>30153.918208123</DistanceMeters>
          </Trackpoint>
          <Trackpoint>
            <Time>2020-04-26T17:46:33.000Z</Time>
            <Position>
              <LatitudeDegrees>38.5614658892154693603515625</LatitudeDegrees>
              <LongitudeDegrees>-28.655812181532382965087890625</LongitudeDegrees>
            </Position>
            <AltitudeMeters>311.79998779296875</AltitudeMeters>
            <DistanceMeters>30167.476425785</DistanceMeters>
          </Trackpoint>
          <Trackpoint>
            <Time>2020-04-26T17:46:35.000Z</Time>
            <Position>
              <LatitudeDegrees>38.561544008553028106689453125</LatitudeDegrees>
              <LongitudeDegrees>-28.6555139534175395965576171875</LongitudeDegrees>
            </Position>
            <AltitudeMeters>310.20001220703125</AltitudeMeters>
            <DistanceMeters>30194.849398276</DistanceMeters>
          </Trackpoint>
          <Trackpoint>
            <Time>2020-04-26T17:46:37.000Z</Time>
            <Position>
              <LatitudeDegrees>38.561615087091922760009765625</LatitudeDegrees>
              <LongitudeDegrees>-28.65521362982690334320068359375</LongitudeDegrees>
            </Position>
            <AltitudeMeters>309.399993896484375</AltitudeMeters>
            <DistanceMeters>30222.157966404</DistanceMeters>
          </Trackpoint>
          <Trackpoint>
            <Time>2020-04-26T17:46:38.000Z</Time>
            <Position>
              <LatitudeDegrees>38.5616202838718891143798828125</LatitudeDegrees>
              <LongitudeDegrees>-28.65505881607532501220703125</LongitudeDegrees>
            </Position>
            <AltitudeMeters>308.79998779296875</AltitudeMeters>
            <DistanceMeters>30235.644061823</DistanceMeters>
          </Trackpoint>
          <Trackpoint>
            <Time>2020-04-26T17:46:39.000Z</Time>
            <Position>
              <LatitudeDegrees>38.56159237213432788848876953125</LatitudeDegrees>
              <LongitudeDegrees>-28.65490014664828777313232421875</LongitudeDegrees>
            </Position>
            <AltitudeMeters>308.20001220703125</AltitudeMeters>
            <DistanceMeters>30249.79793924</DistanceMeters>
          </Trackpoint>
          <Trackpoint>
            <Time>2020-04-26T17:46:40.000Z</Time>
            <Position>
              <LatitudeDegrees>38.56154979206621646881103515625</LatitudeDegrees>
              <LongitudeDegrees>-28.65474793128669261932373046875</LongitudeDegrees>
            </Position>
            <AltitudeMeters>307.399993896484375</AltitudeMeters>
            <DistanceMeters>30263.867670431</DistanceMeters>
          </Trackpoint>
          <Trackpoint>
            <Time>2020-04-26T17:46:42.000Z</Time>
            <Position>
              <LatitudeDegrees>38.5614023543894290924072265625</LatitudeDegrees>
              <LongitudeDegrees>-28.6544739268720149993896484375</LongitudeDegrees>
            </Position>
            <AltitudeMeters>305.79998779296875</AltitudeMeters>
            <DistanceMeters>30292.815434315</DistanceMeters>
          </Trackpoint>
          <Trackpoint>
            <Time>2020-04-26T17:46:44.000Z</Time>
            <Position>
              <LatitudeDegrees>38.561193980276584625244140625</LatitudeDegrees>
              <LongitudeDegrees>-28.6542673967778682708740234375</LongitudeDegrees>
            </Position>
            <AltitudeMeters>304.399993896484375</AltitudeMeters>
            <DistanceMeters>30322.157923449</DistanceMeters>
          </Trackpoint>
          <Trackpoint>
            <Time>2020-04-26T17:46:45.000Z</Time>
            <Position>
              <LatitudeDegrees>38.56109331361949443817138671875</LatitudeDegrees>
              <LongitudeDegrees>-28.65415801294147968292236328125</LongitudeDegrees>
            </Position>
            <AltitudeMeters>303.600006103515625</AltitudeMeters>
            <DistanceMeters>30336.860371202</DistanceMeters>
          </Trackpoint>
          <Trackpoint>
            <Time>2020-04-26T17:46:46.000Z</Time>
            <Position>
              <LatitudeDegrees>38.5610000230371952056884765625</LatitudeDegrees>
              <LongitudeDegrees>-28.6540427617728710174560546875</LongitudeDegrees>
            </Position>
            <AltitudeMeters>302.79998779296875</AltitudeMeters>
            <DistanceMeters>30351.297553215</DistanceMeters>
          </Trackpoint>
          <Trackpoint>
            <Time>2020-04-26T17:46:48.000Z</Time>
            <Position>
              <LatitudeDegrees>38.56082458980381488800048828125</LatitudeDegrees>
              <LongitudeDegrees>-28.653792478144168853759765625</LongitudeDegrees>
            </Position>
            <AltitudeMeters>300.79998779296875</AltitudeMeters>
            <DistanceMeters>30380.550968134</DistanceMeters>
          </Trackpoint>
          <Trackpoint>
            <Time>2020-04-26T17:46:49.000Z</Time>
            <Position>
              <LatitudeDegrees>38.56074730865657329559326171875</LatitudeDegrees>
              <LongitudeDegrees>-28.6536518298089504241943359375</LongitudeDegrees>
            </Position>
            <AltitudeMeters>299.79998779296875</AltitudeMeters>
            <DistanceMeters>30395.511867332</DistanceMeters>
          </Trackpoint>
          <Trackpoint>
            <Time>2020-04-26T17:46:50.000Z</Time>
            <Position>
              <LatitudeDegrees>38.56067975051701068878173828125</LatitudeDegrees>
              <LongitudeDegrees>-28.65350472740828990936279296875</LongitudeDegrees>
            </Position>
            <AltitudeMeters>298.20001220703125</AltitudeMeters>
            <DistanceMeters>30410.359164263</DistanceMeters>
          </Trackpoint>
          <Trackpoint>
            <Time>2020-04-26T17:46:51.000Z</Time>
            <Position>
              <LatitudeDegrees>38.560618646442890167236328125</LatitudeDegrees>
              <LongitudeDegrees>-28.65335150621831417083740234375</LongitudeDegrees>
            </Position>
            <AltitudeMeters>296.20001220703125</AltitudeMeters>
            <DistanceMeters>30425.328812791</DistanceMeters>
          </Trackpoint>
          <Trackpoint>
            <Time>2020-04-26T17:46:53.000Z</Time>
            <Position>
              <LatitudeDegrees>38.56050943024456501007080078125</LatitudeDegrees>
              <LongitudeDegrees>-28.65302972495555877685546875</LongitudeDegrees>
            </Position>
            <AltitudeMeters>294.399993896484375</AltitudeMeters>
            <DistanceMeters>30455.858871594</DistanceMeters>
          </Trackpoint>
          <Trackpoint>
            <Time>2020-04-26T17:46:55.000Z</Time>
            <Position>
              <LatitudeDegrees>38.56042745523154735565185546875</LatitudeDegrees>
              <LongitudeDegrees>-28.65269352681934833526611328125</LongitudeDegrees>
            </Position>
            <AltitudeMeters>293</AltitudeMeters>
            <DistanceMeters>30486.508780446</DistanceMeters>
          </Trackpoint>
          <Trackpoint>
            <Time>2020-04-26T17:46:56.000Z</Time>
            <Position>
              <LatitudeDegrees>38.56039979495108127593994140625</LatitudeDegrees>
              <LongitudeDegrees>-28.65252220071852207183837890625</LongitudeDegrees>
            </Position>
            <AltitudeMeters>292.600006103515625</AltitudeMeters>
            <DistanceMeters>30501.734420743</DistanceMeters>
          </Trackpoint>
          <Trackpoint>
            <Time>2020-04-26T17:46:57.000Z</Time>
            <Position>
              <LatitudeDegrees>38.56037850491702556610107421875</LatitudeDegrees>
              <LongitudeDegrees>-28.65234936587512493133544921875</LongitudeDegrees>
            </Position>
            <AltitudeMeters>292</AltitudeMeters>
            <DistanceMeters>30516.961840187</DistanceMeters>
          </Trackpoint>
          <Trackpoint>
            <Time>2020-04-26T17:47:00.000Z</Time>
            <Position>
              <LatitudeDegrees>38.56032117269933223724365234375</LatitudeDegrees>
              <LongitudeDegrees>-28.6518279276788234710693359375</LongitudeDegrees>
            </Position>
            <AltitudeMeters>290.399993896484375</AltitudeMeters>
            <DistanceMeters>30562.790535999</DistanceMeters>
          </Trackpoint>
          <Trackpoint>
            <Time>2020-04-26T17:47:01.000Z</Time>
            <Position>
              <LatitudeDegrees>38.56029267422854900360107421875</LatitudeDegrees>
              <LongitudeDegrees>-28.65165953524410724639892578125</LongitudeDegrees>
            </Position>
            <AltitudeMeters>289.79998779296875</AltitudeMeters>
            <DistanceMeters>30577.785498602</DistanceMeters>
          </Trackpoint>
          <Trackpoint>
            <Time>2020-04-26T17:47:02.000Z</Time>
            <Position>
              <LatitudeDegrees>38.5602590627968311309814453125</LatitudeDegrees>
              <LongitudeDegrees>-28.6514929868280887603759765625</LongitudeDegrees>
            </Position>
            <AltitudeMeters>289</AltitudeMeters>
            <DistanceMeters>30592.755448739</DistanceMeters>
          </Trackpoint>
          <Trackpoint>
            <Time>2020-04-26T17:47:03.000Z</Time>
            <Position>
              <LatitudeDegrees>38.56022679246962070465087890625</LatitudeDegrees>
              <LongitudeDegrees>-28.6513290368020534515380859375</LongitudeDegrees>
            </Position>
            <AltitudeMeters>288</AltitudeMeters>
            <DistanceMeters>30607.469561448</DistanceMeters>
          </Trackpoint>
          <Trackpoint>
            <Time>2020-04-26T17:47:05.000Z</Time>
            <Position>
              <LatitudeDegrees>38.56017800979316234588623046875</LatitudeDegrees>
              <LongitudeDegrees>-28.65099501796066761016845703125</LongitudeDegrees>
            </Position>
            <AltitudeMeters>286.600006103515625</AltitudeMeters>
            <DistanceMeters>30637.04287651</DistanceMeters>
          </Trackpoint>
          <Trackpoint>
            <Time>2020-04-26T17:47:06.000Z</Time>
            <Position>
              <LatitudeDegrees>38.5601484216749668121337890625</LatitudeDegrees>
              <LongitudeDegrees>-28.650828301906585693359375</LongitudeDegrees>
            </Position>
            <AltitudeMeters>286.399993896484375</AltitudeMeters>
            <DistanceMeters>30651.921766055</DistanceMeters>
          </Trackpoint>
          <Trackpoint>
            <Time>2020-04-26T17:47:08.000Z</Time>
            <Position>
              <LatitudeDegrees>38.5600635968148708343505859375</LatitudeDegrees>
              <LongitudeDegrees>-28.65050249733030796051025390625</LongitudeDegrees>
            </Position>
            <AltitudeMeters>285.399993896484375</AltitudeMeters>
            <DistanceMeters>30681.808234254</DistanceMeters>
          </Trackpoint>
          <Trackpoint>
            <Time>2020-04-26T17:47:11.000Z</Time>
            <Position>
              <LatitudeDegrees>38.5599006526172161102294921875</LatitudeDegrees>
              <LongitudeDegrees>-28.6500415764749050140380859375</LongitudeDegrees>
            </Position>
            <AltitudeMeters>284.79998779296875</AltitudeMeters>
            <DistanceMeters>30725.832789078</DistanceMeters>
          </Trackpoint>
          <Trackpoint>
            <Time>2020-04-26T17:47:12.000Z</Time>
            <Position>
              <LatitudeDegrees>38.559816665947437286376953125</LatitudeDegrees>
              <LongitudeDegrees>-28.64991760812699794769287109375</LongitudeDegrees>
            </Position>
            <AltitudeMeters>283.79998779296875</AltitudeMeters>
            <DistanceMeters>30740.108319373</DistanceMeters>
          </Trackpoint>
          <Trackpoint>
            <Time>2020-04-26T17:47:14.000Z</Time>
            <Position>
              <LatitudeDegrees>38.5596153326332569122314453125</LatitudeDegrees>
              <LongitudeDegrees>-28.649716190993785858154296875</LongitudeDegrees>
            </Position>
            <AltitudeMeters>282.399993896484375</AltitudeMeters>
            <DistanceMeters>30768.559260525</DistanceMeters>
          </Trackpoint>
          <Trackpoint>
            <Time>2020-04-26T17:47:15.000Z</Time>
            <Position>
              <LatitudeDegrees>38.55950653553009033203125</LatitudeDegrees>
              <LongitudeDegrees>-28.64962776191532611846923828125</LongitudeDegrees>
            </Position>
            <AltitudeMeters>280.79998779296875</AltitudeMeters>
            <DistanceMeters>30782.90735039</DistanceMeters>
          </Trackpoint>
          <Trackpoint>
            <Time>2020-04-26T17:47:17.000Z</Time>
            <Position>
              <LatitudeDegrees>38.5592857562005519866943359375</LatitudeDegrees>
              <LongitudeDegrees>-28.6494568549096584320068359375</LongitudeDegrees>
            </Position>
            <AltitudeMeters>279.79998779296875</AltitudeMeters>
            <DistanceMeters>30811.63183724</DistanceMeters>
          </Trackpoint>
          <Trackpoint>
            <Time>2020-04-26T17:47:18.000Z</Time>
            <Position>
              <LatitudeDegrees>38.55917318724095821380615234375</LatitudeDegrees>
              <LongitudeDegrees>-28.64937228150665760040283203125</LongitudeDegrees>
            </Position>
            <AltitudeMeters>278.79998779296875</AltitudeMeters>
            <DistanceMeters>30826.163158845</DistanceMeters>
          </Trackpoint>
          <Trackpoint>
            <Time>2020-04-26T17:47:20.000Z</Time>
            <Position>
              <LatitudeDegrees>38.5589528270065784454345703125</LatitudeDegrees>
              <LongitudeDegrees>-28.6492050625383853912353515625</LongitudeDegrees>
            </Position>
            <AltitudeMeters>277.600006103515625</AltitudeMeters>
            <DistanceMeters>30854.682890709</DistanceMeters>
          </Trackpoint>
          <Trackpoint>
            <Time>2020-04-26T17:47:21.000Z</Time>
            <Position>
              <LatitudeDegrees>38.55885417200624942779541015625</LatitudeDegrees>
              <LongitudeDegrees>-28.6491199024021625518798828125</LongitudeDegrees>
            </Position>
            <AltitudeMeters>277.20001220703125</AltitudeMeters>
            <DistanceMeters>30867.930855298</DistanceMeters>
          </Trackpoint>
          <Trackpoint>
            <Time>2020-04-26T17:47:22.000Z</Time>
            <Position>
              <LatitudeDegrees>38.55877823196351528167724609375</LatitudeDegrees>
              <LongitudeDegrees>-28.6490112729370594024658203125</LongitudeDegrees>
            </Position>
            <AltitudeMeters>276.600006103515625</AltitudeMeters>
            <DistanceMeters>30880.612561077</DistanceMeters>
          </Trackpoint>
          <Trackpoint>
            <Time>2020-04-26T17:47:23.000Z</Time>
            <Position>
              <LatitudeDegrees>38.55873464606702327728271484375</LatitudeDegrees>
              <LongitudeDegrees>-28.64887389354407787322998046875</LongitudeDegrees>
            </Position>
            <AltitudeMeters>275.399993896484375</AltitudeMeters>
            <DistanceMeters>30893.515915272</DistanceMeters>
          </Trackpoint>
          <Trackpoint>
            <Time>2020-04-26T17:47:25.000Z</Time>
            <Position>
              <LatitudeDegrees>38.55875861831009387969970703125</LatitudeDegrees>
              <LongitudeDegrees>-28.6485727317631244659423828125</LongitudeDegrees>
            </Position>
            <AltitudeMeters>274</AltitudeMeters>
            <DistanceMeters>30919.862832291</DistanceMeters>
          </Trackpoint>
          <Trackpoint>
            <Time>2020-04-26T17:47:27.000Z</Time>
            <Position>
              <LatitudeDegrees>38.558849729597568511962890625</LatitudeDegrees>
              <LongitudeDegrees>-28.64828288555145263671875</LongitudeDegrees>
            </Position>
            <AltitudeMeters>273</AltitudeMeters>
            <DistanceMeters>30947.051435011</DistanceMeters>
          </Trackpoint>
          <Trackpoint>
            <Time>2020-04-26T17:47:29.000Z</Time>
            <Position>
              <LatitudeDegrees>38.55895073153078556060791015625</LatitudeDegrees>
              <LongitudeDegrees>-28.64798583090305328369140625</LongitudeDegrees>
            </Position>
            <AltitudeMeters>271.79998779296875</AltitudeMeters>
            <DistanceMeters>30975.243796892</DistanceMeters>
          </Trackpoint>
          <Trackpoint>
            <Time>2020-04-26T17:47:30.000Z</Time>
            <Position>
              <LatitudeDegrees>38.55899331159889698028564453125</LatitudeDegrees>
              <LongitudeDegrees>-28.6478314362466335296630859375</LongitudeDegrees>
            </Position>
            <AltitudeMeters>271.20001220703125</AltitudeMeters>
            <DistanceMeters>30989.492418183</DistanceMeters>
          </Trackpoint>
          <Trackpoint>
            <Time>2020-04-26T17:47:31.000Z</Time>
            <Position>
              <LatitudeDegrees>38.559017367660999298095703125</LatitudeDegrees>
              <LongitudeDegrees>-28.64766924642026424407958984375</LongitudeDegrees>
            </Position>
            <AltitudeMeters>270.600006103515625</AltitudeMeters>
            <DistanceMeters>31003.860319129</DistanceMeters>
          </Trackpoint>
          <Trackpoint>
            <Time>2020-04-26T17:47:33.000Z</Time>
            <Position>
              <LatitudeDegrees>38.5590151883661746978759765625</LatitudeDegrees>
              <LongitudeDegrees>-28.64733715541660785675048828125</LongitudeDegrees>
            </Position>
            <AltitudeMeters>269.399993896484375</AltitudeMeters>
            <DistanceMeters>31032.764690296</DistanceMeters>
          </Trackpoint>
          <Trackpoint>
            <Time>2020-04-26T17:47:35.000Z</Time>
            <Position>
              <LatitudeDegrees>38.55897168628871440887451171875</LatitudeDegrees>
              <LongitudeDegrees>-28.64700523205101490020751953125</LongitudeDegrees>
            </Position>
            <AltitudeMeters>267.600006103515625</AltitudeMeters>
            <DistanceMeters>31062.056357087</DistanceMeters>
          </Trackpoint>
          <Trackpoint>
            <Time>2020-04-26T17:47:37.000Z</Time>
            <Position>
              <LatitudeDegrees>38.5589135996997356414794921875</LatitudeDegrees>
              <LongitudeDegrees>-28.6466737277805805206298828125</LongitudeDegrees>
            </Position>
            <AltitudeMeters>266.20001220703125</AltitudeMeters>
            <DistanceMeters>31091.624175421</DistanceMeters>
          </Trackpoint>
          <Trackpoint>
            <Time>2020-04-26T17:47:39.000Z</Time>
            <Position>
              <LatitudeDegrees>38.5588582791388034820556640625</LatitudeDegrees>
              <LongitudeDegrees>-28.64633987657725811004638671875</LongitudeDegrees>
            </Position>
            <AltitudeMeters>263.79998779296875</AltitudeMeters>
            <DistanceMeters>31121.326066746</DistanceMeters>
          </Trackpoint>
          <Trackpoint>
            <Time>2020-04-26T17:47:41.000Z</Time>
            <Position>
              <LatitudeDegrees>38.558810837566852569580078125</LatitudeDegrees>
              <LongitudeDegrees>-28.646006025373935699462890625</LongitudeDegrees>
            </Position>
            <AltitudeMeters>261.79998779296875</AltitudeMeters>
            <DistanceMeters>31150.85859006</DistanceMeters>
          </Trackpoint>
          <Trackpoint>
            <Time>2020-04-26T17:47:42.000Z</Time>
            <Position>
              <LatitudeDegrees>38.55880840681493282318115234375</LatitudeDegrees>
              <LongitudeDegrees>-28.64583780057728290557861328125</LongitudeDegrees>
            </Position>
            <AltitudeMeters>261.20001220703125</AltitudeMeters>
            <DistanceMeters>31165.501956997</DistanceMeters>
          </Trackpoint>
          <Trackpoint>
            <Time>2020-04-26T17:47:43.000Z</Time>
            <Position>
              <LatitudeDegrees>38.55882818810641765594482421875</LatitudeDegrees>
              <LongitudeDegrees>-28.6456712521612644195556640625</LongitudeDegrees>
            </Position>
            <AltitudeMeters>260.79998779296875</AltitudeMeters>
            <DistanceMeters>31180.163812262</DistanceMeters>
          </Trackpoint>
          <Trackpoint>
            <Time>2020-04-26T17:47:46.000Z</Time>
            <Position>
              <LatitudeDegrees>38.55898828245699405670166015625</LatitudeDegrees>
              <LongitudeDegrees>-28.64522441290318965911865234375</LongitudeDegrees>
            </Position>
            <AltitudeMeters>259.79998779296875</AltitudeMeters>
            <DistanceMeters>31222.942090765</DistanceMeters>
          </Trackpoint>
          <Trackpoint>
            <Time>2020-04-26T17:47:47.000Z</Time>
            <Position>
              <LatitudeDegrees>38.55905525386333465576171875</LatitudeDegrees>
              <LongitudeDegrees>-28.64508259110152721405029296875</LongitudeDegrees>
            </Position>
            <AltitudeMeters>259.20001220703125</AltitudeMeters>
            <DistanceMeters>31237.361748882</DistanceMeters>
          </Trackpoint>
          <Trackpoint>
            <Time>2020-04-26T17:47:49.000Z</Time>
            <Position>
              <LatitudeDegrees>38.55919280089437961578369140625</LatitudeDegrees>
              <LongitudeDegrees>-28.64479358308017253875732421875</LongitudeDegrees>
            </Position>
            <AltitudeMeters>258</AltitudeMeters>
            <DistanceMeters>31266.808072936</DistanceMeters>
          </Trackpoint>
          <Trackpoint>
            <Time>2020-04-26T17:47:50.000Z</Time>
            <Position>
              <LatitudeDegrees>38.55926522053778171539306640625</LatitudeDegrees>
              <LongitudeDegrees>-28.6446526832878589630126953125</LongitudeDegrees>
            </Position>
            <AltitudeMeters>257.20001220703125</AltitudeMeters>
            <DistanceMeters>31281.482856173</DistanceMeters>
          </Trackpoint>
          <Trackpoint>
            <Time>2020-04-26T17:47:51.000Z</Time>
            <Position>
              <LatitudeDegrees>38.5593481175601482391357421875</LatitudeDegrees>
              <LongitudeDegrees>-28.64452552981674671173095703125</LongitudeDegrees>
            </Position>
            <AltitudeMeters>256.399993896484375</AltitudeMeters>
            <DistanceMeters>31295.890924307</DistanceMeters>
          </Trackpoint>
          <Trackpoint>
            <Time>2020-04-26T17:47:53.000Z</Time>
            <Position>
              <LatitudeDegrees>38.5595258139073848724365234375</LatitudeDegrees>
              <LongitudeDegrees>-28.644280694425106048583984375</LongitudeDegrees>
            </Position>
            <AltitudeMeters>255</AltitudeMeters>
            <DistanceMeters>31324.963974463</DistanceMeters>
          </Trackpoint>
          <Trackpoint>
            <Time>2020-04-26T17:47:54.000Z</Time>
            <Position>
              <LatitudeDegrees>38.55960636399686336517333984375</LatitudeDegrees>
              <LongitudeDegrees>-28.64413308911025524139404296875</LongitudeDegrees>
            </Position>
            <AltitudeMeters>254.1999969482421875</AltitudeMeters>
            <DistanceMeters>31340.629265952</DistanceMeters>
          </Trackpoint>
          <Trackpoint>
            <Time>2020-04-26T17:47:55.000Z</Time>
            <Position>
              <LatitudeDegrees>38.55965849943459033966064453125</LatitudeDegrees>
              <LongitudeDegrees>-28.64396779797971248626708984375</LongitudeDegrees>
            </Position>
            <AltitudeMeters>253.8000030517578125</AltitudeMeters>
            <DistanceMeters>31356.141049116</DistanceMeters>
          </Trackpoint>
          <Trackpoint>
            <Time>2020-04-26T17:47:57.000Z</Time>
            <Position>
              <LatitudeDegrees>38.559664785861968994140625</LatitudeDegrees>
              <LongitudeDegrees>-28.643620200455188751220703125</LongitudeDegrees>
            </Position>
            <AltitudeMeters>252.1999969482421875</AltitudeMeters>
            <DistanceMeters>31386.401798644</DistanceMeters>
          </Trackpoint>
          <Trackpoint>
            <Time>2020-04-26T17:47:58.000Z</Time>
            <Position>
              <LatitudeDegrees>38.55962413363158702850341796875</LatitudeDegrees>
              <LongitudeDegrees>-28.64345432259142398834228515625</LongitudeDegrees>
            </Position>
            <AltitudeMeters>251.1999969482421875</AltitudeMeters>
            <DistanceMeters>31401.530755899</DistanceMeters>
          </Trackpoint>
          <Trackpoint>
            <Time>2020-04-26T17:48:00.000Z</Time>
            <Position>
              <LatitudeDegrees>38.5594998300075531005859375</LatitudeDegrees>
              <LongitudeDegrees>-28.64314553327858448028564453125</LongitudeDegrees>
            </Position>
            <AltitudeMeters>249.600006103515625</AltitudeMeters>
            <DistanceMeters>31431.757915784</DistanceMeters>
          </Trackpoint>
          <Trackpoint>
            <Time>2020-04-26T17:48:02.000Z</Time>
            <Position>
              <LatitudeDegrees>38.5593645460903644561767578125</LatitudeDegrees>
              <LongitudeDegrees>-28.6428499035537242889404296875</LongitudeDegrees>
            </Position>
            <AltitudeMeters>248.600006103515625</AltitudeMeters>
            <DistanceMeters>31461.569660511</DistanceMeters>
          </Trackpoint>
          <Trackpoint>
            <Time>2020-04-26T17:48:03.000Z</Time>
            <Position>
              <LatitudeDegrees>38.55929992161691188812255859375</LatitudeDegrees>
              <LongitudeDegrees>-28.64270456135272979736328125</LongitudeDegrees>
            </Position>
            <AltitudeMeters>247</AltitudeMeters>
            <DistanceMeters>31476.1211643</DistanceMeters>
          </Trackpoint>
          <Trackpoint>
            <Time>2020-04-26T17:48:05.000Z</Time>
            <Position>
              <LatitudeDegrees>38.5591699182987213134765625</LatitudeDegrees>
              <LongitudeDegrees>-28.6424128711223602294921875</LongitudeDegrees>
            </Position>
            <AltitudeMeters>245.8000030517578125</AltitudeMeters>
            <DistanceMeters>31505.342149369</DistanceMeters>
          </Trackpoint>
          <Trackpoint>
            <Time>2020-04-26T17:48:07.000Z</Time>
            <Position>
              <LatitudeDegrees>38.55904779396951198577880859375</LatitudeDegrees>
              <LongitudeDegrees>-28.64211405627429485321044921875</LongitudeDegrees>
            </Position>
            <AltitudeMeters>244</AltitudeMeters>
            <DistanceMeters>31534.68710038</DistanceMeters>
          </Trackpoint>
          <Trackpoint>
            <Time>2020-04-26T17:48:09.000Z</Time>
            <Position>
              <LatitudeDegrees>38.55895240791141986846923828125</LatitudeDegrees>
              <LongitudeDegrees>-28.64179219119250774383544921875</LongitudeDegrees>
            </Position>
            <AltitudeMeters>242.399993896484375</AltitudeMeters>
            <DistanceMeters>31564.644790168</DistanceMeters>
          </Trackpoint>
          <Trackpoint>
            <Time>2020-04-26T17:48:11.000Z</Time>
            <Position>
              <LatitudeDegrees>38.55887764133512973785400390625</LatitudeDegrees>
              <LongitudeDegrees>-28.64145825617015361785888671875</LongitudeDegrees>
            </Position>
            <AltitudeMeters>241</AltitudeMeters>
            <DistanceMeters>31594.876580177</DistanceMeters>
          </Trackpoint>
          <Trackpoint>
            <Time>2020-04-26T17:48:12.000Z</Time>
            <Position>
              <LatitudeDegrees>38.55885383673012256622314453125</LatitudeDegrees>
              <LongitudeDegrees>-28.64128701388835906982421875</LongitudeDegrees>
            </Position>
            <AltitudeMeters>240.399993896484375</AltitudeMeters>
            <DistanceMeters>31610.014189626</DistanceMeters>
          </Trackpoint>
          <Trackpoint>
            <Time>2020-04-26T17:48:13.000Z</Time>
            <Position>
              <LatitudeDegrees>38.55883908458054065704345703125</LatitudeDegrees>
              <LongitudeDegrees>-28.6411141790449619293212890625</LongitudeDegrees>
            </Position>
            <AltitudeMeters>239.8000030517578125</AltitudeMeters>
            <DistanceMeters>31625.145832575</DistanceMeters>
          </Trackpoint>
          <Trackpoint>
            <Time>2020-04-26T17:48:15.000Z</Time>
            <Position>
              <LatitudeDegrees>38.55881360359489917755126953125</LatitudeDegrees>
              <LongitudeDegrees>-28.64076524041593074798583984375</LongitudeDegrees>
            </Position>
            <AltitudeMeters>238.600006103515625</AltitudeMeters>
            <DistanceMeters>31655.64777966</DistanceMeters>
          </Trackpoint>
          <Trackpoint>
            <Time>2020-04-26T17:48:16.000Z</Time>
            <Position>
              <LatitudeDegrees>38.558782674372196197509765625</LatitudeDegrees>
              <LongitudeDegrees>-28.6405965127050876617431640625</LongitudeDegrees>
            </Position>
            <AltitudeMeters>238.1999969482421875</AltitudeMeters>
            <DistanceMeters>31670.731306304</DistanceMeters>
          </Trackpoint>
          <Trackpoint>
            <Time>2020-04-26T17:48:17.000Z</Time>
            <Position>
              <LatitudeDegrees>38.5587268508970737457275390625</LatitudeDegrees>
              <LongitudeDegrees>-28.6404396034777164459228515625</LongitudeDegrees>
            </Position>
            <AltitudeMeters>237.8000030517578125</AltitudeMeters>
            <DistanceMeters>31685.73469744</DistanceMeters>
          </Trackpoint>
          <Trackpoint>
            <Time>2020-04-26T17:48:18.000Z</Time>
            <Position>
              <LatitudeDegrees>38.55864495970308780670166015625</LatitudeDegrees>
              <LongitudeDegrees>-28.64030021242797374725341796875</LongitudeDegrees>
            </Position>
            <AltitudeMeters>236.8000030517578125</AltitudeMeters>
            <DistanceMeters>31700.908651743</DistanceMeters>
          </Trackpoint>
          <Trackpoint>
            <Time>2020-04-26T17:48:19.000Z</Time>
            <Position>
              <LatitudeDegrees>38.55854404158890247344970703125</LatitudeDegrees>
              <LongitudeDegrees>-28.6401817761361598968505859375</LongitudeDegrees>
            </Position>
            <AltitudeMeters>235.8000030517578125</AltitudeMeters>
            <DistanceMeters>31716.153851234</DistanceMeters>
          </Trackpoint>
          <Trackpoint>
            <Time>2020-04-26T17:48:21.000Z</Time>
            <Position>
              <LatitudeDegrees>38.55832627974450588226318359375</LatitudeDegrees>
              <LongitudeDegrees>-28.63998035900294780731201171875</LongitudeDegrees>
            </Position>
            <AltitudeMeters>234.399993896484375</AltitudeMeters>
            <DistanceMeters>31746.066292701</DistanceMeters>
          </Trackpoint>
          <Trackpoint>
            <Time>2020-04-26T17:48:22.000Z</Time>
            <Position>
              <LatitudeDegrees>38.55822938494384288787841796875</LatitudeDegrees>
              <LongitudeDegrees>-28.63986787386238574981689453125</LongitudeDegrees>
            </Position>
            <AltitudeMeters>233.8000030517578125</AltitudeMeters>
            <DistanceMeters>31760.63175239</DistanceMeters>
          </Trackpoint>
          <Trackpoint>
            <Time>2020-04-26T17:48:23.000Z</Time>
            <Position>
              <LatitudeDegrees>38.55814875103533267974853515625</LatitudeDegrees>
              <LongitudeDegrees>-28.63974197767674922943115234375</LongitudeDegrees>
            </Position>
            <AltitudeMeters>232.8000030517578125</AltitudeMeters>
            <DistanceMeters>31774.795515248</DistanceMeters>
          </Trackpoint>
          <Trackpoint>
            <Time>2020-04-26T17:48:24.000Z</Time>
            <Position>
              <LatitudeDegrees>38.55808001942932605743408203125</LatitudeDegrees>
              <LongitudeDegrees>-28.63960384391248226165771484375</LongitudeDegrees>
            </Position>
            <AltitudeMeters>231.8000030517578125</AltitudeMeters>
            <DistanceMeters>31789.045720828</DistanceMeters>
          </Trackpoint>
          <Trackpoint>
            <Time>2020-04-26T17:48:25.000Z</Time>
            <Position>
              <LatitudeDegrees>38.55801916681230068206787109375</LatitudeDegrees>
              <LongitudeDegrees>-28.6394626088440418243408203125</LongitudeDegrees>
            </Position>
            <AltitudeMeters>231</AltitudeMeters>
            <DistanceMeters>31803.080751556</DistanceMeters>
          </Trackpoint>
          <Trackpoint>
            <Time>2020-04-26T17:48:26.000Z</Time>
            <Position>
              <LatitudeDegrees>38.55795747600495815277099609375</LatitudeDegrees>
              <LongitudeDegrees>-28.6393201164901256561279296875</LongitudeDegrees>
            </Position>
            <AltitudeMeters>230.600006103515625</AltitudeMeters>
            <DistanceMeters>31817.256622647</DistanceMeters>
          </Trackpoint>
          <Trackpoint>
            <Time>2020-04-26T17:48:27.000Z</Time>
            <Position>
              <LatitudeDegrees>38.55789846740663051605224609375</LatitudeDegrees>
              <LongitudeDegrees>-28.6391762830317020416259765625</LongitudeDegrees>
            </Position>
            <AltitudeMeters>229.1999969482421875</AltitudeMeters>
            <DistanceMeters>31831.393583136</DistanceMeters>
          </Trackpoint>
          <Trackpoint>
            <Time>2020-04-26T17:48:28.000Z</Time>
            <Position>
              <LatitudeDegrees>38.5578447394073009490966796875</LatitudeDegrees>
              <LongitudeDegrees>-28.63902884535491466522216796875</LongitudeDegrees>
            </Position>
            <AltitudeMeters>228.1999969482421875</AltitudeMeters>
            <DistanceMeters>31845.550969079</DistanceMeters>
          </Trackpoint>
          <Trackpoint>
            <Time>2020-04-26T17:48:30.000Z</Time>
            <Position>
              <LatitudeDegrees>38.55775513686239719390869140625</LatitudeDegrees>
              <LongitudeDegrees>-28.6387189663946628570556640625</LongitudeDegrees>
            </Position>
            <AltitudeMeters>226.600006103515625</AltitudeMeters>
            <DistanceMeters>31874.306247548</DistanceMeters>
          </Trackpoint>
          <Trackpoint>
            <Time>2020-04-26T17:48:32.000Z</Time>
            <Position>
              <LatitudeDegrees>38.55767500586807727813720703125</LatitudeDegrees>
              <LongitudeDegrees>-28.63839785568416118621826171875</LongitudeDegrees>
            </Position>
            <AltitudeMeters>225.399993896484375</AltitudeMeters>
            <DistanceMeters>31903.643042802</DistanceMeters>
          </Trackpoint>
          <Trackpoint>
            <Time>2020-04-26T17:48:35.000Z</Time>
            <Position>
              <LatitudeDegrees>38.55753905139863491058349609375</LatitudeDegrees>
              <LongitudeDegrees>-28.63792411051690578460693359375</LongitudeDegrees>
            </Position>
            <AltitudeMeters>224.1999969482421875</AltitudeMeters>
            <DistanceMeters>31947.56492062</DistanceMeters>
          </Trackpoint>
          <Trackpoint>
            <Time>2020-04-26T17:48:36.000Z</Time>
            <Position>
              <LatitudeDegrees>38.557486496865749359130859375</LatitudeDegrees>
              <LongitudeDegrees>-28.637774996459484100341796875</LongitudeDegrees>
            </Position>
            <AltitudeMeters>223.600006103515625</AltitudeMeters>
            <DistanceMeters>31961.800544089</DistanceMeters>
          </Trackpoint>
          <Trackpoint>
            <Time>2020-04-26T17:48:37.000Z</Time>
            <Position>
              <LatitudeDegrees>38.5574305057525634765625</LatitudeDegrees>
              <LongitudeDegrees>-28.63762856461107730865478515625</LongitudeDegrees>
            </Position>
            <AltitudeMeters>223.1999969482421875</AltitudeMeters>
            <DistanceMeters>31975.987558358</DistanceMeters>
          </Trackpoint>
          <Trackpoint>
            <Time>2020-04-26T17:48:39.000Z</Time>
            <Position>
              <LatitudeDegrees>38.55731257237493991851806640625</LatitudeDegrees>
              <LongitudeDegrees>-28.63734609447419643402099609375</LongitudeDegrees>
            </Position>
            <AltitudeMeters>222</AltitudeMeters>
            <DistanceMeters>32003.857453503</DistanceMeters>
          </Trackpoint>
          <Trackpoint>
            <Time>2020-04-26T17:48:41.000Z</Time>
            <Position>
              <LatitudeDegrees>38.5571969859302043914794921875</LatitudeDegrees>
              <LongitudeDegrees>-28.63707401789724826812744140625</LongitudeDegrees>
            </Position>
            <AltitudeMeters>220.8000030517578125</AltitudeMeters>
            <DistanceMeters>32030.806868863</DistanceMeters>
          </Trackpoint>
          <Trackpoint>
            <Time>2020-04-26T17:48:42.000Z</Time>
            <Position>
              <LatitudeDegrees>38.55713688768446445465087890625</LatitudeDegrees>
              <LongitudeDegrees>-28.63693915307521820068359375</LongitudeDegrees>
            </Position>
            <AltitudeMeters>220.1999969482421875</AltitudeMeters>
            <DistanceMeters>32044.317047809</DistanceMeters>
          </Trackpoint>
          <Trackpoint>
            <Time>2020-04-26T17:48:43.000Z</Time>
            <Position>
              <LatitudeDegrees>38.55707335285842418670654296875</LatitudeDegrees>
              <LongitudeDegrees>-28.63680638372898101806640625</LongitudeDegrees>
            </Position>
            <AltitudeMeters>219.8000030517578125</AltitudeMeters>
            <DistanceMeters>32057.864938191</DistanceMeters>
          </Trackpoint>
          <Trackpoint>
            <Time>2020-04-26T17:48:44.000Z</Time>
            <Position>
              <LatitudeDegrees>38.5570062138140201568603515625</LatitudeDegrees>
              <LongitudeDegrees>-28.63667822442948818206787109375</LongitudeDegrees>
            </Position>
            <AltitudeMeters>219.1999969482421875</AltitudeMeters>
            <DistanceMeters>32071.291308365</DistanceMeters>
          </Trackpoint>
          <Trackpoint>
            <Time>2020-04-26T17:48:45.000Z</Time>
            <Position>
              <LatitudeDegrees>38.5569371469318866729736328125</LatitudeDegrees>
              <LongitudeDegrees>-28.6365510709583759307861328125</LongitudeDegrees>
            </Position>
            <AltitudeMeters>218.8000030517578125</AltitudeMeters>
            <DistanceMeters>32084.766351116</DistanceMeters>
          </Trackpoint>
          <Trackpoint>
            <Time>2020-04-26T17:48:47.000Z</Time>
            <Position>
              <LatitudeDegrees>38.5567996837198734283447265625</LatitudeDegrees>
              <LongitudeDegrees>-28.63629383035004138946533203125</LongitudeDegrees>
            </Position>
            <AltitudeMeters>217.1999969482421875</AltitudeMeters>
            <DistanceMeters>32111.884118452</DistanceMeters>
          </Trackpoint>
          <Trackpoint>
            <Time>2020-04-26T17:48:48.000Z</Time>
            <Position>
              <LatitudeDegrees>38.556732125580310821533203125</LatitudeDegrees>
              <LongitudeDegrees>-28.63616122864186763763427734375</LongitudeDegrees>
            </Position>
            <AltitudeMeters>216.600006103515625</AltitudeMeters>
            <DistanceMeters>32125.658731559</DistanceMeters>
          </Trackpoint>
          <Trackpoint>
            <Time>2020-04-26T17:48:49.000Z</Time>
            <Position>
              <LatitudeDegrees>38.55666515417397022247314453125</LatitudeDegrees>
              <LongitudeDegrees>-28.63602544181048870086669921875</LongitudeDegrees>
            </Position>
            <AltitudeMeters>215.600006103515625</AltitudeMeters>
            <DistanceMeters>32139.631859801</DistanceMeters>
          </Trackpoint>
          <Trackpoint>
            <Time>2020-04-26T17:48:51.000Z</Time>
            <Position>
              <LatitudeDegrees>38.556525595486164093017578125</LatitudeDegrees>
              <LongitudeDegrees>-28.63575235940515995025634765625</LongitudeDegrees>
            </Position>
            <AltitudeMeters>214.1999969482421875</AltitudeMeters>
            <DistanceMeters>32168.025613074</DistanceMeters>
          </Trackpoint>
          <Trackpoint>
            <Time>2020-04-26T17:48:53.000Z</Time>
            <Position>
              <LatitudeDegrees>38.55640950612723827362060546875</LatitudeDegrees>
              <LongitudeDegrees>-28.63551146350800991058349609375</LongitudeDegrees>
            </Position>
            <AltitudeMeters>212.600006103515625</AltitudeMeters>
            <DistanceMeters>32192.654036994</DistanceMeters>
          </Trackpoint>
          <Trackpoint>
            <Time>2020-04-26T17:48:55.000Z</Time>
            <Position>
              <LatitudeDegrees>38.5563400201499462127685546875</LatitudeDegrees>
              <LongitudeDegrees>-28.6353662051260471343994140625</LongitudeDegrees>
            </Position>
            <AltitudeMeters>211.399993896484375</AltitudeMeters>
            <DistanceMeters>32207.475158395</DistanceMeters>
          </Trackpoint>
          <Trackpoint>
            <Time>2020-04-26T17:48:56.000Z</Time>
            <Position>
              <LatitudeDegrees>38.556319735944271087646484375</LatitudeDegrees>
              <LongitudeDegrees>-28.6353125609457492828369140625</LongitudeDegrees>
            </Position>
            <AltitudeMeters>210.8000030517578125</AltitudeMeters>
            <DistanceMeters>32212.660866413</DistanceMeters>
          </Trackpoint>
          <Trackpoint>
            <Time>2020-04-26T17:48:59.000Z</Time>
            <Position>
              <LatitudeDegrees>38.55629148893058300018310546875</LatitudeDegrees>
              <LongitudeDegrees>-28.635212481021881103515625</LongitudeDegrees>
            </Position>
            <AltitudeMeters>210.1999969482421875</AltitudeMeters>
            <DistanceMeters>32221.921949831</DistanceMeters>
          </Trackpoint>
          <Trackpoint>
            <Time>2020-04-26T17:49:01.000Z</Time>
            <Position>
              <LatitudeDegrees>38.55632987804710865020751953125</LatitudeDegrees>
              <LongitudeDegrees>-28.6352310888469219207763671875</LongitudeDegrees>
            </Position>
            <AltitudeMeters>210</AltitudeMeters>
            <DistanceMeters>32226.491144151</DistanceMeters>
          </Trackpoint>
          <Trackpoint>
            <Time>2020-04-26T17:49:03.000Z</Time>
            <Position>
              <LatitudeDegrees>38.55635200627148151397705078125</LatitudeDegrees>
              <LongitudeDegrees>-28.63530166447162628173828125</LongitudeDegrees>
            </Position>
            <AltitudeMeters>210</AltitudeMeters>
            <DistanceMeters>32233.108989024</DistanceMeters>
          </Trackpoint>
          <Trackpoint>
            <Time>2020-04-26T17:49:06.000Z</Time>
            <Position>
              <LatitudeDegrees>38.55638888664543628692626953125</LatitudeDegrees>
              <LongitudeDegrees>-28.63541565835475921630859375</LongitudeDegrees>
            </Position>
            <AltitudeMeters>210.600006103515625</AltitudeMeters>
            <DistanceMeters>32243.846587267</DistanceMeters>
          </Trackpoint>
          <Trackpoint>
            <Time>2020-04-26T17:49:11.000Z</Time>
            <Position>
              <LatitudeDegrees>38.55644370429217815399169921875</LatitudeDegrees>
              <LongitudeDegrees>-28.6355962045490741729736328125</LongitudeDegrees>
            </Position>
            <AltitudeMeters>211.399993896484375</AltitudeMeters>
            <DistanceMeters>32260.703855006</DistanceMeters>
          </Trackpoint>
          <Trackpoint>
            <Time>2020-04-26T17:49:12.000Z</Time>
            <Position>
              <LatitudeDegrees>38.5564597137272357940673828125</LatitudeDegrees>
              <LongitudeDegrees>-28.63562897779047489166259765625</LongitudeDegrees>
            </Position>
            <AltitudeMeters>211.600006103515625</AltitudeMeters>
            <DistanceMeters>32264.067585938</DistanceMeters>
          </Trackpoint>
          <Trackpoint>
            <Time>2020-04-26T17:49:16.000Z</Time>
            <Position>
              <LatitudeDegrees>38.55652919970452785491943359375</LatitudeDegrees>
              <LongitudeDegrees>-28.63575990311801433563232421875</LongitudeDegrees>
            </Position>
            <AltitudeMeters>212.399993896484375</AltitudeMeters>
            <DistanceMeters>32277.839576558</DistanceMeters>
          </Trackpoint>
          <Trackpoint>
            <Time>2020-04-26T17:49:18.000Z</Time>
            <Position>
              <LatitudeDegrees>38.556564152240753173828125</LatitudeDegrees>
              <LongitudeDegrees>-28.63582670688629150390625</LongitudeDegrees>
            </Position>
            <AltitudeMeters>212.8000030517578125</AltitudeMeters>
            <DistanceMeters>32284.835504968</DistanceMeters>
          </Trackpoint>
          <Trackpoint>
            <Time>2020-04-26T17:49:21.000Z</Time>
            <Position>
              <LatitudeDegrees>38.55662114918231964111328125</LatitudeDegrees>
              <LongitudeDegrees>-28.63592661917209625244140625</LongitudeDegrees>
            </Position>
            <AltitudeMeters>213.1999969482421875</AltitudeMeters>
            <DistanceMeters>32295.599980846</DistanceMeters>
          </Trackpoint>
          <Trackpoint>
            <Time>2020-04-26T17:49:25.000Z</Time>
            <Position>
              <LatitudeDegrees>38.5566947422921657562255859375</LatitudeDegrees>
              <LongitudeDegrees>-28.636070787906646728515625</LongitudeDegrees>
            </Position>
            <AltitudeMeters>213.600006103515625</AltitudeMeters>
            <DistanceMeters>32310.585305034</DistanceMeters>
          </Trackpoint>
          <Trackpoint>
            <Time>2020-04-26T17:49:30.000Z</Time>
            <Position>
              <LatitudeDegrees>38.55679549276828765869140625</LatitudeDegrees>
              <LongitudeDegrees>-28.63624923862516880035400390625</LongitudeDegrees>
            </Position>
            <AltitudeMeters>214.399993896484375</AltitudeMeters>
            <DistanceMeters>32329.742087297</DistanceMeters>
          </Trackpoint>
          <Trackpoint>
            <Time>2020-04-26T17:49:32.000Z</Time>
            <Position>
              <LatitudeDegrees>38.55683295987546443939208984375</LatitudeDegrees>
              <LongitudeDegrees>-28.63632492721080780029296875</LongitudeDegrees>
            </Position>
            <AltitudeMeters>214.600006103515625</AltitudeMeters>
            <DistanceMeters>32337.538911947</DistanceMeters>
          </Trackpoint>
          <Trackpoint>
            <Time>2020-04-26T17:49:33.000Z</Time>
            <Position>
              <LatitudeDegrees>38.55685290880501270294189453125</LatitudeDegrees>
              <LongitudeDegrees>-28.63636272959411144256591796875</LongitudeDegrees>
            </Position>
            <AltitudeMeters>214.600006103515625</AltitudeMeters>
            <DistanceMeters>32341.50961887</DistanceMeters>
          </Trackpoint>
          <Trackpoint>
            <Time>2020-04-26T17:49:37.000Z</Time>
            <Position>
              <LatitudeDegrees>38.55693605728447437286376953125</LatitudeDegrees>
              <LongitudeDegrees>-28.63651670515537261962890625</LongitudeDegrees>
            </Position>
            <AltitudeMeters>215.399993896484375</AltitudeMeters>
            <DistanceMeters>32357.796099935</DistanceMeters>
          </Trackpoint>
          <Trackpoint>
            <Time>2020-04-26T17:49:39.000Z</Time>
            <Position>
              <LatitudeDegrees>38.55697779916226863861083984375</LatitudeDegrees>
              <LongitudeDegrees>-28.63659189082682132720947265625</LongitudeDegrees>
            </Position>
            <AltitudeMeters>215.8000030517578125</AltitudeMeters>
            <DistanceMeters>32365.821779674</DistanceMeters>
          </Trackpoint>
          <Trackpoint>
            <Time>2020-04-26T17:49:42.000Z</Time>
            <Position>
              <LatitudeDegrees>38.55703714303672313690185546875</LatitudeDegrees>
              <LongitudeDegrees>-28.63670404069125652313232421875</LongitudeDegrees>
            </Position>
            <AltitudeMeters>216.399993896484375</AltitudeMeters>
            <DistanceMeters>32377.608157235</DistanceMeters>
          </Trackpoint>
          <Trackpoint>
            <Time>2020-04-26T17:49:44.000Z</Time>
            <Position>
              <LatitudeDegrees>38.55707787908613681793212890625</LatitudeDegrees>
              <LongitudeDegrees>-28.63678090274333953857421875</LongitudeDegrees>
            </Position>
            <AltitudeMeters>217</AltitudeMeters>
            <DistanceMeters>32385.689898565</DistanceMeters>
          </Trackpoint>
          <Trackpoint>
            <Time>2020-04-26T17:49:51.000Z</Time>
            <Position>
              <LatitudeDegrees>38.55721768923103809356689453125</LatitudeDegrees>
              <LongitudeDegrees>-28.63706228323280811309814453125</LongitudeDegrees>
            </Position>
            <AltitudeMeters>218</AltitudeMeters>
            <DistanceMeters>32414.705897726</DistanceMeters>
          </Trackpoint>
          <Trackpoint>
            <Time>2020-04-26T17:49:56.000Z</Time>
            <Position>
              <LatitudeDegrees>38.5573082976043224334716796875</LatitudeDegrees>
              <LongitudeDegrees>-28.637266717851161956787109375</LongitudeDegrees>
            </Position>
            <AltitudeMeters>219.1999969482421875</AltitudeMeters>
            <DistanceMeters>32435.1582871</DistanceMeters>
          </Trackpoint>
          <Trackpoint>
            <Time>2020-04-26T17:49:59.000Z</Time>
            <Position>
              <LatitudeDegrees>38.5573599301278591156005859375</LatitudeDegrees>
              <LongitudeDegrees>-28.637395463883876800537109375</LongitudeDegrees>
            </Position>
            <AltitudeMeters>219.600006103515625</AltitudeMeters>
            <DistanceMeters>32447.752105531</DistanceMeters>
          </Trackpoint>
          <Trackpoint>
            <Time>2020-04-26T17:50:03.000Z</Time>
            <Position>
              <LatitudeDegrees>38.557426147162914276123046875</LatitudeDegrees>
              <LongitudeDegrees>-28.63756285049021244049072265625</LongitudeDegrees>
            </Position>
            <AltitudeMeters>220.399993896484375</AltitudeMeters>
            <DistanceMeters>32464.079011442</DistanceMeters>
          </Trackpoint>
          <Trackpoint>
            <Time>2020-04-26T17:50:07.000Z</Time>
            <Position>
              <LatitudeDegrees>38.55748557485640048980712890625</LatitudeDegrees>
              <LongitudeDegrees>-28.63773132674396038055419921875</LongitudeDegrees>
            </Position>
            <AltitudeMeters>221.399993896484375</AltitudeMeters>
            <DistanceMeters>32480.165212689</DistanceMeters>
          </Trackpoint>
          <Trackpoint>
            <Time>2020-04-26T17:50:14.000Z</Time>
            <Position>
              <LatitudeDegrees>38.55759537778794765472412109375</LatitudeDegrees>
              <LongitudeDegrees>-28.63802402280271053314208984375</LongitudeDegrees>
            </Position>
            <AltitudeMeters>222.399993896484375</AltitudeMeters>
            <DistanceMeters>32508.420284064</DistanceMeters>
          </Trackpoint>
          <Trackpoint>
            <Time>2020-04-26T17:50:15.000Z</Time>
            <Position>
              <LatitudeDegrees>38.557609207928180694580078125</LatitudeDegrees>
              <LongitudeDegrees>-28.63806677050888538360595703125</LongitudeDegrees>
            </Position>
            <AltitudeMeters>222.600006103515625</AltitudeMeters>
            <DistanceMeters>32512.447444018</DistanceMeters>
          </Trackpoint>
          <Trackpoint>
            <Time>2020-04-26T17:50:19.000Z</Time>
            <Position>
              <LatitudeDegrees>38.5576598346233367919921875</LatitudeDegrees>
              <LongitudeDegrees>-28.63824270665645599365234375</LongitudeDegrees>
            </Position>
            <AltitudeMeters>223.8000030517578125</AltitudeMeters>
            <DistanceMeters>32528.763838035</DistanceMeters>
          </Trackpoint>
          <Trackpoint>
            <Time>2020-04-26T17:50:24.000Z</Time>
            <Position>
              <LatitudeDegrees>38.5577123053371906280517578125</LatitudeDegrees>
              <LongitudeDegrees>-28.6384557746350765228271484375</LongitudeDegrees>
            </Position>
            <AltitudeMeters>224.600006103515625</AltitudeMeters>
            <DistanceMeters>32548.206266639</DistanceMeters>
          </Trackpoint>
          <Trackpoint>
            <Time>2020-04-26T17:50:27.000Z</Time>
            <Position>
              <LatitudeDegrees>38.55774574913084506988525390625</LatitudeDegrees>
              <LongitudeDegrees>-28.638578318059444427490234375</LongitudeDegrees>
            </Position>
            <AltitudeMeters>225.1999969482421875</AltitudeMeters>
            <DistanceMeters>32559.50286083</DistanceMeters>
          </Trackpoint>
          <Trackpoint>
            <Time>2020-04-26T17:50:32.000Z</Time>
            <Position>
              <LatitudeDegrees>38.55779461562633514404296875</LatitudeDegrees>
              <LongitudeDegrees>-28.63878644071519374847412109375</LongitudeDegrees>
            </Position>
            <AltitudeMeters>225.8000030517578125</AltitudeMeters>
            <DistanceMeters>32578.416041899</DistanceMeters>
          </Trackpoint>
          <Trackpoint>
            <Time>2020-04-26T17:50:36.000Z</Time>
            <Position>
              <LatitudeDegrees>38.55783878825604915618896484375</LatitudeDegrees>
              <LongitudeDegrees>-28.63894879817962646484375</LongitudeDegrees>
            </Position>
            <AltitudeMeters>226.1999969482421875</AltitudeMeters>
            <DistanceMeters>32593.378148206</DistanceMeters>
          </Trackpoint>
          <Trackpoint>
            <Time>2020-04-26T17:50:39.000Z</Time>
            <Position>
              <LatitudeDegrees>38.5578769259154796600341796875</LatitudeDegrees>
              <LongitudeDegrees>-28.63906857557594776153564453125</LongitudeDegrees>
            </Position>
            <AltitudeMeters>227.1999969482421875</AltitudeMeters>
            <DistanceMeters>32604.633901069</DistanceMeters>
          </Trackpoint>
          <Trackpoint>
            <Time>2020-04-26T17:50:40.000Z</Time>
            <Position>
              <LatitudeDegrees>38.55788874439895153045654296875</LatitudeDegrees>
              <LongitudeDegrees>-28.6391085572540760040283203125</LongitudeDegrees>
            </Position>
            <AltitudeMeters>227.399993896484375</AltitudeMeters>
            <DistanceMeters>32608.35331999</DistanceMeters>
          </Trackpoint>
          <Trackpoint>
            <Time>2020-04-26T17:50:46.000Z</Time>
            <Position>
              <LatitudeDegrees>38.5579825378954410552978515625</LatitudeDegrees>
              <LongitudeDegrees>-28.63933704793453216552734375</LongitudeDegrees>
            </Position>
            <AltitudeMeters>228.1999969482421875</AltitudeMeters>
            <DistanceMeters>32630.813824228</DistanceMeters>
          </Trackpoint>
          <Trackpoint>
            <Time>2020-04-26T17:50:48.000Z</Time>
            <Position>
              <LatitudeDegrees>38.558018244802951812744140625</LatitudeDegrees>
              <LongitudeDegrees>-28.6394096352159976959228515625</LongitudeDegrees>
            </Position>
            <AltitudeMeters>228.600006103515625</AltitudeMeters>
            <DistanceMeters>32638.276900772</DistanceMeters>
          </Trackpoint>
          <Trackpoint>
            <Time>2020-04-26T17:50:54.000Z</Time>
            <Position>
              <LatitudeDegrees>38.558123521506786346435546875</LatitudeDegrees>
              <LongitudeDegrees>-28.639637120068073272705078125</LongitudeDegrees>
            </Position>
            <AltitudeMeters>229.399993896484375</AltitudeMeters>
            <DistanceMeters>32661.283572866</DistanceMeters>
          </Trackpoint>
          <Trackpoint>
            <Time>2020-04-26T17:50:55.000Z</Time>
            <Position>
              <LatitudeDegrees>38.55814103968441486358642578125</LatitudeDegrees>
              <LongitudeDegrees>-28.63967609591782093048095703125</LongitudeDegrees>
            </Position>
            <AltitudeMeters>229.600006103515625</AltitudeMeters>
            <DistanceMeters>32665.195858588</DistanceMeters>
          </Trackpoint>
          <Trackpoint>
            <Time>2020-04-26T17:51:02.000Z</Time>
            <Position>
              <LatitudeDegrees>38.558282442390918731689453125</LatitudeDegrees>
              <LongitudeDegrees>-28.63992805592715740203857421875</LongitudeDegrees>
            </Position>
            <AltitudeMeters>230.399993896484375</AltitudeMeters>
            <DistanceMeters>32692.188296749</DistanceMeters>
          </Trackpoint>
          <Trackpoint>
            <Time>2020-04-26T17:51:03.000Z</Time>
            <Position>
              <LatitudeDegrees>38.558306582272052764892578125</LatitudeDegrees>
              <LongitudeDegrees>-28.6399604938924312591552734375</LongitudeDegrees>
            </Position>
            <AltitudeMeters>230.600006103515625</AltitudeMeters>
            <DistanceMeters>32696.085550729</DistanceMeters>
          </Trackpoint>
          <Trackpoint>
            <Time>2020-04-26T17:51:09.000Z</Time>
            <Position>
              <LatitudeDegrees>38.5584787465631961822509765625</LatitudeDegrees>
              <LongitudeDegrees>-28.64011262543499469757080078125</LongitudeDegrees>
            </Position>
            <AltitudeMeters>231.600006103515625</AltitudeMeters>
            <DistanceMeters>32719.377371881</DistanceMeters>
          </Trackpoint>
          <Trackpoint>
            <Time>2020-04-26T17:51:10.000Z</Time>
            <Position>
              <LatitudeDegrees>38.55850850231945514678955078125</LatitudeDegrees>
              <LongitudeDegrees>-28.64013542421162128448486328125</LongitudeDegrees>
            </Position>
            <AltitudeMeters>231.8000030517578125</AltitudeMeters>
            <DistanceMeters>32723.237375266</DistanceMeters>
          </Trackpoint>
          <Trackpoint>
            <Time>2020-04-26T17:51:15.000Z</Time>
            <Position>
              <LatitudeDegrees>38.55864495970308780670166015625</LatitudeDegrees>
              <LongitudeDegrees>-28.64026986993849277496337890625</LongitudeDegrees>
            </Position>
            <AltitudeMeters>233.1999969482421875</AltitudeMeters>
            <DistanceMeters>32742.410177667</DistanceMeters>
          </Trackpoint>
          <Trackpoint>
            <Time>2020-04-26T17:51:17.000Z</Time>
            <Position>
              <LatitudeDegrees>38.558690138161182403564453125</LatitudeDegrees>
              <LongitudeDegrees>-28.64033256657421588897705078125</LongitudeDegrees>
            </Position>
            <AltitudeMeters>233.399993896484375</AltitudeMeters>
            <DistanceMeters>32749.830784526</DistanceMeters>
          </Trackpoint>
          <Trackpoint>
            <Time>2020-04-26T17:51:20.000Z</Time>
            <Position>
              <LatitudeDegrees>38.558749146759510040283203125</LatitudeDegrees>
              <LongitudeDegrees>-28.6404365859925746917724609375</LongitudeDegrees>
            </Position>
            <AltitudeMeters>234.399993896484375</AltitudeMeters>
            <DistanceMeters>32761.015715417</DistanceMeters>
          </Trackpoint>
          <Trackpoint>
            <Time>2020-04-26T17:51:24.000Z</Time>
            <Position>
              <LatitudeDegrees>38.55881108902394771575927734375</LatitudeDegrees>
              <LongitudeDegrees>-28.64058922044932842254638671875</LongitudeDegrees>
            </Position>
            <AltitudeMeters>235.399993896484375</AltitudeMeters>
            <DistanceMeters>32775.982347512</DistanceMeters>
          </Trackpoint>
          <Trackpoint>
            <Time>2020-04-26T17:51:25.000Z</Time>
            <Position>
              <LatitudeDegrees>38.558822572231292724609375</LatitudeDegrees>
              <LongitudeDegrees>-28.64062962122261524200439453125</LongitudeDegrees>
            </Position>
            <AltitudeMeters>235.600006103515625</AltitudeMeters>
            <DistanceMeters>32779.723552998</DistanceMeters>
          </Trackpoint>
          <Trackpoint>
            <Time>2020-04-26T17:51:30.000Z</Time>
            <Position>
              <LatitudeDegrees>38.55885433964431285858154296875</LatitudeDegrees>
              <LongitudeDegrees>-28.64083983935415744781494140625</LongitudeDegrees>
            </Position>
            <AltitudeMeters>236.8000030517578125</AltitudeMeters>
            <DistanceMeters>32798.358483096</DistanceMeters>
          </Trackpoint>
          <Trackpoint>
            <Time>2020-04-26T17:51:36.000Z</Time>
            <Position>
              <LatitudeDegrees>38.55886079370975494384765625</LatitudeDegrees>
              <LongitudeDegrees>-28.64110118709504604339599609375</LongitudeDegrees>
            </Position>
            <AltitudeMeters>237.8000030517578125</AltitudeMeters>
            <DistanceMeters>32821.116141243</DistanceMeters>
          </Trackpoint>
          <Trackpoint>
            <Time>2020-04-26T17:51:37.000Z</Time>
            <Position>
              <LatitudeDegrees>38.55886213481426239013671875</LatitudeDegrees>
              <LongitudeDegrees>-28.64114410243928432464599609375</LongitudeDegrees>
            </Position>
            <AltitudeMeters>238</AltitudeMeters>
            <DistanceMeters>32824.854932269</DistanceMeters>
          </Trackpoint>
          <Trackpoint>
            <Time>2020-04-26T17:51:40.000Z</Time>
            <Position>
              <LatitudeDegrees>38.55887495912611484527587890625</LatitudeDegrees>
              <LongitudeDegrees>-28.64127360284328460693359375</LongitudeDegrees>
            </Position>
            <AltitudeMeters>238.8000030517578125</AltitudeMeters>
            <DistanceMeters>32836.216090339</DistanceMeters>
          </Trackpoint>
          <Trackpoint>
            <Time>2020-04-26T17:51:45.000Z</Time>
            <Position>
              <LatitudeDegrees>38.5589075647294521331787109375</LatitudeDegrees>
              <LongitudeDegrees>-28.64149614237248897552490234375</LongitudeDegrees>
            </Position>
            <AltitudeMeters>239.600006103515625</AltitudeMeters>
            <DistanceMeters>32855.921707489</DistanceMeters>
          </Trackpoint>
          <Trackpoint>
            <Time>2020-04-26T17:51:47.000Z</Time>
            <Position>
              <LatitudeDegrees>38.558926172554492950439453125</LatitudeDegrees>
              <LongitudeDegrees>-28.6415852420032024383544921875</LongitudeDegrees>
            </Position>
            <AltitudeMeters>240</AltitudeMeters>
            <DistanceMeters>32863.948512297</DistanceMeters>
          </Trackpoint>
          <Trackpoint>
            <Time>2020-04-26T17:51:52.000Z</Time>
            <Position>
              <LatitudeDegrees>38.5589786432683467864990234375</LatitudeDegrees>
              <LongitudeDegrees>-28.64179755561053752899169921875</LongitudeDegrees>
            </Position>
            <AltitudeMeters>241</AltitudeMeters>
            <DistanceMeters>32883.327905458</DistanceMeters>
          </Trackpoint>
          <Trackpoint>
            <Time>2020-04-26T17:51:53.000Z</Time>
            <Position>
              <LatitudeDegrees>38.5589903779327869415283203125</LatitudeDegrees>
              <LongitudeDegrees>-28.64183946512639522552490234375</LongitudeDegrees>
            </Position>
            <AltitudeMeters>241</AltitudeMeters>
            <DistanceMeters>32887.204250025</DistanceMeters>
          </Trackpoint>
          <Trackpoint>
            <Time>2020-04-26T17:52:01.000Z</Time>
            <Position>
              <LatitudeDegrees>38.55909205041825771331787109375</LatitudeDegrees>
              <LongitudeDegrees>-28.64216367714107036590576171875</LongitudeDegrees>
            </Position>
            <AltitudeMeters>242.1999969482421875</AltitudeMeters>
            <DistanceMeters>32917.606264835</DistanceMeters>
          </Trackpoint>
          <Trackpoint>
            <Time>2020-04-26T17:52:03.000Z</Time>
            <Position>
              <LatitudeDegrees>38.5591234825551509857177734375</LatitudeDegrees>
              <LongitudeDegrees>-28.64224213175475597381591796875</LongitudeDegrees>
            </Position>
            <AltitudeMeters>242.399993896484375</AltitudeMeters>
            <DistanceMeters>32925.278164095</DistanceMeters>
          </Trackpoint>
          <Trackpoint>
            <Time>2020-04-26T17:52:07.000Z</Time>
            <Position>
              <LatitudeDegrees>38.55917955748736858367919921875</LatitudeDegrees>
              <LongitudeDegrees>-28.6423976160585880279541015625</LongitudeDegrees>
            </Position>
            <AltitudeMeters>243.1999969482421875</AltitudeMeters>
            <DistanceMeters>32940.18070415</DistanceMeters>
          </Trackpoint>
          <Trackpoint>
            <Time>2020-04-26T17:52:12.000Z</Time>
            <Position>
              <LatitudeDegrees>38.5592683218419551849365234375</LatitudeDegrees>
              <LongitudeDegrees>-28.64258713088929653167724609375</LongitudeDegrees>
            </Position>
            <AltitudeMeters>244</AltitudeMeters>
            <DistanceMeters>32959.407123715</DistanceMeters>
          </Trackpoint>
          <Trackpoint>
            <Time>2020-04-26T17:52:13.000Z</Time>
            <Position>
              <LatitudeDegrees>38.5592854209244251251220703125</LatitudeDegrees>
              <LongitudeDegrees>-28.642626442015171051025390625</LongitudeDegrees>
            </Position>
            <AltitudeMeters>244.1999969482421875</AltitudeMeters>
            <DistanceMeters>32963.320563334</DistanceMeters>
          </Trackpoint>
          <Trackpoint>
            <Time>2020-04-26T17:52:18.000Z</Time>
            <Position>
              <LatitudeDegrees>38.55936546809971332550048828125</LatitudeDegrees>
              <LongitudeDegrees>-28.64282769151031970977783203125</LongitudeDegrees>
            </Position>
            <AltitudeMeters>245.1999969482421875</AltitudeMeters>
            <DistanceMeters>32982.971802967</DistanceMeters>
          </Trackpoint>
          <Trackpoint>
            <Time>2020-04-26T17:52:21.000Z</Time>
            <Position>
              <LatitudeDegrees>38.5594155080616474151611328125</LatitudeDegrees>
              <LongitudeDegrees>-28.64294252358376979827880859375</LongitudeDegrees>
            </Position>
            <AltitudeMeters>245.600006103515625</AltitudeMeters>
            <DistanceMeters>32994.412956236</DistanceMeters>
          </Trackpoint>
          <Trackpoint>
            <Time>2020-04-26T17:52:25.000Z</Time>
            <Position>
              <LatitudeDegrees>38.55948331765830516815185546875</LatitudeDegrees>
              <LongitudeDegrees>-28.6431006900966167449951171875</LongitudeDegrees>
            </Position>
            <AltitudeMeters>246.1999969482421875</AltitudeMeters>
            <DistanceMeters>33010.112220756</DistanceMeters>
          </Trackpoint>
          <Trackpoint>
            <Time>2020-04-26T17:52:29.000Z</Time>
            <Position>
              <LatitudeDegrees>38.55954986996948719024658203125</LatitudeDegrees>
              <LongitudeDegrees>-28.64325332455337047576904296875</LongitudeDegrees>
            </Position>
            <AltitudeMeters>247.399993896484375</AltitudeMeters>
            <DistanceMeters>33025.322433065</DistanceMeters>
          </Trackpoint>
          <Trackpoint>
            <Time>2020-04-26T17:52:31.000Z</Time>
            <Position>
              <LatitudeDegrees>38.55958406813442707061767578125</LatitudeDegrees>
              <LongitudeDegrees>-28.64332792349159717559814453125</LongitudeDegrees>
            </Position>
            <AltitudeMeters>247.8000030517578125</AltitudeMeters>
            <DistanceMeters>33032.848164887</DistanceMeters>
          </Trackpoint>
          <Trackpoint>
            <Time>2020-04-26T17:52:34.000Z</Time>
            <Position>
              <LatitudeDegrees>38.55963620357215404510498046875</LatitudeDegrees>
              <LongitudeDegrees>-28.64343856461346149444580078125</LongitudeDegrees>
            </Position>
            <AltitudeMeters>248.600006103515625</AltitudeMeters>
            <DistanceMeters>33044.090672614</DistanceMeters>
          </Trackpoint>
          <Trackpoint>
            <Time>2020-04-26T17:52:39.000Z</Time>
            <Position>
              <LatitudeDegrees>38.55970292352139949798583984375</LatitudeDegrees>
              <LongitudeDegrees>-28.6436253972351551055908203125</LongitudeDegrees>
            </Position>
            <AltitudeMeters>249.399993896484375</AltitudeMeters>
            <DistanceMeters>33061.966559029</DistanceMeters>
          </Trackpoint>
          <Trackpoint>
            <Time>2020-04-26T17:52:42.000Z</Time>
            <Position>
              <LatitudeDegrees>38.55973661877214908599853515625</LatitudeDegrees>
              <LongitudeDegrees>-28.64374458789825439453125</LongitudeDegrees>
            </Position>
            <AltitudeMeters>250</AltitudeMeters>
            <DistanceMeters>33072.997028194</DistanceMeters>
          </Trackpoint>
          <Trackpoint>
            <Time>2020-04-26T17:52:46.000Z</Time>
            <Position>
              <LatitudeDegrees>38.55974860489368438720703125</LatitudeDegrees>
              <LongitudeDegrees>-28.64391515962779521942138671875</LongitudeDegrees>
            </Position>
            <AltitudeMeters>251</AltitudeMeters>
            <DistanceMeters>33087.902597651</DistanceMeters>
          </Trackpoint>
          <Trackpoint>
            <Time>2020-04-26T17:52:47.000Z</Time>
            <Position>
              <LatitudeDegrees>38.5597447492182254791259765625</LatitudeDegrees>
              <LongitudeDegrees>-28.6439573206007480621337890625</LongitudeDegrees>
            </Position>
            <AltitudeMeters>251</AltitudeMeters>
            <DistanceMeters>33091.597658623</DistanceMeters>
          </Trackpoint>
          <Trackpoint>
            <Time>2020-04-26T17:52:53.000Z</Time>
            <Position>
              <LatitudeDegrees>38.55969093739986419677734375</LatitudeDegrees>
              <LongitudeDegrees>-28.64419452846050262451171875</LongitudeDegrees>
            </Position>
            <AltitudeMeters>251.8000030517578125</AltitudeMeters>
            <DistanceMeters>33113.093869261</DistanceMeters>
          </Trackpoint>
          <Trackpoint>
            <Time>2020-04-26T17:52:56.000Z</Time>
            <Position>
              <LatitudeDegrees>38.5596310906112194061279296875</LatitudeDegrees>
              <LongitudeDegrees>-28.64429737441241741180419921875</LongitudeDegrees>
            </Position>
            <AltitudeMeters>252.1999969482421875</AltitudeMeters>
            <DistanceMeters>33124.252126024</DistanceMeters>
          </Trackpoint>
          <Trackpoint>
            <Time>2020-04-26T17:53:00.000Z</Time>
            <Position>
              <LatitudeDegrees>38.559567220509052276611328125</LatitudeDegrees>
              <LongitudeDegrees>-28.644430898129940032958984375</LongitudeDegrees>
            </Position>
            <AltitudeMeters>252.8000030517578125</AltitudeMeters>
            <DistanceMeters>33137.87578894</DistanceMeters>
          </Trackpoint>
          <Trackpoint>
            <Time>2020-04-26T17:53:01.000Z</Time>
            <Position>
              <LatitudeDegrees>38.55954769067466259002685546875</LatitudeDegrees>
              <LongitudeDegrees>-28.64445461891591548919677734375</LongitudeDegrees>
            </Position>
            <AltitudeMeters>253.1999969482421875</AltitudeMeters>
            <DistanceMeters>33140.87478146</DistanceMeters>
          </Trackpoint>
          <Trackpoint>
            <Time>2020-04-26T17:53:06.000Z</Time>
            <Position>
              <LatitudeDegrees>38.5594399832189083099365234375</LatitudeDegrees>
              <LongitudeDegrees>-28.64458613097667694091796875</LongitudeDegrees>
            </Position>
            <AltitudeMeters>254.1999969482421875</AltitudeMeters>
            <DistanceMeters>33157.449521749</DistanceMeters>
          </Trackpoint>
          <Trackpoint>
            <Time>2020-04-26T17:53:07.000Z</Time>
            <Position>
              <LatitudeDegrees>38.55942145921289920806884765625</LatitudeDegrees>
              <LongitudeDegrees>-28.6446137912571430206298828125</LongitudeDegrees>
            </Position>
            <AltitudeMeters>254.399993896484375</AltitudeMeters>
            <DistanceMeters>33160.621194046</DistanceMeters>
          </Trackpoint>
          <Trackpoint>
            <Time>2020-04-26T17:53:14.000Z</Time>
            <Position>
              <LatitudeDegrees>38.55930109508335590362548828125</LatitudeDegrees>
              <LongitudeDegrees>-28.64484890364110469818115234375</LongitudeDegrees>
            </Position>
            <AltitudeMeters>255.399993896484375</AltitudeMeters>
            <DistanceMeters>33185.079268664</DistanceMeters>
          </Trackpoint>
          <Trackpoint>
            <Time>2020-04-26T17:53:15.000Z</Time>
            <Position>
              <LatitudeDegrees>38.5592850856482982635498046875</LatitudeDegrees>
              <LongitudeDegrees>-28.6448870413005352020263671875</LongitudeDegrees>
            </Position>
            <AltitudeMeters>255.600006103515625</AltitudeMeters>
            <DistanceMeters>33188.844533598</DistanceMeters>
          </Trackpoint>
          <Trackpoint>
            <Time>2020-04-26T17:53:21.000Z</Time>
            <Position>
              <LatitudeDegrees>38.5591908730566501617431640625</LatitudeDegrees>
              <LongitudeDegrees>-28.64511880092322826385498046875</LongitudeDegrees>
            </Position>
            <AltitudeMeters>256.600006103515625</AltitudeMeters>
            <DistanceMeters>33211.578371707</DistanceMeters>
          </Trackpoint>
          <Trackpoint>
            <Time>2020-04-26T17:53:25.000Z</Time>
            <Position>
              <LatitudeDegrees>38.559115268290042877197265625</LatitudeDegrees>
              <LongitudeDegrees>-28.6452519893646240234375</LongitudeDegrees>
            </Position>
            <AltitudeMeters>257.79998779296875</AltitudeMeters>
            <DistanceMeters>33225.902841228</DistanceMeters>
          </Trackpoint>
          <Trackpoint>
            <Time>2020-04-26T17:53:26.000Z</Time>
            <Position>
              <LatitudeDegrees>38.55909439735114574432373046875</LatitudeDegrees>
              <LongitudeDegrees>-28.64528560079634189605712890625</LongitudeDegrees>
            </Position>
            <AltitudeMeters>258.20001220703125</AltitudeMeters>
            <DistanceMeters>33229.639216233</DistanceMeters>
          </Trackpoint>
          <Trackpoint>
            <Time>2020-04-26T17:53:31.000Z</Time>
            <Position>
              <LatitudeDegrees>38.55897688306868076324462890625</LatitudeDegrees>
              <LongitudeDegrees>-28.64545877091586589813232421875</LongitudeDegrees>
            </Position>
            <AltitudeMeters>258.79998779296875</AltitudeMeters>
            <DistanceMeters>33249.595278754</DistanceMeters>
          </Trackpoint>
          <Trackpoint>
            <Time>2020-04-26T17:53:33.000Z</Time>
            <Position>
              <LatitudeDegrees>38.558938242495059967041015625</LatitudeDegrees>
              <LongitudeDegrees>-28.6455376446247100830078125</LongitudeDegrees>
            </Position>
            <AltitudeMeters>259.20001220703125</AltitudeMeters>
            <DistanceMeters>33257.696549987</DistanceMeters>
          </Trackpoint>
          <Trackpoint>
            <Time>2020-04-26T17:53:38.000Z</Time>
            <Position>
              <LatitudeDegrees>38.55889306403696537017822265625</LatitudeDegrees>
              <LongitudeDegrees>-28.64577510394155979156494140625</LongitudeDegrees>
            </Position>
            <AltitudeMeters>259.79998779296875</AltitudeMeters>
            <DistanceMeters>33278.966831837</DistanceMeters>
          </Trackpoint>
          <Trackpoint>
            <Time>2020-04-26T17:53:39.000Z</Time>
            <Position>
              <LatitudeDegrees>38.5588896274566650390625</LatitudeDegrees>
              <LongitudeDegrees>-28.64582422189414501190185546875</LongitudeDegrees>
            </Position>
            <AltitudeMeters>260</AltitudeMeters>
            <DistanceMeters>33283.258842549</DistanceMeters>
          </Trackpoint>
          <Trackpoint>
            <Time>2020-04-26T17:53:45.000Z</Time>
            <Position>
              <LatitudeDegrees>38.55889834463596343994140625</LatitudeDegrees>
              <LongitudeDegrees>-28.646111302077770233154296875</LongitudeDegrees>
            </Position>
            <AltitudeMeters>260.399993896484375</AltitudeMeters>
            <DistanceMeters>33308.263511371</DistanceMeters>
          </Trackpoint>
          <Trackpoint>
            <Time>2020-04-26T17:53:50.000Z</Time>
            <Position>
              <LatitudeDegrees>38.5589367337524890899658203125</LatitudeDegrees>
              <LongitudeDegrees>-28.646322526037693023681640625</LongitudeDegrees>
            </Position>
            <AltitudeMeters>261.20001220703125</AltitudeMeters>
            <DistanceMeters>33327.137022583</DistanceMeters>
          </Trackpoint>
          <Trackpoint>
            <Time>2020-04-26T17:53:53.000Z</Time>
            <Position>
              <LatitudeDegrees>38.5589595325291156768798828125</LatitudeDegrees>
              <LongitudeDegrees>-28.646451272070407867431640625</LongitudeDegrees>
            </Position>
            <AltitudeMeters>261.79998779296875</AltitudeMeters>
            <DistanceMeters>33338.626220008</DistanceMeters>
          </Trackpoint>
          <Trackpoint>
            <Time>2020-04-26T17:53:57.000Z</Time>
            <Position>
              <LatitudeDegrees>38.55899113230407238006591796875</LatitudeDegrees>
              <LongitudeDegrees>-28.64661966450512409210205078125</LongitudeDegrees>
            </Position>
            <AltitudeMeters>262.399993896484375</AltitudeMeters>
            <DistanceMeters>33353.698367602</DistanceMeters>
          </Trackpoint>
          <Trackpoint>
            <Time>2020-04-26T17:54:02.000Z</Time>
            <Position>
              <LatitudeDegrees>38.559026755392551422119140625</LatitudeDegrees>
              <LongitudeDegrees>-28.6468051560223102569580078125</LongitudeDegrees>
            </Position>
            <AltitudeMeters>263.600006103515625</AltitudeMeters>
            <DistanceMeters>33370.322340036</DistanceMeters>
          </Trackpoint>
          <Trackpoint>
            <Time>2020-04-26T17:54:08.000Z</Time>
            <Position>
              <LatitudeDegrees>38.5590654797852039337158203125</LatitudeDegrees>
              <LongitudeDegrees>-28.64704211242496967315673828125</LongitudeDegrees>
            </Position>
            <AltitudeMeters>264.79998779296875</AltitudeMeters>
            <DistanceMeters>33391.391072028</DistanceMeters>
          </Trackpoint>
          <Trackpoint>
            <Time>2020-04-26T17:54:11.000Z</Time>
            <Position>
              <LatitudeDegrees>38.5590822435915470123291015625</LatitudeDegrees>
              <LongitudeDegrees>-28.6471630632877349853515625</LongitudeDegrees>
            </Position>
            <AltitudeMeters>265.600006103515625</AltitudeMeters>
            <DistanceMeters>33402.082316466</DistanceMeters>
          </Trackpoint>
          <Trackpoint>
            <Time>2020-04-26T17:54:13.000Z</Time>
            <Position>
              <LatitudeDegrees>38.559090457856655120849609375</LatitudeDegrees>
              <LongitudeDegrees>-28.64724294282495975494384765625</LongitudeDegrees>
            </Position>
            <AltitudeMeters>266</AltitudeMeters>
            <DistanceMeters>33409.095004703</DistanceMeters>
          </Trackpoint>
          <Trackpoint>
            <Time>2020-04-26T17:54:18.000Z</Time>
            <Position>
              <LatitudeDegrees>38.55909691192209720611572265625</LatitudeDegrees>
              <LongitudeDegrees>-28.64744427613914012908935546875</LongitudeDegrees>
            </Position>
            <AltitudeMeters>267.20001220703125</AltitudeMeters>
            <DistanceMeters>33426.632518885</DistanceMeters>
          </Trackpoint>
          <Trackpoint>
            <Time>2020-04-26T17:54:19.000Z</Time>
            <Position>
              <LatitudeDegrees>38.55909724719822406768798828125</LatitudeDegrees>
              <LongitudeDegrees>-28.6474824137985706329345703125</LongitudeDegrees>
            </Position>
            <AltitudeMeters>267.20001220703125</AltitudeMeters>
            <DistanceMeters>33429.951659325</DistanceMeters>
          </Trackpoint>
          <Trackpoint>
            <Time>2020-04-26T17:54:27.000Z</Time>
            <Position>
              <LatitudeDegrees>38.55908299796283245086669921875</LatitudeDegrees>
              <LongitudeDegrees>-28.647796399891376495361328125</LongitudeDegrees>
            </Position>
            <AltitudeMeters>268.20001220703125</AltitudeMeters>
            <DistanceMeters>33457.325291589</DistanceMeters>
          </Trackpoint>
          <Trackpoint>
            <Time>2020-04-26T17:54:28.000Z</Time>
            <Position>
              <LatitudeDegrees>38.55907444842159748077392578125</LatitudeDegrees>
              <LongitudeDegrees>-28.6478351242840290069580078125</LongitudeDegrees>
            </Position>
            <AltitudeMeters>268.600006103515625</AltitudeMeters>
            <DistanceMeters>33460.827125939</DistanceMeters>
          </Trackpoint>
          <Trackpoint>
            <Time>2020-04-26T17:54:31.000Z</Time>
            <Position>
              <LatitudeDegrees>38.55904527939856052398681640625</LatitudeDegrees>
              <LongitudeDegrees>-28.64794786088168621063232421875</LongitudeDegrees>
            </Position>
            <AltitudeMeters>269.399993896484375</AltitudeMeters>
            <DistanceMeters>33471.162346026</DistanceMeters>
          </Trackpoint>
          <Trackpoint>
            <Time>2020-04-26T17:54:36.000Z</Time>
            <Position>
              <LatitudeDegrees>38.55898912064731121063232421875</LatitudeDegrees>
              <LongitudeDegrees>-28.64813226275146007537841796875</LongitudeDegrees>
            </Position>
            <AltitudeMeters>269.79998779296875</AltitudeMeters>
            <DistanceMeters>33488.38579055</DistanceMeters>
          </Trackpoint>
          <Trackpoint>
            <Time>2020-04-26T17:54:40.000Z</Time>
            <Position>
              <LatitudeDegrees>38.55894402600824832916259765625</LatitudeDegrees>
              <LongitudeDegrees>-28.648273162543773651123046875</LongitudeDegrees>
            </Position>
            <AltitudeMeters>270.399993896484375</AltitudeMeters>
            <DistanceMeters>33501.635799841</DistanceMeters>
          </Trackpoint>
          <Trackpoint>
            <Time>2020-04-26T17:54:44.000Z</Time>
            <Position>
              <LatitudeDegrees>38.5588921420276165008544921875</LatitudeDegrees>
              <LongitudeDegrees>-28.648411296308040618896484375</LongitudeDegrees>
            </Position>
            <AltitudeMeters>271</AltitudeMeters>
            <DistanceMeters>33514.973434787</DistanceMeters>
          </Trackpoint>
          <Trackpoint>
            <Time>2020-04-26T17:54:48.000Z</Time>
            <Position>
              <LatitudeDegrees>38.55884076096117496490478515625</LatitudeDegrees>
              <LongitudeDegrees>-28.6485603265464305877685546875</LongitudeDegrees>
            </Position>
            <AltitudeMeters>271.600006103515625</AltitudeMeters>
            <DistanceMeters>33529.14866886</DistanceMeters>
          </Trackpoint>
          <Trackpoint>
            <Time>2020-04-26T17:54:52.000Z</Time>
            <Position>
              <LatitudeDegrees>38.55879784561693668365478515625</LatitudeDegrees>
              <LongitudeDegrees>-28.64870960824191570281982421875</LongitudeDegrees>
            </Position>
            <AltitudeMeters>272.399993896484375</AltitudeMeters>
            <DistanceMeters>33542.991292244</DistanceMeters>
          </Trackpoint>
          <Trackpoint>
            <Time>2020-04-26T17:54:54.000Z</Time>
            <Position>
              <LatitudeDegrees>38.5587939061224460601806640625</LatitudeDegrees>
              <LongitudeDegrees>-28.64878772757947444915771484375</LongitudeDegrees>
            </Position>
            <AltitudeMeters>272.79998779296875</AltitudeMeters>
            <DistanceMeters>33549.804117863</DistanceMeters>
          </Trackpoint>
          <Trackpoint>
            <Time>2020-04-26T17:54:58.000Z</Time>
            <Position>
              <LatitudeDegrees>38.5588185489177703857421875</LatitudeDegrees>
              <LongitudeDegrees>-28.64894069731235504150390625</LongitudeDegrees>
            </Position>
            <AltitudeMeters>273.399993896484375</AltitudeMeters>
            <DistanceMeters>33563.397921023</DistanceMeters>
          </Trackpoint>
          <Trackpoint>
            <Time>2020-04-26T17:55:00.000Z</Time>
            <Position>
              <LatitudeDegrees>38.558846376836299896240234375</LatitudeDegrees>
              <LongitudeDegrees>-28.64900900982320308685302734375</LongitudeDegrees>
            </Position>
            <AltitudeMeters>274</AltitudeMeters>
            <DistanceMeters>33570.102525451</DistanceMeters>
          </Trackpoint>
          <Trackpoint>
            <Time>2020-04-26T17:55:04.000Z</Time>
            <Position>
              <LatitudeDegrees>38.55893346481025218963623046875</LatitudeDegrees>
              <LongitudeDegrees>-28.64911512471735477447509765625</LongitudeDegrees>
            </Position>
            <AltitudeMeters>275.20001220703125</AltitudeMeters>
            <DistanceMeters>33583.490841903</DistanceMeters>
          </Trackpoint>
          <Trackpoint>
            <Time>2020-04-26T17:55:10.000Z</Time>
            <Position>
              <LatitudeDegrees>38.5590681619942188262939453125</LatitudeDegrees>
              <LongitudeDegrees>-28.64922509528696537017822265625</LongitudeDegrees>
            </Position>
            <AltitudeMeters>276.20001220703125</AltitudeMeters>
            <DistanceMeters>33601.277599005</DistanceMeters>
          </Trackpoint>
          <Trackpoint>
            <Time>2020-04-26T17:55:16.000Z</Time>
            <Position>
              <LatitudeDegrees>38.55921509675681591033935546875</LatitudeDegrees>
              <LongitudeDegrees>-28.64934093318879604339599609375</LongitudeDegrees>
            </Position>
            <AltitudeMeters>277.399993896484375</AltitudeMeters>
            <DistanceMeters>33620.489923298</DistanceMeters>
          </Trackpoint>
          <Trackpoint>
            <Time>2020-04-26T17:55:18.000Z</Time>
            <Position>
              <LatitudeDegrees>38.559262454509735107421875</LatitudeDegrees>
              <LongitudeDegrees>-28.649380914866924285888671875</LongitudeDegrees>
            </Position>
            <AltitudeMeters>277.600006103515625</AltitudeMeters>
            <DistanceMeters>33626.806162506</DistanceMeters>
          </Trackpoint>
          <Trackpoint>
            <Time>2020-04-26T17:55:22.000Z</Time>
            <Position>
              <LatitudeDegrees>38.55936110951006412506103515625</LatitudeDegrees>
              <LongitudeDegrees>-28.64947034977376461029052734375</LongitudeDegrees>
            </Position>
            <AltitudeMeters>278.399993896484375</AltitudeMeters>
            <DistanceMeters>33640.265783363</DistanceMeters>
          </Trackpoint>
          <Trackpoint>
            <Time>2020-04-26T17:55:26.000Z</Time>
            <Position>
              <LatitudeDegrees>38.55946605093777179718017578125</LatitudeDegrees>
              <LongitudeDegrees>-28.64955333061516284942626953125</LongitudeDegrees>
            </Position>
            <AltitudeMeters>279.20001220703125</AltitudeMeters>
            <DistanceMeters>33653.99837658</DistanceMeters>
          </Trackpoint>
          <Trackpoint>
            <Time>2020-04-26T17:55:27.000Z</Time>
            <Position>
              <LatitudeDegrees>38.55949270538985729217529296875</LatitudeDegrees>
              <LongitudeDegrees>-28.64957411773502826690673828125</LongitudeDegrees>
            </Position>
            <AltitudeMeters>279.399993896484375</AltitudeMeters>
            <DistanceMeters>33657.473029398</DistanceMeters>
          </Trackpoint>
          <Trackpoint>
            <Time>2020-04-26T17:55:33.000Z</Time>
            <Position>
              <LatitudeDegrees>38.55964793823659420013427734375</LatitudeDegrees>
              <LongitudeDegrees>-28.6497156880795955657958984375</LongitudeDegrees>
            </Position>
            <AltitudeMeters>280.600006103515625</AltitudeMeters>
            <DistanceMeters>33678.694007515</DistanceMeters>
          </Trackpoint>
          <Trackpoint>
            <Time>2020-04-26T17:55:39.000Z</Time>
            <Position>
              <LatitudeDegrees>38.55981473810970783233642578125</LatitudeDegrees>
              <LongitudeDegrees>-28.64986471831798553466796875</LongitudeDegrees>
            </Position>
            <AltitudeMeters>281.79998779296875</AltitudeMeters>
            <DistanceMeters>33701.341487331</DistanceMeters>
          </Trackpoint>
          <Trackpoint>
            <Time>2020-04-26T17:55:41.000Z</Time>
            <Position>
              <LatitudeDegrees>38.55986502952873706817626953125</LatitudeDegrees>
              <LongitudeDegrees>-28.64992431364953517913818359375</LongitudeDegrees>
            </Position>
            <AltitudeMeters>282.20001220703125</AltitudeMeters>
            <DistanceMeters>33708.972670921</DistanceMeters>
          </Trackpoint>
          <Trackpoint>
            <Time>2020-04-26T17:55:44.000Z</Time>
            <Position>
              <LatitudeDegrees>38.5599328391253948211669921875</LatitudeDegrees>
              <LongitudeDegrees>-28.6500362120568752288818359375</LongitudeDegrees>
            </Position>
            <AltitudeMeters>282.79998779296875</AltitudeMeters>
            <DistanceMeters>33721.293938923</DistanceMeters>
          </Trackpoint>
          <Trackpoint>
            <Time>2020-04-26T17:55:47.000Z</Time>
            <Position>
              <LatitudeDegrees>38.5599826276302337646484375</LatitudeDegrees>
              <LongitudeDegrees>-28.65016269497573375701904296875</LongitudeDegrees>
            </Position>
            <AltitudeMeters>283.20001220703125</AltitudeMeters>
            <DistanceMeters>33733.618138118</DistanceMeters>
          </Trackpoint>
          <Trackpoint>
            <Time>2020-04-26T17:55:54.000Z</Time>
            <Position>
              <LatitudeDegrees>38.560080863535404205322265625</LatitudeDegrees>
              <LongitudeDegrees>-28.65046008490025997161865234375</LongitudeDegrees>
            </Position>
            <AltitudeMeters>283.399993896484375</AltitudeMeters>
            <DistanceMeters>33761.71553058</DistanceMeters>
          </Trackpoint>
          <Trackpoint>
            <Time>2020-04-26T17:55:58.000Z</Time>
            <Position>
              <LatitudeDegrees>38.560136519372463226318359375</LatitudeDegrees>
              <LongitudeDegrees>-28.65063509903848171234130859375</LongitudeDegrees>
            </Position>
            <AltitudeMeters>283.79998779296875</AltitudeMeters>
            <DistanceMeters>33778.158722146</DistanceMeters>
          </Trackpoint>
          <Trackpoint>
            <Time>2020-04-26T17:56:04.000Z</Time>
            <Position>
              <LatitudeDegrees>38.5602037422358989715576171875</LatitudeDegrees>
              <LongitudeDegrees>-28.650914467871189117431640625</LongitudeDegrees>
            </Position>
            <AltitudeMeters>284.79998779296875</AltitudeMeters>
            <DistanceMeters>33803.598209535</DistanceMeters>
          </Trackpoint>
          <Trackpoint>
            <Time>2020-04-26T17:56:05.000Z</Time>
            <Position>
              <LatitudeDegrees>38.5602079331874847412109375</LatitudeDegrees>
              <LongitudeDegrees>-28.65096115507185459136962890625</LongitudeDegrees>
            </Position>
            <AltitudeMeters>285</AltitudeMeters>
            <DistanceMeters>33807.687671795</DistanceMeters>
          </Trackpoint>
          <Trackpoint>
            <Time>2020-04-26T17:56:10.000Z</Time>
            <Position>
              <LatitudeDegrees>38.56024405919015407562255859375</LatitudeDegrees>
              <LongitudeDegrees>-28.65117858164012432098388671875</LongitudeDegrees>
            </Position>
            <AltitudeMeters>285.79998779296875</AltitudeMeters>
            <DistanceMeters>33827.033019766</DistanceMeters>
          </Trackpoint>
          <Trackpoint>
            <Time>2020-04-26T17:56:12.000Z</Time>
            <Position>
              <LatitudeDegrees>38.5602553747594356536865234375</LatitudeDegrees>
              <LongitudeDegrees>-28.6512670107185840606689453125</LongitudeDegrees>
            </Position>
            <AltitudeMeters>286</AltitudeMeters>
            <DistanceMeters>33834.831581483</DistanceMeters>
          </Trackpoint>
          <Trackpoint>
            <Time>2020-04-26T17:56:17.000Z</Time>
            <Position>
              <LatitudeDegrees>38.5602969489991664886474609375</LatitudeDegrees>
              <LongitudeDegrees>-28.6514903046190738677978515625</LongitudeDegrees>
            </Position>
            <AltitudeMeters>286.600006103515625</AltitudeMeters>
            <DistanceMeters>33854.808900085</DistanceMeters>
          </Trackpoint>
          <Trackpoint>
            <Time>2020-04-26T17:56:20.000Z</Time>
            <Position>
              <LatitudeDegrees>38.56033064424991607666015625</LatitudeDegrees>
              <LongitudeDegrees>-28.6516126804053783416748046875</LongitudeDegrees>
            </Position>
            <AltitudeMeters>287.20001220703125</AltitudeMeters>
            <DistanceMeters>33866.10069708</DistanceMeters>
          </Trackpoint>
          <Trackpoint>
            <Time>2020-04-26T17:56:25.000Z</Time>
            <Position>
              <LatitudeDegrees>38.56037951074540615081787109375</LatitudeDegrees>
              <LongitudeDegrees>-28.65182197652757167816162109375</LongitudeDegrees>
            </Position>
            <AltitudeMeters>288.20001220703125</AltitudeMeters>
            <DistanceMeters>33885.111028202</DistanceMeters>
          </Trackpoint>
          <Trackpoint>
            <Time>2020-04-26T17:56:31.000Z</Time>
            <Position>
              <LatitudeDegrees>38.56040884740650653839111328125</LatitudeDegrees>
              <LongitudeDegrees>-28.6520773731172084808349609375</LongitudeDegrees>
            </Position>
            <AltitudeMeters>289.20001220703125</AltitudeMeters>
            <DistanceMeters>33907.577562268</DistanceMeters>
          </Trackpoint>
          <Trackpoint>
            <Time>2020-04-26T17:56:33.000Z</Time>
            <Position>
              <LatitudeDegrees>38.56041857041418552398681640625</LatitudeDegrees>
              <LongitudeDegrees>-28.65216647274792194366455078125</LongitudeDegrees>
            </Position>
            <AltitudeMeters>289.399993896484375</AltitudeMeters>
            <DistanceMeters>33915.406748618</DistanceMeters>
          </Trackpoint>
          <Trackpoint>
            <Time>2020-04-26T17:56:38.000Z</Time>
            <Position>
              <LatitudeDegrees>38.56043768115341663360595703125</LatitudeDegrees>
              <LongitudeDegrees>-28.652384988963603973388671875</LongitudeDegrees>
            </Position>
            <AltitudeMeters>290.399993896484375</AltitudeMeters>
            <DistanceMeters>33934.543250913</DistanceMeters>
          </Trackpoint>
          <Trackpoint>
            <Time>2020-04-26T17:56:41.000Z</Time>
            <Position>
              <LatitudeDegrees>38.560444973409175872802734375</LatitudeDegrees>
              <LongitudeDegrees>-28.6525078676640987396240234375</LongitudeDegrees>
            </Position>
            <AltitudeMeters>290.79998779296875</AltitudeMeters>
            <DistanceMeters>33945.268227078</DistanceMeters>
          </Trackpoint>
          <Trackpoint>
            <Time>2020-04-26T17:56:45.000Z</Time>
            <Position>
              <LatitudeDegrees>38.56047204695641994476318359375</LatitudeDegrees>
              <LongitudeDegrees>-28.6526701413094997406005859375</LongitudeDegrees>
            </Position>
            <AltitudeMeters>291.600006103515625</AltitudeMeters>
            <DistanceMeters>33959.709161445</DistanceMeters>
          </Trackpoint>
          <Trackpoint>
            <Time>2020-04-26T17:56:49.000Z</Time>
            <Position>
              <LatitudeDegrees>38.560514040291309356689453125</LatitudeDegrees>
              <LongitudeDegrees>-28.652829229831695556640625</LongitudeDegrees>
            </Position>
            <AltitudeMeters>292.20001220703125</AltitudeMeters>
            <DistanceMeters>33974.322589442</DistanceMeters>
          </Trackpoint>
          <Trackpoint>
            <Time>2020-04-26T17:56:51.000Z</Time>
            <Position>
              <LatitudeDegrees>38.560530133545398712158203125</LatitudeDegrees>
              <LongitudeDegrees>-28.65290391258895397186279296875</LongitudeDegrees>
            </Position>
            <AltitudeMeters>292.600006103515625</AltitudeMeters>
            <DistanceMeters>33981.06480012</DistanceMeters>
          </Trackpoint>
          <Trackpoint>
            <Time>2020-04-26T17:56:57.000Z</Time>
            <Position>
              <LatitudeDegrees>38.56059106998145580291748046875</LatitudeDegrees>
              <LongitudeDegrees>-28.6531497538089752197265625</LongitudeDegrees>
            </Position>
            <AltitudeMeters>293.600006103515625</AltitudeMeters>
            <DistanceMeters>34003.510222702</DistanceMeters>
          </Trackpoint>
          <Trackpoint>
            <Time>2020-04-26T17:57:02.000Z</Time>
            <Position>
              <LatitudeDegrees>38.56066147796809673309326171875</LatitudeDegrees>
              <LongitudeDegrees>-28.6533453874289989471435546875</LongitudeDegrees>
            </Position>
            <AltitudeMeters>294.600006103515625</AltitudeMeters>
            <DistanceMeters>34022.253383961</DistanceMeters>
          </Trackpoint>
          <Trackpoint>
            <Time>2020-04-26T17:57:05.000Z</Time>
            <Position>
              <LatitudeDegrees>38.560703806579113006591796875</LatitudeDegrees>
              <LongitudeDegrees>-28.65345845930278301239013671875</LongitudeDegrees>
            </Position>
            <AltitudeMeters>295</AltitudeMeters>
            <DistanceMeters>34033.16408961</DistanceMeters>
          </Trackpoint>
          <Trackpoint>
            <Time>2020-04-26T17:57:09.000Z</Time>
            <Position>
              <LatitudeDegrees>38.5607613064348697662353515625</LatitudeDegrees>
              <LongitudeDegrees>-28.65360296331346035003662109375</LongitudeDegrees>
            </Position>
            <AltitudeMeters>296</AltitudeMeters>
            <DistanceMeters>34047.275476705</DistanceMeters>
          </Trackpoint>
          <Trackpoint>
            <Time>2020-04-26T17:57:11.000Z</Time>
            <Position>
              <LatitudeDegrees>38.5607934929430484771728515625</LatitudeDegrees>
              <LongitudeDegrees>-28.65367722697556018829345703125</LongitudeDegrees>
            </Position>
            <AltitudeMeters>296.600006103515625</AltitudeMeters>
            <DistanceMeters>34054.665598648</DistanceMeters>
          </Trackpoint>
          <Trackpoint>
            <Time>2020-04-26T17:57:14.000Z</Time>
            <Position>
              <LatitudeDegrees>38.5608471371233463287353515625</LatitudeDegrees>
              <LongitudeDegrees>-28.653762638568878173828125</LongitudeDegrees>
            </Position>
            <AltitudeMeters>297</AltitudeMeters>
            <DistanceMeters>34064.199577329</DistanceMeters>
          </Trackpoint>
          <Trackpoint>
            <Time>2020-04-26T17:57:16.000Z</Time>
            <Position>
              <LatitudeDegrees>38.5608873702585697174072265625</LatitudeDegrees>
              <LongitudeDegrees>-28.6538201384246349334716796875</LongitudeDegrees>
            </Position>
            <AltitudeMeters>297.600006103515625</AltitudeMeters>
            <DistanceMeters>34070.914947889</DistanceMeters>
          </Trackpoint>
          <Trackpoint>
            <Time>2020-04-26T17:57:18.000Z</Time>
            <Position>
              <LatitudeDegrees>38.560937829315662384033203125</LatitudeDegrees>
              <LongitudeDegrees>-28.6538739502429962158203125</LongitudeDegrees>
            </Position>
            <AltitudeMeters>298.20001220703125</AltitudeMeters>
            <DistanceMeters>34078.227684224</DistanceMeters>
          </Trackpoint>
          <Trackpoint>
            <Time>2020-04-26T17:57:22.000Z</Time>
            <Position>
              <LatitudeDegrees>38.5610248334705829620361328125</LatitudeDegrees>
              <LongitudeDegrees>-28.6539907939732074737548828125</LongitudeDegrees>
            </Position>
            <AltitudeMeters>299.20001220703125</AltitudeMeters>
            <DistanceMeters>34092.26979052</DistanceMeters>
          </Trackpoint>
          <Trackpoint>
            <Time>2020-04-26T17:57:23.000Z</Time>
            <Position>
              <LatitudeDegrees>38.56104386039078235626220703125</LatitudeDegrees>
              <LongitudeDegrees>-28.654019124805927276611328125</LongitudeDegrees>
            </Position>
            <AltitudeMeters>299.600006103515625</AltitudeMeters>
            <DistanceMeters>34095.518814891</DistanceMeters>
          </Trackpoint>
          <Trackpoint>
            <Time>2020-04-26T17:57:29.000Z</Time>
            <Position>
              <LatitudeDegrees>38.561177551746368408203125</LatitudeDegrees>
              <LongitudeDegrees>-28.6541741900146007537841796875</LongitudeDegrees>
            </Position>
            <AltitudeMeters>300.600006103515625</AltitudeMeters>
            <DistanceMeters>34115.607021782</DistanceMeters>
          </Trackpoint>
          <Trackpoint>
            <Time>2020-04-26T17:57:30.000Z</Time>
            <Position>
              <LatitudeDegrees>38.56120127253234386444091796875</LatitudeDegrees>
              <LongitudeDegrees>-28.65419589914381504058837890625</LongitudeDegrees>
            </Position>
            <AltitudeMeters>300.79998779296875</AltitudeMeters>
            <DistanceMeters>34118.854656196</DistanceMeters>
          </Trackpoint>
          <Trackpoint>
            <Time>2020-04-26T17:57:34.000Z</Time>
            <Position>
              <LatitudeDegrees>38.56129900552332401275634765625</LatitudeDegrees>
              <LongitudeDegrees>-28.65428189747035503387451171875</LongitudeDegrees>
            </Position>
            <AltitudeMeters>301.79998779296875</AltitudeMeters>
            <DistanceMeters>34132.058925051</DistanceMeters>
          </Trackpoint>
          <Trackpoint>
            <Time>2020-04-26T17:57:39.000Z</Time>
            <Position>
              <LatitudeDegrees>38.56142087839543819427490234375</LatitudeDegrees>
              <LongitudeDegrees>-28.654395304620265960693359375</LongitudeDegrees>
            </Position>
            <AltitudeMeters>302.79998779296875</AltitudeMeters>
            <DistanceMeters>34148.834302909</DistanceMeters>
          </Trackpoint>
          <Trackpoint>
            <Time>2020-04-26T17:57:43.000Z</Time>
            <Position>
              <LatitudeDegrees>38.56149313040077686309814453125</LatitudeDegrees>
              <LongitudeDegrees>-28.65452212281525135040283203125</LongitudeDegrees>
            </Position>
            <AltitudeMeters>304</AltitudeMeters>
            <DistanceMeters>34162.490405528</DistanceMeters>
          </Trackpoint>
          <Trackpoint>
            <Time>2020-04-26T17:57:45.000Z</Time>
            <Position>
              <LatitudeDegrees>38.561519868671894073486328125</LatitudeDegrees>
              <LongitudeDegrees>-28.65459420718252658843994140625</LongitudeDegrees>
            </Position>
            <AltitudeMeters>304.600006103515625</AltitudeMeters>
            <DistanceMeters>34169.433211017</DistanceMeters>
          </Trackpoint>
          <Trackpoint>
            <Time>2020-04-26T17:57:47.000Z</Time>
            <Position>
              <LatitudeDegrees>38.56154744513332843780517578125</LatitudeDegrees>
              <LongitudeDegrees>-28.65466813556849956512451171875</LongitudeDegrees>
            </Position>
            <AltitudeMeters>305</AltitudeMeters>
            <DistanceMeters>34176.560848078</DistanceMeters>
          </Trackpoint>
          <Trackpoint>
            <Time>2020-04-26T17:57:51.000Z</Time>
            <Position>
              <LatitudeDegrees>38.56159673072397708892822265625</LatitudeDegrees>
              <LongitudeDegrees>-28.65483753383159637451171875</LongitudeDegrees>
            </Position>
            <AltitudeMeters>305.79998779296875</AltitudeMeters>
            <DistanceMeters>34192.291142249</DistanceMeters>
          </Trackpoint>
          <Trackpoint>
            <Time>2020-04-26T17:57:52.000Z</Time>
            <Position>
              <LatitudeDegrees>38.56160595081746578216552734375</LatitudeDegrees>
              <LongitudeDegrees>-28.654879443347454071044921875</LongitudeDegrees>
            </Position>
            <AltitudeMeters>306</AltitudeMeters>
            <DistanceMeters>34196.081505242</DistanceMeters>
          </Trackpoint>
          <Trackpoint>
            <Time>2020-04-26T17:57:57.000Z</Time>
            <Position>
              <LatitudeDegrees>38.5616417415440082550048828125</LatitudeDegrees>
              <LongitudeDegrees>-28.65508924238383769989013671875</LongitudeDegrees>
            </Position>
            <AltitudeMeters>306.79998779296875</AltitudeMeters>
            <DistanceMeters>34214.769904495</DistanceMeters>
          </Trackpoint>
          <Trackpoint>
            <Time>2020-04-26T17:57:59.000Z</Time>
            <Position>
              <LatitudeDegrees>38.56164149008691310882568359375</LatitudeDegrees>
              <LongitudeDegrees>-28.65516987629234790802001953125</LongitudeDegrees>
            </Position>
            <AltitudeMeters>307.399993896484375</AltitudeMeters>
            <DistanceMeters>34221.78774155</DistanceMeters>
          </Trackpoint>
          <Trackpoint>
            <Time>2020-04-26T17:58:02.000Z</Time>
            <Position>
              <LatitudeDegrees>38.56162078678607940673828125</LatitudeDegrees>
              <LongitudeDegrees>-28.65529694594442844390869140625</LongitudeDegrees>
            </Position>
            <AltitudeMeters>308</AltitudeMeters>
            <DistanceMeters>34233.08433574</DistanceMeters>
          </Trackpoint>
          <Trackpoint>
            <Time>2020-04-26T17:58:04.000Z</Time>
            <Position>
              <LatitudeDegrees>38.56160067021846771240234375</LatitudeDegrees>
              <LongitudeDegrees>-28.65538395009934902191162109375</LongitudeDegrees>
            </Position>
            <AltitudeMeters>308.399993896484375</AltitudeMeters>
            <DistanceMeters>34240.981278688</DistanceMeters>
          </Trackpoint>
          <Trackpoint>
            <Time>2020-04-26T17:58:07.000Z</Time>
            <Position>
              <LatitudeDegrees>38.56158315204083919525146484375</LatitudeDegrees>
              <LongitudeDegrees>-28.65552292205393314361572265625</LongitudeDegrees>
            </Position>
            <AltitudeMeters>308.600006103515625</AltitudeMeters>
            <DistanceMeters>34253.231987667</DistanceMeters>
          </Trackpoint>
          <Trackpoint>
            <Time>2020-04-26T17:58:13.000Z</Time>
            <Position>
              <LatitudeDegrees>38.5615141689777374267578125</LatitudeDegrees>
              <LongitudeDegrees>-28.65576867945492267608642578125</LongitudeDegrees>
            </Position>
            <AltitudeMeters>309.399993896484375</AltitudeMeters>
            <DistanceMeters>34275.956688142</DistanceMeters>
          </Trackpoint>
          <Trackpoint>
            <Time>2020-04-26T17:58:14.000Z</Time>
            <Position>
              <LatitudeDegrees>38.5615062899887561798095703125</LatitudeDegrees>
              <LongitudeDegrees>-28.65580941550433635711669921875</LongitudeDegrees>
            </Position>
            <AltitudeMeters>309.600006103515625</AltitudeMeters>
            <DistanceMeters>34279.608731804</DistanceMeters>
          </Trackpoint>
          <Trackpoint>
            <Time>2020-04-26T17:58:15.000Z</Time>
            <Position>
              <LatitudeDegrees>38.5614982433617115020751953125</LatitudeDegrees>
              <LongitudeDegrees>-28.65585006773471832275390625</LongitudeDegrees>
            </Position>
            <AltitudeMeters>310</AltitudeMeters>
            <DistanceMeters>34283.258302019</DistanceMeters>
          </Trackpoint>
          <Trackpoint>
            <Time>2020-04-26T17:58:21.000Z</Time>
            <Position>
              <LatitudeDegrees>38.5614321939647197723388671875</LatitudeDegrees>
              <LongitudeDegrees>-28.65610060282051563262939453125</LongitudeDegrees>
            </Position>
            <AltitudeMeters>310.79998779296875</AltitudeMeters>
            <DistanceMeters>34306.268506326</DistanceMeters>
          </Trackpoint>
          <Trackpoint>
            <Time>2020-04-26T17:58:29.000Z</Time>
            <Position>
              <LatitudeDegrees>38.56136069633066654205322265625</LatitudeDegrees>
              <LongitudeDegrees>-28.65645515732467174530029296875</LongitudeDegrees>
            </Position>
            <AltitudeMeters>311.79998779296875</AltitudeMeters>
            <DistanceMeters>34338.135626792</DistanceMeters>
          </Trackpoint>
          <Trackpoint>
            <Time>2020-04-26T17:58:32.000Z</Time>
            <Position>
              <LatitudeDegrees>38.561344183981418609619140625</LatitudeDegrees>
              <LongitudeDegrees>-28.656564541161060333251953125</LongitudeDegrees>
            </Position>
            <AltitudeMeters>312.399993896484375</AltitudeMeters>
            <DistanceMeters>34347.831146158</DistanceMeters>
          </Trackpoint>
          <Trackpoint>
            <Time>2020-04-26T17:58:33.000Z</Time>
            <Position>
              <LatitudeDegrees>38.561326079070568084716796875</LatitudeDegrees>
              <LongitudeDegrees>-28.6565757729113101959228515625</LongitudeDegrees>
            </Position>
            <AltitudeMeters>312.600006103515625</AltitudeMeters>
            <DistanceMeters>34350.071843037</DistanceMeters>
          </Trackpoint>
          <Trackpoint>
            <Time>2020-04-26T17:58:36.000Z</Time>
            <Position>
              <LatitudeDegrees>38.56131174601614475250244140625</LatitudeDegrees>
              <LongitudeDegrees>-28.6564902774989604949951171875</LongitudeDegrees>
            </Position>
            <AltitudeMeters>312.399993896484375</AltitudeMeters>
            <DistanceMeters>34357.68169719</DistanceMeters>
          </Trackpoint>
          <Trackpoint>
            <Time>2020-04-26T17:58:37.000Z</Time>
            <Position>
              <LatitudeDegrees>38.56131157837808132171630859375</LatitudeDegrees>
              <LongitudeDegrees>-28.65644258446991443634033203125</LongitudeDegrees>
            </Position>
            <AltitudeMeters>312.20001220703125</AltitudeMeters>
            <DistanceMeters>34361.831438842</DistanceMeters>
          </Trackpoint>
          <Trackpoint>
            <Time>2020-04-26T17:58:40.000Z</Time>
            <Position>
              <LatitudeDegrees>38.561331443488597869873046875</LatitudeDegrees>
              <LongitudeDegrees>-28.656256087124347686767578125</LongitudeDegrees>
            </Position>
            <AltitudeMeters>311.600006103515625</AltitudeMeters>
            <DistanceMeters>34378.21245687</DistanceMeters>
          </Trackpoint>
          <Trackpoint>
            <Time>2020-04-26T17:58:41.000Z</Time>
            <Position>
              <LatitudeDegrees>38.56134586036205291748046875</LatitudeDegrees>
              <LongitudeDegrees>-28.6561811529099941253662109375</LongitudeDegrees>
            </Position>
            <AltitudeMeters>311.20001220703125</AltitudeMeters>
            <DistanceMeters>34384.92782743</DistanceMeters>
          </Trackpoint>
          <Trackpoint>
            <Time>2020-04-26T17:58:43.000Z</Time>
            <Position>
              <LatitudeDegrees>38.56139137409627437591552734375</LatitudeDegrees>
              <LongitudeDegrees>-28.65601594559848308563232421875</LongitudeDegrees>
            </Position>
            <AltitudeMeters>310.79998779296875</AltitudeMeters>
            <DistanceMeters>34400.172434586</DistanceMeters>
          </Trackpoint>
          <Trackpoint>
            <Time>2020-04-26T17:58:44.000Z</Time>
            <Position>
              <LatitudeDegrees>38.5614149272441864013671875</LatitudeDegrees>
              <LongitudeDegrees>-28.65592894144356250762939453125</LongitudeDegrees>
            </Position>
            <AltitudeMeters>310.79998779296875</AltitudeMeters>
            <DistanceMeters>34408.185164678</DistanceMeters>
          </Trackpoint>
          <Trackpoint>
            <Time>2020-04-26T17:58:47.000Z</Time>
            <Position>
              <LatitudeDegrees>38.56148256920278072357177734375</LatitudeDegrees>
              <LongitudeDegrees>-28.65564546547830104827880859375</LongitudeDegrees>
            </Position>
            <AltitudeMeters>309.79998779296875</AltitudeMeters>
            <DistanceMeters>34433.979623241</DistanceMeters>
          </Trackpoint>
          <Trackpoint>
            <Time>2020-04-26T17:58:48.000Z</Time>
            <Position>
              <LatitudeDegrees>38.561506457626819610595703125</LatitudeDegrees>
              <LongitudeDegrees>-28.65554370917379856109619140625</LongitudeDegrees>
            </Position>
            <AltitudeMeters>309.20001220703125</AltitudeMeters>
            <DistanceMeters>34443.226069248</DistanceMeters>
          </Trackpoint>
          <Trackpoint>
            <Time>2020-04-26T17:58:50.000Z</Time>
            <Position>
              <LatitudeDegrees>38.56155599467456340789794921875</LatitudeDegrees>
              <LongitudeDegrees>-28.65533282049000263214111328125</LongitudeDegrees>
            </Position>
            <AltitudeMeters>308.79998779296875</AltitudeMeters>
            <DistanceMeters>34462.390392068</DistanceMeters>
          </Trackpoint>
          <Trackpoint>
            <Time>2020-04-26T17:58:52.000Z</Time>
            <Position>
              <LatitudeDegrees>38.56159136630594730377197265625</LatitudeDegrees>
              <LongitudeDegrees>-28.6551045812666416168212890625</LongitudeDegrees>
            </Position>
            <AltitudeMeters>307.600006103515625</AltitudeMeters>
            <DistanceMeters>34482.640894816</DistanceMeters>
          </Trackpoint>
          <Trackpoint>
            <Time>2020-04-26T17:58:53.000Z</Time>
            <Position>
              <LatitudeDegrees>38.56158717535436153411865234375</LatitudeDegrees>
              <LongitudeDegrees>-28.65498463623225688934326171875</LongitudeDegrees>
            </Position>
            <AltitudeMeters>307.20001220703125</AltitudeMeters>
            <DistanceMeters>34493.090809382</DistanceMeters>
          </Trackpoint>
          <Trackpoint>
            <Time>2020-04-26T17:58:55.000Z</Time>
            <Position>
              <LatitudeDegrees>38.5615317709743976593017578125</LatitudeDegrees>
              <LongitudeDegrees>-28.6547456681728363037109375</LongitudeDegrees>
            </Position>
            <AltitudeMeters>306.20001220703125</AltitudeMeters>
            <DistanceMeters>34514.783558024</DistanceMeters>
          </Trackpoint>
          <Trackpoint>
            <Time>2020-04-26T17:58:56.000Z</Time>
            <Position>
              <LatitudeDegrees>38.56148441322147846221923828125</LatitudeDegrees>
              <LongitudeDegrees>-28.65462874062359333038330078125</LongitudeDegrees>
            </Position>
            <AltitudeMeters>305.600006103515625</AltitudeMeters>
            <DistanceMeters>34526.243637945</DistanceMeters>
          </Trackpoint>
          <Trackpoint>
            <Time>2020-04-26T17:58:57.000Z</Time>
            <Position>
              <LatitudeDegrees>38.5614150948822498321533203125</LatitudeDegrees>
              <LongitudeDegrees>-28.65452664904296398162841796875</LongitudeDegrees>
            </Position>
            <AltitudeMeters>305</AltitudeMeters>
            <DistanceMeters>34538.011229979</DistanceMeters>
          </Trackpoint>
          <Trackpoint>
            <Time>2020-04-26T17:58:58.000Z</Time>
            <Position>
              <LatitudeDegrees>38.5613302700221538543701171875</LatitudeDegrees>
              <LongitudeDegrees>-28.65443629212677478790283203125</LongitudeDegrees>
            </Position>
            <AltitudeMeters>304.399993896484375</AltitudeMeters>
            <DistanceMeters>34550.298004087</DistanceMeters>
          </Trackpoint>
          <Trackpoint>
            <Time>2020-04-26T17:58:59.000Z</Time>
            <Position>
              <LatitudeDegrees>38.56124125421047210693359375</LatitudeDegrees>
              <LongitudeDegrees>-28.65435062907636165618896484375</LongitudeDegrees>
            </Position>
            <AltitudeMeters>304</AltitudeMeters>
            <DistanceMeters>34562.697442846</DistanceMeters>
          </Trackpoint>
          <Trackpoint>
            <Time>2020-04-26T17:59:01.000Z</Time>
            <Position>
              <LatitudeDegrees>38.56106313876807689666748046875</LatitudeDegrees>
              <LongitudeDegrees>-28.65416941232979297637939453125</LongitudeDegrees>
            </Position>
            <AltitudeMeters>302.600006103515625</AltitudeMeters>
            <DistanceMeters>34588.03021752</DistanceMeters>
          </Trackpoint>
          <Trackpoint>
            <Time>2020-04-26T17:59:03.000Z</Time>
            <Position>
              <LatitudeDegrees>38.560898602008819580078125</LatitudeDegrees>
              <LongitudeDegrees>-28.65396288223564624786376953125</LongitudeDegrees>
            </Position>
            <AltitudeMeters>301</AltitudeMeters>
            <DistanceMeters>34613.690597762</DistanceMeters>
          </Trackpoint>
          <Trackpoint>
            <Time>2020-04-26T17:59:05.000Z</Time>
            <Position>
              <LatitudeDegrees>38.56074814684689044952392578125</LatitudeDegrees>
              <LongitudeDegrees>-28.65373120643198490142822265625</LongitudeDegrees>
            </Position>
            <AltitudeMeters>299.399993896484375</AltitudeMeters>
            <DistanceMeters>34639.90075029</DistanceMeters>
          </Trackpoint>
          <Trackpoint>
            <Time>2020-04-26T17:59:06.000Z</Time>
            <Position>
              <LatitudeDegrees>38.5606818459928035736083984375</LatitudeDegrees>
              <LongitudeDegrees>-28.653602711856365203857421875</LongitudeDegrees>
            </Position>
            <AltitudeMeters>298.399993896484375</AltitudeMeters>
            <DistanceMeters>34653.299180038</DistanceMeters>
          </Trackpoint>
          <Trackpoint>
            <Time>2020-04-26T17:59:07.000Z</Time>
            <Position>
              <LatitudeDegrees>38.56062300503253936767578125</LatitudeDegrees>
              <LongitudeDegrees>-28.65346566773951053619384765625</LongitudeDegrees>
            </Position>
            <AltitudeMeters>297.600006103515625</AltitudeMeters>
            <DistanceMeters>34666.90626229</DistanceMeters>
          </Trackpoint>
          <Trackpoint>
            <Time>2020-04-26T17:59:08.000Z</Time>
            <Position>
              <LatitudeDegrees>38.56056793592870235443115234375</LatitudeDegrees>
              <LongitudeDegrees>-28.65332049317657947540283203125</LongitudeDegrees>
            </Position>
            <AltitudeMeters>297</AltitudeMeters>
            <DistanceMeters>34680.94965467</DistanceMeters>
          </Trackpoint>
          <Trackpoint>
            <Time>2020-04-26T17:59:10.000Z</Time>
            <Position>
              <LatitudeDegrees>38.5604689456522464752197265625</LatitudeDegrees>
              <LongitudeDegrees>-28.65302260033786296844482421875</LongitudeDegrees>
            </Position>
            <AltitudeMeters>295.399993896484375</AltitudeMeters>
            <DistanceMeters>34709.119907027</DistanceMeters>
          </Trackpoint>
          <Trackpoint>
            <Time>2020-04-26T17:59:12.000Z</Time>
            <Position>
              <LatitudeDegrees>38.56039275415241718292236328125</LatitudeDegrees>
              <LongitudeDegrees>-28.65271322429180145263671875</LongitudeDegrees>
            </Position>
            <AltitudeMeters>294.20001220703125</AltitudeMeters>
            <DistanceMeters>34737.349559456</DistanceMeters>
          </Trackpoint>
          <Trackpoint>
            <Time>2020-04-26T17:59:15.000Z</Time>
            <Position>
              <LatitudeDegrees>38.56033466756343841552734375</LatitudeDegrees>
              <LongitudeDegrees>-28.6522316001355648040771484375</LongitudeDegrees>
            </Position>
            <AltitudeMeters>292.79998779296875</AltitudeMeters>
            <DistanceMeters>34779.762250694</DistanceMeters>
          </Trackpoint>
          <Trackpoint>
            <Time>2020-04-26T17:59:16.000Z</Time>
            <Position>
              <LatitudeDegrees>38.560319244861602783203125</LatitudeDegrees>
              <LongitudeDegrees>-28.65206823684275150299072265625</LongitudeDegrees>
            </Position>
            <AltitudeMeters>291.600006103515625</AltitudeMeters>
            <DistanceMeters>34794.083252621</DistanceMeters>
          </Trackpoint>
          <Trackpoint>
            <Time>2020-04-26T17:59:18.000Z</Time>
            <Position>
              <LatitudeDegrees>38.5602718032896518707275390625</LatitudeDegrees>
              <LongitudeDegrees>-28.65174419246613979339599609375</LongitudeDegrees>
            </Position>
            <AltitudeMeters>290.20001220703125</AltitudeMeters>
            <DistanceMeters>34822.775813317</DistanceMeters>
          </Trackpoint>
          <Trackpoint>
            <Time>2020-04-26T17:59:20.000Z</Time>
            <Position>
              <LatitudeDegrees>38.56020860373973846435546875</LatitudeDegrees>
              <LongitudeDegrees>-28.6514255963265895843505859375</LongitudeDegrees>
            </Position>
            <AltitudeMeters>289</AltitudeMeters>
            <DistanceMeters>34851.382484701</DistanceMeters>
          </Trackpoint>
          <Trackpoint>
            <Time>2020-04-26T17:59:23.000Z</Time>
            <Position>
              <LatitudeDegrees>38.56013257987797260284423828125</LatitudeDegrees>
              <LongitudeDegrees>-28.650951683521270751953125</LongitudeDegrees>
            </Position>
            <AltitudeMeters>287.600006103515625</AltitudeMeters>
            <DistanceMeters>34893.487576887</DistanceMeters>
          </Trackpoint>
          <Trackpoint>
            <Time>2020-04-26T17:59:25.000Z</Time>
            <Position>
              <LatitudeDegrees>38.56007591821253299713134765625</LatitudeDegrees>
              <LongitudeDegrees>-28.65064331330358982086181640625</LongitudeDegrees>
            </Position>
            <AltitudeMeters>286.399993896484375</AltitudeMeters>
            <DistanceMeters>34921.05711795</DistanceMeters>
          </Trackpoint>
          <Trackpoint>
            <Time>2020-04-26T17:59:27.000Z</Time>
            <Position>
              <LatitudeDegrees>38.559999726712703704833984375</LatitudeDegrees>
              <LongitudeDegrees>-28.65034659393131732940673828125</LongitudeDegrees>
            </Position>
            <AltitudeMeters>285.20001220703125</AltitudeMeters>
            <DistanceMeters>34948.238412888</DistanceMeters>
          </Trackpoint>
          <Trackpoint>
            <Time>2020-04-26T17:59:29.000Z</Time>
            <Position>
              <LatitudeDegrees>38.55990819633007049560546875</LatitudeDegrees>
              <LongitudeDegrees>-28.6500590108335018157958984375</LongitudeDegrees>
            </Position>
            <AltitudeMeters>283.79998779296875</AltitudeMeters>
            <DistanceMeters>34975.261611291</DistanceMeters>
          </Trackpoint>
          <Trackpoint>
            <Time>2020-04-26T17:59:30.000Z</Time>
            <Position>
              <LatitudeDegrees>38.55983787216246128082275390625</LatitudeDegrees>
              <LongitudeDegrees>-28.64992716349661350250244140625</LongitudeDegrees>
            </Position>
            <AltitudeMeters>283.20001220703125</AltitudeMeters>
            <DistanceMeters>34989.151773756</DistanceMeters>
          </Trackpoint>
          <Trackpoint>
            <Time>2020-04-26T17:59:32.000Z</Time>
            <Position>
              <LatitudeDegrees>38.55965045280754566192626953125</LatitudeDegrees>
              <LongitudeDegrees>-28.6497156880795955657958984375</LongitudeDegrees>
            </Position>
            <AltitudeMeters>282.600006103515625</AltitudeMeters>
            <DistanceMeters>35016.971077693</DistanceMeters>
          </Trackpoint>
          <Trackpoint>
            <Time>2020-04-26T17:59:33.000Z</Time>
            <Position>
              <LatitudeDegrees>38.55954417027533054351806640625</LatitudeDegrees>
              <LongitudeDegrees>-28.64963270723819732666015625</LongitudeDegrees>
            </Position>
            <AltitudeMeters>282.20001220703125</AltitudeMeters>
            <DistanceMeters>35030.8306515</DistanceMeters>
          </Trackpoint>
          <Trackpoint>
            <Time>2020-04-26T17:59:35.000Z</Time>
            <Position>
              <LatitudeDegrees>38.559321463108062744140625</LatitudeDegrees>
              <LongitudeDegrees>-28.64948862232267856597900390625</LongitudeDegrees>
            </Position>
            <AltitudeMeters>281.20001220703125</AltitudeMeters>
            <DistanceMeters>35058.610001254</DistanceMeters>
          </Trackpoint>
          <Trackpoint>
            <Time>2020-04-26T17:59:37.000Z</Time>
            <Position>
              <LatitudeDegrees>38.55910579673945903778076171875</LatitudeDegrees>
              <LongitudeDegrees>-28.649325929582118988037109375</LongitudeDegrees>
            </Position>
            <AltitudeMeters>279.79998779296875</AltitudeMeters>
            <DistanceMeters>35086.479248375</DistanceMeters>
          </Trackpoint>
          <Trackpoint>
            <Time>2020-04-26T17:59:38.000Z</Time>
            <Position>
              <LatitudeDegrees>38.55899951420724391937255859375</LatitudeDegrees>
              <LongitudeDegrees>-28.6492449603974819183349609375</LongitudeDegrees>
            </Position>
            <AltitudeMeters>278.79998779296875</AltitudeMeters>
            <DistanceMeters>35100.248616009</DistanceMeters>
          </Trackpoint>
          <Trackpoint>
            <Time>2020-04-26T17:59:40.000Z</Time>
            <Position>
              <LatitudeDegrees>38.55880958028137683868408203125</LatitudeDegrees>
              <LongitudeDegrees>-28.64908779971301555633544921875</LongitudeDegrees>
            </Position>
            <AltitudeMeters>277</AltitudeMeters>
            <DistanceMeters>35125.428005738</DistanceMeters>
          </Trackpoint>
          <Trackpoint>
            <Time>2020-04-26T17:59:41.000Z</Time>
            <Position>
              <LatitudeDegrees>38.558737747371196746826171875</LatitudeDegrees>
              <LongitudeDegrees>-28.64898235537111759185791015625</LongitudeDegrees>
            </Position>
            <AltitudeMeters>276.399993896484375</AltitudeMeters>
            <DistanceMeters>35137.599588796</DistanceMeters>
          </Trackpoint>
          <Trackpoint>
            <Time>2020-04-26T17:59:42.000Z</Time>
            <Position>
              <LatitudeDegrees>38.558694832026958465576171875</LatitudeDegrees>
              <LongitudeDegrees>-28.64885109476745128631591796875</LongitudeDegrees>
            </Position>
            <AltitudeMeters>275.79998779296875</AltitudeMeters>
            <DistanceMeters>35149.982266132</DistanceMeters>
          </Trackpoint>
          <Trackpoint>
            <Time>2020-04-26T17:59:43.000Z</Time>
            <Position>
              <LatitudeDegrees>38.55868150480091571807861328125</LatitudeDegrees>
              <LongitudeDegrees>-28.6487085185945034027099609375</LongitudeDegrees>
            </Position>
            <AltitudeMeters>275.600006103515625</AltitudeMeters>
            <DistanceMeters>35162.479633942</DistanceMeters>
          </Trackpoint>
          <Trackpoint>
            <Time>2020-04-26T17:59:45.000Z</Time>
            <Position>
              <LatitudeDegrees>38.55874252505600452423095703125</LatitudeDegrees>
              <LongitudeDegrees>-28.64842680282890796661376953125</LongitudeDegrees>
            </Position>
            <AltitudeMeters>274.399993896484375</AltitudeMeters>
            <DistanceMeters>35187.921960876</DistanceMeters>
          </Trackpoint>
          <Trackpoint>
            <Time>2020-04-26T17:59:47.000Z</Time>
            <Position>
              <LatitudeDegrees>38.55884629301726818084716796875</LatitudeDegrees>
              <LongitudeDegrees>-28.64815908484160900115966796875</LongitudeDegrees>
            </Position>
            <AltitudeMeters>272.79998779296875</AltitudeMeters>
            <DistanceMeters>35213.928048728</DistanceMeters>
          </Trackpoint>
          <Trackpoint>
            <Time>2020-04-26T17:59:49.000Z</Time>
            <Position>
              <LatitudeDegrees>38.5589548386633396148681640625</LatitudeDegrees>
              <LongitudeDegrees>-28.6478891037404537200927734375</LongitudeDegrees>
            </Position>
            <AltitudeMeters>271.79998779296875</AltitudeMeters>
            <DistanceMeters>35240.349576877</DistanceMeters>
          </Trackpoint>
          <Trackpoint>
            <Time>2020-04-26T17:59:50.000Z</Time>
            <Position>
              <LatitudeDegrees>38.55899146758019924163818359375</LatitudeDegrees>
              <LongitudeDegrees>-28.647742755711078643798828125</LongitudeDegrees>
            </Position>
            <AltitudeMeters>271.20001220703125</AltitudeMeters>
            <DistanceMeters>35253.72304666</DistanceMeters>
          </Trackpoint>
          <Trackpoint>
            <Time>2020-04-26T17:59:52.000Z</Time>
            <Position>
              <LatitudeDegrees>38.559017367660999298095703125</LatitudeDegrees>
              <LongitudeDegrees>-28.6474361456930637359619140625</LongitudeDegrees>
            </Position>
            <AltitudeMeters>270.20001220703125</AltitudeMeters>
            <DistanceMeters>35280.564182793</DistanceMeters>
          </Trackpoint>
          <Trackpoint>
            <Time>2020-04-26T17:59:54.000Z</Time>
            <Position>
              <LatitudeDegrees>38.5589944012463092803955078125</LatitudeDegrees>
              <LongitudeDegrees>-28.64712559618055820465087890625</LongitudeDegrees>
            </Position>
            <AltitudeMeters>268.600006103515625</AltitudeMeters>
            <DistanceMeters>35307.713233599</DistanceMeters>
          </Trackpoint>
          <Trackpoint>
            <Time>2020-04-26T17:59:55.000Z</Time>
            <Position>
              <LatitudeDegrees>38.55896808207035064697265625</LatitudeDegrees>
              <LongitudeDegrees>-28.64696793258190155029296875</LongitudeDegrees>
            </Position>
            <AltitudeMeters>267.79998779296875</AltitudeMeters>
            <DistanceMeters>35321.744403423</DistanceMeters>
          </Trackpoint>
          <Trackpoint>
            <Time>2020-04-26T17:59:56.000Z</Time>
            <Position>
              <LatitudeDegrees>38.55893832631409168243408203125</LatitudeDegrees>
              <LongitudeDegrees>-28.64681906998157501220703125</LongitudeDegrees>
            </Position>
            <AltitudeMeters>266.79998779296875</AltitudeMeters>
            <DistanceMeters>35335.116522692</DistanceMeters>
          </Trackpoint>
          <Trackpoint>
            <Time>2020-04-26T17:59:58.000Z</Time>
            <Position>
              <LatitudeDegrees>38.5588794015347957611083984375</LatitudeDegrees>
              <LongitudeDegrees>-28.64650298841297626495361328125</LongitudeDegrees>
            </Position>
            <AltitudeMeters>265.399993896484375</AltitudeMeters>
            <DistanceMeters>35363.397469119</DistanceMeters>
          </Trackpoint>
          <Trackpoint>
            <Time>2020-04-26T17:59:59.000Z</Time>
            <Position>
              <LatitudeDegrees>38.55885232798755168914794921875</LatitudeDegrees>
              <LongitudeDegrees>-28.64633920602500438690185546875</LongitudeDegrees>
            </Position>
            <AltitudeMeters>265</AltitudeMeters>
            <DistanceMeters>35377.966958025</DistanceMeters>
          </Trackpoint>
          <Trackpoint>
            <Time>2020-04-26T18:00:01.000Z</Time>
            <Position>
              <LatitudeDegrees>38.55879818089306354522705078125</LatitudeDegrees>
              <LongitudeDegrees>-28.6460108868777751922607421875</LongitudeDegrees>
            </Position>
            <AltitudeMeters>263.79998779296875</AltitudeMeters>
            <DistanceMeters>35407.170632448</DistanceMeters>
          </Trackpoint>
          <Trackpoint>
            <Time>2020-04-26T18:00:03.000Z</Time>
            <Position>
              <LatitudeDegrees>38.55878929607570171356201171875</LatitudeDegrees>
              <LongitudeDegrees>-28.64568474702537059783935546875</LongitudeDegrees>
            </Position>
            <AltitudeMeters>262.399993896484375</AltitudeMeters>
            <DistanceMeters>35435.573289176</DistanceMeters>
          </Trackpoint>
          <Trackpoint>
            <Time>2020-04-26T18:00:04.000Z</Time>
            <Position>
              <LatitudeDegrees>38.55881511233747005462646484375</LatitudeDegrees>
              <LongitudeDegrees>-28.64552817307412624359130859375</LongitudeDegrees>
            </Position>
            <AltitudeMeters>261.399993896484375</AltitudeMeters>
            <DistanceMeters>35449.499809986</DistanceMeters>
          </Trackpoint>
          <Trackpoint>
            <Time>2020-04-26T18:00:05.000Z</Time>
            <Position>
              <LatitudeDegrees>38.5588668286800384521484375</LatitudeDegrees>
              <LongitudeDegrees>-28.64538383670151233673095703125</LongitudeDegrees>
            </Position>
            <AltitudeMeters>261</AltitudeMeters>
            <DistanceMeters>35463.317949021</DistanceMeters>
          </Trackpoint>
          <Trackpoint>
            <Time>2020-04-26T18:00:06.000Z</Time>
            <Position>
              <LatitudeDegrees>38.55894033797085285186767578125</LatitudeDegrees>
              <LongitudeDegrees>-28.64525576122105121612548828125</LongitudeDegrees>
            </Position>
            <AltitudeMeters>260.399993896484375</AltitudeMeters>
            <DistanceMeters>35477.145233952</DistanceMeters>
          </Trackpoint>
          <Trackpoint>
            <Time>2020-04-26T18:00:07.000Z</Time>
            <Position>
              <LatitudeDegrees>38.55901778675615787506103515625</LatitudeDegrees>
              <LongitudeDegrees>-28.64512248896062374114990234375</LongitudeDegrees>
            </Position>
            <AltitudeMeters>259.79998779296875</AltitudeMeters>
            <DistanceMeters>35491.597419535</DistanceMeters>
          </Trackpoint>
          <Trackpoint>
            <Time>2020-04-26T18:00:09.000Z</Time>
            <Position>
              <LatitudeDegrees>38.5591596923768520355224609375</LatitudeDegrees>
              <LongitudeDegrees>-28.64484605379402637481689453125</LongitudeDegrees>
            </Position>
            <AltitudeMeters>258.600006103515625</AltitudeMeters>
            <DistanceMeters>35520.377966475</DistanceMeters>
          </Trackpoint>
          <Trackpoint>
            <Time>2020-04-26T18:00:11.000Z</Time>
            <Position>
              <LatitudeDegrees>38.55930411256849765777587890625</LatitudeDegrees>
              <LongitudeDegrees>-28.64456794224679470062255859375</LongitudeDegrees>
            </Position>
            <AltitudeMeters>257.79998779296875</AltitudeMeters>
            <DistanceMeters>35549.434394803</DistanceMeters>
          </Trackpoint>
          <Trackpoint>
            <Time>2020-04-26T18:00:12.000Z</Time>
            <Position>
              <LatitudeDegrees>38.55939052999019622802734375</LatitudeDegrees>
              <LongitudeDegrees>-28.64444732666015625</LongitudeDegrees>
            </Position>
            <AltitudeMeters>257.399993896484375</AltitudeMeters>
            <DistanceMeters>35563.672238253</DistanceMeters>
          </Trackpoint>
          <Trackpoint>
            <Time>2020-04-26T18:00:14.000Z</Time>
            <Position>
              <LatitudeDegrees>38.55957132764160633087158203125</LatitudeDegrees>
              <LongitudeDegrees>-28.64420735277235507965087890625</LongitudeDegrees>
            </Position>
            <AltitudeMeters>255.8000030517578125</AltitudeMeters>
            <DistanceMeters>35592.674852286</DistanceMeters>
          </Trackpoint>
          <Trackpoint>
            <Time>2020-04-26T18:00:15.000Z</Time>
            <Position>
              <LatitudeDegrees>38.55964223854243755340576171875</LatitudeDegrees>
              <LongitudeDegrees>-28.64406368695199489593505859375</LongitudeDegrees>
            </Position>
            <AltitudeMeters>254.8000030517578125</AltitudeMeters>
            <DistanceMeters>35607.461204468</DistanceMeters>
          </Trackpoint>
          <Trackpoint>
            <Time>2020-04-26T18:00:16.000Z</Time>
            <Position>
              <LatitudeDegrees>38.55968691408634185791015625</LatitudeDegrees>
              <LongitudeDegrees>-28.643904514610767364501953125</LongitudeDegrees>
            </Position>
            <AltitudeMeters>254</AltitudeMeters>
            <DistanceMeters>35622.179612463</DistanceMeters>
          </Trackpoint>
          <Trackpoint>
            <Time>2020-04-26T18:00:18.000Z</Time>
            <Position>
              <LatitudeDegrees>38.55967693962156772613525390625</LatitudeDegrees>
              <LongitudeDegrees>-28.64356831647455692291259765625</LongitudeDegrees>
            </Position>
            <AltitudeMeters>252.399993896484375</AltitudeMeters>
            <DistanceMeters>35651.4611042</DistanceMeters>
          </Trackpoint>
          <Trackpoint>
            <Time>2020-04-26T18:00:20.000Z</Time>
            <Position>
              <LatitudeDegrees>38.5595695674419403076171875</LatitudeDegrees>
              <LongitudeDegrees>-28.643263466656208038330078125</LongitudeDegrees>
            </Position>
            <AltitudeMeters>251</AltitudeMeters>
            <DistanceMeters>35680.560388182</DistanceMeters>
          </Trackpoint>
          <Trackpoint>
            <Time>2020-04-26T18:00:21.000Z</Time>
            <Position>
              <LatitudeDegrees>38.5595046915113925933837890625</LatitudeDegrees>
              <LongitudeDegrees>-28.6431174539029598236083984375</LongitudeDegrees>
            </Position>
            <AltitudeMeters>249.8000030517578125</AltitudeMeters>
            <DistanceMeters>35695.1765966</DistanceMeters>
          </Trackpoint>
          <Trackpoint>
            <Time>2020-04-26T18:00:23.000Z</Time>
            <Position>
              <LatitudeDegrees>38.559368066489696502685546875</LatitudeDegrees>
              <LongitudeDegrees>-28.642840683460235595703125</LongitudeDegrees>
            </Position>
            <AltitudeMeters>248.8000030517578125</AltitudeMeters>
            <DistanceMeters>35723.663380373</DistanceMeters>
          </Trackpoint>
          <Trackpoint>
            <Time>2020-04-26T18:00:26.000Z</Time>
            <Position>
              <LatitudeDegrees>38.55918291024863719940185546875</LatitudeDegrees>
              <LongitudeDegrees>-28.64243642427027225494384765625</LongitudeDegrees>
            </Position>
            <AltitudeMeters>247.1999969482421875</AltitudeMeters>
            <DistanceMeters>35764.438810904</DistanceMeters>
          </Trackpoint>
          <Trackpoint>
            <Time>2020-04-26T18:00:28.000Z</Time>
            <Position>
              <LatitudeDegrees>38.5590648092329502105712890625</LatitudeDegrees>
              <LongitudeDegrees>-28.64216702990233898162841796875</LongitudeDegrees>
            </Position>
            <AltitudeMeters>245</AltitudeMeters>
            <DistanceMeters>35791.318776243</DistanceMeters>
          </Trackpoint>
          <Trackpoint>
            <Time>2020-04-26T18:00:30.000Z</Time>
            <Position>
              <LatitudeDegrees>38.558968417346477508544921875</LatitudeDegrees>
              <LongitudeDegrees>-28.6418812908232212066650390625</LongitudeDegrees>
            </Position>
            <AltitudeMeters>243.600006103515625</AltitudeMeters>
            <DistanceMeters>35818.403223625</DistanceMeters>
          </Trackpoint>
          <Trackpoint>
            <Time>2020-04-26T18:00:31.000Z</Time>
            <Position>
              <LatitudeDegrees>38.55892650783061981201171875</LatitudeDegrees>
              <LongitudeDegrees>-28.64173351787030696868896484375</LongitudeDegrees>
            </Position>
            <AltitudeMeters>242.8000030517578125</AltitudeMeters>
            <DistanceMeters>35832.084430609</DistanceMeters>
          </Trackpoint>
          <Trackpoint>
            <Time>2020-04-26T18:00:32.000Z</Time>
            <Position>
              <LatitudeDegrees>38.5588901303708553314208984375</LatitudeDegrees>
              <LongitudeDegrees>-28.64158297888934612274169921875</LongitudeDegrees>
            </Position>
            <AltitudeMeters>242.1999969482421875</AltitudeMeters>
            <DistanceMeters>35845.797941174</DistanceMeters>
          </Trackpoint>
          <Trackpoint>
            <Time>2020-04-26T18:00:34.000Z</Time>
            <Position>
              <LatitudeDegrees>38.55883271433413028717041015625</LatitudeDegrees>
              <LongitudeDegrees>-28.64127368666231632232666015625</LongitudeDegrees>
            </Position>
            <AltitudeMeters>241.1999969482421875</AltitudeMeters>
            <DistanceMeters>35873.465079625</DistanceMeters>
          </Trackpoint>
          <Trackpoint>
            <Time>2020-04-26T18:00:35.000Z</Time>
            <Position>
              <LatitudeDegrees>38.55882030911743640899658203125</LatitudeDegrees>
              <LongitudeDegrees>-28.64111795090138912200927734375</LongitudeDegrees>
            </Position>
            <AltitudeMeters>240.399993896484375</AltitudeMeters>
            <DistanceMeters>35887.089736738</DistanceMeters>
          </Trackpoint>
          <Trackpoint>
            <Time>2020-04-26T18:00:37.000Z</Time>
            <Position>
              <LatitudeDegrees>38.55880656279623508453369140625</LatitudeDegrees>
              <LongitudeDegrees>-28.640804551541805267333984375</LongitudeDegrees>
            </Position>
            <AltitudeMeters>239.1999969482421875</AltitudeMeters>
            <DistanceMeters>35914.409214739</DistanceMeters>
          </Trackpoint>
          <Trackpoint>
            <Time>2020-04-26T18:00:38.000Z</Time>
            <Position>
              <LatitudeDegrees>38.55879030190408229827880859375</LatitudeDegrees>
              <LongitudeDegrees>-28.64065057598054409027099609375</LongitudeDegrees>
            </Position>
            <AltitudeMeters>238.600006103515625</AltitudeMeters>
            <DistanceMeters>35927.931753258</DistanceMeters>
          </Trackpoint>
          <Trackpoint>
            <Time>2020-04-26T18:00:39.000Z</Time>
            <Position>
              <LatitudeDegrees>38.55875610373914241790771484375</LatitudeDegrees>
              <LongitudeDegrees>-28.64050674252212047576904296875</LongitudeDegrees>
            </Position>
            <AltitudeMeters>238</AltitudeMeters>
            <DistanceMeters>35941.015796564</DistanceMeters>
          </Trackpoint>
          <Trackpoint>
            <Time>2020-04-26T18:00:46.000Z</Time>
            <Position>
              <LatitudeDegrees>38.55820231139659881591796875</LatitudeDegrees>
              <LongitudeDegrees>-28.6398364417254924774169921875</LongitudeDegrees>
            </Position>
            <AltitudeMeters>233</AltitudeMeters>
            <DistanceMeters>36025.88502712</DistanceMeters>
          </Trackpoint>
          <Trackpoint>
            <Time>2020-04-26T18:00:47.000Z</Time>
            <Position>
              <LatitudeDegrees>38.5581386089324951171875</LatitudeDegrees>
              <LongitudeDegrees>-28.63972672261297702789306640625</LongitudeDegrees>
            </Position>
            <AltitudeMeters>233</AltitudeMeters>
            <DistanceMeters>36037.778940587</DistanceMeters>
          </Trackpoint>
          <Trackpoint>
            <Time>2020-04-26T18:00:50.000Z</Time>
            <Position>
              <LatitudeDegrees>38.557966612279415130615234375</LatitudeDegrees>
              <LongitudeDegrees>-28.63936060108244419097900390625</LongitudeDegrees>
            </Position>
            <AltitudeMeters>233</AltitudeMeters>
            <DistanceMeters>36074.952609068</DistanceMeters>
          </Trackpoint>
          <Trackpoint>
            <Time>2020-04-26T18:00:51.000Z</Time>
            <Position>
              <LatitudeDegrees>38.55791120789945125579833984375</LatitudeDegrees>
              <LongitudeDegrees>-28.63923453725874423980712890625</LongitudeDegrees>
            </Position>
            <AltitudeMeters>231.8000030517578125</AltitudeMeters>
            <DistanceMeters>36087.538896489</DistanceMeters>
          </Trackpoint>
          <Trackpoint>
            <Time>2020-04-26T18:00:55.000Z</Time>
            <Position>
              <LatitudeDegrees>38.55774122290313243865966796875</LatitudeDegrees>
              <LongitudeDegrees>-28.6386953294277191162109375</LongitudeDegrees>
            </Position>
            <AltitudeMeters>230</AltitudeMeters>
            <DistanceMeters>36138.139528849</DistanceMeters>
          </Trackpoint>
          <Trackpoint>
            <Time>2020-04-26T18:00:56.000Z</Time>
            <Position>
              <LatitudeDegrees>38.5577052645385265350341796875</LatitudeDegrees>
              <LongitudeDegrees>-28.638556189835071563720703125</LongitudeDegrees>
            </Position>
            <AltitudeMeters>229</AltitudeMeters>
            <DistanceMeters>36150.893657477</DistanceMeters>
          </Trackpoint>
          <Trackpoint>
            <Time>2020-04-26T18:00:58.000Z</Time>
            <Position>
              <LatitudeDegrees>38.5576284863054752349853515625</LatitudeDegrees>
              <LongitudeDegrees>-28.638274557888507843017578125</LongitudeDegrees>
            </Position>
            <AltitudeMeters>227.8000030517578125</AltitudeMeters>
            <DistanceMeters>36176.852653117</DistanceMeters>
          </Trackpoint>
          <Trackpoint>
            <Time>2020-04-26T18:01:01.000Z</Time>
            <Position>
              <LatitudeDegrees>38.55750183574855327606201171875</LatitudeDegrees>
              <LongitudeDegrees>-28.63785001449286937713623046875</LongitudeDegrees>
            </Position>
            <AltitudeMeters>226.399993896484375</AltitudeMeters>
            <DistanceMeters>36216.400894805</DistanceMeters>
          </Trackpoint>
          <Trackpoint>
            <Time>2020-04-26T18:01:02.000Z</Time>
            <Position>
              <LatitudeDegrees>38.55745204724371433258056640625</LatitudeDegrees>
              <LongitudeDegrees>-28.637713976204395294189453125</LongitudeDegrees>
            </Position>
            <AltitudeMeters>225.8000030517578125</AltitudeMeters>
            <DistanceMeters>36229.473890895</DistanceMeters>
          </Trackpoint>
          <Trackpoint>
            <Time>2020-04-26T18:01:03.000Z</Time>
            <Position>
              <LatitudeDegrees>38.55739991180598735809326171875</LatitudeDegrees>
              <LongitudeDegrees>-28.63758087158203125</LongitudeDegrees>
            </Position>
            <AltitudeMeters>224.8000030517578125</AltitudeMeters>
            <DistanceMeters>36242.430671018</DistanceMeters>
          </Trackpoint>
          <Trackpoint>
            <Time>2020-04-26T18:01:05.000Z</Time>
            <Position>
              <LatitudeDegrees>38.55729161761701107025146484375</LatitudeDegrees>
              <LongitudeDegrees>-28.637317679822444915771484375</LongitudeDegrees>
            </Position>
            <AltitudeMeters>223.600006103515625</AltitudeMeters>
            <DistanceMeters>36268.315641023</DistanceMeters>
          </Trackpoint>
          <Trackpoint>
            <Time>2020-04-26T18:01:07.000Z</Time>
            <Position>
              <LatitudeDegrees>38.55718315578997135162353515625</LatitudeDegrees>
              <LongitudeDegrees>-28.6370596848428249359130859375</LongitudeDegrees>
            </Position>
            <AltitudeMeters>222.1999969482421875</AltitudeMeters>
            <DistanceMeters>36293.810088306</DistanceMeters>
          </Trackpoint>
          <Trackpoint>
            <Time>2020-04-26T18:01:09.000Z</Time>
            <Position>
              <LatitudeDegrees>38.55707067064940929412841796875</LatitudeDegrees>
              <LongitudeDegrees>-28.6368083953857421875</LongitudeDegrees>
            </Position>
            <AltitudeMeters>221.8000030517578125</AltitudeMeters>
            <DistanceMeters>36319.011344951</DistanceMeters>
          </Trackpoint>
          <Trackpoint>
            <Time>2020-04-26T18:01:10.000Z</Time>
            <Position>
              <LatitudeDegrees>38.5570053756237030029296875</LatitudeDegrees>
              <LongitudeDegrees>-28.6366885341703891754150390625</LongitudeDegrees>
            </Position>
            <AltitudeMeters>221.399993896484375</AltitudeMeters>
            <DistanceMeters>36331.725052842</DistanceMeters>
          </Trackpoint>
          <Trackpoint>
            <Time>2020-04-26T18:01:11.000Z</Time>
            <Position>
              <LatitudeDegrees>38.5569391585886478424072265625</LatitudeDegrees>
              <LongitudeDegrees>-28.63656775094568729400634765625</LongitudeDegrees>
            </Position>
            <AltitudeMeters>220.600006103515625</AltitudeMeters>
            <DistanceMeters>36344.563861798</DistanceMeters>
          </Trackpoint>
          <Trackpoint>
            <Time>2020-04-26T18:01:13.000Z</Time>
            <Position>
              <LatitudeDegrees>38.5568094067275524139404296875</LatitudeDegrees>
              <LongitudeDegrees>-28.636324591934680938720703125</LongitudeDegrees>
            </Position>
            <AltitudeMeters>219.600006103515625</AltitudeMeters>
            <DistanceMeters>36370.185502989</DistanceMeters>
          </Trackpoint>
          <Trackpoint>
            <Time>2020-04-26T18:01:15.000Z</Time>
            <Position>
              <LatitudeDegrees>38.5566840134561061859130859375</LatitudeDegrees>
              <LongitudeDegrees>-28.63607925362884998321533203125</LongitudeDegrees>
            </Position>
            <AltitudeMeters>218.1999969482421875</AltitudeMeters>
            <DistanceMeters>36395.695353223</DistanceMeters>
          </Trackpoint>
          <Trackpoint>
            <Time>2020-04-26T18:01:16.000Z</Time>
            <Position>
              <LatitudeDegrees>38.55661938898265361785888671875</LatitudeDegrees>
              <LongitudeDegrees>-28.635956458747386932373046875</LongitudeDegrees>
            </Position>
            <AltitudeMeters>216.399993896484375</AltitudeMeters>
            <DistanceMeters>36408.578396537</DistanceMeters>
          </Trackpoint>
          <Trackpoint>
            <Time>2020-04-26T18:01:19.000Z</Time>
            <Position>
              <LatitudeDegrees>38.55643917806446552276611328125</LatitudeDegrees>
              <LongitudeDegrees>-28.6356025747954845428466796875</LongitudeDegrees>
            </Position>
            <AltitudeMeters>215.1999969482421875</AltitudeMeters>
            <DistanceMeters>36445.334823011</DistanceMeters>
          </Trackpoint>
          <Trackpoint>
            <Time>2020-04-26T18:01:20.000Z</Time>
            <Position>
              <LatitudeDegrees>38.55639508925378322601318359375</LatitudeDegrees>
              <LongitudeDegrees>-28.63551230169832706451416015625</LongitudeDegrees>
            </Position>
            <AltitudeMeters>214.399993896484375</AltitudeMeters>
            <DistanceMeters>36454.598831136</DistanceMeters>
          </Trackpoint>
          <Trackpoint>
            <Time>2020-04-26T18:01:21.000Z</Time>
            <Position>
              <LatitudeDegrees>38.556360639631748199462890625</LatitudeDegrees>
              <LongitudeDegrees>-28.63543971441686153411865234375</LongitudeDegrees>
            </Position>
            <AltitudeMeters>213.8000030517578125</AltitudeMeters>
            <DistanceMeters>36461.988953079</DistanceMeters>
          </Trackpoint>
          <Trackpoint>
            <Time>2020-04-26T18:01:22.000Z</Time>
            <Position>
              <LatitudeDegrees>38.5563346557319164276123046875</LatitudeDegrees>
              <LongitudeDegrees>-28.6353801190853118896484375</LongitudeDegrees>
            </Position>
            <AltitudeMeters>213.399993896484375</AltitudeMeters>
            <DistanceMeters>36467.927172383</DistanceMeters>
          </Trackpoint>
          <Trackpoint>
            <Time>2020-04-26T18:01:23.000Z</Time>
            <Position>
              <LatitudeDegrees>38.55631713755428791046142578125</LatitudeDegrees>
              <LongitudeDegrees>-28.63533108495175838470458984375</LongitudeDegrees>
            </Position>
            <AltitudeMeters>213.1999969482421875</AltitudeMeters>
            <DistanceMeters>36472.619221655</DistanceMeters>
          </Trackpoint>
          <Trackpoint>
            <Time>2020-04-26T18:01:24.000Z</Time>
            <Position>
              <LatitudeDegrees>38.55630557052791118621826171875</LatitudeDegrees>
              <LongitudeDegrees>-28.63529604859650135040283203125</LongitudeDegrees>
            </Position>
            <AltitudeMeters>212.8000030517578125</AltitudeMeters>
            <DistanceMeters>36475.928826273</DistanceMeters>
          </Trackpoint>
          <Trackpoint>
            <Time>2020-04-26T18:01:25.000Z</Time>
            <Position>
              <LatitudeDegrees>38.556308336555957794189453125</LatitudeDegrees>
              <LongitudeDegrees>-28.63527216017246246337890625</LongitudeDegrees>
            </Position>
            <AltitudeMeters>212.399993896484375</AltitudeMeters>
            <DistanceMeters>36478.032332265</DistanceMeters>
          </Trackpoint>
          <Trackpoint>
            <Time>2020-04-26T18:01:28.000Z</Time>
            <Position>
              <LatitudeDegrees>38.55636156164109706878662109375</LatitudeDegrees>
              <LongitudeDegrees>-28.63531281240284442901611328125</LongitudeDegrees>
            </Position>
            <AltitudeMeters>212.1999969482421875</AltitudeMeters>
            <DistanceMeters>36484.932083204</DistanceMeters>
          </Trackpoint>
          <Trackpoint>
            <Time>2020-04-26T18:01:31.000Z</Time>
            <Position>
              <LatitudeDegrees>38.55637748725712299346923828125</LatitudeDegrees>
              <LongitudeDegrees>-28.63540048711001873016357421875</LongitudeDegrees>
            </Position>
            <AltitudeMeters>212.600006103515625</AltitudeMeters>
            <DistanceMeters>36492.766458073</DistanceMeters>
          </Trackpoint>
          <Trackpoint>
            <Time>2020-04-26T18:01:32.000Z</Time>
            <Position>
              <LatitudeDegrees>38.55638285167515277862548828125</LatitudeDegrees>
              <LongitudeDegrees>-28.6354309134185314178466796875</LongitudeDegrees>
            </Position>
            <AltitudeMeters>212.600006103515625</AltitudeMeters>
            <DistanceMeters>36495.482626781</DistanceMeters>
          </Trackpoint>
          <Trackpoint>
            <Time>2020-04-26T18:01:35.000Z</Time>
            <Position>
              <LatitudeDegrees>38.5564194805920124053955078125</LatitudeDegrees>
              <LongitudeDegrees>-28.63552697002887725830078125</LongitudeDegrees>
            </Position>
            <AltitudeMeters>213</AltitudeMeters>
            <DistanceMeters>36504.784572411</DistanceMeters>
          </Trackpoint>
          <Trackpoint>
            <Time>2020-04-26T18:01:37.000Z</Time>
            <Position>
              <LatitudeDegrees>38.5564503259956836700439453125</LatitudeDegrees>
              <LongitudeDegrees>-28.635594360530376434326171875</LongitudeDegrees>
            </Position>
            <AltitudeMeters>213.399993896484375</AltitudeMeters>
            <DistanceMeters>36511.58147399</DistanceMeters>
          </Trackpoint>
          <Trackpoint>
            <Time>2020-04-26T18:01:39.000Z</Time>
            <Position>
              <LatitudeDegrees>38.55647589080035686492919921875</LatitudeDegrees>
              <LongitudeDegrees>-28.6356599070131778717041015625</LongitudeDegrees>
            </Position>
            <AltitudeMeters>213.8000030517578125</AltitudeMeters>
            <DistanceMeters>36517.956059781</DistanceMeters>
          </Trackpoint>
          <Trackpoint>
            <Time>2020-04-26T18:01:44.000Z</Time>
            <Position>
              <LatitudeDegrees>38.55656038038432598114013671875</LatitudeDegrees>
              <LongitudeDegrees>-28.6358235217630863189697265625</LongitudeDegrees>
            </Position>
            <AltitudeMeters>214.8000030517578125</AltitudeMeters>
            <DistanceMeters>36535.021757114</DistanceMeters>
          </Trackpoint>
          <Trackpoint>
            <Time>2020-04-26T18:01:46.000Z</Time>
            <Position>
              <LatitudeDegrees>38.55659566819667816162109375</LatitudeDegrees>
              <LongitudeDegrees>-28.635890744626522064208984375</LongitudeDegrees>
            </Position>
            <AltitudeMeters>215</AltitudeMeters>
            <DistanceMeters>36542.069126867</DistanceMeters>
          </Trackpoint>
          <Trackpoint>
            <Time>2020-04-26T18:01:50.000Z</Time>
            <Position>
              <LatitudeDegrees>38.5566833429038524627685546875</LatitudeDegrees>
              <LongitudeDegrees>-28.63602007739245891571044921875</LongitudeDegrees>
            </Position>
            <AltitudeMeters>215.8000030517578125</AltitudeMeters>
            <DistanceMeters>36556.966515523</DistanceMeters>
          </Trackpoint>
          <Trackpoint>
            <Time>2020-04-26T18:01:52.000Z</Time>
            <Position>
              <LatitudeDegrees>38.5567195527255535125732421875</LatitudeDegrees>
              <LongitudeDegrees>-28.63609299995005130767822265625</LongitudeDegrees>
            </Position>
            <AltitudeMeters>216.1999969482421875</AltitudeMeters>
            <DistanceMeters>36564.485044538</DistanceMeters>
          </Trackpoint>
          <Trackpoint>
            <Time>2020-04-26T18:01:55.000Z</Time>
            <Position>
              <LatitudeDegrees>38.55677462182939052581787109375</LatitudeDegrees>
              <LongitudeDegrees>-28.6362033896148204803466796875</LongitudeDegrees>
            </Position>
            <AltitudeMeters>216.8000030517578125</AltitudeMeters>
            <DistanceMeters>36575.881517215</DistanceMeters>
          </Trackpoint>
          <Trackpoint>
            <Time>2020-04-26T18:01:57.000Z</Time>
            <Position>
              <LatitudeDegrees>38.55681451968848705291748046875</LatitudeDegrees>
              <LongitudeDegrees>-28.63627974875271320343017578125</LongitudeDegrees>
            </Position>
            <AltitudeMeters>217</AltitudeMeters>
            <DistanceMeters>36583.875065921</DistanceMeters>
          </Trackpoint>
          <Trackpoint>
            <Time>2020-04-26T18:01:59.000Z</Time>
            <Position>
              <LatitudeDegrees>38.556856177747249603271484375</LatitudeDegrees>
              <LongitudeDegrees>-28.63635418005287647247314453125</LongitudeDegrees>
            </Position>
            <AltitudeMeters>217.1999969482421875</AltitudeMeters>
            <DistanceMeters>36591.841456399</DistanceMeters>
          </Trackpoint>
          <Trackpoint>
            <Time>2020-04-26T18:02:02.000Z</Time>
            <Position>
              <LatitudeDegrees>38.556912839412689208984375</LatitudeDegrees>
              <LongitudeDegrees>-28.63646917976438999176025390625</LongitudeDegrees>
            </Position>
            <AltitudeMeters>218</AltitudeMeters>
            <DistanceMeters>36603.67218693</DistanceMeters>
          </Trackpoint>
          <Trackpoint>
            <Time>2020-04-26T18:02:04.000Z</Time>
            <Position>
              <LatitudeDegrees>38.55695164762437343597412109375</LatitudeDegrees>
              <LongitudeDegrees>-28.63654009066522121429443359375</LongitudeDegrees>
            </Position>
            <AltitudeMeters>218.399993896484375</AltitudeMeters>
            <DistanceMeters>36611.205114672</DistanceMeters>
          </Trackpoint>
          <Trackpoint>
            <Time>2020-04-26T18:02:12.000Z</Time>
            <Position>
              <LatitudeDegrees>38.55709766037762165069580078125</LatitudeDegrees>
              <LongitudeDegrees>-28.6368229798972606658935546875</LongitudeDegrees>
            </Position>
            <AltitudeMeters>219.600006103515625</AltitudeMeters>
            <DistanceMeters>36640.706739338</DistanceMeters>
          </Trackpoint>
          <Trackpoint>
            <Time>2020-04-26T18:02:19.000Z</Time>
            <Position>
              <LatitudeDegrees>38.55720913968980312347412109375</LatitudeDegrees>
              <LongitudeDegrees>-28.637076281011104583740234375</LongitudeDegrees>
            </Position>
            <AltitudeMeters>220.600006103515625</AltitudeMeters>
            <DistanceMeters>36666.004913934</DistanceMeters>
          </Trackpoint>
          <Trackpoint>
            <Time>2020-04-26T18:02:20.000Z</Time>
            <Position>
              <LatitudeDegrees>38.55722489766776561737060546875</LatitudeDegrees>
              <LongitudeDegrees>-28.63711425103247165679931640625</LongitudeDegrees>
            </Position>
            <AltitudeMeters>220.8000030517578125</AltitudeMeters>
            <DistanceMeters>36669.747326066</DistanceMeters>
          </Trackpoint>
          <Trackpoint>
            <Time>2020-04-26T18:02:26.000Z</Time>
            <Position>
              <LatitudeDegrees>38.55731994844973087310791015625</LatitudeDegrees>
              <LongitudeDegrees>-28.6373461782932281494140625</LongitudeDegrees>
            </Position>
            <AltitudeMeters>221.600006103515625</AltitudeMeters>
            <DistanceMeters>36692.537498002</DistanceMeters>
          </Trackpoint>
          <Trackpoint>
            <Time>2020-04-26T18:02:29.000Z</Time>
            <Position>
              <LatitudeDegrees>38.5573652945458889007568359375</LatitudeDegrees>
              <LongitudeDegrees>-28.63746545277535915374755859375</LongitudeDegrees>
            </Position>
            <AltitudeMeters>222.600006103515625</AltitudeMeters>
            <DistanceMeters>36704.080799437</DistanceMeters>
          </Trackpoint>
          <Trackpoint>
            <Time>2020-04-26T18:02:32.000Z</Time>
            <Position>
              <LatitudeDegrees>38.55741642415523529052734375</LatitudeDegrees>
              <LongitudeDegrees>-28.63758464343845844268798828125</LongitudeDegrees>
            </Position>
            <AltitudeMeters>222.8000030517578125</AltitudeMeters>
            <DistanceMeters>36715.913056414</DistanceMeters>
          </Trackpoint>
          <Trackpoint>
            <Time>2020-04-26T18:02:36.000Z</Time>
            <Position>
              <LatitudeDegrees>38.5574866645038127899169921875</LatitudeDegrees>
              <LongitudeDegrees>-28.63774783909320831298828125</LongitudeDegrees>
            </Position>
            <AltitudeMeters>223.8000030517578125</AltitudeMeters>
            <DistanceMeters>36732.126184591</DistanceMeters>
          </Trackpoint>
          <Trackpoint>
            <Time>2020-04-26T18:02:38.000Z</Time>
            <Position>
              <LatitudeDegrees>38.5575188510119915008544921875</LatitudeDegrees>
              <LongitudeDegrees>-28.6378284730017185211181640625</LongitudeDegrees>
            </Position>
            <AltitudeMeters>224.1999969482421875</AltitudeMeters>
            <DistanceMeters>36740.005956519</DistanceMeters>
          </Trackpoint>
          <Trackpoint>
            <Time>2020-04-26T18:02:42.000Z</Time>
            <Position>
              <LatitudeDegrees>38.55758381076157093048095703125</LatitudeDegrees>
              <LongitudeDegrees>-28.63799183629453182220458984375</LongitudeDegrees>
            </Position>
            <AltitudeMeters>224.8000030517578125</AltitudeMeters>
            <DistanceMeters>36755.957146567</DistanceMeters>
          </Trackpoint>
          <Trackpoint>
            <Time>2020-04-26T18:02:45.000Z</Time>
            <Position>
              <LatitudeDegrees>38.55762337334454059600830078125</LatitudeDegrees>
              <LongitudeDegrees>-28.638122342526912689208984375</LongitudeDegrees>
            </Position>
            <AltitudeMeters>225.1999969482421875</AltitudeMeters>
            <DistanceMeters>36768.139853017</DistanceMeters>
          </Trackpoint>
          <Trackpoint>
            <Time>2020-04-26T18:02:48.000Z</Time>
            <Position>
              <LatitudeDegrees>38.557658828794956207275390625</LatitudeDegrees>
              <LongitudeDegrees>-28.63824631087481975555419921875</LongitudeDegrees>
            </Position>
            <AltitudeMeters>226</AltitudeMeters>
            <DistanceMeters>36779.628657453</DistanceMeters>
          </Trackpoint>
          <Trackpoint>
            <Time>2020-04-26T18:02:53.000Z</Time>
            <Position>
              <LatitudeDegrees>38.5577161610126495361328125</LatitudeDegrees>
              <LongitudeDegrees>-28.63845602609217166900634765625</LongitudeDegrees>
            </Position>
            <AltitudeMeters>227.1999969482421875</AltitudeMeters>
            <DistanceMeters>36798.964667514</DistanceMeters>
          </Trackpoint>
          <Trackpoint>
            <Time>2020-04-26T18:02:54.000Z</Time>
            <Position>
              <LatitudeDegrees>38.55772756040096282958984375</LatitudeDegrees>
              <LongitudeDegrees>-28.63849894143640995025634765625</LongitudeDegrees>
            </Position>
            <AltitudeMeters>227.399993896484375</AltitudeMeters>
            <DistanceMeters>36802.910279227</DistanceMeters>
          </Trackpoint>
          <Trackpoint>
            <Time>2020-04-26T18:02:58.000Z</Time>
            <Position>
              <LatitudeDegrees>38.55776377022266387939453125</LatitudeDegrees>
              <LongitudeDegrees>-28.6386680044233798980712890625</LongitudeDegrees>
            </Position>
            <AltitudeMeters>228.399993896484375</AltitudeMeters>
            <DistanceMeters>36818.166728697</DistanceMeters>
          </Trackpoint>
          <Trackpoint>
            <Time>2020-04-26T18:03:03.000Z</Time>
            <Position>
              <LatitudeDegrees>38.55782152153551578521728515625</LatitudeDegrees>
              <LongitudeDegrees>-28.6388752050697803497314453125</LongitudeDegrees>
            </Position>
            <AltitudeMeters>228.8000030517578125</AltitudeMeters>
            <DistanceMeters>36837.311958728</DistanceMeters>
          </Trackpoint>
          <Trackpoint>
            <Time>2020-04-26T18:03:08.000Z</Time>
            <Position>
              <LatitudeDegrees>38.55787516571581363677978515625</LatitudeDegrees>
              <LongitudeDegrees>-28.639080561697483062744140625</LongitudeDegrees>
            </Position>
            <AltitudeMeters>229.399993896484375</AltitudeMeters>
            <DistanceMeters>36856.156261744</DistanceMeters>
          </Trackpoint>
          <Trackpoint>
            <Time>2020-04-26T18:03:12.000Z</Time>
            <Position>
              <LatitudeDegrees>38.557936437427997589111328125</LatitudeDegrees>
              <LongitudeDegrees>-28.63924073986709117889404296875</LongitudeDegrees>
            </Position>
            <AltitudeMeters>230</AltitudeMeters>
            <DistanceMeters>36871.675901849</DistanceMeters>
          </Trackpoint>
          <Trackpoint>
            <Time>2020-04-26T18:03:14.000Z</Time>
            <Position>
              <LatitudeDegrees>38.55797306634485721588134765625</LatitudeDegrees>
              <LongitudeDegrees>-28.639321289956569671630859375</LongitudeDegrees>
            </Position>
            <AltitudeMeters>230.8000030517578125</AltitudeMeters>
            <DistanceMeters>36879.786085375</DistanceMeters>
          </Trackpoint>
          <Trackpoint>
            <Time>2020-04-26T18:03:20.000Z</Time>
            <Position>
              <LatitudeDegrees>38.55808823369443416595458984375</LatitudeDegrees>
              <LongitudeDegrees>-28.63957283087074756622314453125</LongitudeDegrees>
            </Position>
            <AltitudeMeters>232</AltitudeMeters>
            <DistanceMeters>36905.155548681</DistanceMeters>
          </Trackpoint>
          <Trackpoint>
            <Time>2020-04-26T18:03:21.000Z</Time>
            <Position>
              <LatitudeDegrees>38.5580995492637157440185546875</LatitudeDegrees>
              <LongitudeDegrees>-28.6396181769669055938720703125</LongitudeDegrees>
            </Position>
            <AltitudeMeters>232</AltitudeMeters>
            <DistanceMeters>36909.29766713</DistanceMeters>
          </Trackpoint>
          <Trackpoint>
            <Time>2020-04-26T18:03:24.000Z</Time>
            <Position>
              <LatitudeDegrees>38.5581552051007747650146484375</LatitudeDegrees>
              <LongitudeDegrees>-28.63973929546773433685302734375</LongitudeDegrees>
            </Position>
            <AltitudeMeters>233</AltitudeMeters>
            <DistanceMeters>36921.524765952</DistanceMeters>
          </Trackpoint>
          <Trackpoint>
            <Time>2020-04-26T18:03:26.000Z</Time>
            <Position>
              <LatitudeDegrees>38.558202646672725677490234375</LatitudeDegrees>
              <LongitudeDegrees>-28.6398156546056270599365234375</LongitudeDegrees>
            </Position>
            <AltitudeMeters>233</AltitudeMeters>
            <DistanceMeters>36930.013050817</DistanceMeters>
          </Trackpoint>
          <Trackpoint>
            <Time>2020-04-26T18:03:32.000Z</Time>
            <Position>
              <LatitudeDegrees>38.5583483241498470306396484375</LatitudeDegrees>
              <LongitudeDegrees>-28.64002143032848834991455078125</LongitudeDegrees>
            </Position>
            <AltitudeMeters>234</AltitudeMeters>
            <DistanceMeters>36954.172086206</DistanceMeters>
          </Trackpoint>
          <Trackpoint>
            <Time>2020-04-26T18:03:33.000Z</Time>
            <Position>
              <LatitudeDegrees>38.5583784990012645721435546875</LatitudeDegrees>
              <LongitudeDegrees>-28.64005143754184246063232421875</LongitudeDegrees>
            </Position>
            <AltitudeMeters>234.1999969482421875</AltitudeMeters>
            <DistanceMeters>36958.426057668</DistanceMeters>
          </Trackpoint>
          <Trackpoint>
            <Time>2020-04-26T18:03:37.000Z</Time>
            <Position>
              <LatitudeDegrees>38.55850984342396259307861328125</LatitudeDegrees>
              <LongitudeDegrees>-28.64014967344701290130615234375</LongitudeDegrees>
            </Position>
            <AltitudeMeters>235.1999969482421875</AltitudeMeters>
            <DistanceMeters>36975.361620487</DistanceMeters>
          </Trackpoint>
          <Trackpoint>
            <Time>2020-04-26T18:03:40.000Z</Time>
            <Position>
              <LatitudeDegrees>38.55859936214983463287353515625</LatitudeDegrees>
              <LongitudeDegrees>-28.64022695459425449371337890625</LongitudeDegrees>
            </Position>
            <AltitudeMeters>236</AltitudeMeters>
            <DistanceMeters>36987.383157137</DistanceMeters>
          </Trackpoint>
          <Trackpoint>
            <Time>2020-04-26T18:03:41.000Z</Time>
            <Position>
              <LatitudeDegrees>38.5586282797157764434814453125</LatitudeDegrees>
              <LongitudeDegrees>-28.64025662653148174285888671875</LongitudeDegrees>
            </Position>
            <AltitudeMeters>236.399993896484375</AltitudeMeters>
            <DistanceMeters>36991.509986934</DistanceMeters>
          </Trackpoint>
          <Trackpoint>
            <Time>2020-04-26T18:03:47.000Z</Time>
            <Position>
              <LatitudeDegrees>38.55877152644097805023193359375</LatitudeDegrees>
              <LongitudeDegrees>-28.640471957623958587646484375</LongitudeDegrees>
            </Position>
            <AltitudeMeters>237.399993896484375</AltitudeMeters>
            <DistanceMeters>37016.11566789</DistanceMeters>
          </Trackpoint>
          <Trackpoint>
            <Time>2020-04-26T18:03:48.000Z</Time>
            <Position>
              <LatitudeDegrees>38.55878745205700397491455078125</LatitudeDegrees>
              <LongitudeDegrees>-28.64051512442529201507568359375</LongitudeDegrees>
            </Position>
            <AltitudeMeters>237.600006103515625</AltitudeMeters>
            <DistanceMeters>37020.270846125</DistanceMeters>
          </Trackpoint>
          <Trackpoint>
            <Time>2020-04-26T18:03:51.000Z</Time>
            <Position>
              <LatitudeDegrees>38.55883003212511539459228515625</LatitudeDegrees>
              <LongitudeDegrees>-28.64064604975283145904541015625</LongitudeDegrees>
            </Position>
            <AltitudeMeters>238.600006103515625</AltitudeMeters>
            <DistanceMeters>37032.611886166</DistanceMeters>
          </Trackpoint>
          <Trackpoint>
            <Time>2020-04-26T18:03:55.000Z</Time>
            <Position>
              <LatitudeDegrees>38.55885953642427921295166015625</LatitudeDegrees>
              <LongitudeDegrees>-28.64082307554781436920166015625</LongitudeDegrees>
            </Position>
            <AltitudeMeters>239.1999969482421875</AltitudeMeters>
            <DistanceMeters>37048.365412467</DistanceMeters>
          </Trackpoint>
          <Trackpoint>
            <Time>2020-04-26T18:03:56.000Z</Time>
            <Position>
              <LatitudeDegrees>38.55886003933846950531005859375</LatitudeDegrees>
              <LongitudeDegrees>-28.64086951129138469696044921875</LongitudeDegrees>
            </Position>
            <AltitudeMeters>239.600006103515625</AltitudeMeters>
            <DistanceMeters>37052.408238009</DistanceMeters>
          </Trackpoint>
          <Trackpoint>
            <Time>2020-04-26T18:04:03.000Z</Time>
            <Position>
              <LatitudeDegrees>38.5588693432509899139404296875</LatitudeDegrees>
              <LongitudeDegrees>-28.64120529033243656158447265625</LongitudeDegrees>
            </Position>
            <AltitudeMeters>240.8000030517578125</AltitudeMeters>
            <DistanceMeters>37081.651155771</DistanceMeters>
          </Trackpoint>
          <Trackpoint>
            <Time>2020-04-26T18:04:04.000Z</Time>
            <Position>
              <LatitudeDegrees>38.55887294746935367584228515625</LatitudeDegrees>
              <LongitudeDegrees>-28.641251139342784881591796875</LongitudeDegrees>
            </Position>
            <AltitudeMeters>241.1999969482421875</AltitudeMeters>
            <DistanceMeters>37085.662588959</DistanceMeters>
          </Trackpoint>
          <Trackpoint>
            <Time>2020-04-26T18:04:11.000Z</Time>
            <Position>
              <LatitudeDegrees>38.55891619808971881866455078125</LatitudeDegrees>
              <LongitudeDegrees>-28.641576357185840606689453125</LongitudeDegrees>
            </Position>
            <AltitudeMeters>242.1999969482421875</AltitudeMeters>
            <DistanceMeters>37114.374183805</DistanceMeters>
          </Trackpoint>
          <Trackpoint>
            <Time>2020-04-26T18:04:12.000Z</Time>
            <Position>
              <LatitudeDegrees>38.5589258372783660888671875</LatitudeDegrees>
              <LongitudeDegrees>-28.6416231282055377960205078125</LongitudeDegrees>
            </Position>
            <AltitudeMeters>242.399993896484375</AltitudeMeters>
            <DistanceMeters>37118.583341676</DistanceMeters>
          </Trackpoint>
          <Trackpoint>
            <Time>2020-04-26T18:04:17.000Z</Time>
            <Position>
              <LatitudeDegrees>38.5589893721044063568115234375</LatitudeDegrees>
              <LongitudeDegrees>-28.64182387478649616241455078125</LongitudeDegrees>
            </Position>
            <AltitudeMeters>243.1999969482421875</AltitudeMeters>
            <DistanceMeters>37137.432196485</DistanceMeters>
          </Trackpoint>
          <Trackpoint>
            <Time>2020-04-26T18:04:19.000Z</Time>
            <Position>
              <LatitudeDegrees>38.55901636183261871337890625</LatitudeDegrees>
              <LongitudeDegrees>-28.64190534688532352447509765625</LongitudeDegrees>
            </Position>
            <AltitudeMeters>243.600006103515625</AltitudeMeters>
            <DistanceMeters>37145.133465347</DistanceMeters>
          </Trackpoint>
          <Trackpoint>
            <Time>2020-04-26T18:04:23.000Z</Time>
            <Position>
              <LatitudeDegrees>38.55906707234680652618408203125</LatitudeDegrees>
              <LongitudeDegrees>-28.64207684062421321868896484375</LongitudeDegrees>
            </Position>
            <AltitudeMeters>244.600006103515625</AltitudeMeters>
            <DistanceMeters>37161.090881354</DistanceMeters>
          </Trackpoint>
          <Trackpoint>
            <Time>2020-04-26T18:04:25.000Z</Time>
            <Position>
              <LatitudeDegrees>38.559093810617923736572265625</LatitudeDegrees>
              <LongitudeDegrees>-28.6421629227697849273681640625</LongitudeDegrees>
            </Position>
            <AltitudeMeters>244.8000030517578125</AltitudeMeters>
            <DistanceMeters>37169.152485424</DistanceMeters>
          </Trackpoint>
          <Trackpoint>
            <Time>2020-04-26T18:04:28.000Z</Time>
            <Position>
              <LatitudeDegrees>38.55913748033344745635986328125</LatitudeDegrees>
              <LongitudeDegrees>-28.64228974096477031707763671875</LongitudeDegrees>
            </Position>
            <AltitudeMeters>245.600006103515625</AltitudeMeters>
            <DistanceMeters>37181.21264468</DistanceMeters>
          </Trackpoint>
          <Trackpoint>
            <Time>2020-04-26T18:04:32.000Z</Time>
            <Position>
              <LatitudeDegrees>38.55919548310339450836181640625</LatitudeDegrees>
              <LongitudeDegrees>-28.64245402626693248748779296875</LongitudeDegrees>
            </Position>
            <AltitudeMeters>246.399993896484375</AltitudeMeters>
            <DistanceMeters>37196.900688964</DistanceMeters>
          </Trackpoint>
          <Trackpoint>
            <Time>2020-04-26T18:04:33.000Z</Time>
            <Position>
              <LatitudeDegrees>38.55921140871942043304443359375</LatitudeDegrees>
              <LongitudeDegrees>-28.64249157719314098358154296875</LongitudeDegrees>
            </Position>
            <AltitudeMeters>246.600006103515625</AltitudeMeters>
            <DistanceMeters>37200.618893778</DistanceMeters>
          </Trackpoint>
          <Trackpoint>
            <Time>2020-04-26T18:04:41.000Z</Time>
            <Position>
              <LatitudeDegrees>38.5593561641871929168701171875</LatitudeDegrees>
              <LongitudeDegrees>-28.64280455745756626129150390625</LongitudeDegrees>
            </Position>
            <AltitudeMeters>248</AltitudeMeters>
            <DistanceMeters>37232.266784528</DistanceMeters>
          </Trackpoint>
          <Trackpoint>
            <Time>2020-04-26T18:04:42.000Z</Time>
            <Position>
              <LatitudeDegrees>38.55937552638351917266845703125</LatitudeDegrees>
              <LongitudeDegrees>-28.6428458802402019500732421875</LongitudeDegrees>
            </Position>
            <AltitudeMeters>248.1999969482421875</AltitudeMeters>
            <DistanceMeters>37236.460898131</DistanceMeters>
          </Trackpoint>
          <Trackpoint>
            <Time>2020-04-26T18:04:48.000Z</Time>
            <Position>
              <LatitudeDegrees>38.55947728268802165985107421875</LatitudeDegrees>
              <LongitudeDegrees>-28.643089123070240020751953125</LongitudeDegrees>
            </Position>
            <AltitudeMeters>249</AltitudeMeters>
            <DistanceMeters>37260.470521619</DistanceMeters>
          </Trackpoint>
          <Trackpoint>
            <Time>2020-04-26T18:04:49.000Z</Time>
            <Position>
              <LatitudeDegrees>38.5594929568469524383544921875</LatitudeDegrees>
              <LongitudeDegrees>-28.64313329569995403289794921875</LongitudeDegrees>
            </Position>
            <AltitudeMeters>249.399993896484375</AltitudeMeters>
            <DistanceMeters>37264.69253191</DistanceMeters>
          </Trackpoint>
          <Trackpoint>
            <Time>2020-04-26T18:04:53.000Z</Time>
            <Position>
              <LatitudeDegrees>38.55956814251840114593505859375</LatitudeDegrees>
              <LongitudeDegrees>-28.64328903146088123321533203125</LongitudeDegrees>
            </Position>
            <AltitudeMeters>250.1999969482421875</AltitudeMeters>
            <DistanceMeters>37280.621911938</DistanceMeters>
          </Trackpoint>
          <Trackpoint>
            <Time>2020-04-26T18:04:56.000Z</Time>
            <Position>
              <LatitudeDegrees>38.55961943976581096649169921875</LatitudeDegrees>
              <LongitudeDegrees>-28.6434052884578704833984375</LongitudeDegrees>
            </Position>
            <AltitudeMeters>250.8000030517578125</AltitudeMeters>
            <DistanceMeters>37292.240069395</DistanceMeters>
          </Trackpoint>
          <Trackpoint>
            <Time>2020-04-26T18:04:59.000Z</Time>
            <Position>
              <LatitudeDegrees>38.55966755189001560211181640625</LatitudeDegrees>
              <LongitudeDegrees>-28.6435244791209697723388671875</LongitudeDegrees>
            </Position>
            <AltitudeMeters>251.399993896484375</AltitudeMeters>
            <DistanceMeters>37303.914053877</DistanceMeters>
          </Trackpoint>
          <Trackpoint>
            <Time>2020-04-26T18:05:02.000Z</Time>
            <Position>
              <LatitudeDegrees>38.559712730348110198974609375</LatitudeDegrees>
              <LongitudeDegrees>-28.64363956265151500701904296875</LongitudeDegrees>
            </Position>
            <AltitudeMeters>252.1999969482421875</AltitudeMeters>
            <DistanceMeters>37315.121567577</DistanceMeters>
          </Trackpoint>
          <Trackpoint>
            <Time>2020-04-26T18:05:04.000Z</Time>
            <Position>
              <LatitudeDegrees>38.55973561294376850128173828125</LatitudeDegrees>
              <LongitudeDegrees>-28.643724806606769561767578125</LongitudeDegrees>
            </Position>
            <AltitudeMeters>252.600006103515625</AltitudeMeters>
            <DistanceMeters>37322.965733619</DistanceMeters>
          </Trackpoint>
          <Trackpoint>
            <Time>2020-04-26T18:05:09.000Z</Time>
            <Position>
              <LatitudeDegrees>38.55975070036947727203369140625</LatitudeDegrees>
              <LongitudeDegrees>-28.64392764866352081298828125</LongitudeDegrees>
            </Position>
            <AltitudeMeters>253.600006103515625</AltitudeMeters>
            <DistanceMeters>37340.699358241</DistanceMeters>
          </Trackpoint>
          <Trackpoint>
            <Time>2020-04-26T18:05:10.000Z</Time>
            <Position>
              <LatitudeDegrees>38.55974868871271610260009765625</LatitudeDegrees>
              <LongitudeDegrees>-28.6439697258174419403076171875</LongitudeDegrees>
            </Position>
            <AltitudeMeters>253.8000030517578125</AltitudeMeters>
            <DistanceMeters>37344.367438652</DistanceMeters>
          </Trackpoint>
          <Trackpoint>
            <Time>2020-04-26T18:05:15.000Z</Time>
            <Position>
              <LatitudeDegrees>38.55970166623592376708984375</LatitudeDegrees>
              <LongitudeDegrees>-28.6441792733967304229736328125</LongitudeDegrees>
            </Position>
            <AltitudeMeters>254.600006103515625</AltitudeMeters>
            <DistanceMeters>37363.341158835</DistanceMeters>
          </Trackpoint>
          <Trackpoint>
            <Time>2020-04-26T18:05:16.000Z</Time>
            <Position>
              <LatitudeDegrees>38.55968825519084930419921875</LatitudeDegrees>
              <LongitudeDegrees>-28.644219674170017242431640625</LongitudeDegrees>
            </Position>
            <AltitudeMeters>254.8000030517578125</AltitudeMeters>
            <DistanceMeters>37367.161185475</DistanceMeters>
          </Trackpoint>
          <Trackpoint>
            <Time>2020-04-26T18:05:22.000Z</Time>
            <Position>
              <LatitudeDegrees>38.55957216583192348480224609375</LatitudeDegrees>
              <LongitudeDegrees>-28.644417822360992431640625</LongitudeDegrees>
            </Position>
            <AltitudeMeters>255.399993896484375</AltitudeMeters>
            <DistanceMeters>37388.710260886</DistanceMeters>
          </Trackpoint>
          <Trackpoint>
            <Time>2020-04-26T18:05:25.000Z</Time>
            <Position>
              <LatitudeDegrees>38.55950058437883853912353515625</LatitudeDegrees>
              <LongitudeDegrees>-28.64450239576399326324462890625</LongitudeDegrees>
            </Position>
            <AltitudeMeters>256</AltitudeMeters>
            <DistanceMeters>37399.556635207</DistanceMeters>
          </Trackpoint>
          <Trackpoint>
            <Time>2020-04-26T18:05:30.000Z</Time>
            <Position>
              <LatitudeDegrees>38.5593789629638195037841796875</LatitudeDegrees>
              <LongitudeDegrees>-28.644650839269161224365234375</LongitudeDegrees>
            </Position>
            <AltitudeMeters>257</AltitudeMeters>
            <DistanceMeters>37418.269419723</DistanceMeters>
          </Trackpoint>
          <Trackpoint>
            <Time>2020-04-26T18:05:32.000Z</Time>
            <Position>
              <LatitudeDegrees>38.55934149585664272308349609375</LatitudeDegrees>
              <LongitudeDegrees>-28.6447150446474552154541015625</LongitudeDegrees>
            </Position>
            <AltitudeMeters>257.399993896484375</AltitudeMeters>
            <DistanceMeters>37425.242075714</DistanceMeters>
          </Trackpoint>
          <Trackpoint>
            <Time>2020-04-26T18:05:36.000Z</Time>
            <Position>
              <LatitudeDegrees>38.559270165860652923583984375</LatitudeDegrees>
              <LongitudeDegrees>-28.64485837519168853759765625</LongitudeDegrees>
            </Position>
            <AltitudeMeters>258.20001220703125</AltitudeMeters>
            <DistanceMeters>37440.028733245</DistanceMeters>
          </Trackpoint>
          <Trackpoint>
            <Time>2020-04-26T18:05:39.000Z</Time>
            <Position>
              <LatitudeDegrees>38.5592260770499706268310546875</LatitudeDegrees>
              <LongitudeDegrees>-28.644972033798694610595703125</LongitudeDegrees>
            </Position>
            <AltitudeMeters>258.600006103515625</AltitudeMeters>
            <DistanceMeters>37451.070657541</DistanceMeters>
          </Trackpoint>
          <Trackpoint>
            <Time>2020-04-26T18:05:43.000Z</Time>
            <Position>
              <LatitudeDegrees>38.55916279368102550506591796875</LatitudeDegrees>
              <LongitudeDegrees>-28.6451163701713085174560546875</LongitudeDegrees>
            </Position>
            <AltitudeMeters>259.399993896484375</AltitudeMeters>
            <DistanceMeters>37465.472770438</DistanceMeters>
          </Trackpoint>
          <Trackpoint>
            <Time>2020-04-26T18:05:46.000Z</Time>
            <Position>
              <LatitudeDegrees>38.55910864658653736114501953125</LatitudeDegrees>
              <LongitudeDegrees>-28.6452213115990161895751953125</LongitudeDegrees>
            </Position>
            <AltitudeMeters>260</AltitudeMeters>
            <DistanceMeters>37476.415293623</DistanceMeters>
          </Trackpoint>
          <Trackpoint>
            <Time>2020-04-26T18:05:49.000Z</Time>
            <Position>
              <LatitudeDegrees>38.55905701406300067901611328125</LatitudeDegrees>
              <LongitudeDegrees>-28.6453275941312313079833984375</LongitudeDegrees>
            </Position>
            <AltitudeMeters>260.600006103515625</AltitudeMeters>
            <DistanceMeters>37487.305288753</DistanceMeters>
          </Trackpoint>
          <Trackpoint>
            <Time>2020-04-26T18:05:54.000Z</Time>
            <Position>
              <LatitudeDegrees>38.5589407570660114288330078125</LatitudeDegrees>
              <LongitudeDegrees>-28.6455099843442440032958984375</LongitudeDegrees>
            </Position>
            <AltitudeMeters>261.399993896484375</AltitudeMeters>
            <DistanceMeters>37507.785254346</DistanceMeters>
          </Trackpoint>
          <Trackpoint>
            <Time>2020-04-26T18:05:56.000Z</Time>
            <Position>
              <LatitudeDegrees>38.55890773236751556396484375</LatitudeDegrees>
              <LongitudeDegrees>-28.64559958688914775848388671875</LongitudeDegrees>
            </Position>
            <AltitudeMeters>261.600006103515625</AltitudeMeters>
            <DistanceMeters>37516.407063279</DistanceMeters>
          </Trackpoint>
          <Trackpoint>
            <Time>2020-04-26T18:06:00.000Z</Time>
            <Position>
              <LatitudeDegrees>38.55887353420257568359375</LatitudeDegrees>
              <LongitudeDegrees>-28.64579320885241031646728515625</LongitudeDegrees>
            </Position>
            <AltitudeMeters>262</AltitudeMeters>
            <DistanceMeters>37533.683641262</DistanceMeters>
          </Trackpoint>
          <Trackpoint>
            <Time>2020-04-26T18:06:07.000Z</Time>
            <Position>
              <LatitudeDegrees>38.55887529440224170684814453125</LatitudeDegrees>
              <LongitudeDegrees>-28.6461317539215087890625</LongitudeDegrees>
            </Position>
            <AltitudeMeters>262.79998779296875</AltitudeMeters>
            <DistanceMeters>37563.149431935</DistanceMeters>
          </Trackpoint>
          <Trackpoint>
            <Time>2020-04-26T18:06:12.000Z</Time>
            <Position>
              <LatitudeDegrees>38.55892441235482692718505859375</LatitudeDegrees>
              <LongitudeDegrees>-28.646396286785602569580078125</LongitudeDegrees>
            </Position>
            <AltitudeMeters>263.600006103515625</AltitudeMeters>
            <DistanceMeters>37586.813182704</DistanceMeters>
          </Trackpoint>
          <Trackpoint>
            <Time>2020-04-26T18:06:13.000Z</Time>
            <Position>
              <LatitudeDegrees>38.5589365661144256591796875</LatitudeDegrees>
              <LongitudeDegrees>-28.6464551277458667755126953125</LongitudeDegrees>
            </Position>
            <AltitudeMeters>263.79998779296875</AltitudeMeters>
            <DistanceMeters>37592.110016429</DistanceMeters>
          </Trackpoint>
          <Trackpoint>
            <Time>2020-04-26T18:06:14.000Z</Time>
            <Position>
              <LatitudeDegrees>38.5589441098272800445556640625</LatitudeDegrees>
              <LongitudeDegrees>-28.6465097777545452117919921875</LongitudeDegrees>
            </Position>
            <AltitudeMeters>264.20001220703125</AltitudeMeters>
            <DistanceMeters>37596.938645363</DistanceMeters>
          </Trackpoint>
          <Trackpoint>
            <Time>2020-04-26T18:06:17.000Z</Time>
            <Position>
              <LatitudeDegrees>38.558975793421268463134765625</LatitudeDegrees>
              <LongitudeDegrees>-28.6466854624450206756591796875</LongitudeDegrees>
            </Position>
            <AltitudeMeters>265</AltitudeMeters>
            <DistanceMeters>37612.630430617</DistanceMeters>
          </Trackpoint>
          <Trackpoint>
            <Time>2020-04-26T18:06:18.000Z</Time>
            <Position>
              <LatitudeDegrees>38.5589883662760257720947265625</LatitudeDegrees>
              <LongitudeDegrees>-28.646745644509792327880859375</LongitudeDegrees>
            </Position>
            <AltitudeMeters>265.20001220703125</AltitudeMeters>
            <DistanceMeters>37618.051952435</DistanceMeters>
          </Trackpoint>
          <Trackpoint>
            <Time>2020-04-26T18:06:21.000Z</Time>
            <Position>
              <LatitudeDegrees>38.559021390974521636962890625</LatitudeDegrees>
              <LongitudeDegrees>-28.64692795090377330780029296875</LongitudeDegrees>
            </Position>
            <AltitudeMeters>266</AltitudeMeters>
            <DistanceMeters>37634.338987943</DistanceMeters>
          </Trackpoint>
          <Trackpoint>
            <Time>2020-04-26T18:06:25.000Z</Time>
            <Position>
              <LatitudeDegrees>38.559056259691715240478515625</LatitudeDegrees>
              <LongitudeDegrees>-28.64719047211110591888427734375</LongitudeDegrees>
            </Position>
            <AltitudeMeters>267</AltitudeMeters>
            <DistanceMeters>37657.514598979</DistanceMeters>
          </Trackpoint>
          <Trackpoint>
            <Time>2020-04-26T18:06:26.000Z</Time>
            <Position>
              <LatitudeDegrees>38.55906221084296703338623046875</LatitudeDegrees>
              <LongitudeDegrees>-28.6472574435174465179443359375</LongitudeDegrees>
            </Position>
            <AltitudeMeters>267.600006103515625</AltitudeMeters>
            <DistanceMeters>37663.380141686</DistanceMeters>
          </Trackpoint>
          <Trackpoint>
            <Time>2020-04-26T18:06:28.000Z</Time>
            <Position>
              <LatitudeDegrees>38.55907612480223178863525390625</LatitudeDegrees>
              <LongitudeDegrees>-28.6473747901618480682373046875</LongitudeDegrees>
            </Position>
            <AltitudeMeters>268.79998779296875</AltitudeMeters>
            <DistanceMeters>37673.71011813</DistanceMeters>
          </Trackpoint>
          <Trackpoint>
            <Time>2020-04-26T18:06:31.000Z</Time>
            <Position>
              <LatitudeDegrees>38.5590819083154201507568359375</LatitudeDegrees>
              <LongitudeDegrees>-28.647547625005245208740234375</LongitudeDegrees>
            </Position>
            <AltitudeMeters>269.79998779296875</AltitudeMeters>
            <DistanceMeters>37688.766080702</DistanceMeters>
          </Trackpoint>
          <Trackpoint>
            <Time>2020-04-26T18:06:32.000Z</Time>
            <Position>
              <LatitudeDegrees>38.55908065102994441986083984375</LatitudeDegrees>
              <LongitudeDegrees>-28.6476056277751922607421875</LongitudeDegrees>
            </Position>
            <AltitudeMeters>270.20001220703125</AltitudeMeters>
            <DistanceMeters>37693.815925836</DistanceMeters>
          </Trackpoint>
          <Trackpoint>
            <Time>2020-04-26T18:06:36.000Z</Time>
            <Position>
              <LatitudeDegrees>38.55905768461525440216064453125</LatitudeDegrees>
              <LongitudeDegrees>-28.64783554337918758392333984375</LongitudeDegrees>
            </Position>
            <AltitudeMeters>270.79998779296875</AltitudeMeters>
            <DistanceMeters>37713.988913345</DistanceMeters>
          </Trackpoint>
          <Trackpoint>
            <Time>2020-04-26T18:06:37.000Z</Time>
            <Position>
              <LatitudeDegrees>38.559045530855655670166015625</LatitudeDegrees>
              <LongitudeDegrees>-28.64789103157818317413330078125</LongitudeDegrees>
            </Position>
            <AltitudeMeters>271.20001220703125</AltitudeMeters>
            <DistanceMeters>37719.002867156</DistanceMeters>
          </Trackpoint>
          <Trackpoint>
            <Time>2020-04-26T18:06:38.000Z</Time>
            <Position>
              <LatitudeDegrees>38.55902977287769317626953125</LatitudeDegrees>
              <LongitudeDegrees>-28.6479444243013858795166015625</LongitudeDegrees>
            </Position>
            <AltitudeMeters>271.399993896484375</AltitudeMeters>
            <DistanceMeters>37723.969774528</DistanceMeters>
          </Trackpoint>
          <Trackpoint>
            <Time>2020-04-26T18:06:41.000Z</Time>
            <Position>
              <LatitudeDegrees>38.558967076241970062255859375</LatitudeDegrees>
              <LongitudeDegrees>-28.64809982478618621826171875</LongitudeDegrees>
            </Position>
            <AltitudeMeters>272.20001220703125</AltitudeMeters>
            <DistanceMeters>37739.188889509</DistanceMeters>
          </Trackpoint>
          <Trackpoint>
            <Time>2020-04-26T18:06:44.000Z</Time>
            <Position>
              <LatitudeDegrees>38.55891938321292400360107421875</LatitudeDegrees>
              <LongitudeDegrees>-28.6482367850840091705322265625</LongitudeDegrees>
            </Position>
            <AltitudeMeters>272.600006103515625</AltitudeMeters>
            <DistanceMeters>37752.237687209</DistanceMeters>
          </Trackpoint>
          <Trackpoint>
            <Time>2020-04-26T18:06:47.000Z</Time>
            <Position>
              <LatitudeDegrees>38.5588720254600048065185546875</LatitudeDegrees>
              <LongitudeDegrees>-28.6483688838779926300048828125</LongitudeDegrees>
            </Position>
            <AltitudeMeters>273.20001220703125</AltitudeMeters>
            <DistanceMeters>37764.885882111</DistanceMeters>
          </Trackpoint>
          <Trackpoint>
            <Time>2020-04-26T18:06:49.000Z</Time>
            <Position>
              <LatitudeDegrees>38.55883791111409664154052734375</LatitudeDegrees>
              <LongitudeDegrees>-28.64847055636346340179443359375</LongitudeDegrees>
            </Position>
            <AltitudeMeters>273.600006103515625</AltitudeMeters>
            <DistanceMeters>37774.51504744</DistanceMeters>
          </Trackpoint>
          <Trackpoint>
            <Time>2020-04-26T18:06:52.000Z</Time>
            <Position>
              <LatitudeDegrees>38.55879097245633602142333984375</LatitudeDegrees>
              <LongitudeDegrees>-28.6486290581524372100830078125</LongitudeDegrees>
            </Position>
            <AltitudeMeters>274.399993896484375</AltitudeMeters>
            <DistanceMeters>37789.265936294</DistanceMeters>
          </Trackpoint>
          <Trackpoint>
            <Time>2020-04-26T18:06:55.000Z</Time>
            <Position>
              <LatitudeDegrees>38.55878225527703762054443359375</LatitudeDegrees>
              <LongitudeDegrees>-28.64879786968231201171875</LongitudeDegrees>
            </Position>
            <AltitudeMeters>275</AltitudeMeters>
            <DistanceMeters>37803.990478237</DistanceMeters>
          </Trackpoint>
          <Trackpoint>
            <Time>2020-04-26T18:06:56.000Z</Time>
            <Position>
              <LatitudeDegrees>38.55878879316151142120361328125</LatitudeDegrees>
              <LongitudeDegrees>-28.64885159768164157867431640625</LongitudeDegrees>
            </Position>
            <AltitudeMeters>275.600006103515625</AltitudeMeters>
            <DistanceMeters>37808.721816262</DistanceMeters>
          </Trackpoint>
          <Trackpoint>
            <Time>2020-04-26T18:07:00.000Z</Time>
            <Position>
              <LatitudeDegrees>38.55886255390942096710205078125</LatitudeDegrees>
              <LongitudeDegrees>-28.6490220017731189727783203125</LongitudeDegrees>
            </Position>
            <AltitudeMeters>277</AltitudeMeters>
            <DistanceMeters>37825.673367595</DistanceMeters>
          </Trackpoint>
          <Trackpoint>
            <Time>2020-04-26T18:07:01.000Z</Time>
            <Position>
              <LatitudeDegrees>38.55888535268604755401611328125</LatitudeDegrees>
              <LongitudeDegrees>-28.64905226044356822967529296875</LongitudeDegrees>
            </Position>
            <AltitudeMeters>277.20001220703125</AltitudeMeters>
            <DistanceMeters>37829.330353131</DistanceMeters>
          </Trackpoint>
          <Trackpoint>
            <Time>2020-04-26T18:07:06.000Z</Time>
            <Position>
              <LatitudeDegrees>38.5589997656643390655517578125</LatitudeDegrees>
              <LongitudeDegrees>-28.6491725407540798187255859375</LongitudeDegrees>
            </Position>
            <AltitudeMeters>278</AltitudeMeters>
            <DistanceMeters>37845.815228639</DistanceMeters>
          </Trackpoint>
          <Trackpoint>
            <Time>2020-04-26T18:07:07.000Z</Time>
            <Position>
              <LatitudeDegrees>38.5590245760977268218994140625</LatitudeDegrees>
              <LongitudeDegrees>-28.6491980217397212982177734375</LongitudeDegrees>
            </Position>
            <AltitudeMeters>278</AltitudeMeters>
            <DistanceMeters>37849.35808148</DistanceMeters>
          </Trackpoint>
          <Trackpoint>
            <Time>2020-04-26T18:07:12.000Z</Time>
            <Position>
              <LatitudeDegrees>38.559148125350475311279296875</LatitudeDegrees>
              <LongitudeDegrees>-28.64930212497711181640625</LongitudeDegrees>
            </Position>
            <AltitudeMeters>279</AltitudeMeters>
            <DistanceMeters>37865.825967069</DistanceMeters>
          </Trackpoint>
          <Trackpoint>
            <Time>2020-04-26T18:07:18.000Z</Time>
            <Position>
              <LatitudeDegrees>38.55931383557617664337158203125</LatitudeDegrees>
              <LongitudeDegrees>-28.6494441144168376922607421875</LongitudeDegrees>
            </Position>
            <AltitudeMeters>280.20001220703125</AltitudeMeters>
            <DistanceMeters>37888.027266414</DistanceMeters>
          </Trackpoint>
          <Trackpoint>
            <Time>2020-04-26T18:07:19.000Z</Time>
            <Position>
              <LatitudeDegrees>38.5593424178659915924072265625</LatitudeDegrees>
              <LongitudeDegrees>-28.649472780525684356689453125</LongitudeDegrees>
            </Position>
            <AltitudeMeters>280.20001220703125</AltitudeMeters>
            <DistanceMeters>37892.070091957</DistanceMeters>
          </Trackpoint>
          <Trackpoint>
            <Time>2020-04-26T18:07:23.000Z</Time>
            <Position>
              <LatitudeDegrees>38.5594621114432811737060546875</LatitudeDegrees>
              <LongitudeDegrees>-28.64957814104855060577392578125</LongitudeDegrees>
            </Position>
            <AltitudeMeters>281.20001220703125</AltitudeMeters>
            <DistanceMeters>37908.243348411</DistanceMeters>
          </Trackpoint>
          <Trackpoint>
            <Time>2020-04-26T18:07:27.000Z</Time>
            <Position>
              <LatitudeDegrees>38.559596054255962371826171875</LatitudeDegrees>
              <LongitudeDegrees>-28.64965642802417278289794921875</LongitudeDegrees>
            </Position>
            <AltitudeMeters>281.79998779296875</AltitudeMeters>
            <DistanceMeters>37924.634561437</DistanceMeters>
          </Trackpoint>
          <Trackpoint>
            <Time>2020-04-26T18:07:31.000Z</Time>
            <Position>
              <LatitudeDegrees>38.5597273148596286773681640625</LatitudeDegrees>
              <LongitudeDegrees>-28.64976346492767333984375</LongitudeDegrees>
            </Position>
            <AltitudeMeters>282.20001220703125</AltitudeMeters>
            <DistanceMeters>37941.961243792</DistanceMeters>
          </Trackpoint>
          <Trackpoint>
            <Time>2020-04-26T18:07:33.000Z</Time>
            <Position>
              <LatitudeDegrees>38.5597913525998592376708984375</LatitudeDegrees>
              <LongitudeDegrees>-28.64982272498309612274169921875</LongitudeDegrees>
            </Position>
            <AltitudeMeters>282.79998779296875</AltitudeMeters>
            <DistanceMeters>37950.759301264</DistanceMeters>
          </Trackpoint>
          <Trackpoint>
            <Time>2020-04-26T18:07:36.000Z</Time>
            <Position>
              <LatitudeDegrees>38.55987475253641605377197265625</LatitudeDegrees>
              <LongitudeDegrees>-28.6499176919460296630859375</LongitudeDegrees>
            </Position>
            <AltitudeMeters>283.399993896484375</AltitudeMeters>
            <DistanceMeters>37963.18856302</DistanceMeters>
          </Trackpoint>
          <Trackpoint>
            <Time>2020-04-26T18:07:40.000Z</Time>
            <Position>
              <LatitudeDegrees>38.5599610023200511932373046875</LatitudeDegrees>
              <LongitudeDegrees>-28.650068230926990509033203125</LongitudeDegrees>
            </Position>
            <AltitudeMeters>284</AltitudeMeters>
            <DistanceMeters>37979.431183295</DistanceMeters>
          </Trackpoint>
          <Trackpoint>
            <Time>2020-04-26T18:07:43.000Z</Time>
            <Position>
              <LatitudeDegrees>38.560009784996509552001953125</LatitudeDegrees>
              <LongitudeDegrees>-28.650203011929988861083984375</LongitudeDegrees>
            </Position>
            <AltitudeMeters>284.399993896484375</AltitudeMeters>
            <DistanceMeters>37992.357261758</DistanceMeters>
          </Trackpoint>
          <Trackpoint>
            <Time>2020-04-26T18:07:47.000Z</Time>
            <Position>
              <LatitudeDegrees>38.5600662790238857269287109375</LatitudeDegrees>
              <LongitudeDegrees>-28.6503781937062740325927734375</LongitudeDegrees>
            </Position>
            <AltitudeMeters>285</AltitudeMeters>
            <DistanceMeters>38008.849530631</DistanceMeters>
          </Trackpoint>
          <Trackpoint>
            <Time>2020-04-26T18:07:53.000Z</Time>
            <Position>
              <LatitudeDegrees>38.56013962067663669586181640625</LatitudeDegrees>
              <LongitudeDegrees>-28.65066560916602611541748046875</LongitudeDegrees>
            </Position>
            <AltitudeMeters>285.600006103515625</AltitudeMeters>
            <DistanceMeters>38035.16249476</DistanceMeters>
          </Trackpoint>
          <Trackpoint>
            <Time>2020-04-26T18:07:57.000Z</Time>
            <Position>
              <LatitudeDegrees>38.56018974445760250091552734375</LatitudeDegrees>
              <LongitudeDegrees>-28.6508529447019100189208984375</LongitudeDegrees>
            </Position>
            <AltitudeMeters>286.20001220703125</AltitudeMeters>
            <DistanceMeters>38052.395111913</DistanceMeters>
          </Trackpoint>
          <Trackpoint>
            <Time>2020-04-26T18:07:59.000Z</Time>
            <Position>
              <LatitudeDegrees>38.56021103449165821075439453125</LatitudeDegrees>
              <LongitudeDegrees>-28.650944642722606658935546875</LongitudeDegrees>
            </Position>
            <AltitudeMeters>286.600006103515625</AltitudeMeters>
            <DistanceMeters>38060.720124628</DistanceMeters>
          </Trackpoint>
          <Trackpoint>
            <Time>2020-04-26T18:08:03.000Z</Time>
            <Position>
              <LatitudeDegrees>38.56022612191736698150634765625</LatitudeDegrees>
              <LongitudeDegrees>-28.65113516338169574737548828125</LongitudeDegrees>
            </Position>
            <AltitudeMeters>287.20001220703125</AltitudeMeters>
            <DistanceMeters>38077.3864125</DistanceMeters>
          </Trackpoint>
          <Trackpoint>
            <Time>2020-04-26T18:08:04.000Z</Time>
            <Position>
              <LatitudeDegrees>38.56023198924958705902099609375</LatitudeDegrees>
              <LongitudeDegrees>-28.65118176676332950592041015625</LongitudeDegrees>
            </Position>
            <AltitudeMeters>287.600006103515625</AltitudeMeters>
            <DistanceMeters>38081.495699901</DistanceMeters>
          </Trackpoint>
          <Trackpoint>
            <Time>2020-04-26T18:08:10.000Z</Time>
            <Position>
              <LatitudeDegrees>38.56027607806026935577392578125</LatitudeDegrees>
              <LongitudeDegrees>-28.65145283751189708709716796875</LongitudeDegrees>
            </Position>
            <AltitudeMeters>289</AltitudeMeters>
            <DistanceMeters>38105.592795902</DistanceMeters>
          </Trackpoint>
          <Trackpoint>
            <Time>2020-04-26T18:08:13.000Z</Time>
            <Position>
              <LatitudeDegrees>38.5603127069771289825439453125</LatitudeDegrees>
              <LongitudeDegrees>-28.6515771411359310150146484375</LongitudeDegrees>
            </Position>
            <AltitudeMeters>289.399993896484375</AltitudeMeters>
            <DistanceMeters>38117.154075741</DistanceMeters>
          </Trackpoint>
          <Trackpoint>
            <Time>2020-04-26T18:08:16.000Z</Time>
            <Position>
              <LatitudeDegrees>38.5603455640375614166259765625</LatitudeDegrees>
              <LongitudeDegrees>-28.65170597098767757415771484375</LongitudeDegrees>
            </Position>
            <AltitudeMeters>290</AltitudeMeters>
            <DistanceMeters>38128.948112266</DistanceMeters>
          </Trackpoint>
          <Trackpoint>
            <Time>2020-04-26T18:08:21.000Z</Time>
            <Position>
              <LatitudeDegrees>38.5603881441056728363037109375</LatitudeDegrees>
              <LongitudeDegrees>-28.65191685967147350311279296875</LongitudeDegrees>
            </Position>
            <AltitudeMeters>290.399993896484375</AltitudeMeters>
            <DistanceMeters>38147.90445321</DistanceMeters>
          </Trackpoint>
          <Trackpoint>
            <Time>2020-04-26T18:08:23.000Z</Time>
            <Position>
              <LatitudeDegrees>38.5603894852101802825927734375</LatitudeDegrees>
              <LongitudeDegrees>-28.651986010372638702392578125</LongitudeDegrees>
            </Position>
            <AltitudeMeters>290.600006103515625</AltitudeMeters>
            <DistanceMeters>38153.924978673</DistanceMeters>
          </Trackpoint>
          <Trackpoint>
            <Time>2020-04-26T18:08:25.000Z</Time>
            <Position>
              <LatitudeDegrees>38.56035604141652584075927734375</LatitudeDegrees>
              <LongitudeDegrees>-28.651967905461788177490234375</LongitudeDegrees>
            </Position>
            <AltitudeMeters>290.79998779296875</AltitudeMeters>
            <DistanceMeters>38157.967804215</DistanceMeters>
          </Trackpoint>
          <Trackpoint>
            <Time>2020-04-26T18:08:28.000Z</Time>
            <Position>
              <LatitudeDegrees>38.5603733919560909271240234375</LatitudeDegrees>
              <LongitudeDegrees>-28.651917614042758941650390625</LongitudeDegrees>
            </Position>
            <AltitudeMeters>290.79998779296875</AltitudeMeters>
            <DistanceMeters>38162.752283684</DistanceMeters>
          </Trackpoint>
          <Trackpoint>
            <Time>2020-04-26T18:08:29.000Z</Time>
            <Position>
              <LatitudeDegrees>38.56037682853639125823974609375</LatitudeDegrees>
              <LongitudeDegrees>-28.6519427597522735595703125</LongitudeDegrees>
            </Position>
            <AltitudeMeters>290.600006103515625</AltitudeMeters>
            <DistanceMeters>38164.972738983</DistanceMeters>
          </Trackpoint>
          <Trackpoint>
            <Time>2020-04-26T18:08:30.000Z</Time>
            <Position>
              <LatitudeDegrees>38.56038034893572330474853515625</LatitudeDegrees>
              <LongitudeDegrees>-28.6519747786223888397216796875</LongitudeDegrees>
            </Position>
            <AltitudeMeters>290.79998779296875</AltitudeMeters>
            <DistanceMeters>38167.786877758</DistanceMeters>
          </Trackpoint>
          <Trackpoint>
            <Time>2020-04-26T18:08:31.000Z</Time>
            <Position>
              <LatitudeDegrees>38.5603888146579265594482421875</LatitudeDegrees>
              <LongitudeDegrees>-28.6520109884440898895263671875</LongitudeDegrees>
            </Position>
            <AltitudeMeters>291</AltitudeMeters>
            <DistanceMeters>38171.075955376</DistanceMeters>
          </Trackpoint>
          <Trackpoint>
            <Time>2020-04-26T18:08:34.000Z</Time>
            <Position>
              <LatitudeDegrees>38.56041035614907741546630859375</LatitudeDegrees>
              <LongitudeDegrees>-28.652136214077472686767578125</LongitudeDegrees>
            </Position>
            <AltitudeMeters>291.399993896484375</AltitudeMeters>
            <DistanceMeters>38182.235021384</DistanceMeters>
          </Trackpoint>
          <Trackpoint>
            <Time>2020-04-26T18:08:37.000Z</Time>
            <Position>
              <LatitudeDegrees>38.56042074970901012420654296875</LatitudeDegrees>
              <LongitudeDegrees>-28.652266971766948699951171875</LongitudeDegrees>
            </Position>
            <AltitudeMeters>292</AltitudeMeters>
            <DistanceMeters>38193.67380662</DistanceMeters>
          </Trackpoint>
          <Trackpoint>
            <Time>2020-04-26T18:08:42.000Z</Time>
            <Position>
              <LatitudeDegrees>38.560441620647907257080078125</LatitudeDegrees>
              <LongitudeDegrees>-28.65247392095625400543212890625</LongitudeDegrees>
            </Position>
            <AltitudeMeters>292.79998779296875</AltitudeMeters>
            <DistanceMeters>38211.834602639</DistanceMeters>
          </Trackpoint>
          <Trackpoint>
            <Time>2020-04-26T18:08:44.000Z</Time>
            <Position>
              <LatitudeDegrees>38.56045377440750598907470703125</LatitudeDegrees>
              <LongitudeDegrees>-28.6525581590831279754638671875</LongitudeDegrees>
            </Position>
            <AltitudeMeters>293.20001220703125</AltitudeMeters>
            <DistanceMeters>38219.289810249</DistanceMeters>
          </Trackpoint>
          <Trackpoint>
            <Time>2020-04-26T18:08:49.000Z</Time>
            <Position>
              <LatitudeDegrees>38.5604922473430633544921875</LatitudeDegrees>
              <LongitudeDegrees>-28.65277131088078022003173828125</LongitudeDegrees>
            </Position>
            <AltitudeMeters>293.79998779296875</AltitudeMeters>
            <DistanceMeters>38238.328620572</DistanceMeters>
          </Trackpoint>
          <Trackpoint>
            <Time>2020-04-26T18:08:51.000Z</Time>
            <Position>
              <LatitudeDegrees>38.56051093898713588714599609375</LatitudeDegrees>
              <LongitudeDegrees>-28.65285295061767101287841796875</LongitudeDegrees>
            </Position>
            <AltitudeMeters>294.20001220703125</AltitudeMeters>
            <DistanceMeters>38245.732171343</DistanceMeters>
          </Trackpoint>
          <Trackpoint>
            <Time>2020-04-26T18:08:55.000Z</Time>
            <Position>
              <LatitudeDegrees>38.56055703945457935333251953125</LatitudeDegrees>
              <LongitudeDegrees>-28.6530183255672454833984375</LongitudeDegrees>
            </Position>
            <AltitudeMeters>295.20001220703125</AltitudeMeters>
            <DistanceMeters>38261.012573387</DistanceMeters>
          </Trackpoint>
          <Trackpoint>
            <Time>2020-04-26T18:08:58.000Z</Time>
            <Position>
              <LatitudeDegrees>38.5605919919908046722412109375</LatitudeDegrees>
              <LongitudeDegrees>-28.65314866416156291961669921875</LongitudeDegrees>
            </Position>
            <AltitudeMeters>295.600006103515625</AltitudeMeters>
            <DistanceMeters>38273.004779082</DistanceMeters>
          </Trackpoint>
          <Trackpoint>
            <Time>2020-04-26T18:09:02.000Z</Time>
            <Position>
              <LatitudeDegrees>38.560646474361419677734375</LatitudeDegrees>
              <LongitudeDegrees>-28.65332133136689662933349609375</LongitudeDegrees>
            </Position>
            <AltitudeMeters>296.20001220703125</AltitudeMeters>
            <DistanceMeters>38289.209829316</DistanceMeters>
          </Trackpoint>
          <Trackpoint>
            <Time>2020-04-26T18:09:05.000Z</Time>
            <Position>
              <LatitudeDegrees>38.5607002861797809600830078125</LatitudeDegrees>
              <LongitudeDegrees>-28.6534359119832515716552734375</LongitudeDegrees>
            </Position>
            <AltitudeMeters>297</AltitudeMeters>
            <DistanceMeters>38300.842744926</DistanceMeters>
          </Trackpoint>
          <Trackpoint>
            <Time>2020-04-26T18:09:06.000Z</Time>
            <Position>
              <LatitudeDegrees>38.5607157088816165924072265625</LatitudeDegrees>
              <LongitudeDegrees>-28.65347824059426784515380859375</LongitudeDegrees>
            </Position>
            <AltitudeMeters>297.20001220703125</AltitudeMeters>
            <DistanceMeters>38304.907845157</DistanceMeters>
          </Trackpoint>
          <Trackpoint>
            <Time>2020-04-26T18:09:09.000Z</Time>
            <Position>
              <LatitudeDegrees>38.5607666708528995513916015625</LatitudeDegrees>
              <LongitudeDegrees>-28.65360128693282604217529296875</LongitudeDegrees>
            </Position>
            <AltitudeMeters>298.399993896484375</AltitudeMeters>
            <DistanceMeters>38317.025893809</DistanceMeters>
          </Trackpoint>
          <Trackpoint>
            <Time>2020-04-26T18:09:13.000Z</Time>
            <Position>
              <LatitudeDegrees>38.5608414374291896820068359375</LatitudeDegrees>
              <LongitudeDegrees>-28.6537514068186283111572265625</LongitudeDegrees>
            </Position>
            <AltitudeMeters>299.399993896484375</AltitudeMeters>
            <DistanceMeters>38332.51641418</DistanceMeters>
          </Trackpoint>
          <Trackpoint>
            <Time>2020-04-26T18:09:14.000Z</Time>
            <Position>
              <LatitudeDegrees>38.56085711158812046051025390625</LatitudeDegrees>
              <LongitudeDegrees>-28.653788454830646514892578125</LongitudeDegrees>
            </Position>
            <AltitudeMeters>299.600006103515625</AltitudeMeters>
            <DistanceMeters>38336.182031965</DistanceMeters>
          </Trackpoint>
          <Trackpoint>
            <Time>2020-04-26T18:09:18.000Z</Time>
            <Position>
              <LatitudeDegrees>38.56094679795205593109130859375</LatitudeDegrees>
              <LongitudeDegrees>-28.6539200507104396820068359375</LongitudeDegrees>
            </Position>
            <AltitudeMeters>301</AltitudeMeters>
            <DistanceMeters>38351.374720469</DistanceMeters>
          </Trackpoint>
          <Trackpoint>
            <Time>2020-04-26T18:09:19.000Z</Time>
            <Position>
              <LatitudeDegrees>38.56096766889095306396484375</LatitudeDegrees>
              <LongitudeDegrees>-28.6539559252560138702392578125</LongitudeDegrees>
            </Position>
            <AltitudeMeters>301.600006103515625</AltitudeMeters>
            <DistanceMeters>38355.267337619</DistanceMeters>
          </Trackpoint>
          <Trackpoint>
            <Time>2020-04-26T18:09:20.000Z</Time>
            <Position>
              <LatitudeDegrees>38.56099356897175312042236328125</LatitudeDegrees>
              <LongitudeDegrees>-28.65398718975484371185302734375</LongitudeDegrees>
            </Position>
            <AltitudeMeters>302</AltitudeMeters>
            <DistanceMeters>38359.233493587</DistanceMeters>
          </Trackpoint>
          <Trackpoint>
            <Time>2020-04-26T18:09:25.000Z</Time>
            <Position>
              <LatitudeDegrees>38.561109490692615509033203125</LatitudeDegrees>
              <LongitudeDegrees>-28.6541386507451534271240234375</LongitudeDegrees>
            </Position>
            <AltitudeMeters>302.399993896484375</AltitudeMeters>
            <DistanceMeters>38377.678959704</DistanceMeters>
          </Trackpoint>
          <Trackpoint>
            <Time>2020-04-26T18:09:30.000Z</Time>
            <Position>
              <LatitudeDegrees>38.561236225068569183349609375</LatitudeDegrees>
              <LongitudeDegrees>-28.65426396019756793975830078125</LongitudeDegrees>
            </Position>
            <AltitudeMeters>303</AltitudeMeters>
            <DistanceMeters>38395.509071069</DistanceMeters>
          </Trackpoint>
          <Trackpoint>
            <Time>2020-04-26T18:09:33.000Z</Time>
            <Position>
              <LatitudeDegrees>38.5612997598946094512939453125</LatitudeDegrees>
              <LongitudeDegrees>-28.65433621220290660858154296875</LongitudeDegrees>
            </Position>
            <AltitudeMeters>304</AltitudeMeters>
            <DistanceMeters>38404.972701354</DistanceMeters>
          </Trackpoint>
          <Trackpoint>
            <Time>2020-04-26T18:09:34.000Z</Time>
            <Position>
              <LatitudeDegrees>38.5613249056041240692138671875</LatitudeDegrees>
              <LongitudeDegrees>-28.65435465238988399505615234375</LongitudeDegrees>
            </Position>
            <AltitudeMeters>304.20001220703125</AltitudeMeters>
            <DistanceMeters>38408.198014992</DistanceMeters>
          </Trackpoint>
          <Trackpoint>
            <Time>2020-04-26T18:09:39.000Z</Time>
            <Position>
              <LatitudeDegrees>38.56145155616104602813720703125</LatitudeDegrees>
              <LongitudeDegrees>-28.65445339120924472808837890625</LongitudeDegrees>
            </Position>
            <AltitudeMeters>305.20001220703125</AltitudeMeters>
            <DistanceMeters>38424.70724869</DistanceMeters>
          </Trackpoint>
          <Trackpoint>
            <Time>2020-04-26T18:09:40.000Z</Time>
            <Position>
              <LatitudeDegrees>38.56147318147122859954833984375</LatitudeDegrees>
              <LongitudeDegrees>-28.65448423661291599273681640625</LongitudeDegrees>
            </Position>
            <AltitudeMeters>305.399993896484375</AltitudeMeters>
            <DistanceMeters>38428.313258962</DistanceMeters>
          </Trackpoint>
          <Trackpoint>
            <Time>2020-04-26T18:09:44.000Z</Time>
            <Position>
              <LatitudeDegrees>38.56153688393533229827880859375</LatitudeDegrees>
              <LongitudeDegrees>-28.65460711531341075897216796875</LongitudeDegrees>
            </Position>
            <AltitudeMeters>306.20001220703125</AltitudeMeters>
            <DistanceMeters>38441.144328821</DistanceMeters>
          </Trackpoint>
          <Trackpoint>
            <Time>2020-04-26T18:09:45.000Z</Time>
            <Position>
              <LatitudeDegrees>38.56154828332364559173583984375</LatitudeDegrees>
              <LongitudeDegrees>-28.65464030764997005462646484375</LongitudeDegrees>
            </Position>
            <AltitudeMeters>306.399993896484375</AltitudeMeters>
            <DistanceMeters>38444.298872249</DistanceMeters>
          </Trackpoint>
          <Trackpoint>
            <Time>2020-04-26T18:09:50.000Z</Time>
            <Position>
              <LatitudeDegrees>38.5616025142371654510498046875</LatitudeDegrees>
              <LongitudeDegrees>-28.654809705913066864013671875</LongitudeDegrees>
            </Position>
            <AltitudeMeters>307.399993896484375</AltitudeMeters>
            <DistanceMeters>38460.229386</DistanceMeters>
          </Trackpoint>
          <Trackpoint>
            <Time>2020-04-26T18:09:51.000Z</Time>
            <Position>
              <LatitudeDegrees>38.56161265634000301361083984375</LatitudeDegrees>
              <LongitudeDegrees>-28.65484834648668766021728515625</LongitudeDegrees>
            </Position>
            <AltitudeMeters>307.600006103515625</AltitudeMeters>
            <DistanceMeters>38463.77733281</DistanceMeters>
          </Trackpoint>
          <Trackpoint>
            <Time>2020-04-26T18:09:56.000Z</Time>
            <Position>
              <LatitudeDegrees>38.5616541467607021331787109375</LatitudeDegrees>
              <LongitudeDegrees>-28.65502671338617801666259765625</LongitudeDegrees>
            </Position>
            <AltitudeMeters>308.600006103515625</AltitudeMeters>
            <DistanceMeters>38479.973185999</DistanceMeters>
          </Trackpoint>
          <Trackpoint>
            <Time>2020-04-26T18:09:57.000Z</Time>
            <Position>
              <LatitudeDegrees>38.5616568289697170257568359375</LatitudeDegrees>
              <LongitudeDegrees>-28.65506359376013278961181640625</LongitudeDegrees>
            </Position>
            <AltitudeMeters>308.79998779296875</AltitudeMeters>
            <DistanceMeters>38483.19569867</DistanceMeters>
          </Trackpoint>
          <Trackpoint>
            <Time>2020-04-26T18:10:03.000Z</Time>
            <Position>
              <LatitudeDegrees>38.5616363771259784698486328125</LatitudeDegrees>
              <LongitudeDegrees>-28.65528454072773456573486328125</LongitudeDegrees>
            </Position>
            <AltitudeMeters>309.79998779296875</AltitudeMeters>
            <DistanceMeters>38502.559009441</DistanceMeters>
          </Trackpoint>
          <Trackpoint>
            <Time>2020-04-26T18:10:04.000Z</Time>
            <Position>
              <LatitudeDegrees>38.56162673793733119964599609375</LatitudeDegrees>
              <LongitudeDegrees>-28.65532091818749904632568359375</LongitudeDegrees>
            </Position>
            <AltitudeMeters>309.79998779296875</AltitudeMeters>
            <DistanceMeters>38505.901195038</DistanceMeters>
          </Trackpoint>
          <Trackpoint>
            <Time>2020-04-26T18:10:08.000Z</Time>
            <Position>
              <LatitudeDegrees>38.5615766979753971099853515625</LatitudeDegrees>
              <LongitudeDegrees>-28.65547120571136474609375</LongitudeDegrees>
            </Position>
            <AltitudeMeters>310.79998779296875</AltitudeMeters>
            <DistanceMeters>38520.117458291</DistanceMeters>
          </Trackpoint>
          <Trackpoint>
            <Time>2020-04-26T18:10:09.000Z</Time>
            <Position>
              <LatitudeDegrees>38.56154710985720157623291015625</LatitudeDegrees>
              <LongitudeDegrees>-28.65547548048198223114013671875</LongitudeDegrees>
            </Position>
            <AltitudeMeters>311</AltitudeMeters>
            <DistanceMeters>38523.43115305</DistanceMeters>
          </Trackpoint>
          <Trackpoint>
            <Time>2020-04-26T18:10:10.000Z</Time>
            <Position>
              <LatitudeDegrees>38.5615337826311588287353515625</LatitudeDegrees>
              <LongitudeDegrees>-28.65545444190502166748046875</LongitudeDegrees>
            </Position>
            <AltitudeMeters>311</AltitudeMeters>
            <DistanceMeters>38525.787738931</DistanceMeters>
          </Trackpoint>
          <Trackpoint>
            <Time>2020-04-26T18:10:13.000Z</Time>
            <Position>
              <LatitudeDegrees>38.5615616105496883392333984375</LatitudeDegrees>
              <LongitudeDegrees>-28.655397109687328338623046875</LongitudeDegrees>
            </Position>
            <AltitudeMeters>310.399993896484375</AltitudeMeters>
            <DistanceMeters>38531.660974156</DistanceMeters>
          </Trackpoint>
          <Trackpoint>
            <Time>2020-04-26T18:10:17.000Z</Time>
            <Position>
              <LatitudeDegrees>38.561599664390087127685546875</LatitudeDegrees>
              <LongitudeDegrees>-28.65527749992907047271728515625</LongitudeDegrees>
            </Position>
            <AltitudeMeters>310.20001220703125</AltitudeMeters>
            <DistanceMeters>38542.899465124</DistanceMeters>
          </Trackpoint>
          <Trackpoint>
            <Time>2020-04-26T18:10:18.000Z</Time>
            <Position>
              <LatitudeDegrees>38.561599664390087127685546875</LatitudeDegrees>
              <LongitudeDegrees>-28.6552209220826625823974609375</LongitudeDegrees>
            </Position>
            <AltitudeMeters>310.20001220703125</AltitudeMeters>
            <DistanceMeters>38547.823463017</DistanceMeters>
          </Trackpoint>
          <Trackpoint>
            <Time>2020-04-26T18:10:19.000Z</Time>
            <Position>
              <LatitudeDegrees>38.561606369912624359130859375</LatitudeDegrees>
              <LongitudeDegrees>-28.65515562705695629119873046875</LongitudeDegrees>
            </Position>
            <AltitudeMeters>310</AltitudeMeters>
            <DistanceMeters>38553.554290883</DistanceMeters>
          </Trackpoint>
          <Trackpoint>
            <Time>2020-04-26T18:10:20.000Z</Time>
            <Position>
              <LatitudeDegrees>38.56159932911396026611328125</LatitudeDegrees>
              <LongitudeDegrees>-28.6550827883183956146240234375</LongitudeDegrees>
            </Position>
            <AltitudeMeters>309.79998779296875</AltitudeMeters>
            <DistanceMeters>38559.941613121</DistanceMeters>
          </Trackpoint>
          <Trackpoint>
            <Time>2020-04-26T18:10:21.000Z</Time>
            <Position>
              <LatitudeDegrees>38.5615825653076171875</LatitudeDegrees>
              <LongitudeDegrees>-28.65501011721789836883544921875</LongitudeDegrees>
            </Position>
            <AltitudeMeters>309.600006103515625</AltitudeMeters>
            <DistanceMeters>38566.536220626</DistanceMeters>
          </Trackpoint>
          <Trackpoint>
            <Time>2020-04-26T18:10:23.000Z</Time>
            <Position>
              <LatitudeDegrees>38.56154493056237697601318359375</LatitudeDegrees>
              <LongitudeDegrees>-28.65484717302024364471435546875</LongitudeDegrees>
            </Position>
            <AltitudeMeters>309.20001220703125</AltitudeMeters>
            <DistanceMeters>38581.3231835</DistanceMeters>
          </Trackpoint>
          <Trackpoint>
            <Time>2020-04-26T18:10:24.000Z</Time>
            <Position>
              <LatitudeDegrees>38.5615237243473529815673828125</LatitudeDegrees>
              <LongitudeDegrees>-28.6547605879604816436767578125</LongitudeDegrees>
            </Position>
            <AltitudeMeters>308.600006103515625</AltitudeMeters>
            <DistanceMeters>38589.220126448</DistanceMeters>
          </Trackpoint>
          <Trackpoint>
            <Time>2020-04-26T18:10:25.000Z</Time>
            <Position>
              <LatitudeDegrees>38.56149472296237945556640625</LatitudeDegrees>
              <LongitudeDegrees>-28.65467182360589504241943359375</LongitudeDegrees>
            </Position>
            <AltitudeMeters>308</AltitudeMeters>
            <DistanceMeters>38597.592190312</DistanceMeters>
          </Trackpoint>
          <Trackpoint>
            <Time>2020-04-26T18:10:26.000Z</Time>
            <Position>
              <LatitudeDegrees>38.56145725585520267486572265625</LatitudeDegrees>
              <LongitudeDegrees>-28.654579706490039825439453125</LongitudeDegrees>
            </Position>
            <AltitudeMeters>307.399993896484375</AltitudeMeters>
            <DistanceMeters>38606.629225853</DistanceMeters>
          </Trackpoint>
          <Trackpoint>
            <Time>2020-04-26T18:10:28.000Z</Time>
            <Position>
              <LatitudeDegrees>38.56132700107991695404052734375</LatitudeDegrees>
              <LongitudeDegrees>-28.654430843889713287353515625</LongitudeDegrees>
            </Position>
            <AltitudeMeters>306.20001220703125</AltitudeMeters>
            <DistanceMeters>38626.071886682</DistanceMeters>
          </Trackpoint>
          <Trackpoint>
            <Time>2020-04-26T18:10:29.000Z</Time>
            <Position>
              <LatitudeDegrees>38.56125441379845142364501953125</LatitudeDegrees>
              <LongitudeDegrees>-28.6543673090636730194091796875</LongitudeDegrees>
            </Position>
            <AltitudeMeters>305.600006103515625</AltitudeMeters>
            <DistanceMeters>38635.861944464</DistanceMeters>
          </Trackpoint>
          <Trackpoint>
            <Time>2020-04-26T18:10:31.000Z</Time>
            <Position>
              <LatitudeDegrees>38.56111519038677215576171875</LatitudeDegrees>
              <LongitudeDegrees>-28.6542157642543315887451171875</LongitudeDegrees>
            </Position>
            <AltitudeMeters>305.20001220703125</AltitudeMeters>
            <DistanceMeters>38656.21097848</DistanceMeters>
          </Trackpoint>
          <Trackpoint>
            <Time>2020-04-26T18:10:33.000Z</Time>
            <Position>
              <LatitudeDegrees>38.560978062450885772705078125</LatitudeDegrees>
              <LongitudeDegrees>-28.654045946896076202392578125</LongitudeDegrees>
            </Position>
            <AltitudeMeters>303.600006103515625</AltitudeMeters>
            <DistanceMeters>38677.456835281</DistanceMeters>
          </Trackpoint>
          <Trackpoint>
            <Time>2020-04-26T18:10:35.000Z</Time>
            <Position>
              <LatitudeDegrees>38.5608355700969696044921875</LatitudeDegrees>
              <LongitudeDegrees>-28.6538613773882389068603515625</LongitudeDegrees>
            </Position>
            <AltitudeMeters>302</AltitudeMeters>
            <DistanceMeters>38700.03043078</DistanceMeters>
          </Trackpoint>
          <Trackpoint>
            <Time>2020-04-26T18:10:37.000Z</Time>
            <Position>
              <LatitudeDegrees>38.5607095062732696533203125</LatitudeDegrees>
              <LongitudeDegrees>-28.6536417715251445770263671875</LongitudeDegrees>
            </Position>
            <AltitudeMeters>300.79998779296875</AltitudeMeters>
            <DistanceMeters>38723.740500561</DistanceMeters>
          </Trackpoint>
          <Trackpoint>
            <Time>2020-04-26T18:10:38.000Z</Time>
            <Position>
              <LatitudeDegrees>38.56065494008362293243408203125</LatitudeDegrees>
              <LongitudeDegrees>-28.6535193957388401031494140625</LongitudeDegrees>
            </Position>
            <AltitudeMeters>300.20001220703125</AltitudeMeters>
            <DistanceMeters>38736.000788179</DistanceMeters>
          </Trackpoint>
          <Trackpoint>
            <Time>2020-04-26T18:10:39.000Z</Time>
            <Position>
              <LatitudeDegrees>38.56060448102653026580810546875</LatitudeDegrees>
              <LongitudeDegrees>-28.6533886380493640899658203125</LongitudeDegrees>
            </Position>
            <AltitudeMeters>299.399993896484375</AltitudeMeters>
            <DistanceMeters>38748.691391529</DistanceMeters>
          </Trackpoint>
          <Trackpoint>
            <Time>2020-04-26T18:10:41.000Z</Time>
            <Position>
              <LatitudeDegrees>38.56050272472202777862548828125</LatitudeDegrees>
              <LongitudeDegrees>-28.653121925890445709228515625</LongitudeDegrees>
            </Position>
            <AltitudeMeters>298.20001220703125</AltitudeMeters>
            <DistanceMeters>38774.519435729</DistanceMeters>
          </Trackpoint>
          <Trackpoint>
            <Time>2020-04-26T18:10:43.000Z</Time>
            <Position>
              <LatitudeDegrees>38.56042460538446903228759765625</LatitudeDegrees>
              <LongitudeDegrees>-28.6528454907238483428955078125</LongitudeDegrees>
            </Position>
            <AltitudeMeters>296.79998779296875</AltitudeMeters>
            <DistanceMeters>38800.101220265</DistanceMeters>
          </Trackpoint>
          <Trackpoint>
            <Time>2020-04-26T18:10:45.000Z</Time>
            <Position>
              <LatitudeDegrees>38.56036928482353687286376953125</LatitudeDegrees>
              <LongitudeDegrees>-28.65255556069314479827880859375</LongitudeDegrees>
            </Position>
            <AltitudeMeters>295.79998779296875</AltitudeMeters>
            <DistanceMeters>38826.074995715</DistanceMeters>
          </Trackpoint>
          <Trackpoint>
            <Time>2020-04-26T18:10:46.000Z</Time>
            <Position>
              <LatitudeDegrees>38.5603532753884792327880859375</LatitudeDegrees>
              <LongitudeDegrees>-28.6524082906544208526611328125</LongitudeDegrees>
            </Position>
            <AltitudeMeters>295.20001220703125</AltitudeMeters>
            <DistanceMeters>38839.015387424</DistanceMeters>
          </Trackpoint>
          <Trackpoint>
            <Time>2020-04-26T18:10:47.000Z</Time>
            <Position>
              <LatitudeDegrees>38.56033869087696075439453125</LatitudeDegrees>
              <LongitudeDegrees>-28.65226068533957004547119140625</LongitudeDegrees>
            </Position>
            <AltitudeMeters>294.79998779296875</AltitudeMeters>
            <DistanceMeters>38851.964150277</DistanceMeters>
          </Trackpoint>
          <Trackpoint>
            <Time>2020-04-26T18:10:48.000Z</Time>
            <Position>
              <LatitudeDegrees>38.560323603451251983642578125</LatitudeDegrees>
              <LongitudeDegrees>-28.65211182273924350738525390625</LongitudeDegrees>
            </Position>
            <AltitudeMeters>294</AltitudeMeters>
            <DistanceMeters>38865.028854825</DistanceMeters>
          </Trackpoint>
          <Trackpoint>
            <Time>2020-04-26T18:10:50.000Z</Time>
            <Position>
              <LatitudeDegrees>38.5602956078946590423583984375</LatitudeDegrees>
              <LongitudeDegrees>-28.651813678443431854248046875</LongitudeDegrees>
            </Position>
            <AltitudeMeters>292.79998779296875</AltitudeMeters>
            <DistanceMeters>38891.163620027</DistanceMeters>
          </Trackpoint>
          <Trackpoint>
            <Time>2020-04-26T18:10:51.000Z</Time>
            <Position>
              <LatitudeDegrees>38.56026920489966869354248046875</LatitudeDegrees>
              <LongitudeDegrees>-28.65166573785245418548583984375</LongitudeDegrees>
            </Position>
            <AltitudeMeters>292.399993896484375</AltitudeMeters>
            <DistanceMeters>38904.370282229</DistanceMeters>
          </Trackpoint>
          <Trackpoint>
            <Time>2020-04-26T18:10:52.000Z</Time>
            <Position>
              <LatitudeDegrees>38.56023752130568027496337890625</LatitudeDegrees>
              <LongitudeDegrees>-28.65152257494628429412841796875</LongitudeDegrees>
            </Position>
            <AltitudeMeters>291.600006103515625</AltitudeMeters>
            <DistanceMeters>38917.319393762</DistanceMeters>
          </Trackpoint>
          <Trackpoint>
            <Time>2020-04-26T18:10:53.000Z</Time>
            <Position>
              <LatitudeDegrees>38.5602124594151973724365234375</LatitudeDegrees>
              <LongitudeDegrees>-28.65138159133493900299072265625</LongitudeDegrees>
            </Position>
            <AltitudeMeters>290.79998779296875</AltitudeMeters>
            <DistanceMeters>38929.903169845</DistanceMeters>
          </Trackpoint>
          <Trackpoint>
            <Time>2020-04-26T18:10:54.000Z</Time>
            <Position>
              <LatitudeDegrees>38.560192175209522247314453125</LatitudeDegrees>
              <LongitudeDegrees>-28.65124060772359371185302734375</LongitudeDegrees>
            </Position>
            <AltitudeMeters>290.399993896484375</AltitudeMeters>
            <DistanceMeters>38942.379203977</DistanceMeters>
          </Trackpoint>
          <Trackpoint>
            <Time>2020-04-26T18:10:56.000Z</Time>
            <Position>
              <LatitudeDegrees>38.5601534508168697357177734375</LatitudeDegrees>
              <LongitudeDegrees>-28.6509552039206027984619140625</LongitudeDegrees>
            </Position>
            <AltitudeMeters>289</AltitudeMeters>
            <DistanceMeters>38967.589775181</DistanceMeters>
          </Trackpoint>
          <Trackpoint>
            <Time>2020-04-26T18:10:58.000Z</Time>
            <Position>
              <LatitudeDegrees>38.560096956789493560791015625</LatitudeDegrees>
              <LongitudeDegrees>-28.65067365579307079315185546875</LongitudeDegrees>
            </Position>
            <AltitudeMeters>288</AltitudeMeters>
            <DistanceMeters>38992.887592829</DistanceMeters>
          </Trackpoint>
          <Trackpoint>
            <Time>2020-04-26T18:10:59.000Z</Time>
            <Position>
              <LatitudeDegrees>38.5600615851581096649169921875</LatitudeDegrees>
              <LongitudeDegrees>-28.6505346000194549560546875</LongitudeDegrees>
            </Position>
            <AltitudeMeters>287.600006103515625</AltitudeMeters>
            <DistanceMeters>39005.614433803</DistanceMeters>
          </Trackpoint>
          <Trackpoint>
            <Time>2020-04-26T18:11:01.000Z</Time>
            <Position>
              <LatitudeDegrees>38.55997650884091854095458984375</LatitudeDegrees>
              <LongitudeDegrees>-28.65026193670928478240966796875</LongitudeDegrees>
            </Position>
            <AltitudeMeters>286.600006103515625</AltitudeMeters>
            <DistanceMeters>39031.164429621</DistanceMeters>
          </Trackpoint>
          <Trackpoint>
            <Time>2020-04-26T18:11:03.000Z</Time>
            <Position>
              <LatitudeDegrees>38.5598738305270671844482421875</LatitudeDegrees>
              <LongitudeDegrees>-28.65000712685286998748779296875</LongitudeDegrees>
            </Position>
            <AltitudeMeters>285.399993896484375</AltitudeMeters>
            <DistanceMeters>39056.112878653</DistanceMeters>
          </Trackpoint>
          <Trackpoint>
            <Time>2020-04-26T18:11:06.000Z</Time>
            <Position>
              <LatitudeDegrees>38.55961323715746402740478515625</LatitudeDegrees>
              <LongitudeDegrees>-28.649739660322666168212890625</LongitudeDegrees>
            </Position>
            <AltitudeMeters>284.399993896484375</AltitudeMeters>
            <DistanceMeters>39093.303668764</DistanceMeters>
          </Trackpoint>
          <Trackpoint>
            <Time>2020-04-26T18:11:07.000Z</Time>
            <Position>
              <LatitudeDegrees>38.55951391160488128662109375</LatitudeDegrees>
              <LongitudeDegrees>-28.64966447465121746063232421875</LongitudeDegrees>
            </Position>
            <AltitudeMeters>283.79998779296875</AltitudeMeters>
            <DistanceMeters>39106.150212155</DistanceMeters>
          </Trackpoint>
          <Trackpoint>
            <Time>2020-04-26T18:11:09.000Z</Time>
            <Position>
              <LatitudeDegrees>38.5593147575855255126953125</LatitudeDegrees>
              <LongitudeDegrees>-28.6495145224034786224365234375</LongitudeDegrees>
            </Position>
            <AltitudeMeters>283.20001220703125</AltitudeMeters>
            <DistanceMeters>39131.873155636</DistanceMeters>
          </Trackpoint>
          <Trackpoint>
            <Time>2020-04-26T18:11:11.000Z</Time>
            <Position>
              <LatitudeDegrees>38.55911585502326488494873046875</LatitudeDegrees>
              <LongitudeDegrees>-28.649353086948394775390625</LongitudeDegrees>
            </Position>
            <AltitudeMeters>281.79998779296875</AltitudeMeters>
            <DistanceMeters>39158.093641905</DistanceMeters>
          </Trackpoint>
          <Trackpoint>
            <Time>2020-04-26T18:11:12.000Z</Time>
            <Position>
              <LatitudeDegrees>38.5590141825377941131591796875</LatitudeDegrees>
              <LongitudeDegrees>-28.6492781527340412139892578125</LongitudeDegrees>
            </Position>
            <AltitudeMeters>281</AltitudeMeters>
            <DistanceMeters>39171.154890091</DistanceMeters>
          </Trackpoint>
          <Trackpoint>
            <Time>2020-04-26T18:11:13.000Z</Time>
            <Position>
              <LatitudeDegrees>38.5589135996997356414794921875</LatitudeDegrees>
              <LongitudeDegrees>-28.6491990275681018829345703125</LongitudeDegrees>
            </Position>
            <AltitudeMeters>280.399993896484375</AltitudeMeters>
            <DistanceMeters>39184.298840126</DistanceMeters>
          </Trackpoint>
          <Trackpoint>
            <Time>2020-04-26T18:11:14.000Z</Time>
            <Position>
              <LatitudeDegrees>38.55882148258388042449951171875</LatitudeDegrees>
              <LongitudeDegrees>-28.6491105146706104278564453125</LongitudeDegrees>
            </Position>
            <AltitudeMeters>280</AltitudeMeters>
            <DistanceMeters>39197.123574523</DistanceMeters>
          </Trackpoint>
          <Trackpoint>
            <Time>2020-04-26T18:11:16.000Z</Time>
            <Position>
              <LatitudeDegrees>38.55871654115617275238037109375</LatitudeDegrees>
              <LongitudeDegrees>-28.64885226823389530181884765625</LongitudeDegrees>
            </Position>
            <AltitudeMeters>279</AltitudeMeters>
            <DistanceMeters>39222.453853867</DistanceMeters>
          </Trackpoint>
          <Trackpoint>
            <Time>2020-04-26T18:11:17.000Z</Time>
            <Position>
              <LatitudeDegrees>38.55872140266001224517822265625</LatitudeDegrees>
              <LongitudeDegrees>-28.6487018130719661712646484375</LongitudeDegrees>
            </Position>
            <AltitudeMeters>277.79998779296875</AltitudeMeters>
            <DistanceMeters>39235.559619165</DistanceMeters>
          </Trackpoint>
          <Trackpoint>
            <Time>2020-04-26T18:11:18.000Z</Time>
            <Position>
              <LatitudeDegrees>38.55876046232879161834716796875</LatitudeDegrees>
              <LongitudeDegrees>-28.64855772815644741058349609375</LongitudeDegrees>
            </Position>
            <AltitudeMeters>277.20001220703125</AltitudeMeters>
            <DistanceMeters>39248.832099388</DistanceMeters>
          </Trackpoint>
          <Trackpoint>
            <Time>2020-04-26T18:11:20.000Z</Time>
            <Position>
              <LatitudeDegrees>38.55885551311075687408447265625</LatitudeDegrees>
              <LongitudeDegrees>-28.648284561932086944580078125</LongitudeDegrees>
            </Position>
            <AltitudeMeters>276.20001220703125</AltitudeMeters>
            <DistanceMeters>39274.8545019</DistanceMeters>
          </Trackpoint>
          <Trackpoint>
            <Time>2020-04-26T18:11:22.000Z</Time>
            <Position>
              <LatitudeDegrees>38.5589555092155933380126953125</LatitudeDegrees>
              <LongitudeDegrees>-28.6480074562132358551025390625</LongitudeDegrees>
            </Position>
            <AltitudeMeters>274.600006103515625</AltitudeMeters>
            <DistanceMeters>39301.416465923</DistanceMeters>
          </Trackpoint>
          <Trackpoint>
            <Time>2020-04-26T18:11:24.000Z</Time>
            <Position>
              <LatitudeDegrees>38.55903421528637409210205078125</LatitudeDegrees>
              <LongitudeDegrees>-28.64771903492510318756103515625</LongitudeDegrees>
            </Position>
            <AltitudeMeters>273.399993896484375</AltitudeMeters>
            <DistanceMeters>39328.003575281</DistanceMeters>
          </Trackpoint>
          <Trackpoint>
            <Time>2020-04-26T18:11:26.000Z</Time>
            <Position>
              <LatitudeDegrees>38.5590366460382938385009765625</LatitudeDegrees>
              <LongitudeDegrees>-28.647408820688724517822265625</LongitudeDegrees>
            </Position>
            <AltitudeMeters>271.79998779296875</AltitudeMeters>
            <DistanceMeters>39355.004208452</DistanceMeters>
          </Trackpoint>
          <Trackpoint>
            <Time>2020-04-26T18:11:28.000Z</Time>
            <Position>
              <LatitudeDegrees>38.55900186114013195037841796875</LatitudeDegrees>
              <LongitudeDegrees>-28.6470938287675380706787109375</LongitudeDegrees>
            </Position>
            <AltitudeMeters>270.20001220703125</AltitudeMeters>
            <DistanceMeters>39382.691412165</DistanceMeters>
          </Trackpoint>
          <Trackpoint>
            <Time>2020-04-26T18:11:29.000Z</Time>
            <Position>
              <LatitudeDegrees>38.55897688306868076324462890625</LatitudeDegrees>
              <LongitudeDegrees>-28.64693834446370601654052734375</LongitudeDegrees>
            </Position>
            <AltitudeMeters>269.399993896484375</AltitudeMeters>
            <DistanceMeters>39396.506610163</DistanceMeters>
          </Trackpoint>
          <Trackpoint>
            <Time>2020-04-26T18:11:30.000Z</Time>
            <Position>
              <LatitudeDegrees>38.55894838459789752960205078125</LatitudeDegrees>
              <LongitudeDegrees>-28.6467776633799076080322265625</LongitudeDegrees>
            </Position>
            <AltitudeMeters>268.79998779296875</AltitudeMeters>
            <DistanceMeters>39410.846516048</DistanceMeters>
          </Trackpoint>
          <Trackpoint>
            <Time>2020-04-26T18:11:32.000Z</Time>
            <Position>
              <LatitudeDegrees>38.5588874481618404388427734375</LatitudeDegrees>
              <LongitudeDegrees>-28.6464551277458667755126953125</LongitudeDegrees>
            </Position>
            <AltitudeMeters>267.20001220703125</AltitudeMeters>
            <DistanceMeters>39439.72603977</DistanceMeters>
          </Trackpoint>
          <Trackpoint>
            <Time>2020-04-26T18:11:34.000Z</Time>
            <Position>
              <LatitudeDegrees>38.558837659657001495361328125</LatitudeDegrees>
              <LongitudeDegrees>-28.6461325921118259429931640625</LongitudeDegrees>
            </Position>
            <AltitudeMeters>266.20001220703125</AltitudeMeters>
            <DistanceMeters>39468.339654904</DistanceMeters>
          </Trackpoint>
          <Trackpoint>
            <Time>2020-04-26T18:11:36.000Z</Time>
            <Position>
              <LatitudeDegrees>38.558810167014598846435546875</LatitudeDegrees>
              <LongitudeDegrees>-28.64581726491451263427734375</LongitudeDegrees>
            </Position>
            <AltitudeMeters>264.79998779296875</AltitudeMeters>
            <DistanceMeters>39495.953868732</DistanceMeters>
          </Trackpoint>
          <Trackpoint>
            <Time>2020-04-26T18:11:37.000Z</Time>
            <Position>
              <LatitudeDegrees>38.5588254220783710479736328125</LatitudeDegrees>
              <LongitudeDegrees>-28.64566513337194919586181640625</LongitudeDegrees>
            </Position>
            <AltitudeMeters>264.20001220703125</AltitudeMeters>
            <DistanceMeters>39509.30300835</DistanceMeters>
          </Trackpoint>
          <Trackpoint>
            <Time>2020-04-26T18:11:38.000Z</Time>
            <Position>
              <LatitudeDegrees>38.55886406265199184417724609375</LatitudeDegrees>
              <LongitudeDegrees>-28.6455223895609378814697265625</LongitudeDegrees>
            </Position>
            <AltitudeMeters>263.79998779296875</AltitudeMeters>
            <DistanceMeters>39522.449706153</DistanceMeters>
          </Trackpoint>
          <Trackpoint>
            <Time>2020-04-26T18:11:39.000Z</Time>
            <Position>
              <LatitudeDegrees>38.558926172554492950439453125</LatitudeDegrees>
              <LongitudeDegrees>-28.64539288915693759918212890625</LongitudeDegrees>
            </Position>
            <AltitudeMeters>263.600006103515625</AltitudeMeters>
            <DistanceMeters>39535.671743816</DistanceMeters>
          </Trackpoint>
          <Trackpoint>
            <Time>2020-04-26T18:11:41.000Z</Time>
            <Position>
              <LatitudeDegrees>38.55907830409705638885498046875</LatitudeDegrees>
              <LongitudeDegrees>-28.64515366964042186737060546875</LongitudeDegrees>
            </Position>
            <AltitudeMeters>262</AltitudeMeters>
            <DistanceMeters>39562.508337804</DistanceMeters>
          </Trackpoint>
          <Trackpoint>
            <Time>2020-04-26T18:11:42.000Z</Time>
            <Position>
              <LatitudeDegrees>38.559141419827938079833984375</LatitudeDegrees>
              <LongitudeDegrees>-28.6450198106467723846435546875</LongitudeDegrees>
            </Position>
            <AltitudeMeters>261.399993896484375</AltitudeMeters>
            <DistanceMeters>39576.112765274</DistanceMeters>
          </Trackpoint>
          <Trackpoint>
            <Time>2020-04-26T18:11:43.000Z</Time>
            <Position>
              <LatitudeDegrees>38.5591940581798553466796875</LatitudeDegrees>
              <LongitudeDegrees>-28.64487773738801479339599609375</LongitudeDegrees>
            </Position>
            <AltitudeMeters>260.79998779296875</AltitudeMeters>
            <DistanceMeters>39589.79595222</DistanceMeters>
          </Trackpoint>
          <Trackpoint>
            <Time>2020-04-26T18:11:45.000Z</Time>
            <Position>
              <LatitudeDegrees>38.55932741425931453704833984375</LatitudeDegrees>
              <LongitudeDegrees>-28.6446141265332698822021484375</LongitudeDegrees>
            </Position>
            <AltitudeMeters>259.79998779296875</AltitudeMeters>
            <DistanceMeters>39617.121379225</DistanceMeters>
          </Trackpoint>
          <Trackpoint>
            <Time>2020-04-26T18:11:46.000Z</Time>
            <Position>
              <LatitudeDegrees>38.5594071261584758758544921875</LatitudeDegrees>
              <LongitudeDegrees>-28.64450030028820037841796875</LongitudeDegrees>
            </Position>
            <AltitudeMeters>259.20001220703125</AltitudeMeters>
            <DistanceMeters>39630.420367052</DistanceMeters>
          </Trackpoint>
          <Trackpoint>
            <Time>2020-04-26T18:11:47.000Z</Time>
            <Position>
              <LatitudeDegrees>38.5594963096082210540771484375</LatitudeDegrees>
              <LongitudeDegrees>-28.64439644850790500640869140625</LongitudeDegrees>
            </Position>
            <AltitudeMeters>258.399993896484375</AltitudeMeters>
            <DistanceMeters>39643.845055714</DistanceMeters>
          </Trackpoint>
          <Trackpoint>
            <Time>2020-04-26T18:11:48.000Z</Time>
            <Position>
              <LatitudeDegrees>38.559585995972156524658203125</LatitudeDegrees>
              <LongitudeDegrees>-28.644290082156658172607421875</LongitudeDegrees>
            </Position>
            <AltitudeMeters>257.600006103515625</AltitudeMeters>
            <DistanceMeters>39657.459435945</DistanceMeters>
          </Trackpoint>
          <Trackpoint>
            <Time>2020-04-26T18:11:49.000Z</Time>
            <Position>
              <LatitudeDegrees>38.559652380645275115966796875</LatitudeDegrees>
              <LongitudeDegrees>-28.64415840245783329010009765625</LongitudeDegrees>
            </Position>
            <AltitudeMeters>256.600006103515625</AltitudeMeters>
            <DistanceMeters>39671.095024454</DistanceMeters>
          </Trackpoint>
          <Trackpoint>
            <Time>2020-04-26T18:11:50.000Z</Time>
            <Position>
              <LatitudeDegrees>38.55969420634210109710693359375</LatitudeDegrees>
              <LongitudeDegrees>-28.64400870166718959808349609375</LongitudeDegrees>
            </Position>
            <AltitudeMeters>256</AltitudeMeters>
            <DistanceMeters>39684.930470253</DistanceMeters>
          </Trackpoint>
          <Trackpoint>
            <Time>2020-04-26T18:11:51.000Z</Time>
            <Position>
              <LatitudeDegrees>38.55971247889101505279541015625</LatitudeDegrees>
              <LongitudeDegrees>-28.64384894259274005889892578125</LongitudeDegrees>
            </Position>
            <AltitudeMeters>255</AltitudeMeters>
            <DistanceMeters>39698.983183221</DistanceMeters>
          </Trackpoint>
          <Trackpoint>
            <Time>2020-04-26T18:11:52.000Z</Time>
            <Position>
              <LatitudeDegrees>38.5596942901611328125</LatitudeDegrees>
              <LongitudeDegrees>-28.64368616603314876556396484375</LongitudeDegrees>
            </Position>
            <AltitudeMeters>254.399993896484375</AltitudeMeters>
            <DistanceMeters>39713.294092827</DistanceMeters>
          </Trackpoint>
          <Trackpoint>
            <Time>2020-04-26T18:11:53.000Z</Time>
            <Position>
              <LatitudeDegrees>38.5596500337123870849609375</LatitudeDegrees>
              <LongitudeDegrees>-28.6435311846435070037841796875</LongitudeDegrees>
            </Position>
            <AltitudeMeters>253.600006103515625</AltitudeMeters>
            <DistanceMeters>39727.653821083</DistanceMeters>
          </Trackpoint>
          <Trackpoint>
            <Time>2020-04-26T18:11:54.000Z</Time>
            <Position>
              <LatitudeDegrees>38.5595868341624736785888671875</LatitudeDegrees>
              <LongitudeDegrees>-28.64339112304151058197021484375</LongitudeDegrees>
            </Position>
            <AltitudeMeters>253.1999969482421875</AltitudeMeters>
            <DistanceMeters>39741.728044219</DistanceMeters>
          </Trackpoint>
          <Trackpoint>
            <Time>2020-04-26T18:11:55.000Z</Time>
            <Position>
              <LatitudeDegrees>38.55952220968902111053466796875</LatitudeDegrees>
              <LongitudeDegrees>-28.64325181581079959869384765625</LongitudeDegrees>
            </Position>
            <AltitudeMeters>253</AltitudeMeters>
            <DistanceMeters>39755.825346173</DistanceMeters>
          </Trackpoint>
          <Trackpoint>
            <Time>2020-04-26T18:11:56.000Z</Time>
            <Position>
              <LatitudeDegrees>38.55946085415780544281005859375</LatitudeDegrees>
              <LongitudeDegrees>-28.64311301149427890777587890625</LongitudeDegrees>
            </Position>
            <AltitudeMeters>252.399993896484375</AltitudeMeters>
            <DistanceMeters>39769.703151129</DistanceMeters>
          </Trackpoint>
          <Trackpoint>
            <Time>2020-04-26T18:11:58.000Z</Time>
            <Position>
              <LatitudeDegrees>38.5593394003808498382568359375</LatitudeDegrees>
              <LongitudeDegrees>-28.64283808507025241851806640625</LongitudeDegrees>
            </Position>
            <AltitudeMeters>251</AltitudeMeters>
            <DistanceMeters>39797.185757518</DistanceMeters>
          </Trackpoint>
          <Trackpoint>
            <Time>2020-04-26T18:12:00.000Z</Time>
            <Position>
              <LatitudeDegrees>38.5592341236770153045654296875</LatitudeDegrees>
              <LongitudeDegrees>-28.6425733007490634918212890625</LongitudeDegrees>
            </Position>
            <AltitudeMeters>249.600006103515625</AltitudeMeters>
            <DistanceMeters>39823.038962314</DistanceMeters>
          </Trackpoint>
          <Trackpoint>
            <Time>2020-04-26T18:12:02.000Z</Time>
            <Position>
              <LatitudeDegrees>38.55911786668002605438232421875</LatitudeDegrees>
              <LongitudeDegrees>-28.64232326857745647430419921875</LongitudeDegrees>
            </Position>
            <AltitudeMeters>248.399993896484375</AltitudeMeters>
            <DistanceMeters>39848.356582981</DistanceMeters>
          </Trackpoint>
          <Trackpoint>
            <Time>2020-04-26T18:12:04.000Z</Time>
            <Position>
              <LatitudeDegrees>38.559015356004238128662109375</LatitudeDegrees>
              <LongitudeDegrees>-28.64205655641853809356689453125</LongitudeDegrees>
            </Position>
            <AltitudeMeters>246.8000030517578125</AltitudeMeters>
            <DistanceMeters>39874.222358897</DistanceMeters>
          </Trackpoint>
          <Trackpoint>
            <Time>2020-04-26T18:12:05.000Z</Time>
            <Position>
              <LatitudeDegrees>38.55897587724030017852783203125</LatitudeDegrees>
              <LongitudeDegrees>-28.64191959612071514129638671875</LongitudeDegrees>
            </Position>
            <AltitudeMeters>245.600006103515625</AltitudeMeters>
            <DistanceMeters>39886.926830013</DistanceMeters>
          </Trackpoint>
          <Trackpoint>
            <Time>2020-04-26T18:12:07.000Z</Time>
            <Position>
              <LatitudeDegrees>38.55890546925365924835205078125</LatitudeDegrees>
              <LongitudeDegrees>-28.64164173603057861328125</LongitudeDegrees>
            </Position>
            <AltitudeMeters>244.399993896484375</AltitudeMeters>
            <DistanceMeters>39912.348207844</DistanceMeters>
          </Trackpoint>
          <Trackpoint>
            <Time>2020-04-26T18:12:09.000Z</Time>
            <Position>
              <LatitudeDegrees>38.55886087752878665924072265625</LatitudeDegrees>
              <LongitudeDegrees>-28.6413508839905261993408203125</LongitudeDegrees>
            </Position>
            <AltitudeMeters>243</AltitudeMeters>
            <DistanceMeters>39938.14424171</DistanceMeters>
          </Trackpoint>
          <Trackpoint>
            <Time>2020-04-26T18:12:11.000Z</Time>
            <Position>
              <LatitudeDegrees>38.5588445328176021575927734375</LatitudeDegrees>
              <LongitudeDegrees>-28.641051985323429107666015625</LongitudeDegrees>
            </Position>
            <AltitudeMeters>241.600006103515625</AltitudeMeters>
            <DistanceMeters>39964.222280115</DistanceMeters>
          </Trackpoint>
          <Trackpoint>
            <Time>2020-04-26T18:12:13.000Z</Time>
            <Position>
              <LatitudeDegrees>38.55881963856518268585205078125</LatitudeDegrees>
              <LongitudeDegrees>-28.64074478857219219207763671875</LongitudeDegrees>
            </Position>
            <AltitudeMeters>240.399993896484375</AltitudeMeters>
            <DistanceMeters>39991.102245454</DistanceMeters>
          </Trackpoint>
          <Trackpoint>
            <Time>2020-04-26T18:12:14.000Z</Time>
            <Position>
              <LatitudeDegrees>38.5587917268276214599609375</LatitudeDegrees>
              <LongitudeDegrees>-28.6405918188393115997314453125</LongitudeDegrees>
            </Position>
            <AltitudeMeters>240</AltitudeMeters>
            <DistanceMeters>40004.773548326</DistanceMeters>
          </Trackpoint>
          <Trackpoint>
            <Time>2020-04-26T18:12:16.000Z</Time>
            <Position>
              <LatitudeDegrees>38.5586604662239551544189453125</LatitudeDegrees>
              <LongitudeDegrees>-28.6403205804526805877685546875</LongitudeDegrees>
            </Position>
            <AltitudeMeters>238.8000030517578125</AltitudeMeters>
            <DistanceMeters>40032.535664324</DistanceMeters>
          </Trackpoint>
          <Trackpoint>
            <Time>2020-04-26T18:12:18.000Z</Time>
            <Position>
              <LatitudeDegrees>38.55846424587070941925048828125</LatitudeDegrees>
              <LongitudeDegrees>-28.6401241086423397064208984375</LongitudeDegrees>
            </Position>
            <AltitudeMeters>237.600006103515625</AltitudeMeters>
            <DistanceMeters>40060.273211856</DistanceMeters>
          </Trackpoint>
          <Trackpoint>
            <Time>2020-04-26T18:12:19.000Z</Time>
            <Position>
              <LatitudeDegrees>38.558359555900096893310546875</LatitudeDegrees>
              <LongitudeDegrees>-28.6400396190583705902099609375</LongitudeDegrees>
            </Position>
            <AltitudeMeters>237.1999969482421875</AltitudeMeters>
            <DistanceMeters>40074.051757757</DistanceMeters>
          </Trackpoint>
          <Trackpoint>
            <Time>2020-04-26T18:12:20.000Z</Time>
            <Position>
              <LatitudeDegrees>38.5582634992897510528564453125</LatitudeDegrees>
              <LongitudeDegrees>-28.63994456827640533447265625</LongitudeDegrees>
            </Position>
            <AltitudeMeters>236.399993896484375</AltitudeMeters>
            <DistanceMeters>40087.570289004</DistanceMeters>
          </Trackpoint>
          <Trackpoint>
            <Time>2020-04-26T18:12:21.000Z</Time>
            <Position>
              <LatitudeDegrees>38.558185212314128875732421875</LatitudeDegrees>
              <LongitudeDegrees>-28.63982982002198696136474609375</LongitudeDegrees>
            </Position>
            <AltitudeMeters>235.600006103515625</AltitudeMeters>
            <DistanceMeters>40100.824727401</DistanceMeters>
          </Trackpoint>
          <Trackpoint>
            <Time>2020-04-26T18:12:22.000Z</Time>
            <Position>
              <LatitudeDegrees>38.5581206716597080230712890625</LatitudeDegrees>
              <LongitudeDegrees>-28.639701493084430694580078125</LongitudeDegrees>
            </Position>
            <AltitudeMeters>235.1999969482421875</AltitudeMeters>
            <DistanceMeters>40114.104349492</DistanceMeters>
          </Trackpoint>
          <Trackpoint>
            <Time>2020-04-26T18:12:25.000Z</Time>
            <Position>
              <LatitudeDegrees>38.55794758535921573638916015625</LatitudeDegrees>
              <LongitudeDegrees>-28.639325313270092010498046875</LongitudeDegrees>
            </Position>
            <AltitudeMeters>233.600006103515625</AltitudeMeters>
            <DistanceMeters>40152.092459691</DistanceMeters>
          </Trackpoint>
          <Trackpoint>
            <Time>2020-04-26T18:12:27.000Z</Time>
            <Position>
              <LatitudeDegrees>38.5578514449298381805419921875</LatitudeDegrees>
              <LongitudeDegrees>-28.639079220592975616455078125</LongitudeDegrees>
            </Position>
            <AltitudeMeters>232.8000030517578125</AltitudeMeters>
            <DistanceMeters>40176.035420514</DistanceMeters>
          </Trackpoint>
          <Trackpoint>
            <Time>2020-04-26T18:12:28.000Z</Time>
            <Position>
              <LatitudeDegrees>38.5578142292797565460205078125</LatitudeDegrees>
              <LongitudeDegrees>-28.63895022310316562652587890625</LongitudeDegrees>
            </Position>
            <AltitudeMeters>232.600006103515625</AltitudeMeters>
            <DistanceMeters>40188.002751562</DistanceMeters>
          </Trackpoint>
          <Trackpoint>
            <Time>2020-04-26T18:12:29.000Z</Time>
            <Position>
              <LatitudeDegrees>38.557780869305133819580078125</LatitudeDegrees>
              <LongitudeDegrees>-28.63881829194724559783935546875</LongitudeDegrees>
            </Position>
            <AltitudeMeters>231</AltitudeMeters>
            <DistanceMeters>40200.071518402</DistanceMeters>
          </Trackpoint>
          <Trackpoint>
            <Time>2020-04-26T18:12:31.000Z</Time>
            <Position>
              <LatitudeDegrees>38.5577188432216644287109375</LatitudeDegrees>
              <LongitudeDegrees>-28.638546802103519439697265625</LongitudeDegrees>
            </Position>
            <AltitudeMeters>230</AltitudeMeters>
            <DistanceMeters>40224.688756877</DistanceMeters>
          </Trackpoint>
          <Trackpoint>
            <Time>2020-04-26T18:12:33.000Z</Time>
            <Position>
              <LatitudeDegrees>38.55765103362500667572021484375</LatitudeDegrees>
              <LongitudeDegrees>-28.63827615045011043548583984375</LongitudeDegrees>
            </Position>
            <AltitudeMeters>228.8000030517578125</AltitudeMeters>
            <DistanceMeters>40249.424741793</DistanceMeters>
          </Trackpoint>
          <Trackpoint>
            <Time>2020-04-26T18:12:35.000Z</Time>
            <Position>
              <LatitudeDegrees>38.55757534503936767578125</LatitudeDegrees>
              <LongitudeDegrees>-28.63800675608217716217041015625</LongitudeDegrees>
            </Position>
            <AltitudeMeters>227.600006103515625</AltitudeMeters>
            <DistanceMeters>40274.33914435</DistanceMeters>
          </Trackpoint>
          <Trackpoint>
            <Time>2020-04-26T18:12:37.000Z</Time>
            <Position>
              <LatitudeDegrees>38.55748155154287815093994140625</LatitudeDegrees>
              <LongitudeDegrees>-28.63774825818836688995361328125</LongitudeDegrees>
            </Position>
            <AltitudeMeters>226.1999969482421875</AltitudeMeters>
            <DistanceMeters>40299.141662925</DistanceMeters>
          </Trackpoint>
          <Trackpoint>
            <Time>2020-04-26T18:12:38.000Z</Time>
            <Position>
              <LatitudeDegrees>38.55743008665740489959716796875</LatitudeDegrees>
              <LongitudeDegrees>-28.637625463306903839111328125</LongitudeDegrees>
            </Position>
            <AltitudeMeters>225.600006103515625</AltitudeMeters>
            <DistanceMeters>40311.267533398</DistanceMeters>
          </Trackpoint>
          <Trackpoint>
            <Time>2020-04-26T18:12:39.000Z</Time>
            <Position>
              <LatitudeDegrees>38.55737753212451934814453125</LatitudeDegrees>
              <LongitudeDegrees>-28.63750183023512363433837890625</LongitudeDegrees>
            </Position>
            <AltitudeMeters>224.8000030517578125</AltitudeMeters>
            <DistanceMeters>40323.515293597</DistanceMeters>
          </Trackpoint>
          <Trackpoint>
            <Time>2020-04-26T18:12:42.000Z</Time>
            <Position>
              <LatitudeDegrees>38.55721852742135524749755859375</LatitudeDegrees>
              <LongitudeDegrees>-28.6371316015720367431640625</LongitudeDegrees>
            </Position>
            <AltitudeMeters>223.600006103515625</AltitudeMeters>
            <DistanceMeters>40360.278721097</DistanceMeters>
          </Trackpoint>
          <Trackpoint>
            <Time>2020-04-26T18:12:44.000Z</Time>
            <Position>
              <LatitudeDegrees>38.55710285715758800506591796875</LatitudeDegrees>
              <LongitudeDegrees>-28.63688341341912746429443359375</LongitudeDegrees>
            </Position>
            <AltitudeMeters>222</AltitudeMeters>
            <DistanceMeters>40385.425813441</DistanceMeters>
          </Trackpoint>
          <Trackpoint>
            <Time>2020-04-26T18:12:46.000Z</Time>
            <Position>
              <LatitudeDegrees>38.55697981081902980804443359375</LatitudeDegrees>
              <LongitudeDegrees>-28.6366362310945987701416015625</LongitudeDegrees>
            </Position>
            <AltitudeMeters>220.600006103515625</AltitudeMeters>
            <DistanceMeters>40410.928937094</DistanceMeters>
          </Trackpoint>
          <Trackpoint>
            <Time>2020-04-26T18:12:49.000Z</Time>
            <Position>
              <LatitudeDegrees>38.55678233318030834197998046875</LatitudeDegrees>
              <LongitudeDegrees>-28.636268265545368194580078125</LongitudeDegrees>
            </Position>
            <AltitudeMeters>219.399993896484375</AltitudeMeters>
            <DistanceMeters>40449.772436072</DistanceMeters>
          </Trackpoint>
          <Trackpoint>
            <Time>2020-04-26T18:12:51.000Z</Time>
            <Position>
              <LatitudeDegrees>38.55664788745343685150146484375</LatitudeDegrees>
              <LongitudeDegrees>-28.6360159702599048614501953125</LongitudeDegrees>
            </Position>
            <AltitudeMeters>218</AltitudeMeters>
            <DistanceMeters>40476.345616494</DistanceMeters>
          </Trackpoint>
          <Trackpoint>
            <Time>2020-04-26T18:12:53.000Z</Time>
            <Position>
              <LatitudeDegrees>38.55651260353624820709228515625</LatitudeDegrees>
              <LongitudeDegrees>-28.63575805909931659698486328125</LongitudeDegrees>
            </Position>
            <AltitudeMeters>216.600006103515625</AltitudeMeters>
            <DistanceMeters>40503.375998386</DistanceMeters>
          </Trackpoint>
          <Trackpoint>
            <Time>2020-04-26T18:12:55.000Z</Time>
            <Position>
              <LatitudeDegrees>38.556388802826404571533203125</LatitudeDegrees>
              <LongitudeDegrees>-28.6354875750839710235595703125</LongitudeDegrees>
            </Position>
            <AltitudeMeters>215.399993896484375</AltitudeMeters>
            <DistanceMeters>40530.65429359</DistanceMeters>
          </Trackpoint>
          <Trackpoint>
            <Time>2020-04-26T18:12:57.000Z</Time>
            <Position>
              <LatitudeDegrees>38.55628377757966518402099609375</LatitudeDegrees>
              <LongitudeDegrees>-28.63520351238548755645751953125</LongitudeDegrees>
            </Position>
            <AltitudeMeters>213.8000030517578125</AltitudeMeters>
            <DistanceMeters>40558.002513121</DistanceMeters>
          </Trackpoint>
          <Trackpoint>
            <Time>2020-04-26T18:12:58.000Z</Time>
            <Position>
              <LatitudeDegrees>38.55624387972056865692138671875</LatitudeDegrees>
              <LongitudeDegrees>-28.63506889902055263519287109375</LongitudeDegrees>
            </Position>
            <AltitudeMeters>213</AltitudeMeters>
            <DistanceMeters>40570.532353865</DistanceMeters>
          </Trackpoint>
          <Trackpoint>
            <Time>2020-04-26T18:12:59.000Z</Time>
            <Position>
              <LatitudeDegrees>38.55621940456330776214599609375</LatitudeDegrees>
              <LongitudeDegrees>-28.63494149409234523773193359375</LongitudeDegrees>
            </Position>
            <AltitudeMeters>212.600006103515625</AltitudeMeters>
            <DistanceMeters>40581.950990989</DistanceMeters>
          </Trackpoint>
          <Trackpoint>
            <Time>2020-04-26T18:13:01.000Z</Time>
            <Position>
              <LatitudeDegrees>38.55624421499669551849365234375</LatitudeDegrees>
              <LongitudeDegrees>-28.6346819065511226654052734375</LongitudeDegrees>
            </Position>
            <AltitudeMeters>211.8000030517578125</AltitudeMeters>
            <DistanceMeters>40604.71301344</DistanceMeters>
          </Trackpoint>
          <Trackpoint>
            <Time>2020-04-26T18:13:02.000Z</Time>
            <Position>
              <LatitudeDegrees>38.55629048310220241546630859375</LatitudeDegrees>
              <LongitudeDegrees>-28.6345622129738330841064453125</LongitudeDegrees>
            </Position>
            <AltitudeMeters>211.600006103515625</AltitudeMeters>
            <DistanceMeters>40616.334279434</DistanceMeters>
          </Trackpoint>
          <Trackpoint>
            <Time>2020-04-26T18:13:04.000Z</Time>
            <Position>
              <LatitudeDegrees>38.5563447140157222747802734375</LatitudeDegrees>
              <LongitudeDegrees>-28.63429994322359561920166015625</LongitudeDegrees>
            </Position>
            <AltitudeMeters>210.600006103515625</AltitudeMeters>
            <DistanceMeters>40639.946266849</DistanceMeters>
          </Trackpoint>
          <Trackpoint>
            <Time>2020-04-26T18:13:05.000Z</Time>
            <Position>
              <LatitudeDegrees>38.5563361644744873046875</LatitudeDegrees>
              <LongitudeDegrees>-28.6341588757932186126708984375</LongitudeDegrees>
            </Position>
            <AltitudeMeters>209.8000030517578125</AltitudeMeters>
            <DistanceMeters>40652.260937117</DistanceMeters>
          </Trackpoint>
          <Trackpoint>
            <Time>2020-04-26T18:13:06.000Z</Time>
            <Position>
              <LatitudeDegrees>38.55630808509886264801025390625</LatitudeDegrees>
              <LongitudeDegrees>-28.63402132876217365264892578125</LongitudeDegrees>
            </Position>
            <AltitudeMeters>209</AltitudeMeters>
            <DistanceMeters>40664.634130562</DistanceMeters>
          </Trackpoint>
          <Trackpoint>
            <Time>2020-04-26T18:13:07.000Z</Time>
            <Position>
              <LatitudeDegrees>38.556271456182003021240234375</LatitudeDegrees>
              <LongitudeDegrees>-28.63388218916952610015869140625</LongitudeDegrees>
            </Position>
            <AltitudeMeters>208.399993896484375</AltitudeMeters>
            <DistanceMeters>40677.41195558</DistanceMeters>
          </Trackpoint>
          <Trackpoint>
            <Time>2020-04-26T18:13:08.000Z</Time>
            <Position>
              <LatitudeDegrees>38.55623952113091945648193359375</LatitudeDegrees>
              <LongitudeDegrees>-28.63373869098722934722900390625</LongitudeDegrees>
            </Position>
            <AltitudeMeters>207.600006103515625</AltitudeMeters>
            <DistanceMeters>40690.397626433</DistanceMeters>
          </Trackpoint>
          <Trackpoint>
            <Time>2020-04-26T18:13:09.000Z</Time>
            <Position>
              <LatitudeDegrees>38.55621890164911746978759765625</LatitudeDegrees>
              <LongitudeDegrees>-28.63359116949141025543212890625</LongitudeDegrees>
            </Position>
            <AltitudeMeters>206.600006103515625</AltitudeMeters>
            <DistanceMeters>40703.441579069</DistanceMeters>
          </Trackpoint>
          <Trackpoint>
            <Time>2020-04-26T18:13:10.000Z</Time>
            <Position>
              <LatitudeDegrees>38.5561981983482837677001953125</LatitudeDegrees>
              <LongitudeDegrees>-28.63344163633882999420166015625</LongitudeDegrees>
            </Position>
            <AltitudeMeters>206.1999969482421875</AltitudeMeters>
            <DistanceMeters>40716.658835172</DistanceMeters>
          </Trackpoint>
          <Trackpoint>
            <Time>2020-04-26T18:13:11.000Z</Time>
            <Position>
              <LatitudeDegrees>38.5561623238027095794677734375</LatitudeDegrees>
              <LongitudeDegrees>-28.63329562358558177947998046875</LongitudeDegrees>
            </Position>
            <AltitudeMeters>205.8000030517578125</AltitudeMeters>
            <DistanceMeters>40729.980211312</DistanceMeters>
          </Trackpoint>
          <Trackpoint>
            <Time>2020-04-26T18:13:13.000Z</Time>
            <Position>
              <LatitudeDegrees>38.556055538356304168701171875</LatitudeDegrees>
              <LongitudeDegrees>-28.633022792637348175048828125</LongitudeDegrees>
            </Position>
            <AltitudeMeters>205</AltitudeMeters>
            <DistanceMeters>40756.535205185</DistanceMeters>
          </Trackpoint>
          <Trackpoint>
            <Time>2020-04-26T18:13:15.000Z</Time>
            <Position>
              <LatitudeDegrees>38.55593584477901458740234375</LatitudeDegrees>
              <LongitudeDegrees>-28.63276119343936443328857421875</LongitudeDegrees>
            </Position>
            <AltitudeMeters>203.600006103515625</AltitudeMeters>
            <DistanceMeters>40782.915346792</DistanceMeters>
          </Trackpoint>
          <Trackpoint>
            <Time>2020-04-26T18:13:16.000Z</Time>
            <Position>
              <LatitudeDegrees>38.5559029877185821533203125</LatitudeDegrees>
              <LongitudeDegrees>-28.63264518789947032928466796875</LongitudeDegrees>
            </Position>
            <AltitudeMeters>203</AltitudeMeters>
            <DistanceMeters>40793.65378598</DistanceMeters>
          </Trackpoint>
          <Trackpoint>
            <Time>2020-04-26T18:13:17.000Z</Time>
            <Position>
              <LatitudeDegrees>38.5558867268264293670654296875</LatitudeDegrees>
              <LongitudeDegrees>-28.632554747164249420166015625</LongitudeDegrees>
            </Position>
            <AltitudeMeters>201.8000030517578125</AltitudeMeters>
            <DistanceMeters>40801.730497702</DistanceMeters>
          </Trackpoint>
          <Trackpoint>
            <Time>2020-04-26T18:13:19.000Z</Time>
            <Position>
              <LatitudeDegrees>38.55586535297334194183349609375</LatitudeDegrees>
              <LongitudeDegrees>-28.6323913000524044036865234375</LongitudeDegrees>
            </Position>
            <AltitudeMeters>201.1999969482421875</AltitudeMeters>
            <DistanceMeters>40816.153912731</DistanceMeters>
          </Trackpoint>
          <Trackpoint>
            <Time>2020-04-26T18:13:20.000Z</Time>
            <Position>
              <LatitudeDegrees>38.555863089859485626220703125</LatitudeDegrees>
              <LongitudeDegrees>-28.6323205567896366119384765625</LongitudeDegrees>
            </Position>
            <AltitudeMeters>200.8000030517578125</AltitudeMeters>
            <DistanceMeters>40822.316744996</DistanceMeters>
          </Trackpoint>
          <Trackpoint>
            <Time>2020-04-26T18:13:22.000Z</Time>
            <Position>
              <LatitudeDegrees>38.555852361023426055908203125</LatitudeDegrees>
              <LongitudeDegrees>-28.63218368031084537506103515625</LongitudeDegrees>
            </Position>
            <AltitudeMeters>200</AltitudeMeters>
            <DistanceMeters>40834.289356802</DistanceMeters>
          </Trackpoint>
          <Trackpoint>
            <Time>2020-04-26T18:13:23.000Z</Time>
            <Position>
              <LatitudeDegrees>38.5558386147022247314453125</LatitudeDegrees>
              <LongitudeDegrees>-28.63211343996226787567138671875</LongitudeDegrees>
            </Position>
            <AltitudeMeters>200</AltitudeMeters>
            <DistanceMeters>40840.59128319</DistanceMeters>
          </Trackpoint>
          <Trackpoint>
            <Time>2020-04-26T18:13:25.000Z</Time>
            <Position>
              <LatitudeDegrees>38.55581690557301044464111328125</LatitudeDegrees>
              <LongitudeDegrees>-28.63197949714958667755126953125</LongitudeDegrees>
            </Position>
            <AltitudeMeters>199.600006103515625</AltitudeMeters>
            <DistanceMeters>40852.497337953</DistanceMeters>
          </Trackpoint>
          <Trackpoint>
            <Time>2020-04-26T18:13:28.000Z</Time>
            <Position>
              <LatitudeDegrees>38.55579360388219356536865234375</LatitudeDegrees>
              <LongitudeDegrees>-28.6317805945873260498046875</LongitudeDegrees>
            </Position>
            <AltitudeMeters>199</AltitudeMeters>
            <DistanceMeters>40870.002383342</DistanceMeters>
          </Trackpoint>
          <Trackpoint>
            <Time>2020-04-26T18:13:30.000Z</Time>
            <Position>
              <LatitudeDegrees>38.5557764209806919097900390625</LatitudeDegrees>
              <LongitudeDegrees>-28.63163483329117298126220703125</LongitudeDegrees>
            </Position>
            <AltitudeMeters>198.8000030517578125</AltitudeMeters>
            <DistanceMeters>40882.832397508</DistanceMeters>
          </Trackpoint>
          <Trackpoint>
            <Time>2020-04-26T18:13:31.000Z</Time>
            <Position>
              <LatitudeDegrees>38.5557680390775203704833984375</LatitudeDegrees>
              <LongitudeDegrees>-28.63155855797231197357177734375</LongitudeDegrees>
            </Position>
            <AltitudeMeters>198.600006103515625</AltitudeMeters>
            <DistanceMeters>40889.537001936</DistanceMeters>
          </Trackpoint>
          <Trackpoint>
            <Time>2020-04-26T18:13:35.000Z</Time>
            <Position>
              <LatitudeDegrees>38.55572369880974292755126953125</LatitudeDegrees>
              <LongitudeDegrees>-28.631232418119907379150390625</LongitudeDegrees>
            </Position>
            <AltitudeMeters>198</AltitudeMeters>
            <DistanceMeters>40918.349220829</DistanceMeters>
          </Trackpoint>
          <Trackpoint>
            <Time>2020-04-26T18:13:36.000Z</Time>
            <Position>
              <LatitudeDegrees>38.55570676736533641815185546875</LatitudeDegrees>
              <LongitudeDegrees>-28.63114130683243274688720703125</LongitudeDegrees>
            </Position>
            <AltitudeMeters>197.399993896484375</AltitudeMeters>
            <DistanceMeters>40926.49994303</DistanceMeters>
          </Trackpoint>
          <Trackpoint>
            <Time>2020-04-26T18:13:37.000Z</Time>
            <Position>
              <LatitudeDegrees>38.55568195693194866180419921875</LatitudeDegrees>
              <LongitudeDegrees>-28.63104072399437427520751953125</LongitudeDegrees>
            </Position>
            <AltitudeMeters>196.600006103515625</AltitudeMeters>
            <DistanceMeters>40935.679248195</DistanceMeters>
          </Trackpoint>
          <Trackpoint>
            <Time>2020-04-26T18:13:38.000Z</Time>
            <Position>
              <LatitudeDegrees>38.55564616620540618896484375</LatitudeDegrees>
              <LongitudeDegrees>-28.63094131462275981903076171875</LongitudeDegrees>
            </Position>
            <AltitudeMeters>196</AltitudeMeters>
            <DistanceMeters>40945.204224732</DistanceMeters>
          </Trackpoint>
          <Trackpoint>
            <Time>2020-04-26T18:13:39.000Z</Time>
            <Position>
              <LatitudeDegrees>38.55560123920440673828125</LatitudeDegrees>
              <LongitudeDegrees>-28.63083989359438419342041015625</LongitudeDegrees>
            </Position>
            <AltitudeMeters>195.600006103515625</AltitudeMeters>
            <DistanceMeters>40955.34941134</DistanceMeters>
          </Trackpoint>
          <Trackpoint>
            <Time>2020-04-26T18:13:41.000Z</Time>
            <Position>
              <LatitudeDegrees>38.55549369938671588897705078125</LatitudeDegrees>
              <LongitudeDegrees>-28.6306435056030750274658203125</LongitudeDegrees>
            </Position>
            <AltitudeMeters>195.1999969482421875</AltitudeMeters>
            <DistanceMeters>40976.216810466</DistanceMeters>
          </Trackpoint>
          <Trackpoint>
            <Time>2020-04-26T18:13:43.000Z</Time>
            <Position>
              <LatitudeDegrees>38.55537719093263149261474609375</LatitudeDegrees>
              <LongitudeDegrees>-28.6304480396211147308349609375</LongitudeDegrees>
            </Position>
            <AltitudeMeters>195.1999969482421875</AltitudeMeters>
            <DistanceMeters>40997.608588182</DistanceMeters>
          </Trackpoint>
          <Trackpoint>
            <Time>2020-04-26T18:13:44.000Z</Time>
            <Position>
              <LatitudeDegrees>38.55531533248722553253173828125</LatitudeDegrees>
              <LongitudeDegrees>-28.63034737296402454376220703125</LongitudeDegrees>
            </Position>
            <AltitudeMeters>195.1999969482421875</AltitudeMeters>
            <DistanceMeters>41008.75226851</DistanceMeters>
          </Trackpoint>
          <Trackpoint>
            <Time>2020-04-26T18:13:47.000Z</Time>
            <Position>
              <LatitudeDegrees>38.555128835141658782958984375</LatitudeDegrees>
              <LongitudeDegrees>-28.63004227168858051300048828125</LongitudeDegrees>
            </Position>
            <AltitudeMeters>195.1999969482421875</AltitudeMeters>
            <DistanceMeters>41042.458232042</DistanceMeters>
          </Trackpoint>
          <Trackpoint>
            <Time>2020-04-26T18:13:48.000Z</Time>
            <Position>
              <LatitudeDegrees>38.5550666414201259613037109375</LatitudeDegrees>
              <LongitudeDegrees>-28.62994370050728321075439453125</LongitudeDegrees>
            </Position>
            <AltitudeMeters>194.1999969482421875</AltitudeMeters>
            <DistanceMeters>41053.482559634</DistanceMeters>
          </Trackpoint>
          <Trackpoint>
            <Time>2020-04-26T18:13:51.000Z</Time>
            <Position>
              <LatitudeDegrees>38.55488148517906665802001953125</LatitudeDegrees>
              <LongitudeDegrees>-28.62966039218008518218994140625</LongitudeDegrees>
            </Position>
            <AltitudeMeters>193.600006103515625</AltitudeMeters>
            <DistanceMeters>41085.61929629</DistanceMeters>
          </Trackpoint>
          <Trackpoint>
            <Time>2020-04-26T18:13:52.000Z</Time>
            <Position>
              <LatitudeDegrees>38.5548061318695545196533203125</LatitudeDegrees>
              <LongitudeDegrees>-28.62958252429962158203125</LongitudeDegrees>
            </Position>
            <AltitudeMeters>193.399993896484375</AltitudeMeters>
            <DistanceMeters>41096.402630392</DistanceMeters>
          </Trackpoint>
          <Trackpoint>
            <Time>2020-04-26T18:13:54.000Z</Time>
            <Position>
              <LatitudeDegrees>38.554634638130664825439453125</LatitudeDegrees>
              <LongitudeDegrees>-28.6294593103229999542236328125</LongitudeDegrees>
            </Position>
            <AltitudeMeters>193.399993896484375</AltitudeMeters>
            <DistanceMeters>41118.296752388</DistanceMeters>
          </Trackpoint>
          <Trackpoint>
            <Time>2020-04-26T18:13:57.000Z</Time>
            <Position>
              <LatitudeDegrees>38.5543991066515445709228515625</LatitudeDegrees>
              <LongitudeDegrees>-28.6292477510869503021240234375</LongitudeDegrees>
            </Position>
            <AltitudeMeters>193.1999969482421875</AltitudeMeters>
            <DistanceMeters>41150.332877906</DistanceMeters>
          </Trackpoint>
          <Trackpoint>
            <Time>2020-04-26T18:13:59.000Z</Time>
            <Position>
              <LatitudeDegrees>38.55424680747091770172119140625</LatitudeDegrees>
              <LongitudeDegrees>-28.6291096173226833343505859375</LongitudeDegrees>
            </Position>
            <AltitudeMeters>192.600006103515625</AltitudeMeters>
            <DistanceMeters>41171.115070434</DistanceMeters>
          </Trackpoint>
          <Trackpoint>
            <Time>2020-04-26T18:14:05.000Z</Time>
            <Position>
              <LatitudeDegrees>38.55379083193838596343994140625</LatitudeDegrees>
              <LongitudeDegrees>-28.62869379110634326934814453125</LongitudeDegrees>
            </Position>
            <AltitudeMeters>192.600006103515625</AltitudeMeters>
            <DistanceMeters>41233.449987566</DistanceMeters>
          </Trackpoint>
          <Trackpoint>
            <Time>2020-04-26T18:14:09.000Z</Time>
            <Position>
              <LatitudeDegrees>38.553490675985813140869140625</LatitudeDegrees>
              <LongitudeDegrees>-28.6284333653748035430908203125</LongitudeDegrees>
            </Position>
            <AltitudeMeters>192.1999969482421875</AltitudeMeters>
            <DistanceMeters>41273.822140567</DistanceMeters>
          </Trackpoint>
          <Trackpoint>
            <Time>2020-04-26T18:14:13.000Z</Time>
            <Position>
              <LatitudeDegrees>38.55319621972739696502685546875</LatitudeDegrees>
              <LongitudeDegrees>-28.628168664872646331787109375</LongitudeDegrees>
            </Position>
            <AltitudeMeters>192</AltitudeMeters>
            <DistanceMeters>41313.883762433</DistanceMeters>
          </Trackpoint>
          <Trackpoint>
            <Time>2020-04-26T18:14:15.000Z</Time>
            <Position>
              <LatitudeDegrees>38.55303947813808917999267578125</LatitudeDegrees>
              <LongitudeDegrees>-28.62801770679652690887451171875</LongitudeDegrees>
            </Position>
            <AltitudeMeters>190.8000030517578125</AltitudeMeters>
            <DistanceMeters>41335.72420103</DistanceMeters>
          </Trackpoint>
          <Trackpoint>
            <Time>2020-04-26T18:14:16.000Z</Time>
            <Position>
              <LatitudeDegrees>38.5529808886349201202392578125</LatitudeDegrees>
              <LongitudeDegrees>-28.6279356479644775390625</LongitudeDegrees>
            </Position>
            <AltitudeMeters>189.8000030517578125</AltitudeMeters>
            <DistanceMeters>41345.396408221</DistanceMeters>
          </Trackpoint>
          <Trackpoint>
            <Time>2020-04-26T18:14:17.000Z</Time>
            <Position>
              <LatitudeDegrees>38.55294920504093170166015625</LatitudeDegrees>
              <LongitudeDegrees>-28.6278389208018779754638671875</LongitudeDegrees>
            </Position>
            <AltitudeMeters>189.1999969482421875</AltitudeMeters>
            <DistanceMeters>41354.524910038</DistanceMeters>
          </Trackpoint>
          <Trackpoint>
            <Time>2020-04-26T18:14:18.000Z</Time>
            <Position>
              <LatitudeDegrees>38.55294979177415370941162109375</LatitudeDegrees>
              <LongitudeDegrees>-28.62773305736482143402099609375</LongitudeDegrees>
            </Position>
            <AltitudeMeters>188.399993896484375</AltitudeMeters>
            <DistanceMeters>41363.740051865</DistanceMeters>
          </Trackpoint>
          <Trackpoint>
            <Time>2020-04-26T18:14:19.000Z</Time>
            <Position>
              <LatitudeDegrees>38.552962951362133026123046875</LatitudeDegrees>
              <LongitudeDegrees>-28.62762509845197200775146484375</LongitudeDegrees>
            </Position>
            <AltitudeMeters>187.8000030517578125</AltitudeMeters>
            <DistanceMeters>41373.249847635</DistanceMeters>
          </Trackpoint>
          <Trackpoint>
            <Time>2020-04-26T18:14:20.000Z</Time>
            <Position>
              <LatitudeDegrees>38.5529765300452709197998046875</LatitudeDegrees>
              <LongitudeDegrees>-28.62751412205398082733154296875</LongitudeDegrees>
            </Position>
            <AltitudeMeters>187.1999969482421875</AltitudeMeters>
            <DistanceMeters>41383.026983679</DistanceMeters>
          </Trackpoint>
          <Trackpoint>
            <Time>2020-04-26T18:14:21.000Z</Time>
            <Position>
              <LatitudeDegrees>38.5529885999858379364013671875</LatitudeDegrees>
              <LongitudeDegrees>-28.62739962525665760040283203125</LongitudeDegrees>
            </Position>
            <AltitudeMeters>186.399993896484375</AltitudeMeters>
            <DistanceMeters>41393.083665845</DistanceMeters>
          </Trackpoint>
          <Trackpoint>
            <Time>2020-04-26T18:14:22.000Z</Time>
            <Position>
              <LatitudeDegrees>38.5529822297394275665283203125</LatitudeDegrees>
              <LongitudeDegrees>-28.627286218106746673583984375</LongitudeDegrees>
            </Position>
            <AltitudeMeters>185.600006103515625</AltitudeMeters>
            <DistanceMeters>41402.980140424</DistanceMeters>
          </Trackpoint>
          <Trackpoint>
            <Time>2020-04-26T18:14:23.000Z</Time>
            <Position>
              <LatitudeDegrees>38.552944175899028778076171875</LatitudeDegrees>
              <LongitudeDegrees>-28.62719141878187656402587890625</LongitudeDegrees>
            </Position>
            <AltitudeMeters>185</AltitudeMeters>
            <DistanceMeters>41412.254864582</DistanceMeters>
          </Trackpoint>
          <Trackpoint>
            <Time>2020-04-26T18:14:24.000Z</Time>
            <Position>
              <LatitudeDegrees>38.5528896935284137725830078125</LatitudeDegrees>
              <LongitudeDegrees>-28.62711715511977672576904296875</LongitudeDegrees>
            </Position>
            <AltitudeMeters>184.399993896484375</AltitudeMeters>
            <DistanceMeters>41421.117347581</DistanceMeters>
          </Trackpoint>
          <Trackpoint>
            <Time>2020-04-26T18:14:26.000Z</Time>
            <Position>
              <LatitudeDegrees>38.55275583453476428985595703125</LatitudeDegrees>
              <LongitudeDegrees>-28.62700232304632663726806640625</LongitudeDegrees>
            </Position>
            <AltitudeMeters>184.600006103515625</AltitudeMeters>
            <DistanceMeters>41439.058028861</DistanceMeters>
          </Trackpoint>
          <Trackpoint>
            <Time>2020-04-26T18:14:27.000Z</Time>
            <Position>
              <LatitudeDegrees>38.552688024938106536865234375</LatitudeDegrees>
              <LongitudeDegrees>-28.6269440688192844390869140625</LongitudeDegrees>
            </Position>
            <AltitudeMeters>184.8000030517578125</AltitudeMeters>
            <DistanceMeters>41448.150849101</DistanceMeters>
          </Trackpoint>
          <Trackpoint>
            <Time>2020-04-26T18:14:28.000Z</Time>
            <Position>
              <LatitudeDegrees>38.5526214726269245147705078125</LatitudeDegrees>
              <LongitudeDegrees>-28.62688413821160793304443359375</LongitudeDegrees>
            </Position>
            <AltitudeMeters>185.1999969482421875</AltitudeMeters>
            <DistanceMeters>41457.210837781</DistanceMeters>
          </Trackpoint>
          <Trackpoint>
            <Time>2020-04-26T18:14:30.000Z</Time>
            <Position>
              <LatitudeDegrees>38.5525021143257617950439453125</LatitudeDegrees>
              <LongitudeDegrees>-28.6267348565161228179931640625</LongitudeDegrees>
            </Position>
            <AltitudeMeters>185.1999969482421875</AltitudeMeters>
            <DistanceMeters>41475.793845701</DistanceMeters>
          </Trackpoint>
          <Trackpoint>
            <Time>2020-04-26T18:14:32.000Z</Time>
            <Position>
              <LatitudeDegrees>38.55241678655147552490234375</LatitudeDegrees>
              <LongitudeDegrees>-28.62655590288341045379638671875</LongitudeDegrees>
            </Position>
            <AltitudeMeters>185.399993896484375</AltitudeMeters>
            <DistanceMeters>41494.03724252</DistanceMeters>
          </Trackpoint>
          <Trackpoint>
            <Time>2020-04-26T18:14:34.000Z</Time>
            <Position>
              <LatitudeDegrees>38.55234704911708831787109375</LatitudeDegrees>
              <LongitudeDegrees>-28.62637736834585666656494140625</LongitudeDegrees>
            </Position>
            <AltitudeMeters>186.399993896484375</AltitudeMeters>
            <DistanceMeters>41511.407647648</DistanceMeters>
          </Trackpoint>
          <Trackpoint>
            <Time>2020-04-26T18:14:37.000Z</Time>
            <Position>
              <LatitudeDegrees>38.55224453844130039215087890625</LatitudeDegrees>
              <LongitudeDegrees>-28.62611912190914154052734375</LongitudeDegrees>
            </Position>
            <AltitudeMeters>187.600006103515625</AltitudeMeters>
            <DistanceMeters>41536.615711424</DistanceMeters>
          </Trackpoint>
          <Trackpoint>
            <Time>2020-04-26T18:14:40.000Z</Time>
            <Position>
              <LatitudeDegrees>38.5521453805267810821533203125</LatitudeDegrees>
              <LongitudeDegrees>-28.62585551105439662933349609375</LongitudeDegrees>
            </Position>
            <AltitudeMeters>187.8000030517578125</AltitudeMeters>
            <DistanceMeters>41562.077197007</DistanceMeters>
          </Trackpoint>
          <Trackpoint>
            <Time>2020-04-26T18:14:45.000Z</Time>
            <Position>
              <LatitudeDegrees>38.5519472323358058929443359375</LatitudeDegrees>
              <LongitudeDegrees>-28.62537321634590625762939453125</LongitudeDegrees>
            </Position>
            <AltitudeMeters>186</AltitudeMeters>
            <DistanceMeters>41609.498098271</DistanceMeters>
          </Trackpoint>
          <Trackpoint>
            <Time>2020-04-26T18:14:46.000Z</Time>
            <Position>
              <LatitudeDegrees>38.55190339498221874237060546875</LatitudeDegrees>
              <LongitudeDegrees>-28.62526441924273967742919921875</LongitudeDegrees>
            </Position>
            <AltitudeMeters>185.8000030517578125</AltitudeMeters>
            <DistanceMeters>41620.151266849</DistanceMeters>
          </Trackpoint>
          <Trackpoint>
            <Time>2020-04-26T18:14:48.000Z</Time>
            <Position>
              <LatitudeDegrees>38.55180884711444377899169921875</LatitudeDegrees>
              <LongitudeDegrees>-28.6250370182096958160400390625</LongitudeDegrees>
            </Position>
            <AltitudeMeters>184.600006103515625</AltitudeMeters>
            <DistanceMeters>41642.568509859</DistanceMeters>
          </Trackpoint>
          <Trackpoint>
            <Time>2020-04-26T18:14:50.000Z</Time>
            <Position>
              <LatitudeDegrees>38.5517106950283050537109375</LatitudeDegrees>
              <LongitudeDegrees>-28.62479704432189464569091796875</LongitudeDegrees>
            </Position>
            <AltitudeMeters>183</AltitudeMeters>
            <DistanceMeters>41666.141073444</DistanceMeters>
          </Trackpoint>
          <Trackpoint>
            <Time>2020-04-26T18:14:52.000Z</Time>
            <Position>
              <LatitudeDegrees>38.551608435809612274169921875</LatitudeDegrees>
              <LongitudeDegrees>-28.6245398037135601043701171875</LongitudeDegrees>
            </Position>
            <AltitudeMeters>181.1999969482421875</AltitudeMeters>
            <DistanceMeters>41691.258703126</DistanceMeters>
          </Trackpoint>
          <Trackpoint>
            <Time>2020-04-26T18:14:53.000Z</Time>
            <Position>
              <LatitudeDegrees>38.55155671946704387664794921875</LatitudeDegrees>
              <LongitudeDegrees>-28.6244070343673229217529296875</LongitudeDegrees>
            </Position>
            <AltitudeMeters>179.600006103515625</AltitudeMeters>
            <DistanceMeters>41704.169403381</DistanceMeters>
          </Trackpoint>
          <Trackpoint>
            <Time>2020-04-26T18:14:55.000Z</Time>
            <Position>
              <LatitudeDegrees>38.5514506883919239044189453125</LatitudeDegrees>
              <LongitudeDegrees>-28.62413789145648479461669921875</LongitudeDegrees>
            </Position>
            <AltitudeMeters>178.600006103515625</AltitudeMeters>
            <DistanceMeters>41730.401252061</DistanceMeters>
          </Trackpoint>
          <Trackpoint>
            <Time>2020-04-26T18:14:58.000Z</Time>
            <Position>
              <LatitudeDegrees>38.5513021610677242279052734375</LatitudeDegrees>
              <LongitudeDegrees>-28.62371108494699001312255859375</LongitudeDegrees>
            </Position>
            <AltitudeMeters>177.1999969482421875</AltitudeMeters>
            <DistanceMeters>41771.06413695</DistanceMeters>
          </Trackpoint>
          <Trackpoint>
            <Time>2020-04-26T18:14:59.000Z</Time>
            <Position>
              <LatitudeDegrees>38.55125715024769306182861328125</LatitudeDegrees>
              <LongitudeDegrees>-28.62356138415634632110595703125</LongitudeDegrees>
            </Position>
            <AltitudeMeters>176.399993896484375</AltitudeMeters>
            <DistanceMeters>41785.024334291</DistanceMeters>
          </Trackpoint>
          <Trackpoint>
            <Time>2020-04-26T18:15:00.000Z</Time>
            <Position>
              <LatitudeDegrees>38.55121691711246967315673828125</LatitudeDegrees>
              <LongitudeDegrees>-28.6234058998525142669677734375</LongitudeDegrees>
            </Position>
            <AltitudeMeters>175.1999969482421875</AltitudeMeters>
            <DistanceMeters>41799.279608413</DistanceMeters>
          </Trackpoint>
          <Trackpoint>
            <Time>2020-04-26T18:15:02.000Z</Time>
            <Position>
              <LatitudeDegrees>38.55113578028976917266845703125</LatitudeDegrees>
              <LongitudeDegrees>-28.6230883933603763580322265625</LongitudeDegrees>
            </Position>
            <AltitudeMeters>173.399993896484375</AltitudeMeters>
            <DistanceMeters>41828.354677396</DistanceMeters>
          </Trackpoint>
          <Trackpoint>
            <Time>2020-04-26T18:15:04.000Z</Time>
            <Position>
              <LatitudeDegrees>38.5510553978383541107177734375</LatitudeDegrees>
              <LongitudeDegrees>-28.62276409752666950225830078125</LongitudeDegrees>
            </Position>
            <AltitudeMeters>172.600006103515625</AltitudeMeters>
            <DistanceMeters>41857.966745936</DistanceMeters>
          </Trackpoint>
          <Trackpoint>
            <Time>2020-04-26T18:15:05.000Z</Time>
            <Position>
              <LatitudeDegrees>38.551015667617321014404296875</LatitudeDegrees>
              <LongitudeDegrees>-28.6226032488048076629638671875</LongitudeDegrees>
            </Position>
            <AltitudeMeters>171.8000030517578125</AltitudeMeters>
            <DistanceMeters>41872.649526497</DistanceMeters>
          </Trackpoint>
          <Trackpoint>
            <Time>2020-04-26T18:15:07.000Z</Time>
            <Position>
              <LatitudeDegrees>38.5509363748133182525634765625</LatitudeDegrees>
              <LongitudeDegrees>-28.62228616140782833099365234375</LongitudeDegrees>
            </Position>
            <AltitudeMeters>170.600006103515625</AltitudeMeters>
            <DistanceMeters>41901.626598265</DistanceMeters>
          </Trackpoint>
          <Trackpoint>
            <Time>2020-04-26T18:15:10.000Z</Time>
            <Position>
              <LatitudeDegrees>38.55082011781632900238037109375</LatitudeDegrees>
              <LongitudeDegrees>-28.621823228895664215087890625</LongitudeDegrees>
            </Position>
            <AltitudeMeters>169.1999969482421875</AltitudeMeters>
            <DistanceMeters>41943.948812799</DistanceMeters>
          </Trackpoint>
          <Trackpoint>
            <Time>2020-04-26T18:15:13.000Z</Time>
            <Position>
              <LatitudeDegrees>38.5506909526884555816650390625</LatitudeDegrees>
              <LongitudeDegrees>-28.62136834301054477691650390625</LongitudeDegrees>
            </Position>
            <AltitudeMeters>167.8000030517578125</AltitudeMeters>
            <DistanceMeters>41986.073202429</DistanceMeters>
          </Trackpoint>
          <Trackpoint>
            <Time>2020-04-26T18:15:15.000Z</Time>
            <Position>
              <LatitudeDegrees>38.55056815780699253082275390625</LatitudeDegrees>
              <LongitudeDegrees>-28.6210774071514606475830078125</LongitudeDegrees>
            </Position>
            <AltitudeMeters>166</AltitudeMeters>
            <DistanceMeters>42014.850297843</DistanceMeters>
          </Trackpoint>
          <Trackpoint>
            <Time>2020-04-26T18:15:16.000Z</Time>
            <Position>
              <LatitudeDegrees>38.550491966307163238525390625</LatitudeDegrees>
              <LongitudeDegrees>-28.62093952484428882598876953125</LongitudeDegrees>
            </Position>
            <AltitudeMeters>164.600006103515625</AltitudeMeters>
            <DistanceMeters>42029.545987968</DistanceMeters>
          </Trackpoint>
          <Trackpoint>
            <Time>2020-04-26T18:15:17.000Z</Time>
            <Position>
              <LatitudeDegrees>38.5504044592380523681640625</LatitudeDegrees>
              <LongitudeDegrees>-28.62080574966967105865478515625</LongitudeDegrees>
            </Position>
            <AltitudeMeters>163.1999969482421875</AltitudeMeters>
            <DistanceMeters>42044.726486999</DistanceMeters>
          </Trackpoint>
          <Trackpoint>
            <Time>2020-04-26T18:15:18.000Z</Time>
            <Position>
              <LatitudeDegrees>38.5503080673515796661376953125</LatitudeDegrees>
              <LongitudeDegrees>-28.62067717127501964569091796875</LongitudeDegrees>
            </Position>
            <AltitudeMeters>159.8000030517578125</AltitudeMeters>
            <DistanceMeters>42060.230118019</DistanceMeters>
          </Trackpoint>
          <Trackpoint>
            <Time>2020-04-26T18:15:19.000Z</Time>
            <Position>
              <LatitudeDegrees>38.55020974762737751007080078125</LatitudeDegrees>
              <LongitudeDegrees>-28.620548509061336517333984375</LongitudeDegrees>
            </Position>
            <AltitudeMeters>158.1999969482421875</AltitudeMeters>
            <DistanceMeters>42075.888202369</DistanceMeters>
          </Trackpoint>
          <Trackpoint>
            <Time>2020-04-26T18:15:21.000Z</Time>
            <Position>
              <LatitudeDegrees>38.55000103823840618133544921875</LatitudeDegrees>
              <LongitudeDegrees>-28.6203012429177761077880859375</LongitudeDegrees>
            </Position>
            <AltitudeMeters>156.8000030517578125</AltitudeMeters>
            <DistanceMeters>42107.556487606</DistanceMeters>
          </Trackpoint>
          <Trackpoint>
            <Time>2020-04-26T18:15:23.000Z</Time>
            <Position>
              <LatitudeDegrees>38.5497823543846607208251953125</LatitudeDegrees>
              <LongitudeDegrees>-28.62010854296386241912841796875</LongitudeDegrees>
            </Position>
            <AltitudeMeters>155</AltitudeMeters>
            <DistanceMeters>42137.116517158</DistanceMeters>
          </Trackpoint>
          <Trackpoint>
            <Time>2020-04-26T18:15:24.000Z</Time>
            <Position>
              <LatitudeDegrees>38.549662493169307708740234375</LatitudeDegrees>
              <LongitudeDegrees>-28.62006478942930698394775390625</LongitudeDegrees>
            </Position>
            <AltitudeMeters>154</AltitudeMeters>
            <DistanceMeters>42150.990092018</DistanceMeters>
          </Trackpoint>
          <Trackpoint>
            <Time>2020-04-26T18:15:25.000Z</Time>
            <Position>
              <LatitudeDegrees>38.54953818954527378082275390625</LatitudeDegrees>
              <LongitudeDegrees>-28.6200504563748836517333984375</LongitudeDegrees>
            </Position>
            <AltitudeMeters>153.399993896484375</AltitudeMeters>
            <DistanceMeters>42164.881229608</DistanceMeters>
          </Trackpoint>
          <Trackpoint>
            <Time>2020-04-26T18:15:27.000Z</Time>
            <Position>
              <LatitudeDegrees>38.5492975451052188873291015625</LatitudeDegrees>
              <LongitudeDegrees>-28.6200685612857341766357421875</LongitudeDegrees>
            </Position>
            <AltitudeMeters>151.8000030517578125</AltitudeMeters>
            <DistanceMeters>42191.711766206</DistanceMeters>
          </Trackpoint>
          <Trackpoint>
            <Time>2020-04-26T18:15:28.000Z</Time>
            <Position>
              <LatitudeDegrees>38.54918497614562511444091796875</LatitudeDegrees>
              <LongitudeDegrees>-28.62008750438690185546875</LongitudeDegrees>
            </Position>
            <AltitudeMeters>151.399993896484375</AltitudeMeters>
            <DistanceMeters>42204.348890163</DistanceMeters>
          </Trackpoint>
          <Trackpoint>
            <Time>2020-04-26T18:15:30.000Z</Time>
            <Position>
              <LatitudeDegrees>38.548983223736286163330078125</LatitudeDegrees>
              <LongitudeDegrees>-28.6201446689665317535400390625</LongitudeDegrees>
            </Position>
            <AltitudeMeters>150.8000030517578125</AltitudeMeters>
            <DistanceMeters>42227.34888882</DistanceMeters>
          </Trackpoint>
          <Trackpoint>
            <Time>2020-04-26T18:15:31.000Z</Time>
            <Position>
              <LatitudeDegrees>38.54890552349388599395751953125</LatitudeDegrees>
              <LongitudeDegrees>-28.62018515355885028839111328125</LongitudeDegrees>
            </Position>
            <AltitudeMeters>150.1999969482421875</AltitudeMeters>
            <DistanceMeters>42236.68765096</DistanceMeters>
          </Trackpoint>
          <Trackpoint>
            <Time>2020-04-26T18:15:32.000Z</Time>
            <Position>
              <LatitudeDegrees>38.548834025859832763671875</LatitudeDegrees>
              <LongitudeDegrees>-28.62021826207637786865234375</LongitudeDegrees>
            </Position>
            <AltitudeMeters>149.8000030517578125</AltitudeMeters>
            <DistanceMeters>42245.150898939</DistanceMeters>
          </Trackpoint>
          <Trackpoint>
            <Time>2020-04-26T18:15:33.000Z</Time>
            <Position>
              <LatitudeDegrees>38.548774011433124542236328125</LatitudeDegrees>
              <LongitudeDegrees>-28.62023569643497467041015625</LongitudeDegrees>
            </Position>
            <AltitudeMeters>149.399993896484375</AltitudeMeters>
            <DistanceMeters>42252.000736689</DistanceMeters>
          </Trackpoint>
          <Trackpoint>
            <Time>2020-04-26T18:15:34.000Z</Time>
            <Position>
              <LatitudeDegrees>38.54871978051960468292236328125</LatitudeDegrees>
              <LongitudeDegrees>-28.6202194355428218841552734375</LongitudeDegrees>
            </Position>
            <AltitudeMeters>149.1999969482421875</AltitudeMeters>
            <DistanceMeters>42258.200091925</DistanceMeters>
          </Trackpoint>
          <Trackpoint>
            <Time>2020-04-26T18:15:36.000Z</Time>
            <Position>
              <LatitudeDegrees>38.54868943803012371063232421875</LatitudeDegrees>
              <LongitudeDegrees>-28.62010887823998928070068359375</LongitudeDegrees>
            </Position>
            <AltitudeMeters>149.399993896484375</AltitudeMeters>
            <DistanceMeters>42268.3989865</DistanceMeters>
          </Trackpoint>
          <Trackpoint>
            <Time>2020-04-26T18:15:39.000Z</Time>
            <Position>
              <LatitudeDegrees>38.54878935031592845916748046875</LatitudeDegrees>
              <LongitudeDegrees>-28.62005389295518398284912109375</LongitudeDegrees>
            </Position>
            <AltitudeMeters>150.1999969482421875</AltitudeMeters>
            <DistanceMeters>42280.505479418</DistanceMeters>
          </Trackpoint>
          <Trackpoint>
            <Time>2020-04-26T18:15:40.000Z</Time>
            <Position>
              <LatitudeDegrees>38.54884232394397258758544921875</LatitudeDegrees>
              <LongitudeDegrees>-28.62005062401294708251953125</LongitudeDegrees>
            </Position>
            <AltitudeMeters>150.399993896484375</AltitudeMeters>
            <DistanceMeters>42286.40785478</DistanceMeters>
          </Trackpoint>
          <Trackpoint>
            <Time>2020-04-26T18:15:41.000Z</Time>
            <Position>
              <LatitudeDegrees>38.548909462988376617431640625</LatitudeDegrees>
              <LongitudeDegrees>-28.62004064954817295074462890625</LongitudeDegrees>
            </Position>
            <AltitudeMeters>149.8000030517578125</AltitudeMeters>
            <DistanceMeters>42293.929986061</DistanceMeters>
          </Trackpoint>
          <Trackpoint>
            <Time>2020-04-26T18:15:42.000Z</Time>
            <Position>
              <LatitudeDegrees>38.54898154735565185546875</LatitudeDegrees>
              <LongitudeDegrees>-28.62002975307404994964599609375</LongitudeDegrees>
            </Position>
            <AltitudeMeters>149.399993896484375</AltitudeMeters>
            <DistanceMeters>42302.00893355</DistanceMeters>
          </Trackpoint>
          <Trackpoint>
            <Time>2020-04-26T18:15:43.000Z</Time>
            <Position>
              <LatitudeDegrees>38.54905706830322742462158203125</LatitudeDegrees>
              <LongitudeDegrees>-28.6200058646500110626220703125</LongitudeDegrees>
            </Position>
            <AltitudeMeters>149.399993896484375</AltitudeMeters>
            <DistanceMeters>42310.668365101</DistanceMeters>
          </Trackpoint>
          <Trackpoint>
            <Time>2020-04-26T18:15:44.000Z</Time>
            <Position>
              <LatitudeDegrees>38.54913669638335704803466796875</LatitudeDegrees>
              <LongitudeDegrees>-28.61998130567371845245361328125</LongitudeDegrees>
            </Position>
            <AltitudeMeters>149.1999969482421875</AltitudeMeters>
            <DistanceMeters>42319.784988577</DistanceMeters>
          </Trackpoint>
          <Trackpoint>
            <Time>2020-04-26T18:15:45.000Z</Time>
            <Position>
              <LatitudeDegrees>38.549213223159313201904296875</LatitudeDegrees>
              <LongitudeDegrees>-28.61995431594550609588623046875</LongitudeDegrees>
            </Position>
            <AltitudeMeters>149.8000030517578125</AltitudeMeters>
            <DistanceMeters>42328.620940191</DistanceMeters>
          </Trackpoint>
          <Trackpoint>
            <Time>2020-04-26T18:15:46.000Z</Time>
            <Position>
              <LatitudeDegrees>38.549290336668491363525390625</LatitudeDegrees>
              <LongitudeDegrees>-28.61993202008306980133056640625</LongitudeDegrees>
            </Position>
            <AltitudeMeters>149.8000030517578125</AltitudeMeters>
            <DistanceMeters>42337.420537086</DistanceMeters>
          </Trackpoint>
          <Trackpoint>
            <Time>2020-04-26T18:15:48.000Z</Time>
            <Position>
              <LatitudeDegrees>38.54944431222975254058837890625</LatitudeDegrees>
              <LongitudeDegrees>-28.6198945529758930206298828125</LongitudeDegrees>
            </Position>
            <AltitudeMeters>150</AltitudeMeters>
            <DistanceMeters>42354.865640591</DistanceMeters>
          </Trackpoint>
          <Trackpoint>
            <Time>2020-04-26T18:15:53.000Z</Time>
            <Position>
              <LatitudeDegrees>38.5498385131359100341796875</LatitudeDegrees>
              <LongitudeDegrees>-28.61977226100862026214599609375</LongitudeDegrees>
            </Position>
            <AltitudeMeters>149.8000030517578125</AltitudeMeters>
            <DistanceMeters>42400.013831648</DistanceMeters>
          </Trackpoint>
          <Trackpoint>
            <Time>2020-04-26T18:15:55.000Z</Time>
            <Position>
              <LatitudeDegrees>38.55000958777964115142822265625</LatitudeDegrees>
              <LongitudeDegrees>-28.61976002342998981475830078125</LongitudeDegrees>
            </Position>
            <AltitudeMeters>149.8000030517578125</AltitudeMeters>
            <DistanceMeters>42419.084393485</DistanceMeters>
          </Trackpoint>
          <Trackpoint>
            <Time>2020-04-26T18:15:57.000Z</Time>
            <Position>
              <LatitudeDegrees>38.5501934029161930084228515625</LatitudeDegrees>
              <LongitudeDegrees>-28.6197956465184688568115234375</LongitudeDegrees>
            </Position>
            <AltitudeMeters>149</AltitudeMeters>
            <DistanceMeters>42439.777101496</DistanceMeters>
          </Trackpoint>
          <Trackpoint>
            <Time>2020-04-26T18:15:58.000Z</Time>
            <Position>
              <LatitudeDegrees>38.55028987862169742584228515625</LatitudeDegrees>
              <LongitudeDegrees>-28.619827665388584136962890625</LongitudeDegrees>
            </Position>
            <AltitudeMeters>148.600006103515625</AltitudeMeters>
            <DistanceMeters>42450.871241477</DistanceMeters>
          </Trackpoint>
          <Trackpoint>
            <Time>2020-04-26T18:16:01.000Z</Time>
            <Position>
              <LatitudeDegrees>38.55055407620966434478759765625</LatitudeDegrees>
              <LongitudeDegrees>-28.6200162582099437713623046875</LongitudeDegrees>
            </Position>
            <AltitudeMeters>148</AltitudeMeters>
            <DistanceMeters>42484.548928919</DistanceMeters>
          </Trackpoint>
          <Trackpoint>
            <Time>2020-04-26T18:16:03.000Z</Time>
            <Position>
              <LatitudeDegrees>38.55069707147777080535888671875</LatitudeDegrees>
              <LongitudeDegrees>-28.62020459957420825958251953125</LongitudeDegrees>
            </Position>
            <AltitudeMeters>147.399993896484375</AltitudeMeters>
            <DistanceMeters>42507.398062375</DistanceMeters>
          </Trackpoint>
          <Trackpoint>
            <Time>2020-04-26T18:16:05.000Z</Time>
            <Position>
              <LatitudeDegrees>38.55082397349178791046142578125</LatitudeDegrees>
              <LongitudeDegrees>-28.6204165779054164886474609375</LongitudeDegrees>
            </Position>
            <AltitudeMeters>146.1999969482421875</AltitudeMeters>
            <DistanceMeters>42530.635154513</DistanceMeters>
          </Trackpoint>
          <Trackpoint>
            <Time>2020-04-26T18:16:06.000Z</Time>
            <Position>
              <LatitudeDegrees>38.5508827306330204010009765625</LatitudeDegrees>
              <LongitudeDegrees>-28.62052780576050281524658203125</LongitudeDegrees>
            </Position>
            <AltitudeMeters>145.399993896484375</AltitudeMeters>
            <DistanceMeters>42542.318804012</DistanceMeters>
          </Trackpoint>
          <Trackpoint>
            <Time>2020-04-26T18:16:07.000Z</Time>
            <Position>
              <LatitudeDegrees>38.5509417392313480377197265625</LatitudeDegrees>
              <LongitudeDegrees>-28.62064029090106487274169921875</LongitudeDegrees>
            </Position>
            <AltitudeMeters>144.8000030517578125</AltitudeMeters>
            <DistanceMeters>42554.109011677</DistanceMeters>
          </Trackpoint>
          <Trackpoint>
            <Time>2020-04-26T18:16:09.000Z</Time>
            <Position>
              <LatitudeDegrees>38.5510684736073017120361328125</LatitudeDegrees>
              <LongitudeDegrees>-28.620866350829601287841796875</LongitudeDegrees>
            </Position>
            <AltitudeMeters>143.600006103515625</AltitudeMeters>
            <DistanceMeters>42578.320132722</DistanceMeters>
          </Trackpoint>
          <Trackpoint>
            <Time>2020-04-26T18:16:11.000Z</Time>
            <Position>
              <LatitudeDegrees>38.55119579471647739410400390625</LatitudeDegrees>
              <LongitudeDegrees>-28.621098361909389495849609375</LongitudeDegrees>
            </Position>
            <AltitudeMeters>142.1999969482421875</AltitudeMeters>
            <DistanceMeters>42602.991234697</DistanceMeters>
          </Trackpoint>
          <Trackpoint>
            <Time>2020-04-26T18:16:12.000Z</Time>
            <Position>
              <LatitudeDegrees>38.551258742809295654296875</LatitudeDegrees>
              <LongitudeDegrees>-28.62121512182056903839111328125</LongitudeDegrees>
            </Position>
            <AltitudeMeters>142</AltitudeMeters>
            <DistanceMeters>42615.335566999</DistanceMeters>
          </Trackpoint>
          <Trackpoint>
            <Time>2020-04-26T18:16:15.000Z</Time>
            <Position>
              <LatitudeDegrees>38.55145010165870189666748046875</LatitudeDegrees>
              <LongitudeDegrees>-28.62157009541988372802734375</LongitudeDegrees>
            </Position>
            <AltitudeMeters>141</AltitudeMeters>
            <DistanceMeters>42652.863420019</DistanceMeters>
          </Trackpoint>
          <Trackpoint>
            <Time>2020-04-26T18:16:18.000Z</Time>
            <Position>
              <LatitudeDegrees>38.55164296925067901611328125</LatitudeDegrees>
              <LongitudeDegrees>-28.62192959524691104888916015625</LongitudeDegrees>
            </Position>
            <AltitudeMeters>140.1999969482421875</AltitudeMeters>
            <DistanceMeters>42690.810860385</DistanceMeters>
          </Trackpoint>
          <Trackpoint>
            <Time>2020-04-26T18:16:19.000Z</Time>
            <Position>
              <LatitudeDegrees>38.55170390568673610687255859375</LatitudeDegrees>
              <LongitudeDegrees>-28.6220503784716129302978515625</LongitudeDegrees>
            </Position>
            <AltitudeMeters>139.8000030517578125</AltitudeMeters>
            <DistanceMeters>42703.32194927</DistanceMeters>
          </Trackpoint>
          <Trackpoint>
            <Time>2020-04-26T18:16:21.000Z</Time>
            <Position>
              <LatitudeDegrees>38.55180767364799976348876953125</LatitudeDegrees>
              <LongitudeDegrees>-28.62230594269931316375732421875</LongitudeDegrees>
            </Position>
            <AltitudeMeters>139</AltitudeMeters>
            <DistanceMeters>42728.386855183</DistanceMeters>
          </Trackpoint>
          <Trackpoint>
            <Time>2020-04-26T18:16:22.000Z</Time>
            <Position>
              <LatitudeDegrees>38.55184908024966716766357421875</LatitudeDegrees>
              <LongitudeDegrees>-28.62243753857910633087158203125</LongitudeDegrees>
            </Position>
            <AltitudeMeters>138.600006103515625</AltitudeMeters>
            <DistanceMeters>42740.733747526</DistanceMeters>
          </Trackpoint>
          <Trackpoint>
            <Time>2020-04-26T18:16:23.000Z</Time>
            <Position>
              <LatitudeDegrees>38.55188931338489055633544921875</LatitudeDegrees>
              <LongitudeDegrees>-28.62256997264921665191650390625</LongitudeDegrees>
            </Position>
            <AltitudeMeters>138.8000030517578125</AltitudeMeters>
            <DistanceMeters>42753.100736033</DistanceMeters>
          </Trackpoint>
          <Trackpoint>
            <Time>2020-04-26T18:16:26.000Z</Time>
            <Position>
              <LatitudeDegrees>38.5520042292773723602294921875</LatitudeDegrees>
              <LongitudeDegrees>-28.622970879077911376953125</LongitudeDegrees>
            </Position>
            <AltitudeMeters>137.1999969482421875</AltitudeMeters>
            <DistanceMeters>42790.267237803</DistanceMeters>
          </Trackpoint>
          <Trackpoint>
            <Time>2020-04-26T18:16:30.000Z</Time>
            <Position>
              <LatitudeDegrees>38.55216071940958499908447265625</LatitudeDegrees>
              <LongitudeDegrees>-28.62348477356135845184326171875</LongitudeDegrees>
            </Position>
            <AltitudeMeters>135.8000030517578125</AltitudeMeters>
            <DistanceMeters>42838.269557188</DistanceMeters>
          </Trackpoint>
          <Trackpoint>
            <Time>2020-04-26T18:16:31.000Z</Time>
            <Position>
              <LatitudeDegrees>38.55220916680991649627685546875</LatitudeDegrees>
              <LongitudeDegrees>-28.6236057244241237640380859375</LongitudeDegrees>
            </Position>
            <AltitudeMeters>135.600006103515625</AltitudeMeters>
            <DistanceMeters>42850.097997678</DistanceMeters>
          </Trackpoint>
          <Trackpoint>
            <Time>2020-04-26T18:16:35.000Z</Time>
            <Position>
              <LatitudeDegrees>38.55242206715047359466552734375</LatitudeDegrees>
              <LongitudeDegrees>-28.62405558116734027862548828125</LongitudeDegrees>
            </Position>
            <AltitudeMeters>135</AltitudeMeters>
            <DistanceMeters>42895.8663596</DistanceMeters>
          </Trackpoint>
          <Trackpoint>
            <Time>2020-04-26T18:16:36.000Z</Time>
            <Position>
              <LatitudeDegrees>38.552476130425930023193359375</LatitudeDegrees>
              <LongitudeDegrees>-28.62416622228920459747314453125</LongitudeDegrees>
            </Position>
            <AltitudeMeters>134.399993896484375</AltitudeMeters>
            <DistanceMeters>42907.222350164</DistanceMeters>
          </Trackpoint>
          <Trackpoint>
            <Time>2020-04-26T18:16:41.000Z</Time>
            <Position>
              <LatitudeDegrees>38.55273823253810405731201171875</LatitudeDegrees>
              <LongitudeDegrees>-28.62473702989518642425537109375</LongitudeDegrees>
            </Position>
            <AltitudeMeters>133.1999969482421875</AltitudeMeters>
            <DistanceMeters>42964.838011765</DistanceMeters>
          </Trackpoint>
          <Trackpoint>
            <Time>2020-04-26T18:16:43.000Z</Time>
            <Position>
              <LatitudeDegrees>38.5528417490422725677490234375</LatitudeDegrees>
              <LongitudeDegrees>-28.624967448413372039794921875</LongitudeDegrees>
            </Position>
            <AltitudeMeters>132.399993896484375</AltitudeMeters>
            <DistanceMeters>42987.967795139</DistanceMeters>
          </Trackpoint>
          <Trackpoint>
            <Time>2020-04-26T18:16:44.000Z</Time>
            <Position>
              <LatitudeDegrees>38.55289447121322154998779296875</LatitudeDegrees>
              <LongitudeDegrees>-28.62508135847747325897216796875</LongitudeDegrees>
            </Position>
            <AltitudeMeters>132.1999969482421875</AltitudeMeters>
            <DistanceMeters>42999.489171955</DistanceMeters>
          </Trackpoint>
          <Trackpoint>
            <Time>2020-04-26T18:16:48.000Z</Time>
            <Position>
              <LatitudeDegrees>38.5531160049140453338623046875</LatitudeDegrees>
              <LongitudeDegrees>-28.62551772035658359527587890625</LongitudeDegrees>
            </Position>
            <AltitudeMeters>131</AltitudeMeters>
            <DistanceMeters>43044.772567137</DistanceMeters>
          </Trackpoint>
          <Trackpoint>
            <Time>2020-04-26T18:16:51.000Z</Time>
            <Position>
              <LatitudeDegrees>38.553301580250263214111328125</LatitudeDegrees>
              <LongitudeDegrees>-28.62581360153853893280029296875</LongitudeDegrees>
            </Position>
            <AltitudeMeters>130.1999969482421875</AltitudeMeters>
            <DistanceMeters>43077.786111425</DistanceMeters>
          </Trackpoint>
          <Trackpoint>
            <Time>2020-04-26T18:16:52.000Z</Time>
            <Position>
              <LatitudeDegrees>38.5533661209046840667724609375</LatitudeDegrees>
              <LongitudeDegrees>-28.625906892120838165283203125</LongitudeDegrees>
            </Position>
            <AltitudeMeters>129.8000030517578125</AltitudeMeters>
            <DistanceMeters>43088.627489335</DistanceMeters>
          </Trackpoint>
          <Trackpoint>
            <Time>2020-04-26T18:16:56.000Z</Time>
            <Position>
              <LatitudeDegrees>38.55364498682320117950439453125</LatitudeDegrees>
              <LongitudeDegrees>-28.62628097645938396453857421875</LongitudeDegrees>
            </Position>
            <AltitudeMeters>128.8000030517578125</AltitudeMeters>
            <DistanceMeters>43133.611774932</DistanceMeters>
          </Trackpoint>
          <Trackpoint>
            <Time>2020-04-26T18:16:58.000Z</Time>
            <Position>
              <LatitudeDegrees>38.5537920892238616943359375</LatitudeDegrees>
              <LongitudeDegrees>-28.62646923400461673736572265625</LongitudeDegrees>
            </Position>
            <AltitudeMeters>128</AltitudeMeters>
            <DistanceMeters>43156.775693907</DistanceMeters>
          </Trackpoint>
          <Trackpoint>
            <Time>2020-04-26T18:16:59.000Z</Time>
            <Position>
              <LatitudeDegrees>38.5538660176098346710205078125</LatitudeDegrees>
              <LongitudeDegrees>-28.6265628598630428314208984375</LongitudeDegrees>
            </Position>
            <AltitudeMeters>127.8000030517578125</AltitudeMeters>
            <DistanceMeters>43168.356483835</DistanceMeters>
          </Trackpoint>
          <Trackpoint>
            <Time>2020-04-26T18:17:05.000Z</Time>
            <Position>
              <LatitudeDegrees>38.5543082468211650848388671875</LatitudeDegrees>
              <LongitudeDegrees>-28.6271318234503269195556640625</LongitudeDegrees>
            </Position>
            <AltitudeMeters>127</AltitudeMeters>
            <DistanceMeters>43238.179265799</DistanceMeters>
          </Trackpoint>
          <Trackpoint>
            <Time>2020-04-26T18:17:07.000Z</Time>
            <Position>
              <LatitudeDegrees>38.5544547624886035919189453125</LatitudeDegrees>
              <LongitudeDegrees>-28.62731798551976680755615234375</LongitudeDegrees>
            </Position>
            <AltitudeMeters>126.1999969482421875</AltitudeMeters>
            <DistanceMeters>43261.16826869</DistanceMeters>
          </Trackpoint>
          <Trackpoint>
            <Time>2020-04-26T18:17:09.000Z</Time>
            <Position>
              <LatitudeDegrees>38.55460186488926410675048828125</LatitudeDegrees>
              <LongitudeDegrees>-28.6275063268840312957763671875</LongitudeDegrees>
            </Position>
            <AltitudeMeters>124.8000030517578125</AltitudeMeters>
            <DistanceMeters>43284.337644695</DistanceMeters>
          </Trackpoint>
          <Trackpoint>
            <Time>2020-04-26T18:17:13.000Z</Time>
            <Position>
              <LatitudeDegrees>38.55489657260477542877197265625</LatitudeDegrees>
              <LongitudeDegrees>-28.62789382226765155792236328125</LongitudeDegrees>
            </Position>
            <AltitudeMeters>124.40000152587890625</AltitudeMeters>
            <DistanceMeters>43331.38537002</DistanceMeters>
          </Trackpoint>
          <Trackpoint>
            <Time>2020-04-26T18:17:17.000Z</Time>
            <Position>
              <LatitudeDegrees>38.55518491007387638092041015625</LatitudeDegrees>
              <LongitudeDegrees>-28.6282808147370815277099609375</LongitudeDegrees>
            </Position>
            <AltitudeMeters>123.8000030517578125</AltitudeMeters>
            <DistanceMeters>43377.90965748</DistanceMeters>
          </Trackpoint>
          <Trackpoint>
            <Time>2020-04-26T18:17:20.000Z</Time>
            <Position>
              <LatitudeDegrees>38.555397726595401763916015625</LatitudeDegrees>
              <LongitudeDegrees>-28.62856127321720123291015625</LongitudeDegrees>
            </Position>
            <AltitudeMeters>122.40000152587890625</AltitudeMeters>
            <DistanceMeters>43411.923646575</DistanceMeters>
          </Trackpoint>
          <Trackpoint>
            <Time>2020-04-26T18:17:26.000Z</Time>
            <Position>
              <LatitudeDegrees>38.55582478456199169158935546875</LatitudeDegrees>
              <LongitudeDegrees>-28.6291039176285266876220703125</LongitudeDegrees>
            </Position>
            <AltitudeMeters>122.1999969482421875</AltitudeMeters>
            <DistanceMeters>43478.931833767</DistanceMeters>
          </Trackpoint>
          <Trackpoint>
            <Time>2020-04-26T18:17:27.000Z</Time>
            <Position>
              <LatitudeDegrees>38.55589150451123714447021484375</LatitudeDegrees>
              <LongitudeDegrees>-28.629192598164081573486328125</LongitudeDegrees>
            </Position>
            <AltitudeMeters>122</AltitudeMeters>
            <DistanceMeters>43489.643329989</DistanceMeters>
          </Trackpoint>
          <Trackpoint>
            <Time>2020-04-26T18:17:28.000Z</Time>
            <Position>
              <LatitudeDegrees>38.55596040375530719757080078125</LatitudeDegrees>
              <LongitudeDegrees>-28.62927918322384357452392578125</LongitudeDegrees>
            </Position>
            <AltitudeMeters>121.8000030517578125</AltitudeMeters>
            <DistanceMeters>43500.395215341</DistanceMeters>
          </Trackpoint>
          <Trackpoint>
            <Time>2020-04-26T18:17:29.000Z</Time>
            <Position>
              <LatitudeDegrees>38.55602880008518695831298828125</LatitudeDegrees>
              <LongitudeDegrees>-28.62936283461749553680419921875</LongitudeDegrees>
            </Position>
            <AltitudeMeters>121.40000152587890625</AltitudeMeters>
            <DistanceMeters>43510.929045573</DistanceMeters>
          </Trackpoint>
          <Trackpoint>
            <Time>2020-04-26T18:17:35.000Z</Time>
            <Position>
              <LatitudeDegrees>38.55643113143742084503173828125</LatitudeDegrees>
              <LongitudeDegrees>-28.62987195141613483428955078125</LongitudeDegrees>
            </Position>
            <AltitudeMeters>120.40000152587890625</AltitudeMeters>
            <DistanceMeters>43573.927958884</DistanceMeters>
          </Trackpoint>
          <Trackpoint>
            <Time>2020-04-26T18:17:36.000Z</Time>
            <Position>
              <LatitudeDegrees>38.55649701319634914398193359375</LatitudeDegrees>
              <LongitudeDegrees>-28.62996079958975315093994140625</LongitudeDegrees>
            </Position>
            <AltitudeMeters>119.8000030517578125</AltitudeMeters>
            <DistanceMeters>43584.58536483</DistanceMeters>
          </Trackpoint>
          <Trackpoint>
            <Time>2020-04-26T18:17:41.000Z</Time>
            <Position>
              <LatitudeDegrees>38.556820638477802276611328125</LatitudeDegrees>
              <LongitudeDegrees>-28.63038257695734500885009765625</LongitudeDegrees>
            </Position>
            <AltitudeMeters>118.59999847412109375</AltitudeMeters>
            <DistanceMeters>43636.015803211</DistanceMeters>
          </Trackpoint>
          <Trackpoint>
            <Time>2020-04-26T18:17:43.000Z</Time>
            <Position>
              <LatitudeDegrees>38.55697243474423885345458984375</LatitudeDegrees>
              <LongitudeDegrees>-28.63052473403513431549072265625</LongitudeDegrees>
            </Position>
            <AltitudeMeters>118.1999969482421875</AltitudeMeters>
            <DistanceMeters>43656.957069467</DistanceMeters>
          </Trackpoint>
          <Trackpoint>
            <Time>2020-04-26T18:17:44.000Z</Time>
            <Position>
              <LatitudeDegrees>38.55705298483371734619140625</LatitudeDegrees>
              <LongitudeDegrees>-28.63058030605316162109375</LongitudeDegrees>
            </Position>
            <AltitudeMeters>118.1999969482421875</AltitudeMeters>
            <DistanceMeters>43667.144004163</DistanceMeters>
          </Trackpoint>
          <Trackpoint>
            <Time>2020-04-26T18:17:47.000Z</Time>
            <Position>
              <LatitudeDegrees>38.5573227144777774810791015625</LatitudeDegrees>
              <LongitudeDegrees>-28.63067225553095340728759765625</LongitudeDegrees>
            </Position>
            <AltitudeMeters>118.1999969482421875</AltitudeMeters>
            <DistanceMeters>43698.213816393</DistanceMeters>
          </Trackpoint>
          <Trackpoint>
            <Time>2020-04-26T18:17:51.000Z</Time>
            <Position>
              <LatitudeDegrees>38.55768674053251743316650390625</LatitudeDegrees>
              <LongitudeDegrees>-28.6306351236999034881591796875</LongitudeDegrees>
            </Position>
            <AltitudeMeters>118.1999969482421875</AltitudeMeters>
            <DistanceMeters>43738.859264913</DistanceMeters>
          </Trackpoint>
          <Trackpoint>
            <Time>2020-04-26T18:17:55.000Z</Time>
            <Position>
              <LatitudeDegrees>38.5579858906567096710205078125</LatitudeDegrees>
              <LongitudeDegrees>-28.63043689168989658355712890625</LongitudeDegrees>
            </Position>
            <AltitudeMeters>118</AltitudeMeters>
            <DistanceMeters>43776.36003804</DistanceMeters>
          </Trackpoint>
          <Trackpoint>
            <Time>2020-04-26T18:17:59.000Z</Time>
            <Position>
              <LatitudeDegrees>38.558179847896099090576171875</LatitudeDegrees>
              <LongitudeDegrees>-28.6301419325172901153564453125</LongitudeDegrees>
            </Position>
            <AltitudeMeters>118.1999969482421875</AltitudeMeters>
            <DistanceMeters>43809.902314563</DistanceMeters>
          </Trackpoint>
          <Trackpoint>
            <Time>2020-04-26T18:18:00.000Z</Time>
            <Position>
              <LatitudeDegrees>38.55821496807038784027099609375</LatitudeDegrees>
              <LongitudeDegrees>-28.63006423227488994598388671875</LongitudeDegrees>
            </Position>
            <AltitudeMeters>118</AltitudeMeters>
            <DistanceMeters>43817.713024931</DistanceMeters>
          </Trackpoint>
          <Trackpoint>
            <Time>2020-04-26T18:18:05.000Z</Time>
            <Position>
              <LatitudeDegrees>38.5583657585084438323974609375</LatitudeDegrees>
              <LongitudeDegrees>-28.6296832747757434844970703125</LongitudeDegrees>
            </Position>
            <AltitudeMeters>118.40000152587890625</AltitudeMeters>
            <DistanceMeters>43854.875396104</DistanceMeters>
          </Trackpoint>
          <Trackpoint>
            <Time>2020-04-26T18:18:11.000Z</Time>
            <Position>
              <LatitudeDegrees>38.5585421137511730194091796875</LatitudeDegrees>
              <LongitudeDegrees>-28.629256971180438995361328125</LongitudeDegrees>
            </Position>
            <AltitudeMeters>119.40000152587890625</AltitudeMeters>
            <DistanceMeters>43896.850966568</DistanceMeters>
          </Trackpoint>
          <Trackpoint>
            <Time>2020-04-26T18:18:14.000Z</Time>
            <Position>
              <LatitudeDegrees>38.55863020755350589752197265625</LatitudeDegrees>
              <LongitudeDegrees>-28.62904180772602558135986328125</LongitudeDegrees>
            </Position>
            <AltitudeMeters>119.40000152587890625</AltitudeMeters>
            <DistanceMeters>43917.989231459</DistanceMeters>
          </Trackpoint>
          <Trackpoint>
            <Time>2020-04-26T18:18:15.000Z</Time>
            <Position>
              <LatitudeDegrees>38.55865895748138427734375</LatitudeDegrees>
              <LongitudeDegrees>-28.6289688013494014739990234375</LongitudeDegrees>
            </Position>
            <AltitudeMeters>119.59999847412109375</AltitudeMeters>
            <DistanceMeters>43925.102918857</DistanceMeters>
          </Trackpoint>
          <Trackpoint>
            <Time>2020-04-26T18:18:21.000Z</Time>
            <Position>
              <LatitudeDegrees>38.55882936157286167144775390625</LatitudeDegrees>
              <LongitudeDegrees>-28.62854358740150928497314453125</LongitudeDegrees>
            </Position>
            <AltitudeMeters>120.1999969482421875</AltitudeMeters>
            <DistanceMeters>43966.688155175</DistanceMeters>
          </Trackpoint>
          <Trackpoint>
            <Time>2020-04-26T18:18:26.000Z</Time>
            <Position>
              <LatitudeDegrees>38.5589558444917201995849609375</LatitudeDegrees>
              <LongitudeDegrees>-28.62820453941822052001953125</LongitudeDegrees>
            </Position>
            <AltitudeMeters>120.59999847412109375</AltitudeMeters>
            <DistanceMeters>43999.383145453</DistanceMeters>
          </Trackpoint>
          <Trackpoint>
            <Time>2020-04-26T18:18:29.000Z</Time>
            <Position>
              <LatitudeDegrees>38.559032119810581207275390625</LatitudeDegrees>
              <LongitudeDegrees>-28.6280209757387638092041015625</LongitudeDegrees>
            </Position>
            <AltitudeMeters>121.40000152587890625</AltitudeMeters>
            <DistanceMeters>44017.475193732</DistanceMeters>
          </Trackpoint>
          <Trackpoint>
            <Time>2020-04-26T18:18:30.000Z</Time>
            <Position>
              <LatitudeDegrees>38.55905684642493724822998046875</LatitudeDegrees>
              <LongitudeDegrees>-28.62796288914978504180908203125</LongitudeDegrees>
            </Position>
            <AltitudeMeters>121.8000030517578125</AltitudeMeters>
            <DistanceMeters>44023.23196197</DistanceMeters>
          </Trackpoint>
          <Trackpoint>
            <Time>2020-04-26T18:18:35.000Z</Time>
            <Position>
              <LatitudeDegrees>38.559172265231609344482421875</LatitudeDegrees>
              <LongitudeDegrees>-28.62766918726265430450439453125</LongitudeDegrees>
            </Position>
            <AltitudeMeters>121.8000030517578125</AltitudeMeters>
            <DistanceMeters>44051.840527271</DistanceMeters>
          </Trackpoint>
          <Trackpoint>
            <Time>2020-04-26T18:18:37.000Z</Time>
            <Position>
              <LatitudeDegrees>38.55921995826065540313720703125</LatitudeDegrees>
              <LongitudeDegrees>-28.6275623179972171783447265625</LongitudeDegrees>
            </Position>
            <AltitudeMeters>123.1999969482421875</AltitudeMeters>
            <DistanceMeters>44062.549494114</DistanceMeters>
          </Trackpoint>
          <Trackpoint>
            <Time>2020-04-26T18:18:42.000Z</Time>
            <Position>
              <LatitudeDegrees>38.5593216307461261749267578125</LatitudeDegrees>
              <LongitudeDegrees>-28.6273038201034069061279296875</LongitudeDegrees>
            </Position>
            <AltitudeMeters>124.1999969482421875</AltitudeMeters>
            <DistanceMeters>44087.733187032</DistanceMeters>
          </Trackpoint>
          <Trackpoint>
            <Time>2020-04-26T18:18:46.000Z</Time>
            <Position>
              <LatitudeDegrees>38.5593974031507968902587890625</LatitudeDegrees>
              <LongitudeDegrees>-28.62708463333547115325927734375</LongitudeDegrees>
            </Position>
            <AltitudeMeters>124.59999847412109375</AltitudeMeters>
            <DistanceMeters>44108.591063791</DistanceMeters>
          </Trackpoint>
          <Trackpoint>
            <Time>2020-04-26T18:18:49.000Z</Time>
            <Position>
              <LatitudeDegrees>38.55946621857583522796630859375</LatitudeDegrees>
              <LongitudeDegrees>-28.62692914903163909912109375</LongitudeDegrees>
            </Position>
            <AltitudeMeters>125.1999969482421875</AltitudeMeters>
            <DistanceMeters>44124.141220929</DistanceMeters>
          </Trackpoint>
          <Trackpoint>
            <Time>2020-04-26T18:18:50.000Z</Time>
            <Position>
              <LatitudeDegrees>38.55947376228868961334228515625</LatitudeDegrees>
              <LongitudeDegrees>-28.62687642686069011688232421875</LongitudeDegrees>
            </Position>
            <AltitudeMeters>125.59999847412109375</AltitudeMeters>
            <DistanceMeters>44128.806248714</DistanceMeters>
          </Trackpoint>
          <Trackpoint>
            <Time>2020-04-26T18:18:53.000Z</Time>
            <Position>
              <LatitudeDegrees>38.55953562073409557342529296875</LatitudeDegrees>
              <LongitudeDegrees>-28.6268072761595249176025390625</LongitudeDegrees>
            </Position>
            <AltitudeMeters>126.40000152587890625</AltitudeMeters>
            <DistanceMeters>44137.950564318</DistanceMeters>
          </Trackpoint>
          <Trackpoint>
            <Time>2020-04-26T18:18:55.000Z</Time>
            <Position>
              <LatitudeDegrees>38.55954609811305999755859375</LatitudeDegrees>
              <LongitudeDegrees>-28.62688623368740081787109375</LongitudeDegrees>
            </Position>
            <AltitudeMeters>126.40000152587890625</AltitudeMeters>
            <DistanceMeters>44144.921277434</DistanceMeters>
          </Trackpoint>
          <Trackpoint>
            <Time>2020-04-26T18:18:57.000Z</Time>
            <Position>
              <LatitudeDegrees>38.559504188597202301025390625</LatitudeDegrees>
              <LongitudeDegrees>-28.62699260003864765167236328125</LongitudeDegrees>
            </Position>
            <AltitudeMeters>126.1999969482421875</AltitudeMeters>
            <DistanceMeters>44155.287468136</DistanceMeters>
          </Trackpoint>
          <Trackpoint>
            <Time>2020-04-26T18:18:58.000Z</Time>
            <Position>
              <LatitudeDegrees>38.55948331765830516815185546875</LatitudeDegrees>
              <LongitudeDegrees>-28.6270486749708652496337890625</LongitudeDegrees>
            </Position>
            <AltitudeMeters>126.1999969482421875</AltitudeMeters>
            <DistanceMeters>44160.693143614</DistanceMeters>
          </Trackpoint>
          <Trackpoint>
            <Time>2020-04-26T18:19:03.000Z</Time>
            <Position>
              <LatitudeDegrees>38.559347279369831085205078125</LatitudeDegrees>
              <LongitudeDegrees>-28.62739308737218379974365234375</LongitudeDegrees>
            </Position>
            <AltitudeMeters>124.8000030517578125</AltitudeMeters>
            <DistanceMeters>44194.27591252</DistanceMeters>
          </Trackpoint>
          <Trackpoint>
            <Time>2020-04-26T18:19:05.000Z</Time>
            <Position>
              <LatitudeDegrees>38.55928014032542705535888671875</LatitudeDegrees>
              <LongitudeDegrees>-28.627557121217250823974609375</LongitudeDegrees>
            </Position>
            <AltitudeMeters>124.40000152587890625</AltitudeMeters>
            <DistanceMeters>44210.389596707</DistanceMeters>
          </Trackpoint>
          <Trackpoint>
            <Time>2020-04-26T18:19:08.000Z</Time>
            <Position>
              <LatitudeDegrees>38.55917084030807018280029296875</LatitudeDegrees>
              <LongitudeDegrees>-28.62782894633710384368896484375</LongitudeDegrees>
            </Position>
            <AltitudeMeters>123.1999969482421875</AltitudeMeters>
            <DistanceMeters>44236.991985527</DistanceMeters>
          </Trackpoint>
          <Trackpoint>
            <Time>2020-04-26T18:19:09.000Z</Time>
            <Position>
              <LatitudeDegrees>38.559134043753147125244140625</LatitudeDegrees>
              <LongitudeDegrees>-28.62792215310037136077880859375</LongitudeDegrees>
            </Position>
            <AltitudeMeters>123</AltitudeMeters>
            <DistanceMeters>44246.078845216</DistanceMeters>
          </Trackpoint>
          <Trackpoint>
            <Time>2020-04-26T18:19:11.000Z</Time>
            <Position>
              <LatitudeDegrees>38.55905902571976184844970703125</LatitudeDegrees>
              <LongitudeDegrees>-28.62811208702623844146728515625</LongitudeDegrees>
            </Position>
            <AltitudeMeters>122.59999847412109375</AltitudeMeters>
            <DistanceMeters>44264.598818044</DistanceMeters>
          </Trackpoint>
          <Trackpoint>
            <Time>2020-04-26T18:19:12.000Z</Time>
            <Position>
              <LatitudeDegrees>38.559017367660999298095703125</LatitudeDegrees>
              <LongitudeDegrees>-28.62820629961788654327392578125</LongitudeDegrees>
            </Position>
            <AltitudeMeters>122.1999969482421875</AltitudeMeters>
            <DistanceMeters>44274.019412043</DistanceMeters>
          </Trackpoint>
          <Trackpoint>
            <Time>2020-04-26T18:19:16.000Z</Time>
            <Position>
              <LatitudeDegrees>38.55885232798755168914794921875</LatitudeDegrees>
              <LongitudeDegrees>-28.62860511057078838348388671875</LongitudeDegrees>
            </Position>
            <AltitudeMeters>121.8000030517578125</AltitudeMeters>
            <DistanceMeters>44313.290861671</DistanceMeters>
          </Trackpoint>
          <Trackpoint>
            <Time>2020-04-26T18:19:17.000Z</Time>
            <Position>
              <LatitudeDegrees>38.55881209485232830047607421875</LatitudeDegrees>
              <LongitudeDegrees>-28.6287081241607666015625</LongitudeDegrees>
            </Position>
            <AltitudeMeters>121.1999969482421875</AltitudeMeters>
            <DistanceMeters>44323.312914369</DistanceMeters>
          </Trackpoint>
          <Trackpoint>
            <Time>2020-04-26T18:19:18.000Z</Time>
            <Position>
              <LatitudeDegrees>38.558772616088390350341796875</LatitudeDegrees>
              <LongitudeDegrees>-28.62881080247461795806884765625</LongitudeDegrees>
            </Position>
            <AltitudeMeters>120</AltitudeMeters>
            <DistanceMeters>44333.271242517</DistanceMeters>
          </Trackpoint>
          <Trackpoint>
            <Time>2020-04-26T18:19:20.000Z</Time>
            <Position>
              <LatitudeDegrees>38.5586889646947383880615234375</LatitudeDegrees>
              <LongitudeDegrees>-28.62901590764522552490234375</LongitudeDegrees>
            </Position>
            <AltitudeMeters>120</AltitudeMeters>
            <DistanceMeters>44353.404799867</DistanceMeters>
          </Trackpoint>
          <Trackpoint>
            <Time>2020-04-26T18:19:26.000Z</Time>
            <Position>
              <LatitudeDegrees>38.5584609769284725189208984375</LatitudeDegrees>
              <LongitudeDegrees>-28.62960423342883586883544921875</LongitudeDegrees>
            </Position>
            <AltitudeMeters>119.40000152587890625</AltitudeMeters>
            <DistanceMeters>44410.552525956</DistanceMeters>
          </Trackpoint>
          <Trackpoint>
            <Time>2020-04-26T18:19:28.000Z</Time>
            <Position>
              <LatitudeDegrees>38.5583865456283092498779296875</LatitudeDegrees>
              <LongitudeDegrees>-28.629798777401447296142578125</LongitudeDegrees>
            </Position>
            <AltitudeMeters>119</AltitudeMeters>
            <DistanceMeters>44429.402578423</DistanceMeters>
          </Trackpoint>
          <Trackpoint>
            <Time>2020-04-26T18:19:34.000Z</Time>
            <Position>
              <LatitudeDegrees>38.55813123285770416259765625</LatitudeDegrees>
              <LongitudeDegrees>-28.63034754060208797454833984375</LongitudeDegrees>
            </Position>
            <AltitudeMeters>118.8000030517578125</AltitudeMeters>
            <DistanceMeters>44484.978666153</DistanceMeters>
          </Trackpoint>
          <Trackpoint>
            <Time>2020-04-26T18:19:35.000Z</Time>
            <Position>
              <LatitudeDegrees>38.5580770857632160186767578125</LatitudeDegrees>
              <LongitudeDegrees>-28.6304238997399806976318359375</LongitudeDegrees>
            </Position>
            <AltitudeMeters>118.40000152587890625</AltitudeMeters>
            <DistanceMeters>44493.950516654</DistanceMeters>
          </Trackpoint>
          <Trackpoint>
            <Time>2020-04-26T18:19:36.000Z</Time>
            <Position>
              <LatitudeDegrees>38.5580170713365077972412109375</LatitudeDegrees>
              <LongitudeDegrees>-28.63049254752695560455322265625</LongitudeDegrees>
            </Position>
            <AltitudeMeters>118</AltitudeMeters>
            <DistanceMeters>44502.912296605</DistanceMeters>
          </Trackpoint>
          <Trackpoint>
            <Time>2020-04-26T18:19:39.000Z</Time>
            <Position>
              <LatitudeDegrees>38.557808697223663330078125</LatitudeDegrees>
              <LongitudeDegrees>-28.63064928911626338958740234375</LongitudeDegrees>
            </Position>
            <AltitudeMeters>118</AltitudeMeters>
            <DistanceMeters>44529.819459387</DistanceMeters>
          </Trackpoint>
          <Trackpoint>
            <Time>2020-04-26T18:19:40.000Z</Time>
            <Position>
              <LatitudeDegrees>38.5577324219048023223876953125</LatitudeDegrees>
              <LongitudeDegrees>-28.6306803859770298004150390625</LongitudeDegrees>
            </Position>
            <AltitudeMeters>117.8000030517578125</AltitudeMeters>
            <DistanceMeters>44538.729702487</DistanceMeters>
          </Trackpoint>
          <Trackpoint>
            <Time>2020-04-26T18:19:42.000Z</Time>
            <Position>
              <LatitudeDegrees>38.55757425539195537567138671875</LatitudeDegrees>
              <LongitudeDegrees>-28.6307269893586635589599609375</LongitudeDegrees>
            </Position>
            <AltitudeMeters>117.1999969482421875</AltitudeMeters>
            <DistanceMeters>44556.795278117</DistanceMeters>
          </Trackpoint>
          <Trackpoint>
            <Time>2020-04-26T18:19:43.000Z</Time>
            <Position>
              <LatitudeDegrees>38.55749445967376232147216796875</LatitudeDegrees>
              <LongitudeDegrees>-28.63074031658470630645751953125</LongitudeDegrees>
            </Position>
            <AltitudeMeters>117</AltitudeMeters>
            <DistanceMeters>44565.752522626</DistanceMeters>
          </Trackpoint>
          <Trackpoint>
            <Time>2020-04-26T18:19:44.000Z</Time>
            <Position>
              <LatitudeDegrees>38.557414747774600982666015625</LatitudeDegrees>
              <LongitudeDegrees>-28.63074182532727718353271484375</LongitudeDegrees>
            </Position>
            <AltitudeMeters>117.1999969482421875</AltitudeMeters>
            <DistanceMeters>44574.625697735</DistanceMeters>
          </Trackpoint>
          <Trackpoint>
            <Time>2020-04-26T18:19:47.000Z</Time>
            <Position>
              <LatitudeDegrees>38.55718667618930339813232421875</LatitudeDegrees>
              <LongitudeDegrees>-28.6307092197239398956298828125</LongitudeDegrees>
            </Position>
            <AltitudeMeters>117.59999847412109375</AltitudeMeters>
            <DistanceMeters>44600.168977544</DistanceMeters>
          </Trackpoint>
          <Trackpoint>
            <Time>2020-04-26T18:19:51.000Z</Time>
            <Position>
              <LatitudeDegrees>38.5569190420210361480712890625</LatitudeDegrees>
              <LongitudeDegrees>-28.630546443164348602294921875</LongitudeDegrees>
            </Position>
            <AltitudeMeters>118.1999969482421875</AltitudeMeters>
            <DistanceMeters>44633.154747218</DistanceMeters>
          </Trackpoint>
          <Trackpoint>
            <Time>2020-04-26T18:19:53.000Z</Time>
            <Position>
              <LatitudeDegrees>38.55680697597563266754150390625</LatitudeDegrees>
              <LongitudeDegrees>-28.6304285936057567596435546875</LongitudeDegrees>
            </Position>
            <AltitudeMeters>118</AltitudeMeters>
            <DistanceMeters>44649.303697886</DistanceMeters>
          </Trackpoint>
          <Trackpoint>
            <Time>2020-04-26T18:19:55.000Z</Time>
            <Position>
              <LatitudeDegrees>38.55670287273824214935302734375</LatitudeDegrees>
              <LongitudeDegrees>-28.63029624335467815399169921875</LongitudeDegrees>
            </Position>
            <AltitudeMeters>117.8000030517578125</AltitudeMeters>
            <DistanceMeters>44665.642490679</DistanceMeters>
          </Trackpoint>
          <Trackpoint>
            <Time>2020-04-26T18:20:03.000Z</Time>
            <Position>
              <LatitudeDegrees>38.55628645978868007659912109375</LatitudeDegrees>
              <LongitudeDegrees>-28.62978209741413593292236328125</LongitudeDegrees>
            </Position>
            <AltitudeMeters>118.59999847412109375</AltitudeMeters>
            <DistanceMeters>44730.068220302</DistanceMeters>
          </Trackpoint>
          <Trackpoint>
            <Time>2020-04-26T18:20:04.000Z</Time>
            <Position>
              <LatitudeDegrees>38.55623700655996799468994140625</LatitudeDegrees>
              <LongitudeDegrees>-28.629714958369731903076171875</LongitudeDegrees>
            </Position>
            <AltitudeMeters>118.8000030517578125</AltitudeMeters>
            <DistanceMeters>44738.096712418</DistanceMeters>
          </Trackpoint>
          <Trackpoint>
            <Time>2020-04-26T18:20:08.000Z</Time>
            <Position>
              <LatitudeDegrees>38.5560396127402782440185546875</LatitudeDegrees>
              <LongitudeDegrees>-28.62945285625755786895751953125</LongitudeDegrees>
            </Position>
            <AltitudeMeters>119.8000030517578125</AltitudeMeters>
            <DistanceMeters>44769.768704333</DistanceMeters>
          </Trackpoint>
          <Trackpoint>
            <Time>2020-04-26T18:20:09.000Z</Time>
            <Position>
              <LatitudeDegrees>38.55599577538669109344482421875</LatitudeDegrees>
              <LongitudeDegrees>-28.62938613630831241607666015625</LongitudeDegrees>
            </Position>
            <AltitudeMeters>120</AltitudeMeters>
            <DistanceMeters>44777.353003045</DistanceMeters>
          </Trackpoint>
          <Trackpoint>
            <Time>2020-04-26T18:20:11.000Z</Time>
            <Position>
              <LatitudeDegrees>38.55590458028018474578857421875</LatitudeDegrees>
              <LongitudeDegrees>-28.62925873138010501861572265625</LongitudeDegrees>
            </Position>
            <AltitudeMeters>120.59999847412109375</AltitudeMeters>
            <DistanceMeters>44792.385856835</DistanceMeters>
          </Trackpoint>
          <Trackpoint>
            <Time>2020-04-26T18:20:17.000Z</Time>
            <Position>
              <LatitudeDegrees>38.55561691336333751678466796875</LatitudeDegrees>
              <LongitudeDegrees>-28.62887106835842132568359375</LongitudeDegrees>
            </Position>
            <AltitudeMeters>121.40000152587890625</AltitudeMeters>
            <DistanceMeters>44838.900826859</DistanceMeters>
          </Trackpoint>
          <Trackpoint>
            <Time>2020-04-26T18:20:18.000Z</Time>
            <Position>
              <LatitudeDegrees>38.5555636882781982421875</LatitudeDegrees>
              <LongitudeDegrees>-28.62880577333271503448486328125</LongitudeDegrees>
            </Position>
            <AltitudeMeters>120.8000030517578125</AltitudeMeters>
            <DistanceMeters>44847.109507046</DistanceMeters>
          </Trackpoint>
          <Trackpoint>
            <Time>2020-04-26T18:20:20.000Z</Time>
            <Position>
              <LatitudeDegrees>38.55546520091593265533447265625</LatitudeDegrees>
              <LongitudeDegrees>-28.628680296242237091064453125</LongitudeDegrees>
            </Position>
            <AltitudeMeters>120.40000152587890625</AltitudeMeters>
            <DistanceMeters>44862.582821069</DistanceMeters>
          </Trackpoint>
          <Trackpoint>
            <Time>2020-04-26T18:20:22.000Z</Time>
            <Position>
              <LatitudeDegrees>38.55536964721977710723876953125</LatitudeDegrees>
              <LongitudeDegrees>-28.62855322659015655517578125</LongitudeDegrees>
            </Position>
            <AltitudeMeters>121.8000030517578125</AltitudeMeters>
            <DistanceMeters>44877.92661959</DistanceMeters>
          </Trackpoint>
          <Trackpoint>
            <Time>2020-04-26T18:20:23.000Z</Time>
            <Position>
              <LatitudeDegrees>38.55532069690525531768798828125</LatitudeDegrees>
              <LongitudeDegrees>-28.6284933798015117645263671875</LongitudeDegrees>
            </Position>
            <AltitudeMeters>122.8000030517578125</AltitudeMeters>
            <DistanceMeters>44885.464939765</DistanceMeters>
          </Trackpoint>
          <Trackpoint>
            <Time>2020-04-26T18:20:26.000Z</Time>
            <Position>
              <LatitudeDegrees>38.5551725886762142181396484375</LatitudeDegrees>
              <LongitudeDegrees>-28.6283160187304019927978515625</LongitudeDegrees>
            </Position>
            <AltitudeMeters>122</AltitudeMeters>
            <DistanceMeters>44908.049333444</DistanceMeters>
          </Trackpoint>
          <Trackpoint>
            <Time>2020-04-26T18:20:34.000Z</Time>
            <Position>
              <LatitudeDegrees>38.55478425510227680206298828125</LatitudeDegrees>
              <LongitudeDegrees>-28.62781838513910770416259765625</LongitudeDegrees>
            </Position>
            <AltitudeMeters>123.1999969482421875</AltitudeMeters>
            <DistanceMeters>44969.239528139</DistanceMeters>
          </Trackpoint>
          <Trackpoint>
            <Time>2020-04-26T18:20:38.000Z</Time>
            <Position>
              <LatitudeDegrees>38.5545939020812511444091796875</LatitudeDegrees>
              <LongitudeDegrees>-28.62757128663361072540283203125</LongitudeDegrees>
            </Position>
            <AltitudeMeters>123.8000030517578125</AltitudeMeters>
            <DistanceMeters>44999.429621478</DistanceMeters>
          </Trackpoint>
          <Trackpoint>
            <Time>2020-04-26T18:20:43.000Z</Time>
            <Position>
              <LatitudeDegrees>38.55435744859278202056884765625</LatitudeDegrees>
              <LongitudeDegrees>-28.627267442643642425537109375</LongitudeDegrees>
            </Position>
            <AltitudeMeters>123.8000030517578125</AltitudeMeters>
            <DistanceMeters>45036.739800978</DistanceMeters>
          </Trackpoint>
          <Trackpoint>
            <Time>2020-04-26T18:20:47.000Z</Time>
            <Position>
              <LatitudeDegrees>38.55417137034237384796142578125</LatitudeDegrees>
              <LongitudeDegrees>-28.6270345933735370635986328125</LongitudeDegrees>
            </Position>
            <AltitudeMeters>125</AltitudeMeters>
            <DistanceMeters>45065.717340185</DistanceMeters>
          </Trackpoint>
          <Trackpoint>
            <Time>2020-04-26T18:20:50.000Z</Time>
            <Position>
              <LatitudeDegrees>38.55403306894004344940185546875</LatitudeDegrees>
              <LongitudeDegrees>-28.6268585734069347381591796875</LongitudeDegrees>
            </Position>
            <AltitudeMeters>125.59999847412109375</AltitudeMeters>
            <DistanceMeters>45087.435466553</DistanceMeters>
          </Trackpoint>
          <Trackpoint>
            <Time>2020-04-26T18:20:52.000Z</Time>
            <Position>
              <LatitudeDegrees>38.55394707061350345611572265625</LatitudeDegrees>
              <LongitudeDegrees>-28.6267425678670406341552734375</LongitudeDegrees>
            </Position>
            <AltitudeMeters>126</AltitudeMeters>
            <DistanceMeters>45101.348364118</DistanceMeters>
          </Trackpoint>
          <Trackpoint>
            <Time>2020-04-26T18:20:57.000Z</Time>
            <Position>
              <LatitudeDegrees>38.5537211783230304718017578125</LatitudeDegrees>
              <LongitudeDegrees>-28.6264626123011112213134765625</LongitudeDegrees>
            </Position>
            <AltitudeMeters>128</AltitudeMeters>
            <DistanceMeters>45136.36142094</DistanceMeters>
          </Trackpoint>
          <Trackpoint>
            <Time>2020-04-26T18:20:58.000Z</Time>
            <Position>
              <LatitudeDegrees>38.55367876589298248291015625</LatitudeDegrees>
              <LongitudeDegrees>-28.62640754319727420806884765625</LongitudeDegrees>
            </Position>
            <AltitudeMeters>128</AltitudeMeters>
            <DistanceMeters>45143.088882804</DistanceMeters>
          </Trackpoint>
          <Trackpoint>
            <Time>2020-04-26T18:21:05.000Z</Time>
            <Position>
              <LatitudeDegrees>38.55338615365326404571533203125</LatitudeDegrees>
              <LongitudeDegrees>-28.6260227300226688385009765625</LongitudeDegrees>
            </Position>
            <AltitudeMeters>128.399993896484375</AltitudeMeters>
            <DistanceMeters>45189.806957535</DistanceMeters>
          </Trackpoint>
          <Trackpoint>
            <Time>2020-04-26T18:21:13.000Z</Time>
            <Position>
              <LatitudeDegrees>38.553074263036251068115234375</LatitudeDegrees>
              <LongitudeDegrees>-28.625556193292140960693359375</LongitudeDegrees>
            </Position>
            <AltitudeMeters>128.399993896484375</AltitudeMeters>
            <DistanceMeters>45243.230482794</DistanceMeters>
          </Trackpoint>
          <Trackpoint>
            <Time>2020-04-26T18:21:14.000Z</Time>
            <Position>
              <LatitudeDegrees>38.55303771793842315673828125</LatitudeDegrees>
              <LongitudeDegrees>-28.625491820275783538818359375</LongitudeDegrees>
            </Position>
            <AltitudeMeters>129</AltitudeMeters>
            <DistanceMeters>45250.155055411</DistanceMeters>
          </Trackpoint>
          <Trackpoint>
            <Time>2020-04-26T18:21:21.000Z</Time>
            <Position>
              <LatitudeDegrees>38.55282037518918514251708984375</LatitudeDegrees>
              <LongitudeDegrees>-28.625030480325222015380859375</LongitudeDegrees>
            </Position>
            <AltitudeMeters>130</AltitudeMeters>
            <DistanceMeters>45297.034537324</DistanceMeters>
          </Trackpoint>
          <Trackpoint>
            <Time>2020-04-26T18:21:25.000Z</Time>
            <Position>
              <LatitudeDegrees>38.55270001105964183807373046875</LatitudeDegrees>
              <LongitudeDegrees>-28.62475764937698841094970703125</LongitudeDegrees>
            </Position>
            <AltitudeMeters>130</AltitudeMeters>
            <DistanceMeters>45324.300415881</DistanceMeters>
          </Trackpoint>
          <Trackpoint>
            <Time>2020-04-26T18:21:29.000Z</Time>
            <Position>
              <LatitudeDegrees>38.5525832511484622955322265625</LatitudeDegrees>
              <LongitudeDegrees>-28.62449361942708492279052734375</LongitudeDegrees>
            </Position>
            <AltitudeMeters>131</AltitudeMeters>
            <DistanceMeters>45350.702113949</DistanceMeters>
          </Trackpoint>
          <Trackpoint>
            <Time>2020-04-26T18:21:30.000Z</Time>
            <Position>
              <LatitudeDegrees>38.55255357921123504638671875</LatitudeDegrees>
              <LongitudeDegrees>-28.62442740239202976226806640625</LongitudeDegrees>
            </Position>
            <AltitudeMeters>131.399993896484375</AltitudeMeters>
            <DistanceMeters>45357.345154185</DistanceMeters>
          </Trackpoint>
          <Trackpoint>
            <Time>2020-04-26T18:21:32.000Z</Time>
            <Position>
              <LatitudeDegrees>38.55249096639454364776611328125</LatitudeDegrees>
              <LongitudeDegrees>-28.6242963932454586029052734375</LongitudeDegrees>
            </Position>
            <AltitudeMeters>132</AltitudeMeters>
            <DistanceMeters>45370.709167501</DistanceMeters>
          </Trackpoint>
          <Trackpoint>
            <Time>2020-04-26T18:21:37.000Z</Time>
            <Position>
              <LatitudeDegrees>38.552333973348140716552734375</LatitudeDegrees>
              <LongitudeDegrees>-28.6239601112902164459228515625</LongitudeDegrees>
            </Position>
            <AltitudeMeters>133.1999969482421875</AltitudeMeters>
            <DistanceMeters>45404.798999678</DistanceMeters>
          </Trackpoint>
          <Trackpoint>
            <Time>2020-04-26T18:21:39.000Z</Time>
            <Position>
              <LatitudeDegrees>38.552272617816925048828125</LatitudeDegrees>
              <LongitudeDegrees>-28.6238276772201061248779296875</LongitudeDegrees>
            </Position>
            <AltitudeMeters>132.399993896484375</AltitudeMeters>
            <DistanceMeters>45418.197092439</DistanceMeters>
          </Trackpoint>
          <Trackpoint>
            <Time>2020-04-26T18:21:42.000Z</Time>
            <Position>
              <LatitudeDegrees>38.552175052464008331298828125</LatitudeDegrees>
              <LongitudeDegrees>-28.62362609244883060455322265625</LongitudeDegrees>
            </Position>
            <AltitudeMeters>134.1999969482421875</AltitudeMeters>
            <DistanceMeters>45438.832116661</DistanceMeters>
          </Trackpoint>
          <Trackpoint>
            <Time>2020-04-26T18:21:48.000Z</Time>
            <Position>
              <LatitudeDegrees>38.5520142875611782073974609375</LatitudeDegrees>
              <LongitudeDegrees>-28.62322233617305755615234375</LongitudeDegrees>
            </Position>
            <AltitudeMeters>134.600006103515625</AltitudeMeters>
            <DistanceMeters>45478.269119034</DistanceMeters>
          </Trackpoint>
          <Trackpoint>
            <Time>2020-04-26T18:21:55.000Z</Time>
            <Position>
              <LatitudeDegrees>38.55187271721661090850830078125</LatitudeDegrees>
              <LongitudeDegrees>-28.62272570841014385223388671875</LongitudeDegrees>
            </Position>
            <AltitudeMeters>135.399993896484375</AltitudeMeters>
            <DistanceMeters>45524.27932313</DistanceMeters>
          </Trackpoint>
          <Trackpoint>
            <Time>2020-04-26T18:21:56.000Z</Time>
            <Position>
              <LatitudeDegrees>38.55185494758188724517822265625</LatitudeDegrees>
              <LongitudeDegrees>-28.622654378414154052734375</LongitudeDegrees>
            </Position>
            <AltitudeMeters>135.600006103515625</AltitudeMeters>
            <DistanceMeters>45530.795412405</DistanceMeters>
          </Trackpoint>
          <Trackpoint>
            <Time>2020-04-26T18:22:00.000Z</Time>
            <Position>
              <LatitudeDegrees>38.5517759062349796295166015625</LatitudeDegrees>
              <LongitudeDegrees>-28.62237333320081233978271484375</LongitudeDegrees>
            </Position>
            <AltitudeMeters>137</AltitudeMeters>
            <DistanceMeters>45556.792123374</DistanceMeters>
          </Trackpoint>
          <Trackpoint>
            <Time>2020-04-26T18:22:04.000Z</Time>
            <Position>
              <LatitudeDegrees>38.55167406611144542694091796875</LatitudeDegrees>
              <LongitudeDegrees>-28.6221036873757839202880859375</LongitudeDegrees>
            </Position>
            <AltitudeMeters>137.399993896484375</AltitudeMeters>
            <DistanceMeters>45582.8566537</DistanceMeters>
          </Trackpoint>
          <Trackpoint>
            <Time>2020-04-26T18:22:11.000Z</Time>
            <Position>
              <LatitudeDegrees>38.55145211331546306610107421875</LatitudeDegrees>
              <LongitudeDegrees>-28.62166388891637325286865234375</LongitudeDegrees>
            </Position>
            <AltitudeMeters>137.399993896484375</AltitudeMeters>
            <DistanceMeters>45628.417181927</DistanceMeters>
          </Trackpoint>
          <Trackpoint>
            <Time>2020-04-26T18:22:13.000Z</Time>
            <Position>
              <LatitudeDegrees>38.551386483013629913330078125</LatitudeDegrees>
              <LongitudeDegrees>-28.62154327332973480224609375</LongitudeDegrees>
            </Position>
            <AltitudeMeters>138.1999969482421875</AltitudeMeters>
            <DistanceMeters>45641.207368199</DistanceMeters>
          </Trackpoint>
          <Trackpoint>
            <Time>2020-04-26T18:22:17.000Z</Time>
            <Position>
              <LatitudeDegrees>38.55126184411346912384033203125</LatitudeDegrees>
              <LongitudeDegrees>-28.621305562555789947509765625</LongitudeDegrees>
            </Position>
            <AltitudeMeters>138.8000030517578125</AltitudeMeters>
            <DistanceMeters>45666.118871034</DistanceMeters>
          </Trackpoint>
          <Trackpoint>
            <Time>2020-04-26T18:22:21.000Z</Time>
            <Position>
              <LatitudeDegrees>38.5511439107358455657958984375</LatitudeDegrees>
              <LongitudeDegrees>-28.62106491811573505401611328125</LongitudeDegrees>
            </Position>
            <AltitudeMeters>139.1999969482421875</AltitudeMeters>
            <DistanceMeters>45690.838605518</DistanceMeters>
          </Trackpoint>
          <Trackpoint>
            <Time>2020-04-26T18:22:24.000Z</Time>
            <Position>
              <LatitudeDegrees>38.55104525573551654815673828125</LatitudeDegrees>
              <LongitudeDegrees>-28.62089417874813079833984375</LongitudeDegrees>
            </Position>
            <AltitudeMeters>140</AltitudeMeters>
            <DistanceMeters>45709.317087073</DistanceMeters>
          </Trackpoint>
          <Trackpoint>
            <Time>2020-04-26T18:22:26.000Z</Time>
            <Position>
              <LatitudeDegrees>38.55098054744303226470947265625</LatitudeDegrees>
              <LongitudeDegrees>-28.62077909521758556365966796875</LongitudeDegrees>
            </Position>
            <AltitudeMeters>140.399993896484375</AltitudeMeters>
            <DistanceMeters>45721.654468017</DistanceMeters>
          </Trackpoint>
          <Trackpoint>
            <Time>2020-04-26T18:22:30.000Z</Time>
            <Position>
              <LatitudeDegrees>38.5508525557816028594970703125</LatitudeDegrees>
              <LongitudeDegrees>-28.62054859288036823272705078125</LongitudeDegrees>
            </Position>
            <AltitudeMeters>141.399993896484375</AltitudeMeters>
            <DistanceMeters>45746.26143341</DistanceMeters>
          </Trackpoint>
          <Trackpoint>
            <Time>2020-04-26T18:22:34.000Z</Time>
            <Position>
              <LatitudeDegrees>38.55072699487209320068359375</LatitudeDegrees>
              <LongitudeDegrees>-28.62032429315149784088134765625</LongitudeDegrees>
            </Position>
            <AltitudeMeters>142.399993896484375</AltitudeMeters>
            <DistanceMeters>45770.271809091</DistanceMeters>
          </Trackpoint>
          <Trackpoint>
            <Time>2020-04-26T18:22:36.000Z</Time>
            <Position>
              <LatitudeDegrees>38.55066153220832347869873046875</LatitudeDegrees>
              <LongitudeDegrees>-28.62021700479090213775634765625</LongitudeDegrees>
            </Position>
            <AltitudeMeters>142.8000030517578125</AltitudeMeters>
            <DistanceMeters>45782.116651754</DistanceMeters>
          </Trackpoint>
          <Trackpoint>
            <Time>2020-04-26T18:22:40.000Z</Time>
            <Position>
              <LatitudeDegrees>38.550506047904491424560546875</LatitudeDegrees>
              <LongitudeDegrees>-28.6200378835201263427734375</LongitudeDegrees>
            </Position>
            <AltitudeMeters>143.399993896484375</AltitudeMeters>
            <DistanceMeters>45805.410023627</DistanceMeters>
          </Trackpoint>
          <Trackpoint>
            <Time>2020-04-26T18:22:42.000Z</Time>
            <Position>
              <LatitudeDegrees>38.5504257492721080780029296875</LatitudeDegrees>
              <LongitudeDegrees>-28.61996856518089771270751953125</LongitudeDegrees>
            </Position>
            <AltitudeMeters>143.8000030517578125</AltitudeMeters>
            <DistanceMeters>45816.193776427</DistanceMeters>
          </Trackpoint>
          <Trackpoint>
            <Time>2020-04-26T18:22:46.000Z</Time>
            <Position>
              <LatitudeDegrees>38.5502396710216999053955078125</LatitudeDegrees>
              <LongitudeDegrees>-28.61986446194350719451904296875</LongitudeDegrees>
            </Position>
            <AltitudeMeters>144.600006103515625</AltitudeMeters>
            <DistanceMeters>45838.80054989</DistanceMeters>
          </Trackpoint>
          <Trackpoint>
            <Time>2020-04-26T18:22:47.000Z</Time>
            <Position>
              <LatitudeDegrees>38.5501890443265438079833984375</LatitudeDegrees>
              <LongitudeDegrees>-28.6198543198406696319580078125</LongitudeDegrees>
            </Position>
            <AltitudeMeters>145</AltitudeMeters>
            <DistanceMeters>45844.50531943</DistanceMeters>
          </Trackpoint>
          <Trackpoint>
            <Time>2020-04-26T18:22:50.000Z</Time>
            <Position>
              <LatitudeDegrees>38.550027273595333099365234375</LatitudeDegrees>
              <LongitudeDegrees>-28.61983713693916797637939453125</LongitudeDegrees>
            </Position>
            <AltitudeMeters>145.600006103515625</AltitudeMeters>
            <DistanceMeters>45862.572894349</DistanceMeters>
          </Trackpoint>
          <Trackpoint>
            <Time>2020-04-26T18:22:51.000Z</Time>
            <Position>
              <LatitudeDegrees>38.54997354559600353240966796875</LatitudeDegrees>
              <LongitudeDegrees>-28.61983646638691425323486328125</LongitudeDegrees>
            </Position>
            <AltitudeMeters>145.8000030517578125</AltitudeMeters>
            <DistanceMeters>45868.554295762</DistanceMeters>
          </Trackpoint>
          <Trackpoint>
            <Time>2020-04-26T18:22:52.000Z</Time>
            <Position>
              <LatitudeDegrees>38.54992275126278400421142578125</LatitudeDegrees>
              <LongitudeDegrees>-28.61983244307339191436767578125</LongitudeDegrees>
            </Position>
            <AltitudeMeters>146.1999969482421875</AltitudeMeters>
            <DistanceMeters>45874.217760385</DistanceMeters>
          </Trackpoint>
          <Trackpoint>
            <Time>2020-04-26T18:22:54.000Z</Time>
            <Position>
              <LatitudeDegrees>38.5498165525496006011962890625</LatitudeDegrees>
              <LongitudeDegrees>-28.61985339783132076263427734375</LongitudeDegrees>
            </Position>
            <AltitudeMeters>146.600006103515625</AltitudeMeters>
            <DistanceMeters>45886.177543446</DistanceMeters>
          </Trackpoint>
          <Trackpoint>
            <Time>2020-04-26T18:22:56.000Z</Time>
            <Position>
              <LatitudeDegrees>38.54971974156796932220458984375</LatitudeDegrees>
              <LongitudeDegrees>-28.619873933494091033935546875</LongitudeDegrees>
            </Position>
            <AltitudeMeters>147.399993896484375</AltitudeMeters>
            <DistanceMeters>45897.100243203</DistanceMeters>
          </Trackpoint>
          <Trackpoint>
            <Time>2020-04-26T18:23:04.000Z</Time>
            <Position>
              <LatitudeDegrees>38.54931908659636974334716796875</LatitudeDegrees>
              <LongitudeDegrees>-28.6199844069778919219970703125</LongitudeDegrees>
            </Position>
            <AltitudeMeters>148</AltitudeMeters>
            <DistanceMeters>45942.719004883</DistanceMeters>
          </Trackpoint>
          <Trackpoint>
            <Time>2020-04-26T18:23:11.000Z</Time>
            <Position>
              <LatitudeDegrees>38.5489532165229320526123046875</LatitudeDegrees>
              <LongitudeDegrees>-28.620099239051342010498046875</LongitudeDegrees>
            </Position>
            <AltitudeMeters>148.1999969482421875</AltitudeMeters>
            <DistanceMeters>45984.650020422</DistanceMeters>
          </Trackpoint>
          <Trackpoint>
            <Time>2020-04-26T18:23:12.000Z</Time>
            <Position>
              <LatitudeDegrees>38.54891172610223293304443359375</LatitudeDegrees>
              <LongitudeDegrees>-28.62014726735651493072509765625</LongitudeDegrees>
            </Position>
            <AltitudeMeters>148.399993896484375</AltitudeMeters>
            <DistanceMeters>45990.879164704</DistanceMeters>
          </Trackpoint>
          <Trackpoint>
            <Time>2020-04-26T18:23:15.000Z</Time>
            <Position>
              <LatitudeDegrees>38.54879957623779773712158203125</LatitudeDegrees>
              <LongitudeDegrees>-28.62033384852111339569091796875</LongitudeDegrees>
            </Position>
            <AltitudeMeters>147.8000030517578125</AltitudeMeters>
            <DistanceMeters>46011.363098214</DistanceMeters>
          </Trackpoint>
          <Trackpoint>
            <Time>2020-04-26T18:23:16.000Z</Time>
            <Position>
              <LatitudeDegrees>38.5487564094364643096923828125</LatitudeDegrees>
              <LongitudeDegrees>-28.620397634804248809814453125</LongitudeDegrees>
            </Position>
            <AltitudeMeters>147.399993896484375</AltitudeMeters>
            <DistanceMeters>46018.706025862</DistanceMeters>
          </Trackpoint>
          <Trackpoint>
            <Time>2020-04-26T18:23:17.000Z</Time>
            <Position>
              <LatitudeDegrees>38.5487138293683528900146484375</LatitudeDegrees>
              <LongitudeDegrees>-28.620468713343143463134765625</LongitudeDegrees>
            </Position>
            <AltitudeMeters>147.1999969482421875</AltitudeMeters>
            <DistanceMeters>46026.499375216</DistanceMeters>
          </Trackpoint>
          <Trackpoint>
            <Time>2020-04-26T18:23:19.000Z</Time>
            <Position>
              <LatitudeDegrees>38.54864132590591907501220703125</LatitudeDegrees>
              <LongitudeDegrees>-28.62063090316951274871826171875</LongitudeDegrees>
            </Position>
            <AltitudeMeters>146.1999969482421875</AltitudeMeters>
            <DistanceMeters>46042.760886788</DistanceMeters>
          </Trackpoint>
          <Trackpoint>
            <Time>2020-04-26T18:23:21.000Z</Time>
            <Position>
              <LatitudeDegrees>38.54858030565083026885986328125</LatitudeDegrees>
              <LongitudeDegrees>-28.620830141007900238037109375</LongitudeDegrees>
            </Position>
            <AltitudeMeters>145</AltitudeMeters>
            <DistanceMeters>46061.386365218</DistanceMeters>
          </Trackpoint>
          <Trackpoint>
            <Time>2020-04-26T18:23:23.000Z</Time>
            <Position>
              <LatitudeDegrees>38.54855029843747615814208984375</LatitudeDegrees>
              <LongitudeDegrees>-28.621050417423248291015625</LongitudeDegrees>
            </Position>
            <AltitudeMeters>144</AltitudeMeters>
            <DistanceMeters>46080.849450966</DistanceMeters>
          </Trackpoint>
          <Trackpoint>
            <Time>2020-04-26T18:23:24.000Z</Time>
            <Position>
              <LatitudeDegrees>38.5485418327152729034423828125</LatitudeDegrees>
              <LongitudeDegrees>-28.6211632378399372100830078125</LongitudeDegrees>
            </Position>
            <AltitudeMeters>143.600006103515625</AltitudeMeters>
            <DistanceMeters>46090.715310988</DistanceMeters>
          </Trackpoint>
          <Trackpoint>
            <Time>2020-04-26T18:23:25.000Z</Time>
            <Position>
              <LatitudeDegrees>38.54853294789791107177734375</LatitudeDegrees>
              <LongitudeDegrees>-28.62127630971372127532958984375</LongitudeDegrees>
            </Position>
            <AltitudeMeters>143.399993896484375</AltitudeMeters>
            <DistanceMeters>46100.607222247</DistanceMeters>
          </Trackpoint>
          <Trackpoint>
            <Time>2020-04-26T18:23:26.000Z</Time>
            <Position>
              <LatitudeDegrees>38.5485230572521686553955078125</LatitudeDegrees>
              <LongitudeDegrees>-28.6213908903300762176513671875</LongitudeDegrees>
            </Position>
            <AltitudeMeters>143</AltitudeMeters>
            <DistanceMeters>46110.641431351</DistanceMeters>
          </Trackpoint>
          <Trackpoint>
            <Time>2020-04-26T18:23:27.000Z</Time>
            <Position>
              <LatitudeDegrees>38.5485126636922359466552734375</LatitudeDegrees>
              <LongitudeDegrees>-28.62150882370769977569580078125</LongitudeDegrees>
            </Position>
            <AltitudeMeters>142.1999969482421875</AltitudeMeters>
            <DistanceMeters>46120.972281921</DistanceMeters>
          </Trackpoint>
          <Trackpoint>
            <Time>2020-04-26T18:23:29.000Z</Time>
            <Position>
              <LatitudeDegrees>38.548498414456844329833984375</LatitudeDegrees>
              <LongitudeDegrees>-28.6217513121664524078369140625</LongitudeDegrees>
            </Position>
            <AltitudeMeters>141.399993896484375</AltitudeMeters>
            <DistanceMeters>46142.139575867</DistanceMeters>
          </Trackpoint>
          <Trackpoint>
            <Time>2020-04-26T18:23:30.000Z</Time>
            <Position>
              <LatitudeDegrees>38.54849045164883136749267578125</LatitudeDegrees>
              <LongitudeDegrees>-28.6218773759901523590087890625</LongitudeDegrees>
            </Position>
            <AltitudeMeters>141.1999969482421875</AltitudeMeters>
            <DistanceMeters>46153.148739597</DistanceMeters>
          </Trackpoint>
          <Trackpoint>
            <Time>2020-04-26T18:23:32.000Z</Time>
            <Position>
              <LatitudeDegrees>38.54848626069724559783935546875</LatitudeDegrees>
              <LongitudeDegrees>-28.6221380531787872314453125</LongitudeDegrees>
            </Position>
            <AltitudeMeters>140</AltitudeMeters>
            <DistanceMeters>46175.844811518</DistanceMeters>
          </Trackpoint>
          <Trackpoint>
            <Time>2020-04-26T18:23:33.000Z</Time>
            <Position>
              <LatitudeDegrees>38.54850076138973236083984375</LatitudeDegrees>
              <LongitudeDegrees>-28.62227325327694416046142578125</LongitudeDegrees>
            </Position>
            <AltitudeMeters>139.8000030517578125</AltitudeMeters>
            <DistanceMeters>46187.72429108</DistanceMeters>
          </Trackpoint>
          <Trackpoint>
            <Time>2020-04-26T18:23:35.000Z</Time>
            <Position>
              <LatitudeDegrees>38.54855599813163280487060546875</LatitudeDegrees>
              <LongitudeDegrees>-28.62253678031265735626220703125</LongitudeDegrees>
            </Position>
            <AltitudeMeters>139.1999969482421875</AltitudeMeters>
            <DistanceMeters>46211.473366319</DistanceMeters>
          </Trackpoint>
          <Trackpoint>
            <Time>2020-04-26T18:23:36.000Z</Time>
            <Position>
              <LatitudeDegrees>38.5485964827239513397216796875</LatitudeDegrees>
              <LongitudeDegrees>-28.62266401760280132293701171875</LongitudeDegrees>
            </Position>
            <AltitudeMeters>138.600006103515625</AltitudeMeters>
            <DistanceMeters>46223.430506459</DistanceMeters>
          </Trackpoint>
          <Trackpoint>
            <Time>2020-04-26T18:23:37.000Z</Time>
            <Position>
              <LatitudeDegrees>38.548640906810760498046875</LatitudeDegrees>
              <LongitudeDegrees>-28.62278924323618412017822265625</LongitudeDegrees>
            </Position>
            <AltitudeMeters>138.399993896484375</AltitudeMeters>
            <DistanceMeters>46235.39972376</DistanceMeters>
          </Trackpoint>
          <Trackpoint>
            <Time>2020-04-26T18:23:39.000Z</Time>
            <Position>
              <LatitudeDegrees>38.54872833006083965301513671875</LatitudeDegrees>
              <LongitudeDegrees>-28.62304153852164745330810546875</LongitudeDegrees>
            </Position>
            <AltitudeMeters>137.1999969482421875</AltitudeMeters>
            <DistanceMeters>46259.420439705</DistanceMeters>
          </Trackpoint>
          <Trackpoint>
            <Time>2020-04-26T18:23:41.000Z</Time>
            <Position>
              <LatitudeDegrees>38.54881650768220424652099609375</LatitudeDegrees>
              <LongitudeDegrees>-28.62329668365418910980224609375</LongitudeDegrees>
            </Position>
            <AltitudeMeters>135.8000030517578125</AltitudeMeters>
            <DistanceMeters>46283.701764239</DistanceMeters>
          </Trackpoint>
          <Trackpoint>
            <Time>2020-04-26T18:23:43.000Z</Time>
            <Position>
              <LatitudeDegrees>38.54890887625515460968017578125</LatitudeDegrees>
              <LongitudeDegrees>-28.62355233170092105865478515625</LongitudeDegrees>
            </Position>
            <AltitudeMeters>134.600006103515625</AltitudeMeters>
            <DistanceMeters>46308.214973064</DistanceMeters>
          </Trackpoint>
          <Trackpoint>
            <Time>2020-04-26T18:23:45.000Z</Time>
            <Position>
              <LatitudeDegrees>38.54900099337100982666015625</LatitudeDegrees>
              <LongitudeDegrees>-28.62381351180374622344970703125</LongitudeDegrees>
            </Position>
            <AltitudeMeters>132.8000030517578125</AltitudeMeters>
            <DistanceMeters>46333.154733798</DistanceMeters>
          </Trackpoint>
          <Trackpoint>
            <Time>2020-04-26T18:23:46.000Z</Time>
            <Position>
              <LatitudeDegrees>38.54904717765748500823974609375</LatitudeDegrees>
              <LongitudeDegrees>-28.62394494004547595977783203125</LongitudeDegrees>
            </Position>
            <AltitudeMeters>132.600006103515625</AltitudeMeters>
            <DistanceMeters>46345.696820213</DistanceMeters>
          </Trackpoint>
          <Trackpoint>
            <Time>2020-04-26T18:23:49.000Z</Time>
            <Position>
              <LatitudeDegrees>38.54917726479470729827880859375</LatitudeDegrees>
              <LongitudeDegrees>-28.62434911541640758514404296875</LongitudeDegrees>
            </Position>
            <AltitudeMeters>131.1999969482421875</AltitudeMeters>
            <DistanceMeters>46383.741700198</DistanceMeters>
          </Trackpoint>
          <Trackpoint>
            <Time>2020-04-26T18:23:51.000Z</Time>
            <Position>
              <LatitudeDegrees>38.54922638274729251861572265625</LatitudeDegrees>
              <LongitudeDegrees>-28.62463611178100109100341796875</LongitudeDegrees>
            </Position>
            <AltitudeMeters>130.399993896484375</AltitudeMeters>
            <DistanceMeters>46409.314835053</DistanceMeters>
          </Trackpoint>
          <Trackpoint>
            <Time>2020-04-26T18:23:52.000Z</Time>
            <Position>
              <LatitudeDegrees>38.54921950958669185638427734375</LatitudeDegrees>
              <LongitudeDegrees>-28.624787740409374237060546875</LongitudeDegrees>
            </Position>
            <AltitudeMeters>129.8000030517578125</AltitudeMeters>
            <DistanceMeters>46422.535506732</DistanceMeters>
          </Trackpoint>
          <Trackpoint>
            <Time>2020-04-26T18:23:54.000Z</Time>
            <Position>
              <LatitudeDegrees>38.54913116432726383209228515625</LatitudeDegrees>
              <LongitudeDegrees>-28.62506057135760784149169921875</LongitudeDegrees>
            </Position>
            <AltitudeMeters>128.8000030517578125</AltitudeMeters>
            <DistanceMeters>46448.2396621</DistanceMeters>
          </Trackpoint>
          <Trackpoint>
            <Time>2020-04-26T18:23:56.000Z</Time>
            <Position>
              <LatitudeDegrees>38.548961766064167022705078125</LatitudeDegrees>
              <LongitudeDegrees>-28.6252673529088497161865234375</LongitudeDegrees>
            </Position>
            <AltitudeMeters>127.40000152587890625</AltitudeMeters>
            <DistanceMeters>46474.306097835</DistanceMeters>
          </Trackpoint>
          <Trackpoint>
            <Time>2020-04-26T18:23:57.000Z</Time>
            <Position>
              <LatitudeDegrees>38.5488476045429706573486328125</LatitudeDegrees>
              <LongitudeDegrees>-28.6253266967833042144775390625</LongitudeDegrees>
            </Position>
            <AltitudeMeters>126</AltitudeMeters>
            <DistanceMeters>46488.022242069</DistanceMeters>
          </Trackpoint>
          <Trackpoint>
            <Time>2020-04-26T18:23:58.000Z</Time>
            <Position>
              <LatitudeDegrees>38.5487349517643451690673828125</LatitudeDegrees>
              <LongitudeDegrees>-28.62537883222103118896484375</LongitudeDegrees>
            </Position>
            <AltitudeMeters>124.8000030517578125</AltitudeMeters>
            <DistanceMeters>46501.356491398</DistanceMeters>
          </Trackpoint>
          <Trackpoint>
            <Time>2020-04-26T18:23:59.000Z</Time>
            <Position>
              <LatitudeDegrees>38.5486189462244510650634765625</LatitudeDegrees>
              <LongitudeDegrees>-28.625420741736888885498046875</LongitudeDegrees>
            </Position>
            <AltitudeMeters>123.40000152587890625</AltitudeMeters>
            <DistanceMeters>46514.773778903</DistanceMeters>
          </Trackpoint>
          <Trackpoint>
            <Time>2020-04-26T18:24:01.000Z</Time>
            <Position>
              <LatitudeDegrees>38.54841015301644802093505859375</LatitudeDegrees>
              <LongitudeDegrees>-28.62556516192853450775146484375</LongitudeDegrees>
            </Position>
            <AltitudeMeters>123</AltitudeMeters>
            <DistanceMeters>46541.195307052</DistanceMeters>
          </Trackpoint>
          <Trackpoint>
            <Time>2020-04-26T18:24:04.000Z</Time>
            <Position>
              <LatitudeDegrees>38.5482273437082767486572265625</LatitudeDegrees>
              <LongitudeDegrees>-28.6259623803198337554931640625</LongitudeDegrees>
            </Position>
            <AltitudeMeters>122.59999847412109375</AltitudeMeters>
            <DistanceMeters>46581.314591015</DistanceMeters>
          </Trackpoint>
          <Trackpoint>
            <Time>2020-04-26T18:24:05.000Z</Time>
            <Position>
              <LatitudeDegrees>38.5482186265289783477783203125</LatitudeDegrees>
              <LongitudeDegrees>-28.62611920572817325592041015625</LongitudeDegrees>
            </Position>
            <AltitudeMeters>122.1999969482421875</AltitudeMeters>
            <DistanceMeters>46595.000417464</DistanceMeters>
          </Trackpoint>
          <Trackpoint>
            <Time>2020-04-26T18:24:06.000Z</Time>
            <Position>
              <LatitudeDegrees>38.54823656380176544189453125</LatitudeDegrees>
              <LongitudeDegrees>-28.62627259455621242523193359375</LongitudeDegrees>
            </Position>
            <AltitudeMeters>121.40000152587890625</AltitudeMeters>
            <DistanceMeters>46608.501235699</DistanceMeters>
          </Trackpoint>
          <Trackpoint>
            <Time>2020-04-26T18:24:07.000Z</Time>
            <Position>
              <LatitudeDegrees>38.5482747852802276611328125</LatitudeDegrees>
              <LongitudeDegrees>-28.62642179243266582489013671875</LongitudeDegrees>
            </Position>
            <AltitudeMeters>119</AltitudeMeters>
            <DistanceMeters>46622.167583825</DistanceMeters>
          </Trackpoint>
          <Trackpoint>
            <Time>2020-04-26T18:24:09.000Z</Time>
            <Position>
              <LatitudeDegrees>38.548390455543994903564453125</LatitudeDegrees>
              <LongitudeDegrees>-28.6267013289034366607666015625</LongitudeDegrees>
            </Position>
            <AltitudeMeters>118</AltitudeMeters>
            <DistanceMeters>46649.696480197</DistanceMeters>
          </Trackpoint>
          <Trackpoint>
            <Time>2020-04-26T18:24:12.000Z</Time>
            <Position>
              <LatitudeDegrees>38.5485592670738697052001953125</LatitudeDegrees>
              <LongitudeDegrees>-28.62710558809340000152587890625</LongitudeDegrees>
            </Position>
            <AltitudeMeters>116.8000030517578125</AltitudeMeters>
            <DistanceMeters>46689.588124454</DistanceMeters>
          </Trackpoint>
          <Trackpoint>
            <Time>2020-04-26T18:24:14.000Z</Time>
            <Position>
              <LatitudeDegrees>38.54867049492895603179931640625</LatitudeDegrees>
              <LongitudeDegrees>-28.62737330608069896697998046875</LongitudeDegrees>
            </Position>
            <AltitudeMeters>115.1999969482421875</AltitudeMeters>
            <DistanceMeters>46715.976480123</DistanceMeters>
          </Trackpoint>
          <Trackpoint>
            <Time>2020-04-26T18:24:16.000Z</Time>
            <Position>
              <LatitudeDegrees>38.54877702891826629638671875</LatitudeDegrees>
              <LongitudeDegrees>-28.627637922763824462890625</LongitudeDegrees>
            </Position>
            <AltitudeMeters>113.8000030517578125</AltitudeMeters>
            <DistanceMeters>46741.88341861</DistanceMeters>
          </Trackpoint>
          <Trackpoint>
            <Time>2020-04-26T18:24:18.000Z</Time>
            <Position>
              <LatitudeDegrees>38.5488844849169254302978515625</LatitudeDegrees>
              <LongitudeDegrees>-28.62790279090404510498046875</LongitudeDegrees>
            </Position>
            <AltitudeMeters>112.40000152587890625</AltitudeMeters>
            <DistanceMeters>46767.856846396</DistanceMeters>
          </Trackpoint>
          <Trackpoint>
            <Time>2020-04-26T18:24:19.000Z</Time>
            <Position>
              <LatitudeDegrees>38.548922203481197357177734375</LatitudeDegrees>
              <LongitudeDegrees>-28.6280442774295806884765625</LongitudeDegrees>
            </Position>
            <AltitudeMeters>111.8000030517578125</AltitudeMeters>
            <DistanceMeters>46780.868915153</DistanceMeters>
          </Trackpoint>
          <Trackpoint>
            <Time>2020-04-26T18:24:20.000Z</Time>
            <Position>
              <LatitudeDegrees>38.5489485226571559906005859375</LatitudeDegrees>
              <LongitudeDegrees>-28.6281889490783214569091796875</LongitudeDegrees>
            </Position>
            <AltitudeMeters>111.1999969482421875</AltitudeMeters>
            <DistanceMeters>46793.798136905</DistanceMeters>
          </Trackpoint>
          <Trackpoint>
            <Time>2020-04-26T18:24:22.000Z</Time>
            <Position>
              <LatitudeDegrees>38.54900107719004154205322265625</LatitudeDegrees>
              <LongitudeDegrees>-28.62848348915576934814453125</LongitudeDegrees>
            </Position>
            <AltitudeMeters>109.59999847412109375</AltitudeMeters>
            <DistanceMeters>46820.095825101</DistanceMeters>
          </Trackpoint>
          <Trackpoint>
            <Time>2020-04-26T18:24:23.000Z</Time>
            <Position>
              <LatitudeDegrees>38.54905790649354457855224609375</LatitudeDegrees>
              <LongitudeDegrees>-28.628611229360103607177734375</LongitudeDegrees>
            </Position>
            <AltitudeMeters>109.1999969482421875</AltitudeMeters>
            <DistanceMeters>46832.888129246</DistanceMeters>
          </Trackpoint>
          <Trackpoint>
            <Time>2020-04-26T18:24:25.000Z</Time>
            <Position>
              <LatitudeDegrees>38.5492063499987125396728515625</LatitudeDegrees>
              <LongitudeDegrees>-28.628825806081295013427734375</LongitudeDegrees>
            </Position>
            <AltitudeMeters>108.40000152587890625</AltitudeMeters>
            <DistanceMeters>46857.824993207</DistanceMeters>
          </Trackpoint>
          <Trackpoint>
            <Time>2020-04-26T18:24:26.000Z</Time>
            <Position>
              <LatitudeDegrees>38.5492787696421146392822265625</LatitudeDegrees>
              <LongitudeDegrees>-28.62892915494740009307861328125</LongitudeDegrees>
            </Position>
            <AltitudeMeters>108.1999969482421875</AltitudeMeters>
            <DistanceMeters>46869.904230566</DistanceMeters>
          </Trackpoint>
          <Trackpoint>
            <Time>2020-04-26T18:24:32.000Z</Time>
            <Position>
              <LatitudeDegrees>38.5496529377996921539306640625</LatitudeDegrees>
              <LongitudeDegrees>-28.6294918321073055267333984375</LongitudeDegrees>
            </Position>
            <AltitudeMeters>107.59999847412109375</AltitudeMeters>
            <DistanceMeters>46934.194841936</DistanceMeters>
          </Trackpoint>
          <Trackpoint>
            <Time>2020-04-26T18:24:33.000Z</Time>
            <Position>
              <LatitudeDegrees>38.5496800951659679412841796875</LatitudeDegrees>
              <LongitudeDegrees>-28.629590906202793121337890625</LongitudeDegrees>
            </Position>
            <AltitudeMeters>107.59999847412109375</AltitudeMeters>
            <DistanceMeters>46943.333230577</DistanceMeters>
          </Trackpoint>
          <Trackpoint>
            <Time>2020-04-26T18:24:35.000Z</Time>
            <Position>
              <LatitudeDegrees>38.54968554340302944183349609375</LatitudeDegrees>
              <LongitudeDegrees>-28.629812858998775482177734375</LongitudeDegrees>
            </Position>
            <AltitudeMeters>107.40000152587890625</AltitudeMeters>
            <DistanceMeters>46962.662701417</DistanceMeters>
          </Trackpoint>
          <Trackpoint>
            <Time>2020-04-26T18:24:37.000Z</Time>
            <Position>
              <LatitudeDegrees>38.5496918298304080963134765625</LatitudeDegrees>
              <LongitudeDegrees>-28.63003858365118503570556640625</LongitudeDegrees>
            </Position>
            <AltitudeMeters>107</AltitudeMeters>
            <DistanceMeters>46982.323358889</DistanceMeters>
          </Trackpoint>
          <Trackpoint>
            <Time>2020-04-26T18:24:38.000Z</Time>
            <Position>
              <LatitudeDegrees>38.5497085936367511749267578125</LatitudeDegrees>
              <LongitudeDegrees>-28.630148805677890777587890625</LongitudeDegrees>
            </Position>
            <AltitudeMeters>106.8000030517578125</AltitudeMeters>
            <DistanceMeters>46992.097723768</DistanceMeters>
          </Trackpoint>
          <Trackpoint>
            <Time>2020-04-26T18:24:40.000Z</Time>
            <Position>
              <LatitudeDegrees>38.54976030997931957244873046875</LatitudeDegrees>
              <LongitudeDegrees>-28.63034552894532680511474609375</LongitudeDegrees>
            </Position>
            <AltitudeMeters>106.59999847412109375</AltitudeMeters>
            <DistanceMeters>47010.163299398</DistanceMeters>
          </Trackpoint>
          <Trackpoint>
            <Time>2020-04-26T18:24:42.000Z</Time>
            <Position>
              <LatitudeDegrees>38.54982334189116954803466796875</LatitudeDegrees>
              <LongitudeDegrees>-28.63051920197904109954833984375</LongitudeDegrees>
            </Position>
            <AltitudeMeters>107.1999969482421875</AltitudeMeters>
            <DistanceMeters>47026.829587269</DistanceMeters>
          </Trackpoint>
          <Trackpoint>
            <Time>2020-04-26T18:24:44.000Z</Time>
            <Position>
              <LatitudeDegrees>38.54988746345043182373046875</LatitudeDegrees>
              <LongitudeDegrees>-28.630683906376361846923828125</LongitudeDegrees>
            </Position>
            <AltitudeMeters>107.59999847412109375</AltitudeMeters>
            <DistanceMeters>47042.844337694</DistanceMeters>
          </Trackpoint>
          <Trackpoint>
            <Time>2020-04-26T18:24:45.000Z</Time>
            <Position>
              <LatitudeDegrees>38.54991587810218334197998046875</LatitudeDegrees>
              <LongitudeDegrees>-28.630763031542301177978515625</LongitudeDegrees>
            </Position>
            <AltitudeMeters>107.8000030517578125</AltitudeMeters>
            <DistanceMeters>47050.423872398</DistanceMeters>
          </Trackpoint>
          <Trackpoint>
            <Time>2020-04-26T18:24:47.000Z</Time>
            <Position>
              <LatitudeDegrees>38.5499697737395763397216796875</LatitudeDegrees>
              <LongitudeDegrees>-28.63091491162776947021484375</LongitudeDegrees>
            </Position>
            <AltitudeMeters>108.1999969482421875</AltitudeMeters>
            <DistanceMeters>47064.942138285</DistanceMeters>
          </Trackpoint>
          <Trackpoint>
            <Time>2020-04-26T18:24:48.000Z</Time>
            <Position>
              <LatitudeDegrees>38.54999835602939128875732421875</LatitudeDegrees>
              <LongitudeDegrees>-28.63098523579537868499755859375</LongitudeDegrees>
            </Position>
            <AltitudeMeters>108.59999847412109375</AltitudeMeters>
            <DistanceMeters>47071.841889223</DistanceMeters>
          </Trackpoint>
          <Trackpoint>
            <Time>2020-04-26T18:24:50.000Z</Time>
            <Position>
              <LatitudeDegrees>38.55005417950451374053955078125</LatitudeDegrees>
              <LongitudeDegrees>-28.63112135790288448333740234375</LongitudeDegrees>
            </Position>
            <AltitudeMeters>109.1999969482421875</AltitudeMeters>
            <DistanceMeters>47085.221434635</DistanceMeters>
          </Trackpoint>
          <Trackpoint>
            <Time>2020-04-26T18:24:52.000Z</Time>
            <Position>
              <LatitudeDegrees>38.550107739865779876708984375</LatitudeDegrees>
              <LongitudeDegrees>-28.63124884665012359619140625</LongitudeDegrees>
            </Position>
            <AltitudeMeters>109.40000152587890625</AltitudeMeters>
            <DistanceMeters>47097.818479263</DistanceMeters>
          </Trackpoint>
          <Trackpoint>
            <Time>2020-04-26T18:24:53.000Z</Time>
            <Position>
              <LatitudeDegrees>38.55013280175626277923583984375</LatitudeDegrees>
              <LongitudeDegrees>-28.63131078891456127166748046875</LongitudeDegrees>
            </Position>
            <AltitudeMeters>109.59999847412109375</AltitudeMeters>
            <DistanceMeters>47103.889786539</DistanceMeters>
          </Trackpoint>
          <Trackpoint>
            <Time>2020-04-26T18:24:56.000Z</Time>
            <Position>
              <LatitudeDegrees>38.55020170100033283233642578125</LatitudeDegrees>
              <LongitudeDegrees>-28.6314855515956878662109375</LongitudeDegrees>
            </Position>
            <AltitudeMeters>109.8000030517578125</AltitudeMeters>
            <DistanceMeters>47120.925826481</DistanceMeters>
          </Trackpoint>
          <Trackpoint>
            <Time>2020-04-26T18:24:59.000Z</Time>
            <Position>
              <LatitudeDegrees>38.550272695720195770263671875</LatitudeDegrees>
              <LongitudeDegrees>-28.63166232593357563018798828125</LongitudeDegrees>
            </Position>
            <AltitudeMeters>110.40000152587890625</AltitudeMeters>
            <DistanceMeters>47138.223298924</DistanceMeters>
          </Trackpoint>
          <Trackpoint>
            <Time>2020-04-26T18:25:00.000Z</Time>
            <Position>
              <LatitudeDegrees>38.550300188362598419189453125</LatitudeDegrees>
              <LongitudeDegrees>-28.63171580247581005096435546875</LongitudeDegrees>
            </Position>
            <AltitudeMeters>110.59999847412109375</AltitudeMeters>
            <DistanceMeters>47143.793518189</DistanceMeters>
          </Trackpoint>
          <Trackpoint>
            <Time>2020-04-26T18:25:02.000Z</Time>
            <Position>
              <LatitudeDegrees>38.5503583587706089019775390625</LatitudeDegrees>
              <LongitudeDegrees>-28.63182342611253261566162109375</LongitudeDegrees>
            </Position>
            <AltitudeMeters>110.8000030517578125</AltitudeMeters>
            <DistanceMeters>47155.180875114</DistanceMeters>
          </Trackpoint>
          <Trackpoint>
            <Time>2020-04-26T18:25:04.000Z</Time>
            <Position>
              <LatitudeDegrees>38.55041309259831905364990234375</LatitudeDegrees>
              <LongitudeDegrees>-28.63193373195827007293701171875</LongitudeDegrees>
            </Position>
            <AltitudeMeters>111</AltitudeMeters>
            <DistanceMeters>47166.551567024</DistanceMeters>
          </Trackpoint>
          <Trackpoint>
            <Time>2020-04-26T18:25:05.000Z</Time>
            <Position>
              <LatitudeDegrees>38.5504462011158466339111328125</LatitudeDegrees>
              <LongitudeDegrees>-28.63198511302471160888671875</LongitudeDegrees>
            </Position>
            <AltitudeMeters>111.1999969482421875</AltitudeMeters>
            <DistanceMeters>47172.347417641</DistanceMeters>
          </Trackpoint>
          <Trackpoint>
            <Time>2020-04-26T18:25:07.000Z</Time>
            <Position>
              <LatitudeDegrees>38.55051510035991668701171875</LatitudeDegrees>
              <LongitudeDegrees>-28.6320890486240386962890625</LongitudeDegrees>
            </Position>
            <AltitudeMeters>111.59999847412109375</AltitudeMeters>
            <DistanceMeters>47184.207117076</DistanceMeters>
          </Trackpoint>
          <Trackpoint>
            <Time>2020-04-26T18:25:10.000Z</Time>
            <Position>
              <LatitudeDegrees>38.55062616057693958282470703125</LatitudeDegrees>
              <LongitudeDegrees>-28.63223330117762088775634765625</LongitudeDegrees>
            </Position>
            <AltitudeMeters>112.40000152587890625</AltitudeMeters>
            <DistanceMeters>47201.827335244</DistanceMeters>
          </Trackpoint>
          <Trackpoint>
            <Time>2020-04-26T18:25:11.000Z</Time>
            <Position>
              <LatitudeDegrees>38.55065993964672088623046875</LatitudeDegrees>
              <LongitudeDegrees>-28.63227353431284427642822265625</LongitudeDegrees>
            </Position>
            <AltitudeMeters>113</AltitudeMeters>
            <DistanceMeters>47206.965812015</DistanceMeters>
          </Trackpoint>
          <Trackpoint>
            <Time>2020-04-26T18:25:17.000Z</Time>
            <Position>
              <LatitudeDegrees>38.55091365985572338104248046875</LatitudeDegrees>
              <LongitudeDegrees>-28.63250202499330043792724609375</LongitudeDegrees>
            </Position>
            <AltitudeMeters>113.40000152587890625</AltitudeMeters>
            <DistanceMeters>47241.506290727</DistanceMeters>
          </Trackpoint>
          <Trackpoint>
            <Time>2020-04-26T18:25:25.000Z</Time>
            <Position>
              <LatitudeDegrees>38.551305346190929412841796875</LatitudeDegrees>
              <LongitudeDegrees>-28.6328385584056377410888671875</LongitudeDegrees>
            </Position>
            <AltitudeMeters>111.8000030517578125</AltitudeMeters>
            <DistanceMeters>47294.029250121</DistanceMeters>
          </Trackpoint>
          <Trackpoint>
            <Time>2020-04-26T18:25:30.000Z</Time>
            <Position>
              <LatitudeDegrees>38.5515744052827358245849609375</LatitudeDegrees>
              <LongitudeDegrees>-28.63307467661798000335693359375</LongitudeDegrees>
            </Position>
            <AltitudeMeters>111</AltitudeMeters>
            <DistanceMeters>47330.350344926</DistanceMeters>
          </Trackpoint>
          <Trackpoint>
            <Time>2020-04-26T18:25:33.000Z</Time>
            <Position>
              <LatitudeDegrees>38.55173340998589992523193359375</LatitudeDegrees>
              <LongitudeDegrees>-28.63321331329643726348876953125</LongitudeDegrees>
            </Position>
            <AltitudeMeters>110.8000030517578125</AltitudeMeters>
            <DistanceMeters>47351.770597357</DistanceMeters>
          </Trackpoint>
          <Trackpoint>
            <Time>2020-04-26T18:25:34.000Z</Time>
            <Position>
              <LatitudeDegrees>38.5517846234142780303955078125</LatitudeDegrees>
              <LongitudeDegrees>-28.6332630179822444915771484375</LongitudeDegrees>
            </Position>
            <AltitudeMeters>110.40000152587890625</AltitudeMeters>
            <DistanceMeters>47358.926683124</DistanceMeters>
          </Trackpoint>
          <Trackpoint>
            <Time>2020-04-26T18:25:37.000Z</Time>
            <Position>
              <LatitudeDegrees>38.55191831476986408233642578125</LatitudeDegrees>
              <LongitudeDegrees>-28.63344213925302028656005859375</LongitudeDegrees>
            </Position>
            <AltitudeMeters>110</AltitudeMeters>
            <DistanceMeters>47380.47932014</DistanceMeters>
          </Trackpoint>
          <Trackpoint>
            <Time>2020-04-26T18:25:38.000Z</Time>
            <Position>
              <LatitudeDegrees>38.55195586569607257843017578125</LatitudeDegrees>
              <LongitudeDegrees>-28.63351187668740749359130859375</LongitudeDegrees>
            </Position>
            <AltitudeMeters>110.1999969482421875</AltitudeMeters>
            <DistanceMeters>47387.849865567</DistanceMeters>
          </Trackpoint>
          <Trackpoint>
            <Time>2020-04-26T18:25:39.000Z</Time>
            <Position>
              <LatitudeDegrees>38.55198972858488559722900390625</LatitudeDegrees>
              <LongitudeDegrees>-28.63358479924499988555908203125</LongitudeDegrees>
            </Position>
            <AltitudeMeters>110</AltitudeMeters>
            <DistanceMeters>47395.232040812</DistanceMeters>
          </Trackpoint>
          <Trackpoint>
            <Time>2020-04-26T18:25:41.000Z</Time>
            <Position>
              <LatitudeDegrees>38.55204840190708637237548828125</LatitudeDegrees>
              <LongitudeDegrees>-28.63373600877821445465087890625</LongitudeDegrees>
            </Position>
            <AltitudeMeters>109.59999847412109375</AltitudeMeters>
            <DistanceMeters>47409.924965556</DistanceMeters>
          </Trackpoint>
          <Trackpoint>
            <Time>2020-04-26T18:25:45.000Z</Time>
            <Position>
              <LatitudeDegrees>38.55214328505098819732666015625</LatitudeDegrees>
              <LongitudeDegrees>-28.6340358294546604156494140625</LongitudeDegrees>
            </Position>
            <AltitudeMeters>109.40000152587890625</AltitudeMeters>
            <DistanceMeters>47438.077902697</DistanceMeters>
          </Trackpoint>
          <Trackpoint>
            <Time>2020-04-26T18:25:50.000Z</Time>
            <Position>
              <LatitudeDegrees>38.55226398445665836334228515625</LatitudeDegrees>
              <LongitudeDegrees>-28.63442650996148586273193359375</LongitudeDegrees>
            </Position>
            <AltitudeMeters>109.1999969482421875</AltitudeMeters>
            <DistanceMeters>47474.64109043</DistanceMeters>
          </Trackpoint>
          <Trackpoint>
            <Time>2020-04-26T18:25:55.000Z</Time>
            <Position>
              <LatitudeDegrees>38.55238568969070911407470703125</LatitudeDegrees>
              <LongitudeDegrees>-28.63482750020921230316162109375</LongitudeDegrees>
            </Position>
            <AltitudeMeters>109.1999969482421875</AltitudeMeters>
            <DistanceMeters>47512.080771736</DistanceMeters>
          </Trackpoint>
          <Trackpoint>
            <Time>2020-04-26T18:26:02.000Z</Time>
            <Position>
              <LatitudeDegrees>38.5525534115731716156005859375</LatitudeDegrees>
              <LongitudeDegrees>-28.63537081517279148101806640625</LongitudeDegrees>
            </Position>
            <AltitudeMeters>109.59999847412109375</AltitudeMeters>
            <DistanceMeters>47562.923349789</DistanceMeters>
          </Trackpoint>
          <Trackpoint>
            <Time>2020-04-26T18:26:06.000Z</Time>
            <Position>
              <LatitudeDegrees>38.55266011320054531097412109375</LatitudeDegrees>
              <LongitudeDegrees>-28.63565093837678432464599609375</LongitudeDegrees>
            </Position>
            <AltitudeMeters>109.59999847412109375</AltitudeMeters>
            <DistanceMeters>47590.044446869</DistanceMeters>
          </Trackpoint>
          <Trackpoint>
            <Time>2020-04-26T18:26:09.000Z</Time>
            <Position>
              <LatitudeDegrees>38.55276287533342838287353515625</LatitudeDegrees>
              <LongitudeDegrees>-28.63585009239614009857177734375</LongitudeDegrees>
            </Position>
            <AltitudeMeters>110.1999969482421875</AltitudeMeters>
            <DistanceMeters>47610.812730412</DistanceMeters>
          </Trackpoint>
          <Trackpoint>
            <Time>2020-04-26T18:26:14.000Z</Time>
            <Position>
              <LatitudeDegrees>38.552950210869312286376953125</LatitudeDegrees>
              <LongitudeDegrees>-28.6361767351627349853515625</LongitudeDegrees>
            </Position>
            <AltitudeMeters>110.40000152587890625</AltitudeMeters>
            <DistanceMeters>47646.070586892</DistanceMeters>
          </Trackpoint>
          <Trackpoint>
            <Time>2020-04-26T18:26:17.000Z</Time>
            <Position>
              <LatitudeDegrees>38.5530670545995235443115234375</LatitudeDegrees>
              <LongitudeDegrees>-28.63636189140379428863525390625</LongitudeDegrees>
            </Position>
            <AltitudeMeters>110.59999847412109375</AltitudeMeters>
            <DistanceMeters>47666.779871058</DistanceMeters>
          </Trackpoint>
          <Trackpoint>
            <Time>2020-04-26T18:26:18.000Z</Time>
            <Position>
              <LatitudeDegrees>38.55310301296412944793701171875</LatitudeDegrees>
              <LongitudeDegrees>-28.6364216543734073638916015625</LongitudeDegrees>
            </Position>
            <AltitudeMeters>110.59999847412109375</AltitudeMeters>
            <DistanceMeters>47673.344284572</DistanceMeters>
          </Trackpoint>
          <Trackpoint>
            <Time>2020-04-26T18:26:25.000Z</Time>
            <Position>
              <LatitudeDegrees>38.5533024184405803680419921875</LatitudeDegrees>
              <LongitudeDegrees>-28.6368994228541851043701171875</LongitudeDegrees>
            </Position>
            <AltitudeMeters>111</AltitudeMeters>
            <DistanceMeters>47720.481941174</DistanceMeters>
          </Trackpoint>
          <Trackpoint>
            <Time>2020-04-26T18:26:32.000Z</Time>
            <Position>
              <LatitudeDegrees>38.5534442402422428131103515625</LatitudeDegrees>
              <LongitudeDegrees>-28.63740057684481143951416015625</LongitudeDegrees>
            </Position>
            <AltitudeMeters>111.1999969482421875</AltitudeMeters>
            <DistanceMeters>47766.871137302</DistanceMeters>
          </Trackpoint>
          <Trackpoint>
            <Time>2020-04-26T18:26:36.000Z</Time>
            <Position>
              <LatitudeDegrees>38.553515486419200897216796875</LatitudeDegrees>
              <LongitudeDegrees>-28.63769243471324443817138671875</LongitudeDegrees>
            </Position>
            <AltitudeMeters>111.8000030517578125</AltitudeMeters>
            <DistanceMeters>47793.483368237</DistanceMeters>
          </Trackpoint>
          <Trackpoint>
            <Time>2020-04-26T18:26:41.000Z</Time>
            <Position>
              <LatitudeDegrees>38.55360643006861209869384765625</LatitudeDegrees>
              <LongitudeDegrees>-28.63804967142641544342041015625</LongitudeDegrees>
            </Position>
            <AltitudeMeters>111.8000030517578125</AltitudeMeters>
            <DistanceMeters>47826.183605732</DistanceMeters>
          </Trackpoint>
          <Trackpoint>
            <Time>2020-04-26T18:26:47.000Z</Time>
            <Position>
              <LatitudeDegrees>38.5536767542362213134765625</LatitudeDegrees>
              <LongitudeDegrees>-28.6384852789342403411865234375</LongitudeDegrees>
            </Position>
            <AltitudeMeters>113</AltitudeMeters>
            <DistanceMeters>47864.899033261</DistanceMeters>
          </Trackpoint>
          <Trackpoint>
            <Time>2020-04-26T18:26:48.000Z</Time>
            <Position>
              <LatitudeDegrees>38.5536846332252025604248046875</LatitudeDegrees>
              <LongitudeDegrees>-28.63855744712054729461669921875</LongitudeDegrees>
            </Position>
            <AltitudeMeters>113</AltitudeMeters>
            <DistanceMeters>47871.242377855</DistanceMeters>
          </Trackpoint>
          <Trackpoint>
            <Time>2020-04-26T18:26:55.000Z</Time>
            <Position>
              <LatitudeDegrees>38.55372578836977481842041015625</LatitudeDegrees>
              <LongitudeDegrees>-28.63906882703304290771484375</LongitudeDegrees>
            </Position>
            <AltitudeMeters>113.1999969482421875</AltitudeMeters>
            <DistanceMeters>47915.988458797</DistanceMeters>
          </Trackpoint>
          <Trackpoint>
            <Time>2020-04-26T18:27:02.000Z</Time>
            <Position>
              <LatitudeDegrees>38.55376602150499820709228515625</LatitudeDegrees>
              <LongitudeDegrees>-28.6396218650043010711669921875</LongitudeDegrees>
            </Position>
            <AltitudeMeters>112.8000030517578125</AltitudeMeters>
            <DistanceMeters>47964.333153807</DistanceMeters>
          </Trackpoint>
          <Trackpoint>
            <Time>2020-04-26T18:27:03.000Z</Time>
            <Position>
              <LatitudeDegrees>38.55377105064690113067626953125</LatitudeDegrees>
              <LongitudeDegrees>-28.6397050134837627410888671875</LongitudeDegrees>
            </Position>
            <AltitudeMeters>112.8000030517578125</AltitudeMeters>
            <DistanceMeters>47971.592597734</DistanceMeters>
          </Trackpoint>
          <Trackpoint>
            <Time>2020-04-26T18:27:06.000Z</Time>
            <Position>
              <LatitudeDegrees>38.55378429405391216278076171875</LatitudeDegrees>
              <LongitudeDegrees>-28.63995454274117946624755859375</LongitudeDegrees>
            </Position>
            <AltitudeMeters>112.8000030517578125</AltitudeMeters>
            <DistanceMeters>47993.362013019</DistanceMeters>
          </Trackpoint>
          <Trackpoint>
            <Time>2020-04-26T18:27:11.000Z</Time>
            <Position>
              <LatitudeDegrees>38.553801812231540679931640625</LatitudeDegrees>
              <LongitudeDegrees>-28.6403702013194561004638671875</LongitudeDegrees>
            </Position>
            <AltitudeMeters>112.1999969482421875</AltitudeMeters>
            <DistanceMeters>48029.593744043</DistanceMeters>
          </Trackpoint>
          <Trackpoint>
            <Time>2020-04-26T18:27:13.000Z</Time>
            <Position>
              <LatitudeDegrees>38.55381111614406108856201171875</LatitudeDegrees>
              <LongitudeDegrees>-28.64053775556385517120361328125</LongitudeDegrees>
            </Position>
            <AltitudeMeters>112.1999969482421875</AltitudeMeters>
            <DistanceMeters>48044.21458532</DistanceMeters>
          </Trackpoint>
          <Trackpoint>
            <Time>2020-04-26T18:27:22.000Z</Time>
            <Position>
              <LatitudeDegrees>38.55382301844656467437744140625</LatitudeDegrees>
              <LongitudeDegrees>-28.64129480905830860137939453125</LongitudeDegrees>
            </Position>
            <AltitudeMeters>112.40000152587890625</AltitudeMeters>
            <DistanceMeters>48110.122376989</DistanceMeters>
          </Trackpoint>
          <Trackpoint>
            <Time>2020-04-26T18:27:23.000Z</Time>
            <Position>
              <LatitudeDegrees>38.5538217611610889434814453125</LatitudeDegrees>
              <LongitudeDegrees>-28.64137611351907253265380859375</LongitudeDegrees>
            </Position>
            <AltitudeMeters>112.1999969482421875</AltitudeMeters>
            <DistanceMeters>48117.200432097</DistanceMeters>
          </Trackpoint>
          <Trackpoint>
            <Time>2020-04-26T18:27:31.000Z</Time>
            <Position>
              <LatitudeDegrees>38.5537932626903057098388671875</LatitudeDegrees>
              <LongitudeDegrees>-28.642030656337738037109375</LongitudeDegrees>
            </Position>
            <AltitudeMeters>112.59999847412109375</AltitudeMeters>
            <DistanceMeters>48174.260631032</DistanceMeters>
          </Trackpoint>
          <Trackpoint>
            <Time>2020-04-26T18:27:36.000Z</Time>
            <Position>
              <LatitudeDegrees>38.55376048944890499114990234375</LatitudeDegrees>
              <LongitudeDegrees>-28.64243927411735057830810546875</LongitudeDegrees>
            </Position>
            <AltitudeMeters>112.8000030517578125</AltitudeMeters>
            <DistanceMeters>48210.013414156</DistanceMeters>
          </Trackpoint>
          <Trackpoint>
            <Time>2020-04-26T18:27:41.000Z</Time>
            <Position>
              <LatitudeDegrees>38.55373115278780460357666015625</LatitudeDegrees>
              <LongitudeDegrees>-28.6428499035537242889404296875</LongitudeDegrees>
            </Position>
            <AltitudeMeters>113.40000152587890625</AltitudeMeters>
            <DistanceMeters>48245.903835505</DistanceMeters>
          </Trackpoint>
          <Trackpoint>
            <Time>2020-04-26T18:27:44.000Z</Time>
            <Position>
              <LatitudeDegrees>38.553713969886302947998046875</LatitudeDegrees>
              <LongitudeDegrees>-28.64309079945087432861328125</LongitudeDegrees>
            </Position>
            <AltitudeMeters>114</AltitudeMeters>
            <DistanceMeters>48266.958633361</DistanceMeters>
          </Trackpoint>
          <Trackpoint>
            <Time>2020-04-26T18:27:46.000Z</Time>
            <Position>
              <LatitudeDegrees>38.553709276020526885986328125</LatitudeDegrees>
              <LongitudeDegrees>-28.64325173199176788330078125</LongitudeDegrees>
            </Position>
            <AltitudeMeters>114.1999969482421875</AltitudeMeters>
            <DistanceMeters>48280.976281646</DistanceMeters>
          </Trackpoint>
          <Trackpoint>
            <Time>2020-04-26T18:27:48.000Z</Time>
            <Position>
              <LatitudeDegrees>38.5537131316959857940673828125</LatitudeDegrees>
              <LongitudeDegrees>-28.64341459237039089202880859375</LongitudeDegrees>
            </Position>
            <AltitudeMeters>114.59999847412109375</AltitudeMeters>
            <DistanceMeters>48295.158521339</DistanceMeters>
          </Trackpoint>
          <Trackpoint>
            <Time>2020-04-26T18:27:52.000Z</Time>
            <Position>
              <LatitudeDegrees>38.55373785831034183502197265625</LatitudeDegrees>
              <LongitudeDegrees>-28.6437276564538478851318359375</LongitudeDegrees>
            </Position>
            <AltitudeMeters>115</AltitudeMeters>
            <DistanceMeters>48322.546499723</DistanceMeters>
          </Trackpoint>
          <Trackpoint>
            <Time>2020-04-26T18:27:55.000Z</Time>
            <Position>
              <LatitudeDegrees>38.5537798516452312469482421875</LatitudeDegrees>
              <LongitudeDegrees>-28.64394969306886196136474609375</LongitudeDegrees>
            </Position>
            <AltitudeMeters>115.8000030517578125</AltitudeMeters>
            <DistanceMeters>48342.430030769</DistanceMeters>
          </Trackpoint>
          <Trackpoint>
            <Time>2020-04-26T18:27:59.000Z</Time>
            <Position>
              <LatitudeDegrees>38.5538361780345439910888671875</LatitudeDegrees>
              <LongitudeDegrees>-28.6442434787750244140625</LongitudeDegrees>
            </Position>
            <AltitudeMeters>116.1999969482421875</AltitudeMeters>
            <DistanceMeters>48368.758776434</DistanceMeters>
          </Trackpoint>
          <Trackpoint>
            <Time>2020-04-26T18:28:04.000Z</Time>
            <Position>
              <LatitudeDegrees>38.55389359407126903533935546875</LatitudeDegrees>
              <LongitudeDegrees>-28.6446168087422847747802734375</LongitudeDegrees>
            </Position>
            <AltitudeMeters>116.59999847412109375</AltitudeMeters>
            <DistanceMeters>48401.876097651</DistanceMeters>
          </Trackpoint>
          <Trackpoint>
            <Time>2020-04-26T18:28:05.000Z</Time>
            <Position>
              <LatitudeDegrees>38.55390004813671112060546875</LatitudeDegrees>
              <LongitudeDegrees>-28.64469165913760662078857421875</LongitudeDegrees>
            </Position>
            <AltitudeMeters>117</AltitudeMeters>
            <DistanceMeters>48408.430185966</DistanceMeters>
          </Trackpoint>
          <Trackpoint>
            <Time>2020-04-26T18:28:06.000Z</Time>
            <Position>
              <LatitudeDegrees>38.5539065860211849212646484375</LatitudeDegrees>
              <LongitudeDegrees>-28.64476575516164302825927734375</LongitudeDegrees>
            </Position>
            <AltitudeMeters>117.1999969482421875</AltitudeMeters>
            <DistanceMeters>48414.919891394</DistanceMeters>
          </Trackpoint>
          <Trackpoint>
            <Time>2020-04-26T18:28:13.000Z</Time>
            <Position>
              <LatitudeDegrees>38.55396081693470478057861328125</LatitudeDegrees>
              <LongitudeDegrees>-28.6452752910554409027099609375</LongitudeDegrees>
            </Position>
            <AltitudeMeters>117.59999847412109375</AltitudeMeters>
            <DistanceMeters>48459.678987001</DistanceMeters>
          </Trackpoint>
          <Trackpoint>
            <Time>2020-04-26T18:28:17.000Z</Time>
            <Position>
              <LatitudeDegrees>38.55398998595774173736572265625</LatitudeDegrees>
              <LongitudeDegrees>-28.64556237123906612396240234375</LongitudeDegrees>
            </Position>
            <AltitudeMeters>118.1999969482421875</AltitudeMeters>
            <DistanceMeters>48484.87683939</DistanceMeters>
          </Trackpoint>
          <Trackpoint>
            <Time>2020-04-26T18:28:23.000Z</Time>
            <Position>
              <LatitudeDegrees>38.55402720160782337188720703125</LatitudeDegrees>
              <LongitudeDegrees>-28.6459694802761077880859375</LongitudeDegrees>
            </Position>
            <AltitudeMeters>119.1999969482421875</AltitudeMeters>
            <DistanceMeters>48520.553138313</DistanceMeters>
          </Trackpoint>
          <Trackpoint>
            <Time>2020-04-26T18:28:32.000Z</Time>
            <Position>
              <LatitudeDegrees>38.55408436618745326995849609375</LatitudeDegrees>
              <LongitudeDegrees>-28.64657071419060230255126953125</LongitudeDegrees>
            </Position>
            <AltitudeMeters>119.40000152587890625</AltitudeMeters>
            <DistanceMeters>48573.270273349</DistanceMeters>
          </Trackpoint>
          <Trackpoint>
            <Time>2020-04-26T18:28:39.000Z</Time>
            <Position>
              <LatitudeDegrees>38.5541885532438755035400390625</LatitudeDegrees>
              <LongitudeDegrees>-28.64705602638423442840576171875</LongitudeDegrees>
            </Position>
            <AltitudeMeters>118.8000030517578125</AltitudeMeters>
            <DistanceMeters>48617.074805807</DistanceMeters>
          </Trackpoint>
          <Trackpoint>
            <Time>2020-04-26T18:28:43.000Z</Time>
            <Position>
              <LatitudeDegrees>38.55423859320580959320068359375</LatitudeDegrees>
              <LongitudeDegrees>-28.64735794253647327423095703125</LongitudeDegrees>
            </Position>
            <AltitudeMeters>119</AltitudeMeters>
            <DistanceMeters>48643.937296545</DistanceMeters>
          </Trackpoint>
          <Trackpoint>
            <Time>2020-04-26T18:28:46.000Z</Time>
            <Position>
              <LatitudeDegrees>38.55427128262817859649658203125</LatitudeDegrees>
              <LongitudeDegrees>-28.6476121656596660614013671875</LongitudeDegrees>
            </Position>
            <AltitudeMeters>118.59999847412109375</AltitudeMeters>
            <DistanceMeters>48666.361789113</DistanceMeters>
          </Trackpoint>
          <Trackpoint>
            <Time>2020-04-26T18:28:48.000Z</Time>
            <Position>
              <LatitudeDegrees>38.554281927645206451416015625</LatitudeDegrees>
              <LongitudeDegrees>-28.64779807627201080322265625</LongitudeDegrees>
            </Position>
            <AltitudeMeters>118.1999969482421875</AltitudeMeters>
            <DistanceMeters>48682.586887528</DistanceMeters>
          </Trackpoint>
          <Trackpoint>
            <Time>2020-04-26T18:28:51.000Z</Time>
            <Position>
              <LatitudeDegrees>38.55428502894937992095947265625</LatitudeDegrees>
              <LongitudeDegrees>-28.64805498160421848297119140625</LongitudeDegrees>
            </Position>
            <AltitudeMeters>118.1999969482421875</AltitudeMeters>
            <DistanceMeters>48704.950289634</DistanceMeters>
          </Trackpoint>
          <Trackpoint>
            <Time>2020-04-26T18:28:53.000Z</Time>
            <Position>
              <LatitudeDegrees>38.55427899397909641265869140625</LatitudeDegrees>
              <LongitudeDegrees>-28.648221194744110107421875</LongitudeDegrees>
            </Position>
            <AltitudeMeters>118.40000152587890625</AltitudeMeters>
            <DistanceMeters>48719.433059246</DistanceMeters>
          </Trackpoint>
          <Trackpoint>
            <Time>2020-04-26T18:28:59.000Z</Time>
            <Position>
              <LatitudeDegrees>38.55421763844788074493408203125</LatitudeDegrees>
              <LongitudeDegrees>-28.648679517209529876708984375</LongitudeDegrees>
            </Position>
            <AltitudeMeters>119.59999847412109375</AltitudeMeters>
            <DistanceMeters>48759.905739004</DistanceMeters>
          </Trackpoint>
          <Trackpoint>
            <Time>2020-04-26T18:29:00.000Z</Time>
            <Position>
              <LatitudeDegrees>38.55419936589896678924560546875</LatitudeDegrees>
              <LongitudeDegrees>-28.64875294268131256103515625</LongitudeDegrees>
            </Position>
            <AltitudeMeters>119.59999847412109375</AltitudeMeters>
            <DistanceMeters>48766.612363399</DistanceMeters>
          </Trackpoint>
          <Trackpoint>
            <Time>2020-04-26T18:29:08.000Z</Time>
            <Position>
              <LatitudeDegrees>38.55403684079647064208984375</LatitudeDegrees>
              <LongitudeDegrees>-28.6492972634732723236083984375</LongitudeDegrees>
            </Position>
            <AltitudeMeters>120.40000152587890625</AltitudeMeters>
            <DistanceMeters>48817.32618984</DistanceMeters>
          </Trackpoint>
          <Trackpoint>
            <Time>2020-04-26T18:29:13.000Z</Time>
            <Position>
              <LatitudeDegrees>38.55392762459814548492431640625</LatitudeDegrees>
              <LongitudeDegrees>-28.64962658844888210296630859375</LongitudeDegrees>
            </Position>
            <AltitudeMeters>120.59999847412109375</AltitudeMeters>
            <DistanceMeters>48848.461907059</DistanceMeters>
          </Trackpoint>
          <Trackpoint>
            <Time>2020-04-26T18:29:17.000Z</Time>
            <Position>
              <LatitudeDegrees>38.5538720525801181793212890625</LatitudeDegrees>
              <LongitudeDegrees>-28.6498883552849292755126953125</LongitudeDegrees>
            </Position>
            <AltitudeMeters>121.40000152587890625</AltitudeMeters>
            <DistanceMeters>48872.07102603</DistanceMeters>
          </Trackpoint>
          <Trackpoint>
            <Time>2020-04-26T18:29:20.000Z</Time>
            <Position>
              <LatitudeDegrees>38.55383726768195629119873046875</LatitudeDegrees>
              <LongitudeDegrees>-28.65008122287690639495849609375</LongitudeDegrees>
            </Position>
            <AltitudeMeters>121.8000030517578125</AltitudeMeters>
            <DistanceMeters>48889.29892644</DistanceMeters>
          </Trackpoint>
          <Trackpoint>
            <Time>2020-04-26T18:29:24.000Z</Time>
            <Position>
              <LatitudeDegrees>38.55375654995441436767578125</LatitudeDegrees>
              <LongitudeDegrees>-28.6503047682344913482666015625</LongitudeDegrees>
            </Position>
            <AltitudeMeters>122.1999969482421875</AltitudeMeters>
            <DistanceMeters>48910.730347491</DistanceMeters>
          </Trackpoint>
          <Trackpoint>
            <Time>2020-04-26T18:29:27.000Z</Time>
            <Position>
              <LatitudeDegrees>38.553599976003170013427734375</LatitudeDegrees>
              <LongitudeDegrees>-28.6503141559660434722900390625</LongitudeDegrees>
            </Position>
            <AltitudeMeters>122.40000152587890625</AltitudeMeters>
            <DistanceMeters>48928.176486222</DistanceMeters>
          </Trackpoint>
          <Trackpoint>
            <Time>2020-04-26T18:29:30.000Z</Time>
            <Position>
              <LatitudeDegrees>38.55343736708164215087890625</LatitudeDegrees>
              <LongitudeDegrees>-28.65031063556671142578125</LongitudeDegrees>
            </Position>
            <AltitudeMeters>122</AltitudeMeters>
            <DistanceMeters>48946.277516405</DistanceMeters>
          </Trackpoint>
          <Trackpoint>
            <Time>2020-04-26T18:29:33.000Z</Time>
            <Position>
              <LatitudeDegrees>38.5532652027904987335205078125</LatitudeDegrees>
              <LongitudeDegrees>-28.65032010711729526519775390625</LongitudeDegrees>
            </Position>
            <AltitudeMeters>121.40000152587890625</AltitudeMeters>
            <DistanceMeters>48965.457382259</DistanceMeters>
          </Trackpoint>
          <Trackpoint>
            <Time>2020-04-26T18:29:40.000Z</Time>
            <Position>
              <LatitudeDegrees>38.55282104574143886566162109375</LatitudeDegrees>
              <LongitudeDegrees>-28.6502947099506855010986328125</LongitudeDegrees>
            </Position>
            <AltitudeMeters>121.40000152587890625</AltitudeMeters>
            <DistanceMeters>49014.942309963</DistanceMeters>
          </Trackpoint>
          <Trackpoint>
            <Time>2020-04-26T18:29:46.000Z</Time>
            <Position>
              <LatitudeDegrees>38.5524912178516387939453125</LatitudeDegrees>
              <LongitudeDegrees>-28.65022103302180767059326171875</LongitudeDegrees>
            </Position>
            <AltitudeMeters>122.8000030517578125</AltitudeMeters>
            <DistanceMeters>49052.208777958</DistanceMeters>
          </Trackpoint>
          <Trackpoint>
            <Time>2020-04-26T18:29:47.000Z</Time>
            <Position>
              <LatitudeDegrees>38.55244402773678302764892578125</LatitudeDegrees>
              <LongitudeDegrees>-28.650202341377735137939453125</LongitudeDegrees>
            </Position>
            <AltitudeMeters>123</AltitudeMeters>
            <DistanceMeters>49057.707204636</DistanceMeters>
          </Trackpoint>
          <Trackpoint>
            <Time>2020-04-26T18:29:50.000Z</Time>
            <Position>
              <LatitudeDegrees>38.55228376574814319610595703125</LatitudeDegrees>
              <LongitudeDegrees>-28.6501475237309932708740234375</LongitudeDegrees>
            </Position>
            <AltitudeMeters>124</AltitudeMeters>
            <DistanceMeters>49076.17175354</DistanceMeters>
          </Trackpoint>
          <Trackpoint>
            <Time>2020-04-26T18:29:51.000Z</Time>
            <Position>
              <LatitudeDegrees>38.552225343883037567138671875</LatitudeDegrees>
              <LongitudeDegrees>-28.65016085095703601837158203125</LongitudeDegrees>
            </Position>
            <AltitudeMeters>124.1999969482421875</AltitudeMeters>
            <DistanceMeters>49082.77730646</DistanceMeters>
          </Trackpoint>
          <Trackpoint>
            <Time>2020-04-26T18:29:54.000Z</Time>
            <Position>
              <LatitudeDegrees>38.5520873777568340301513671875</LatitudeDegrees>
              <LongitudeDegrees>-28.65029990673065185546875</LongitudeDegrees>
            </Position>
            <AltitudeMeters>124.1999969482421875</AltitudeMeters>
            <DistanceMeters>49102.330193113</DistanceMeters>
          </Trackpoint>
          <Trackpoint>
            <Time>2020-04-26T18:29:55.000Z</Time>
            <Position>
              <LatitudeDegrees>38.55204521678388118743896484375</LatitudeDegrees>
              <LongitudeDegrees>-28.65035397000610828399658203125</LongitudeDegrees>
            </Position>
            <AltitudeMeters>124.40000152587890625</AltitudeMeters>
            <DistanceMeters>49108.975951451</DistanceMeters>
          </Trackpoint>
          <Trackpoint>
            <Time>2020-04-26T18:29:58.000Z</Time>
            <Position>
              <LatitudeDegrees>38.551924936473369598388671875</LatitudeDegrees>
              <LongitudeDegrees>-28.65052311681210994720458984375</LongitudeDegrees>
            </Position>
            <AltitudeMeters>125</AltitudeMeters>
            <DistanceMeters>49128.875371348</DistanceMeters>
          </Trackpoint>
          <Trackpoint>
            <Time>2020-04-26T18:30:00.000Z</Time>
            <Position>
              <LatitudeDegrees>38.55184706859290599822998046875</LatitudeDegrees>
              <LongitudeDegrees>-28.65063895471394062042236328125</LongitudeDegrees>
            </Position>
            <AltitudeMeters>125.59999847412109375</AltitudeMeters>
            <DistanceMeters>49142.170963718</DistanceMeters>
          </Trackpoint>
          <Trackpoint>
            <Time>2020-04-26T18:30:01.000Z</Time>
            <Position>
              <LatitudeDegrees>38.55181152932345867156982421875</LatitudeDegrees>
              <LongitudeDegrees>-28.650687150657176971435546875</LongitudeDegrees>
            </Position>
            <AltitudeMeters>126</AltitudeMeters>
            <DistanceMeters>49147.937135885</DistanceMeters>
          </Trackpoint>
          <Trackpoint>
            <Time>2020-04-26T18:30:02.000Z</Time>
            <Position>
              <LatitudeDegrees>38.5517759062349796295166015625</LatitudeDegrees>
              <LongitudeDegrees>-28.6507386155426502227783203125</LongitudeDegrees>
            </Position>
            <AltitudeMeters>126.40000152587890625</AltitudeMeters>
            <DistanceMeters>49153.919292097</DistanceMeters>
          </Trackpoint>
          <Trackpoint>
            <Time>2020-04-26T18:30:09.000Z</Time>
            <Position>
              <LatitudeDegrees>38.551526963710784912109375</LatitudeDegrees>
              <LongitudeDegrees>-28.65113072097301483154296875</LongitudeDegrees>
            </Position>
            <AltitudeMeters>126.8000030517578125</AltitudeMeters>
            <DistanceMeters>49197.880523544</DistanceMeters>
          </Trackpoint>
          <Trackpoint>
            <Time>2020-04-26T18:30:13.000Z</Time>
            <Position>
              <LatitudeDegrees>38.55137550272047519683837890625</LatitudeDegrees>
              <LongitudeDegrees>-28.65136549808084964752197265625</LongitudeDegrees>
            </Position>
            <AltitudeMeters>127</AltitudeMeters>
            <DistanceMeters>49224.372362688</DistanceMeters>
          </Trackpoint>
          <Trackpoint>
            <Time>2020-04-26T18:30:14.000Z</Time>
            <Position>
              <LatitudeDegrees>38.55134080164134502410888671875</LatitudeDegrees>
              <LongitudeDegrees>-28.65142852999269962310791015625</LongitudeDegrees>
            </Position>
            <AltitudeMeters>127</AltitudeMeters>
            <DistanceMeters>49231.08100644</DistanceMeters>
          </Trackpoint>
          <Trackpoint>
            <Time>2020-04-26T18:30:15.000Z</Time>
            <Position>
              <LatitudeDegrees>38.55129771865904331207275390625</LatitudeDegrees>
              <LongitudeDegrees>-28.65148611366748809814453125</LongitudeDegrees>
            </Position>
            <AltitudeMeters>127</AltitudeMeters>
            <DistanceMeters>49238.017956589</DistanceMeters>
          </Trackpoint>
          <Trackpoint>
            <Time>2020-04-26T18:30:18.000Z</Time>
            <Position>
              <LatitudeDegrees>38.55117131955921649932861328125</LatitudeDegrees>
              <LongitudeDegrees>-28.65162692964076995849609375</LongitudeDegrees>
            </Position>
            <AltitudeMeters>127.8000030517578125</AltitudeMeters>
            <DistanceMeters>49256.676857878</DistanceMeters>
          </Trackpoint>
          <Trackpoint>
            <Time>2020-04-26T18:30:20.000Z</Time>
            <Position>
              <LatitudeDegrees>38.551079370081424713134765625</LatitudeDegrees>
              <LongitudeDegrees>-28.6516861058771610260009765625</LongitudeDegrees>
            </Position>
            <AltitudeMeters>128.600006103515625</AltitudeMeters>
            <DistanceMeters>49268.133785529</DistanceMeters>
          </Trackpoint>
          <Trackpoint>
            <Time>2020-04-26T18:30:21.000Z</Time>
            <Position>
              <LatitudeDegrees>38.55103184469044208526611328125</LatitudeDegrees>
              <LongitudeDegrees>-28.6517125926911830902099609375</LongitudeDegrees>
            </Position>
            <AltitudeMeters>128.8000030517578125</AltitudeMeters>
            <DistanceMeters>49273.903088933</DistanceMeters>
          </Trackpoint>
          <Trackpoint>
            <Time>2020-04-26T18:30:23.000Z</Time>
            <Position>
              <LatitudeDegrees>38.55093528516590595245361328125</LatitudeDegrees>
              <LongitudeDegrees>-28.65176506340503692626953125</LongitudeDegrees>
            </Position>
            <AltitudeMeters>129.1999969482421875</AltitudeMeters>
            <DistanceMeters>49285.580553743</DistanceMeters>
          </Trackpoint>
          <Trackpoint>
            <Time>2020-04-26T18:30:26.000Z</Time>
            <Position>
              <LatitudeDegrees>38.55079078115522861480712890625</LatitudeDegrees>
              <LongitudeDegrees>-28.65184628404676914215087890625</LongitudeDegrees>
            </Position>
            <AltitudeMeters>130</AltitudeMeters>
            <DistanceMeters>49303.149448785</DistanceMeters>
          </Trackpoint>
          <Trackpoint>
            <Time>2020-04-26T18:30:31.000Z</Time>
            <Position>
              <LatitudeDegrees>38.55055038817226886749267578125</LatitudeDegrees>
              <LongitudeDegrees>-28.65202255547046661376953125</LongitudeDegrees>
            </Position>
            <AltitudeMeters>130.399993896484375</AltitudeMeters>
            <DistanceMeters>49333.992901143</DistanceMeters>
          </Trackpoint>
          <Trackpoint>
            <Time>2020-04-26T18:30:36.000Z</Time>
            <Position>
              <LatitudeDegrees>38.550304211676120758056640625</LatitudeDegrees>
              <LongitudeDegrees>-28.65220368839800357818603515625</LongitudeDegrees>
            </Position>
            <AltitudeMeters>131</AltitudeMeters>
            <DistanceMeters>49365.605391238</DistanceMeters>
          </Trackpoint>
          <Trackpoint>
            <Time>2020-04-26T18:30:41.000Z</Time>
            <Position>
              <LatitudeDegrees>38.5500338114798069000244140625</LatitudeDegrees>
              <LongitudeDegrees>-28.65235690958797931671142578125</LongitudeDegrees>
            </Position>
            <AltitudeMeters>131.600006103515625</AltitudeMeters>
            <DistanceMeters>49398.524433656</DistanceMeters>
          </Trackpoint>
          <Trackpoint>
            <Time>2020-04-26T18:30:45.000Z</Time>
            <Position>
              <LatitudeDegrees>38.5498232580721378326416015625</LatitudeDegrees>
              <LongitudeDegrees>-28.652492947876453399658203125</LongitudeDegrees>
            </Position>
            <AltitudeMeters>132</AltitudeMeters>
            <DistanceMeters>49424.781227944</DistanceMeters>
          </Trackpoint>
          <Trackpoint>
            <Time>2020-04-26T18:30:46.000Z</Time>
            <Position>
              <LatitudeDegrees>38.54977489449083805084228515625</LatitudeDegrees>
              <LongitudeDegrees>-28.652535863220691680908203125</LongitudeDegrees>
            </Position>
            <AltitudeMeters>132.1999969482421875</AltitudeMeters>
            <DistanceMeters>49431.334627334</DistanceMeters>
          </Trackpoint>
          <Trackpoint>
            <Time>2020-04-26T18:30:48.000Z</Time>
            <Position>
              <LatitudeDegrees>38.54968629777431488037109375</LatitudeDegrees>
              <LongitudeDegrees>-28.65263552404940128326416015625</LongitudeDegrees>
            </Position>
            <AltitudeMeters>132.399993896484375</AltitudeMeters>
            <DistanceMeters>49444.468268117</DistanceMeters>
          </Trackpoint>
          <Trackpoint>
            <Time>2020-04-26T18:30:50.000Z</Time>
            <Position>
              <LatitudeDegrees>38.5496083460748195648193359375</LatitudeDegrees>
              <LongitudeDegrees>-28.65274884738028049468994140625</LongitudeDegrees>
            </Position>
            <AltitudeMeters>132.399993896484375</AltitudeMeters>
            <DistanceMeters>49457.605346217</DistanceMeters>
          </Trackpoint>
          <Trackpoint>
            <Time>2020-04-26T18:30:54.000Z</Time>
            <Position>
              <LatitudeDegrees>38.5494779236614704132080078125</LatitudeDegrees>
              <LongitudeDegrees>-28.65300348959863185882568359375</LongitudeDegrees>
            </Position>
            <AltitudeMeters>131.8000030517578125</AltitudeMeters>
            <DistanceMeters>49484.101275396</DistanceMeters>
          </Trackpoint>
          <Trackpoint>
            <Time>2020-04-26T18:30:56.000Z</Time>
            <Position>
              <LatitudeDegrees>38.54942478239536285400390625</LatitudeDegrees>
              <LongitudeDegrees>-28.6531391926109790802001953125</LongitudeDegrees>
            </Position>
            <AltitudeMeters>133.1999969482421875</AltitudeMeters>
            <DistanceMeters>49497.311697697</DistanceMeters>
          </Trackpoint>
          <Trackpoint>
            <Time>2020-04-26T18:31:00.000Z</Time>
            <Position>
              <LatitudeDegrees>38.54933333583176136016845703125</LatitudeDegrees>
              <LongitudeDegrees>-28.65342057310044765472412109375</LongitudeDegrees>
            </Position>
            <AltitudeMeters>134</AltitudeMeters>
            <DistanceMeters>49523.835218116</DistanceMeters>
          </Trackpoint>
          <Trackpoint>
            <Time>2020-04-26T18:31:04.000Z</Time>
            <Position>
              <LatitudeDegrees>38.54925312101840972900390625</LatitudeDegrees>
              <LongitudeDegrees>-28.65369382314383983612060546875</LongitudeDegrees>
            </Position>
            <AltitudeMeters>134.399993896484375</AltitudeMeters>
            <DistanceMeters>49549.240961641</DistanceMeters>
          </Trackpoint>
          <Trackpoint>
            <Time>2020-04-26T18:31:10.000Z</Time>
            <Position>
              <LatitudeDegrees>38.549163602292537689208984375</LatitudeDegrees>
              <LongitudeDegrees>-28.6541285924613475799560546875</LongitudeDegrees>
            </Position>
            <AltitudeMeters>135.1999969482421875</AltitudeMeters>
            <DistanceMeters>49588.375703944</DistanceMeters>
          </Trackpoint>
          <Trackpoint>
            <Time>2020-04-26T18:31:12.000Z</Time>
            <Position>
              <LatitudeDegrees>38.54913175106048583984375</LatitudeDegrees>
              <LongitudeDegrees>-28.65427519194781780242919921875</LongitudeDegrees>
            </Position>
            <AltitudeMeters>135.399993896484375</AltitudeMeters>
            <DistanceMeters>49601.620259996</DistanceMeters>
          </Trackpoint>
          <Trackpoint>
            <Time>2020-04-26T18:31:18.000Z</Time>
            <Position>
              <LatitudeDegrees>38.54900878854095935821533203125</LatitudeDegrees>
              <LongitudeDegrees>-28.65470233373343944549560546875</LongitudeDegrees>
            </Position>
            <AltitudeMeters>136.8000030517578125</AltitudeMeters>
            <DistanceMeters>49641.24036056</DistanceMeters>
          </Trackpoint>
          <Trackpoint>
            <Time>2020-04-26T18:31:28.000Z</Time>
            <Position>
              <LatitudeDegrees>38.5488191060721874237060546875</LatitudeDegrees>
              <LongitudeDegrees>-28.6553982831537723541259765625</LongitudeDegrees>
            </Position>
            <AltitudeMeters>137.399993896484375</AltitudeMeters>
            <DistanceMeters>49705.393739279</DistanceMeters>
          </Trackpoint>
          <Trackpoint>
            <Time>2020-04-26T18:31:29.000Z</Time>
            <Position>
              <LatitudeDegrees>38.54880192317068576812744140625</LatitudeDegrees>
              <LongitudeDegrees>-28.6554683558642864227294921875</LongitudeDegrees>
            </Position>
            <AltitudeMeters>137.399993896484375</AltitudeMeters>
            <DistanceMeters>49711.786714016</DistanceMeters>
          </Trackpoint>
          <Trackpoint>
            <Time>2020-04-26T18:31:30.000Z</Time>
            <Position>
              <LatitudeDegrees>38.548781387507915496826171875</LatitudeDegrees>
              <LongitudeDegrees>-28.6555377580225467681884765625</LongitudeDegrees>
            </Position>
            <AltitudeMeters>137.399993896484375</AltitudeMeters>
            <DistanceMeters>49718.245735085</DistanceMeters>
          </Trackpoint>
          <Trackpoint>
            <Time>2020-04-26T18:31:33.000Z</Time>
            <Position>
              <LatitudeDegrees>38.5486833192408084869384765625</LatitudeDegrees>
              <LongitudeDegrees>-28.65572693757712841033935546875</LongitudeDegrees>
            </Position>
            <AltitudeMeters>138</AltitudeMeters>
            <DistanceMeters>49738.002380911</DistanceMeters>
          </Trackpoint>
          <Trackpoint>
            <Time>2020-04-26T18:31:36.000Z</Time>
            <Position>
              <LatitudeDegrees>38.54855381883680820465087890625</LatitudeDegrees>
              <LongitudeDegrees>-28.65586523897945880889892578125</LongitudeDegrees>
            </Position>
            <AltitudeMeters>138.8000030517578125</AltitudeMeters>
            <DistanceMeters>49756.782362158</DistanceMeters>
          </Trackpoint>
          <Trackpoint>
            <Time>2020-04-26T18:31:37.000Z</Time>
            <Position>
              <LatitudeDegrees>38.54850076138973236083984375</LatitudeDegrees>
              <LongitudeDegrees>-28.6558963358402252197265625</LongitudeDegrees>
            </Position>
            <AltitudeMeters>138.600006103515625</AltitudeMeters>
            <DistanceMeters>49763.279021092</DistanceMeters>
          </Trackpoint>
          <Trackpoint>
            <Time>2020-04-26T18:31:43.000Z</Time>
            <Position>
              <LatitudeDegrees>38.54817193932831287384033203125</LatitudeDegrees>
              <LongitudeDegrees>-28.65605869330465793609619140625</LongitudeDegrees>
            </Position>
            <AltitudeMeters>138.600006103515625</AltitudeMeters>
            <DistanceMeters>49802.511476533</DistanceMeters>
          </Trackpoint>
          <Trackpoint>
            <Time>2020-04-26T18:31:47.000Z</Time>
            <Position>
              <LatitudeDegrees>38.54793959297239780426025390625</LatitudeDegrees>
              <LongitudeDegrees>-28.6561429314315319061279296875</LongitudeDegrees>
            </Position>
            <AltitudeMeters>139</AltitudeMeters>
            <DistanceMeters>49829.391441872</DistanceMeters>
          </Trackpoint>
          <Trackpoint>
            <Time>2020-04-26T18:31:48.000Z</Time>
            <Position>
              <LatitudeDegrees>38.54787974618375301361083984375</LatitudeDegrees>
              <LongitudeDegrees>-28.65615759976208209991455078125</LongitudeDegrees>
            </Position>
            <AltitudeMeters>139.8000030517578125</AltitudeMeters>
            <DistanceMeters>49836.173713571</DistanceMeters>
          </Trackpoint>
          <Trackpoint>
            <Time>2020-04-26T18:31:51.000Z</Time>
            <Position>
              <LatitudeDegrees>38.54770724661648273468017578125</LatitudeDegrees>
              <LongitudeDegrees>-28.6561838351190090179443359375</LongitudeDegrees>
            </Position>
            <AltitudeMeters>140.1999969482421875</AltitudeMeters>
            <DistanceMeters>49855.508789593</DistanceMeters>
          </Trackpoint>
          <Trackpoint>
            <Time>2020-04-26T18:31:54.000Z</Time>
            <Position>
              <LatitudeDegrees>38.54754296131432056427001953125</LatitudeDegrees>
              <LongitudeDegrees>-28.65622784011065959930419921875</LongitudeDegrees>
            </Position>
            <AltitudeMeters>140.8000030517578125</AltitudeMeters>
            <DistanceMeters>49874.191147975</DistanceMeters>
          </Trackpoint>
          <Trackpoint>
            <Time>2020-04-26T18:31:57.000Z</Time>
            <Position>
              <LatitudeDegrees>38.54737666435539722442626953125</LatitudeDegrees>
              <LongitudeDegrees>-28.65626673214137554168701171875</LongitudeDegrees>
            </Position>
            <AltitudeMeters>141.8000030517578125</AltitudeMeters>
            <DistanceMeters>49893.007397262</DistanceMeters>
          </Trackpoint>
          <Trackpoint>
            <Time>2020-04-26T18:31:58.000Z</Time>
            <Position>
              <LatitudeDegrees>38.54732050560414791107177734375</LatitudeDegrees>
              <LongitudeDegrees>-28.6562740243971347808837890625</LongitudeDegrees>
            </Position>
            <AltitudeMeters>142.1999969482421875</AltitudeMeters>
            <DistanceMeters>49899.28994962</DistanceMeters>
          </Trackpoint>
          <Trackpoint>
            <Time>2020-04-26T18:32:00.000Z</Time>
            <Position>
              <LatitudeDegrees>38.5472084395587444305419921875</LatitudeDegrees>
              <LongitudeDegrees>-28.65627377294003963470458984375</LongitudeDegrees>
            </Position>
            <AltitudeMeters>142.399993896484375</AltitudeMeters>
            <DistanceMeters>49911.762726255</DistanceMeters>
          </Trackpoint>
          <Trackpoint>
            <Time>2020-04-26T18:32:03.000Z</Time>
            <Position>
              <LatitudeDegrees>38.54704239405691623687744140625</LatitudeDegrees>
              <LongitudeDegrees>-28.65624829195439815521240234375</LongitudeDegrees>
            </Position>
            <AltitudeMeters>142.8000030517578125</AltitudeMeters>
            <DistanceMeters>49930.37632271</DistanceMeters>
          </Trackpoint>
          <Trackpoint>
            <Time>2020-04-26T18:32:04.000Z</Time>
            <Position>
              <LatitudeDegrees>38.5469891689717769622802734375</LatitudeDegrees>
              <LongitudeDegrees>-28.656240999698638916015625</LongitudeDegrees>
            </Position>
            <AltitudeMeters>143.1999969482421875</AltitudeMeters>
            <DistanceMeters>49936.333520073</DistanceMeters>
          </Trackpoint>
          <Trackpoint>
            <Time>2020-04-26T18:32:06.000Z</Time>
            <Position>
              <LatitudeDegrees>38.54688598774373531341552734375</LatitudeDegrees>
              <LongitudeDegrees>-28.6562475375831127166748046875</LongitudeDegrees>
            </Position>
            <AltitudeMeters>143.8000030517578125</AltitudeMeters>
            <DistanceMeters>49947.831359833</DistanceMeters>
          </Trackpoint>
          <Trackpoint>
            <Time>2020-04-26T18:32:08.000Z</Time>
            <Position>
              <LatitudeDegrees>38.54679219424724578857421875</LatitudeDegrees>
              <LongitudeDegrees>-28.656278215348720550537109375</LongitudeDegrees>
            </Position>
            <AltitudeMeters>144.8000030517578125</AltitudeMeters>
            <DistanceMeters>49958.6067356</DistanceMeters>
          </Trackpoint>
          <Trackpoint>
            <Time>2020-04-26T18:32:09.000Z</Time>
            <Position>
              <LatitudeDegrees>38.54674282483756542205810546875</LatitudeDegrees>
              <LongitudeDegrees>-28.6562891118228435516357421875</LongitudeDegrees>
            </Position>
            <AltitudeMeters>144.600006103515625</AltitudeMeters>
            <DistanceMeters>49964.183435634</DistanceMeters>
          </Trackpoint>
          <Trackpoint>
            <Time>2020-04-26T18:32:12.000Z</Time>
            <Position>
              <LatitudeDegrees>38.5465730912983417510986328125</LatitudeDegrees>
              <LongitudeDegrees>-28.65634233690798282623291015625</LongitudeDegrees>
            </Position>
            <AltitudeMeters>143.8000030517578125</AltitudeMeters>
            <DistanceMeters>49983.634918945</DistanceMeters>
          </Trackpoint>
          <Trackpoint>
            <Time>2020-04-26T18:32:14.000Z</Time>
            <Position>
              <LatitudeDegrees>38.54644350707530975341796875</LatitudeDegrees>
              <LongitudeDegrees>-28.6563940532505512237548828125</LongitudeDegrees>
            </Position>
            <AltitudeMeters>143</AltitudeMeters>
            <DistanceMeters>49998.743867701</DistanceMeters>
          </Trackpoint>
          <Trackpoint>
            <Time>2020-04-26T18:32:16.000Z</Time>
            <Position>
              <LatitudeDegrees>38.54630763642489910125732421875</LatitudeDegrees>
              <LongitudeDegrees>-28.6564604379236698150634765625</LongitudeDegrees>
            </Position>
            <AltitudeMeters>142.8000030517578125</AltitudeMeters>
            <DistanceMeters>50014.93302885</DistanceMeters>
          </Trackpoint>
          <Trackpoint>
            <Time>2020-04-26T18:32:17.000Z</Time>
            <Position>
              <LatitudeDegrees>38.5462415032088756561279296875</LatitudeDegrees>
              <LongitudeDegrees>-28.65651232190430164337158203125</LongitudeDegrees>
            </Position>
            <AltitudeMeters>142.600006103515625</AltitudeMeters>
            <DistanceMeters>50023.568965473</DistanceMeters>
          </Trackpoint>
          <Trackpoint>
            <Time>2020-04-26T18:32:18.000Z</Time>
            <Position>
              <LatitudeDegrees>38.5461757890880107879638671875</LatitudeDegrees>
              <LongitudeDegrees>-28.6565657146275043487548828125</LongitudeDegrees>
            </Position>
            <AltitudeMeters>141.600006103515625</AltitudeMeters>
            <DistanceMeters>50032.23465158</DistanceMeters>
          </Trackpoint>
          <Trackpoint>
            <Time>2020-04-26T18:32:19.000Z</Time>
            <Position>
              <LatitudeDegrees>38.5461097396910190582275390625</LatitudeDegrees>
              <LongitudeDegrees>-28.65662078373134136199951171875</LongitudeDegrees>
            </Position>
            <AltitudeMeters>141.399993896484375</AltitudeMeters>
            <DistanceMeters>50041.010614319</DistanceMeters>
          </Trackpoint>
          <Trackpoint>
            <Time>2020-04-26T18:32:21.000Z</Time>
            <Position>
              <LatitudeDegrees>38.5459732823073863983154296875</LatitudeDegrees>
              <LongitudeDegrees>-28.65673293359577655792236328125</LongitudeDegrees>
            </Position>
            <AltitudeMeters>140.600006103515625</AltitudeMeters>
            <DistanceMeters>50059.065690049</DistanceMeters>
          </Trackpoint>
          <Trackpoint>
            <Time>2020-04-26T18:32:26.000Z</Time>
            <Position>
              <LatitudeDegrees>38.54561478830873966217041015625</LatitudeDegrees>
              <LongitudeDegrees>-28.657024540007114410400390625</LongitudeDegrees>
            </Position>
            <AltitudeMeters>139.8000030517578125</AltitudeMeters>
            <DistanceMeters>50106.357021208</DistanceMeters>
          </Trackpoint>
          <Trackpoint>
            <Time>2020-04-26T18:32:27.000Z</Time>
            <Position>
              <LatitudeDegrees>38.5455414466559886932373046875</LatitudeDegrees>
              <LongitudeDegrees>-28.65708581171929836273193359375</LongitudeDegrees>
            </Position>
            <AltitudeMeters>139.399993896484375</AltitudeMeters>
            <DistanceMeters>50116.108262409</DistanceMeters>
          </Trackpoint>
          <Trackpoint>
            <Time>2020-04-26T18:32:32.000Z</Time>
            <Position>
              <LatitudeDegrees>38.5451870597898960113525390625</LatitudeDegrees>
              <LongitudeDegrees>-28.6574136279523372650146484375</LongitudeDegrees>
            </Position>
            <AltitudeMeters>137.399993896484375</AltitudeMeters>
            <DistanceMeters>50164.792554378</DistanceMeters>
          </Trackpoint>
          <Trackpoint>
            <Time>2020-04-26T18:32:36.000Z</Time>
            <Position>
              <LatitudeDegrees>38.54487843811511993408203125</LatitudeDegrees>
              <LongitudeDegrees>-28.6576630733907222747802734375</LongitudeDegrees>
            </Position>
            <AltitudeMeters>136.399993896484375</AltitudeMeters>
            <DistanceMeters>50205.430670727</DistanceMeters>
          </Trackpoint>
          <Trackpoint>
            <Time>2020-04-26T18:32:38.000Z</Time>
            <Position>
              <LatitudeDegrees>38.544715829193592071533203125</LatitudeDegrees>
              <LongitudeDegrees>-28.65777731873095035552978515625</LongitudeDegrees>
            </Position>
            <AltitudeMeters>136</AltitudeMeters>
            <DistanceMeters>50226.081880142</DistanceMeters>
          </Trackpoint>
          <Trackpoint>
            <Time>2020-04-26T18:32:40.000Z</Time>
            <Position>
              <LatitudeDegrees>38.54455263353884220123291015625</LatitudeDegrees>
              <LongitudeDegrees>-28.657882846891880035400390625</LongitudeDegrees>
            </Position>
            <AltitudeMeters>135.600006103515625</AltitudeMeters>
            <DistanceMeters>50246.436682214</DistanceMeters>
          </Trackpoint>
          <Trackpoint>
            <Time>2020-04-26T18:32:43.000Z</Time>
            <Position>
              <LatitudeDegrees>38.544308803975582122802734375</LatitudeDegrees>
              <LongitudeDegrees>-28.65804771892726421356201171875</LongitudeDegrees>
            </Position>
            <AltitudeMeters>135.1999969482421875</AltitudeMeters>
            <DistanceMeters>50277.13692975</DistanceMeters>
          </Trackpoint>
          <Trackpoint>
            <Time>2020-04-26T18:32:46.000Z</Time>
            <Position>
              <LatitudeDegrees>38.54406572878360748291015625</LatitudeDegrees>
              <LongitudeDegrees>-28.65822248160839080810546875</LongitudeDegrees>
            </Position>
            <AltitudeMeters>134.1999969482421875</AltitudeMeters>
            <DistanceMeters>50308.175628106</DistanceMeters>
          </Trackpoint>
          <Trackpoint>
            <Time>2020-04-26T18:32:49.000Z</Time>
            <Position>
              <LatitudeDegrees>38.5438184626400470733642578125</LatitudeDegrees>
              <LongitudeDegrees>-28.6583969928324222564697265625</LongitudeDegrees>
            </Position>
            <AltitudeMeters>134.600006103515625</AltitudeMeters>
            <DistanceMeters>50339.611235076</DistanceMeters>
          </Trackpoint>
          <Trackpoint>
            <Time>2020-04-26T18:32:52.000Z</Time>
            <Position>
              <LatitudeDegrees>38.54357010684907436370849609375</LatitudeDegrees>
              <LongitudeDegrees>-28.65856840275228023529052734375</LongitudeDegrees>
            </Position>
            <AltitudeMeters>133.1999969482421875</AltitudeMeters>
            <DistanceMeters>50371.024140601</DistanceMeters>
          </Trackpoint>
          <Trackpoint>
            <Time>2020-04-26T18:32:53.000Z</Time>
            <Position>
              <LatitudeDegrees>38.54348712600767612457275390625</LatitudeDegrees>
              <LongitudeDegrees>-28.65862439386546611785888671875</LongitudeDegrees>
            </Position>
            <AltitudeMeters>132.1999969482421875</AltitudeMeters>
            <DistanceMeters>50381.467139845</DistanceMeters>
          </Trackpoint>
          <Trackpoint>
            <Time>2020-04-26T18:32:54.000Z</Time>
            <Position>
              <LatitudeDegrees>38.54340582154691219329833984375</LatitudeDegrees>
              <LongitudeDegrees>-28.65868382155895233154296875</LongitudeDegrees>
            </Position>
            <AltitudeMeters>130.600006103515625</AltitudeMeters>
            <DistanceMeters>50391.890665149</DistanceMeters>
          </Trackpoint>
          <Trackpoint>
            <Time>2020-04-26T18:32:55.000Z</Time>
            <Position>
              <LatitudeDegrees>38.54332820512354373931884765625</LatitudeDegrees>
              <LongitudeDegrees>-28.6587476916611194610595703125</LongitudeDegrees>
            </Position>
            <AltitudeMeters>132.1999969482421875</AltitudeMeters>
            <DistanceMeters>50402.164103399</DistanceMeters>
          </Trackpoint>
          <Trackpoint>
            <Time>2020-04-26T18:32:56.000Z</Time>
            <Position>
              <LatitudeDegrees>38.5432538576424121856689453125</LatitudeDegrees>
              <LongitudeDegrees>-28.6588150821626186370849609375</LongitudeDegrees>
            </Position>
            <AltitudeMeters>132.8000030517578125</AltitudeMeters>
            <DistanceMeters>50412.307064551</DistanceMeters>
          </Trackpoint>
          <Trackpoint>
            <Time>2020-04-26T18:32:57.000Z</Time>
            <Position>
              <LatitudeDegrees>38.5431797616183757781982421875</LatitudeDegrees>
              <LongitudeDegrees>-28.65888289175927639007568359375</LongitudeDegrees>
            </Position>
            <AltitudeMeters>130</AltitudeMeters>
            <DistanceMeters>50422.449135384</DistanceMeters>
          </Trackpoint>
          <Trackpoint>
            <Time>2020-04-26T18:32:58.000Z</Time>
            <Position>
              <LatitudeDegrees>38.5431053303182125091552734375</LatitudeDegrees>
              <LongitudeDegrees>-28.65894801914691925048828125</LongitudeDegrees>
            </Position>
            <AltitudeMeters>132.600006103515625</AltitudeMeters>
            <DistanceMeters>50432.487843125</DistanceMeters>
          </Trackpoint>
          <Trackpoint>
            <Time>2020-04-26T18:32:59.000Z</Time>
            <Position>
              <LatitudeDegrees>38.54303031228482723236083984375</LatitudeDegrees>
              <LongitudeDegrees>-28.6590108834207057952880859375</LongitudeDegrees>
            </Position>
            <AltitudeMeters>134</AltitudeMeters>
            <DistanceMeters>50442.471076755</DistanceMeters>
          </Trackpoint>
          <Trackpoint>
            <Time>2020-04-26T18:33:01.000Z</Time>
            <Position>
              <LatitudeDegrees>38.54288094677031040191650390625</LatitudeDegrees>
              <LongitudeDegrees>-28.65914289839565753936767578125</LongitudeDegrees>
            </Position>
            <AltitudeMeters>132</AltitudeMeters>
            <DistanceMeters>50462.681183576</DistanceMeters>
          </Trackpoint>
          <Trackpoint>
            <Time>2020-04-26T18:33:04.000Z</Time>
            <Position>
              <LatitudeDegrees>38.5426460020244121551513671875</LatitudeDegrees>
              <LongitudeDegrees>-28.6593448184430599212646484375</LongitudeDegrees>
            </Position>
            <AltitudeMeters>130.399993896484375</AltitudeMeters>
            <DistanceMeters>50494.18995576</DistanceMeters>
          </Trackpoint>
          <Trackpoint>
            <Time>2020-04-26T18:33:05.000Z</Time>
            <Position>
              <LatitudeDegrees>38.5425652004778385162353515625</LatitudeDegrees>
              <LongitudeDegrees>-28.65941648371517658233642578125</LongitudeDegrees>
            </Position>
            <AltitudeMeters>128.600006103515625</AltitudeMeters>
            <DistanceMeters>50505.135366862</DistanceMeters>
          </Trackpoint>
          <Trackpoint>
            <Time>2020-04-26T18:33:07.000Z</Time>
            <Position>
              <LatitudeDegrees>38.54241725988686084747314453125</LatitudeDegrees>
              <LongitudeDegrees>-28.65958713926374912261962890625</LongitudeDegrees>
            </Position>
            <AltitudeMeters>129.1999969482421875</AltitudeMeters>
            <DistanceMeters>50527.313062949</DistanceMeters>
          </Trackpoint>
          <Trackpoint>
            <Time>2020-04-26T18:33:08.000Z</Time>
            <Position>
              <LatitudeDegrees>38.5423466004431247711181640625</LatitudeDegrees>
              <LongitudeDegrees>-28.65967716090381145477294921875</LongitudeDegrees>
            </Position>
            <AltitudeMeters>127</AltitudeMeters>
            <DistanceMeters>50538.415339448</DistanceMeters>
          </Trackpoint>
          <Trackpoint>
            <Time>2020-04-26T18:33:09.000Z</Time>
            <Position>
              <LatitudeDegrees>38.54226998984813690185546875</LatitudeDegrees>
              <LongitudeDegrees>-28.65975863300263881683349609375</LongitudeDegrees>
            </Position>
            <AltitudeMeters>126</AltitudeMeters>
            <DistanceMeters>50549.506630239</DistanceMeters>
          </Trackpoint>
          <Trackpoint>
            <Time>2020-04-26T18:33:10.000Z</Time>
            <Position>
              <LatitudeDegrees>38.54219279251992702484130859375</LatitudeDegrees>
              <LongitudeDegrees>-28.65983423776924610137939453125</LongitudeDegrees>
            </Position>
            <AltitudeMeters>124.40000152587890625</AltitudeMeters>
            <DistanceMeters>50560.330085404</DistanceMeters>
          </Trackpoint>
          <Trackpoint>
            <Time>2020-04-26T18:33:11.000Z</Time>
            <Position>
              <LatitudeDegrees>38.54211484082043170928955078125</LatitudeDegrees>
              <LongitudeDegrees>-28.65990397520363330841064453125</LongitudeDegrees>
            </Position>
            <AltitudeMeters>127</AltitudeMeters>
            <DistanceMeters>50570.91948998</DistanceMeters>
          </Trackpoint>
          <Trackpoint>
            <Time>2020-04-26T18:33:12.000Z</Time>
            <Position>
              <LatitudeDegrees>38.54203739203512668609619140625</LatitudeDegrees>
              <LongitudeDegrees>-28.65996885113418102264404296875</LongitudeDegrees>
            </Position>
            <AltitudeMeters>126</AltitudeMeters>
            <DistanceMeters>50581.224522681</DistanceMeters>
          </Trackpoint>
          <Trackpoint>
            <Time>2020-04-26T18:33:13.000Z</Time>
            <Position>
              <LatitudeDegrees>38.5419595241546630859375</LatitudeDegrees>
              <LongitudeDegrees>-28.66002433933317661285400390625</LongitudeDegrees>
            </Position>
            <AltitudeMeters>128.8000030517578125</AltitudeMeters>
            <DistanceMeters>50591.146513076</DistanceMeters>
          </Trackpoint>
          <Trackpoint>
            <Time>2020-04-26T18:33:14.000Z</Time>
            <Position>
              <LatitudeDegrees>38.54187796823680400848388671875</LatitudeDegrees>
              <LongitudeDegrees>-28.66006658412516117095947265625</LongitudeDegrees>
            </Position>
            <AltitudeMeters>124.1999969482421875</AltitudeMeters>
            <DistanceMeters>50600.941181633</DistanceMeters>
          </Trackpoint>
          <Trackpoint>
            <Time>2020-04-26T18:33:17.000Z</Time>
            <Position>
              <LatitudeDegrees>38.5416334681212902069091796875</LatitudeDegrees>
              <LongitudeDegrees>-28.660177476704120635986328125</LongitudeDegrees>
            </Position>
            <AltitudeMeters>126.59999847412109375</AltitudeMeters>
            <DistanceMeters>50629.816014761</DistanceMeters>
          </Trackpoint>
          <Trackpoint>
            <Time>2020-04-26T18:33:18.000Z</Time>
            <Position>
              <LatitudeDegrees>38.54155275039374828338623046875</LatitudeDegrees>
              <LongitudeDegrees>-28.66022206842899322509765625</LongitudeDegrees>
            </Position>
            <AltitudeMeters>128</AltitudeMeters>
            <DistanceMeters>50639.602843708</DistanceMeters>
          </Trackpoint>
          <Trackpoint>
            <Time>2020-04-26T18:33:19.000Z</Time>
            <Position>
              <LatitudeDegrees>38.541469015181064605712890625</LatitudeDegrees>
              <LongitudeDegrees>-28.66025953553617000579833984375</LongitudeDegrees>
            </Position>
            <AltitudeMeters>129</AltitudeMeters>
            <DistanceMeters>50649.477395112</DistanceMeters>
          </Trackpoint>
          <Trackpoint>
            <Time>2020-04-26T18:33:20.000Z</Time>
            <Position>
              <LatitudeDegrees>38.54138092137873172760009765625</LatitudeDegrees>
              <LongitudeDegrees>-28.6602859385311603546142578125</LongitudeDegrees>
            </Position>
            <AltitudeMeters>128.600006103515625</AltitudeMeters>
            <DistanceMeters>50659.548433719</DistanceMeters>
          </Trackpoint>
          <Trackpoint>
            <Time>2020-04-26T18:33:21.000Z</Time>
            <Position>
              <LatitudeDegrees>38.54128955863416194915771484375</LatitudeDegrees>
              <LongitudeDegrees>-28.66030429489910602569580078125</LongitudeDegrees>
            </Position>
            <AltitudeMeters>126.1999969482421875</AltitudeMeters>
            <DistanceMeters>50669.8420685</DistanceMeters>
          </Trackpoint>
          <Trackpoint>
            <Time>2020-04-26T18:33:23.000Z</Time>
            <Position>
              <LatitudeDegrees>38.54110188782215118408203125</LatitudeDegrees>
              <LongitudeDegrees>-28.660315610468387603759765625</LongitudeDegrees>
            </Position>
            <AltitudeMeters>124.59999847412109375</AltitudeMeters>
            <DistanceMeters>50690.753560122</DistanceMeters>
          </Trackpoint>
          <Trackpoint>
            <Time>2020-04-26T18:33:25.000Z</Time>
            <Position>
              <LatitudeDegrees>38.5409089364111423492431640625</LatitudeDegrees>
              <LongitudeDegrees>-28.66030245088040828704833984375</LongitudeDegrees>
            </Position>
            <AltitudeMeters>125.8000030517578125</AltitudeMeters>
            <DistanceMeters>50712.260270136</DistanceMeters>
          </Trackpoint>
          <Trackpoint>
            <Time>2020-04-26T18:33:29.000Z</Time>
            <Position>
              <LatitudeDegrees>38.54052294977009296417236328125</LatitudeDegrees>
              <LongitudeDegrees>-28.66025551222264766693115234375</LongitudeDegrees>
            </Position>
            <AltitudeMeters>124.59999847412109375</AltitudeMeters>
            <DistanceMeters>50755.415269102</DistanceMeters>
          </Trackpoint>
          <Trackpoint>
            <Time>2020-04-26T18:33:30.000Z</Time>
            <Position>
              <LatitudeDegrees>38.5404251329600811004638671875</LatitudeDegrees>
              <LongitudeDegrees>-28.6602624692022800445556640625</LongitudeDegrees>
            </Position>
            <AltitudeMeters>125</AltitudeMeters>
            <DistanceMeters>50766.319351664</DistanceMeters>
          </Trackpoint>
          <Trackpoint>
            <Time>2020-04-26T18:33:34.000Z</Time>
            <Position>
              <LatitudeDegrees>38.5400378890335559844970703125</LatitudeDegrees>
              <LongitudeDegrees>-28.660331033170223236083984375</LongitudeDegrees>
            </Position>
            <AltitudeMeters>125.8000030517578125</AltitudeMeters>
            <DistanceMeters>50809.831626575</DistanceMeters>
          </Trackpoint>
          <Trackpoint>
            <Time>2020-04-26T18:33:35.000Z</Time>
            <Position>
              <LatitudeDegrees>38.53994359262287616729736328125</LatitudeDegrees>
              <LongitudeDegrees>-28.6603627167642116546630859375</LongitudeDegrees>
            </Position>
            <AltitudeMeters>127</AltitudeMeters>
            <DistanceMeters>50820.682995006</DistanceMeters>
          </Trackpoint>
          <Trackpoint>
            <Time>2020-04-26T18:33:36.000Z</Time>
            <Position>
              <LatitudeDegrees>38.53985306806862354278564453125</LatitudeDegrees>
              <LongitudeDegrees>-28.66040454246103763580322265625</LongitudeDegrees>
            </Position>
            <AltitudeMeters>126</AltitudeMeters>
            <DistanceMeters>50831.396177147</DistanceMeters>
          </Trackpoint>
          <Trackpoint>
            <Time>2020-04-26T18:33:37.000Z</Time>
            <Position>
              <LatitudeDegrees>38.53976472280919551849365234375</LatitudeDegrees>
              <LongitudeDegrees>-28.66045164875686168670654296875</LongitudeDegrees>
            </Position>
            <AltitudeMeters>125</AltitudeMeters>
            <DistanceMeters>50842.049769538</DistanceMeters>
          </Trackpoint>
          <Trackpoint>
            <Time>2020-04-26T18:33:41.000Z</Time>
            <Position>
              <LatitudeDegrees>38.53941746056079864501953125</LatitudeDegrees>
              <LongitudeDegrees>-28.66065566428005695343017578125</LongitudeDegrees>
            </Position>
            <AltitudeMeters>123.59999847412109375</AltitudeMeters>
            <DistanceMeters>50884.586299922</DistanceMeters>
          </Trackpoint>
          <Trackpoint>
            <Time>2020-04-26T18:33:42.000Z</Time>
            <Position>
              <LatitudeDegrees>38.53933623991906642913818359375</LatitudeDegrees>
              <LongitudeDegrees>-28.660717271268367767333984375</LongitudeDegrees>
            </Position>
            <AltitudeMeters>122.1999969482421875</AltitudeMeters>
            <DistanceMeters>50895.097818145</DistanceMeters>
          </Trackpoint>
          <Trackpoint>
            <Time>2020-04-26T18:33:43.000Z</Time>
            <Position>
              <LatitudeDegrees>38.53925778530538082122802734375</LatitudeDegrees>
              <LongitudeDegrees>-28.66078692488372325897216796875</LongitudeDegrees>
            </Position>
            <AltitudeMeters>122.40000152587890625</AltitudeMeters>
            <DistanceMeters>50905.72892518</DistanceMeters>
          </Trackpoint>
          <Trackpoint>
            <Time>2020-04-26T18:33:44.000Z</Time>
            <Position>
              <LatitudeDegrees>38.53918100707232952117919921875</LatitudeDegrees>
              <LongitudeDegrees>-28.66086018271744251251220703125</LongitudeDegrees>
            </Position>
            <AltitudeMeters>120.8000030517578125</AltitudeMeters>
            <DistanceMeters>50916.391837188</DistanceMeters>
          </Trackpoint>
          <Trackpoint>
            <Time>2020-04-26T18:33:47.000Z</Time>
            <Position>
              <LatitudeDegrees>38.5389589704573154449462890625</LatitudeDegrees>
              <LongitudeDegrees>-28.6610926128923892974853515625</LongitudeDegrees>
            </Position>
            <AltitudeMeters>122.8000030517578125</AltitudeMeters>
            <DistanceMeters>50948.332406634</DistanceMeters>
          </Trackpoint>
          <Trackpoint>
            <Time>2020-04-26T18:33:51.000Z</Time>
            <Position>
              <LatitudeDegrees>38.53867423720657825469970703125</LatitudeDegrees>
              <LongitudeDegrees>-28.66141087375581264495849609375</LongitudeDegrees>
            </Position>
            <AltitudeMeters>122.59999847412109375</AltitudeMeters>
            <DistanceMeters>50990.427954036</DistanceMeters>
          </Trackpoint>
          <Trackpoint>
            <Time>2020-04-26T18:33:57.000Z</Time>
            <Position>
              <LatitudeDegrees>38.5382438264787197113037109375</LatitudeDegrees>
              <LongitudeDegrees>-28.6619019694626331329345703125</LongitudeDegrees>
            </Position>
            <AltitudeMeters>120.1999969482421875</AltitudeMeters>
            <DistanceMeters>51054.637611115</DistanceMeters>
          </Trackpoint>
          <Trackpoint>
            <Time>2020-04-26T18:33:58.000Z</Time>
            <Position>
              <LatitudeDegrees>38.53817400522530078887939453125</LatitudeDegrees>
              <LongitudeDegrees>-28.6619770713150501251220703125</LongitudeDegrees>
            </Position>
            <AltitudeMeters>121.8000030517578125</AltitudeMeters>
            <DistanceMeters>51064.79302854</DistanceMeters>
          </Trackpoint>
          <Trackpoint>
            <Time>2020-04-26T18:34:00.000Z</Time>
            <Position>
              <LatitudeDegrees>38.53803469799458980560302734375</LatitudeDegrees>
              <LongitudeDegrees>-28.662119396030902862548828125</LongitudeDegrees>
            </Position>
            <AltitudeMeters>124.59999847412109375</AltitudeMeters>
            <DistanceMeters>51084.64110439</DistanceMeters>
          </Trackpoint>
          <Trackpoint>
            <Time>2020-04-26T18:34:03.000Z</Time>
            <Position>
              <LatitudeDegrees>38.5378391481935977935791015625</LatitudeDegrees>
              <LongitudeDegrees>-28.662329614162445068359375</LongitudeDegrees>
            </Position>
            <AltitudeMeters>122.59999847412109375</AltitudeMeters>
            <DistanceMeters>51113.078076903</DistanceMeters>
          </Trackpoint>
          <Trackpoint>
            <Time>2020-04-26T18:34:07.000Z</Time>
            <Position>
              <LatitudeDegrees>38.537585176527500152587890625</LatitudeDegrees>
              <LongitudeDegrees>-28.66262172348797321319580078125</LongitudeDegrees>
            </Position>
            <AltitudeMeters>123</AltitudeMeters>
            <DistanceMeters>51151.101707837</DistanceMeters>
          </Trackpoint>
          <Trackpoint>
            <Time>2020-04-26T18:34:11.000Z</Time>
            <Position>
              <LatitudeDegrees>38.53734469972550868988037109375</LatitudeDegrees>
              <LongitudeDegrees>-28.66291475482285022735595703125</LongitudeDegrees>
            </Position>
            <AltitudeMeters>120.8000030517578125</AltitudeMeters>
            <DistanceMeters>51188.07772458</DistanceMeters>
          </Trackpoint>
          <Trackpoint>
            <Time>2020-04-26T18:34:13.000Z</Time>
            <Position>
              <LatitudeDegrees>38.53722735308110713958740234375</LatitudeDegrees>
              <LongitudeDegrees>-28.66305590607225894927978515625</LongitudeDegrees>
            </Position>
            <AltitudeMeters>122</AltitudeMeters>
            <DistanceMeters>51206.010854326</DistanceMeters>
          </Trackpoint>
          <Trackpoint>
            <Time>2020-04-26T18:34:15.000Z</Time>
            <Position>
              <LatitudeDegrees>38.5371132753789424896240234375</LatitudeDegrees>
              <LongitudeDegrees>-28.66319605149328708648681640625</LongitudeDegrees>
            </Position>
            <AltitudeMeters>120.8000030517578125</AltitudeMeters>
            <DistanceMeters>51223.620307046</DistanceMeters>
          </Trackpoint>
          <Trackpoint>
            <Time>2020-04-26T18:34:16.000Z</Time>
            <Position>
              <LatitudeDegrees>38.53706005029380321502685546875</LatitudeDegrees>
              <LongitudeDegrees>-28.66326662711799144744873046875</LongitudeDegrees>
            </Position>
            <AltitudeMeters>121</AltitudeMeters>
            <DistanceMeters>51232.155800983</DistanceMeters>
          </Trackpoint>
          <Trackpoint>
            <Time>2020-04-26T18:34:19.000Z</Time>
            <Position>
              <LatitudeDegrees>38.53691319935023784637451171875</LatitudeDegrees>
              <LongitudeDegrees>-28.6634734086692333221435546875</LongitudeDegrees>
            </Position>
            <AltitudeMeters>119.8000030517578125</AltitudeMeters>
            <DistanceMeters>51256.471129997</DistanceMeters>
          </Trackpoint>
          <Trackpoint>
            <Time>2020-04-26T18:34:21.000Z</Time>
            <Position>
              <LatitudeDegrees>38.53682954795658588409423828125</LatitudeDegrees>
              <LongitudeDegrees>-28.663590252399444580078125</LongitudeDegrees>
            </Position>
            <AltitudeMeters>119.40000152587890625</AltitudeMeters>
            <DistanceMeters>51270.261140144</DistanceMeters>
          </Trackpoint>
          <Trackpoint>
            <Time>2020-04-26T18:34:22.000Z</Time>
            <Position>
              <LatitudeDegrees>38.536796271800994873046875</LatitudeDegrees>
              <LongitudeDegrees>-28.66363643668591976165771484375</LongitudeDegrees>
            </Position>
            <AltitudeMeters>116.59999847412109375</AltitudeMeters>
            <DistanceMeters>51275.727448125</DistanceMeters>
          </Trackpoint>
          <Trackpoint>
            <Time>2020-04-26T18:34:24.000Z</Time>
            <Position>
              <LatitudeDegrees>38.53673952631652355194091796875</LatitudeDegrees>
              <LongitudeDegrees>-28.66370248608291149139404296875</LongitudeDegrees>
            </Position>
            <AltitudeMeters>117.59999847412109375</AltitudeMeters>
            <DistanceMeters>51284.269287369</DistanceMeters>
          </Trackpoint>
          <Trackpoint>
            <Time>2020-04-26T18:34:25.000Z</Time>
            <Position>
              <LatitudeDegrees>38.53672393597662448883056640625</LatitudeDegrees>
              <LongitudeDegrees>-28.66373852826654911041259765625</LongitudeDegrees>
            </Position>
            <AltitudeMeters>119.8000030517578125</AltitudeMeters>
            <DistanceMeters>51287.853948968</DistanceMeters>
          </Trackpoint>
          <Trackpoint>
            <Time>2020-04-26T18:34:26.000Z</Time>
            <Position>
              <LatitudeDegrees>38.53671940974891185760498046875</LatitudeDegrees>
              <LongitudeDegrees>-28.66377373225986957550048828125</LongitudeDegrees>
            </Position>
            <AltitudeMeters>119.59999847412109375</AltitudeMeters>
            <DistanceMeters>51290.959447582</DistanceMeters>
          </Trackpoint>
          <Trackpoint>
            <Time>2020-04-26T18:34:27.000Z</Time>
            <Position>
              <LatitudeDegrees>38.53672913275659084320068359375</LatitudeDegrees>
              <LongitudeDegrees>-28.66380549967288970947265625</LongitudeDegrees>
            </Position>
            <AltitudeMeters>119.59999847412109375</AltitudeMeters>
            <DistanceMeters>51293.928177043</DistanceMeters>
          </Trackpoint>
          <Trackpoint>
            <Time>2020-04-26T18:34:30.000Z</Time>
            <Position>
              <LatitudeDegrees>38.53677959181368350982666015625</LatitudeDegrees>
              <LongitudeDegrees>-28.663907758891582489013671875</LongitudeDegrees>
            </Position>
            <AltitudeMeters>121</AltitudeMeters>
            <DistanceMeters>51304.454289239</DistanceMeters>
          </Trackpoint>
          <Trackpoint>
            <Time>2020-04-26T18:34:32.000Z</Time>
            <Position>
              <LatitudeDegrees>38.536817394196987152099609375</LatitudeDegrees>
              <LongitudeDegrees>-28.6639867164194583892822265625</LongitudeDegrees>
            </Position>
            <AltitudeMeters>121</AltitudeMeters>
            <DistanceMeters>51312.513652729</DistanceMeters>
          </Trackpoint>
          <Trackpoint>
            <Time>2020-04-26T18:34:34.000Z</Time>
            <Position>
              <LatitudeDegrees>38.536858968436717987060546875</LatitudeDegrees>
              <LongitudeDegrees>-28.664078414440155029296875</LongitudeDegrees>
            </Position>
            <AltitudeMeters>121.40000152587890625</AltitudeMeters>
            <DistanceMeters>51321.741524687</DistanceMeters>
          </Trackpoint>
          <Trackpoint>
            <Time>2020-04-26T18:34:36.000Z</Time>
            <Position>
              <LatitudeDegrees>38.53689350187778472900390625</LatitudeDegrees>
              <LongitudeDegrees>-28.66419039666652679443359375</LongitudeDegrees>
            </Position>
            <AltitudeMeters>121.59999847412109375</AltitudeMeters>
            <DistanceMeters>51332.221209305</DistanceMeters>
          </Trackpoint>
          <Trackpoint>
            <Time>2020-04-26T18:34:38.000Z</Time>
            <Position>
              <LatitudeDegrees>38.53691655211150646209716796875</LatitudeDegrees>
              <LongitudeDegrees>-28.664314113557338714599609375</LongitudeDegrees>
            </Position>
            <AltitudeMeters>122.1999969482421875</AltitudeMeters>
            <DistanceMeters>51343.294166361</DistanceMeters>
          </Trackpoint>
          <Trackpoint>
            <Time>2020-04-26T18:34:39.000Z</Time>
            <Position>
              <LatitudeDegrees>38.5369241796433925628662109375</LatitudeDegrees>
              <LongitudeDegrees>-28.66437974385917186737060546875</LongitudeDegrees>
            </Position>
            <AltitudeMeters>122.59999847412109375</AltitudeMeters>
            <DistanceMeters>51349.071290432</DistanceMeters>
          </Trackpoint>
          <Trackpoint>
            <Time>2020-04-26T18:34:40.000Z</Time>
            <Position>
              <LatitudeDegrees>38.5369282029569149017333984375</LatitudeDegrees>
              <LongitudeDegrees>-28.66444520652294158935546875</LongitudeDegrees>
            </Position>
            <AltitudeMeters>123</AltitudeMeters>
            <DistanceMeters>51354.788709144</DistanceMeters>
          </Trackpoint>
          <Trackpoint>
            <Time>2020-04-26T18:34:41.000Z</Time>
            <Position>
              <LatitudeDegrees>38.53693365119397640228271484375</LatitudeDegrees>
              <LongitudeDegrees>-28.664512597024440765380859375</LongitudeDegrees>
            </Position>
            <AltitudeMeters>123.1999969482421875</AltitudeMeters>
            <DistanceMeters>51360.686493005</DistanceMeters>
          </Trackpoint>
          <Trackpoint>
            <Time>2020-04-26T18:34:42.000Z</Time>
            <Position>
              <LatitudeDegrees>38.53694178164005279541015625</LatitudeDegrees>
              <LongitudeDegrees>-28.66457755677402019500732421875</LongitudeDegrees>
            </Position>
            <AltitudeMeters>123.40000152587890625</AltitudeMeters>
            <DistanceMeters>51366.4141686</DistanceMeters>
          </Trackpoint>
          <Trackpoint>
            <Time>2020-04-26T18:34:45.000Z</Time>
            <Position>
              <LatitudeDegrees>38.53695343248546123504638671875</LatitudeDegrees>
              <LongitudeDegrees>-28.66476262919604778289794921875</LongitudeDegrees>
            </Position>
            <AltitudeMeters>124</AltitudeMeters>
            <DistanceMeters>51382.578768563</DistanceMeters>
          </Trackpoint>
          <Trackpoint>
            <Time>2020-04-26T18:34:51.000Z</Time>
            <Position>
              <LatitudeDegrees>38.5369090922176837921142578125</LatitudeDegrees>
              <LongitudeDegrees>-28.66520787589251995086669921875</LongitudeDegrees>
            </Position>
            <AltitudeMeters>123.59999847412109375</AltitudeMeters>
            <DistanceMeters>51421.655435856</DistanceMeters>
          </Trackpoint>
          <Trackpoint>
            <Time>2020-04-26T18:34:58.000Z</Time>
            <Position>
              <LatitudeDegrees>38.53680859319865703582763671875</LatitudeDegrees>
              <LongitudeDegrees>-28.6657978780567646026611328125</LongitudeDegrees>
            </Position>
            <AltitudeMeters>122.59999847412109375</AltitudeMeters>
            <DistanceMeters>51474.225567826</DistanceMeters>
          </Trackpoint>
          <Trackpoint>
            <Time>2020-04-26T18:34:59.000Z</Time>
            <Position>
              <LatitudeDegrees>38.536789231002330780029296875</LatitudeDegrees>
              <LongitudeDegrees>-28.66588664241135120391845703125</LongitudeDegrees>
            </Position>
            <AltitudeMeters>121.8000030517578125</AltitudeMeters>
            <DistanceMeters>51482.247871411</DistanceMeters>
          </Trackpoint>
          <Trackpoint>
            <Time>2020-04-26T18:35:05.000Z</Time>
            <Position>
              <LatitudeDegrees>38.5366737283766269683837890625</LatitudeDegrees>
              <LongitudeDegrees>-28.66644479334354400634765625</LongitudeDegrees>
            </Position>
            <AltitudeMeters>121.59999847412109375</AltitudeMeters>
            <DistanceMeters>51532.513051196</DistanceMeters>
          </Trackpoint>
          <Trackpoint>
            <Time>2020-04-26T18:35:08.000Z</Time>
            <Position>
              <LatitudeDegrees>38.53662854991853237152099609375</LatitudeDegrees>
              <LongitudeDegrees>-28.6667322926223278045654296875</LongitudeDegrees>
            </Position>
            <AltitudeMeters>121.59999847412109375</AltitudeMeters>
            <DistanceMeters>51558.043424241</DistanceMeters>
          </Trackpoint>
          <Trackpoint>
            <Time>2020-04-26T18:35:09.000Z</Time>
            <Position>
              <LatitudeDegrees>38.536617569625377655029296875</LatitudeDegrees>
              <LongitudeDegrees>-28.666830025613307952880859375</LongitudeDegrees>
            </Position>
            <AltitudeMeters>121.40000152587890625</AltitudeMeters>
            <DistanceMeters>51566.640059956</DistanceMeters>
          </Trackpoint>
          <Trackpoint>
            <Time>2020-04-26T18:35:11.000Z</Time>
            <Position>
              <LatitudeDegrees>38.5366013087332248687744140625</LatitudeDegrees>
              <LongitudeDegrees>-28.66702943108975887298583984375</LongitudeDegrees>
            </Position>
            <AltitudeMeters>121.40000152587890625</AltitudeMeters>
            <DistanceMeters>51584.094478281</DistanceMeters>
          </Trackpoint>
          <Trackpoint>
            <Time>2020-04-26T18:35:14.000Z</Time>
            <Position>
              <LatitudeDegrees>38.53660759516060352325439453125</LatitudeDegrees>
              <LongitudeDegrees>-28.66733687929809093475341796875</LongitudeDegrees>
            </Position>
            <AltitudeMeters>120.8000030517578125</AltitudeMeters>
            <DistanceMeters>51610.870436702</DistanceMeters>
          </Trackpoint>
          <Trackpoint>
            <Time>2020-04-26T18:35:17.000Z</Time>
            <Position>
              <LatitudeDegrees>38.53664179332554340362548828125</LatitudeDegrees>
              <LongitudeDegrees>-28.6676283180713653564453125</LongitudeDegrees>
            </Position>
            <AltitudeMeters>121</AltitudeMeters>
            <DistanceMeters>51636.527297628</DistanceMeters>
          </Trackpoint>
          <Trackpoint>
            <Time>2020-04-26T18:35:21.000Z</Time>
            <Position>
              <LatitudeDegrees>38.53674036450684070587158203125</LatitudeDegrees>
              <LongitudeDegrees>-28.6680029891431331634521484375</LongitudeDegrees>
            </Position>
            <AltitudeMeters>120</AltitudeMeters>
            <DistanceMeters>51670.942452525</DistanceMeters>
          </Trackpoint>
          <Trackpoint>
            <Time>2020-04-26T18:35:22.000Z</Time>
            <Position>
              <LatitudeDegrees>38.53677724488079547882080078125</LatitudeDegrees>
              <LongitudeDegrees>-28.66808689199388027191162109375</LongitudeDegrees>
            </Position>
            <AltitudeMeters>119.8000030517578125</AltitudeMeters>
            <DistanceMeters>51679.322063162</DistanceMeters>
          </Trackpoint>
          <Trackpoint>
            <Time>2020-04-26T18:35:26.000Z</Time>
            <Position>
              <LatitudeDegrees>38.5369174741208553314208984375</LatitudeDegrees>
              <LongitudeDegrees>-28.6684482358396053314208984375</LongitudeDegrees>
            </Position>
            <AltitudeMeters>120</AltitudeMeters>
            <DistanceMeters>51714.440059407</DistanceMeters>
          </Trackpoint>
          <Trackpoint>
            <Time>2020-04-26T18:35:27.000Z</Time>
            <Position>
              <LatitudeDegrees>38.53693909943103790283203125</LatitudeDegrees>
              <LongitudeDegrees>-28.66854722611606121063232421875</LongitudeDegrees>
            </Position>
            <AltitudeMeters>119.8000030517578125</AltitudeMeters>
            <DistanceMeters>51723.387721546</DistanceMeters>
          </Trackpoint>
          <Trackpoint>
            <Time>2020-04-26T18:35:31.000Z</Time>
            <Position>
              <LatitudeDegrees>38.53693398647010326385498046875</LatitudeDegrees>
              <LongitudeDegrees>-28.66894402541220188140869140625</LongitudeDegrees>
            </Position>
            <AltitudeMeters>119.8000030517578125</AltitudeMeters>
            <DistanceMeters>51757.938133345</DistanceMeters>
          </Trackpoint>
          <Trackpoint>
            <Time>2020-04-26T18:35:35.000Z</Time>
            <Position>
              <LatitudeDegrees>38.53678227402269840240478515625</LatitudeDegrees>
              <LongitudeDegrees>-28.669289611279964447021484375</LongitudeDegrees>
            </Position>
            <AltitudeMeters>119.59999847412109375</AltitudeMeters>
            <DistanceMeters>51792.439767176</DistanceMeters>
          </Trackpoint>
          <Trackpoint>
            <Time>2020-04-26T18:35:37.000Z</Time>
            <Position>
              <LatitudeDegrees>38.53665637783706188201904296875</LatitudeDegrees>
              <LongitudeDegrees>-28.66939631290733814239501953125</LongitudeDegrees>
            </Position>
            <AltitudeMeters>119.59999847412109375</AltitudeMeters>
            <DistanceMeters>51809.251709143</DistanceMeters>
          </Trackpoint>
          <Trackpoint>
            <Time>2020-04-26T18:35:41.000Z</Time>
            <Position>
              <LatitudeDegrees>38.53641078807413578033447265625</LatitudeDegrees>
              <LongitudeDegrees>-28.66961156018078327178955078125</LongitudeDegrees>
            </Position>
            <AltitudeMeters>119.59999847412109375</AltitudeMeters>
            <DistanceMeters>51842.393289041</DistanceMeters>
          </Trackpoint>
          <Trackpoint>
            <Time>2020-04-26T18:35:42.000Z</Time>
            <Position>
              <LatitudeDegrees>38.53635848499834537506103515625</LatitudeDegrees>
              <LongitudeDegrees>-28.669671826064586639404296875</LongitudeDegrees>
            </Position>
            <AltitudeMeters>120</AltitudeMeters>
            <DistanceMeters>51850.230544937</DistanceMeters>
          </Trackpoint>
          <Trackpoint>
            <Time>2020-04-26T18:35:44.000Z</Time>
            <Position>
              <LatitudeDegrees>38.53627969510853290557861328125</LatitudeDegrees>
              <LongitudeDegrees>-28.6698161624372005462646484375</LongitudeDegrees>
            </Position>
            <AltitudeMeters>120.8000030517578125</AltitudeMeters>
            <DistanceMeters>51865.554026192</DistanceMeters>
          </Trackpoint>
          <Trackpoint>
            <Time>2020-04-26T18:35:48.000Z</Time>
            <Position>
              <LatitudeDegrees>38.53619922883808612823486328125</LatitudeDegrees>
              <LongitudeDegrees>-28.670116402208805084228515625</LongitudeDegrees>
            </Position>
            <AltitudeMeters>122</AltitudeMeters>
            <DistanceMeters>51893.185075813</DistanceMeters>
          </Trackpoint>
          <Trackpoint>
            <Time>2020-04-26T18:35:49.000Z</Time>
            <Position>
              <LatitudeDegrees>38.53618833236396312713623046875</LatitudeDegrees>
              <LongitudeDegrees>-28.67017901502549648284912109375</LongitudeDegrees>
            </Position>
            <AltitudeMeters>122.40000152587890625</AltitudeMeters>
            <DistanceMeters>51898.769866234</DistanceMeters>
          </Trackpoint>
          <Trackpoint>
            <Time>2020-04-26T18:35:51.000Z</Time>
            <Position>
              <LatitudeDegrees>38.5361780226230621337890625</LatitudeDegrees>
              <LongitudeDegrees>-28.67029585875570774078369140625</LongitudeDegrees>
            </Position>
            <AltitudeMeters>123.1999969482421875</AltitudeMeters>
            <DistanceMeters>51909.007203153</DistanceMeters>
          </Trackpoint>
          <Trackpoint>
            <Time>2020-04-26T18:35:53.000Z</Time>
            <Position>
              <LatitudeDegrees>38.53617659769952297210693359375</LatitudeDegrees>
              <LongitudeDegrees>-28.670406080782413482666015625</LongitudeDegrees>
            </Position>
            <AltitudeMeters>124.1999969482421875</AltitudeMeters>
            <DistanceMeters>51918.605371723</DistanceMeters>
          </Trackpoint>
          <Trackpoint>
            <Time>2020-04-26T18:35:54.000Z</Time>
            <Position>
              <LatitudeDegrees>38.53618179447948932647705078125</LatitudeDegrees>
              <LongitudeDegrees>-28.67045913822948932647705078125</LongitudeDegrees>
            </Position>
            <AltitudeMeters>124.59999847412109375</AltitudeMeters>
            <DistanceMeters>51923.261680727</DistanceMeters>
          </Trackpoint>
          <Trackpoint>
            <Time>2020-04-26T18:35:55.000Z</Time>
            <Position>
              <LatitudeDegrees>38.53618799708783626556396484375</LatitudeDegrees>
              <LongitudeDegrees>-28.6705115251243114471435546875</LongitudeDegrees>
            </Position>
            <AltitudeMeters>125.1999969482421875</AltitudeMeters>
            <DistanceMeters>51927.875127397</DistanceMeters>
          </Trackpoint>
          <Trackpoint>
            <Time>2020-04-26T18:35:56.000Z</Time>
            <Position>
              <LatitudeDegrees>38.53619805537164211273193359375</LatitudeDegrees>
              <LongitudeDegrees>-28.67056441493332386016845703125</LongitudeDegrees>
            </Position>
            <AltitudeMeters>125.59999847412109375</AltitudeMeters>
            <DistanceMeters>51932.614093541</DistanceMeters>
          </Trackpoint>
          <Trackpoint>
            <Time>2020-04-26T18:35:57.000Z</Time>
            <Position>
              <LatitudeDegrees>38.53621263988316059112548828125</LatitudeDegrees>
              <LongitudeDegrees>-28.67061789147555828094482421875</LongitudeDegrees>
            </Position>
            <AltitudeMeters>126</AltitudeMeters>
            <DistanceMeters>51937.544505875</DistanceMeters>
          </Trackpoint>
          <Trackpoint>
            <Time>2020-04-26T18:35:58.000Z</Time>
            <Position>
              <LatitudeDegrees>38.53623208589851856231689453125</LatitudeDegrees>
              <LongitudeDegrees>-28.6706714518368244171142578125</LongitudeDegrees>
            </Position>
            <AltitudeMeters>126.40000152587890625</AltitudeMeters>
            <DistanceMeters>51942.686496135</DistanceMeters>
          </Trackpoint>
          <Trackpoint>
            <Time>2020-04-26T18:36:00.000Z</Time>
            <Position>
              <LatitudeDegrees>38.53628464043140411376953125</LatitudeDegrees>
              <LongitudeDegrees>-28.67077966220676898956298828125</LongitudeDegrees>
            </Position>
            <AltitudeMeters>126.8000030517578125</AltitudeMeters>
            <DistanceMeters>51953.77575134</DistanceMeters>
          </Trackpoint>
          <Trackpoint>
            <Time>2020-04-26T18:36:01.000Z</Time>
            <Position>
              <LatitudeDegrees>38.5363156534731388092041015625</LatitudeDegrees>
              <LongitudeDegrees>-28.67083800025284290313720703125</LongitudeDegrees>
            </Position>
            <AltitudeMeters>127</AltitudeMeters>
            <DistanceMeters>51959.916565556</DistanceMeters>
          </Trackpoint>
          <Trackpoint>
            <Time>2020-04-26T18:36:06.000Z</Time>
            <Position>
              <LatitudeDegrees>38.53648605756461620330810546875</LatitudeDegrees>
              <LongitudeDegrees>-28.671145029366016387939453125</LongitudeDegrees>
            </Position>
            <AltitudeMeters>126.59999847412109375</AltitudeMeters>
            <DistanceMeters>51992.692104513</DistanceMeters>
          </Trackpoint>
          <Trackpoint>
            <Time>2020-04-26T18:36:08.000Z</Time>
            <Position>
              <LatitudeDegrees>38.53655814193189144134521484375</LatitudeDegrees>
              <LongitudeDegrees>-28.67128752171993255615234375</LongitudeDegrees>
            </Position>
            <AltitudeMeters>125.59999847412109375</AltitudeMeters>
            <DistanceMeters>52007.466237577</DistanceMeters>
          </Trackpoint>
          <Trackpoint>
            <Time>2020-04-26T18:36:12.000Z</Time>
            <Position>
              <LatitudeDegrees>38.5367126204073429107666015625</LatitudeDegrees>
              <LongitudeDegrees>-28.67160175926983356475830078125</LongitudeDegrees>
            </Position>
            <AltitudeMeters>125</AltitudeMeters>
            <DistanceMeters>52039.778534442</DistanceMeters>
          </Trackpoint>
          <Trackpoint>
            <Time>2020-04-26T18:36:14.000Z</Time>
            <Position>
              <LatitudeDegrees>38.53679836727678775787353515625</LatitudeDegrees>
              <LongitudeDegrees>-28.67176570929586887359619140625</LongitudeDegrees>
            </Position>
            <AltitudeMeters>124</AltitudeMeters>
            <DistanceMeters>52056.949206994</DistanceMeters>
          </Trackpoint>
          <Trackpoint>
            <Time>2020-04-26T18:36:15.000Z</Time>
            <Position>
              <LatitudeDegrees>38.53683742694556713104248046875</LatitudeDegrees>
              <LongitudeDegrees>-28.67184986360371112823486328125</LongitudeDegrees>
            </Position>
            <AltitudeMeters>123.8000030517578125</AltitudeMeters>
            <DistanceMeters>52065.468816989</DistanceMeters>
          </Trackpoint>
          <Trackpoint>
            <Time>2020-04-26T18:36:17.000Z</Time>
            <Position>
              <LatitudeDegrees>38.53688671253621578216552734375</LatitudeDegrees>
              <LongitudeDegrees>-28.67204122245311737060546875</LongitudeDegrees>
            </Position>
            <AltitudeMeters>123.1999969482421875</AltitudeMeters>
            <DistanceMeters>52083.00864807</DistanceMeters>
          </Trackpoint>
          <Trackpoint>
            <Time>2020-04-26T18:36:18.000Z</Time>
            <Position>
              <LatitudeDegrees>38.53690154850482940673828125</LatitudeDegrees>
              <LongitudeDegrees>-28.6721433140337467193603515625</LongitudeDegrees>
            </Position>
            <AltitudeMeters>122.8000030517578125</AltitudeMeters>
            <DistanceMeters>52092.048680804</DistanceMeters>
          </Trackpoint>
          <Trackpoint>
            <Time>2020-04-26T18:36:19.000Z</Time>
            <Position>
              <LatitudeDegrees>38.536914288997650146484375</LatitudeDegrees>
              <LongitudeDegrees>-28.6722492612898349761962890625</LongitudeDegrees>
            </Position>
            <AltitudeMeters>122.59999847412109375</AltitudeMeters>
            <DistanceMeters>52101.380671868</DistanceMeters>
          </Trackpoint>
          <Trackpoint>
            <Time>2020-04-26T18:36:21.000Z</Time>
            <Position>
              <LatitudeDegrees>38.5369531810283660888671875</LatitudeDegrees>
              <LongitudeDegrees>-28.6724742315709590911865234375</LongitudeDegrees>
            </Position>
            <AltitudeMeters>121.40000152587890625</AltitudeMeters>
            <DistanceMeters>52121.439413506</DistanceMeters>
          </Trackpoint>
          <Trackpoint>
            <Time>2020-04-26T18:36:23.000Z</Time>
            <Position>
              <LatitudeDegrees>38.53706373833119869232177734375</LatitudeDegrees>
              <LongitudeDegrees>-28.67268419824540615081787109375</LongitudeDegrees>
            </Position>
            <AltitudeMeters>120.1999969482421875</AltitudeMeters>
            <DistanceMeters>52143.474959121</DistanceMeters>
          </Trackpoint>
          <Trackpoint>
            <Time>2020-04-26T18:36:25.000Z</Time>
            <Position>
              <LatitudeDegrees>38.53718996979296207427978515625</LatitudeDegrees>
              <LongitudeDegrees>-28.672889135777950286865234375</LongitudeDegrees>
            </Position>
            <AltitudeMeters>118.8000030517578125</AltitudeMeters>
            <DistanceMeters>52166.184753395</DistanceMeters>
          </Trackpoint>
          <Trackpoint>
            <Time>2020-04-26T18:36:26.000Z</Time>
            <Position>
              <LatitudeDegrees>38.53722400031983852386474609375</LatitudeDegrees>
              <LongitudeDegrees>-28.67300413548946380615234375</LongitudeDegrees>
            </Position>
            <AltitudeMeters>117.59999847412109375</AltitudeMeters>
            <DistanceMeters>52176.889503278</DistanceMeters>
          </Trackpoint>
          <Trackpoint>
            <Time>2020-04-26T18:36:27.000Z</Time>
            <Position>
              <LatitudeDegrees>38.53724210523068904876708984375</LatitudeDegrees>
              <LongitudeDegrees>-28.6731239967048168182373046875</LongitudeDegrees>
            </Position>
            <AltitudeMeters>117.40000152587890625</AltitudeMeters>
            <DistanceMeters>52187.518061803</DistanceMeters>
          </Trackpoint>
          <Trackpoint>
            <Time>2020-04-26T18:36:29.000Z</Time>
            <Position>
              <LatitudeDegrees>38.53725836612284183502197265625</LatitudeDegrees>
              <LongitudeDegrees>-28.67336296476423740386962890625</LongitudeDegrees>
            </Position>
            <AltitudeMeters>117</AltitudeMeters>
            <DistanceMeters>52208.401466026</DistanceMeters>
          </Trackpoint>
          <Trackpoint>
            <Time>2020-04-26T18:36:30.000Z</Time>
            <Position>
              <LatitudeDegrees>38.537264652550220489501953125</LatitudeDegrees>
              <LongitudeDegrees>-28.67348316125571727752685546875</LongitudeDegrees>
            </Position>
            <AltitudeMeters>116.40000152587890625</AltitudeMeters>
            <DistanceMeters>52218.889333358</DistanceMeters>
          </Trackpoint>
          <Trackpoint>
            <Time>2020-04-26T18:36:32.000Z</Time>
            <Position>
              <LatitudeDegrees>38.5372658260166645050048828125</LatitudeDegrees>
              <LongitudeDegrees>-28.6737284995615482330322265625</LongitudeDegrees>
            </Position>
            <AltitudeMeters>115</AltitudeMeters>
            <DistanceMeters>52240.248582457</DistanceMeters>
          </Trackpoint>
          <Trackpoint>
            <Time>2020-04-26T18:36:34.000Z</Time>
            <Position>
              <LatitudeDegrees>38.53728108108043670654296875</LatitudeDegrees>
              <LongitudeDegrees>-28.67398054338991641998291015625</LongitudeDegrees>
            </Position>
            <AltitudeMeters>114.59999847412109375</AltitudeMeters>
            <DistanceMeters>52262.257475219</DistanceMeters>
          </Trackpoint>
          <Trackpoint>
            <Time>2020-04-26T18:36:35.000Z</Time>
            <Position>
              <LatitudeDegrees>38.53729315102100372314453125</LatitudeDegrees>
              <LongitudeDegrees>-28.67411381565034389495849609375</LongitudeDegrees>
            </Position>
            <AltitudeMeters>114</AltitudeMeters>
            <DistanceMeters>52273.938419319</DistanceMeters>
          </Trackpoint>
          <Trackpoint>
            <Time>2020-04-26T18:36:36.000Z</Time>
            <Position>
              <LatitudeDegrees>38.53730664588510990142822265625</LatitudeDegrees>
              <LongitudeDegrees>-28.67425345815718173980712890625</LongitudeDegrees>
            </Position>
            <AltitudeMeters>113.40000152587890625</AltitudeMeters>
            <DistanceMeters>52286.18839117</DistanceMeters>
          </Trackpoint>
          <Trackpoint>
            <Time>2020-04-26T18:36:37.000Z</Time>
            <Position>
              <LatitudeDegrees>38.53731938637793064117431640625</LatitudeDegrees>
              <LongitudeDegrees>-28.6743940226733684539794921875</LongitudeDegrees>
            </Position>
            <AltitudeMeters>112</AltitudeMeters>
            <DistanceMeters>52298.508193314</DistanceMeters>
          </Trackpoint>
          <Trackpoint>
            <Time>2020-04-26T18:36:38.000Z</Time>
            <Position>
              <LatitudeDegrees>38.5373355634510517120361328125</LatitudeDegrees>
              <LongitudeDegrees>-28.6745324917137622833251953125</LongitudeDegrees>
            </Position>
            <AltitudeMeters>110.8000030517578125</AltitudeMeters>
            <DistanceMeters>52310.697568926</DistanceMeters>
          </Trackpoint>
          <Trackpoint>
            <Time>2020-04-26T18:36:39.000Z</Time>
            <Position>
              <LatitudeDegrees>38.5373620502650737762451171875</LatitudeDegrees>
              <LongitudeDegrees>-28.67466802708804607391357421875</LongitudeDegrees>
            </Position>
            <AltitudeMeters>110</AltitudeMeters>
            <DistanceMeters>52322.860245947</DistanceMeters>
          </Trackpoint>
          <Trackpoint>
            <Time>2020-04-26T18:36:40.000Z</Time>
            <Position>
              <LatitudeDegrees>38.5373962484300136566162109375</LatitudeDegrees>
              <LongitudeDegrees>-28.674801886081695556640625</LongitudeDegrees>
            </Position>
            <AltitudeMeters>109.59999847412109375</AltitudeMeters>
            <DistanceMeters>52335.120165294</DistanceMeters>
          </Trackpoint>
          <Trackpoint>
            <Time>2020-04-26T18:36:42.000Z</Time>
            <Position>
              <LatitudeDegrees>38.537473864853382110595703125</LatitudeDegrees>
              <LongitudeDegrees>-28.67506516166031360626220703125</LongitudeDegrees>
            </Position>
            <AltitudeMeters>108.1999969482421875</AltitudeMeters>
            <DistanceMeters>52359.615132723</DistanceMeters>
          </Trackpoint>
          <Trackpoint>
            <Time>2020-04-26T18:36:43.000Z</Time>
            <Position>
              <LatitudeDegrees>38.53752004913985729217529296875</LatitudeDegrees>
              <LongitudeDegrees>-28.675187118351459503173828125</LongitudeDegrees>
            </Position>
            <AltitudeMeters>107.40000152587890625</AltitudeMeters>
            <DistanceMeters>52371.411465967</DistanceMeters>
          </Trackpoint>
          <Trackpoint>
            <Time>2020-04-26T18:36:44.000Z</Time>
            <Position>
              <LatitudeDegrees>38.537575788795948028564453125</LatitudeDegrees>
              <LongitudeDegrees>-28.675301112234592437744140625</LongitudeDegrees>
            </Position>
            <AltitudeMeters>106.8000030517578125</AltitudeMeters>
            <DistanceMeters>52383.115578904</DistanceMeters>
          </Trackpoint>
          <Trackpoint>
            <Time>2020-04-26T18:36:45.000Z</Time>
            <Position>
              <LatitudeDegrees>38.53763471357524394989013671875</LatitudeDegrees>
              <LongitudeDegrees>-28.67539658211171627044677734375</LongitudeDegrees>
            </Position>
            <AltitudeMeters>106.1999969482421875</AltitudeMeters>
            <DistanceMeters>52393.70327785</DistanceMeters>
          </Trackpoint>
          <Trackpoint>
            <Time>2020-04-26T18:36:46.000Z</Time>
            <Position>
              <LatitudeDegrees>38.5376896150410175323486328125</LatitudeDegrees>
              <LongitudeDegrees>-28.67547151632606983184814453125</LongitudeDegrees>
            </Position>
            <AltitudeMeters>105.59999847412109375</AltitudeMeters>
            <DistanceMeters>52402.641852478</DistanceMeters>
          </Trackpoint>
          <Trackpoint>
            <Time>2020-04-26T18:36:47.000Z</Time>
            <Position>
              <LatitudeDegrees>38.53773630224168300628662109375</LatitudeDegrees>
              <LongitudeDegrees>-28.67552750743925571441650390625</LongitudeDegrees>
            </Position>
            <AltitudeMeters>104.59999847412109375</AltitudeMeters>
            <DistanceMeters>52409.766955268</DistanceMeters>
          </Trackpoint>
          <Trackpoint>
            <Time>2020-04-26T18:36:48.000Z</Time>
            <Position>
              <LatitudeDegrees>38.53776656091213226318359375</LatitudeDegrees>
              <LongitudeDegrees>-28.6755829118192195892333984375</LongitudeDegrees>
            </Position>
            <AltitudeMeters>103.59999847412109375</AltitudeMeters>
            <DistanceMeters>52415.649408237</DistanceMeters>
          </Trackpoint>
          <Trackpoint>
            <Time>2020-04-26T18:36:50.000Z</Time>
            <Position>
              <LatitudeDegrees>38.53774778544902801513671875</LatitudeDegrees>
              <LongitudeDegrees>-28.67571358568966388702392578125</LongitudeDegrees>
            </Position>
            <AltitudeMeters>103</AltitudeMeters>
            <DistanceMeters>52427.216154218</DistanceMeters>
          </Trackpoint>
          <Trackpoint>
            <Time>2020-04-26T18:36:52.000Z</Time>
            <Position>
              <LatitudeDegrees>38.5376591049134731292724609375</LatitudeDegrees>
              <LongitudeDegrees>-28.67582020349800586700439453125</LongitudeDegrees>
            </Position>
            <AltitudeMeters>102.59999847412109375</AltitudeMeters>
            <DistanceMeters>52440.765377595</DistanceMeters>
          </Trackpoint>
          <Trackpoint>
            <Time>2020-04-26T18:36:53.000Z</Time>
            <Position>
              <LatitudeDegrees>38.53760562837123870849609375</LatitudeDegrees>
              <LongitudeDegrees>-28.67586596868932247161865234375</LongitudeDegrees>
            </Position>
            <AltitudeMeters>102.1999969482421875</AltitudeMeters>
            <DistanceMeters>52447.927769952</DistanceMeters>
          </Trackpoint>
          <Trackpoint>
            <Time>2020-04-26T18:36:54.000Z</Time>
            <Position>
              <LatitudeDegrees>38.5375486314296722412109375</LatitudeDegrees>
              <LongitudeDegrees>-28.675915338099002838134765625</LongitudeDegrees>
            </Position>
            <AltitudeMeters>102.1999969482421875</AltitudeMeters>
            <DistanceMeters>52455.590247165</DistanceMeters>
          </Trackpoint>
          <Trackpoint>
            <Time>2020-04-26T18:36:56.000Z</Time>
            <Position>
              <LatitudeDegrees>38.5374341346323490142822265625</LatitudeDegrees>
              <LongitudeDegrees>-28.67603561840951442718505859375</LongitudeDegrees>
            </Position>
            <AltitudeMeters>101.40000152587890625</AltitudeMeters>
            <DistanceMeters>52472.084432295</DistanceMeters>
          </Trackpoint>
          <Trackpoint>
            <Time>2020-04-26T18:36:58.000Z</Time>
            <Position>
              <LatitudeDegrees>38.5373094119131565093994140625</LatitudeDegrees>
              <LongitudeDegrees>-28.676149360835552215576171875</LongitudeDegrees>
            </Position>
            <AltitudeMeters>101.40000152587890625</AltitudeMeters>
            <DistanceMeters>52489.13636654</DistanceMeters>
          </Trackpoint>
          <Trackpoint>
            <Time>2020-04-26T18:37:01.000Z</Time>
            <Position>
              <LatitudeDegrees>38.537072874605655670166015625</LatitudeDegrees>
              <LongitudeDegrees>-28.67626612074673175811767578125</LongitudeDegrees>
            </Position>
            <AltitudeMeters>99.8000030517578125</AltitudeMeters>
            <DistanceMeters>52517.357860872</DistanceMeters>
          </Trackpoint>
          <Trackpoint>
            <Time>2020-04-26T18:37:03.000Z</Time>
            <Position>
              <LatitudeDegrees>38.5369104333221912384033203125</LatitudeDegrees>
              <LongitudeDegrees>-28.67640190757811069488525390625</LongitudeDegrees>
            </Position>
            <AltitudeMeters>98</AltitudeMeters>
            <DistanceMeters>52538.960089703</DistanceMeters>
          </Trackpoint>
          <Trackpoint>
            <Time>2020-04-26T18:37:04.000Z</Time>
            <Position>
              <LatitudeDegrees>38.53683583438396453857421875</LatitudeDegrees>
              <LongitudeDegrees>-28.6764955334365367889404296875</LongitudeDegrees>
            </Position>
            <AltitudeMeters>97.1999969482421875</AltitudeMeters>
            <DistanceMeters>52550.595721879</DistanceMeters>
          </Trackpoint>
          <Trackpoint>
            <Time>2020-04-26T18:37:05.000Z</Time>
            <Position>
              <LatitudeDegrees>38.536765091121196746826171875</LatitudeDegrees>
              <LongitudeDegrees>-28.67660307325422763824462890625</LongitudeDegrees>
            </Position>
            <AltitudeMeters>96.59999847412109375</AltitudeMeters>
            <DistanceMeters>52562.829465663</DistanceMeters>
          </Trackpoint>
          <Trackpoint>
            <Time>2020-04-26T18:37:07.000Z</Time>
            <Position>
              <LatitudeDegrees>38.53665822185575962066650390625</LatitudeDegrees>
              <LongitudeDegrees>-28.6768577992916107177734375</LongitudeDegrees>
            </Position>
            <AltitudeMeters>94.8000030517578125</AltitudeMeters>
            <DistanceMeters>52587.994864948</DistanceMeters>
          </Trackpoint>
          <Trackpoint>
            <Time>2020-04-26T18:37:08.000Z</Time>
            <Position>
              <LatitudeDegrees>38.5366455651819705963134765625</LatitudeDegrees>
              <LongitudeDegrees>-28.677004314959049224853515625</LongitudeDegrees>
            </Position>
            <AltitudeMeters>93.8000030517578125</AltitudeMeters>
            <DistanceMeters>52600.828045933</DistanceMeters>
          </Trackpoint>
          <Trackpoint>
            <Time>2020-04-26T18:37:09.000Z</Time>
            <Position>
              <LatitudeDegrees>38.53665051050484180450439453125</LatitudeDegrees>
              <LongitudeDegrees>-28.67715074680745601654052734375</LongitudeDegrees>
            </Position>
            <AltitudeMeters>92.8000030517578125</AltitudeMeters>
            <DistanceMeters>52613.588191244</DistanceMeters>
          </Trackpoint>
          <Trackpoint>
            <Time>2020-04-26T18:37:10.000Z</Time>
            <Position>
              <LatitudeDegrees>38.53665973059833049774169921875</LatitudeDegrees>
              <LongitudeDegrees>-28.67728888057172298431396484375</LongitudeDegrees>
            </Position>
            <AltitudeMeters>91.8000030517578125</AltitudeMeters>
            <DistanceMeters>52625.65808036</DistanceMeters>
          </Trackpoint>
          <Trackpoint>
            <Time>2020-04-26T18:37:11.000Z</Time>
            <Position>
              <LatitudeDegrees>38.5366606526076793670654296875</LatitudeDegrees>
              <LongitudeDegrees>-28.67741410620510578155517578125</LongitudeDegrees>
            </Position>
            <AltitudeMeters>91.40000152587890625</AltitudeMeters>
            <DistanceMeters>52636.560920646</DistanceMeters>
          </Trackpoint>
          <Trackpoint>
            <Time>2020-04-26T18:37:12.000Z</Time>
            <Position>
              <LatitudeDegrees>38.5366366803646087646484375</LatitudeDegrees>
              <LongitudeDegrees>-28.67752625606954097747802734375</LongitudeDegrees>
            </Position>
            <AltitudeMeters>90.59999847412109375</AltitudeMeters>
            <DistanceMeters>52646.682938594</DistanceMeters>
          </Trackpoint>
          <Trackpoint>
            <Time>2020-04-26T18:37:15.000Z</Time>
            <Position>
              <LatitudeDegrees>38.5364730656147003173828125</LatitudeDegrees>
              <LongitudeDegrees>-28.67779145948588848114013671875</LongitudeDegrees>
            </Position>
            <AltitudeMeters>89.40000152587890625</AltitudeMeters>
            <DistanceMeters>52676.089369531</DistanceMeters>
          </Trackpoint>
          <Trackpoint>
            <Time>2020-04-26T18:37:16.000Z</Time>
            <Position>
              <LatitudeDegrees>38.53639469482004642486572265625</LatitudeDegrees>
              <LongitudeDegrees>-28.67785465903580188751220703125</LongitudeDegrees>
            </Position>
            <AltitudeMeters>89.1999969482421875</AltitudeMeters>
            <DistanceMeters>52686.402285721</DistanceMeters>
          </Trackpoint>
          <Trackpoint>
            <Time>2020-04-26T18:37:17.000Z</Time>
            <Position>
              <LatitudeDegrees>38.5363156534731388092041015625</LatitudeDegrees>
              <LongitudeDegrees>-28.6779281683266162872314453125</LongitudeDegrees>
            </Position>
            <AltitudeMeters>89</AltitudeMeters>
            <DistanceMeters>52697.281080777</DistanceMeters>
          </Trackpoint>
          <Trackpoint>
            <Time>2020-04-26T18:37:18.000Z</Time>
            <Position>
              <LatitudeDegrees>38.536244742572307586669921875</LatitudeDegrees>
              <LongitudeDegrees>-28.67802347056567668914794921875</LongitudeDegrees>
            </Position>
            <AltitudeMeters>89</AltitudeMeters>
            <DistanceMeters>52708.732489866</DistanceMeters>
          </Trackpoint>
          <Trackpoint>
            <Time>2020-04-26T18:37:19.000Z</Time>
            <Position>
              <LatitudeDegrees>38.53618548251688480377197265625</LatitudeDegrees>
              <LongitudeDegrees>-28.678138218820095062255859375</LongitudeDegrees>
            </Position>
            <AltitudeMeters>88.1999969482421875</AltitudeMeters>
            <DistanceMeters>52720.703970278</DistanceMeters>
          </Trackpoint>
          <Trackpoint>
            <Time>2020-04-26T18:37:20.000Z</Time>
            <Position>
              <LatitudeDegrees>38.5361282341182231903076171875</LatitudeDegrees>
              <LongitudeDegrees>-28.678264953196048736572265625</LongitudeDegrees>
            </Position>
            <AltitudeMeters>86.40000152587890625</AltitudeMeters>
            <DistanceMeters>52733.445348316</DistanceMeters>
          </Trackpoint>
          <Trackpoint>
            <Time>2020-04-26T18:37:21.000Z</Time>
            <Position>
              <LatitudeDegrees>38.5360712371766567230224609375</LatitudeDegrees>
              <LongitudeDegrees>-28.67839495651423931121826171875</LongitudeDegrees>
            </Position>
            <AltitudeMeters>85.40000152587890625</AltitudeMeters>
            <DistanceMeters>52746.42058416</DistanceMeters>
          </Trackpoint>
          <Trackpoint>
            <Time>2020-04-26T18:37:22.000Z</Time>
            <Position>
              <LatitudeDegrees>38.53601432405412197113037109375</LatitudeDegrees>
              <LongitudeDegrees>-28.67851431481540203094482421875</LongitudeDegrees>
            </Position>
            <AltitudeMeters>85</AltitudeMeters>
            <DistanceMeters>52758.590683331</DistanceMeters>
          </Trackpoint>
          <Trackpoint>
            <Time>2020-04-26T18:37:23.000Z</Time>
            <Position>
              <LatitudeDegrees>38.5359448380768299102783203125</LatitudeDegrees>
              <LongitudeDegrees>-28.67861908860504627227783203125</LongitudeDegrees>
            </Position>
            <AltitudeMeters>85.1999969482421875</AltitudeMeters>
            <DistanceMeters>52770.550088868</DistanceMeters>
          </Trackpoint>
          <Trackpoint>
            <Time>2020-04-26T18:37:24.000Z</Time>
            <Position>
              <LatitudeDegrees>38.535859175026416778564453125</LatitudeDegrees>
              <LongitudeDegrees>-28.67870123125612735748291015625</LongitudeDegrees>
            </Position>
            <AltitudeMeters>85.40000152587890625</AltitudeMeters>
            <DistanceMeters>52782.468272558</DistanceMeters>
          </Trackpoint>
          <Trackpoint>
            <Time>2020-04-26T18:37:26.000Z</Time>
            <Position>
              <LatitudeDegrees>38.535678796470165252685546875</LatitudeDegrees>
              <LongitudeDegrees>-28.6788319051265716552734375</LongitudeDegrees>
            </Position>
            <AltitudeMeters>84.1999969482421875</AltitudeMeters>
            <DistanceMeters>52805.544312251</DistanceMeters>
          </Trackpoint>
          <Trackpoint>
            <Time>2020-04-26T18:37:27.000Z</Time>
            <Position>
              <LatitudeDegrees>38.535587601363658905029296875</LatitudeDegrees>
              <LongitudeDegrees>-28.67889451794326305389404296875</LongitudeDegrees>
            </Position>
            <AltitudeMeters>83.8000030517578125</AltitudeMeters>
            <DistanceMeters>52817.065689066</DistanceMeters>
          </Trackpoint>
          <Trackpoint>
            <Time>2020-04-26T18:37:28.000Z</Time>
            <Position>
              <LatitudeDegrees>38.5354962386190891265869140625</LatitudeDegrees>
              <LongitudeDegrees>-28.67895729839801788330078125</LongitudeDegrees>
            </Position>
            <AltitudeMeters>83.8000030517578125</AltitudeMeters>
            <DistanceMeters>52828.610554952</DistanceMeters>
          </Trackpoint>
          <Trackpoint>
            <Time>2020-04-26T18:37:29.000Z</Time>
            <Position>
              <LatitudeDegrees>38.5354043729603290557861328125</LatitudeDegrees>
              <LongitudeDegrees>-28.6790194921195507049560546875</LongitudeDegrees>
            </Position>
            <AltitudeMeters>83.8000030517578125</AltitudeMeters>
            <DistanceMeters>52840.180813518</DistanceMeters>
          </Trackpoint>
          <Trackpoint>
            <Time>2020-04-26T18:37:30.000Z</Time>
            <Position>
              <LatitudeDegrees>38.53531074710190296173095703125</LatitudeDegrees>
              <LongitudeDegrees>-28.6790808476507663726806640625</LongitudeDegrees>
            </Position>
            <AltitudeMeters>83.59999847412109375</AltitudeMeters>
            <DistanceMeters>52851.89109707</DistanceMeters>
          </Trackpoint>
          <Trackpoint>
            <Time>2020-04-26T18:37:32.000Z</Time>
            <Position>
              <LatitudeDegrees>38.53512349538505077362060546875</LatitudeDegrees>
              <LongitudeDegrees>-28.67920716293156147003173828125</LongitudeDegrees>
            </Position>
            <AltitudeMeters>83</AltitudeMeters>
            <DistanceMeters>52875.456189495</DistanceMeters>
          </Trackpoint>
          <Trackpoint>
            <Time>2020-04-26T18:37:33.000Z</Time>
            <Position>
              <LatitudeDegrees>38.5350281931459903717041015625</LatitudeDegrees>
              <LongitudeDegrees>-28.67927019484341144561767578125</LongitudeDegrees>
            </Position>
            <AltitudeMeters>82.59999847412109375</AltitudeMeters>
            <DistanceMeters>52887.398594084</DistanceMeters>
          </Trackpoint>
          <Trackpoint>
            <Time>2020-04-26T18:37:35.000Z</Time>
            <Position>
              <LatitudeDegrees>38.53483767248690128326416015625</LatitudeDegrees>
              <LongitudeDegrees>-28.679398186504840850830078125</LongitudeDegrees>
            </Position>
            <AltitudeMeters>82.1999969482421875</AltitudeMeters>
            <DistanceMeters>52911.353620651</DistanceMeters>
          </Trackpoint>
          <Trackpoint>
            <Time>2020-04-26T18:37:36.000Z</Time>
            <Position>
              <LatitudeDegrees>38.53474907577037811279296875</LatitudeDegrees>
              <LongitudeDegrees>-28.67946364916861057281494140625</LongitudeDegrees>
            </Position>
            <AltitudeMeters>82.40000152587890625</AltitudeMeters>
            <DistanceMeters>52922.742563449</DistanceMeters>
          </Trackpoint>
          <Trackpoint>
            <Time>2020-04-26T18:37:37.000Z</Time>
            <Position>
              <LatitudeDegrees>38.53467070497572422027587890625</LatitudeDegrees>
              <LongitudeDegrees>-28.67953933775424957275390625</LongitudeDegrees>
            </Position>
            <AltitudeMeters>82.59999847412109375</AltitudeMeters>
            <DistanceMeters>52933.674766417</DistanceMeters>
          </Trackpoint>
          <Trackpoint>
            <Time>2020-04-26T18:37:38.000Z</Time>
            <Position>
              <LatitudeDegrees>38.53460214100778102874755859375</LatitudeDegrees>
              <LongitudeDegrees>-28.6796229891479015350341796875</LongitudeDegrees>
            </Position>
            <AltitudeMeters>83</AltitudeMeters>
            <DistanceMeters>52944.224015779</DistanceMeters>
          </Trackpoint>
          <Trackpoint>
            <Time>2020-04-26T18:37:40.000Z</Time>
            <Position>
              <LatitudeDegrees>38.5344917513430118560791015625</LatitudeDegrees>
              <LongitudeDegrees>-28.6797988414764404296875</LongitudeDegrees>
            </Position>
            <AltitudeMeters>83.8000030517578125</AltitudeMeters>
            <DistanceMeters>52963.85479626</DistanceMeters>
          </Trackpoint>
          <Trackpoint>
            <Time>2020-04-26T18:37:42.000Z</Time>
            <Position>
              <LatitudeDegrees>38.5343948565423488616943359375</LatitudeDegrees>
              <LongitudeDegrees>-28.6799619533121585845947265625</LongitudeDegrees>
            </Position>
            <AltitudeMeters>84.59999847412109375</AltitudeMeters>
            <DistanceMeters>52981.686426913</DistanceMeters>
          </Trackpoint>
          <Trackpoint>
            <Time>2020-04-26T18:37:43.000Z</Time>
            <Position>
              <LatitudeDegrees>38.53434951044619083404541015625</LatitudeDegrees>
              <LongitudeDegrees>-28.6800380609929561614990234375</LongitudeDegrees>
            </Position>
            <AltitudeMeters>84.8000030517578125</AltitudeMeters>
            <DistanceMeters>52990.015777267</DistanceMeters>
          </Trackpoint>
          <Trackpoint>
            <Time>2020-04-26T18:37:45.000Z</Time>
            <Position>
              <LatitudeDegrees>38.5342600755393505096435546875</LatitudeDegrees>
              <LongitudeDegrees>-28.6801755242049694061279296875</LongitudeDegrees>
            </Position>
            <AltitudeMeters>86</AltitudeMeters>
            <DistanceMeters>53005.582765783</DistanceMeters>
          </Trackpoint>
          <Trackpoint>
            <Time>2020-04-26T18:37:46.000Z</Time>
            <Position>
              <LatitudeDegrees>38.53422059677541255950927734375</LatitudeDegrees>
              <LongitudeDegrees>-28.6802422441542148590087890625</LongitudeDegrees>
            </Position>
            <AltitudeMeters>86.40000152587890625</AltitudeMeters>
            <DistanceMeters>53012.867045376</DistanceMeters>
          </Trackpoint>
          <Trackpoint>
            <Time>2020-04-26T18:37:47.000Z</Time>
            <Position>
              <LatitudeDegrees>38.5341878235340118408203125</LatitudeDegrees>
              <LongitudeDegrees>-28.68031122721731662750244140625</LongitudeDegrees>
            </Position>
            <AltitudeMeters>86.59999847412109375</AltitudeMeters>
            <DistanceMeters>53019.892598581</DistanceMeters>
          </Trackpoint>
          <Trackpoint>
            <Time>2020-04-26T18:37:49.000Z</Time>
            <Position>
              <LatitudeDegrees>38.53413945995271205902099609375</LatitudeDegrees>
              <LongitudeDegrees>-28.6804534681141376495361328125</LongitudeDegrees>
            </Position>
            <AltitudeMeters>87</AltitudeMeters>
            <DistanceMeters>53033.395757602</DistanceMeters>
          </Trackpoint>
          <Trackpoint>
            <Time>2020-04-26T18:37:50.000Z</Time>
            <Position>
              <LatitudeDegrees>38.53412001393735408782958984375</LatitudeDegrees>
              <LongitudeDegrees>-28.68052496574819087982177734375</LongitudeDegrees>
            </Position>
            <AltitudeMeters>87.1999969482421875</AltitudeMeters>
            <DistanceMeters>53039.986255891</DistanceMeters>
          </Trackpoint>
          <Trackpoint>
            <Time>2020-04-26T18:37:53.000Z</Time>
            <Position>
              <LatitudeDegrees>38.5340659506618976593017578125</LatitudeDegrees>
              <LongitudeDegrees>-28.6807294003665447235107421875</LongitudeDegrees>
            </Position>
            <AltitudeMeters>88.1999969482421875</AltitudeMeters>
            <DistanceMeters>53058.775130485</DistanceMeters>
          </Trackpoint>
          <Trackpoint>
            <Time>2020-04-26T18:37:55.000Z</Time>
            <Position>
              <LatitudeDegrees>38.53403300978243350982666015625</LatitudeDegrees>
              <LongitudeDegrees>-28.6808547936379909515380859375</LongitudeDegrees>
            </Position>
            <AltitudeMeters>89.1999969482421875</AltitudeMeters>
            <DistanceMeters>53070.291803738</DistanceMeters>
          </Trackpoint>
          <Trackpoint>
            <Time>2020-04-26T18:37:56.000Z</Time>
            <Position>
              <LatitudeDegrees>38.53401524014770984649658203125</LatitudeDegrees>
              <LongitudeDegrees>-28.68091262876987457275390625</LongitudeDegrees>
            </Position>
            <AltitudeMeters>89.40000152587890625</AltitudeMeters>
            <DistanceMeters>53075.701653805</DistanceMeters>
          </Trackpoint>
          <Trackpoint>
            <Time>2020-04-26T18:38:00.000Z</Time>
            <Position>
              <LatitudeDegrees>38.53395354934036731719970703125</LatitudeDegrees>
              <LongitudeDegrees>-28.68112812750041484832763671875</LongitudeDegrees>
            </Position>
            <AltitudeMeters>90.59999847412109375</AltitudeMeters>
            <DistanceMeters>53095.680780391</DistanceMeters>
          </Trackpoint>
          <Trackpoint>
            <Time>2020-04-26T18:38:03.000Z</Time>
            <Position>
              <LatitudeDegrees>38.53390560485422611236572265625</LatitudeDegrees>
              <LongitudeDegrees>-28.68128922767937183380126953125</LongitudeDegrees>
            </Position>
            <AltitudeMeters>91.1999969482421875</AltitudeMeters>
            <DistanceMeters>53110.687782307</DistanceMeters>
          </Trackpoint>
          <Trackpoint>
            <Time>2020-04-26T18:38:04.000Z</Time>
            <Position>
              <LatitudeDegrees>38.533887751400470733642578125</LatitudeDegrees>
              <LongitudeDegrees>-28.6813424527645111083984375</LongitudeDegrees>
            </Position>
            <AltitudeMeters>91.40000152587890625</AltitudeMeters>
            <DistanceMeters>53115.730469613</DistanceMeters>
          </Trackpoint>
          <Trackpoint>
            <Time>2020-04-26T18:38:06.000Z</Time>
            <Position>
              <LatitudeDegrees>38.53384827263653278350830078125</LatitudeDegrees>
              <LongitudeDegrees>-28.68145066313445568084716796875</LongitudeDegrees>
            </Position>
            <AltitudeMeters>91.8000030517578125</AltitudeMeters>
            <DistanceMeters>53126.126235813</DistanceMeters>
          </Trackpoint>
          <Trackpoint>
            <Time>2020-04-26T18:38:12.000Z</Time>
            <Position>
              <LatitudeDegrees>38.53370276279747486114501953125</LatitudeDegrees>
              <LongitudeDegrees>-28.68177923373878002166748046875</LongitudeDegrees>
            </Position>
            <AltitudeMeters>92</AltitudeMeters>
            <DistanceMeters>53158.999573616</DistanceMeters>
          </Trackpoint>
          <Trackpoint>
            <Time>2020-04-26T18:38:19.000Z</Time>
            <Position>
              <LatitudeDegrees>38.53345817886292934417724609375</LatitudeDegrees>
              <LongitudeDegrees>-28.68219380266964435577392578125</LongitudeDegrees>
            </Position>
            <AltitudeMeters>91</AltitudeMeters>
            <DistanceMeters>53204.209026085</DistanceMeters>
          </Trackpoint>
          <Trackpoint>
            <Time>2020-04-26T18:38:20.000Z</Time>
            <Position>
              <LatitudeDegrees>38.53341425769031047821044921875</LatitudeDegrees>
              <LongitudeDegrees>-28.68225297890603542327880859375</LongitudeDegrees>
            </Position>
            <AltitudeMeters>90.8000030517578125</AltitudeMeters>
            <DistanceMeters>53211.311915433</DistanceMeters>
          </Trackpoint>
          <Trackpoint>
            <Time>2020-04-26T18:38:22.000Z</Time>
            <Position>
              <LatitudeDegrees>38.5333048738539218902587890625</LatitudeDegrees>
              <LongitudeDegrees>-28.682354651391506195068359375</LongitudeDegrees>
            </Position>
            <AltitudeMeters>90.59999847412109375</AltitudeMeters>
            <DistanceMeters>53226.364578923</DistanceMeters>
          </Trackpoint>
          <Trackpoint>
            <Time>2020-04-26T18:38:23.000Z</Time>
            <Position>
              <LatitudeDegrees>38.533240668475627899169921875</LatitudeDegrees>
              <LongitudeDegrees>-28.6823916994035243988037109375</LongitudeDegrees>
            </Position>
            <AltitudeMeters>90.59999847412109375</AltitudeMeters>
            <DistanceMeters>53234.205290653</DistanceMeters>
          </Trackpoint>
          <Trackpoint>
            <Time>2020-04-26T18:38:24.000Z</Time>
            <Position>
              <LatitudeDegrees>38.53317487053573131561279296875</LatitudeDegrees>
              <LongitudeDegrees>-28.68242816068232059478759765625</LongitudeDegrees>
            </Position>
            <AltitudeMeters>90.40000152587890625</AltitudeMeters>
            <DistanceMeters>53242.186969004</DistanceMeters>
          </Trackpoint>
          <Trackpoint>
            <Time>2020-04-26T18:38:25.000Z</Time>
            <Position>
              <LatitudeDegrees>38.53310898877680301666259765625</LatitudeDegrees>
              <LongitudeDegrees>-28.68247090838849544525146484375</LongitudeDegrees>
            </Position>
            <AltitudeMeters>90.1999969482421875</AltitudeMeters>
            <DistanceMeters>53250.409937593</DistanceMeters>
          </Trackpoint>
          <Trackpoint>
            <Time>2020-04-26T18:38:27.000Z</Time>
            <Position>
              <LatitudeDegrees>38.53296649642288684844970703125</LatitudeDegrees>
              <LongitudeDegrees>-28.68256914429366588592529296875</LongitudeDegrees>
            </Position>
            <AltitudeMeters>89.40000152587890625</AltitudeMeters>
            <DistanceMeters>53268.428967218</DistanceMeters>
          </Trackpoint>
          <Trackpoint>
            <Time>2020-04-26T18:38:28.000Z</Time>
            <Position>
              <LatitudeDegrees>38.53289164602756500244140625</LatitudeDegrees>
              <LongitudeDegrees>-28.68262094445526599884033203125</LongitudeDegrees>
            </Position>
            <AltitudeMeters>88.8000030517578125</AltitudeMeters>
            <DistanceMeters>53277.902134571</DistanceMeters>
          </Trackpoint>
          <Trackpoint>
            <Time>2020-04-26T18:38:30.000Z</Time>
            <Position>
              <LatitudeDegrees>38.5327275283634662628173828125</LatitudeDegrees>
              <LongitudeDegrees>-28.6827211081981658935546875</LongitudeDegrees>
            </Position>
            <AltitudeMeters>88</AltitudeMeters>
            <DistanceMeters>53298.143716982</DistanceMeters>
          </Trackpoint>
          <Trackpoint>
            <Time>2020-04-26T18:38:31.000Z</Time>
            <Position>
              <LatitudeDegrees>38.53263339959084987640380859375</LatitudeDegrees>
              <LongitudeDegrees>-28.68276796303689479827880859375</LongitudeDegrees>
            </Position>
            <AltitudeMeters>87.40000152587890625</AltitudeMeters>
            <DistanceMeters>53309.386626306</DistanceMeters>
          </Trackpoint>
          <Trackpoint>
            <Time>2020-04-26T18:38:32.000Z</Time>
            <Position>
              <LatitudeDegrees>38.5325344093143939971923828125</LatitudeDegrees>
              <LongitudeDegrees>-28.682803921401500701904296875</LongitudeDegrees>
            </Position>
            <AltitudeMeters>85.59999847412109375</AltitudeMeters>
            <DistanceMeters>53320.841189184</DistanceMeters>
          </Trackpoint>
          <Trackpoint>
            <Time>2020-04-26T18:38:33.000Z</Time>
            <Position>
              <LatitudeDegrees>38.53243558667600154876708984375</LatitudeDegrees>
              <LongitudeDegrees>-28.68283317424356937408447265625</LongitudeDegrees>
            </Position>
            <AltitudeMeters>84.1999969482421875</AltitudeMeters>
            <DistanceMeters>53332.131386661</DistanceMeters>
          </Trackpoint>
          <Trackpoint>
            <Time>2020-04-26T18:38:34.000Z</Time>
            <Position>
              <LatitudeDegrees>38.53233835659921169281005859375</LatitudeDegrees>
              <LongitudeDegrees>-28.68286787532269954681396484375</LongitudeDegrees>
            </Position>
            <AltitudeMeters>82.40000152587890625</AltitudeMeters>
            <DistanceMeters>53343.367065043</DistanceMeters>
          </Trackpoint>
          <Trackpoint>
            <Time>2020-04-26T18:38:35.000Z</Time>
            <Position>
              <LatitudeDegrees>38.53224389255046844482421875</LatitudeDegrees>
              <LongitudeDegrees>-28.68292369879782199859619140625</LongitudeDegrees>
            </Position>
            <AltitudeMeters>81.1999969482421875</AltitudeMeters>
            <DistanceMeters>53354.95058376</DistanceMeters>
          </Trackpoint>
          <Trackpoint>
            <Time>2020-04-26T18:38:36.000Z</Time>
            <Position>
              <LatitudeDegrees>38.532151021063327789306640625</LatitudeDegrees>
              <LongitudeDegrees>-28.682998381555080413818359375</LongitudeDegrees>
            </Position>
            <AltitudeMeters>80</AltitudeMeters>
            <DistanceMeters>53367.162903055</DistanceMeters>
          </Trackpoint>
          <Trackpoint>
            <Time>2020-04-26T18:38:37.000Z</Time>
            <Position>
              <LatitudeDegrees>38.53206074796617031097412109375</LatitudeDegrees>
              <LongitudeDegrees>-28.6830912530422210693359375</LongitudeDegrees>
            </Position>
            <AltitudeMeters>78.8000030517578125</AltitudeMeters>
            <DistanceMeters>53380.059957296</DistanceMeters>
          </Trackpoint>
          <Trackpoint>
            <Time>2020-04-26T18:38:38.000Z</Time>
            <Position>
              <LatitudeDegrees>38.53196871466934680938720703125</LatitudeDegrees>
              <LongitudeDegrees>-28.6831936798989772796630859375</LongitudeDegrees>
            </Position>
            <AltitudeMeters>77.40000152587890625</AltitudeMeters>
            <DistanceMeters>53393.641465736</DistanceMeters>
          </Trackpoint>
          <Trackpoint>
            <Time>2020-04-26T18:38:39.000Z</Time>
            <Position>
              <LatitudeDegrees>38.53187835775315761566162109375</LatitudeDegrees>
              <LongitudeDegrees>-28.6833009682595729827880859375</LongitudeDegrees>
            </Position>
            <AltitudeMeters>75.8000030517578125</AltitudeMeters>
            <DistanceMeters>53407.367152781</DistanceMeters>
          </Trackpoint>
          <Trackpoint>
            <Time>2020-04-26T18:38:41.000Z</Time>
            <Position>
              <LatitudeDegrees>38.53169982321560382843017578125</LatitudeDegrees>
              <LongitudeDegrees>-28.6835001222789287567138671875</LongitudeDegrees>
            </Position>
            <AltitudeMeters>73.8000030517578125</AltitudeMeters>
            <DistanceMeters>53433.740276185</DistanceMeters>
          </Trackpoint>
          <Trackpoint>
            <Time>2020-04-26T18:38:42.000Z</Time>
            <Position>
              <LatitudeDegrees>38.5316123999655246734619140625</LatitudeDegrees>
              <LongitudeDegrees>-28.6835794150829315185546875</LongitudeDegrees>
            </Position>
            <AltitudeMeters>73.8000030517578125</AltitudeMeters>
            <DistanceMeters>53445.67133335</DistanceMeters>
          </Trackpoint>
          <Trackpoint>
            <Time>2020-04-26T18:38:43.000Z</Time>
            <Position>
              <LatitudeDegrees>38.53152380324900150299072265625</LatitudeDegrees>
              <LongitudeDegrees>-28.6836429499089717864990234375</LongitudeDegrees>
            </Position>
            <AltitudeMeters>73.8000030517578125</AltitudeMeters>
            <DistanceMeters>53456.977915159</DistanceMeters>
          </Trackpoint>
          <Trackpoint>
            <Time>2020-04-26T18:38:45.000Z</Time>
            <Position>
              <LatitudeDegrees>38.5313616134226322174072265625</LatitudeDegrees>
              <LongitudeDegrees>-28.68375199846923351287841796875</LongitudeDegrees>
            </Position>
            <AltitudeMeters>75.1999969482421875</AltitudeMeters>
            <DistanceMeters>53477.37437617</DistanceMeters>
          </Trackpoint>
          <Trackpoint>
            <Time>2020-04-26T18:38:46.000Z</Time>
            <Position>
              <LatitudeDegrees>38.53129615075886249542236328125</LatitudeDegrees>
              <LongitudeDegrees>-28.68381452746689319610595703125</LongitudeDegrees>
            </Position>
            <AltitudeMeters>76</AltitudeMeters>
            <DistanceMeters>53486.470175222</DistanceMeters>
          </Trackpoint>
          <Trackpoint>
            <Time>2020-04-26T18:38:47.000Z</Time>
            <Position>
              <LatitudeDegrees>38.53124032728374004364013671875</LatitudeDegrees>
              <LongitudeDegrees>-28.6838833428919315338134765625</LongitudeDegrees>
            </Position>
            <AltitudeMeters>76.59999847412109375</AltitudeMeters>
            <DistanceMeters>53495.101405184</DistanceMeters>
          </Trackpoint>
          <Trackpoint>
            <Time>2020-04-26T18:38:52.000Z</Time>
            <Position>
              <LatitudeDegrees>38.530981577932834625244140625</LatitudeDegrees>
              <LongitudeDegrees>-28.68421685881912708282470703125</LongitudeDegrees>
            </Position>
            <AltitudeMeters>76.59999847412109375</AltitudeMeters>
            <DistanceMeters>53535.999339847</DistanceMeters>
          </Trackpoint>
          <Trackpoint>
            <Time>2020-04-26T18:38:53.000Z</Time>
            <Position>
              <LatitudeDegrees>38.53093187324702739715576171875</LatitudeDegrees>
              <LongitudeDegrees>-28.6842893622815608978271484375</LongitudeDegrees>
            </Position>
            <AltitudeMeters>76.59999847412109375</AltitudeMeters>
            <DistanceMeters>53544.394023675</DistanceMeters>
          </Trackpoint>
          <Trackpoint>
            <Time>2020-04-26T18:38:55.000Z</Time>
            <Position>
              <LatitudeDegrees>38.5308231599628925323486328125</LatitudeDegrees>
              <LongitudeDegrees>-28.68442975915968418121337890625</LongitudeDegrees>
            </Position>
            <AltitudeMeters>76.1999969482421875</AltitudeMeters>
            <DistanceMeters>53561.594121479</DistanceMeters>
          </Trackpoint>
          <Trackpoint>
            <Time>2020-04-26T18:38:58.000Z</Time>
            <Position>
              <LatitudeDegrees>38.530628867447376251220703125</LatitudeDegrees>
              <LongitudeDegrees>-28.6846165917813777923583984375</LongitudeDegrees>
            </Position>
            <AltitudeMeters>75.59999847412109375</AltitudeMeters>
            <DistanceMeters>53588.65471994</DistanceMeters>
          </Trackpoint>
          <Trackpoint>
            <Time>2020-04-26T18:38:59.000Z</Time>
            <Position>
              <LatitudeDegrees>38.53055619634687900543212890625</LatitudeDegrees>
              <LongitudeDegrees>-28.68467652238905429840087890625</LongitudeDegrees>
            </Position>
            <AltitudeMeters>75.40000152587890625</AltitudeMeters>
            <DistanceMeters>53598.280133402</DistanceMeters>
          </Trackpoint>
          <Trackpoint>
            <Time>2020-04-26T18:39:01.000Z</Time>
            <Position>
              <LatitudeDegrees>38.5304010473191738128662109375</LatitudeDegrees>
              <LongitudeDegrees>-28.68480409495532512664794921875</LongitudeDegrees>
            </Position>
            <AltitudeMeters>74.1999969482421875</AltitudeMeters>
            <DistanceMeters>53618.812501723</DistanceMeters>
          </Trackpoint>
          <Trackpoint>
            <Time>2020-04-26T18:39:03.000Z</Time>
            <Position>
              <LatitudeDegrees>38.5302381031215190887451171875</LatitudeDegrees>
              <LongitudeDegrees>-28.68494038470089435577392578125</LongitudeDegrees>
            </Position>
            <AltitudeMeters>73.40000152587890625</AltitudeMeters>
            <DistanceMeters>53640.485676766</DistanceMeters>
          </Trackpoint>
          <Trackpoint>
            <Time>2020-04-26T18:39:04.000Z</Time>
            <Position>
              <LatitudeDegrees>38.530155457556247711181640625</LatitudeDegrees>
              <LongitudeDegrees>-28.68501079268753528594970703125</LongitudeDegrees>
            </Position>
            <AltitudeMeters>72.59999847412109375</AltitudeMeters>
            <DistanceMeters>53651.539861242</DistanceMeters>
          </Trackpoint>
          <Trackpoint>
            <Time>2020-04-26T18:39:05.000Z</Time>
            <Position>
              <LatitudeDegrees>38.530062250792980194091796875</LatitudeDegrees>
              <LongitudeDegrees>-28.68506611324846744537353515625</LongitudeDegrees>
            </Position>
            <AltitudeMeters>72</AltitudeMeters>
            <DistanceMeters>53662.977857025</DistanceMeters>
          </Trackpoint>
          <Trackpoint>
            <Time>2020-04-26T18:39:06.000Z</Time>
            <Position>
              <LatitudeDegrees>38.52995923720300197601318359375</LatitudeDegrees>
              <LongitudeDegrees>-28.68509260006248950958251953125</LongitudeDegrees>
            </Position>
            <AltitudeMeters>71.1999969482421875</AltitudeMeters>
            <DistanceMeters>53674.672707935</DistanceMeters>
          </Trackpoint>
          <Trackpoint>
            <Time>2020-04-26T18:39:09.000Z</Time>
            <Position>
              <LatitudeDegrees>38.52968112565577030181884765625</LatitudeDegrees>
              <LongitudeDegrees>-28.68510232307016849517822265625</LongitudeDegrees>
            </Position>
            <AltitudeMeters>71.1999969482421875</AltitudeMeters>
            <DistanceMeters>53705.638588473</DistanceMeters>
          </Trackpoint>
          <Trackpoint>
            <Time>2020-04-26T18:39:10.000Z</Time>
            <Position>
              <LatitudeDegrees>38.52960250340402126312255859375</LatitudeDegrees>
              <LongitudeDegrees>-28.68510902859270572662353515625</LongitudeDegrees>
            </Position>
            <AltitudeMeters>71.8000030517578125</AltitudeMeters>
            <DistanceMeters>53714.408890129</DistanceMeters>
          </Trackpoint>
          <Trackpoint>
            <Time>2020-04-26T18:39:11.000Z</Time>
            <Position>
              <LatitudeDegrees>38.5295299999415874481201171875</LatitudeDegrees>
              <LongitudeDegrees>-28.6851174943149089813232421875</LongitudeDegrees>
            </Position>
            <AltitudeMeters>72.40000152587890625</AltitudeMeters>
            <DistanceMeters>53722.512390354</DistanceMeters>
          </Trackpoint>
          <Trackpoint>
            <Time>2020-04-26T18:39:12.000Z</Time>
            <Position>
              <LatitudeDegrees>38.5294652916491031646728515625</LatitudeDegrees>
              <LongitudeDegrees>-28.6851329170167446136474609375</LongitudeDegrees>
            </Position>
            <AltitudeMeters>72.59999847412109375</AltitudeMeters>
            <DistanceMeters>53729.839313615</DistanceMeters>
          </Trackpoint>
          <Trackpoint>
            <Time>2020-04-26T18:39:13.000Z</Time>
            <Position>
              <LatitudeDegrees>38.52940971963107585906982421875</LatitudeDegrees>
              <LongitudeDegrees>-28.6851553805172443389892578125</LongitudeDegrees>
            </Position>
            <AltitudeMeters>73.1999969482421875</AltitudeMeters>
            <DistanceMeters>53736.326235552</DistanceMeters>
          </Trackpoint>
          <Trackpoint>
            <Time>2020-04-26T18:39:14.000Z</Time>
            <Position>
              <LatitudeDegrees>38.52936194278299808502197265625</LatitudeDegrees>
              <LongitudeDegrees>-28.68518128059804439544677734375</LongitudeDegrees>
            </Position>
            <AltitudeMeters>74.1999969482421875</AltitudeMeters>
            <DistanceMeters>53742.101796338</DistanceMeters>
          </Trackpoint>
          <Trackpoint>
            <Time>2020-04-26T18:39:16.000Z</Time>
            <Position>
              <LatitudeDegrees>38.5292874276638031005859375</LatitudeDegrees>
              <LongitudeDegrees>-28.68523475714027881622314453125</LongitudeDegrees>
            </Position>
            <AltitudeMeters>75.40000152587890625</AltitudeMeters>
            <DistanceMeters>53751.613016334</DistanceMeters>
          </Trackpoint>
          <Trackpoint>
            <Time>2020-04-26T18:39:17.000Z</Time>
            <Position>
              <LatitudeDegrees>38.52925859391689300537109375</LatitudeDegrees>
              <LongitudeDegrees>-28.68525923229753971099853515625</LongitudeDegrees>
            </Position>
            <AltitudeMeters>76</AltitudeMeters>
            <DistanceMeters>53755.46482313</DistanceMeters>
          </Trackpoint>
          <Trackpoint>
            <Time>2020-04-26T18:39:18.000Z</Time>
            <Position>
              <LatitudeDegrees>38.5292305983603000640869140625</LatitudeDegrees>
              <LongitudeDegrees>-28.68528454564511775970458984375</LongitudeDegrees>
            </Position>
            <AltitudeMeters>76.59999847412109375</AltitudeMeters>
            <DistanceMeters>53759.282485161</DistanceMeters>
          </Trackpoint>
          <Trackpoint>
            <Time>2020-04-26T18:39:20.000Z</Time>
            <Position>
              <LatitudeDegrees>38.5291766189038753509521484375</LatitudeDegrees>
              <LongitudeDegrees>-28.68533651344478130340576171875</LongitudeDegrees>
            </Position>
            <AltitudeMeters>77.8000030517578125</AltitudeMeters>
            <DistanceMeters>53766.803415878</DistanceMeters>
          </Trackpoint>
          <Trackpoint>
            <Time>2020-04-26T18:39:22.000Z</Time>
            <Position>
              <LatitudeDegrees>38.52912574075162410736083984375</LatitudeDegrees>
              <LongitudeDegrees>-28.6853813566267490386962890625</LongitudeDegrees>
            </Position>
            <AltitudeMeters>78.59999847412109375</AltitudeMeters>
            <DistanceMeters>53773.68219488</DistanceMeters>
          </Trackpoint>
          <Trackpoint>
            <Time>2020-04-26T18:39:23.000Z</Time>
            <Position>
              <LatitudeDegrees>38.529099337756633758544921875</LatitudeDegrees>
              <LongitudeDegrees>-28.6854054965078830718994140625</LongitudeDegrees>
            </Position>
            <AltitudeMeters>79</AltitudeMeters>
            <DistanceMeters>53777.295709864</DistanceMeters>
          </Trackpoint>
          <Trackpoint>
            <Time>2020-04-26T18:39:25.000Z</Time>
            <Position>
              <LatitudeDegrees>38.52904133498668670654296875</LatitudeDegrees>
              <LongitudeDegrees>-28.68544832803308963775634765625</LongitudeDegrees>
            </Position>
            <AltitudeMeters>79.8000030517578125</AltitudeMeters>
            <DistanceMeters>53784.750917474</DistanceMeters>
          </Trackpoint>
          <Trackpoint>
            <Time>2020-04-26T18:39:26.000Z</Time>
            <Position>
              <LatitudeDegrees>38.5290093161165714263916015625</LatitudeDegrees>
              <LongitudeDegrees>-28.685466013848781585693359375</LongitudeDegrees>
            </Position>
            <AltitudeMeters>80.1999969482421875</AltitudeMeters>
            <DistanceMeters>53788.634244355</DistanceMeters>
          </Trackpoint>
          <Trackpoint>
            <Time>2020-04-26T18:39:29.000Z</Time>
            <Position>
              <LatitudeDegrees>38.52891971357166767120361328125</LatitudeDegrees>
              <LongitudeDegrees>-28.685519658029079437255859375</LongitudeDegrees>
            </Position>
            <AltitudeMeters>81.59999847412109375</AltitudeMeters>
            <DistanceMeters>53799.646688527</DistanceMeters>
          </Trackpoint>
          <Trackpoint>
            <Time>2020-04-26T18:39:30.000Z</Time>
            <Position>
              <LatitudeDegrees>38.5288882814347743988037109375</LatitudeDegrees>
              <LongitudeDegrees>-28.6855362541973590850830078125</LongitudeDegrees>
            </Position>
            <AltitudeMeters>82</AltitudeMeters>
            <DistanceMeters>53803.432283766</DistanceMeters>
          </Trackpoint>
          <Trackpoint>
            <Time>2020-04-26T18:39:32.000Z</Time>
            <Position>
              <LatitudeDegrees>38.52882030420005321502685546875</LatitudeDegrees>
              <LongitudeDegrees>-28.68557908572256565093994140625</LongitudeDegrees>
            </Position>
            <AltitudeMeters>82.40000152587890625</AltitudeMeters>
            <DistanceMeters>53811.867744772</DistanceMeters>
          </Trackpoint>
          <Trackpoint>
            <Time>2020-04-26T18:39:34.000Z</Time>
            <Position>
              <LatitudeDegrees>38.5287541709840297698974609375</LatitudeDegrees>
              <LongitudeDegrees>-28.68563557974994182586669921875</LongitudeDegrees>
            </Position>
            <AltitudeMeters>82.59999847412109375</AltitudeMeters>
            <DistanceMeters>53820.72054283</DistanceMeters>
          </Trackpoint>
          <Trackpoint>
            <Time>2020-04-26T18:39:36.000Z</Time>
            <Position>
              <LatitudeDegrees>38.52868569083511829376220703125</LatitudeDegrees>
              <LongitudeDegrees>-28.68570012040436267852783203125</LongitudeDegrees>
            </Position>
            <AltitudeMeters>82.59999847412109375</AltitudeMeters>
            <DistanceMeters>53830.190850071</DistanceMeters>
          </Trackpoint>
          <Trackpoint>
            <Time>2020-04-26T18:39:38.000Z</Time>
            <Position>
              <LatitudeDegrees>38.52861427702009677886962890625</LatitudeDegrees>
              <LongitudeDegrees>-28.68577807210385799407958984375</LongitudeDegrees>
            </Position>
            <AltitudeMeters>82</AltitudeMeters>
            <DistanceMeters>53840.642924737</DistanceMeters>
          </Trackpoint>
          <Trackpoint>
            <Time>2020-04-26T18:39:41.000Z</Time>
            <Position>
              <LatitudeDegrees>38.52850698865950107574462890625</LatitudeDegrees>
              <LongitudeDegrees>-28.6859248392283916473388671875</LongitudeDegrees>
            </Position>
            <AltitudeMeters>81.8000030517578125</AltitudeMeters>
            <DistanceMeters>53858.133003914</DistanceMeters>
          </Trackpoint>
          <Trackpoint>
            <Time>2020-04-26T18:39:42.000Z</Time>
            <Position>
              <LatitudeDegrees>38.5284708626568317413330078125</LatitudeDegrees>
              <LongitudeDegrees>-28.68598074652254581451416015625</LongitudeDegrees>
            </Position>
            <AltitudeMeters>81.40000152587890625</AltitudeMeters>
            <DistanceMeters>53864.446383154</DistanceMeters>
          </Trackpoint>
          <Trackpoint>
            <Time>2020-04-26T18:39:44.000Z</Time>
            <Position>
              <LatitudeDegrees>38.52839291095733642578125</LatitudeDegrees>
              <LongitudeDegrees>-28.6860874481499195098876953125</LongitudeDegrees>
            </Position>
            <AltitudeMeters>81</AltitudeMeters>
            <DistanceMeters>53877.15867044</DistanceMeters>
          </Trackpoint>
          <Trackpoint>
            <Time>2020-04-26T18:39:46.000Z</Time>
            <Position>
              <LatitudeDegrees>38.52831621654331684112548828125</LatitudeDegrees>
              <LongitudeDegrees>-28.6861514858901500701904296875</LongitudeDegrees>
            </Position>
            <AltitudeMeters>80.59999847412109375</AltitudeMeters>
            <DistanceMeters>53887.354465652</DistanceMeters>
          </Trackpoint>
          <Trackpoint>
            <Time>2020-04-26T18:39:47.000Z</Time>
            <Position>
              <LatitudeDegrees>38.52826885879039764404296875</LatitudeDegrees>
              <LongitudeDegrees>-28.68614503182470798492431640625</LongitudeDegrees>
            </Position>
            <AltitudeMeters>80.1999969482421875</AltitudeMeters>
            <DistanceMeters>53892.654707894</DistanceMeters>
          </Trackpoint>
          <Trackpoint>
            <Time>2020-04-26T18:39:49.000Z</Time>
            <Position>
              <LatitudeDegrees>38.52816450409591197967529296875</LatitudeDegrees>
              <LongitudeDegrees>-28.6860991828143596649169921875</LongitudeDegrees>
            </Position>
            <AltitudeMeters>79.59999847412109375</AltitudeMeters>
            <DistanceMeters>53904.936336325</DistanceMeters>
          </Trackpoint>
          <Trackpoint>
            <Time>2020-04-26T18:39:50.000Z</Time>
            <Position>
              <LatitudeDegrees>38.5281090997159481048583984375</LatitudeDegrees>
              <LongitudeDegrees>-28.686066158115863800048828125</LongitudeDegrees>
            </Position>
            <AltitudeMeters>79.40000152587890625</AltitudeMeters>
            <DistanceMeters>53911.740541049</DistanceMeters>
          </Trackpoint>
          <Trackpoint>
            <Time>2020-04-26T18:39:51.000Z</Time>
            <Position>
              <LatitudeDegrees>38.5280524380505084991455078125</LatitudeDegrees>
              <LongitudeDegrees>-28.6860381625592708587646484375</LongitudeDegrees>
            </Position>
            <AltitudeMeters>79.1999969482421875</AltitudeMeters>
            <DistanceMeters>53918.50214419</DistanceMeters>
          </Trackpoint>
          <Trackpoint>
            <Time>2020-04-26T18:39:53.000Z</Time>
            <Position>
              <LatitudeDegrees>38.52793601341545581817626953125</LatitudeDegrees>
              <LongitudeDegrees>-28.6860207282006740570068359375</LongitudeDegrees>
            </Position>
            <AltitudeMeters>78.8000030517578125</AltitudeMeters>
            <DistanceMeters>53931.548865654</DistanceMeters>
          </Trackpoint>
          <Trackpoint>
            <Time>2020-04-26T18:39:56.000Z</Time>
            <Position>
              <LatitudeDegrees>38.52780391462147235870361328125</LatitudeDegrees>
              <LongitudeDegrees>-28.6861055530607700347900390625</LongitudeDegrees>
            </Position>
            <AltitudeMeters>80</AltitudeMeters>
            <DistanceMeters>53948.002488106</DistanceMeters>
          </Trackpoint>
          <Trackpoint>
            <Time>2020-04-26T18:39:57.000Z</Time>
            <Position>
              <LatitudeDegrees>38.5277698002755641937255859375</LatitudeDegrees>
              <LongitudeDegrees>-28.68614687584340572357177734375</LongitudeDegrees>
            </Position>
            <AltitudeMeters>80.1999969482421875</AltitudeMeters>
            <DistanceMeters>53953.233275009</DistanceMeters>
          </Trackpoint>
          <Trackpoint>
            <Time>2020-04-26T18:39:58.000Z</Time>
            <Position>
              <LatitudeDegrees>38.52773082442581653594970703125</LatitudeDegrees>
              <LongitudeDegrees>-28.68618878535926342010498046875</LongitudeDegrees>
            </Position>
            <AltitudeMeters>80.40000152587890625</AltitudeMeters>
            <DistanceMeters>53958.90311382</DistanceMeters>
          </Trackpoint>
          <Trackpoint>
            <Time>2020-04-26T18:40:01.000Z</Time>
            <Position>
              <LatitudeDegrees>38.527571819722652435302734375</LatitudeDegrees>
              <LongitudeDegrees>-28.68626656942069530487060546875</LongitudeDegrees>
            </Position>
            <AltitudeMeters>80.40000152587890625</AltitudeMeters>
            <DistanceMeters>53977.85254626</DistanceMeters>
          </Trackpoint>
          <Trackpoint>
            <Time>2020-04-26T18:40:04.000Z</Time>
            <Position>
              <LatitudeDegrees>38.52736336179077625274658203125</LatitudeDegrees>
              <LongitudeDegrees>-28.68629808537662029266357421875</LongitudeDegrees>
            </Position>
            <AltitudeMeters>79.40000152587890625</AltitudeMeters>
            <DistanceMeters>54001.216173782</DistanceMeters>
          </Trackpoint>
          <Trackpoint>
            <Time>2020-04-26T18:40:05.000Z</Time>
            <Position>
              <LatitudeDegrees>38.52728775702416896820068359375</LatitudeDegrees>
              <LongitudeDegrees>-28.6863070540130138397216796875</LongitudeDegrees>
            </Position>
            <AltitudeMeters>79.1999969482421875</AltitudeMeters>
            <DistanceMeters>54009.667142637</DistanceMeters>
          </Trackpoint>
          <Trackpoint>
            <Time>2020-04-26T18:40:08.000Z</Time>
            <Position>
              <LatitudeDegrees>38.52704049088060855865478515625</LatitudeDegrees>
              <LongitudeDegrees>-28.68633496575057506561279296875</LongitudeDegrees>
            </Position>
            <AltitudeMeters>78.1999969482421875</AltitudeMeters>
            <DistanceMeters>54037.295414242</DistanceMeters>
          </Trackpoint>
          <Trackpoint>
            <Time>2020-04-26T18:40:09.000Z</Time>
            <Position>
              <LatitudeDegrees>38.52695147506892681121826171875</LatitudeDegrees>
              <LongitudeDegrees>-28.6863469518721103668212890625</LongitudeDegrees>
            </Position>
            <AltitudeMeters>77.1999969482421875</AltitudeMeters>
            <DistanceMeters>54047.258275291</DistanceMeters>
          </Trackpoint>
          <Trackpoint>
            <Time>2020-04-26T18:40:11.000Z</Time>
            <Position>
              <LatitudeDegrees>38.526764810085296630859375</LatitudeDegrees>
              <LongitudeDegrees>-28.6863667331635951995849609375</LongitudeDegrees>
            </Position>
            <AltitudeMeters>76.1999969482421875</AltitudeMeters>
            <DistanceMeters>54068.105759054</DistanceMeters>
          </Trackpoint>
          <Trackpoint>
            <Time>2020-04-26T18:40:13.000Z</Time>
            <Position>
              <LatitudeDegrees>38.5265703499317169189453125</LatitudeDegrees>
              <LongitudeDegrees>-28.6863834969699382781982421875</LongitudeDegrees>
            </Position>
            <AltitudeMeters>75.40000152587890625</AltitudeMeters>
            <DistanceMeters>54089.798507696</DistanceMeters>
          </Trackpoint>
          <Trackpoint>
            <Time>2020-04-26T18:40:14.000Z</Time>
            <Position>
              <LatitudeDegrees>38.52647722698748111724853515625</LatitudeDegrees>
              <LongitudeDegrees>-28.686415851116180419921875</LongitudeDegrees>
            </Position>
            <AltitudeMeters>75</AltitudeMeters>
            <DistanceMeters>54100.539048956</DistanceMeters>
          </Trackpoint>
          <Trackpoint>
            <Time>2020-04-26T18:40:15.000Z</Time>
            <Position>
              <LatitudeDegrees>38.52639726363122463226318359375</LatitudeDegrees>
              <LongitudeDegrees>-28.6864770390093326568603515625</LongitudeDegrees>
            </Position>
            <AltitudeMeters>74.40000152587890625</AltitudeMeters>
            <DistanceMeters>54110.911335626</DistanceMeters>
          </Trackpoint>
          <Trackpoint>
            <Time>2020-04-26T18:40:17.000Z</Time>
            <Position>
              <LatitudeDegrees>38.52627505548298358917236328125</LatitudeDegrees>
              <LongitudeDegrees>-28.68664543144404888153076171875</LongitudeDegrees>
            </Position>
            <AltitudeMeters>74.1999969482421875</AltitudeMeters>
            <DistanceMeters>54130.91124228</DistanceMeters>
          </Trackpoint>
          <Trackpoint>
            <Time>2020-04-26T18:40:18.000Z</Time>
            <Position>
              <LatitudeDegrees>38.52622107602655887603759765625</LatitudeDegrees>
              <LongitudeDegrees>-28.68672774173319339752197265625</LongitudeDegrees>
            </Position>
            <AltitudeMeters>74.40000152587890625</AltitudeMeters>
            <DistanceMeters>54140.263049076</DistanceMeters>
          </Trackpoint>
          <Trackpoint>
            <Time>2020-04-26T18:40:22.000Z</Time>
            <Position>
              <LatitudeDegrees>38.526040613651275634765625</LatitudeDegrees>
              <LongitudeDegrees>-28.68701524101197719573974609375</LongitudeDegrees>
            </Position>
            <AltitudeMeters>76.40000152587890625</AltitudeMeters>
            <DistanceMeters>54172.358735088</DistanceMeters>
          </Trackpoint>
          <Trackpoint>
            <Time>2020-04-26T18:40:23.000Z</Time>
            <Position>
              <LatitudeDegrees>38.52599996142089366912841796875</LatitudeDegrees>
              <LongitudeDegrees>-28.6870738305151462554931640625</LongitudeDegrees>
            </Position>
            <AltitudeMeters>76.8000030517578125</AltitudeMeters>
            <DistanceMeters>54179.177522635</DistanceMeters>
          </Trackpoint>
          <Trackpoint>
            <Time>2020-04-26T18:40:26.000Z</Time>
            <Position>
              <LatitudeDegrees>38.52588563226163387298583984375</LatitudeDegrees>
              <LongitudeDegrees>-28.68724532425403594970703125</LongitudeDegrees>
            </Position>
            <AltitudeMeters>77.40000152587890625</AltitudeMeters>
            <DistanceMeters>54198.796799851</DistanceMeters>
          </Trackpoint>
          <Trackpoint>
            <Time>2020-04-26T18:40:30.000Z</Time>
            <Position>
              <LatitudeDegrees>38.52572478353977203369140625</LatitudeDegrees>
              <LongitudeDegrees>-28.68750658817589282989501953125</LongitudeDegrees>
            </Position>
            <AltitudeMeters>77.1999969482421875</AltitudeMeters>
            <DistanceMeters>54227.745967448</DistanceMeters>
          </Trackpoint>
          <Trackpoint>
            <Time>2020-04-26T18:40:32.000Z</Time>
            <Position>
              <LatitudeDegrees>38.5256545431911945343017578125</LatitudeDegrees>
              <LongitudeDegrees>-28.687669448554515838623046875</LongitudeDegrees>
            </Position>
            <AltitudeMeters>76.1999969482421875</AltitudeMeters>
            <DistanceMeters>54243.939032624</DistanceMeters>
          </Trackpoint>
          <Trackpoint>
            <Time>2020-04-26T18:40:34.000Z</Time>
            <Position>
              <LatitudeDegrees>38.52559871971607208251953125</LatitudeDegrees>
              <LongitudeDegrees>-28.687852509319782257080078125</LongitudeDegrees>
            </Position>
            <AltitudeMeters>75.59999847412109375</AltitudeMeters>
            <DistanceMeters>54261.047008474</DistanceMeters>
          </Trackpoint>
          <Trackpoint>
            <Time>2020-04-26T18:40:35.000Z</Time>
            <Position>
              <LatitudeDegrees>38.52557265199720859527587890625</LatitudeDegrees>
              <LongitudeDegrees>-28.6879492364823818206787109375</LongitudeDegrees>
            </Position>
            <AltitudeMeters>75.1999969482421875</AltitudeMeters>
            <DistanceMeters>54269.954717591</DistanceMeters>
          </Trackpoint>
          <Trackpoint>
            <Time>2020-04-26T18:40:38.000Z</Time>
            <Position>
              <LatitudeDegrees>38.5254926048219203948974609375</LatitudeDegrees>
              <LongitudeDegrees>-28.68825609795749187469482421875</LongitudeDegrees>
            </Position>
            <AltitudeMeters>74.1999969482421875</AltitudeMeters>
            <DistanceMeters>54298.120802443</DistanceMeters>
          </Trackpoint>
          <Trackpoint>
            <Time>2020-04-26T18:40:40.000Z</Time>
            <Position>
              <LatitudeDegrees>38.5254396311938762664794921875</LatitudeDegrees>
              <LongitudeDegrees>-28.6884705908596515655517578125</LongitudeDegrees>
            </Position>
            <AltitudeMeters>73.8000030517578125</AltitudeMeters>
            <DistanceMeters>54317.706451458</DistanceMeters>
          </Trackpoint>
          <Trackpoint>
            <Time>2020-04-26T18:40:41.000Z</Time>
            <Position>
              <LatitudeDegrees>38.525411300361156463623046875</LatitudeDegrees>
              <LongitudeDegrees>-28.68857729248702526092529296875</LongitudeDegrees>
            </Position>
            <AltitudeMeters>73.59999847412109375</AltitudeMeters>
            <DistanceMeters>54327.5186212</DistanceMeters>
          </Trackpoint>
          <Trackpoint>
            <Time>2020-04-26T18:40:42.000Z</Time>
            <Position>
              <LatitudeDegrees>38.525379784405231475830078125</LatitudeDegrees>
              <LongitudeDegrees>-28.68868038989603519439697265625</LongitudeDegrees>
            </Position>
            <AltitudeMeters>73.1999969482421875</AltitudeMeters>
            <DistanceMeters>54337.157159806</DistanceMeters>
          </Trackpoint>
          <Trackpoint>
            <Time>2020-04-26T18:40:45.000Z</Time>
            <Position>
              <LatitudeDegrees>38.5252656228840351104736328125</LatitudeDegrees>
              <LongitudeDegrees>-28.68894525803625583648681640625</LongitudeDegrees>
            </Position>
            <AltitudeMeters>71.8000030517578125</AltitudeMeters>
            <DistanceMeters>54363.489334988</DistanceMeters>
          </Trackpoint>
          <Trackpoint>
            <Time>2020-04-26T18:40:46.000Z</Time>
            <Position>
              <LatitudeDegrees>38.52523486129939556121826171875</LatitudeDegrees>
              <LongitudeDegrees>-28.68900611065328121185302734375</LongitudeDegrees>
            </Position>
            <AltitudeMeters>71.1999969482421875</AltitudeMeters>
            <DistanceMeters>54369.798421845</DistanceMeters>
          </Trackpoint>
          <Trackpoint>
            <Time>2020-04-26T18:40:48.000Z</Time>
            <Position>
              <LatitudeDegrees>38.525200746953487396240234375</LatitudeDegrees>
              <LongitudeDegrees>-28.68908171541988849639892578125</LongitudeDegrees>
            </Position>
            <AltitudeMeters>70.59999847412109375</AltitudeMeters>
            <DistanceMeters>54377.398182956</DistanceMeters>
          </Trackpoint>
          <Trackpoint>
            <Time>2020-04-26T18:40:50.000Z</Time>
            <Position>
              <LatitudeDegrees>38.5251952148973941802978515625</LatitudeDegrees>
              <LongitudeDegrees>-28.68912094272673130035400390625</LongitudeDegrees>
            </Position>
            <AltitudeMeters>70.1999969482421875</AltitudeMeters>
            <DistanceMeters>54380.86893532</DistanceMeters>
          </Trackpoint>
        </Track>
      </Lap>
    </Activity>
  </Activities>
</TrainingCenterDatabase>
